<?xml version="1.0" encoding="UTF-8" standalone="yes"?>
<gpx
 xmlns="http://www.topografix.com/GPX/1/1"
 creator="OziExplorer Version 3956f - http://www.oziexplorer.com"
 version="1.1"
 xmlns:xsi="http://www.w3.org/2001/XMLSchema-instance"
 xsi:schemaLocation="http://www.topografix.com/GPX/1/1 http://www.topografix.com/GPX/1/1/gpx.xsd">
<metadata>
 <time>2017-10-20T12:31:33Z</time>
 <bounds minlat="31.764422" minlon="35.012995" maxlat="31.796626" maxlon="35.115350"/>
</metadata>
<trk>
 <name>kisalon-raziel_new, 31 km.</name>
 <desc>kisalon-raziel_new, 31 km.</desc>
<trkseg>
<trkpt lat="31.7782750" lon="35.0169260">
<ele>278.699982</ele>
<time>2017-10-20T03:41:15.000Z</time>
</trkpt>
<trkpt lat="31.7782980" lon="35.0169670">
<ele>279.500000</ele>
<time>2017-10-20T03:41:17.000Z</time>
</trkpt>
<trkpt lat="31.7783230" lon="35.0170130">
<ele>279.799988</ele>
<time>2017-10-20T03:41:20.000Z</time>
</trkpt>
<trkpt lat="31.7783270" lon="35.0169700">
<ele>278.899994</ele>
<time>2017-10-20T03:41:54.000Z</time>
</trkpt>
<trkpt lat="31.7783310" lon="35.0170020">
<ele>278.899994</ele>
<time>2017-10-20T03:42:21.000Z</time>
</trkpt>
<trkpt lat="31.7783260" lon="35.0170330">
<ele>279.000000</ele>
<time>2017-10-20T03:43:25.000Z</time>
</trkpt>
<trkpt lat="31.7783360" lon="35.0170650">
<ele>279.100006</ele>
<time>2017-10-20T03:43:40.000Z</time>
</trkpt>
<trkpt lat="31.7783570" lon="35.0170870">
<ele>279.100006</ele>
<time>2017-10-20T03:43:56.000Z</time>
</trkpt>
<trkpt lat="31.7783810" lon="35.0171040">
<ele>279.200012</ele>
<time>2017-10-20T03:44:19.000Z</time>
</trkpt>
<trkpt lat="31.7783980" lon="35.0171330">
<ele>279.299988</ele>
<time>2017-10-20T03:44:30.000Z</time>
</trkpt>
<trkpt lat="31.7783900" lon="35.0171650">
<ele>279.399994</ele>
<time>2017-10-20T03:45:01.000Z</time>
</trkpt>
<trkpt lat="31.7783640" lon="35.0171750">
<ele>279.399994</ele>
<time>2017-10-20T03:47:15.000Z</time>
</trkpt>
<trkpt lat="31.7783640" lon="35.0171410">
<ele>279.500000</ele>
<time>2017-10-20T03:47:56.000Z</time>
</trkpt>
<trkpt lat="31.7783520" lon="35.0171120">
<ele>279.600006</ele>
<time>2017-10-20T03:48:32.000Z</time>
</trkpt>
<trkpt lat="31.7783820" lon="35.0171080">
<ele>279.600006</ele>
<time>2017-10-20T03:48:50.000Z</time>
</trkpt>
<trkpt lat="31.7783940" lon="35.0171370">
<ele>279.700012</ele>
<time>2017-10-20T03:49:27.000Z</time>
</trkpt>
<trkpt lat="31.7783920" lon="35.0171690">
<ele>279.799988</ele>
<time>2017-10-20T03:50:30.000Z</time>
</trkpt>
<trkpt lat="31.7783720" lon="35.0171450">
<ele>279.600006</ele>
<time>2017-10-20T03:52:08.000Z</time>
</trkpt>
<trkpt lat="31.7783870" lon="35.0171170">
<ele>279.500000</ele>
<time>2017-10-20T03:52:21.000Z</time>
</trkpt>
<trkpt lat="31.7783770" lon="35.0170880">
<ele>279.399994</ele>
<time>2017-10-20T03:52:54.000Z</time>
</trkpt>
<trkpt lat="31.7783990" lon="35.0171060">
<ele>279.299988</ele>
<time>2017-10-20T03:56:35.000Z</time>
</trkpt>
<trkpt lat="31.7783790" lon="35.0170850">
<ele>279.200012</ele>
<time>2017-10-20T03:57:52.000Z</time>
</trkpt>
<trkpt lat="31.7784100" lon="35.0170580">
<ele>279.000000</ele>
<time>2017-10-20T04:02:45.000Z</time>
</trkpt>
<trkpt lat="31.7784370" lon="35.0170870">
<ele>278.899994</ele>
<time>2017-10-20T04:02:51.000Z</time>
</trkpt>
<trkpt lat="31.7784060" lon="35.0170820">
<ele>278.699982</ele>
<time>2017-10-20T04:03:51.000Z</time>
</trkpt>
<trkpt lat="31.7783940" lon="35.0170460">
<ele>278.600006</ele>
<time>2017-10-20T04:04:00.000Z</time>
</trkpt>
<trkpt lat="31.7783760" lon="35.0170220">
<ele>278.500000</ele>
<time>2017-10-20T04:04:03.000Z</time>
</trkpt>
<trkpt lat="31.7783590" lon="35.0169920">
<ele>278.399994</ele>
<time>2017-10-20T04:04:06.000Z</time>
</trkpt>
<trkpt lat="31.7783520" lon="35.0169560">
<ele>278.200012</ele>
<time>2017-10-20T04:04:08.000Z</time>
</trkpt>
<trkpt lat="31.7783510" lon="35.0169180">
<ele>278.100006</ele>
<time>2017-10-20T04:04:11.000Z</time>
</trkpt>
<trkpt lat="31.7783410" lon="35.0168750">
<ele>278.000000</ele>
<time>2017-10-20T04:04:14.000Z</time>
</trkpt>
<trkpt lat="31.7783380" lon="35.0168400">
<ele>277.799988</ele>
<time>2017-10-20T04:04:17.000Z</time>
</trkpt>
<trkpt lat="31.7783370" lon="35.0167890">
<ele>277.700012</ele>
<time>2017-10-20T04:04:19.000Z</time>
</trkpt>
<trkpt lat="31.7783420" lon="35.0167470">
<ele>277.500000</ele>
<time>2017-10-20T04:04:21.000Z</time>
</trkpt>
<trkpt lat="31.7783300" lon="35.0166930">
<ele>277.300018</ele>
<time>2017-10-20T04:04:24.000Z</time>
</trkpt>
<trkpt lat="31.7783100" lon="35.0166450">
<ele>277.100006</ele>
<time>2017-10-20T04:04:26.000Z</time>
</trkpt>
<trkpt lat="31.7782910" lon="35.0166210">
<ele>277.000000</ele>
<time>2017-10-20T04:04:28.000Z</time>
</trkpt>
<trkpt lat="31.7782640" lon="35.0165760">
<ele>276.799988</ele>
<time>2017-10-20T04:04:30.000Z</time>
</trkpt>
<trkpt lat="31.7782410" lon="35.0165350">
<ele>276.600006</ele>
<time>2017-10-20T04:04:32.000Z</time>
</trkpt>
<trkpt lat="31.7782180" lon="35.0164930">
<ele>276.399994</ele>
<time>2017-10-20T04:04:34.000Z</time>
</trkpt>
<trkpt lat="31.7782160" lon="35.0164560">
<ele>276.199982</ele>
<time>2017-10-20T04:04:35.000Z</time>
</trkpt>
<trkpt lat="31.7782110" lon="35.0164130">
<ele>276.000000</ele>
<time>2017-10-20T04:04:36.000Z</time>
</trkpt>
<trkpt lat="31.7782060" lon="35.0163740">
<ele>275.899994</ele>
<time>2017-10-20T04:04:37.000Z</time>
</trkpt>
<trkpt lat="31.7782020" lon="35.0163130">
<ele>275.600006</ele>
<time>2017-10-20T04:04:39.000Z</time>
</trkpt>
<trkpt lat="31.7782030" lon="35.0162730">
<ele>275.399994</ele>
<time>2017-10-20T04:04:40.000Z</time>
</trkpt>
<trkpt lat="31.7782060" lon="35.0162410">
<ele>275.299988</ele>
<time>2017-10-20T04:04:41.000Z</time>
</trkpt>
<trkpt lat="31.7782110" lon="35.0162010">
<ele>275.100006</ele>
<time>2017-10-20T04:04:42.000Z</time>
</trkpt>
<trkpt lat="31.7782130" lon="35.0161630">
<ele>275.000000</ele>
<time>2017-10-20T04:04:43.000Z</time>
</trkpt>
<trkpt lat="31.7782240" lon="35.0161070">
<ele>274.699982</ele>
<time>2017-10-20T04:04:45.000Z</time>
</trkpt>
<trkpt lat="31.7782360" lon="35.0160550">
<ele>274.500000</ele>
<time>2017-10-20T04:04:47.000Z</time>
</trkpt>
<trkpt lat="31.7782280" lon="35.0160080">
<ele>274.399994</ele>
<time>2017-10-20T04:04:49.000Z</time>
</trkpt>
<trkpt lat="31.7782100" lon="35.0159740">
<ele>274.200012</ele>
<time>2017-10-20T04:04:51.000Z</time>
</trkpt>
<trkpt lat="31.7781600" lon="35.0159470">
<ele>274.000000</ele>
<time>2017-10-20T04:04:53.000Z</time>
</trkpt>
<trkpt lat="31.7781280" lon="35.0159370">
<ele>274.000000</ele>
<time>2017-10-20T04:04:55.000Z</time>
</trkpt>
<trkpt lat="31.7780890" lon="35.0159370">
<ele>274.000000</ele>
<time>2017-10-20T04:04:57.000Z</time>
</trkpt>
<trkpt lat="31.7780460" lon="35.0159370">
<ele>274.000000</ele>
<time>2017-10-20T04:04:59.000Z</time>
</trkpt>
<trkpt lat="31.7780050" lon="35.0159560">
<ele>274.000000</ele>
<time>2017-10-20T04:05:01.000Z</time>
</trkpt>
<trkpt lat="31.7779790" lon="35.0159750">
<ele>274.000000</ele>
<time>2017-10-20T04:05:03.000Z</time>
</trkpt>
<trkpt lat="31.7779410" lon="35.0159940">
<ele>274.000000</ele>
<time>2017-10-20T04:05:06.000Z</time>
</trkpt>
<trkpt lat="31.7778950" lon="35.0160020">
<ele>274.000000</ele>
<time>2017-10-20T04:05:08.000Z</time>
</trkpt>
<trkpt lat="31.7778570" lon="35.0160140">
<ele>274.000000</ele>
<time>2017-10-20T04:05:10.000Z</time>
</trkpt>
<trkpt lat="31.7778160" lon="35.0160250">
<ele>274.000000</ele>
<time>2017-10-20T04:05:12.000Z</time>
</trkpt>
<trkpt lat="31.7777880" lon="35.0160400">
<ele>274.000000</ele>
<time>2017-10-20T04:05:14.000Z</time>
</trkpt>
<trkpt lat="31.7777530" lon="35.0160560">
<ele>274.000000</ele>
<time>2017-10-20T04:05:17.000Z</time>
</trkpt>
<trkpt lat="31.7777240" lon="35.0160620">
<ele>274.000000</ele>
<time>2017-10-20T04:05:19.000Z</time>
</trkpt>
<trkpt lat="31.7776890" lon="35.0160700">
<ele>274.000000</ele>
<time>2017-10-20T04:05:21.000Z</time>
</trkpt>
<trkpt lat="31.7776510" lon="35.0160800">
<ele>273.799988</ele>
<time>2017-10-20T04:05:23.000Z</time>
</trkpt>
<trkpt lat="31.7776130" lon="35.0160830">
<ele>273.700012</ele>
<time>2017-10-20T04:05:25.000Z</time>
</trkpt>
<trkpt lat="31.7775740" lon="35.0160810">
<ele>273.600006</ele>
<time>2017-10-20T04:05:27.000Z</time>
</trkpt>
<trkpt lat="31.7775400" lon="35.0160760">
<ele>273.500000</ele>
<time>2017-10-20T04:05:29.000Z</time>
</trkpt>
<trkpt lat="31.7775050" lon="35.0160650">
<ele>273.399994</ele>
<time>2017-10-20T04:05:32.000Z</time>
</trkpt>
<trkpt lat="31.7774740" lon="35.0160480">
<ele>273.300018</ele>
<time>2017-10-20T04:05:34.000Z</time>
</trkpt>
<trkpt lat="31.7774440" lon="35.0160300">
<ele>273.199982</ele>
<time>2017-10-20T04:05:36.000Z</time>
</trkpt>
<trkpt lat="31.7774010" lon="35.0160110">
<ele>273.199982</ele>
<time>2017-10-20T04:05:38.000Z</time>
</trkpt>
<trkpt lat="31.7773740" lon="35.0159960">
<ele>273.199982</ele>
<time>2017-10-20T04:05:40.000Z</time>
</trkpt>
<trkpt lat="31.7773420" lon="35.0159760">
<ele>273.100006</ele>
<time>2017-10-20T04:05:42.000Z</time>
</trkpt>
<trkpt lat="31.7773160" lon="35.0159570">
<ele>273.100006</ele>
<time>2017-10-20T04:05:44.000Z</time>
</trkpt>
<trkpt lat="31.7772870" lon="35.0159380">
<ele>273.100006</ele>
<time>2017-10-20T04:05:46.000Z</time>
</trkpt>
<trkpt lat="31.7772610" lon="35.0159140">
<ele>273.100006</ele>
<time>2017-10-20T04:05:48.000Z</time>
</trkpt>
<trkpt lat="31.7772350" lon="35.0158820">
<ele>273.100006</ele>
<time>2017-10-20T04:05:50.000Z</time>
</trkpt>
<trkpt lat="31.7772140" lon="35.0158520">
<ele>273.000000</ele>
<time>2017-10-20T04:05:52.000Z</time>
</trkpt>
<trkpt lat="31.7771890" lon="35.0158120">
<ele>273.000000</ele>
<time>2017-10-20T04:05:54.000Z</time>
</trkpt>
<trkpt lat="31.7771590" lon="35.0157610">
<ele>273.000000</ele>
<time>2017-10-20T04:05:56.000Z</time>
</trkpt>
<trkpt lat="31.7771400" lon="35.0157300">
<ele>273.000000</ele>
<time>2017-10-20T04:05:57.000Z</time>
</trkpt>
<trkpt lat="31.7771240" lon="35.0156990">
<ele>273.000000</ele>
<time>2017-10-20T04:05:58.000Z</time>
</trkpt>
<trkpt lat="31.7771080" lon="35.0156660">
<ele>273.000000</ele>
<time>2017-10-20T04:05:59.000Z</time>
</trkpt>
<trkpt lat="31.7770940" lon="35.0156380">
<ele>273.000000</ele>
<time>2017-10-20T04:06:00.000Z</time>
</trkpt>
<trkpt lat="31.7770690" lon="35.0155930">
<ele>273.000000</ele>
<time>2017-10-20T04:06:02.000Z</time>
</trkpt>
<trkpt lat="31.7770600" lon="35.0155490">
<ele>273.000000</ele>
<time>2017-10-20T04:06:04.000Z</time>
</trkpt>
<trkpt lat="31.7770380" lon="35.0155010">
<ele>273.000000</ele>
<time>2017-10-20T04:06:06.000Z</time>
</trkpt>
<trkpt lat="31.7770260" lon="35.0154720">
<ele>273.000000</ele>
<time>2017-10-20T04:06:07.000Z</time>
</trkpt>
<trkpt lat="31.7770080" lon="35.0154280">
<ele>272.899994</ele>
<time>2017-10-20T04:06:09.000Z</time>
</trkpt>
<trkpt lat="31.7769840" lon="35.0153760">
<ele>272.799988</ele>
<time>2017-10-20T04:06:11.000Z</time>
</trkpt>
<trkpt lat="31.7769710" lon="35.0153390">
<ele>272.799988</ele>
<time>2017-10-20T04:06:13.000Z</time>
</trkpt>
<trkpt lat="31.7769580" lon="35.0152970">
<ele>272.700012</ele>
<time>2017-10-20T04:06:15.000Z</time>
</trkpt>
<trkpt lat="31.7769430" lon="35.0152610">
<ele>272.600006</ele>
<time>2017-10-20T04:06:17.000Z</time>
</trkpt>
<trkpt lat="31.7769300" lon="35.0152300">
<ele>272.500000</ele>
<time>2017-10-20T04:06:19.000Z</time>
</trkpt>
<trkpt lat="31.7769160" lon="35.0151910">
<ele>272.500000</ele>
<time>2017-10-20T04:06:21.000Z</time>
</trkpt>
<trkpt lat="31.7769050" lon="35.0151440">
<ele>272.399994</ele>
<time>2017-10-20T04:06:24.000Z</time>
</trkpt>
<trkpt lat="31.7768970" lon="35.0151000">
<ele>272.399994</ele>
<time>2017-10-20T04:06:26.000Z</time>
</trkpt>
<trkpt lat="31.7768910" lon="35.0150520">
<ele>272.399994</ele>
<time>2017-10-20T04:06:28.000Z</time>
</trkpt>
<trkpt lat="31.7768790" lon="35.0149990">
<ele>272.399994</ele>
<time>2017-10-20T04:06:30.000Z</time>
</trkpt>
<trkpt lat="31.7768700" lon="35.0149640">
<ele>272.299988</ele>
<time>2017-10-20T04:06:31.000Z</time>
</trkpt>
<trkpt lat="31.7768550" lon="35.0149160">
<ele>272.299988</ele>
<time>2017-10-20T04:06:33.000Z</time>
</trkpt>
<trkpt lat="31.7768430" lon="35.0148810">
<ele>272.200012</ele>
<time>2017-10-20T04:06:35.000Z</time>
</trkpt>
<trkpt lat="31.7768220" lon="35.0148570">
<ele>272.200012</ele>
<time>2017-10-20T04:06:37.000Z</time>
</trkpt>
<trkpt lat="31.7767990" lon="35.0148270">
<ele>272.100006</ele>
<time>2017-10-20T04:06:39.000Z</time>
</trkpt>
<trkpt lat="31.7767700" lon="35.0147980">
<ele>272.200012</ele>
<time>2017-10-20T04:06:41.000Z</time>
</trkpt>
<trkpt lat="31.7767410" lon="35.0147700">
<ele>272.399994</ele>
<time>2017-10-20T04:06:43.000Z</time>
</trkpt>
<trkpt lat="31.7767090" lon="35.0147380">
<ele>272.500000</ele>
<time>2017-10-20T04:06:45.000Z</time>
</trkpt>
<trkpt lat="31.7766700" lon="35.0147000">
<ele>272.700012</ele>
<time>2017-10-20T04:06:47.000Z</time>
</trkpt>
<trkpt lat="31.7766420" lon="35.0146770">
<ele>273.000000</ele>
<time>2017-10-20T04:06:48.000Z</time>
</trkpt>
<trkpt lat="31.7766050" lon="35.0146470">
<ele>273.399994</ele>
<time>2017-10-20T04:06:50.000Z</time>
</trkpt>
<trkpt lat="31.7765720" lon="35.0146330">
<ele>273.799988</ele>
<time>2017-10-20T04:06:53.000Z</time>
</trkpt>
<trkpt lat="31.7765340" lon="35.0146130">
<ele>274.100006</ele>
<time>2017-10-20T04:06:55.000Z</time>
</trkpt>
<trkpt lat="31.7765050" lon="35.0145950">
<ele>274.299988</ele>
<time>2017-10-20T04:06:57.000Z</time>
</trkpt>
<trkpt lat="31.7764690" lon="35.0145770">
<ele>274.500000</ele>
<time>2017-10-20T04:06:59.000Z</time>
</trkpt>
<trkpt lat="31.7764330" lon="35.0145560">
<ele>274.699982</ele>
<time>2017-10-20T04:07:01.000Z</time>
</trkpt>
<trkpt lat="31.7764000" lon="35.0145460">
<ele>275.000000</ele>
<time>2017-10-20T04:07:03.000Z</time>
</trkpt>
<trkpt lat="31.7763610" lon="35.0145360">
<ele>275.299988</ele>
<time>2017-10-20T04:07:05.000Z</time>
</trkpt>
<trkpt lat="31.7763200" lon="35.0145300">
<ele>275.600006</ele>
<time>2017-10-20T04:07:07.000Z</time>
</trkpt>
<trkpt lat="31.7762750" lon="35.0145200">
<ele>276.000000</ele>
<time>2017-10-20T04:07:09.000Z</time>
</trkpt>
<trkpt lat="31.7762310" lon="35.0145100">
<ele>276.199982</ele>
<time>2017-10-20T04:07:11.000Z</time>
</trkpt>
<trkpt lat="31.7761910" lon="35.0144960">
<ele>276.299988</ele>
<time>2017-10-20T04:07:13.000Z</time>
</trkpt>
<trkpt lat="31.7761450" lon="35.0144660">
<ele>276.299988</ele>
<time>2017-10-20T04:07:15.000Z</time>
</trkpt>
<trkpt lat="31.7761080" lon="35.0144400">
<ele>276.399994</ele>
<time>2017-10-20T04:07:17.000Z</time>
</trkpt>
<trkpt lat="31.7760690" lon="35.0144170">
<ele>276.500000</ele>
<time>2017-10-20T04:07:19.000Z</time>
</trkpt>
<trkpt lat="31.7760360" lon="35.0143990">
<ele>276.500000</ele>
<time>2017-10-20T04:07:20.000Z</time>
</trkpt>
<trkpt lat="31.7760010" lon="35.0143810">
<ele>276.600006</ele>
<time>2017-10-20T04:07:21.000Z</time>
</trkpt>
<trkpt lat="31.7759720" lon="35.0143670">
<ele>276.700012</ele>
<time>2017-10-20T04:07:22.000Z</time>
</trkpt>
<trkpt lat="31.7759440" lon="35.0143540">
<ele>276.700012</ele>
<time>2017-10-20T04:07:23.000Z</time>
</trkpt>
<trkpt lat="31.7758980" lon="35.0143260">
<ele>276.799988</ele>
<time>2017-10-20T04:07:25.000Z</time>
</trkpt>
<trkpt lat="31.7758740" lon="35.0143080">
<ele>276.799988</ele>
<time>2017-10-20T04:07:26.000Z</time>
</trkpt>
<trkpt lat="31.7758310" lon="35.0142740">
<ele>276.899994</ele>
<time>2017-10-20T04:07:28.000Z</time>
</trkpt>
<trkpt lat="31.7757870" lon="35.0142410">
<ele>276.899994</ele>
<time>2017-10-20T04:07:30.000Z</time>
</trkpt>
<trkpt lat="31.7757510" lon="35.0142150">
<ele>276.899994</ele>
<time>2017-10-20T04:07:32.000Z</time>
</trkpt>
<trkpt lat="31.7757100" lon="35.0141860">
<ele>276.899994</ele>
<time>2017-10-20T04:07:34.000Z</time>
</trkpt>
<trkpt lat="31.7756860" lon="35.0141650">
<ele>277.000000</ele>
<time>2017-10-20T04:07:35.000Z</time>
</trkpt>
<trkpt lat="31.7756630" lon="35.0141440">
<ele>277.000000</ele>
<time>2017-10-20T04:07:36.000Z</time>
</trkpt>
<trkpt lat="31.7756330" lon="35.0141110">
<ele>277.100006</ele>
<time>2017-10-20T04:07:38.000Z</time>
</trkpt>
<trkpt lat="31.7756000" lon="35.0140830">
<ele>277.100006</ele>
<time>2017-10-20T04:07:41.000Z</time>
</trkpt>
<trkpt lat="31.7755570" lon="35.0140460">
<ele>277.199982</ele>
<time>2017-10-20T04:07:43.000Z</time>
</trkpt>
<trkpt lat="31.7755320" lon="35.0140280">
<ele>277.199982</ele>
<time>2017-10-20T04:07:44.000Z</time>
</trkpt>
<trkpt lat="31.7754880" lon="35.0139930">
<ele>277.300018</ele>
<time>2017-10-20T04:07:46.000Z</time>
</trkpt>
<trkpt lat="31.7754430" lon="35.0139610">
<ele>277.300018</ele>
<time>2017-10-20T04:07:48.000Z</time>
</trkpt>
<trkpt lat="31.7753940" lon="35.0139400">
<ele>277.399994</ele>
<time>2017-10-20T04:07:50.000Z</time>
</trkpt>
<trkpt lat="31.7753480" lon="35.0139270">
<ele>277.399994</ele>
<time>2017-10-20T04:07:52.000Z</time>
</trkpt>
<trkpt lat="31.7753020" lon="35.0139410">
<ele>277.399994</ele>
<time>2017-10-20T04:07:54.000Z</time>
</trkpt>
<trkpt lat="31.7752780" lon="35.0139690">
<ele>277.399994</ele>
<time>2017-10-20T04:07:56.000Z</time>
</trkpt>
<trkpt lat="31.7752610" lon="35.0140130">
<ele>277.300018</ele>
<time>2017-10-20T04:07:58.000Z</time>
</trkpt>
<trkpt lat="31.7752560" lon="35.0140570">
<ele>277.399994</ele>
<time>2017-10-20T04:08:00.000Z</time>
</trkpt>
<trkpt lat="31.7752540" lon="35.0141060">
<ele>277.399994</ele>
<time>2017-10-20T04:08:02.000Z</time>
</trkpt>
<trkpt lat="31.7752550" lon="35.0141530">
<ele>277.399994</ele>
<time>2017-10-20T04:08:04.000Z</time>
</trkpt>
<trkpt lat="31.7752600" lon="35.0142040">
<ele>277.799988</ele>
<time>2017-10-20T04:08:06.000Z</time>
</trkpt>
<trkpt lat="31.7752690" lon="35.0142480">
<ele>277.799988</ele>
<time>2017-10-20T04:08:08.000Z</time>
</trkpt>
<trkpt lat="31.7752760" lon="35.0142970">
<ele>277.799988</ele>
<time>2017-10-20T04:08:10.000Z</time>
</trkpt>
<trkpt lat="31.7752810" lon="35.0143500">
<ele>277.799988</ele>
<time>2017-10-20T04:08:12.000Z</time>
</trkpt>
<trkpt lat="31.7752720" lon="35.0143940">
<ele>277.700012</ele>
<time>2017-10-20T04:08:14.000Z</time>
</trkpt>
<trkpt lat="31.7752530" lon="35.0144270">
<ele>277.600006</ele>
<time>2017-10-20T04:08:16.000Z</time>
</trkpt>
<trkpt lat="31.7752290" lon="35.0144470">
<ele>276.899994</ele>
<time>2017-10-20T04:08:18.000Z</time>
</trkpt>
<trkpt lat="31.7751900" lon="35.0144650">
<ele>276.299988</ele>
<time>2017-10-20T04:08:20.000Z</time>
</trkpt>
<trkpt lat="31.7751570" lon="35.0144840">
<ele>275.399994</ele>
<time>2017-10-20T04:08:22.000Z</time>
</trkpt>
<trkpt lat="31.7751120" lon="35.0144890">
<ele>274.899994</ele>
<time>2017-10-20T04:08:24.000Z</time>
</trkpt>
<trkpt lat="31.7750660" lon="35.0144590">
<ele>274.500000</ele>
<time>2017-10-20T04:08:26.000Z</time>
</trkpt>
<trkpt lat="31.7750450" lon="35.0144300">
<ele>274.299988</ele>
<time>2017-10-20T04:08:27.000Z</time>
</trkpt>
<trkpt lat="31.7750300" lon="35.0143960">
<ele>274.100006</ele>
<time>2017-10-20T04:08:28.000Z</time>
</trkpt>
<trkpt lat="31.7750210" lon="35.0143570">
<ele>273.799988</ele>
<time>2017-10-20T04:08:29.000Z</time>
</trkpt>
<trkpt lat="31.7750140" lon="35.0143150">
<ele>273.399994</ele>
<time>2017-10-20T04:08:30.000Z</time>
</trkpt>
<trkpt lat="31.7750080" lon="35.0142700">
<ele>273.000000</ele>
<time>2017-10-20T04:08:31.000Z</time>
</trkpt>
<trkpt lat="31.7750010" lon="35.0142230">
<ele>272.600006</ele>
<time>2017-10-20T04:08:32.000Z</time>
</trkpt>
<trkpt lat="31.7749940" lon="35.0141690">
<ele>272.299988</ele>
<time>2017-10-20T04:08:33.000Z</time>
</trkpt>
<trkpt lat="31.7749880" lon="35.0141080">
<ele>272.000000</ele>
<time>2017-10-20T04:08:34.000Z</time>
</trkpt>
<trkpt lat="31.7749820" lon="35.0140410">
<ele>271.699982</ele>
<time>2017-10-20T04:08:35.000Z</time>
</trkpt>
<trkpt lat="31.7749720" lon="35.0139740">
<ele>271.200012</ele>
<time>2017-10-20T04:08:36.000Z</time>
</trkpt>
<trkpt lat="31.7749590" lon="35.0139070">
<ele>270.700012</ele>
<time>2017-10-20T04:08:37.000Z</time>
</trkpt>
<trkpt lat="31.7749390" lon="35.0138370">
<ele>270.199982</ele>
<time>2017-10-20T04:08:38.000Z</time>
</trkpt>
<trkpt lat="31.7749180" lon="35.0137650">
<ele>269.799988</ele>
<time>2017-10-20T04:08:39.000Z</time>
</trkpt>
<trkpt lat="31.7748970" lon="35.0136930">
<ele>269.100006</ele>
<time>2017-10-20T04:08:40.000Z</time>
</trkpt>
<trkpt lat="31.7748790" lon="35.0136260">
<ele>268.500000</ele>
<time>2017-10-20T04:08:41.000Z</time>
</trkpt>
<trkpt lat="31.7748630" lon="35.0135630">
<ele>268.000000</ele>
<time>2017-10-20T04:08:42.000Z</time>
</trkpt>
<trkpt lat="31.7748520" lon="35.0134980">
<ele>267.500000</ele>
<time>2017-10-20T04:08:43.000Z</time>
</trkpt>
<trkpt lat="31.7748410" lon="35.0134380">
<ele>267.000000</ele>
<time>2017-10-20T04:08:44.000Z</time>
</trkpt>
<trkpt lat="31.7748310" lon="35.0133840">
<ele>266.600006</ele>
<time>2017-10-20T04:08:45.000Z</time>
</trkpt>
<trkpt lat="31.7748200" lon="35.0133410">
<ele>266.300018</ele>
<time>2017-10-20T04:08:46.000Z</time>
</trkpt>
<trkpt lat="31.7747990" lon="35.0133120">
<ele>266.000000</ele>
<time>2017-10-20T04:08:47.000Z</time>
</trkpt>
<trkpt lat="31.7747700" lon="35.0133000">
<ele>265.200012</ele>
<time>2017-10-20T04:08:48.000Z</time>
</trkpt>
<trkpt lat="31.7747300" lon="35.0132950">
<ele>265.200012</ele>
<time>2017-10-20T04:08:49.000Z</time>
</trkpt>
<trkpt lat="31.7746920" lon="35.0133020">
<ele>265.299988</ele>
<time>2017-10-20T04:08:50.000Z</time>
</trkpt>
<trkpt lat="31.7746520" lon="35.0133150">
<ele>265.399994</ele>
<time>2017-10-20T04:08:51.000Z</time>
</trkpt>
<trkpt lat="31.7746110" lon="35.0133310">
<ele>265.500000</ele>
<time>2017-10-20T04:08:52.000Z</time>
</trkpt>
<trkpt lat="31.7745630" lon="35.0133540">
<ele>265.500000</ele>
<time>2017-10-20T04:08:53.000Z</time>
</trkpt>
<trkpt lat="31.7745180" lon="35.0133860">
<ele>265.399994</ele>
<time>2017-10-20T04:08:54.000Z</time>
</trkpt>
<trkpt lat="31.7744730" lon="35.0134230">
<ele>265.399994</ele>
<time>2017-10-20T04:08:55.000Z</time>
</trkpt>
<trkpt lat="31.7744220" lon="35.0134660">
<ele>265.399994</ele>
<time>2017-10-20T04:08:56.000Z</time>
</trkpt>
<trkpt lat="31.7743650" lon="35.0135070">
<ele>265.500000</ele>
<time>2017-10-20T04:08:57.000Z</time>
</trkpt>
<trkpt lat="31.7742960" lon="35.0135350">
<ele>265.500000</ele>
<time>2017-10-20T04:08:58.000Z</time>
</trkpt>
<trkpt lat="31.7742160" lon="35.0135410">
<ele>265.600006</ele>
<time>2017-10-20T04:08:59.000Z</time>
</trkpt>
<trkpt lat="31.7741370" lon="35.0135330">
<ele>265.700012</ele>
<time>2017-10-20T04:09:00.000Z</time>
</trkpt>
<trkpt lat="31.7740590" lon="35.0135080">
<ele>265.799988</ele>
<time>2017-10-20T04:09:01.000Z</time>
</trkpt>
<trkpt lat="31.7739780" lon="35.0134650">
<ele>266.000000</ele>
<time>2017-10-20T04:09:02.000Z</time>
</trkpt>
<trkpt lat="31.7738950" lon="35.0134210">
<ele>266.199982</ele>
<time>2017-10-20T04:09:03.000Z</time>
</trkpt>
<trkpt lat="31.7738100" lon="35.0133830">
<ele>266.600006</ele>
<time>2017-10-20T04:09:04.000Z</time>
</trkpt>
<trkpt lat="31.7737260" lon="35.0133440">
<ele>267.000000</ele>
<time>2017-10-20T04:09:05.000Z</time>
</trkpt>
<trkpt lat="31.7736390" lon="35.0133210">
<ele>267.299988</ele>
<time>2017-10-20T04:09:06.000Z</time>
</trkpt>
<trkpt lat="31.7735530" lon="35.0133070">
<ele>268.200012</ele>
<time>2017-10-20T04:09:07.000Z</time>
</trkpt>
<trkpt lat="31.7734750" lon="35.0133000">
<ele>269.100006</ele>
<time>2017-10-20T04:09:08.000Z</time>
</trkpt>
<trkpt lat="31.7734010" lon="35.0133000">
<ele>269.899994</ele>
<time>2017-10-20T04:09:09.000Z</time>
</trkpt>
<trkpt lat="31.7733260" lon="35.0133080">
<ele>270.700012</ele>
<time>2017-10-20T04:09:10.000Z</time>
</trkpt>
<trkpt lat="31.7732530" lon="35.0133190">
<ele>271.600006</ele>
<time>2017-10-20T04:09:11.000Z</time>
</trkpt>
<trkpt lat="31.7731880" lon="35.0133370">
<ele>272.600006</ele>
<time>2017-10-20T04:09:12.000Z</time>
</trkpt>
<trkpt lat="31.7731270" lon="35.0133620">
<ele>274.000000</ele>
<time>2017-10-20T04:09:13.000Z</time>
</trkpt>
<trkpt lat="31.7730700" lon="35.0133880">
<ele>275.399994</ele>
<time>2017-10-20T04:09:14.000Z</time>
</trkpt>
<trkpt lat="31.7730160" lon="35.0134170">
<ele>275.700012</ele>
<time>2017-10-20T04:09:15.000Z</time>
</trkpt>
<trkpt lat="31.7729650" lon="35.0134500">
<ele>276.899994</ele>
<time>2017-10-20T04:09:16.000Z</time>
</trkpt>
<trkpt lat="31.7729210" lon="35.0134850">
<ele>277.500000</ele>
<time>2017-10-20T04:09:17.000Z</time>
</trkpt>
<trkpt lat="31.7728770" lon="35.0135210">
<ele>278.100006</ele>
<time>2017-10-20T04:09:18.000Z</time>
</trkpt>
<trkpt lat="31.7728380" lon="35.0135570">
<ele>278.600006</ele>
<time>2017-10-20T04:09:19.000Z</time>
</trkpt>
<trkpt lat="31.7728090" lon="35.0135820">
<ele>279.000000</ele>
<time>2017-10-20T04:09:20.000Z</time>
</trkpt>
<trkpt lat="31.7727820" lon="35.0136120">
<ele>279.399994</ele>
<time>2017-10-20T04:09:21.000Z</time>
</trkpt>
<trkpt lat="31.7727550" lon="35.0136440">
<ele>279.799988</ele>
<time>2017-10-20T04:09:22.000Z</time>
</trkpt>
<trkpt lat="31.7727300" lon="35.0136810">
<ele>280.199982</ele>
<time>2017-10-20T04:09:23.000Z</time>
</trkpt>
<trkpt lat="31.7727040" lon="35.0137250">
<ele>280.700012</ele>
<time>2017-10-20T04:09:24.000Z</time>
</trkpt>
<trkpt lat="31.7726800" lon="35.0137610">
<ele>281.100006</ele>
<time>2017-10-20T04:09:25.000Z</time>
</trkpt>
<trkpt lat="31.7726580" lon="35.0137980">
<ele>281.500000</ele>
<time>2017-10-20T04:09:26.000Z</time>
</trkpt>
<trkpt lat="31.7726370" lon="35.0138330">
<ele>281.899994</ele>
<time>2017-10-20T04:09:27.000Z</time>
</trkpt>
<trkpt lat="31.7726170" lon="35.0138640">
<ele>282.200012</ele>
<time>2017-10-20T04:09:28.000Z</time>
</trkpt>
<trkpt lat="31.7725980" lon="35.0138990">
<ele>282.600006</ele>
<time>2017-10-20T04:09:29.000Z</time>
</trkpt>
<trkpt lat="31.7725830" lon="35.0139290">
<ele>282.800018</ele>
<time>2017-10-20T04:09:30.000Z</time>
</trkpt>
<trkpt lat="31.7725580" lon="35.0139740">
<ele>283.299988</ele>
<time>2017-10-20T04:09:32.000Z</time>
</trkpt>
<trkpt lat="31.7725350" lon="35.0140190">
<ele>283.700012</ele>
<time>2017-10-20T04:09:34.000Z</time>
</trkpt>
<trkpt lat="31.7725100" lon="35.0140710">
<ele>284.000000</ele>
<time>2017-10-20T04:09:36.000Z</time>
</trkpt>
<trkpt lat="31.7724960" lon="35.0140980">
<ele>284.199982</ele>
<time>2017-10-20T04:09:37.000Z</time>
</trkpt>
<trkpt lat="31.7724700" lon="35.0141420">
<ele>284.399994</ele>
<time>2017-10-20T04:09:39.000Z</time>
</trkpt>
<trkpt lat="31.7724450" lon="35.0141850">
<ele>284.600006</ele>
<time>2017-10-20T04:09:41.000Z</time>
</trkpt>
<trkpt lat="31.7724210" lon="35.0142260">
<ele>284.799988</ele>
<time>2017-10-20T04:09:43.000Z</time>
</trkpt>
<trkpt lat="31.7723970" lon="35.0142760">
<ele>284.899994</ele>
<time>2017-10-20T04:09:45.000Z</time>
</trkpt>
<trkpt lat="31.7723750" lon="35.0143130">
<ele>285.299988</ele>
<time>2017-10-20T04:09:47.000Z</time>
</trkpt>
<trkpt lat="31.7723620" lon="35.0143500">
<ele>285.500000</ele>
<time>2017-10-20T04:09:49.000Z</time>
</trkpt>
<trkpt lat="31.7723460" lon="35.0143950">
<ele>285.899994</ele>
<time>2017-10-20T04:09:51.000Z</time>
</trkpt>
<trkpt lat="31.7723270" lon="35.0144410">
<ele>286.200012</ele>
<time>2017-10-20T04:09:53.000Z</time>
</trkpt>
<trkpt lat="31.7723050" lon="35.0144920">
<ele>286.600006</ele>
<time>2017-10-20T04:09:55.000Z</time>
</trkpt>
<trkpt lat="31.7722830" lon="35.0145420">
<ele>287.199982</ele>
<time>2017-10-20T04:09:57.000Z</time>
</trkpt>
<trkpt lat="31.7722600" lon="35.0145870">
<ele>288.399994</ele>
<time>2017-10-20T04:09:59.000Z</time>
</trkpt>
<trkpt lat="31.7722390" lon="35.0146390">
<ele>288.899994</ele>
<time>2017-10-20T04:10:01.000Z</time>
</trkpt>
<trkpt lat="31.7722150" lon="35.0146870">
<ele>289.399994</ele>
<time>2017-10-20T04:10:03.000Z</time>
</trkpt>
<trkpt lat="31.7721930" lon="35.0147300">
<ele>289.600006</ele>
<time>2017-10-20T04:10:05.000Z</time>
</trkpt>
<trkpt lat="31.7721690" lon="35.0147790">
<ele>289.500000</ele>
<time>2017-10-20T04:10:07.000Z</time>
</trkpt>
<trkpt lat="31.7721460" lon="35.0148290">
<ele>289.699982</ele>
<time>2017-10-20T04:10:09.000Z</time>
</trkpt>
<trkpt lat="31.7721220" lon="35.0148780">
<ele>289.399994</ele>
<time>2017-10-20T04:10:11.000Z</time>
</trkpt>
<trkpt lat="31.7720940" lon="35.0149260">
<ele>289.100006</ele>
<time>2017-10-20T04:10:13.000Z</time>
</trkpt>
<trkpt lat="31.7720710" lon="35.0149670">
<ele>289.399994</ele>
<time>2017-10-20T04:10:15.000Z</time>
</trkpt>
<trkpt lat="31.7720450" lon="35.0150120">
<ele>289.200012</ele>
<time>2017-10-20T04:10:17.000Z</time>
</trkpt>
<trkpt lat="31.7720210" lon="35.0150580">
<ele>289.100006</ele>
<time>2017-10-20T04:10:19.000Z</time>
</trkpt>
<trkpt lat="31.7719960" lon="35.0151060">
<ele>290.299988</ele>
<time>2017-10-20T04:10:21.000Z</time>
</trkpt>
<trkpt lat="31.7719810" lon="35.0151340">
<ele>289.800018</ele>
<time>2017-10-20T04:10:22.000Z</time>
</trkpt>
<trkpt lat="31.7719620" lon="35.0151650">
<ele>290.399994</ele>
<time>2017-10-20T04:10:23.000Z</time>
</trkpt>
<trkpt lat="31.7719460" lon="35.0151910">
<ele>290.700012</ele>
<time>2017-10-20T04:10:24.000Z</time>
</trkpt>
<trkpt lat="31.7719160" lon="35.0152400">
<ele>291.000000</ele>
<time>2017-10-20T04:10:26.000Z</time>
</trkpt>
<trkpt lat="31.7718860" lon="35.0152920">
<ele>291.500000</ele>
<time>2017-10-20T04:10:28.000Z</time>
</trkpt>
<trkpt lat="31.7718520" lon="35.0153330">
<ele>291.799988</ele>
<time>2017-10-20T04:10:30.000Z</time>
</trkpt>
<trkpt lat="31.7718220" lon="35.0153780">
<ele>292.000000</ele>
<time>2017-10-20T04:10:32.000Z</time>
</trkpt>
<trkpt lat="31.7717910" lon="35.0154220">
<ele>292.299988</ele>
<time>2017-10-20T04:10:34.000Z</time>
</trkpt>
<trkpt lat="31.7717630" lon="35.0154680">
<ele>292.600006</ele>
<time>2017-10-20T04:10:36.000Z</time>
</trkpt>
<trkpt lat="31.7717340" lon="35.0155090">
<ele>292.899994</ele>
<time>2017-10-20T04:10:38.000Z</time>
</trkpt>
<trkpt lat="31.7717070" lon="35.0155490">
<ele>293.600006</ele>
<time>2017-10-20T04:10:40.000Z</time>
</trkpt>
<trkpt lat="31.7716740" lon="35.0155960">
<ele>294.199982</ele>
<time>2017-10-20T04:10:42.000Z</time>
</trkpt>
<trkpt lat="31.7716390" lon="35.0156440">
<ele>295.000000</ele>
<time>2017-10-20T04:10:44.000Z</time>
</trkpt>
<trkpt lat="31.7716190" lon="35.0156670">
<ele>295.899994</ele>
<time>2017-10-20T04:10:45.000Z</time>
</trkpt>
<trkpt lat="31.7715840" lon="35.0157080">
<ele>296.899994</ele>
<time>2017-10-20T04:10:47.000Z</time>
</trkpt>
<trkpt lat="31.7715420" lon="35.0157490">
<ele>297.799988</ele>
<time>2017-10-20T04:10:49.000Z</time>
</trkpt>
<trkpt lat="31.7715220" lon="35.0157710">
<ele>297.700012</ele>
<time>2017-10-20T04:10:50.000Z</time>
</trkpt>
<trkpt lat="31.7714820" lon="35.0158100">
<ele>298.000000</ele>
<time>2017-10-20T04:10:52.000Z</time>
</trkpt>
<trkpt lat="31.7714370" lon="35.0158520">
<ele>298.399994</ele>
<time>2017-10-20T04:10:54.000Z</time>
</trkpt>
<trkpt lat="31.7714130" lon="35.0158710">
<ele>298.300018</ele>
<time>2017-10-20T04:10:55.000Z</time>
</trkpt>
<trkpt lat="31.7713720" lon="35.0159060">
<ele>298.199982</ele>
<time>2017-10-20T04:10:57.000Z</time>
</trkpt>
<trkpt lat="31.7713390" lon="35.0159410">
<ele>298.700012</ele>
<time>2017-10-20T04:10:59.000Z</time>
</trkpt>
<trkpt lat="31.7713050" lon="35.0159830">
<ele>298.700012</ele>
<time>2017-10-20T04:11:01.000Z</time>
</trkpt>
<trkpt lat="31.7712660" lon="35.0160260">
<ele>298.700012</ele>
<time>2017-10-20T04:11:03.000Z</time>
</trkpt>
<trkpt lat="31.7712260" lon="35.0160710">
<ele>298.199982</ele>
<time>2017-10-20T04:11:05.000Z</time>
</trkpt>
<trkpt lat="31.7711920" lon="35.0161130">
<ele>298.000000</ele>
<time>2017-10-20T04:11:07.000Z</time>
</trkpt>
<trkpt lat="31.7711590" lon="35.0161580">
<ele>298.199982</ele>
<time>2017-10-20T04:11:09.000Z</time>
</trkpt>
<trkpt lat="31.7711270" lon="35.0162060">
<ele>298.000000</ele>
<time>2017-10-20T04:11:11.000Z</time>
</trkpt>
<trkpt lat="31.7711030" lon="35.0162480">
<ele>298.000000</ele>
<time>2017-10-20T04:11:13.000Z</time>
</trkpt>
<trkpt lat="31.7710760" lon="35.0162900">
<ele>298.100006</ele>
<time>2017-10-20T04:11:15.000Z</time>
</trkpt>
<trkpt lat="31.7710560" lon="35.0163290">
<ele>298.100006</ele>
<time>2017-10-20T04:11:17.000Z</time>
</trkpt>
<trkpt lat="31.7710320" lon="35.0163720">
<ele>298.100006</ele>
<time>2017-10-20T04:11:19.000Z</time>
</trkpt>
<trkpt lat="31.7710080" lon="35.0164170">
<ele>298.100006</ele>
<time>2017-10-20T04:11:21.000Z</time>
</trkpt>
<trkpt lat="31.7709840" lon="35.0164640">
<ele>298.199982</ele>
<time>2017-10-20T04:11:23.000Z</time>
</trkpt>
<trkpt lat="31.7709660" lon="35.0165110">
<ele>298.300018</ele>
<time>2017-10-20T04:11:25.000Z</time>
</trkpt>
<trkpt lat="31.7709500" lon="35.0165600">
<ele>298.399994</ele>
<time>2017-10-20T04:11:27.000Z</time>
</trkpt>
<trkpt lat="31.7709360" lon="35.0166070">
<ele>298.500000</ele>
<time>2017-10-20T04:11:29.000Z</time>
</trkpt>
<trkpt lat="31.7709280" lon="35.0166510">
<ele>298.600006</ele>
<time>2017-10-20T04:11:31.000Z</time>
</trkpt>
<trkpt lat="31.7709170" lon="35.0167010">
<ele>298.600006</ele>
<time>2017-10-20T04:11:33.000Z</time>
</trkpt>
<trkpt lat="31.7709090" lon="35.0167490">
<ele>298.700012</ele>
<time>2017-10-20T04:11:35.000Z</time>
</trkpt>
<trkpt lat="31.7709060" lon="35.0167840">
<ele>298.700012</ele>
<time>2017-10-20T04:11:37.000Z</time>
</trkpt>
<trkpt lat="31.7709060" lon="35.0168160">
<ele>298.799988</ele>
<time>2017-10-20T04:11:39.000Z</time>
</trkpt>
<trkpt lat="31.7709030" lon="35.0168550">
<ele>298.799988</ele>
<time>2017-10-20T04:11:41.000Z</time>
</trkpt>
<trkpt lat="31.7708970" lon="35.0168940">
<ele>298.899994</ele>
<time>2017-10-20T04:11:43.000Z</time>
</trkpt>
<trkpt lat="31.7708860" lon="35.0169270">
<ele>298.899994</ele>
<time>2017-10-20T04:11:45.000Z</time>
</trkpt>
<trkpt lat="31.7708560" lon="35.0169630">
<ele>298.899994</ele>
<time>2017-10-20T04:11:47.000Z</time>
</trkpt>
<trkpt lat="31.7708150" lon="35.0170000">
<ele>299.100006</ele>
<time>2017-10-20T04:11:49.000Z</time>
</trkpt>
<trkpt lat="31.7707870" lon="35.0170070">
<ele>299.200012</ele>
<time>2017-10-20T04:11:50.000Z</time>
</trkpt>
<trkpt lat="31.7707370" lon="35.0170210">
<ele>299.299988</ele>
<time>2017-10-20T04:11:52.000Z</time>
</trkpt>
<trkpt lat="31.7706950" lon="35.0170380">
<ele>299.399994</ele>
<time>2017-10-20T04:11:54.000Z</time>
</trkpt>
<trkpt lat="31.7706610" lon="35.0170520">
<ele>299.399994</ele>
<time>2017-10-20T04:11:56.000Z</time>
</trkpt>
<trkpt lat="31.7706330" lon="35.0170430">
<ele>299.500000</ele>
<time>2017-10-20T04:11:58.000Z</time>
</trkpt>
<trkpt lat="31.7706050" lon="35.0170300">
<ele>299.500000</ele>
<time>2017-10-20T04:12:00.000Z</time>
</trkpt>
<trkpt lat="31.7705770" lon="35.0170100">
<ele>299.600006</ele>
<time>2017-10-20T04:12:02.000Z</time>
</trkpt>
<trkpt lat="31.7705440" lon="35.0169880">
<ele>299.600006</ele>
<time>2017-10-20T04:12:04.000Z</time>
</trkpt>
<trkpt lat="31.7705160" lon="35.0169650">
<ele>299.600006</ele>
<time>2017-10-20T04:12:06.000Z</time>
</trkpt>
<trkpt lat="31.7704840" lon="35.0169340">
<ele>299.699982</ele>
<time>2017-10-20T04:12:09.000Z</time>
</trkpt>
<trkpt lat="31.7704620" lon="35.0169060">
<ele>299.699982</ele>
<time>2017-10-20T04:12:11.000Z</time>
</trkpt>
<trkpt lat="31.7704340" lon="35.0168780">
<ele>299.699982</ele>
<time>2017-10-20T04:12:13.000Z</time>
</trkpt>
<trkpt lat="31.7703980" lon="35.0168380">
<ele>299.500000</ele>
<time>2017-10-20T04:12:15.000Z</time>
</trkpt>
<trkpt lat="31.7703700" lon="35.0168060">
<ele>299.200012</ele>
<time>2017-10-20T04:12:17.000Z</time>
</trkpt>
<trkpt lat="31.7703390" lon="35.0167740">
<ele>298.799988</ele>
<time>2017-10-20T04:12:19.000Z</time>
</trkpt>
<trkpt lat="31.7703080" lon="35.0167430">
<ele>299.100006</ele>
<time>2017-10-20T04:12:21.000Z</time>
</trkpt>
<trkpt lat="31.7702820" lon="35.0167100">
<ele>298.399994</ele>
<time>2017-10-20T04:12:23.000Z</time>
</trkpt>
<trkpt lat="31.7702520" lon="35.0166790">
<ele>298.100006</ele>
<time>2017-10-20T04:12:25.000Z</time>
</trkpt>
<trkpt lat="31.7702240" lon="35.0166520">
<ele>298.300018</ele>
<time>2017-10-20T04:12:28.000Z</time>
</trkpt>
<trkpt lat="31.7701950" lon="35.0166280">
<ele>297.899994</ele>
<time>2017-10-20T04:12:31.000Z</time>
</trkpt>
<trkpt lat="31.7701720" lon="35.0166050">
<ele>297.899994</ele>
<time>2017-10-20T04:12:34.000Z</time>
</trkpt>
<trkpt lat="31.7701460" lon="35.0165680">
<ele>297.299988</ele>
<time>2017-10-20T04:12:37.000Z</time>
</trkpt>
<trkpt lat="31.7701050" lon="35.0165210">
<ele>296.600006</ele>
<time>2017-10-20T04:12:39.000Z</time>
</trkpt>
<trkpt lat="31.7700890" lon="35.0164870">
<ele>295.799988</ele>
<time>2017-10-20T04:12:40.000Z</time>
</trkpt>
<trkpt lat="31.7700730" lon="35.0164530">
<ele>295.300018</ele>
<time>2017-10-20T04:12:41.000Z</time>
</trkpt>
<trkpt lat="31.7700520" lon="35.0164320">
<ele>294.899994</ele>
<time>2017-10-20T04:12:42.000Z</time>
</trkpt>
<trkpt lat="31.7700150" lon="35.0163780">
<ele>293.500000</ele>
<time>2017-10-20T04:12:44.000Z</time>
</trkpt>
<trkpt lat="31.7700030" lon="35.0163520">
<ele>293.500000</ele>
<time>2017-10-20T04:12:46.000Z</time>
</trkpt>
<trkpt lat="31.7699900" lon="35.0163260">
<ele>293.000000</ele>
<time>2017-10-20T04:12:50.000Z</time>
</trkpt>
<trkpt lat="31.7699780" lon="35.0163000">
<ele>292.100006</ele>
<time>2017-10-20T04:12:55.000Z</time>
</trkpt>
<trkpt lat="31.7699650" lon="35.0162740">
<ele>292.000000</ele>
<time>2017-10-20T04:12:56.000Z</time>
</trkpt>
<trkpt lat="31.7699490" lon="35.0163080">
<ele>291.300018</ele>
<time>2017-10-20T04:13:05.000Z</time>
</trkpt>
<trkpt lat="31.7699390" lon="35.0163510">
<ele>290.500000</ele>
<time>2017-10-20T04:13:07.000Z</time>
</trkpt>
<trkpt lat="31.7699260" lon="35.0163980">
<ele>289.600006</ele>
<time>2017-10-20T04:13:09.000Z</time>
</trkpt>
<trkpt lat="31.7699230" lon="35.0164300">
<ele>289.100006</ele>
<time>2017-10-20T04:13:11.000Z</time>
</trkpt>
<trkpt lat="31.7699230" lon="35.0164680">
<ele>288.500000</ele>
<time>2017-10-20T04:13:16.000Z</time>
</trkpt>
<trkpt lat="31.7698270" lon="35.0164920">
<ele>286.700012</ele>
<time>2017-10-20T04:13:23.000Z</time>
</trkpt>
<trkpt lat="31.7697960" lon="35.0165230">
<ele>286.000000</ele>
<time>2017-10-20T04:13:24.000Z</time>
</trkpt>
<trkpt lat="31.7697800" lon="35.0165500">
<ele>285.500000</ele>
<time>2017-10-20T04:13:25.000Z</time>
</trkpt>
<trkpt lat="31.7697820" lon="35.0165990">
<ele>285.600006</ele>
<time>2017-10-20T04:13:27.000Z</time>
</trkpt>
<trkpt lat="31.7697650" lon="35.0166250">
<ele>286.000000</ele>
<time>2017-10-20T04:13:28.000Z</time>
</trkpt>
<trkpt lat="31.7697520" lon="35.0166620">
<ele>286.600006</ele>
<time>2017-10-20T04:13:34.000Z</time>
</trkpt>
<trkpt lat="31.7697630" lon="35.0166940">
<ele>287.000000</ele>
<time>2017-10-20T04:13:39.000Z</time>
</trkpt>
<trkpt lat="31.7697730" lon="35.0167350">
<ele>287.700012</ele>
<time>2017-10-20T04:13:45.000Z</time>
</trkpt>
<trkpt lat="31.7697830" lon="35.0167720">
<ele>288.399994</ele>
<time>2017-10-20T04:13:48.000Z</time>
</trkpt>
<trkpt lat="31.7698050" lon="35.0168110">
<ele>289.299988</ele>
<time>2017-10-20T04:13:50.000Z</time>
</trkpt>
<trkpt lat="31.7698250" lon="35.0168340">
<ele>290.000000</ele>
<time>2017-10-20T04:13:55.000Z</time>
</trkpt>
<trkpt lat="31.7698310" lon="35.0168720">
<ele>290.799988</ele>
<time>2017-10-20T04:13:58.000Z</time>
</trkpt>
<trkpt lat="31.7698330" lon="35.0169100">
<ele>291.500000</ele>
<time>2017-10-20T04:14:00.000Z</time>
</trkpt>
<trkpt lat="31.7698460" lon="35.0169570">
<ele>292.200012</ele>
<time>2017-10-20T04:14:03.000Z</time>
</trkpt>
<trkpt lat="31.7698560" lon="35.0169960">
<ele>292.800018</ele>
<time>2017-10-20T04:14:05.000Z</time>
</trkpt>
<trkpt lat="31.7698660" lon="35.0170310">
<ele>293.399994</ele>
<time>2017-10-20T04:14:08.000Z</time>
</trkpt>
<trkpt lat="31.7698590" lon="35.0170690">
<ele>293.899994</ele>
<time>2017-10-20T04:14:16.000Z</time>
</trkpt>
<trkpt lat="31.7698510" lon="35.0171010">
<ele>294.300018</ele>
<time>2017-10-20T04:14:22.000Z</time>
</trkpt>
<trkpt lat="31.7698370" lon="35.0171430">
<ele>294.799988</ele>
<time>2017-10-20T04:14:27.000Z</time>
</trkpt>
<trkpt lat="31.7698240" lon="35.0171960">
<ele>295.399994</ele>
<time>2017-10-20T04:14:30.000Z</time>
</trkpt>
<trkpt lat="31.7698180" lon="35.0172360">
<ele>295.799988</ele>
<time>2017-10-20T04:14:33.000Z</time>
</trkpt>
<trkpt lat="31.7698150" lon="35.0172730">
<ele>296.200012</ele>
<time>2017-10-20T04:14:35.000Z</time>
</trkpt>
<trkpt lat="31.7698110" lon="35.0173090">
<ele>296.600006</ele>
<time>2017-10-20T04:14:38.000Z</time>
</trkpt>
<trkpt lat="31.7698020" lon="35.0173580">
<ele>297.200012</ele>
<time>2017-10-20T04:14:41.000Z</time>
</trkpt>
<trkpt lat="31.7698060" lon="35.0173950">
<ele>297.600006</ele>
<time>2017-10-20T04:14:43.000Z</time>
</trkpt>
<trkpt lat="31.7698100" lon="35.0174350">
<ele>298.199982</ele>
<time>2017-10-20T04:14:45.000Z</time>
</trkpt>
<trkpt lat="31.7698210" lon="35.0174760">
<ele>298.799988</ele>
<time>2017-10-20T04:14:48.000Z</time>
</trkpt>
<trkpt lat="31.7698330" lon="35.0175070">
<ele>299.299988</ele>
<time>2017-10-20T04:14:50.000Z</time>
</trkpt>
<trkpt lat="31.7698470" lon="35.0175420">
<ele>299.899994</ele>
<time>2017-10-20T04:14:53.000Z</time>
</trkpt>
<trkpt lat="31.7698650" lon="35.0175670">
<ele>300.399994</ele>
<time>2017-10-20T04:14:57.000Z</time>
</trkpt>
<trkpt lat="31.7698920" lon="35.0176090">
<ele>301.300018</ele>
<time>2017-10-20T04:14:59.000Z</time>
</trkpt>
<trkpt lat="31.7699130" lon="35.0176480">
<ele>302.199982</ele>
<time>2017-10-20T04:15:02.000Z</time>
</trkpt>
<trkpt lat="31.7699420" lon="35.0176640">
<ele>302.899994</ele>
<time>2017-10-20T04:15:06.000Z</time>
</trkpt>
<trkpt lat="31.7699540" lon="35.0176990">
<ele>303.600006</ele>
<time>2017-10-20T04:15:09.000Z</time>
</trkpt>
<trkpt lat="31.7699610" lon="35.0177310">
<ele>304.100006</ele>
<time>2017-10-20T04:15:11.000Z</time>
</trkpt>
<trkpt lat="31.7699750" lon="35.0177600">
<ele>304.600006</ele>
<time>2017-10-20T04:15:16.000Z</time>
</trkpt>
<trkpt lat="31.7699500" lon="35.0177860">
<ele>305.199982</ele>
<time>2017-10-20T04:15:22.000Z</time>
</trkpt>
<trkpt lat="31.7699320" lon="35.0178110">
<ele>305.799988</ele>
<time>2017-10-20T04:15:26.000Z</time>
</trkpt>
<trkpt lat="31.7699150" lon="35.0178420">
<ele>306.299988</ele>
<time>2017-10-20T04:15:29.000Z</time>
</trkpt>
<trkpt lat="31.7698980" lon="35.0178690">
<ele>306.899994</ele>
<time>2017-10-20T04:15:31.000Z</time>
</trkpt>
<trkpt lat="31.7698760" lon="35.0178960">
<ele>307.399994</ele>
<time>2017-10-20T04:15:35.000Z</time>
</trkpt>
<trkpt lat="31.7698620" lon="35.0179280">
<ele>307.899994</ele>
<time>2017-10-20T04:15:36.000Z</time>
</trkpt>
<trkpt lat="31.7698350" lon="35.0179480">
<ele>308.500000</ele>
<time>2017-10-20T04:15:39.000Z</time>
</trkpt>
<trkpt lat="31.7698230" lon="35.0179770">
<ele>308.899994</ele>
<time>2017-10-20T04:15:40.000Z</time>
</trkpt>
<trkpt lat="31.7697980" lon="35.0180140">
<ele>309.600006</ele>
<time>2017-10-20T04:15:45.000Z</time>
</trkpt>
<trkpt lat="31.7697730" lon="35.0180390">
<ele>310.200012</ele>
<time>2017-10-20T04:15:49.000Z</time>
</trkpt>
<trkpt lat="31.7697540" lon="35.0180620">
<ele>310.600006</ele>
<time>2017-10-20T04:15:52.000Z</time>
</trkpt>
<trkpt lat="31.7697280" lon="35.0180850">
<ele>311.200012</ele>
<time>2017-10-20T04:15:55.000Z</time>
</trkpt>
<trkpt lat="31.7696950" lon="35.0181140">
<ele>312.000000</ele>
<time>2017-10-20T04:15:58.000Z</time>
</trkpt>
<trkpt lat="31.7696720" lon="35.0181390">
<ele>312.600006</ele>
<time>2017-10-20T04:16:01.000Z</time>
</trkpt>
<trkpt lat="31.7696580" lon="35.0181700">
<ele>313.200012</ele>
<time>2017-10-20T04:16:04.000Z</time>
</trkpt>
<trkpt lat="31.7696450" lon="35.0181980">
<ele>313.800018</ele>
<time>2017-10-20T04:16:07.000Z</time>
</trkpt>
<trkpt lat="31.7696250" lon="35.0182330">
<ele>314.499969</ele>
<time>2017-10-20T04:16:10.000Z</time>
</trkpt>
<trkpt lat="31.7696290" lon="35.0182900">
<ele>315.399994</ele>
<time>2017-10-20T04:16:13.000Z</time>
</trkpt>
<trkpt lat="31.7696350" lon="35.0183440">
<ele>316.299988</ele>
<time>2017-10-20T04:16:15.000Z</time>
</trkpt>
<trkpt lat="31.7696350" lon="35.0183820">
<ele>316.800018</ele>
<time>2017-10-20T04:16:17.000Z</time>
</trkpt>
<trkpt lat="31.7696310" lon="35.0184170">
<ele>317.299988</ele>
<time>2017-10-20T04:16:19.000Z</time>
</trkpt>
<trkpt lat="31.7696420" lon="35.0184530">
<ele>317.799988</ele>
<time>2017-10-20T04:16:22.000Z</time>
</trkpt>
<trkpt lat="31.7696580" lon="35.0184830">
<ele>318.200012</ele>
<time>2017-10-20T04:16:25.000Z</time>
</trkpt>
<trkpt lat="31.7696740" lon="35.0185140">
<ele>318.699982</ele>
<time>2017-10-20T04:16:28.000Z</time>
</trkpt>
<trkpt lat="31.7696880" lon="35.0185480">
<ele>319.100006</ele>
<time>2017-10-20T04:16:31.000Z</time>
</trkpt>
<trkpt lat="31.7696910" lon="35.0185810">
<ele>319.399994</ele>
<time>2017-10-20T04:16:34.000Z</time>
</trkpt>
<trkpt lat="31.7697140" lon="35.0186110">
<ele>319.899994</ele>
<time>2017-10-20T04:16:39.000Z</time>
</trkpt>
<trkpt lat="31.7697200" lon="35.0186490">
<ele>320.199982</ele>
<time>2017-10-20T04:16:44.000Z</time>
</trkpt>
<trkpt lat="31.7697280" lon="35.0186930">
<ele>320.700012</ele>
<time>2017-10-20T04:16:47.000Z</time>
</trkpt>
<trkpt lat="31.7697340" lon="35.0187270">
<ele>321.000031</ele>
<time>2017-10-20T04:16:49.000Z</time>
</trkpt>
<trkpt lat="31.7697550" lon="35.0187580">
<ele>321.300018</ele>
<time>2017-10-20T04:16:55.000Z</time>
</trkpt>
<trkpt lat="31.7697770" lon="35.0187960">
<ele>321.699982</ele>
<time>2017-10-20T04:16:58.000Z</time>
</trkpt>
<trkpt lat="31.7697820" lon="35.0188400">
<ele>322.100006</ele>
<time>2017-10-20T04:17:01.000Z</time>
</trkpt>
<trkpt lat="31.7697780" lon="35.0188910">
<ele>322.500031</ele>
<time>2017-10-20T04:17:07.000Z</time>
</trkpt>
<trkpt lat="31.7697840" lon="35.0189370">
<ele>322.899994</ele>
<time>2017-10-20T04:17:10.000Z</time>
</trkpt>
<trkpt lat="31.7697870" lon="35.0189700">
<ele>323.199982</ele>
<time>2017-10-20T04:17:13.000Z</time>
</trkpt>
<trkpt lat="31.7697940" lon="35.0190020">
<ele>323.500000</ele>
<time>2017-10-20T04:17:17.000Z</time>
</trkpt>
<trkpt lat="31.7697930" lon="35.0190440">
<ele>323.799988</ele>
<time>2017-10-20T04:17:20.000Z</time>
</trkpt>
<trkpt lat="31.7697940" lon="35.0190770">
<ele>323.999969</ele>
<time>2017-10-20T04:17:22.000Z</time>
</trkpt>
<trkpt lat="31.7697980" lon="35.0191110">
<ele>324.200012</ele>
<time>2017-10-20T04:17:31.000Z</time>
</trkpt>
<trkpt lat="31.7697690" lon="35.0191350">
<ele>324.399994</ele>
<time>2017-10-20T04:17:36.000Z</time>
</trkpt>
<trkpt lat="31.7697380" lon="35.0191510">
<ele>324.599976</ele>
<time>2017-10-20T04:17:39.000Z</time>
</trkpt>
<trkpt lat="31.7697060" lon="35.0191760">
<ele>324.800018</ele>
<time>2017-10-20T04:17:42.000Z</time>
</trkpt>
<trkpt lat="31.7696750" lon="35.0192020">
<ele>324.899994</ele>
<time>2017-10-20T04:17:44.000Z</time>
</trkpt>
<trkpt lat="31.7696520" lon="35.0192220">
<ele>324.899994</ele>
<time>2017-10-20T04:17:46.000Z</time>
</trkpt>
<trkpt lat="31.7696390" lon="35.0192570">
<ele>325.000000</ele>
<time>2017-10-20T04:17:48.000Z</time>
</trkpt>
<trkpt lat="31.7696160" lon="35.0192830">
<ele>325.100006</ele>
<time>2017-10-20T04:17:52.000Z</time>
</trkpt>
<trkpt lat="31.7695930" lon="35.0193140">
<ele>325.199982</ele>
<time>2017-10-20T04:17:55.000Z</time>
</trkpt>
<trkpt lat="31.7695690" lon="35.0193460">
<ele>325.299988</ele>
<time>2017-10-20T04:17:57.000Z</time>
</trkpt>
<trkpt lat="31.7695450" lon="35.0193700">
<ele>325.399994</ele>
<time>2017-10-20T04:17:59.000Z</time>
</trkpt>
<trkpt lat="31.7695240" lon="35.0194080">
<ele>325.499969</ele>
<time>2017-10-20T04:18:03.000Z</time>
</trkpt>
<trkpt lat="31.7695010" lon="35.0194270">
<ele>325.600006</ele>
<time>2017-10-20T04:18:05.000Z</time>
</trkpt>
<trkpt lat="31.7694830" lon="35.0194560">
<ele>325.799988</ele>
<time>2017-10-20T04:18:07.000Z</time>
</trkpt>
<trkpt lat="31.7694710" lon="35.0194960">
<ele>325.899994</ele>
<time>2017-10-20T04:18:09.000Z</time>
</trkpt>
<trkpt lat="31.7694550" lon="35.0195340">
<ele>326.199982</ele>
<time>2017-10-20T04:18:11.000Z</time>
</trkpt>
<trkpt lat="31.7694330" lon="35.0195670">
<ele>326.600006</ele>
<time>2017-10-20T04:18:13.000Z</time>
</trkpt>
<trkpt lat="31.7694020" lon="35.0195930">
<ele>326.999969</ele>
<time>2017-10-20T04:18:15.000Z</time>
</trkpt>
<trkpt lat="31.7693780" lon="35.0196200">
<ele>327.399994</ele>
<time>2017-10-20T04:18:17.000Z</time>
</trkpt>
<trkpt lat="31.7693460" lon="35.0196560">
<ele>327.899994</ele>
<time>2017-10-20T04:18:19.000Z</time>
</trkpt>
<trkpt lat="31.7693180" lon="35.0196880">
<ele>328.400024</ele>
<time>2017-10-20T04:18:21.000Z</time>
</trkpt>
<trkpt lat="31.7692930" lon="35.0197200">
<ele>328.799988</ele>
<time>2017-10-20T04:18:23.000Z</time>
</trkpt>
<trkpt lat="31.7692680" lon="35.0197520">
<ele>329.200012</ele>
<time>2017-10-20T04:18:25.000Z</time>
</trkpt>
<trkpt lat="31.7692440" lon="35.0197800">
<ele>329.600006</ele>
<time>2017-10-20T04:18:27.000Z</time>
</trkpt>
<trkpt lat="31.7692130" lon="35.0198150">
<ele>329.900024</ele>
<time>2017-10-20T04:18:29.000Z</time>
</trkpt>
<trkpt lat="31.7691790" lon="35.0198380">
<ele>330.200012</ele>
<time>2017-10-20T04:18:31.000Z</time>
</trkpt>
<trkpt lat="31.7691400" lon="35.0198640">
<ele>330.599976</ele>
<time>2017-10-20T04:18:33.000Z</time>
</trkpt>
<trkpt lat="31.7691120" lon="35.0198980">
<ele>330.800018</ele>
<time>2017-10-20T04:18:35.000Z</time>
</trkpt>
<trkpt lat="31.7690840" lon="35.0199230">
<ele>331.000000</ele>
<time>2017-10-20T04:18:37.000Z</time>
</trkpt>
<trkpt lat="31.7690580" lon="35.0199580">
<ele>331.199982</ele>
<time>2017-10-20T04:18:39.000Z</time>
</trkpt>
<trkpt lat="31.7690300" lon="35.0199820">
<ele>331.400024</ele>
<time>2017-10-20T04:18:42.000Z</time>
</trkpt>
<trkpt lat="31.7690000" lon="35.0200060">
<ele>331.500000</ele>
<time>2017-10-20T04:18:44.000Z</time>
</trkpt>
<trkpt lat="31.7689650" lon="35.0200400">
<ele>331.700012</ele>
<time>2017-10-20T04:18:46.000Z</time>
</trkpt>
<trkpt lat="31.7689350" lon="35.0200660">
<ele>331.899994</ele>
<time>2017-10-20T04:18:48.000Z</time>
</trkpt>
<trkpt lat="31.7689110" lon="35.0200870">
<ele>332.099976</ele>
<time>2017-10-20T04:18:50.000Z</time>
</trkpt>
<trkpt lat="31.7688790" lon="35.0201160">
<ele>332.500000</ele>
<time>2017-10-20T04:18:53.000Z</time>
</trkpt>
<trkpt lat="31.7688490" lon="35.0201580">
<ele>332.900024</ele>
<time>2017-10-20T04:18:55.000Z</time>
</trkpt>
<trkpt lat="31.7688160" lon="35.0201990">
<ele>333.299988</ele>
<time>2017-10-20T04:18:57.000Z</time>
</trkpt>
<trkpt lat="31.7687930" lon="35.0202390">
<ele>333.700012</ele>
<time>2017-10-20T04:19:00.000Z</time>
</trkpt>
<trkpt lat="31.7687690" lon="35.0202850">
<ele>334.300018</ele>
<time>2017-10-20T04:19:03.000Z</time>
</trkpt>
<trkpt lat="31.7687610" lon="35.0203250">
<ele>334.700012</ele>
<time>2017-10-20T04:19:05.000Z</time>
</trkpt>
<trkpt lat="31.7687500" lon="35.0203790">
<ele>335.300018</ele>
<time>2017-10-20T04:19:08.000Z</time>
</trkpt>
<trkpt lat="31.7687360" lon="35.0204250">
<ele>336.000000</ele>
<time>2017-10-20T04:19:11.000Z</time>
</trkpt>
<trkpt lat="31.7687280" lon="35.0204700">
<ele>336.600006</ele>
<time>2017-10-20T04:19:14.000Z</time>
</trkpt>
<trkpt lat="31.7687240" lon="35.0205210">
<ele>337.199982</ele>
<time>2017-10-20T04:19:17.000Z</time>
</trkpt>
<trkpt lat="31.7687190" lon="35.0205740">
<ele>337.799988</ele>
<time>2017-10-20T04:19:20.000Z</time>
</trkpt>
<trkpt lat="31.7687180" lon="35.0206110">
<ele>338.200012</ele>
<time>2017-10-20T04:19:22.000Z</time>
</trkpt>
<trkpt lat="31.7687170" lon="35.0206590">
<ele>338.699982</ele>
<time>2017-10-20T04:19:24.000Z</time>
</trkpt>
<trkpt lat="31.7687160" lon="35.0207110">
<ele>339.199982</ele>
<time>2017-10-20T04:19:27.000Z</time>
</trkpt>
<trkpt lat="31.7687100" lon="35.0207540">
<ele>339.700012</ele>
<time>2017-10-20T04:19:30.000Z</time>
</trkpt>
<trkpt lat="31.7687310" lon="35.0207810">
<ele>340.000000</ele>
<time>2017-10-20T04:19:32.000Z</time>
</trkpt>
<trkpt lat="31.7687380" lon="35.0208200">
<ele>340.399994</ele>
<time>2017-10-20T04:19:34.000Z</time>
</trkpt>
<trkpt lat="31.7687320" lon="35.0208610">
<ele>340.799988</ele>
<time>2017-10-20T04:19:38.000Z</time>
</trkpt>
<trkpt lat="31.7687220" lon="35.0209020">
<ele>341.299988</ele>
<time>2017-10-20T04:19:40.000Z</time>
</trkpt>
<trkpt lat="31.7687160" lon="35.0209410">
<ele>341.599976</ele>
<time>2017-10-20T04:19:44.000Z</time>
</trkpt>
<trkpt lat="31.7687110" lon="35.0209780">
<ele>342.000000</ele>
<time>2017-10-20T04:19:47.000Z</time>
</trkpt>
<trkpt lat="31.7687040" lon="35.0210160">
<ele>342.400024</ele>
<time>2017-10-20T04:19:51.000Z</time>
</trkpt>
<trkpt lat="31.7687100" lon="35.0210490">
<ele>342.799988</ele>
<time>2017-10-20T04:19:54.000Z</time>
</trkpt>
<trkpt lat="31.7687120" lon="35.0210900">
<ele>343.200012</ele>
<time>2017-10-20T04:19:57.000Z</time>
</trkpt>
<trkpt lat="31.7687100" lon="35.0211220">
<ele>343.600006</ele>
<time>2017-10-20T04:20:00.000Z</time>
</trkpt>
<trkpt lat="31.7687010" lon="35.0211590">
<ele>344.000000</ele>
<time>2017-10-20T04:20:03.000Z</time>
</trkpt>
<trkpt lat="31.7687020" lon="35.0211960">
<ele>344.500000</ele>
<time>2017-10-20T04:20:06.000Z</time>
</trkpt>
<trkpt lat="31.7687010" lon="35.0212280">
<ele>344.899994</ele>
<time>2017-10-20T04:20:08.000Z</time>
</trkpt>
<trkpt lat="31.7686950" lon="35.0212630">
<ele>345.299988</ele>
<time>2017-10-20T04:20:10.000Z</time>
</trkpt>
<trkpt lat="31.7686790" lon="35.0213060">
<ele>345.899994</ele>
<time>2017-10-20T04:20:13.000Z</time>
</trkpt>
<trkpt lat="31.7686710" lon="35.0213420">
<ele>346.399994</ele>
<time>2017-10-20T04:20:15.000Z</time>
</trkpt>
<trkpt lat="31.7686710" lon="35.0213810">
<ele>347.000000</ele>
<time>2017-10-20T04:20:17.000Z</time>
</trkpt>
<trkpt lat="31.7686700" lon="35.0214250">
<ele>347.600006</ele>
<time>2017-10-20T04:20:20.000Z</time>
</trkpt>
<trkpt lat="31.7686650" lon="35.0214950">
<ele>348.500000</ele>
<time>2017-10-20T04:20:23.000Z</time>
</trkpt>
<trkpt lat="31.7686610" lon="35.0215300">
<ele>348.899994</ele>
<time>2017-10-20T04:20:26.000Z</time>
</trkpt>
<trkpt lat="31.7686420" lon="35.0215630">
<ele>349.399994</ele>
<time>2017-10-20T04:20:29.000Z</time>
</trkpt>
<trkpt lat="31.7686290" lon="35.0215920">
<ele>349.899994</ele>
<time>2017-10-20T04:20:31.000Z</time>
</trkpt>
<trkpt lat="31.7686110" lon="35.0216160">
<ele>350.299988</ele>
<time>2017-10-20T04:20:34.000Z</time>
</trkpt>
<trkpt lat="31.7686040" lon="35.0216500">
<ele>350.700012</ele>
<time>2017-10-20T04:20:38.000Z</time>
</trkpt>
<trkpt lat="31.7685940" lon="35.0216870">
<ele>351.199982</ele>
<time>2017-10-20T04:20:41.000Z</time>
</trkpt>
<trkpt lat="31.7685920" lon="35.0217280">
<ele>351.699982</ele>
<time>2017-10-20T04:20:45.000Z</time>
</trkpt>
<trkpt lat="31.7686050" lon="35.0217660">
<ele>352.200012</ele>
<time>2017-10-20T04:20:47.000Z</time>
</trkpt>
<trkpt lat="31.7686100" lon="35.0217990">
<ele>352.700012</ele>
<time>2017-10-20T04:20:49.000Z</time>
</trkpt>
<trkpt lat="31.7686080" lon="35.0218660">
<ele>353.500000</ele>
<time>2017-10-20T04:20:51.000Z</time>
</trkpt>
<trkpt lat="31.7686100" lon="35.0219210">
<ele>354.200012</ele>
<time>2017-10-20T04:20:54.000Z</time>
</trkpt>
<trkpt lat="31.7686400" lon="35.0219830">
<ele>355.100006</ele>
<time>2017-10-20T04:21:00.000Z</time>
</trkpt>
<trkpt lat="31.7686570" lon="35.0220340">
<ele>355.800018</ele>
<time>2017-10-20T04:21:04.000Z</time>
</trkpt>
<trkpt lat="31.7686580" lon="35.0220760">
<ele>356.299988</ele>
<time>2017-10-20T04:21:07.000Z</time>
</trkpt>
<trkpt lat="31.7686570" lon="35.0221160">
<ele>356.799988</ele>
<time>2017-10-20T04:21:09.000Z</time>
</trkpt>
<trkpt lat="31.7686550" lon="35.0221600">
<ele>357.399994</ele>
<time>2017-10-20T04:21:12.000Z</time>
</trkpt>
<trkpt lat="31.7686570" lon="35.0221920">
<ele>357.799988</ele>
<time>2017-10-20T04:21:14.000Z</time>
</trkpt>
<trkpt lat="31.7686590" lon="35.0222320">
<ele>358.399994</ele>
<time>2017-10-20T04:21:17.000Z</time>
</trkpt>
<trkpt lat="31.7686630" lon="35.0222690">
<ele>358.899994</ele>
<time>2017-10-20T04:21:21.000Z</time>
</trkpt>
<trkpt lat="31.7686750" lon="35.0223040">
<ele>359.400024</ele>
<time>2017-10-20T04:21:24.000Z</time>
</trkpt>
<trkpt lat="31.7686850" lon="35.0223370">
<ele>360.000031</ele>
<time>2017-10-20T04:21:27.000Z</time>
</trkpt>
<trkpt lat="31.7686980" lon="35.0223810">
<ele>360.699982</ele>
<time>2017-10-20T04:21:32.000Z</time>
</trkpt>
<trkpt lat="31.7687080" lon="35.0224120">
<ele>361.299988</ele>
<time>2017-10-20T04:21:37.000Z</time>
</trkpt>
<trkpt lat="31.7687220" lon="35.0224460">
<ele>361.899994</ele>
<time>2017-10-20T04:21:39.000Z</time>
</trkpt>
<trkpt lat="31.7687460" lon="35.0224790">
<ele>362.600006</ele>
<time>2017-10-20T04:21:41.000Z</time>
</trkpt>
<trkpt lat="31.7687650" lon="35.0225090">
<ele>363.100006</ele>
<time>2017-10-20T04:21:43.000Z</time>
</trkpt>
<trkpt lat="31.7687790" lon="35.0225370">
<ele>363.599976</ele>
<time>2017-10-20T04:21:45.000Z</time>
</trkpt>
<trkpt lat="31.7688020" lon="35.0225670">
<ele>364.199982</ele>
<time>2017-10-20T04:21:47.000Z</time>
</trkpt>
<trkpt lat="31.7688270" lon="35.0226090">
<ele>364.899994</ele>
<time>2017-10-20T04:21:51.000Z</time>
</trkpt>
<trkpt lat="31.7688420" lon="35.0226410">
<ele>365.399994</ele>
<time>2017-10-20T04:21:53.000Z</time>
</trkpt>
<trkpt lat="31.7688680" lon="35.0226820">
<ele>366.100006</ele>
<time>2017-10-20T04:21:56.000Z</time>
</trkpt>
<trkpt lat="31.7688990" lon="35.0227040">
<ele>366.599976</ele>
<time>2017-10-20T04:22:03.000Z</time>
</trkpt>
<trkpt lat="31.7689290" lon="35.0227370">
<ele>367.199982</ele>
<time>2017-10-20T04:22:06.000Z</time>
</trkpt>
<trkpt lat="31.7689460" lon="35.0227660">
<ele>367.600006</ele>
<time>2017-10-20T04:22:10.000Z</time>
</trkpt>
<trkpt lat="31.7689670" lon="35.0227910">
<ele>368.000000</ele>
<time>2017-10-20T04:22:12.000Z</time>
</trkpt>
<trkpt lat="31.7689880" lon="35.0228190">
<ele>368.500000</ele>
<time>2017-10-20T04:22:16.000Z</time>
</trkpt>
<trkpt lat="31.7690070" lon="35.0228500">
<ele>368.900024</ele>
<time>2017-10-20T04:22:19.000Z</time>
</trkpt>
<trkpt lat="31.7690270" lon="35.0228810">
<ele>369.299988</ele>
<time>2017-10-20T04:22:27.000Z</time>
</trkpt>
<trkpt lat="31.7690500" lon="35.0229130">
<ele>369.800018</ele>
<time>2017-10-20T04:22:30.000Z</time>
</trkpt>
<trkpt lat="31.7690770" lon="35.0229350">
<ele>370.199982</ele>
<time>2017-10-20T04:22:33.000Z</time>
</trkpt>
<trkpt lat="31.7691020" lon="35.0229600">
<ele>370.700012</ele>
<time>2017-10-20T04:22:36.000Z</time>
</trkpt>
<trkpt lat="31.7691310" lon="35.0229800">
<ele>371.099976</ele>
<time>2017-10-20T04:22:39.000Z</time>
</trkpt>
<trkpt lat="31.7691560" lon="35.0229960">
<ele>371.500000</ele>
<time>2017-10-20T04:22:41.000Z</time>
</trkpt>
<trkpt lat="31.7691880" lon="35.0230220">
<ele>372.000000</ele>
<time>2017-10-20T04:22:44.000Z</time>
</trkpt>
<trkpt lat="31.7692100" lon="35.0230450">
<ele>372.299988</ele>
<time>2017-10-20T04:22:47.000Z</time>
</trkpt>
<trkpt lat="31.7692310" lon="35.0230670">
<ele>372.700012</ele>
<time>2017-10-20T04:22:49.000Z</time>
</trkpt>
<trkpt lat="31.7692510" lon="35.0231000">
<ele>373.100006</ele>
<time>2017-10-20T04:22:53.000Z</time>
</trkpt>
<trkpt lat="31.7692820" lon="35.0231250">
<ele>373.600006</ele>
<time>2017-10-20T04:22:57.000Z</time>
</trkpt>
<trkpt lat="31.7693090" lon="35.0231530">
<ele>374.000031</ele>
<time>2017-10-20T04:23:01.000Z</time>
</trkpt>
<trkpt lat="31.7693360" lon="35.0231790">
<ele>374.500000</ele>
<time>2017-10-20T04:23:04.000Z</time>
</trkpt>
<trkpt lat="31.7693580" lon="35.0232000">
<ele>374.800018</ele>
<time>2017-10-20T04:23:06.000Z</time>
</trkpt>
<trkpt lat="31.7693720" lon="35.0232290">
<ele>375.100006</ele>
<time>2017-10-20T04:23:09.000Z</time>
</trkpt>
<trkpt lat="31.7693890" lon="35.0232560">
<ele>375.499969</ele>
<time>2017-10-20T04:23:12.000Z</time>
</trkpt>
<trkpt lat="31.7694090" lon="35.0232800">
<ele>375.899994</ele>
<time>2017-10-20T04:23:15.000Z</time>
</trkpt>
<trkpt lat="31.7694330" lon="35.0233020">
<ele>376.199982</ele>
<time>2017-10-20T04:23:19.000Z</time>
</trkpt>
<trkpt lat="31.7694560" lon="35.0233270">
<ele>376.600006</ele>
<time>2017-10-20T04:23:22.000Z</time>
</trkpt>
<trkpt lat="31.7694790" lon="35.0233600">
<ele>377.100006</ele>
<time>2017-10-20T04:23:24.000Z</time>
</trkpt>
<trkpt lat="31.7694980" lon="35.0233900">
<ele>377.500000</ele>
<time>2017-10-20T04:23:26.000Z</time>
</trkpt>
<trkpt lat="31.7695180" lon="35.0234240">
<ele>377.899994</ele>
<time>2017-10-20T04:23:29.000Z</time>
</trkpt>
<trkpt lat="31.7695340" lon="35.0234500">
<ele>378.199982</ele>
<time>2017-10-20T04:23:31.000Z</time>
</trkpt>
<trkpt lat="31.7695500" lon="35.0234790">
<ele>378.600006</ele>
<time>2017-10-20T04:23:33.000Z</time>
</trkpt>
<trkpt lat="31.7695720" lon="35.0235100">
<ele>379.000000</ele>
<time>2017-10-20T04:23:36.000Z</time>
</trkpt>
<trkpt lat="31.7695960" lon="35.0235390">
<ele>379.399994</ele>
<time>2017-10-20T04:23:39.000Z</time>
</trkpt>
<trkpt lat="31.7696120" lon="35.0235650">
<ele>379.699982</ele>
<time>2017-10-20T04:23:41.000Z</time>
</trkpt>
<trkpt lat="31.7696310" lon="35.0235930">
<ele>380.100006</ele>
<time>2017-10-20T04:23:43.000Z</time>
</trkpt>
<trkpt lat="31.7696470" lon="35.0236260">
<ele>380.500000</ele>
<time>2017-10-20T04:23:45.000Z</time>
</trkpt>
<trkpt lat="31.7696600" lon="35.0236650">
<ele>380.899994</ele>
<time>2017-10-20T04:23:48.000Z</time>
</trkpt>
<trkpt lat="31.7696710" lon="35.0237000">
<ele>381.299988</ele>
<time>2017-10-20T04:23:51.000Z</time>
</trkpt>
<trkpt lat="31.7696710" lon="35.0237360">
<ele>381.700012</ele>
<time>2017-10-20T04:23:54.000Z</time>
</trkpt>
<trkpt lat="31.7696860" lon="35.0237660">
<ele>382.099976</ele>
<time>2017-10-20T04:23:57.000Z</time>
</trkpt>
<trkpt lat="31.7696960" lon="35.0238010">
<ele>382.500000</ele>
<time>2017-10-20T04:24:00.000Z</time>
</trkpt>
<trkpt lat="31.7697030" lon="35.0238320">
<ele>383.000000</ele>
<time>2017-10-20T04:24:03.000Z</time>
</trkpt>
<trkpt lat="31.7697200" lon="35.0238720">
<ele>383.500000</ele>
<time>2017-10-20T04:24:06.000Z</time>
</trkpt>
<trkpt lat="31.7697280" lon="35.0239040">
<ele>383.899994</ele>
<time>2017-10-20T04:24:09.000Z</time>
</trkpt>
<trkpt lat="31.7697440" lon="35.0239360">
<ele>384.400024</ele>
<time>2017-10-20T04:24:15.000Z</time>
</trkpt>
<trkpt lat="31.7697610" lon="35.0239780">
<ele>385.000031</ele>
<time>2017-10-20T04:24:19.000Z</time>
</trkpt>
<trkpt lat="31.7697780" lon="35.0240090">
<ele>385.500000</ele>
<time>2017-10-20T04:24:21.000Z</time>
</trkpt>
<trkpt lat="31.7697940" lon="35.0240450">
<ele>386.000000</ele>
<time>2017-10-20T04:24:24.000Z</time>
</trkpt>
<trkpt lat="31.7697940" lon="35.0240770">
<ele>386.399994</ele>
<time>2017-10-20T04:25:51.000Z</time>
</trkpt>
<trkpt lat="31.7697980" lon="35.0241090">
<ele>386.800018</ele>
<time>2017-10-20T04:27:31.000Z</time>
</trkpt>
<trkpt lat="31.7697750" lon="35.0240920">
<ele>387.199982</ele>
<time>2017-10-20T04:31:24.000Z</time>
</trkpt>
<trkpt lat="31.7697510" lon="35.0240770">
<ele>387.600006</ele>
<time>2017-10-20T04:34:16.000Z</time>
</trkpt>
<trkpt lat="31.7697670" lon="35.0241040">
<ele>388.100006</ele>
<time>2017-10-20T04:35:53.000Z</time>
</trkpt>
<trkpt lat="31.7697770" lon="35.0241390">
<ele>388.599976</ele>
<time>2017-10-20T04:36:17.000Z</time>
</trkpt>
<trkpt lat="31.7697950" lon="35.0241830">
<ele>389.199982</ele>
<time>2017-10-20T04:36:27.000Z</time>
</trkpt>
<trkpt lat="31.7698080" lon="35.0242160">
<ele>389.700012</ele>
<time>2017-10-20T04:36:29.000Z</time>
</trkpt>
<trkpt lat="31.7698190" lon="35.0242460">
<ele>390.099976</ele>
<time>2017-10-20T04:36:31.000Z</time>
</trkpt>
<trkpt lat="31.7698440" lon="35.0242820">
<ele>390.699982</ele>
<time>2017-10-20T04:36:34.000Z</time>
</trkpt>
<trkpt lat="31.7698600" lon="35.0243120">
<ele>391.100006</ele>
<time>2017-10-20T04:36:37.000Z</time>
</trkpt>
<trkpt lat="31.7698760" lon="35.0243520">
<ele>391.700012</ele>
<time>2017-10-20T04:36:39.000Z</time>
</trkpt>
<trkpt lat="31.7698930" lon="35.0243950">
<ele>392.199982</ele>
<time>2017-10-20T04:36:41.000Z</time>
</trkpt>
<trkpt lat="31.7699080" lon="35.0244270">
<ele>392.600006</ele>
<time>2017-10-20T04:36:43.000Z</time>
</trkpt>
<trkpt lat="31.7699220" lon="35.0244610">
<ele>393.000000</ele>
<time>2017-10-20T04:36:45.000Z</time>
</trkpt>
<trkpt lat="31.7699390" lon="35.0244910">
<ele>393.399994</ele>
<time>2017-10-20T04:36:48.000Z</time>
</trkpt>
<trkpt lat="31.7699660" lon="35.0245290">
<ele>393.799988</ele>
<time>2017-10-20T04:36:51.000Z</time>
</trkpt>
<trkpt lat="31.7699880" lon="35.0245480">
<ele>394.100006</ele>
<time>2017-10-20T04:36:54.000Z</time>
</trkpt>
<trkpt lat="31.7700170" lon="35.0245630">
<ele>394.500000</ele>
<time>2017-10-20T04:36:59.000Z</time>
</trkpt>
<trkpt lat="31.7700390" lon="35.0245820">
<ele>394.700012</ele>
<time>2017-10-20T04:37:01.000Z</time>
</trkpt>
<trkpt lat="31.7700600" lon="35.0246090">
<ele>395.000000</ele>
<time>2017-10-20T04:37:03.000Z</time>
</trkpt>
<trkpt lat="31.7700900" lon="35.0246490">
<ele>395.500000</ele>
<time>2017-10-20T04:37:06.000Z</time>
</trkpt>
<trkpt lat="31.7701040" lon="35.0246770">
<ele>395.700012</ele>
<time>2017-10-20T04:37:08.000Z</time>
</trkpt>
<trkpt lat="31.7701280" lon="35.0247030">
<ele>396.000000</ele>
<time>2017-10-20T04:37:11.000Z</time>
</trkpt>
<trkpt lat="31.7701510" lon="35.0247240">
<ele>396.600006</ele>
<time>2017-10-20T04:37:13.000Z</time>
</trkpt>
<trkpt lat="31.7701630" lon="35.0247610">
<ele>397.200012</ele>
<time>2017-10-20T04:37:16.000Z</time>
</trkpt>
<trkpt lat="31.7701760" lon="35.0247970">
<ele>397.700012</ele>
<time>2017-10-20T04:37:19.000Z</time>
</trkpt>
<trkpt lat="31.7701980" lon="35.0248240">
<ele>398.199982</ele>
<time>2017-10-20T04:37:22.000Z</time>
</trkpt>
<trkpt lat="31.7702340" lon="35.0248300">
<ele>398.700012</ele>
<time>2017-10-20T04:37:25.000Z</time>
</trkpt>
<trkpt lat="31.7702630" lon="35.0248230">
<ele>399.000031</ele>
<time>2017-10-20T04:37:28.000Z</time>
</trkpt>
<trkpt lat="31.7702930" lon="35.0247890">
<ele>399.300018</ele>
<time>2017-10-20T04:37:31.000Z</time>
</trkpt>
<trkpt lat="31.7703130" lon="35.0247560">
<ele>399.600006</ele>
<time>2017-10-20T04:37:33.000Z</time>
</trkpt>
<trkpt lat="31.7703350" lon="35.0247330">
<ele>399.900024</ele>
<time>2017-10-20T04:37:37.000Z</time>
</trkpt>
<trkpt lat="31.7703580" lon="35.0247150">
<ele>400.199982</ele>
<time>2017-10-20T04:37:40.000Z</time>
</trkpt>
<trkpt lat="31.7703910" lon="35.0247020">
<ele>400.499969</ele>
<time>2017-10-20T04:37:43.000Z</time>
</trkpt>
<trkpt lat="31.7704240" lon="35.0246960">
<ele>400.899994</ele>
<time>2017-10-20T04:37:47.000Z</time>
</trkpt>
<trkpt lat="31.7704580" lon="35.0246850">
<ele>401.199982</ele>
<time>2017-10-20T04:37:50.000Z</time>
</trkpt>
<trkpt lat="31.7704940" lon="35.0246610">
<ele>401.600006</ele>
<time>2017-10-20T04:37:53.000Z</time>
</trkpt>
<trkpt lat="31.7705160" lon="35.0246410">
<ele>401.799988</ele>
<time>2017-10-20T04:37:55.000Z</time>
</trkpt>
<trkpt lat="31.7705530" lon="35.0246160">
<ele>402.100006</ele>
<time>2017-10-20T04:37:58.000Z</time>
</trkpt>
<trkpt lat="31.7705830" lon="35.0245950">
<ele>402.399994</ele>
<time>2017-10-20T04:38:00.000Z</time>
</trkpt>
<trkpt lat="31.7706150" lon="35.0245760">
<ele>402.699982</ele>
<time>2017-10-20T04:38:02.000Z</time>
</trkpt>
<trkpt lat="31.7706580" lon="35.0245560">
<ele>403.000000</ele>
<time>2017-10-20T04:38:04.000Z</time>
</trkpt>
<trkpt lat="31.7706900" lon="35.0245230">
<ele>403.400024</ele>
<time>2017-10-20T04:38:06.000Z</time>
</trkpt>
<trkpt lat="31.7707140" lon="35.0244910">
<ele>403.700012</ele>
<time>2017-10-20T04:38:08.000Z</time>
</trkpt>
<trkpt lat="31.7707470" lon="35.0244670">
<ele>404.200012</ele>
<time>2017-10-20T04:38:10.000Z</time>
</trkpt>
<trkpt lat="31.7707740" lon="35.0244510">
<ele>404.600006</ele>
<time>2017-10-20T04:38:12.000Z</time>
</trkpt>
<trkpt lat="31.7708030" lon="35.0244400">
<ele>405.100006</ele>
<time>2017-10-20T04:38:14.000Z</time>
</trkpt>
<trkpt lat="31.7708370" lon="35.0244440">
<ele>405.599976</ele>
<time>2017-10-20T04:38:17.000Z</time>
</trkpt>
<trkpt lat="31.7708660" lon="35.0244520">
<ele>406.000000</ele>
<time>2017-10-20T04:38:19.000Z</time>
</trkpt>
<trkpt lat="31.7709030" lon="35.0244550">
<ele>406.000000</ele>
<time>2017-10-20T04:38:22.000Z</time>
</trkpt>
<trkpt lat="31.7709360" lon="35.0244520">
<ele>406.000000</ele>
<time>2017-10-20T04:38:24.000Z</time>
</trkpt>
<trkpt lat="31.7709750" lon="35.0244500">
<ele>406.000000</ele>
<time>2017-10-20T04:38:26.000Z</time>
</trkpt>
<trkpt lat="31.7710040" lon="35.0244450">
<ele>406.000000</ele>
<time>2017-10-20T04:38:28.000Z</time>
</trkpt>
<trkpt lat="31.7710450" lon="35.0244410">
<ele>406.000000</ele>
<time>2017-10-20T04:38:31.000Z</time>
</trkpt>
<trkpt lat="31.7711050" lon="35.0244410">
<ele>406.000000</ele>
<time>2017-10-20T04:38:33.000Z</time>
</trkpt>
<trkpt lat="31.7711580" lon="35.0244390">
<ele>406.000000</ele>
<time>2017-10-20T04:38:35.000Z</time>
</trkpt>
<trkpt lat="31.7712020" lon="35.0244380">
<ele>405.500000</ele>
<time>2017-10-20T04:38:37.000Z</time>
</trkpt>
<trkpt lat="31.7712320" lon="35.0244320">
<ele>405.100006</ele>
<time>2017-10-20T04:38:39.000Z</time>
</trkpt>
<trkpt lat="31.7712660" lon="35.0244280">
<ele>404.600006</ele>
<time>2017-10-20T04:38:41.000Z</time>
</trkpt>
<trkpt lat="31.7713140" lon="35.0244330">
<ele>404.000000</ele>
<time>2017-10-20T04:38:43.000Z</time>
</trkpt>
<trkpt lat="31.7713560" lon="35.0244370">
<ele>403.600006</ele>
<time>2017-10-20T04:38:45.000Z</time>
</trkpt>
<trkpt lat="31.7713910" lon="35.0244360">
<ele>403.299988</ele>
<time>2017-10-20T04:38:47.000Z</time>
</trkpt>
<trkpt lat="31.7714230" lon="35.0244360">
<ele>403.000000</ele>
<time>2017-10-20T04:38:49.000Z</time>
</trkpt>
<trkpt lat="31.7714520" lon="35.0244330">
<ele>402.800018</ele>
<time>2017-10-20T04:38:51.000Z</time>
</trkpt>
<trkpt lat="31.7714920" lon="35.0244360">
<ele>402.399994</ele>
<time>2017-10-20T04:38:53.000Z</time>
</trkpt>
<trkpt lat="31.7715260" lon="35.0244380">
<ele>402.200012</ele>
<time>2017-10-20T04:38:55.000Z</time>
</trkpt>
<trkpt lat="31.7715570" lon="35.0244430">
<ele>401.899994</ele>
<time>2017-10-20T04:38:57.000Z</time>
</trkpt>
<trkpt lat="31.7715980" lon="35.0244470">
<ele>401.500000</ele>
<time>2017-10-20T04:38:59.000Z</time>
</trkpt>
<trkpt lat="31.7716390" lon="35.0244440">
<ele>401.300018</ele>
<time>2017-10-20T04:39:01.000Z</time>
</trkpt>
<trkpt lat="31.7716820" lon="35.0244370">
<ele>401.000000</ele>
<time>2017-10-20T04:39:04.000Z</time>
</trkpt>
<trkpt lat="31.7717180" lon="35.0244270">
<ele>400.700012</ele>
<time>2017-10-20T04:39:06.000Z</time>
</trkpt>
<trkpt lat="31.7717530" lon="35.0244160">
<ele>400.499969</ele>
<time>2017-10-20T04:39:08.000Z</time>
</trkpt>
<trkpt lat="31.7718000" lon="35.0244030">
<ele>400.199982</ele>
<time>2017-10-20T04:39:10.000Z</time>
</trkpt>
<trkpt lat="31.7718240" lon="35.0243820">
<ele>399.900024</ele>
<time>2017-10-20T04:39:12.000Z</time>
</trkpt>
<trkpt lat="31.7718540" lon="35.0243700">
<ele>399.600006</ele>
<time>2017-10-20T04:39:14.000Z</time>
</trkpt>
<trkpt lat="31.7718910" lon="35.0243390">
<ele>399.100006</ele>
<time>2017-10-20T04:39:16.000Z</time>
</trkpt>
<trkpt lat="31.7719250" lon="35.0243320">
<ele>398.700012</ele>
<time>2017-10-20T04:39:17.000Z</time>
</trkpt>
<trkpt lat="31.7719760" lon="35.0243260">
<ele>398.199982</ele>
<time>2017-10-20T04:39:19.000Z</time>
</trkpt>
<trkpt lat="31.7720110" lon="35.0243260">
<ele>397.800018</ele>
<time>2017-10-20T04:39:20.000Z</time>
</trkpt>
<trkpt lat="31.7720430" lon="35.0243190">
<ele>397.399994</ele>
<time>2017-10-20T04:39:21.000Z</time>
</trkpt>
<trkpt lat="31.7720820" lon="35.0243170">
<ele>397.100006</ele>
<time>2017-10-20T04:39:22.000Z</time>
</trkpt>
<trkpt lat="31.7721190" lon="35.0243170">
<ele>396.900024</ele>
<time>2017-10-20T04:39:24.000Z</time>
</trkpt>
<trkpt lat="31.7721520" lon="35.0243070">
<ele>396.699982</ele>
<time>2017-10-20T04:39:26.000Z</time>
</trkpt>
<trkpt lat="31.7721890" lon="35.0242980">
<ele>396.399994</ele>
<time>2017-10-20T04:39:28.000Z</time>
</trkpt>
<trkpt lat="31.7722280" lon="35.0242810">
<ele>396.200012</ele>
<time>2017-10-20T04:39:31.000Z</time>
</trkpt>
<trkpt lat="31.7722550" lon="35.0242610">
<ele>395.899994</ele>
<time>2017-10-20T04:39:33.000Z</time>
</trkpt>
<trkpt lat="31.7722990" lon="35.0242520">
<ele>395.700012</ele>
<time>2017-10-20T04:39:35.000Z</time>
</trkpt>
<trkpt lat="31.7723450" lon="35.0242430">
<ele>395.400024</ele>
<time>2017-10-20T04:39:37.000Z</time>
</trkpt>
<trkpt lat="31.7723910" lon="35.0242350">
<ele>395.100006</ele>
<time>2017-10-20T04:39:39.000Z</time>
</trkpt>
<trkpt lat="31.7724340" lon="35.0242290">
<ele>397.700012</ele>
<time>2017-10-20T04:39:41.000Z</time>
</trkpt>
<trkpt lat="31.7724830" lon="35.0242220">
<ele>400.000000</ele>
<time>2017-10-20T04:39:43.000Z</time>
</trkpt>
<trkpt lat="31.7725170" lon="35.0242110">
<ele>401.699982</ele>
<time>2017-10-20T04:39:45.000Z</time>
</trkpt>
<trkpt lat="31.7725470" lon="35.0242110">
<ele>403.000000</ele>
<time>2017-10-20T04:39:47.000Z</time>
</trkpt>
<trkpt lat="31.7725950" lon="35.0242300">
<ele>405.200012</ele>
<time>2017-10-20T04:39:50.000Z</time>
</trkpt>
<trkpt lat="31.7726380" lon="35.0242510">
<ele>407.099976</ele>
<time>2017-10-20T04:39:52.000Z</time>
</trkpt>
<trkpt lat="31.7726660" lon="35.0242640">
<ele>408.399994</ele>
<time>2017-10-20T04:39:53.000Z</time>
</trkpt>
<trkpt lat="31.7726940" lon="35.0242690">
<ele>409.500000</ele>
<time>2017-10-20T04:39:54.000Z</time>
</trkpt>
<trkpt lat="31.7727340" lon="35.0242690">
<ele>411.000000</ele>
<time>2017-10-20T04:39:56.000Z</time>
</trkpt>
<trkpt lat="31.7727750" lon="35.0242770">
<ele>412.500000</ele>
<time>2017-10-20T04:39:58.000Z</time>
</trkpt>
<trkpt lat="31.7728000" lon="35.0242640">
<ele>413.599976</ele>
<time>2017-10-20T04:40:01.000Z</time>
</trkpt>
<trkpt lat="31.7728280" lon="35.0242500">
<ele>414.700012</ele>
<time>2017-10-20T04:40:02.000Z</time>
</trkpt>
<trkpt lat="31.7728610" lon="35.0242530">
<ele>415.900024</ele>
<time>2017-10-20T04:40:03.000Z</time>
</trkpt>
<trkpt lat="31.7729150" lon="35.0242630">
<ele>417.899994</ele>
<time>2017-10-20T04:40:05.000Z</time>
</trkpt>
<trkpt lat="31.7729420" lon="35.0242670">
<ele>418.799988</ele>
<time>2017-10-20T04:40:06.000Z</time>
</trkpt>
<trkpt lat="31.7729770" lon="35.0242670">
<ele>420.100006</ele>
<time>2017-10-20T04:40:08.000Z</time>
</trkpt>
<trkpt lat="31.7730110" lon="35.0242710">
<ele>421.000000</ele>
<time>2017-10-20T04:40:11.000Z</time>
</trkpt>
<trkpt lat="31.7730440" lon="35.0242720">
<ele>421.300018</ele>
<time>2017-10-20T04:40:15.000Z</time>
</trkpt>
<trkpt lat="31.7730540" lon="35.0243090">
<ele>421.600006</ele>
<time>2017-10-20T04:40:17.000Z</time>
</trkpt>
<trkpt lat="31.7730170" lon="35.0243060">
<ele>421.799988</ele>
<time>2017-10-20T04:40:21.000Z</time>
</trkpt>
<trkpt lat="31.7729860" lon="35.0243000">
<ele>422.100006</ele>
<time>2017-10-20T04:40:23.000Z</time>
</trkpt>
<trkpt lat="31.7729580" lon="35.0243100">
<ele>422.399994</ele>
<time>2017-10-20T04:40:25.000Z</time>
</trkpt>
<trkpt lat="31.7729290" lon="35.0243060">
<ele>422.700012</ele>
<time>2017-10-20T04:40:28.000Z</time>
</trkpt>
<trkpt lat="31.7728980" lon="35.0243180">
<ele>422.899994</ele>
<time>2017-10-20T04:40:31.000Z</time>
</trkpt>
<trkpt lat="31.7728720" lon="35.0243310">
<ele>423.100006</ele>
<time>2017-10-20T04:40:35.000Z</time>
</trkpt>
<trkpt lat="31.7728410" lon="35.0243520">
<ele>423.199982</ele>
<time>2017-10-20T04:40:37.000Z</time>
</trkpt>
<trkpt lat="31.7728140" lon="35.0243700">
<ele>423.300018</ele>
<time>2017-10-20T04:40:40.000Z</time>
</trkpt>
<trkpt lat="31.7727780" lon="35.0243990">
<ele>423.500000</ele>
<time>2017-10-20T04:40:43.000Z</time>
</trkpt>
<trkpt lat="31.7727530" lon="35.0244130">
<ele>423.600006</ele>
<time>2017-10-20T04:40:44.000Z</time>
</trkpt>
<trkpt lat="31.7727280" lon="35.0244320">
<ele>423.899994</ele>
<time>2017-10-20T04:40:47.000Z</time>
</trkpt>
<trkpt lat="31.7727070" lon="35.0244520">
<ele>424.100006</ele>
<time>2017-10-20T04:40:51.000Z</time>
</trkpt>
<trkpt lat="31.7726780" lon="35.0244720">
<ele>424.399994</ele>
<time>2017-10-20T04:40:53.000Z</time>
</trkpt>
<trkpt lat="31.7726570" lon="35.0244910">
<ele>424.699982</ele>
<time>2017-10-20T04:40:55.000Z</time>
</trkpt>
<trkpt lat="31.7726350" lon="35.0245300">
<ele>425.000000</ele>
<time>2017-10-20T04:40:58.000Z</time>
</trkpt>
<trkpt lat="31.7726070" lon="35.0245620">
<ele>425.200012</ele>
<time>2017-10-20T04:41:01.000Z</time>
</trkpt>
<trkpt lat="31.7725900" lon="35.0245920">
<ele>425.399994</ele>
<time>2017-10-20T04:41:05.000Z</time>
</trkpt>
<trkpt lat="31.7725660" lon="35.0246290">
<ele>425.700012</ele>
<time>2017-10-20T04:41:07.000Z</time>
</trkpt>
<trkpt lat="31.7725430" lon="35.0246540">
<ele>426.000000</ele>
<time>2017-10-20T04:41:09.000Z</time>
</trkpt>
<trkpt lat="31.7725160" lon="35.0246830">
<ele>426.300018</ele>
<time>2017-10-20T04:41:11.000Z</time>
</trkpt>
<trkpt lat="31.7724940" lon="35.0247120">
<ele>426.300018</ele>
<time>2017-10-20T04:41:14.000Z</time>
</trkpt>
<trkpt lat="31.7724770" lon="35.0247400">
<ele>426.399994</ele>
<time>2017-10-20T04:41:16.000Z</time>
</trkpt>
<trkpt lat="31.7724690" lon="35.0247860">
<ele>426.500000</ele>
<time>2017-10-20T04:41:19.000Z</time>
</trkpt>
<trkpt lat="31.7724490" lon="35.0248140">
<ele>426.600006</ele>
<time>2017-10-20T04:41:22.000Z</time>
</trkpt>
<trkpt lat="31.7724280" lon="35.0248420">
<ele>426.600006</ele>
<time>2017-10-20T04:41:25.000Z</time>
</trkpt>
<trkpt lat="31.7724030" lon="35.0248550">
<ele>426.699982</ele>
<time>2017-10-20T04:41:27.000Z</time>
</trkpt>
<trkpt lat="31.7723740" lon="35.0248710">
<ele>426.799988</ele>
<time>2017-10-20T04:41:29.000Z</time>
</trkpt>
<trkpt lat="31.7723490" lon="35.0248870">
<ele>426.799988</ele>
<time>2017-10-20T04:41:31.000Z</time>
</trkpt>
<trkpt lat="31.7723180" lon="35.0249070">
<ele>426.899994</ele>
<time>2017-10-20T04:41:33.000Z</time>
</trkpt>
<trkpt lat="31.7722790" lon="35.0249290">
<ele>427.100006</ele>
<time>2017-10-20T04:41:35.000Z</time>
</trkpt>
<trkpt lat="31.7722400" lon="35.0249540">
<ele>427.500000</ele>
<time>2017-10-20T04:41:37.000Z</time>
</trkpt>
<trkpt lat="31.7722150" lon="35.0249740">
<ele>427.699982</ele>
<time>2017-10-20T04:41:38.000Z</time>
</trkpt>
<trkpt lat="31.7721840" lon="35.0250070">
<ele>428.000000</ele>
<time>2017-10-20T04:41:40.000Z</time>
</trkpt>
<trkpt lat="31.7721540" lon="35.0250440">
<ele>428.199982</ele>
<time>2017-10-20T04:41:42.000Z</time>
</trkpt>
<trkpt lat="31.7721360" lon="35.0250910">
<ele>428.399994</ele>
<time>2017-10-20T04:41:44.000Z</time>
</trkpt>
<trkpt lat="31.7721230" lon="35.0251210">
<ele>428.600006</ele>
<time>2017-10-20T04:41:45.000Z</time>
</trkpt>
<trkpt lat="31.7721110" lon="35.0251500">
<ele>428.799988</ele>
<time>2017-10-20T04:41:48.000Z</time>
</trkpt>
<trkpt lat="31.7720900" lon="35.0251760">
<ele>429.099976</ele>
<time>2017-10-20T04:41:50.000Z</time>
</trkpt>
<trkpt lat="31.7720670" lon="35.0251960">
<ele>429.399994</ele>
<time>2017-10-20T04:41:51.000Z</time>
</trkpt>
<trkpt lat="31.7720360" lon="35.0252200">
<ele>429.600006</ele>
<time>2017-10-20T04:41:53.000Z</time>
</trkpt>
<trkpt lat="31.7720160" lon="35.0252440">
<ele>429.799988</ele>
<time>2017-10-20T04:41:55.000Z</time>
</trkpt>
<trkpt lat="31.7719910" lon="35.0252730">
<ele>429.900024</ele>
<time>2017-10-20T04:41:57.000Z</time>
</trkpt>
<trkpt lat="31.7719700" lon="35.0253050">
<ele>430.100006</ele>
<time>2017-10-20T04:41:59.000Z</time>
</trkpt>
<trkpt lat="31.7719520" lon="35.0253280">
<ele>430.200012</ele>
<time>2017-10-20T04:42:02.000Z</time>
</trkpt>
<trkpt lat="31.7719300" lon="35.0253550">
<ele>430.399994</ele>
<time>2017-10-20T04:42:04.000Z</time>
</trkpt>
<trkpt lat="31.7719070" lon="35.0253790">
<ele>430.700012</ele>
<time>2017-10-20T04:42:07.000Z</time>
</trkpt>
<trkpt lat="31.7718820" lon="35.0254040">
<ele>431.100006</ele>
<time>2017-10-20T04:42:10.000Z</time>
</trkpt>
<trkpt lat="31.7718600" lon="35.0254270">
<ele>431.400024</ele>
<time>2017-10-20T04:42:13.000Z</time>
</trkpt>
<trkpt lat="31.7718380" lon="35.0254600">
<ele>431.600006</ele>
<time>2017-10-20T04:42:16.000Z</time>
</trkpt>
<trkpt lat="31.7718180" lon="35.0254860">
<ele>431.799988</ele>
<time>2017-10-20T04:42:20.000Z</time>
</trkpt>
<trkpt lat="31.7717840" lon="35.0255110">
<ele>432.200012</ele>
<time>2017-10-20T04:42:22.000Z</time>
</trkpt>
<trkpt lat="31.7717570" lon="35.0255340">
<ele>432.600006</ele>
<time>2017-10-20T04:42:24.000Z</time>
</trkpt>
<trkpt lat="31.7717330" lon="35.0255660">
<ele>432.900024</ele>
<time>2017-10-20T04:42:27.000Z</time>
</trkpt>
<trkpt lat="31.7717070" lon="35.0256120">
<ele>433.200012</ele>
<time>2017-10-20T04:42:29.000Z</time>
</trkpt>
<trkpt lat="31.7716880" lon="35.0256370">
<ele>433.399994</ele>
<time>2017-10-20T04:42:31.000Z</time>
</trkpt>
<trkpt lat="31.7716610" lon="35.0256690">
<ele>433.700012</ele>
<time>2017-10-20T04:42:34.000Z</time>
</trkpt>
<trkpt lat="31.7716330" lon="35.0256920">
<ele>434.100006</ele>
<time>2017-10-20T04:42:37.000Z</time>
</trkpt>
<trkpt lat="31.7716050" lon="35.0257110">
<ele>434.400024</ele>
<time>2017-10-20T04:42:40.000Z</time>
</trkpt>
<trkpt lat="31.7715710" lon="35.0257370">
<ele>434.700012</ele>
<time>2017-10-20T04:42:43.000Z</time>
</trkpt>
<trkpt lat="31.7715510" lon="35.0257650">
<ele>434.799988</ele>
<time>2017-10-20T04:42:45.000Z</time>
</trkpt>
<trkpt lat="31.7715250" lon="35.0257950">
<ele>435.000031</ele>
<time>2017-10-20T04:42:48.000Z</time>
</trkpt>
<trkpt lat="31.7714980" lon="35.0258210">
<ele>435.500000</ele>
<time>2017-10-20T04:42:50.000Z</time>
</trkpt>
<trkpt lat="31.7714670" lon="35.0258450">
<ele>435.900024</ele>
<time>2017-10-20T04:42:52.000Z</time>
</trkpt>
<trkpt lat="31.7714370" lon="35.0258630">
<ele>436.000000</ele>
<time>2017-10-20T04:42:54.000Z</time>
</trkpt>
<trkpt lat="31.7714080" lon="35.0258820">
<ele>436.100006</ele>
<time>2017-10-20T04:42:56.000Z</time>
</trkpt>
<trkpt lat="31.7713780" lon="35.0259070">
<ele>436.200012</ele>
<time>2017-10-20T04:42:59.000Z</time>
</trkpt>
<trkpt lat="31.7713440" lon="35.0259360">
<ele>436.299988</ele>
<time>2017-10-20T04:43:02.000Z</time>
</trkpt>
<trkpt lat="31.7713080" lon="35.0259600">
<ele>436.299988</ele>
<time>2017-10-20T04:43:05.000Z</time>
</trkpt>
<trkpt lat="31.7712750" lon="35.0259770">
<ele>436.399994</ele>
<time>2017-10-20T04:43:07.000Z</time>
</trkpt>
<trkpt lat="31.7712430" lon="35.0259920">
<ele>436.399994</ele>
<time>2017-10-20T04:43:09.000Z</time>
</trkpt>
<trkpt lat="31.7712130" lon="35.0260100">
<ele>436.500031</ele>
<time>2017-10-20T04:43:11.000Z</time>
</trkpt>
<trkpt lat="31.7711900" lon="35.0260330">
<ele>436.500031</ele>
<time>2017-10-20T04:43:13.000Z</time>
</trkpt>
<trkpt lat="31.7711640" lon="35.0260570">
<ele>436.600006</ele>
<time>2017-10-20T04:43:15.000Z</time>
</trkpt>
<trkpt lat="31.7711370" lon="35.0260800">
<ele>436.600006</ele>
<time>2017-10-20T04:43:17.000Z</time>
</trkpt>
<trkpt lat="31.7711240" lon="35.0261130">
<ele>436.700012</ele>
<time>2017-10-20T04:43:19.000Z</time>
</trkpt>
<trkpt lat="31.7711170" lon="35.0261600">
<ele>436.800018</ele>
<time>2017-10-20T04:43:22.000Z</time>
</trkpt>
<trkpt lat="31.7711200" lon="35.0262070">
<ele>436.899994</ele>
<time>2017-10-20T04:43:24.000Z</time>
</trkpt>
<trkpt lat="31.7711170" lon="35.0262590">
<ele>437.000000</ele>
<time>2017-10-20T04:43:26.000Z</time>
</trkpt>
<trkpt lat="31.7711180" lon="35.0263020">
<ele>437.100006</ele>
<time>2017-10-20T04:43:29.000Z</time>
</trkpt>
<trkpt lat="31.7711220" lon="35.0263390">
<ele>437.400024</ele>
<time>2017-10-20T04:43:32.000Z</time>
</trkpt>
<trkpt lat="31.7711220" lon="35.0263850">
<ele>437.899994</ele>
<time>2017-10-20T04:43:35.000Z</time>
</trkpt>
<trkpt lat="31.7711230" lon="35.0264230">
<ele>438.100006</ele>
<time>2017-10-20T04:43:37.000Z</time>
</trkpt>
<trkpt lat="31.7711150" lon="35.0264560">
<ele>438.299988</ele>
<time>2017-10-20T04:43:39.000Z</time>
</trkpt>
<trkpt lat="31.7711160" lon="35.0265070">
<ele>438.500000</ele>
<time>2017-10-20T04:43:42.000Z</time>
</trkpt>
<trkpt lat="31.7711120" lon="35.0265480">
<ele>438.899994</ele>
<time>2017-10-20T04:43:44.000Z</time>
</trkpt>
<trkpt lat="31.7711100" lon="35.0265880">
<ele>439.299988</ele>
<time>2017-10-20T04:43:46.000Z</time>
</trkpt>
<trkpt lat="31.7711080" lon="35.0266250">
<ele>439.499969</ele>
<time>2017-10-20T04:43:48.000Z</time>
</trkpt>
<trkpt lat="31.7711050" lon="35.0266690">
<ele>439.700012</ele>
<time>2017-10-20T04:43:51.000Z</time>
</trkpt>
<trkpt lat="31.7711010" lon="35.0267060">
<ele>439.899994</ele>
<time>2017-10-20T04:43:53.000Z</time>
</trkpt>
<trkpt lat="31.7710980" lon="35.0267390">
<ele>440.099976</ele>
<time>2017-10-20T04:43:55.000Z</time>
</trkpt>
<trkpt lat="31.7710910" lon="35.0267740">
<ele>440.300018</ele>
<time>2017-10-20T04:43:57.000Z</time>
</trkpt>
<trkpt lat="31.7710860" lon="35.0268080">
<ele>440.500000</ele>
<time>2017-10-20T04:43:59.000Z</time>
</trkpt>
<trkpt lat="31.7710760" lon="35.0268470">
<ele>440.899994</ele>
<time>2017-10-20T04:44:02.000Z</time>
</trkpt>
<trkpt lat="31.7710650" lon="35.0268820">
<ele>441.200012</ele>
<time>2017-10-20T04:44:04.000Z</time>
</trkpt>
<trkpt lat="31.7710620" lon="35.0269140">
<ele>441.399994</ele>
<time>2017-10-20T04:44:06.000Z</time>
</trkpt>
<trkpt lat="31.7710600" lon="35.0269480">
<ele>441.500000</ele>
<time>2017-10-20T04:44:08.000Z</time>
</trkpt>
<trkpt lat="31.7710680" lon="35.0269940">
<ele>441.700012</ele>
<time>2017-10-20T04:44:11.000Z</time>
</trkpt>
<trkpt lat="31.7710700" lon="35.0270390">
<ele>442.000000</ele>
<time>2017-10-20T04:44:14.000Z</time>
</trkpt>
<trkpt lat="31.7710650" lon="35.0270760">
<ele>442.100006</ele>
<time>2017-10-20T04:44:16.000Z</time>
</trkpt>
<trkpt lat="31.7710590" lon="35.0271130">
<ele>442.299988</ele>
<time>2017-10-20T04:44:19.000Z</time>
</trkpt>
<trkpt lat="31.7710550" lon="35.0271480">
<ele>442.500000</ele>
<time>2017-10-20T04:44:21.000Z</time>
</trkpt>
<trkpt lat="31.7710640" lon="35.0271950">
<ele>443.099976</ele>
<time>2017-10-20T04:44:24.000Z</time>
</trkpt>
<trkpt lat="31.7710930" lon="35.0272300">
<ele>443.399994</ele>
<time>2017-10-20T04:44:26.000Z</time>
</trkpt>
<trkpt lat="31.7711260" lon="35.0272500">
<ele>443.699982</ele>
<time>2017-10-20T04:44:29.000Z</time>
</trkpt>
<trkpt lat="31.7711560" lon="35.0272660">
<ele>444.200012</ele>
<time>2017-10-20T04:44:31.000Z</time>
</trkpt>
<trkpt lat="31.7711830" lon="35.0272710">
<ele>444.599976</ele>
<time>2017-10-20T04:44:34.000Z</time>
</trkpt>
<trkpt lat="31.7712180" lon="35.0272790">
<ele>444.800018</ele>
<time>2017-10-20T04:44:37.000Z</time>
</trkpt>
<trkpt lat="31.7712490" lon="35.0272870">
<ele>445.000000</ele>
<time>2017-10-20T04:44:40.000Z</time>
</trkpt>
<trkpt lat="31.7712770" lon="35.0273040">
<ele>445.400024</ele>
<time>2017-10-20T04:44:43.000Z</time>
</trkpt>
<trkpt lat="31.7713030" lon="35.0273220">
<ele>445.700012</ele>
<time>2017-10-20T04:44:45.000Z</time>
</trkpt>
<trkpt lat="31.7713370" lon="35.0273290">
<ele>446.399994</ele>
<time>2017-10-20T04:44:48.000Z</time>
</trkpt>
<trkpt lat="31.7713630" lon="35.0273390">
<ele>446.699982</ele>
<time>2017-10-20T04:44:55.000Z</time>
</trkpt>
<trkpt lat="31.7713880" lon="35.0273600">
<ele>446.900024</ele>
<time>2017-10-20T04:45:13.000Z</time>
</trkpt>
<trkpt lat="31.7714130" lon="35.0273710">
<ele>447.200012</ele>
<time>2017-10-20T04:45:18.000Z</time>
</trkpt>
<trkpt lat="31.7714410" lon="35.0273930">
<ele>447.700012</ele>
<time>2017-10-20T04:45:24.000Z</time>
</trkpt>
<trkpt lat="31.7714630" lon="35.0274190">
<ele>448.100006</ele>
<time>2017-10-20T04:45:29.000Z</time>
</trkpt>
<trkpt lat="31.7714850" lon="35.0274400">
<ele>448.300018</ele>
<time>2017-10-20T04:45:33.000Z</time>
</trkpt>
<trkpt lat="31.7715140" lon="35.0274640">
<ele>448.600006</ele>
<time>2017-10-20T04:45:38.000Z</time>
</trkpt>
<trkpt lat="31.7715370" lon="35.0274930">
<ele>449.000031</ele>
<time>2017-10-20T04:45:40.000Z</time>
</trkpt>
<trkpt lat="31.7715620" lon="35.0275130">
<ele>449.100006</ele>
<time>2017-10-20T04:45:44.000Z</time>
</trkpt>
<trkpt lat="31.7715660" lon="35.0275480">
<ele>449.200012</ele>
<time>2017-10-20T04:46:05.000Z</time>
</trkpt>
<trkpt lat="31.7715470" lon="35.0275820">
<ele>449.300018</ele>
<time>2017-10-20T04:46:11.000Z</time>
</trkpt>
<trkpt lat="31.7715320" lon="35.0276160">
<ele>449.399994</ele>
<time>2017-10-20T04:46:17.000Z</time>
</trkpt>
<trkpt lat="31.7715150" lon="35.0276570">
<ele>449.500000</ele>
<time>2017-10-20T04:46:20.000Z</time>
</trkpt>
<trkpt lat="31.7714990" lon="35.0276960">
<ele>449.800018</ele>
<time>2017-10-20T04:46:22.000Z</time>
</trkpt>
<trkpt lat="31.7714880" lon="35.0277270">
<ele>450.000000</ele>
<time>2017-10-20T04:46:24.000Z</time>
</trkpt>
<trkpt lat="31.7714760" lon="35.0277620">
<ele>450.100006</ele>
<time>2017-10-20T04:46:26.000Z</time>
</trkpt>
<trkpt lat="31.7714610" lon="35.0277920">
<ele>450.299988</ele>
<time>2017-10-20T04:46:28.000Z</time>
</trkpt>
<trkpt lat="31.7714400" lon="35.0278250">
<ele>450.399994</ele>
<time>2017-10-20T04:46:30.000Z</time>
</trkpt>
<trkpt lat="31.7714210" lon="35.0278530">
<ele>450.600006</ele>
<time>2017-10-20T04:46:33.000Z</time>
</trkpt>
<trkpt lat="31.7714040" lon="35.0278810">
<ele>450.700012</ele>
<time>2017-10-20T04:46:35.000Z</time>
</trkpt>
<trkpt lat="31.7713880" lon="35.0279130">
<ele>450.899994</ele>
<time>2017-10-20T04:46:37.000Z</time>
</trkpt>
<trkpt lat="31.7713670" lon="35.0279610">
<ele>451.399994</ele>
<time>2017-10-20T04:46:39.000Z</time>
</trkpt>
<trkpt lat="31.7713440" lon="35.0280130">
<ele>452.100006</ele>
<time>2017-10-20T04:46:41.000Z</time>
</trkpt>
<trkpt lat="31.7713370" lon="35.0280670">
<ele>452.699982</ele>
<time>2017-10-20T04:46:43.000Z</time>
</trkpt>
<trkpt lat="31.7713310" lon="35.0281220">
<ele>453.399994</ele>
<time>2017-10-20T04:46:45.000Z</time>
</trkpt>
<trkpt lat="31.7713240" lon="35.0281550">
<ele>453.600006</ele>
<time>2017-10-20T04:46:46.000Z</time>
</trkpt>
<trkpt lat="31.7713060" lon="35.0282090">
<ele>453.899994</ele>
<time>2017-10-20T04:46:48.000Z</time>
</trkpt>
<trkpt lat="31.7712910" lon="35.0282700">
<ele>454.099976</ele>
<time>2017-10-20T04:46:50.000Z</time>
</trkpt>
<trkpt lat="31.7712740" lon="35.0283200">
<ele>454.300018</ele>
<time>2017-10-20T04:46:52.000Z</time>
</trkpt>
<trkpt lat="31.7712570" lon="35.0283670">
<ele>454.500000</ele>
<time>2017-10-20T04:46:54.000Z</time>
</trkpt>
<trkpt lat="31.7712290" lon="35.0284180">
<ele>454.699982</ele>
<time>2017-10-20T04:46:56.000Z</time>
</trkpt>
<trkpt lat="31.7711990" lon="35.0284440">
<ele>454.799988</ele>
<time>2017-10-20T04:46:58.000Z</time>
</trkpt>
<trkpt lat="31.7711700" lon="35.0284750">
<ele>454.900024</ele>
<time>2017-10-20T04:47:00.000Z</time>
</trkpt>
<trkpt lat="31.7711420" lon="35.0285120">
<ele>455.200012</ele>
<time>2017-10-20T04:47:02.000Z</time>
</trkpt>
<trkpt lat="31.7711130" lon="35.0285470">
<ele>455.399994</ele>
<time>2017-10-20T04:47:04.000Z</time>
</trkpt>
<trkpt lat="31.7710870" lon="35.0285830">
<ele>455.599976</ele>
<time>2017-10-20T04:47:06.000Z</time>
</trkpt>
<trkpt lat="31.7710560" lon="35.0286160">
<ele>455.700012</ele>
<time>2017-10-20T04:47:08.000Z</time>
</trkpt>
<trkpt lat="31.7710310" lon="35.0286460">
<ele>455.800018</ele>
<time>2017-10-20T04:47:10.000Z</time>
</trkpt>
<trkpt lat="31.7710280" lon="35.0286920">
<ele>456.000000</ele>
<time>2017-10-20T04:47:12.000Z</time>
</trkpt>
<trkpt lat="31.7710420" lon="35.0287360">
<ele>456.100006</ele>
<time>2017-10-20T04:47:14.000Z</time>
</trkpt>
<trkpt lat="31.7710580" lon="35.0287640">
<ele>456.199982</ele>
<time>2017-10-20T04:47:15.000Z</time>
</trkpt>
<trkpt lat="31.7710880" lon="35.0288110">
<ele>456.000000</ele>
<time>2017-10-20T04:47:17.000Z</time>
</trkpt>
<trkpt lat="31.7711190" lon="35.0288430">
<ele>456.000000</ele>
<time>2017-10-20T04:47:19.000Z</time>
</trkpt>
<trkpt lat="31.7711410" lon="35.0288890">
<ele>456.000000</ele>
<time>2017-10-20T04:47:21.000Z</time>
</trkpt>
<trkpt lat="31.7711570" lon="35.0289380">
<ele>455.800018</ele>
<time>2017-10-20T04:47:23.000Z</time>
</trkpt>
<trkpt lat="31.7711670" lon="35.0289880">
<ele>455.800018</ele>
<time>2017-10-20T04:47:25.000Z</time>
</trkpt>
<trkpt lat="31.7711760" lon="35.0290360">
<ele>455.700012</ele>
<time>2017-10-20T04:47:27.000Z</time>
</trkpt>
<trkpt lat="31.7711840" lon="35.0290890">
<ele>455.800018</ele>
<time>2017-10-20T04:47:29.000Z</time>
</trkpt>
<trkpt lat="31.7711880" lon="35.0291410">
<ele>455.899994</ele>
<time>2017-10-20T04:47:31.000Z</time>
</trkpt>
<trkpt lat="31.7711950" lon="35.0291890">
<ele>456.000000</ele>
<time>2017-10-20T04:47:33.000Z</time>
</trkpt>
<trkpt lat="31.7711980" lon="35.0292390">
<ele>456.000000</ele>
<time>2017-10-20T04:47:35.000Z</time>
</trkpt>
<trkpt lat="31.7711900" lon="35.0292910">
<ele>456.000000</ele>
<time>2017-10-20T04:47:37.000Z</time>
</trkpt>
<trkpt lat="31.7711910" lon="35.0293450">
<ele>456.000000</ele>
<time>2017-10-20T04:47:39.000Z</time>
</trkpt>
<trkpt lat="31.7711940" lon="35.0293780">
<ele>456.000000</ele>
<time>2017-10-20T04:47:40.000Z</time>
</trkpt>
<trkpt lat="31.7711920" lon="35.0294250">
<ele>456.000000</ele>
<time>2017-10-20T04:47:42.000Z</time>
</trkpt>
<trkpt lat="31.7711920" lon="35.0294620">
<ele>456.000000</ele>
<time>2017-10-20T04:47:44.000Z</time>
</trkpt>
<trkpt lat="31.7711920" lon="35.0295160">
<ele>456.000000</ele>
<time>2017-10-20T04:47:46.000Z</time>
</trkpt>
<trkpt lat="31.7711840" lon="35.0295690">
<ele>456.000000</ele>
<time>2017-10-20T04:47:48.000Z</time>
</trkpt>
<trkpt lat="31.7711800" lon="35.0296050">
<ele>456.000000</ele>
<time>2017-10-20T04:47:49.000Z</time>
</trkpt>
<trkpt lat="31.7711800" lon="35.0296420">
<ele>456.000000</ele>
<time>2017-10-20T04:47:50.000Z</time>
</trkpt>
<trkpt lat="31.7711870" lon="35.0296790">
<ele>456.000000</ele>
<time>2017-10-20T04:47:51.000Z</time>
</trkpt>
<trkpt lat="31.7712070" lon="35.0297170">
<ele>456.000000</ele>
<time>2017-10-20T04:47:52.000Z</time>
</trkpt>
<trkpt lat="31.7712220" lon="35.0297520">
<ele>456.000000</ele>
<time>2017-10-20T04:47:53.000Z</time>
</trkpt>
<trkpt lat="31.7712440" lon="35.0297800">
<ele>456.000000</ele>
<time>2017-10-20T04:47:54.000Z</time>
</trkpt>
<trkpt lat="31.7712840" lon="35.0298190">
<ele>456.100006</ele>
<time>2017-10-20T04:47:56.000Z</time>
</trkpt>
<trkpt lat="31.7713210" lon="35.0298530">
<ele>456.100006</ele>
<time>2017-10-20T04:47:58.000Z</time>
</trkpt>
<trkpt lat="31.7713550" lon="35.0298810">
<ele>456.100006</ele>
<time>2017-10-20T04:48:00.000Z</time>
</trkpt>
<trkpt lat="31.7713850" lon="35.0299070">
<ele>456.100006</ele>
<time>2017-10-20T04:48:02.000Z</time>
</trkpt>
<trkpt lat="31.7714150" lon="35.0299370">
<ele>456.100006</ele>
<time>2017-10-20T04:48:04.000Z</time>
</trkpt>
<trkpt lat="31.7714410" lon="35.0299650">
<ele>456.199982</ele>
<time>2017-10-20T04:48:06.000Z</time>
</trkpt>
<trkpt lat="31.7714750" lon="35.0300120">
<ele>456.199982</ele>
<time>2017-10-20T04:48:08.000Z</time>
</trkpt>
<trkpt lat="31.7714880" lon="35.0300740">
<ele>456.299988</ele>
<time>2017-10-20T04:48:10.000Z</time>
</trkpt>
<trkpt lat="31.7714930" lon="35.0301110">
<ele>456.299988</ele>
<time>2017-10-20T04:48:11.000Z</time>
</trkpt>
<trkpt lat="31.7714990" lon="35.0301440">
<ele>456.299988</ele>
<time>2017-10-20T04:48:12.000Z</time>
</trkpt>
<trkpt lat="31.7714930" lon="35.0301790">
<ele>456.299988</ele>
<time>2017-10-20T04:48:13.000Z</time>
</trkpt>
<trkpt lat="31.7714800" lon="35.0302100">
<ele>456.400024</ele>
<time>2017-10-20T04:48:14.000Z</time>
</trkpt>
<trkpt lat="31.7714670" lon="35.0302380">
<ele>456.400024</ele>
<time>2017-10-20T04:48:15.000Z</time>
</trkpt>
<trkpt lat="31.7714560" lon="35.0302680">
<ele>456.400024</ele>
<time>2017-10-20T04:48:16.000Z</time>
</trkpt>
<trkpt lat="31.7714510" lon="35.0303040">
<ele>456.500000</ele>
<time>2017-10-20T04:48:17.000Z</time>
</trkpt>
<trkpt lat="31.7714450" lon="35.0303380">
<ele>456.500000</ele>
<time>2017-10-20T04:48:18.000Z</time>
</trkpt>
<trkpt lat="31.7714410" lon="35.0303720">
<ele>456.600006</ele>
<time>2017-10-20T04:48:19.000Z</time>
</trkpt>
<trkpt lat="31.7714480" lon="35.0304370">
<ele>456.600006</ele>
<time>2017-10-20T04:48:21.000Z</time>
</trkpt>
<trkpt lat="31.7714550" lon="35.0304690">
<ele>456.700012</ele>
<time>2017-10-20T04:48:22.000Z</time>
</trkpt>
<trkpt lat="31.7714730" lon="35.0305250">
<ele>456.700012</ele>
<time>2017-10-20T04:48:24.000Z</time>
</trkpt>
<trkpt lat="31.7714940" lon="35.0305720">
<ele>456.799988</ele>
<time>2017-10-20T04:48:26.000Z</time>
</trkpt>
<trkpt lat="31.7715240" lon="35.0306270">
<ele>456.799988</ele>
<time>2017-10-20T04:48:28.000Z</time>
</trkpt>
<trkpt lat="31.7715370" lon="35.0306630">
<ele>456.899994</ele>
<time>2017-10-20T04:48:29.000Z</time>
</trkpt>
<trkpt lat="31.7715470" lon="35.0307100">
<ele>457.000000</ele>
<time>2017-10-20T04:48:31.000Z</time>
</trkpt>
<trkpt lat="31.7715360" lon="35.0307580">
<ele>457.300018</ele>
<time>2017-10-20T04:48:33.000Z</time>
</trkpt>
<trkpt lat="31.7715180" lon="35.0307960">
<ele>457.799988</ele>
<time>2017-10-20T04:48:35.000Z</time>
</trkpt>
<trkpt lat="31.7715070" lon="35.0308290">
<ele>458.299988</ele>
<time>2017-10-20T04:48:37.000Z</time>
</trkpt>
<trkpt lat="31.7714920" lon="35.0308610">
<ele>458.800018</ele>
<time>2017-10-20T04:48:39.000Z</time>
</trkpt>
<trkpt lat="31.7714750" lon="35.0308920">
<ele>459.299988</ele>
<time>2017-10-20T04:48:41.000Z</time>
</trkpt>
<trkpt lat="31.7714580" lon="35.0309260">
<ele>459.799988</ele>
<time>2017-10-20T04:48:43.000Z</time>
</trkpt>
<trkpt lat="31.7714370" lon="35.0309680">
<ele>460.500000</ele>
<time>2017-10-20T04:48:45.000Z</time>
</trkpt>
<trkpt lat="31.7714180" lon="35.0310070">
<ele>461.000000</ele>
<time>2017-10-20T04:48:47.000Z</time>
</trkpt>
<trkpt lat="31.7714050" lon="35.0310410">
<ele>461.100006</ele>
<time>2017-10-20T04:48:49.000Z</time>
</trkpt>
<trkpt lat="31.7713890" lon="35.0310830">
<ele>461.200012</ele>
<time>2017-10-20T04:48:51.000Z</time>
</trkpt>
<trkpt lat="31.7713720" lon="35.0311310">
<ele>461.200012</ele>
<time>2017-10-20T04:48:54.000Z</time>
</trkpt>
<trkpt lat="31.7713640" lon="35.0311820">
<ele>461.200012</ele>
<time>2017-10-20T04:48:56.000Z</time>
</trkpt>
<trkpt lat="31.7713440" lon="35.0312210">
<ele>461.200012</ele>
<time>2017-10-20T04:48:58.000Z</time>
</trkpt>
<trkpt lat="31.7713220" lon="35.0312590">
<ele>461.200012</ele>
<time>2017-10-20T04:49:00.000Z</time>
</trkpt>
<trkpt lat="31.7713060" lon="35.0312960">
<ele>461.200012</ele>
<time>2017-10-20T04:49:03.000Z</time>
</trkpt>
<trkpt lat="31.7712800" lon="35.0313600">
<ele>461.100006</ele>
<time>2017-10-20T04:49:05.000Z</time>
</trkpt>
<trkpt lat="31.7712600" lon="35.0313990">
<ele>461.100006</ele>
<time>2017-10-20T04:49:06.000Z</time>
</trkpt>
<trkpt lat="31.7712430" lon="35.0314290">
<ele>461.100006</ele>
<time>2017-10-20T04:49:07.000Z</time>
</trkpt>
<trkpt lat="31.7712240" lon="35.0314550">
<ele>461.100006</ele>
<time>2017-10-20T04:49:09.000Z</time>
</trkpt>
<trkpt lat="31.7712050" lon="35.0314840">
<ele>461.000000</ele>
<time>2017-10-20T04:49:11.000Z</time>
</trkpt>
<trkpt lat="31.7711840" lon="35.0315070">
<ele>461.000000</ele>
<time>2017-10-20T04:49:13.000Z</time>
</trkpt>
<trkpt lat="31.7711610" lon="35.0315370">
<ele>461.000000</ele>
<time>2017-10-20T04:49:15.000Z</time>
</trkpt>
<trkpt lat="31.7711370" lon="35.0315700">
<ele>461.399994</ele>
<time>2017-10-20T04:49:18.000Z</time>
</trkpt>
<trkpt lat="31.7711160" lon="35.0316040">
<ele>461.899994</ele>
<time>2017-10-20T04:49:20.000Z</time>
</trkpt>
<trkpt lat="31.7710950" lon="35.0316230">
<ele>462.400024</ele>
<time>2017-10-20T04:49:21.000Z</time>
</trkpt>
<trkpt lat="31.7710710" lon="35.0316640">
<ele>463.200012</ele>
<time>2017-10-20T04:49:23.000Z</time>
</trkpt>
<trkpt lat="31.7710480" lon="35.0316970">
<ele>463.699982</ele>
<time>2017-10-20T04:49:25.000Z</time>
</trkpt>
<trkpt lat="31.7710200" lon="35.0317180">
<ele>464.199982</ele>
<time>2017-10-20T04:49:27.000Z</time>
</trkpt>
<trkpt lat="31.7709950" lon="35.0317340">
<ele>464.600006</ele>
<time>2017-10-20T04:49:29.000Z</time>
</trkpt>
<trkpt lat="31.7709670" lon="35.0317500">
<ele>465.199982</ele>
<time>2017-10-20T04:49:32.000Z</time>
</trkpt>
<trkpt lat="31.7709430" lon="35.0317800">
<ele>465.699982</ele>
<time>2017-10-20T04:49:34.000Z</time>
</trkpt>
<trkpt lat="31.7709160" lon="35.0318160">
<ele>466.200012</ele>
<time>2017-10-20T04:49:37.000Z</time>
</trkpt>
<trkpt lat="31.7708920" lon="35.0318480">
<ele>466.699982</ele>
<time>2017-10-20T04:49:39.000Z</time>
</trkpt>
<trkpt lat="31.7708710" lon="35.0318700">
<ele>467.100006</ele>
<time>2017-10-20T04:49:42.000Z</time>
</trkpt>
<trkpt lat="31.7708480" lon="35.0318910">
<ele>467.400024</ele>
<time>2017-10-20T04:49:44.000Z</time>
</trkpt>
<trkpt lat="31.7708110" lon="35.0319160">
<ele>467.700012</ele>
<time>2017-10-20T04:49:46.000Z</time>
</trkpt>
<trkpt lat="31.7707830" lon="35.0319430">
<ele>467.899994</ele>
<time>2017-10-20T04:49:48.000Z</time>
</trkpt>
<trkpt lat="31.7707530" lon="35.0319630">
<ele>468.099976</ele>
<time>2017-10-20T04:49:51.000Z</time>
</trkpt>
<trkpt lat="31.7707200" lon="35.0319850">
<ele>468.300018</ele>
<time>2017-10-20T04:49:54.000Z</time>
</trkpt>
<trkpt lat="31.7706930" lon="35.0320120">
<ele>468.799988</ele>
<time>2017-10-20T04:49:57.000Z</time>
</trkpt>
<trkpt lat="31.7706710" lon="35.0320370">
<ele>469.200012</ele>
<time>2017-10-20T04:50:00.000Z</time>
</trkpt>
<trkpt lat="31.7706490" lon="35.0320600">
<ele>469.599976</ele>
<time>2017-10-20T04:50:03.000Z</time>
</trkpt>
<trkpt lat="31.7706200" lon="35.0320830">
<ele>470.000000</ele>
<time>2017-10-20T04:50:05.000Z</time>
</trkpt>
<trkpt lat="31.7705980" lon="35.0321040">
<ele>470.199982</ele>
<time>2017-10-20T04:50:08.000Z</time>
</trkpt>
<trkpt lat="31.7705790" lon="35.0321370">
<ele>470.299988</ele>
<time>2017-10-20T04:50:10.000Z</time>
</trkpt>
<trkpt lat="31.7705460" lon="35.0321730">
<ele>470.600006</ele>
<time>2017-10-20T04:50:12.000Z</time>
</trkpt>
<trkpt lat="31.7705170" lon="35.0322050">
<ele>470.799988</ele>
<time>2017-10-20T04:50:15.000Z</time>
</trkpt>
<trkpt lat="31.7704790" lon="35.0322320">
<ele>471.300018</ele>
<time>2017-10-20T04:50:18.000Z</time>
</trkpt>
<trkpt lat="31.7704360" lon="35.0322690">
<ele>472.000000</ele>
<time>2017-10-20T04:50:20.000Z</time>
</trkpt>
<trkpt lat="31.7704120" lon="35.0322890">
<ele>472.299988</ele>
<time>2017-10-20T04:50:21.000Z</time>
</trkpt>
<trkpt lat="31.7703850" lon="35.0323080">
<ele>472.500000</ele>
<time>2017-10-20T04:50:22.000Z</time>
</trkpt>
<trkpt lat="31.7703550" lon="35.0323370">
<ele>472.899994</ele>
<time>2017-10-20T04:50:24.000Z</time>
</trkpt>
<trkpt lat="31.7703330" lon="35.0323610">
<ele>473.199982</ele>
<time>2017-10-20T04:50:26.000Z</time>
</trkpt>
<trkpt lat="31.7703040" lon="35.0323700">
<ele>473.600006</ele>
<time>2017-10-20T04:50:28.000Z</time>
</trkpt>
<trkpt lat="31.7702710" lon="35.0323790">
<ele>474.100006</ele>
<time>2017-10-20T04:50:31.000Z</time>
</trkpt>
<trkpt lat="31.7702470" lon="35.0323970">
<ele>474.600006</ele>
<time>2017-10-20T04:50:33.000Z</time>
</trkpt>
<trkpt lat="31.7702160" lon="35.0324150">
<ele>475.000000</ele>
<time>2017-10-20T04:50:36.000Z</time>
</trkpt>
<trkpt lat="31.7701890" lon="35.0324350">
<ele>475.299988</ele>
<time>2017-10-20T04:50:40.000Z</time>
</trkpt>
<trkpt lat="31.7701610" lon="35.0324590">
<ele>475.500031</ele>
<time>2017-10-20T04:50:44.000Z</time>
</trkpt>
<trkpt lat="31.7701420" lon="35.0324860">
<ele>475.899994</ele>
<time>2017-10-20T04:50:48.000Z</time>
</trkpt>
<trkpt lat="31.7701310" lon="35.0325220">
<ele>476.399994</ele>
<time>2017-10-20T04:50:51.000Z</time>
</trkpt>
<trkpt lat="31.7701180" lon="35.0325560">
<ele>476.899994</ele>
<time>2017-10-20T04:50:56.000Z</time>
</trkpt>
<trkpt lat="31.7701170" lon="35.0325940">
<ele>477.100006</ele>
<time>2017-10-20T04:50:59.000Z</time>
</trkpt>
<trkpt lat="31.7701070" lon="35.0326230">
<ele>477.200012</ele>
<time>2017-10-20T04:51:02.000Z</time>
</trkpt>
<trkpt lat="31.7700980" lon="35.0326550">
<ele>477.399994</ele>
<time>2017-10-20T04:51:04.000Z</time>
</trkpt>
<trkpt lat="31.7700850" lon="35.0327000">
<ele>477.599976</ele>
<time>2017-10-20T04:51:06.000Z</time>
</trkpt>
<trkpt lat="31.7700820" lon="35.0327540">
<ele>477.899994</ele>
<time>2017-10-20T04:51:08.000Z</time>
</trkpt>
<trkpt lat="31.7700790" lon="35.0328010">
<ele>478.100006</ele>
<time>2017-10-20T04:51:11.000Z</time>
</trkpt>
<trkpt lat="31.7700970" lon="35.0328500">
<ele>478.399994</ele>
<time>2017-10-20T04:51:15.000Z</time>
</trkpt>
<trkpt lat="31.7701110" lon="35.0328800">
<ele>478.799988</ele>
<time>2017-10-20T04:51:19.000Z</time>
</trkpt>
<trkpt lat="31.7701140" lon="35.0329180">
<ele>479.300018</ele>
<time>2017-10-20T04:51:22.000Z</time>
</trkpt>
<trkpt lat="31.7701200" lon="35.0329510">
<ele>479.600006</ele>
<time>2017-10-20T04:51:25.000Z</time>
</trkpt>
<trkpt lat="31.7701310" lon="35.0329980">
<ele>479.799988</ele>
<time>2017-10-20T04:51:28.000Z</time>
</trkpt>
<trkpt lat="31.7701440" lon="35.0330290">
<ele>480.000000</ele>
<time>2017-10-20T04:51:30.000Z</time>
</trkpt>
<trkpt lat="31.7701550" lon="35.0330750">
<ele>480.399994</ele>
<time>2017-10-20T04:51:32.000Z</time>
</trkpt>
<trkpt lat="31.7701650" lon="35.0331210">
<ele>480.899994</ele>
<time>2017-10-20T04:51:34.000Z</time>
</trkpt>
<trkpt lat="31.7701660" lon="35.0331680">
<ele>481.500000</ele>
<time>2017-10-20T04:51:36.000Z</time>
</trkpt>
<trkpt lat="31.7701680" lon="35.0332080">
<ele>481.799988</ele>
<time>2017-10-20T04:51:38.000Z</time>
</trkpt>
<trkpt lat="31.7701840" lon="35.0332410">
<ele>481.899994</ele>
<time>2017-10-20T04:51:41.000Z</time>
</trkpt>
<trkpt lat="31.7701850" lon="35.0332960">
<ele>482.200012</ele>
<time>2017-10-20T04:51:42.000Z</time>
</trkpt>
<trkpt lat="31.7701980" lon="35.0333270">
<ele>482.300018</ele>
<time>2017-10-20T04:51:46.000Z</time>
</trkpt>
<trkpt lat="31.7702070" lon="35.0333590">
<ele>482.500000</ele>
<time>2017-10-20T04:51:49.000Z</time>
</trkpt>
<trkpt lat="31.7702270" lon="35.0334040">
<ele>482.799988</ele>
<time>2017-10-20T04:51:52.000Z</time>
</trkpt>
<trkpt lat="31.7702310" lon="35.0334460">
<ele>483.299988</ele>
<time>2017-10-20T04:51:54.000Z</time>
</trkpt>
<trkpt lat="31.7702340" lon="35.0334840">
<ele>483.700012</ele>
<time>2017-10-20T04:51:56.000Z</time>
</trkpt>
<trkpt lat="31.7702480" lon="35.0335140">
<ele>484.100006</ele>
<time>2017-10-20T04:51:58.000Z</time>
</trkpt>
<trkpt lat="31.7702660" lon="35.0335510">
<ele>484.299988</ele>
<time>2017-10-20T04:52:01.000Z</time>
</trkpt>
<trkpt lat="31.7702700" lon="35.0335850">
<ele>484.500000</ele>
<time>2017-10-20T04:52:03.000Z</time>
</trkpt>
<trkpt lat="31.7702720" lon="35.0336230">
<ele>484.600006</ele>
<time>2017-10-20T04:52:05.000Z</time>
</trkpt>
<trkpt lat="31.7702910" lon="35.0336480">
<ele>484.700012</ele>
<time>2017-10-20T04:52:07.000Z</time>
</trkpt>
<trkpt lat="31.7702980" lon="35.0336790">
<ele>484.899994</ele>
<time>2017-10-20T04:52:08.000Z</time>
</trkpt>
<trkpt lat="31.7703150" lon="35.0337160">
<ele>485.099976</ele>
<time>2017-10-20T04:52:10.000Z</time>
</trkpt>
<trkpt lat="31.7703360" lon="35.0337490">
<ele>485.500000</ele>
<time>2017-10-20T04:52:12.000Z</time>
</trkpt>
<trkpt lat="31.7703560" lon="35.0337850">
<ele>486.000000</ele>
<time>2017-10-20T04:52:14.000Z</time>
</trkpt>
<trkpt lat="31.7703690" lon="35.0338190">
<ele>486.299988</ele>
<time>2017-10-20T04:52:15.000Z</time>
</trkpt>
<trkpt lat="31.7703840" lon="35.0338570">
<ele>486.500031</ele>
<time>2017-10-20T04:52:17.000Z</time>
</trkpt>
<trkpt lat="31.7703920" lon="35.0338930">
<ele>486.600006</ele>
<time>2017-10-20T04:52:19.000Z</time>
</trkpt>
<trkpt lat="31.7704030" lon="35.0339350">
<ele>486.800018</ele>
<time>2017-10-20T04:52:22.000Z</time>
</trkpt>
<trkpt lat="31.7704080" lon="35.0339710">
<ele>487.000000</ele>
<time>2017-10-20T04:52:24.000Z</time>
</trkpt>
<trkpt lat="31.7704160" lon="35.0340050">
<ele>487.100006</ele>
<time>2017-10-20T04:52:26.000Z</time>
</trkpt>
<trkpt lat="31.7704190" lon="35.0340480">
<ele>487.400024</ele>
<time>2017-10-20T04:52:29.000Z</time>
</trkpt>
<trkpt lat="31.7704250" lon="35.0340870">
<ele>487.899994</ele>
<time>2017-10-20T04:52:31.000Z</time>
</trkpt>
<trkpt lat="31.7704350" lon="35.0341280">
<ele>488.399994</ele>
<time>2017-10-20T04:52:33.000Z</time>
</trkpt>
<trkpt lat="31.7704270" lon="35.0341810">
<ele>489.000000</ele>
<time>2017-10-20T04:52:36.000Z</time>
</trkpt>
<trkpt lat="31.7704340" lon="35.0342140">
<ele>489.199982</ele>
<time>2017-10-20T04:52:39.000Z</time>
</trkpt>
<trkpt lat="31.7704220" lon="35.0342470">
<ele>489.499969</ele>
<time>2017-10-20T04:52:41.000Z</time>
</trkpt>
<trkpt lat="31.7704280" lon="35.0342830">
<ele>489.700012</ele>
<time>2017-10-20T04:52:44.000Z</time>
</trkpt>
<trkpt lat="31.7704340" lon="35.0343270">
<ele>490.099976</ele>
<time>2017-10-20T04:52:45.000Z</time>
</trkpt>
<trkpt lat="31.7704480" lon="35.0343630">
<ele>490.600006</ele>
<time>2017-10-20T04:52:47.000Z</time>
</trkpt>
<trkpt lat="31.7704580" lon="35.0343940">
<ele>490.999969</ele>
<time>2017-10-20T04:52:52.000Z</time>
</trkpt>
<trkpt lat="31.7704680" lon="35.0344270">
<ele>491.399994</ele>
<time>2017-10-20T04:52:55.000Z</time>
</trkpt>
<trkpt lat="31.7704600" lon="35.0344620">
<ele>491.599976</ele>
<time>2017-10-20T04:52:58.000Z</time>
</trkpt>
<trkpt lat="31.7704580" lon="35.0344950">
<ele>491.800018</ele>
<time>2017-10-20T04:53:00.000Z</time>
</trkpt>
<trkpt lat="31.7704590" lon="35.0345270">
<ele>492.000000</ele>
<time>2017-10-20T04:53:03.000Z</time>
</trkpt>
<trkpt lat="31.7704510" lon="35.0345690">
<ele>492.299988</ele>
<time>2017-10-20T04:53:06.000Z</time>
</trkpt>
<trkpt lat="31.7704380" lon="35.0346040">
<ele>492.600006</ele>
<time>2017-10-20T04:53:08.000Z</time>
</trkpt>
<trkpt lat="31.7704200" lon="35.0346410">
<ele>493.200012</ele>
<time>2017-10-20T04:53:10.000Z</time>
</trkpt>
<trkpt lat="31.7704150" lon="35.0346810">
<ele>493.900024</ele>
<time>2017-10-20T04:53:12.000Z</time>
</trkpt>
<trkpt lat="31.7704310" lon="35.0347220">
<ele>494.200012</ele>
<time>2017-10-20T04:53:14.000Z</time>
</trkpt>
<trkpt lat="31.7704230" lon="35.0347910">
<ele>494.599976</ele>
<time>2017-10-20T04:53:16.000Z</time>
</trkpt>
<trkpt lat="31.7704120" lon="35.0348250">
<ele>494.899994</ele>
<time>2017-10-20T04:53:17.000Z</time>
</trkpt>
<trkpt lat="31.7704010" lon="35.0348590">
<ele>495.199982</ele>
<time>2017-10-20T04:53:18.000Z</time>
</trkpt>
<trkpt lat="31.7703930" lon="35.0348960">
<ele>495.799988</ele>
<time>2017-10-20T04:53:20.000Z</time>
</trkpt>
<trkpt lat="31.7703830" lon="35.0349320">
<ele>496.099976</ele>
<time>2017-10-20T04:53:23.000Z</time>
</trkpt>
<trkpt lat="31.7703640" lon="35.0349680">
<ele>496.300018</ele>
<time>2017-10-20T04:53:26.000Z</time>
</trkpt>
<trkpt lat="31.7703460" lon="35.0350080">
<ele>496.600006</ele>
<time>2017-10-20T04:53:29.000Z</time>
</trkpt>
<trkpt lat="31.7703410" lon="35.0350530">
<ele>496.900024</ele>
<time>2017-10-20T04:53:32.000Z</time>
</trkpt>
<trkpt lat="31.7703300" lon="35.0350890">
<ele>497.100006</ele>
<time>2017-10-20T04:53:35.000Z</time>
</trkpt>
<trkpt lat="31.7703120" lon="35.0351400">
<ele>497.700012</ele>
<time>2017-10-20T04:53:37.000Z</time>
</trkpt>
<trkpt lat="31.7703000" lon="35.0351710">
<ele>498.199982</ele>
<time>2017-10-20T04:53:40.000Z</time>
</trkpt>
<trkpt lat="31.7702900" lon="35.0352050">
<ele>498.600006</ele>
<time>2017-10-20T04:53:43.000Z</time>
</trkpt>
<trkpt lat="31.7702830" lon="35.0352440">
<ele>498.899994</ele>
<time>2017-10-20T04:53:46.000Z</time>
</trkpt>
<trkpt lat="31.7702720" lon="35.0352800">
<ele>499.200012</ele>
<time>2017-10-20T04:53:48.000Z</time>
</trkpt>
<trkpt lat="31.7702630" lon="35.0353190">
<ele>499.500000</ele>
<time>2017-10-20T04:53:52.000Z</time>
</trkpt>
<trkpt lat="31.7702520" lon="35.0353600">
<ele>499.900024</ele>
<time>2017-10-20T04:53:55.000Z</time>
</trkpt>
<trkpt lat="31.7702520" lon="35.0353990">
<ele>500.600006</ele>
<time>2017-10-20T04:53:57.000Z</time>
</trkpt>
<trkpt lat="31.7702380" lon="35.0354310">
<ele>501.100006</ele>
<time>2017-10-20T04:54:00.000Z</time>
</trkpt>
<trkpt lat="31.7702280" lon="35.0354640">
<ele>501.400024</ele>
<time>2017-10-20T04:54:02.000Z</time>
</trkpt>
<trkpt lat="31.7702220" lon="35.0355000">
<ele>501.699982</ele>
<time>2017-10-20T04:54:04.000Z</time>
</trkpt>
<trkpt lat="31.7702130" lon="35.0355460">
<ele>502.399994</ele>
<time>2017-10-20T04:54:06.000Z</time>
</trkpt>
<trkpt lat="31.7702060" lon="35.0355860">
<ele>503.000000</ele>
<time>2017-10-20T04:54:08.000Z</time>
</trkpt>
<trkpt lat="31.7702100" lon="35.0356230">
<ele>503.199982</ele>
<time>2017-10-20T04:54:11.000Z</time>
</trkpt>
<trkpt lat="31.7702070" lon="35.0356720">
<ele>503.499969</ele>
<time>2017-10-20T04:54:14.000Z</time>
</trkpt>
<trkpt lat="31.7702190" lon="35.0357130">
<ele>503.700012</ele>
<time>2017-10-20T04:54:17.000Z</time>
</trkpt>
<trkpt lat="31.7702260" lon="35.0357540">
<ele>503.899994</ele>
<time>2017-10-20T04:54:19.000Z</time>
</trkpt>
<trkpt lat="31.7702280" lon="35.0357970">
<ele>504.099976</ele>
<time>2017-10-20T04:54:22.000Z</time>
</trkpt>
<trkpt lat="31.7702320" lon="35.0358350">
<ele>504.300018</ele>
<time>2017-10-20T04:54:24.000Z</time>
</trkpt>
<trkpt lat="31.7702410" lon="35.0358780">
<ele>504.799988</ele>
<time>2017-10-20T04:54:26.000Z</time>
</trkpt>
<trkpt lat="31.7702420" lon="35.0359280">
<ele>505.399994</ele>
<time>2017-10-20T04:54:28.000Z</time>
</trkpt>
<trkpt lat="31.7702430" lon="35.0359660">
<ele>505.599976</ele>
<time>2017-10-20T04:54:31.000Z</time>
</trkpt>
<trkpt lat="31.7702310" lon="35.0360080">
<ele>505.899994</ele>
<time>2017-10-20T04:54:35.000Z</time>
</trkpt>
<trkpt lat="31.7702280" lon="35.0360550">
<ele>506.100006</ele>
<time>2017-10-20T04:54:38.000Z</time>
</trkpt>
<trkpt lat="31.7702260" lon="35.0360890">
<ele>506.400024</ele>
<time>2017-10-20T04:54:40.000Z</time>
</trkpt>
<trkpt lat="31.7702150" lon="35.0361260">
<ele>506.700012</ele>
<time>2017-10-20T04:54:42.000Z</time>
</trkpt>
<trkpt lat="31.7702130" lon="35.0361700">
<ele>507.300018</ele>
<time>2017-10-20T04:54:45.000Z</time>
</trkpt>
<trkpt lat="31.7702070" lon="35.0362020">
<ele>507.699982</ele>
<time>2017-10-20T04:54:47.000Z</time>
</trkpt>
<trkpt lat="31.7702060" lon="35.0362470">
<ele>508.100006</ele>
<time>2017-10-20T04:54:51.000Z</time>
</trkpt>
<trkpt lat="31.7702030" lon="35.0362790">
<ele>508.299988</ele>
<time>2017-10-20T04:54:53.000Z</time>
</trkpt>
<trkpt lat="31.7702000" lon="35.0363170">
<ele>508.500000</ele>
<time>2017-10-20T04:54:56.000Z</time>
</trkpt>
<trkpt lat="31.7702010" lon="35.0363690">
<ele>508.899994</ele>
<time>2017-10-20T04:54:59.000Z</time>
</trkpt>
<trkpt lat="31.7702050" lon="35.0364030">
<ele>509.299988</ele>
<time>2017-10-20T04:55:02.000Z</time>
</trkpt>
<trkpt lat="31.7702170" lon="35.0364490">
<ele>509.899994</ele>
<time>2017-10-20T04:55:05.000Z</time>
</trkpt>
<trkpt lat="31.7702180" lon="35.0364860">
<ele>510.399994</ele>
<time>2017-10-20T04:55:07.000Z</time>
</trkpt>
<trkpt lat="31.7702320" lon="35.0365300">
<ele>510.600006</ele>
<time>2017-10-20T04:55:10.000Z</time>
</trkpt>
<trkpt lat="31.7702380" lon="35.0365710">
<ele>510.799988</ele>
<time>2017-10-20T04:55:12.000Z</time>
</trkpt>
<trkpt lat="31.7702360" lon="35.0366180">
<ele>511.000000</ele>
<time>2017-10-20T04:55:14.000Z</time>
</trkpt>
<trkpt lat="31.7702390" lon="35.0366880">
<ele>511.500031</ele>
<time>2017-10-20T04:55:16.000Z</time>
</trkpt>
<trkpt lat="31.7702430" lon="35.0367230">
<ele>511.899994</ele>
<time>2017-10-20T04:55:17.000Z</time>
</trkpt>
<trkpt lat="31.7702340" lon="35.0367540">
<ele>512.100037</ele>
<time>2017-10-20T04:55:18.000Z</time>
</trkpt>
<trkpt lat="31.7702140" lon="35.0367860">
<ele>512.500000</ele>
<time>2017-10-20T04:55:20.000Z</time>
</trkpt>
<trkpt lat="31.7702180" lon="35.0368210">
<ele>512.900024</ele>
<time>2017-10-20T04:55:22.000Z</time>
</trkpt>
<trkpt lat="31.7702270" lon="35.0368680">
<ele>513.099976</ele>
<time>2017-10-20T04:55:25.000Z</time>
</trkpt>
<trkpt lat="31.7702110" lon="35.0369200">
<ele>513.200012</ele>
<time>2017-10-20T04:55:28.000Z</time>
</trkpt>
<trkpt lat="31.7701950" lon="35.0369560">
<ele>513.399963</ele>
<time>2017-10-20T04:55:31.000Z</time>
</trkpt>
<trkpt lat="31.7701650" lon="35.0369890">
<ele>513.500000</ele>
<time>2017-10-20T04:55:33.000Z</time>
</trkpt>
<trkpt lat="31.7701530" lon="35.0370270">
<ele>513.700012</ele>
<time>2017-10-20T04:55:34.000Z</time>
</trkpt>
<trkpt lat="31.7701420" lon="35.0370570">
<ele>513.799988</ele>
<time>2017-10-20T04:55:36.000Z</time>
</trkpt>
<trkpt lat="31.7701110" lon="35.0371030">
<ele>514.099976</ele>
<time>2017-10-20T04:55:39.000Z</time>
</trkpt>
<trkpt lat="31.7700810" lon="35.0371530">
<ele>514.599976</ele>
<time>2017-10-20T04:55:41.000Z</time>
</trkpt>
<trkpt lat="31.7700570" lon="35.0371860">
<ele>515.000000</ele>
<time>2017-10-20T04:55:42.000Z</time>
</trkpt>
<trkpt lat="31.7700330" lon="35.0372110">
<ele>515.399963</ele>
<time>2017-10-20T04:55:43.000Z</time>
</trkpt>
<trkpt lat="31.7699960" lon="35.0372470">
<ele>515.700012</ele>
<time>2017-10-20T04:55:44.000Z</time>
</trkpt>
<trkpt lat="31.7699700" lon="35.0372800">
<ele>515.900024</ele>
<time>2017-10-20T04:55:45.000Z</time>
</trkpt>
<trkpt lat="31.7699490" lon="35.0373050">
<ele>516.200012</ele>
<time>2017-10-20T04:55:47.000Z</time>
</trkpt>
<trkpt lat="31.7699230" lon="35.0373270">
<ele>516.500000</ele>
<time>2017-10-20T04:55:49.000Z</time>
</trkpt>
<trkpt lat="31.7698820" lon="35.0373490">
<ele>517.000000</ele>
<time>2017-10-20T04:55:52.000Z</time>
</trkpt>
<trkpt lat="31.7698520" lon="35.0373760">
<ele>517.299988</ele>
<time>2017-10-20T04:55:54.000Z</time>
</trkpt>
<trkpt lat="31.7698250" lon="35.0374010">
<ele>517.500000</ele>
<time>2017-10-20T04:55:56.000Z</time>
</trkpt>
<trkpt lat="31.7697980" lon="35.0374310">
<ele>517.700012</ele>
<time>2017-10-20T04:55:59.000Z</time>
</trkpt>
<trkpt lat="31.7697640" lon="35.0374540">
<ele>518.099976</ele>
<time>2017-10-20T04:56:02.000Z</time>
</trkpt>
<trkpt lat="31.7697360" lon="35.0374760">
<ele>518.500000</ele>
<time>2017-10-20T04:56:05.000Z</time>
</trkpt>
<trkpt lat="31.7697070" lon="35.0374940">
<ele>519.000000</ele>
<time>2017-10-20T04:56:07.000Z</time>
</trkpt>
<trkpt lat="31.7696820" lon="35.0375150">
<ele>519.299988</ele>
<time>2017-10-20T04:56:09.000Z</time>
</trkpt>
<trkpt lat="31.7696630" lon="35.0375460">
<ele>519.500000</ele>
<time>2017-10-20T04:56:11.000Z</time>
</trkpt>
<trkpt lat="31.7696410" lon="35.0375790">
<ele>519.599976</ele>
<time>2017-10-20T04:56:14.000Z</time>
</trkpt>
<trkpt lat="31.7696230" lon="35.0376110">
<ele>519.799988</ele>
<time>2017-10-20T04:56:17.000Z</time>
</trkpt>
<trkpt lat="31.7696070" lon="35.0376640">
<ele>520.000000</ele>
<time>2017-10-20T04:56:19.000Z</time>
</trkpt>
<trkpt lat="31.7696000" lon="35.0376960">
<ele>520.299988</ele>
<time>2017-10-20T04:56:20.000Z</time>
</trkpt>
<trkpt lat="31.7695910" lon="35.0377290">
<ele>520.799988</ele>
<time>2017-10-20T04:56:24.000Z</time>
</trkpt>
<trkpt lat="31.7695900" lon="35.0377730">
<ele>521.200012</ele>
<time>2017-10-20T04:56:28.000Z</time>
</trkpt>
<trkpt lat="31.7695930" lon="35.0378120">
<ele>521.600037</ele>
<time>2017-10-20T04:56:30.000Z</time>
</trkpt>
<trkpt lat="31.7695870" lon="35.0378480">
<ele>521.799988</ele>
<time>2017-10-20T04:56:32.000Z</time>
</trkpt>
<trkpt lat="31.7695860" lon="35.0378870">
<ele>522.099976</ele>
<time>2017-10-20T04:56:35.000Z</time>
</trkpt>
<trkpt lat="31.7695880" lon="35.0379180">
<ele>522.299988</ele>
<time>2017-10-20T04:56:37.000Z</time>
</trkpt>
<trkpt lat="31.7695980" lon="35.0379550">
<ele>522.700012</ele>
<time>2017-10-20T04:56:39.000Z</time>
</trkpt>
<trkpt lat="31.7695990" lon="35.0379920">
<ele>523.100037</ele>
<time>2017-10-20T04:56:41.000Z</time>
</trkpt>
<trkpt lat="31.7696030" lon="35.0380240">
<ele>523.500000</ele>
<time>2017-10-20T04:56:43.000Z</time>
</trkpt>
<trkpt lat="31.7696070" lon="35.0380600">
<ele>523.599976</ele>
<time>2017-10-20T04:56:45.000Z</time>
</trkpt>
<trkpt lat="31.7696110" lon="35.0380920">
<ele>523.799988</ele>
<time>2017-10-20T04:56:47.000Z</time>
</trkpt>
<trkpt lat="31.7696210" lon="35.0381300">
<ele>523.900024</ele>
<time>2017-10-20T04:56:50.000Z</time>
</trkpt>
<trkpt lat="31.7696260" lon="35.0381620">
<ele>524.099976</ele>
<time>2017-10-20T04:56:53.000Z</time>
</trkpt>
<trkpt lat="31.7696270" lon="35.0382070">
<ele>524.600037</ele>
<time>2017-10-20T04:56:57.000Z</time>
</trkpt>
<trkpt lat="31.7696290" lon="35.0382430">
<ele>525.099976</ele>
<time>2017-10-20T04:56:59.000Z</time>
</trkpt>
<trkpt lat="31.7696380" lon="35.0382770">
<ele>525.599976</ele>
<time>2017-10-20T04:57:03.000Z</time>
</trkpt>
<trkpt lat="31.7696460" lon="35.0383150">
<ele>526.000000</ele>
<time>2017-10-20T04:57:07.000Z</time>
</trkpt>
<trkpt lat="31.7696530" lon="35.0383470">
<ele>526.200012</ele>
<time>2017-10-20T04:57:10.000Z</time>
</trkpt>
<trkpt lat="31.7696390" lon="35.0383860">
<ele>526.599976</ele>
<time>2017-10-20T04:57:13.000Z</time>
</trkpt>
<trkpt lat="31.7696610" lon="35.0384090">
<ele>526.900024</ele>
<time>2017-10-20T04:57:17.000Z</time>
</trkpt>
<trkpt lat="31.7696760" lon="35.0384360">
<ele>527.299988</ele>
<time>2017-10-20T04:57:19.000Z</time>
</trkpt>
<trkpt lat="31.7696930" lon="35.0385070">
<ele>527.899963</ele>
<time>2017-10-20T04:57:21.000Z</time>
</trkpt>
<trkpt lat="31.7697070" lon="35.0385450">
<ele>528.100037</ele>
<time>2017-10-20T04:57:22.000Z</time>
</trkpt>
<trkpt lat="31.7697170" lon="35.0385820">
<ele>528.299988</ele>
<time>2017-10-20T04:57:23.000Z</time>
</trkpt>
<trkpt lat="31.7697220" lon="35.0386260">
<ele>528.599976</ele>
<time>2017-10-20T04:57:25.000Z</time>
</trkpt>
<trkpt lat="31.7697330" lon="35.0386660">
<ele>529.000000</ele>
<time>2017-10-20T04:57:28.000Z</time>
</trkpt>
<trkpt lat="31.7697280" lon="35.0387010">
<ele>529.500000</ele>
<time>2017-10-20T04:57:30.000Z</time>
</trkpt>
<trkpt lat="31.7697140" lon="35.0387400">
<ele>529.900024</ele>
<time>2017-10-20T04:57:31.000Z</time>
</trkpt>
<trkpt lat="31.7697030" lon="35.0387700">
<ele>530.099976</ele>
<time>2017-10-20T04:57:33.000Z</time>
</trkpt>
<trkpt lat="31.7697030" lon="35.0388090">
<ele>530.299988</ele>
<time>2017-10-20T04:57:35.000Z</time>
</trkpt>
<trkpt lat="31.7696990" lon="35.0388530">
<ele>530.599976</ele>
<time>2017-10-20T04:57:37.000Z</time>
</trkpt>
<trkpt lat="31.7696970" lon="35.0388860">
<ele>531.000000</ele>
<time>2017-10-20T04:57:39.000Z</time>
</trkpt>
<trkpt lat="31.7697060" lon="35.0389240">
<ele>531.500000</ele>
<time>2017-10-20T04:57:41.000Z</time>
</trkpt>
<trkpt lat="31.7697170" lon="35.0389540">
<ele>531.900024</ele>
<time>2017-10-20T04:57:44.000Z</time>
</trkpt>
<trkpt lat="31.7697300" lon="35.0389960">
<ele>532.200012</ele>
<time>2017-10-20T04:57:47.000Z</time>
</trkpt>
<trkpt lat="31.7697460" lon="35.0390370">
<ele>532.500000</ele>
<time>2017-10-20T04:57:50.000Z</time>
</trkpt>
<trkpt lat="31.7697590" lon="35.0390760">
<ele>533.000000</ele>
<time>2017-10-20T04:57:53.000Z</time>
</trkpt>
<trkpt lat="31.7697730" lon="35.0391260">
<ele>533.700012</ele>
<time>2017-10-20T04:57:56.000Z</time>
</trkpt>
<trkpt lat="31.7697780" lon="35.0391610">
<ele>533.899963</ele>
<time>2017-10-20T04:58:00.000Z</time>
</trkpt>
<trkpt lat="31.7697830" lon="35.0391920">
<ele>534.100037</ele>
<time>2017-10-20T04:58:03.000Z</time>
</trkpt>
<trkpt lat="31.7697920" lon="35.0392330">
<ele>534.400024</ele>
<time>2017-10-20T04:58:08.000Z</time>
</trkpt>
<trkpt lat="31.7698010" lon="35.0392670">
<ele>534.599976</ele>
<time>2017-10-20T04:58:11.000Z</time>
</trkpt>
<trkpt lat="31.7698120" lon="35.0393010">
<ele>534.799988</ele>
<time>2017-10-20T04:58:13.000Z</time>
</trkpt>
<trkpt lat="31.7698250" lon="35.0393400">
<ele>535.200012</ele>
<time>2017-10-20T04:58:15.000Z</time>
</trkpt>
<trkpt lat="31.7698450" lon="35.0393780">
<ele>535.700012</ele>
<time>2017-10-20T04:58:18.000Z</time>
</trkpt>
<trkpt lat="31.7698680" lon="35.0394280">
<ele>536.099976</ele>
<time>2017-10-20T04:58:20.000Z</time>
</trkpt>
<trkpt lat="31.7698850" lon="35.0394620">
<ele>536.299988</ele>
<time>2017-10-20T04:58:21.000Z</time>
</trkpt>
<trkpt lat="31.7698990" lon="35.0394980">
<ele>536.500000</ele>
<time>2017-10-20T04:58:22.000Z</time>
</trkpt>
<trkpt lat="31.7699150" lon="35.0395440">
<ele>536.799988</ele>
<time>2017-10-20T04:58:24.000Z</time>
</trkpt>
<trkpt lat="31.7699300" lon="35.0395830">
<ele>537.000000</ele>
<time>2017-10-20T04:58:28.000Z</time>
</trkpt>
<trkpt lat="31.7699430" lon="35.0396140">
<ele>537.400024</ele>
<time>2017-10-20T04:58:30.000Z</time>
</trkpt>
<trkpt lat="31.7699610" lon="35.0396510">
<ele>537.799988</ele>
<time>2017-10-20T04:58:32.000Z</time>
</trkpt>
<trkpt lat="31.7699770" lon="35.0396920">
<ele>538.200012</ele>
<time>2017-10-20T04:58:34.000Z</time>
</trkpt>
<trkpt lat="31.7699990" lon="35.0397280">
<ele>538.399963</ele>
<time>2017-10-20T04:58:37.000Z</time>
</trkpt>
<trkpt lat="31.7700080" lon="35.0397580">
<ele>538.600037</ele>
<time>2017-10-20T04:58:39.000Z</time>
</trkpt>
<trkpt lat="31.7700140" lon="35.0397970">
<ele>538.799988</ele>
<time>2017-10-20T04:58:43.000Z</time>
</trkpt>
<trkpt lat="31.7700190" lon="35.0398520">
<ele>539.299988</ele>
<time>2017-10-20T04:58:46.000Z</time>
</trkpt>
<trkpt lat="31.7700260" lon="35.0398970">
<ele>539.900024</ele>
<time>2017-10-20T04:58:48.000Z</time>
</trkpt>
<trkpt lat="31.7700310" lon="35.0399370">
<ele>540.399963</ele>
<time>2017-10-20T04:58:50.000Z</time>
</trkpt>
<trkpt lat="31.7700450" lon="35.0399710">
<ele>540.600037</ele>
<time>2017-10-20T04:58:52.000Z</time>
</trkpt>
<trkpt lat="31.7700640" lon="35.0399960">
<ele>540.700012</ele>
<time>2017-10-20T04:58:54.000Z</time>
</trkpt>
<trkpt lat="31.7700740" lon="35.0400280">
<ele>540.900024</ele>
<time>2017-10-20T04:58:58.000Z</time>
</trkpt>
<trkpt lat="31.7700860" lon="35.0400650">
<ele>541.000000</ele>
<time>2017-10-20T04:59:02.000Z</time>
</trkpt>
<trkpt lat="31.7700940" lon="35.0401050">
<ele>541.200012</ele>
<time>2017-10-20T04:59:05.000Z</time>
</trkpt>
<trkpt lat="31.7700980" lon="35.0401400">
<ele>541.599976</ele>
<time>2017-10-20T04:59:07.000Z</time>
</trkpt>
<trkpt lat="31.7701020" lon="35.0401780">
<ele>542.000000</ele>
<time>2017-10-20T04:59:09.000Z</time>
</trkpt>
<trkpt lat="31.7701080" lon="35.0402130">
<ele>542.400024</ele>
<time>2017-10-20T04:59:11.000Z</time>
</trkpt>
<trkpt lat="31.7701130" lon="35.0402480">
<ele>542.599976</ele>
<time>2017-10-20T04:59:13.000Z</time>
</trkpt>
<trkpt lat="31.7701230" lon="35.0402900">
<ele>542.900024</ele>
<time>2017-10-20T04:59:16.000Z</time>
</trkpt>
<trkpt lat="31.7701230" lon="35.0403240">
<ele>543.000000</ele>
<time>2017-10-20T04:59:18.000Z</time>
</trkpt>
<trkpt lat="31.7701350" lon="35.0403660">
<ele>543.200012</ele>
<time>2017-10-20T04:59:21.000Z</time>
</trkpt>
<trkpt lat="31.7701390" lon="35.0404180">
<ele>543.399963</ele>
<time>2017-10-20T04:59:23.000Z</time>
</trkpt>
<trkpt lat="31.7701300" lon="35.0404580">
<ele>543.600037</ele>
<time>2017-10-20T04:59:24.000Z</time>
</trkpt>
<trkpt lat="31.7701370" lon="35.0404960">
<ele>544.000000</ele>
<time>2017-10-20T04:59:27.000Z</time>
</trkpt>
<trkpt lat="31.7701410" lon="35.0405380">
<ele>544.000000</ele>
<time>2017-10-20T04:59:29.000Z</time>
</trkpt>
<trkpt lat="31.7701500" lon="35.0405690">
<ele>544.000000</ele>
<time>2017-10-20T04:59:31.000Z</time>
</trkpt>
<trkpt lat="31.7701440" lon="35.0406150">
<ele>544.000000</ele>
<time>2017-10-20T04:59:34.000Z</time>
</trkpt>
<trkpt lat="31.7701460" lon="35.0406720">
<ele>543.099976</ele>
<time>2017-10-20T04:59:37.000Z</time>
</trkpt>
<trkpt lat="31.7701430" lon="35.0407130">
<ele>541.899963</ele>
<time>2017-10-20T04:59:39.000Z</time>
</trkpt>
<trkpt lat="31.7701310" lon="35.0407430">
<ele>541.000000</ele>
<time>2017-10-20T04:59:41.000Z</time>
</trkpt>
<trkpt lat="31.7701180" lon="35.0407830">
<ele>539.900024</ele>
<time>2017-10-20T04:59:43.000Z</time>
</trkpt>
<trkpt lat="31.7701100" lon="35.0408240">
<ele>538.700012</ele>
<time>2017-10-20T04:59:46.000Z</time>
</trkpt>
<trkpt lat="31.7700950" lon="35.0408770">
<ele>537.200012</ele>
<time>2017-10-20T04:59:48.000Z</time>
</trkpt>
<trkpt lat="31.7700850" lon="35.0409140">
<ele>536.099976</ele>
<time>2017-10-20T04:59:50.000Z</time>
</trkpt>
<trkpt lat="31.7700680" lon="35.0409420">
<ele>535.200012</ele>
<time>2017-10-20T04:59:52.000Z</time>
</trkpt>
<trkpt lat="31.7700510" lon="35.0409720">
<ele>534.200012</ele>
<time>2017-10-20T04:59:55.000Z</time>
</trkpt>
<trkpt lat="31.7700360" lon="35.0410010">
<ele>533.299988</ele>
<time>2017-10-20T04:59:57.000Z</time>
</trkpt>
<trkpt lat="31.7700100" lon="35.0410460">
<ele>531.799988</ele>
<time>2017-10-20T05:00:00.000Z</time>
</trkpt>
<trkpt lat="31.7699920" lon="35.0410870">
<ele>531.100037</ele>
<time>2017-10-20T05:00:03.000Z</time>
</trkpt>
<trkpt lat="31.7699810" lon="35.0411250">
<ele>531.299988</ele>
<time>2017-10-20T05:00:05.000Z</time>
</trkpt>
<trkpt lat="31.7699660" lon="35.0411640">
<ele>531.599976</ele>
<time>2017-10-20T05:00:08.000Z</time>
</trkpt>
<trkpt lat="31.7699620" lon="35.0412000">
<ele>531.900024</ele>
<time>2017-10-20T05:00:11.000Z</time>
</trkpt>
<trkpt lat="31.7699450" lon="35.0412490">
<ele>532.700012</ele>
<time>2017-10-20T05:00:14.000Z</time>
</trkpt>
<trkpt lat="31.7699300" lon="35.0412800">
<ele>533.200012</ele>
<time>2017-10-20T05:00:15.000Z</time>
</trkpt>
<trkpt lat="31.7699110" lon="35.0413120">
<ele>533.500000</ele>
<time>2017-10-20T05:00:16.000Z</time>
</trkpt>
<trkpt lat="31.7698930" lon="35.0413520">
<ele>533.899963</ele>
<time>2017-10-20T05:00:18.000Z</time>
</trkpt>
<trkpt lat="31.7698820" lon="35.0413880">
<ele>534.200012</ele>
<time>2017-10-20T05:00:22.000Z</time>
</trkpt>
<trkpt lat="31.7698700" lon="35.0414240">
<ele>534.700012</ele>
<time>2017-10-20T05:00:26.000Z</time>
</trkpt>
<trkpt lat="31.7698740" lon="35.0414690">
<ele>535.399963</ele>
<time>2017-10-20T05:00:29.000Z</time>
</trkpt>
<trkpt lat="31.7698830" lon="35.0415100">
<ele>535.900024</ele>
<time>2017-10-20T05:00:32.000Z</time>
</trkpt>
<trkpt lat="31.7698790" lon="35.0415500">
<ele>536.099976</ele>
<time>2017-10-20T05:00:36.000Z</time>
</trkpt>
<trkpt lat="31.7698750" lon="35.0416020">
<ele>536.400024</ele>
<time>2017-10-20T05:00:39.000Z</time>
</trkpt>
<trkpt lat="31.7698780" lon="35.0416500">
<ele>536.700012</ele>
<time>2017-10-20T05:00:42.000Z</time>
</trkpt>
<trkpt lat="31.7698650" lon="35.0416920">
<ele>537.000000</ele>
<time>2017-10-20T05:00:45.000Z</time>
</trkpt>
<trkpt lat="31.7698620" lon="35.0417300">
<ele>537.299988</ele>
<time>2017-10-20T05:00:48.000Z</time>
</trkpt>
<trkpt lat="31.7698700" lon="35.0417610">
<ele>537.700012</ele>
<time>2017-10-20T05:00:50.000Z</time>
</trkpt>
<trkpt lat="31.7698720" lon="35.0418030">
<ele>538.200012</ele>
<time>2017-10-20T05:00:52.000Z</time>
</trkpt>
<trkpt lat="31.7698860" lon="35.0418640">
<ele>538.600037</ele>
<time>2017-10-20T05:00:54.000Z</time>
</trkpt>
<trkpt lat="31.7698950" lon="35.0418970">
<ele>538.799988</ele>
<time>2017-10-20T05:00:55.000Z</time>
</trkpt>
<trkpt lat="31.7698990" lon="35.0419340">
<ele>539.000000</ele>
<time>2017-10-20T05:00:57.000Z</time>
</trkpt>
<trkpt lat="31.7699100" lon="35.0419670">
<ele>539.200012</ele>
<time>2017-10-20T05:00:59.000Z</time>
</trkpt>
<trkpt lat="31.7699150" lon="35.0420070">
<ele>539.400024</ele>
<time>2017-10-20T05:01:01.000Z</time>
</trkpt>
<trkpt lat="31.7699210" lon="35.0420600">
<ele>539.599976</ele>
<time>2017-10-20T05:01:03.000Z</time>
</trkpt>
<trkpt lat="31.7699290" lon="35.0420980">
<ele>540.200012</ele>
<time>2017-10-20T05:01:05.000Z</time>
</trkpt>
<trkpt lat="31.7699530" lon="35.0421330">
<ele>540.900024</ele>
<time>2017-10-20T05:01:08.000Z</time>
</trkpt>
<trkpt lat="31.7699750" lon="35.0421560">
<ele>541.400024</ele>
<time>2017-10-20T05:01:10.000Z</time>
</trkpt>
<trkpt lat="31.7699920" lon="35.0422130">
<ele>541.899963</ele>
<time>2017-10-20T05:01:13.000Z</time>
</trkpt>
<trkpt lat="31.7700100" lon="35.0422720">
<ele>542.299988</ele>
<time>2017-10-20T05:01:15.000Z</time>
</trkpt>
<trkpt lat="31.7700140" lon="35.0423240">
<ele>542.799988</ele>
<time>2017-10-20T05:01:16.000Z</time>
</trkpt>
<trkpt lat="31.7700190" lon="35.0423640">
<ele>543.299988</ele>
<time>2017-10-20T05:01:17.000Z</time>
</trkpt>
<trkpt lat="31.7700330" lon="35.0424070">
<ele>543.900024</ele>
<time>2017-10-20T05:01:19.000Z</time>
</trkpt>
<trkpt lat="31.7700430" lon="35.0424530">
<ele>544.299988</ele>
<time>2017-10-20T05:01:20.000Z</time>
</trkpt>
<trkpt lat="31.7700550" lon="35.0424920">
<ele>544.700012</ele>
<time>2017-10-20T05:01:22.000Z</time>
</trkpt>
<trkpt lat="31.7700700" lon="35.0425330">
<ele>545.100037</ele>
<time>2017-10-20T05:01:25.000Z</time>
</trkpt>
<trkpt lat="31.7700690" lon="35.0425650">
<ele>545.500000</ele>
<time>2017-10-20T05:01:28.000Z</time>
</trkpt>
<trkpt lat="31.7700630" lon="35.0425980">
<ele>546.099976</ele>
<time>2017-10-20T05:01:30.000Z</time>
</trkpt>
<trkpt lat="31.7700670" lon="35.0426480">
<ele>546.799988</ele>
<time>2017-10-20T05:01:34.000Z</time>
</trkpt>
<trkpt lat="31.7700720" lon="35.0426810">
<ele>547.099976</ele>
<time>2017-10-20T05:01:36.000Z</time>
</trkpt>
<trkpt lat="31.7700860" lon="35.0427280">
<ele>547.400024</ele>
<time>2017-10-20T05:01:39.000Z</time>
</trkpt>
<trkpt lat="31.7700980" lon="35.0427660">
<ele>547.700012</ele>
<time>2017-10-20T05:01:41.000Z</time>
</trkpt>
<trkpt lat="31.7701080" lon="35.0428010">
<ele>548.200012</ele>
<time>2017-10-20T05:01:44.000Z</time>
</trkpt>
<trkpt lat="31.7701140" lon="35.0428390">
<ele>548.900024</ele>
<time>2017-10-20T05:01:48.000Z</time>
</trkpt>
<trkpt lat="31.7701200" lon="35.0428710">
<ele>549.299988</ele>
<time>2017-10-20T05:01:50.000Z</time>
</trkpt>
<trkpt lat="31.7701380" lon="35.0429050">
<ele>549.600037</ele>
<time>2017-10-20T05:01:54.000Z</time>
</trkpt>
<trkpt lat="31.7701390" lon="35.0429410">
<ele>549.799988</ele>
<time>2017-10-20T05:01:57.000Z</time>
</trkpt>
<trkpt lat="31.7701460" lon="35.0429770">
<ele>550.099976</ele>
<time>2017-10-20T05:02:01.000Z</time>
</trkpt>
<trkpt lat="31.7701650" lon="35.0430330">
<ele>551.000000</ele>
<time>2017-10-20T05:02:04.000Z</time>
</trkpt>
<trkpt lat="31.7701790" lon="35.0430660">
<ele>551.599976</ele>
<time>2017-10-20T05:02:05.000Z</time>
</trkpt>
<trkpt lat="31.7701830" lon="35.0430990">
<ele>552.000000</ele>
<time>2017-10-20T05:02:07.000Z</time>
</trkpt>
<trkpt lat="31.7701910" lon="35.0431470">
<ele>552.300049</ele>
<time>2017-10-20T05:02:09.000Z</time>
</trkpt>
<trkpt lat="31.7702070" lon="35.0431910">
<ele>552.599976</ele>
<time>2017-10-20T05:02:12.000Z</time>
</trkpt>
<trkpt lat="31.7702190" lon="35.0432260">
<ele>552.799988</ele>
<time>2017-10-20T05:02:15.000Z</time>
</trkpt>
<trkpt lat="31.7702430" lon="35.0432630">
<ele>553.200012</ele>
<time>2017-10-20T05:02:18.000Z</time>
</trkpt>
<trkpt lat="31.7702640" lon="35.0433130">
<ele>554.000000</ele>
<time>2017-10-20T05:02:20.000Z</time>
</trkpt>
<trkpt lat="31.7702750" lon="35.0433670">
<ele>554.600037</ele>
<time>2017-10-20T05:02:22.000Z</time>
</trkpt>
<trkpt lat="31.7702900" lon="35.0434150">
<ele>554.900024</ele>
<time>2017-10-20T05:02:25.000Z</time>
</trkpt>
<trkpt lat="31.7702950" lon="35.0434490">
<ele>555.099976</ele>
<time>2017-10-20T05:02:27.000Z</time>
</trkpt>
<trkpt lat="31.7702970" lon="35.0434850">
<ele>555.299988</ele>
<time>2017-10-20T05:02:29.000Z</time>
</trkpt>
<trkpt lat="31.7703100" lon="35.0435340">
<ele>555.599976</ele>
<time>2017-10-20T05:02:32.000Z</time>
</trkpt>
<trkpt lat="31.7703260" lon="35.0435680">
<ele>555.799988</ele>
<time>2017-10-20T05:02:36.000Z</time>
</trkpt>
<trkpt lat="31.7703370" lon="35.0436030">
<ele>556.400024</ele>
<time>2017-10-20T05:02:40.000Z</time>
</trkpt>
<trkpt lat="31.7703420" lon="35.0436450">
<ele>557.099976</ele>
<time>2017-10-20T05:02:43.000Z</time>
</trkpt>
<trkpt lat="31.7703520" lon="35.0436880">
<ele>557.500000</ele>
<time>2017-10-20T05:02:46.000Z</time>
</trkpt>
<trkpt lat="31.7703620" lon="35.0437200">
<ele>557.799988</ele>
<time>2017-10-20T05:02:49.000Z</time>
</trkpt>
<trkpt lat="31.7703630" lon="35.0437540">
<ele>558.000000</ele>
<time>2017-10-20T05:02:53.000Z</time>
</trkpt>
<trkpt lat="31.7703760" lon="35.0437900">
<ele>558.299988</ele>
<time>2017-10-20T05:02:56.000Z</time>
</trkpt>
<trkpt lat="31.7703890" lon="35.0438200">
<ele>558.700012</ele>
<time>2017-10-20T05:02:58.000Z</time>
</trkpt>
<trkpt lat="31.7703900" lon="35.0438670">
<ele>559.400024</ele>
<time>2017-10-20T05:03:00.000Z</time>
</trkpt>
<trkpt lat="31.7703970" lon="35.0439140">
<ele>560.000000</ele>
<time>2017-10-20T05:03:01.000Z</time>
</trkpt>
<trkpt lat="31.7704010" lon="35.0439490">
<ele>560.200012</ele>
<time>2017-10-20T05:03:02.000Z</time>
</trkpt>
<trkpt lat="31.7704090" lon="35.0439890">
<ele>560.399963</ele>
<time>2017-10-20T05:03:05.000Z</time>
</trkpt>
<trkpt lat="31.7704210" lon="35.0440350">
<ele>560.600037</ele>
<time>2017-10-20T05:03:08.000Z</time>
</trkpt>
<trkpt lat="31.7704300" lon="35.0440690">
<ele>560.900024</ele>
<time>2017-10-20T05:03:12.000Z</time>
</trkpt>
<trkpt lat="31.7704310" lon="35.0441160">
<ele>561.299988</ele>
<time>2017-10-20T05:03:14.000Z</time>
</trkpt>
<trkpt lat="31.7704380" lon="35.0441490">
<ele>561.799988</ele>
<time>2017-10-20T05:03:16.000Z</time>
</trkpt>
<trkpt lat="31.7704370" lon="35.0441900">
<ele>562.400024</ele>
<time>2017-10-20T05:03:19.000Z</time>
</trkpt>
<trkpt lat="31.7704300" lon="35.0442320">
<ele>562.799988</ele>
<time>2017-10-20T05:03:21.000Z</time>
</trkpt>
<trkpt lat="31.7704260" lon="35.0442740">
<ele>563.099976</ele>
<time>2017-10-20T05:03:25.000Z</time>
</trkpt>
<trkpt lat="31.7704200" lon="35.0443050">
<ele>563.299988</ele>
<time>2017-10-20T05:03:28.000Z</time>
</trkpt>
<trkpt lat="31.7704180" lon="35.0443500">
<ele>563.700012</ele>
<time>2017-10-20T05:03:30.000Z</time>
</trkpt>
<trkpt lat="31.7704160" lon="35.0443880">
<ele>563.900024</ele>
<time>2017-10-20T05:03:32.000Z</time>
</trkpt>
<trkpt lat="31.7704120" lon="35.0444300">
<ele>564.599976</ele>
<time>2017-10-20T05:03:33.000Z</time>
</trkpt>
<trkpt lat="31.7704110" lon="35.0444840">
<ele>565.100037</ele>
<time>2017-10-20T05:03:35.000Z</time>
</trkpt>
<trkpt lat="31.7704260" lon="35.0445110">
<ele>565.299988</ele>
<time>2017-10-20T05:03:38.000Z</time>
</trkpt>
<trkpt lat="31.7704230" lon="35.0445450">
<ele>565.500000</ele>
<time>2017-10-20T05:03:40.000Z</time>
</trkpt>
<trkpt lat="31.7704200" lon="35.0445800">
<ele>565.700012</ele>
<time>2017-10-20T05:03:42.000Z</time>
</trkpt>
<trkpt lat="31.7704220" lon="35.0446150">
<ele>566.000000</ele>
<time>2017-10-20T05:03:44.000Z</time>
</trkpt>
<trkpt lat="31.7704230" lon="35.0446540">
<ele>566.200012</ele>
<time>2017-10-20T05:03:46.000Z</time>
</trkpt>
<trkpt lat="31.7704290" lon="35.0446880">
<ele>566.400024</ele>
<time>2017-10-20T05:03:48.000Z</time>
</trkpt>
<trkpt lat="31.7704430" lon="35.0447290">
<ele>567.200012</ele>
<time>2017-10-20T05:03:52.000Z</time>
</trkpt>
<trkpt lat="31.7704420" lon="35.0447630">
<ele>567.700012</ele>
<time>2017-10-20T05:03:55.000Z</time>
</trkpt>
<trkpt lat="31.7704440" lon="35.0448030">
<ele>568.299988</ele>
<time>2017-10-20T05:03:58.000Z</time>
</trkpt>
<trkpt lat="31.7704370" lon="35.0448530">
<ele>568.700012</ele>
<time>2017-10-20T05:04:01.000Z</time>
</trkpt>
<trkpt lat="31.7704410" lon="35.0448870">
<ele>568.900024</ele>
<time>2017-10-20T05:04:04.000Z</time>
</trkpt>
<trkpt lat="31.7704370" lon="35.0449250">
<ele>569.099976</ele>
<time>2017-10-20T05:04:07.000Z</time>
</trkpt>
<trkpt lat="31.7704290" lon="35.0449640">
<ele>569.400024</ele>
<time>2017-10-20T05:04:10.000Z</time>
</trkpt>
<trkpt lat="31.7704240" lon="35.0450100">
<ele>570.000000</ele>
<time>2017-10-20T05:04:13.000Z</time>
</trkpt>
<trkpt lat="31.7704170" lon="35.0450490">
<ele>570.500000</ele>
<time>2017-10-20T05:04:15.000Z</time>
</trkpt>
<trkpt lat="31.7704080" lon="35.0450850">
<ele>570.700012</ele>
<time>2017-10-20T05:04:16.000Z</time>
</trkpt>
<trkpt lat="31.7704120" lon="35.0451250">
<ele>570.900024</ele>
<time>2017-10-20T05:04:18.000Z</time>
</trkpt>
<trkpt lat="31.7704170" lon="35.0451590">
<ele>571.099976</ele>
<time>2017-10-20T05:04:21.000Z</time>
</trkpt>
<trkpt lat="31.7704200" lon="35.0451950">
<ele>571.399963</ele>
<time>2017-10-20T05:04:23.000Z</time>
</trkpt>
<trkpt lat="31.7704190" lon="35.0452360">
<ele>571.700012</ele>
<time>2017-10-20T05:04:27.000Z</time>
</trkpt>
<trkpt lat="31.7704170" lon="35.0452780">
<ele>572.200012</ele>
<time>2017-10-20T05:04:30.000Z</time>
</trkpt>
<trkpt lat="31.7704160" lon="35.0453210">
<ele>572.799988</ele>
<time>2017-10-20T05:04:33.000Z</time>
</trkpt>
<trkpt lat="31.7704190" lon="35.0453520">
<ele>573.299988</ele>
<time>2017-10-20T05:04:35.000Z</time>
</trkpt>
<trkpt lat="31.7704230" lon="35.0453910">
<ele>573.599976</ele>
<time>2017-10-20T05:04:37.000Z</time>
</trkpt>
<trkpt lat="31.7704310" lon="35.0454290">
<ele>574.200012</ele>
<time>2017-10-20T05:04:40.000Z</time>
</trkpt>
<trkpt lat="31.7704280" lon="35.0454690">
<ele>574.799988</ele>
<time>2017-10-20T05:04:43.000Z</time>
</trkpt>
<trkpt lat="31.7704340" lon="35.0455040">
<ele>575.400024</ele>
<time>2017-10-20T05:04:47.000Z</time>
</trkpt>
<trkpt lat="31.7704330" lon="35.0455470">
<ele>575.899963</ele>
<time>2017-10-20T05:04:50.000Z</time>
</trkpt>
<trkpt lat="31.7704340" lon="35.0455840">
<ele>576.100037</ele>
<time>2017-10-20T05:04:54.000Z</time>
</trkpt>
<trkpt lat="31.7704380" lon="35.0456210">
<ele>576.299988</ele>
<time>2017-10-20T05:04:58.000Z</time>
</trkpt>
<trkpt lat="31.7704340" lon="35.0456550">
<ele>576.500000</ele>
<time>2017-10-20T05:05:02.000Z</time>
</trkpt>
<trkpt lat="31.7704350" lon="35.0456910">
<ele>576.799988</ele>
<time>2017-10-20T05:05:04.000Z</time>
</trkpt>
<trkpt lat="31.7704290" lon="35.0457410">
<ele>577.399963</ele>
<time>2017-10-20T05:05:06.000Z</time>
</trkpt>
<trkpt lat="31.7704190" lon="35.0457890">
<ele>578.000000</ele>
<time>2017-10-20T05:05:08.000Z</time>
</trkpt>
<trkpt lat="31.7704150" lon="35.0458310">
<ele>578.299988</ele>
<time>2017-10-20T05:05:11.000Z</time>
</trkpt>
<trkpt lat="31.7704100" lon="35.0458630">
<ele>578.500000</ele>
<time>2017-10-20T05:05:13.000Z</time>
</trkpt>
<trkpt lat="31.7704010" lon="35.0458980">
<ele>578.700012</ele>
<time>2017-10-20T05:05:15.000Z</time>
</trkpt>
<trkpt lat="31.7703930" lon="35.0459340">
<ele>578.799988</ele>
<time>2017-10-20T05:05:17.000Z</time>
</trkpt>
<trkpt lat="31.7703760" lon="35.0459700">
<ele>579.099976</ele>
<time>2017-10-20T05:05:19.000Z</time>
</trkpt>
<trkpt lat="31.7703520" lon="35.0460080">
<ele>579.500000</ele>
<time>2017-10-20T05:05:21.000Z</time>
</trkpt>
<trkpt lat="31.7703330" lon="35.0460440">
<ele>580.099976</ele>
<time>2017-10-20T05:05:23.000Z</time>
</trkpt>
<trkpt lat="31.7703090" lon="35.0460780">
<ele>580.799988</ele>
<time>2017-10-20T05:05:26.000Z</time>
</trkpt>
<trkpt lat="31.7702980" lon="35.0461090">
<ele>581.200012</ele>
<time>2017-10-20T05:05:28.000Z</time>
</trkpt>
<trkpt lat="31.7702870" lon="35.0461420">
<ele>581.500000</ele>
<time>2017-10-20T05:05:31.000Z</time>
</trkpt>
<trkpt lat="31.7702690" lon="35.0461730">
<ele>581.799988</ele>
<time>2017-10-20T05:05:35.000Z</time>
</trkpt>
<trkpt lat="31.7702560" lon="35.0462100">
<ele>582.099976</ele>
<time>2017-10-20T05:05:38.000Z</time>
</trkpt>
<trkpt lat="31.7702390" lon="35.0462400">
<ele>582.399963</ele>
<time>2017-10-20T05:05:41.000Z</time>
</trkpt>
<trkpt lat="31.7702340" lon="35.0462730">
<ele>582.900024</ele>
<time>2017-10-20T05:05:44.000Z</time>
</trkpt>
<trkpt lat="31.7702190" lon="35.0463120">
<ele>583.599976</ele>
<time>2017-10-20T05:05:47.000Z</time>
</trkpt>
<trkpt lat="31.7702090" lon="35.0463540">
<ele>583.899963</ele>
<time>2017-10-20T05:05:50.000Z</time>
</trkpt>
<trkpt lat="31.7701980" lon="35.0463940">
<ele>584.200012</ele>
<time>2017-10-20T05:05:52.000Z</time>
</trkpt>
<trkpt lat="31.7701790" lon="35.0464410">
<ele>584.500000</ele>
<time>2017-10-20T05:05:54.000Z</time>
</trkpt>
<trkpt lat="31.7701720" lon="35.0464780">
<ele>584.799988</ele>
<time>2017-10-20T05:05:56.000Z</time>
</trkpt>
<trkpt lat="31.7701590" lon="35.0465160">
<ele>585.299988</ele>
<time>2017-10-20T05:05:59.000Z</time>
</trkpt>
<trkpt lat="31.7701470" lon="35.0465550">
<ele>585.900024</ele>
<time>2017-10-20T05:06:02.000Z</time>
</trkpt>
<trkpt lat="31.7701400" lon="35.0466000">
<ele>586.400024</ele>
<time>2017-10-20T05:06:06.000Z</time>
</trkpt>
<trkpt lat="31.7701290" lon="35.0466410">
<ele>586.799988</ele>
<time>2017-10-20T05:06:11.000Z</time>
</trkpt>
<trkpt lat="31.7701110" lon="35.0466790">
<ele>587.100037</ele>
<time>2017-10-20T05:06:14.000Z</time>
</trkpt>
<trkpt lat="31.7700980" lon="35.0467160">
<ele>587.400024</ele>
<time>2017-10-20T05:06:18.000Z</time>
</trkpt>
<trkpt lat="31.7701030" lon="35.0467530">
<ele>587.900024</ele>
<time>2017-10-20T05:06:22.000Z</time>
</trkpt>
<trkpt lat="31.7700930" lon="35.0467900">
<ele>588.399963</ele>
<time>2017-10-20T05:06:24.000Z</time>
</trkpt>
<trkpt lat="31.7700930" lon="35.0468460">
<ele>589.099976</ele>
<time>2017-10-20T05:06:27.000Z</time>
</trkpt>
<trkpt lat="31.7700860" lon="35.0468820">
<ele>589.400024</ele>
<time>2017-10-20T05:06:29.000Z</time>
</trkpt>
<trkpt lat="31.7700670" lon="35.0469300">
<ele>589.700012</ele>
<time>2017-10-20T05:06:33.000Z</time>
</trkpt>
<trkpt lat="31.7700620" lon="35.0469660">
<ele>590.000000</ele>
<time>2017-10-20T05:06:37.000Z</time>
</trkpt>
<trkpt lat="31.7700660" lon="35.0470080">
<ele>590.400024</ele>
<time>2017-10-20T05:06:40.000Z</time>
</trkpt>
<trkpt lat="31.7700690" lon="35.0470580">
<ele>591.200012</ele>
<time>2017-10-20T05:06:42.000Z</time>
</trkpt>
<trkpt lat="31.7700730" lon="35.0470910">
<ele>591.599976</ele>
<time>2017-10-20T05:06:45.000Z</time>
</trkpt>
<trkpt lat="31.7700620" lon="35.0471410">
<ele>592.200012</ele>
<time>2017-10-20T05:06:47.000Z</time>
</trkpt>
<trkpt lat="31.7700550" lon="35.0471870">
<ele>592.599976</ele>
<time>2017-10-20T05:06:49.000Z</time>
</trkpt>
<trkpt lat="31.7700500" lon="35.0472260">
<ele>592.900024</ele>
<time>2017-10-20T05:06:51.000Z</time>
</trkpt>
<trkpt lat="31.7700330" lon="35.0472680">
<ele>593.399963</ele>
<time>2017-10-20T05:06:55.000Z</time>
</trkpt>
<trkpt lat="31.7700280" lon="35.0473040">
<ele>593.900024</ele>
<time>2017-10-20T05:06:57.000Z</time>
</trkpt>
<trkpt lat="31.7700190" lon="35.0473370">
<ele>594.500000</ele>
<time>2017-10-20T05:06:59.000Z</time>
</trkpt>
<trkpt lat="31.7700060" lon="35.0473730">
<ele>594.899963</ele>
<time>2017-10-20T05:07:02.000Z</time>
</trkpt>
<trkpt lat="31.7699920" lon="35.0474000">
<ele>595.100037</ele>
<time>2017-10-20T05:07:05.000Z</time>
</trkpt>
<trkpt lat="31.7699830" lon="35.0474310">
<ele>595.299988</ele>
<time>2017-10-20T05:07:07.000Z</time>
</trkpt>
<trkpt lat="31.7699770" lon="35.0474730">
<ele>595.500000</ele>
<time>2017-10-20T05:07:10.000Z</time>
</trkpt>
<trkpt lat="31.7699790" lon="35.0475110">
<ele>595.700012</ele>
<time>2017-10-20T05:07:13.000Z</time>
</trkpt>
<trkpt lat="31.7699780" lon="35.0475440">
<ele>595.900024</ele>
<time>2017-10-20T05:07:14.000Z</time>
</trkpt>
<trkpt lat="31.7699870" lon="35.0475970">
<ele>596.299988</ele>
<time>2017-10-20T05:07:16.000Z</time>
</trkpt>
<trkpt lat="31.7699870" lon="35.0476300">
<ele>596.700012</ele>
<time>2017-10-20T05:07:19.000Z</time>
</trkpt>
<trkpt lat="31.7699870" lon="35.0476620">
<ele>597.200012</ele>
<time>2017-10-20T05:07:21.000Z</time>
</trkpt>
<trkpt lat="31.7699830" lon="35.0477040">
<ele>597.500000</ele>
<time>2017-10-20T05:07:25.000Z</time>
</trkpt>
<trkpt lat="31.7699810" lon="35.0477390">
<ele>597.700012</ele>
<time>2017-10-20T05:07:28.000Z</time>
</trkpt>
<trkpt lat="31.7699710" lon="35.0477840">
<ele>598.000000</ele>
<time>2017-10-20T05:07:30.000Z</time>
</trkpt>
<trkpt lat="31.7699630" lon="35.0478210">
<ele>598.200012</ele>
<time>2017-10-20T05:07:32.000Z</time>
</trkpt>
<trkpt lat="31.7699500" lon="35.0478580">
<ele>598.400024</ele>
<time>2017-10-20T05:07:34.000Z</time>
</trkpt>
<trkpt lat="31.7699370" lon="35.0478980">
<ele>598.599976</ele>
<time>2017-10-20T05:07:36.000Z</time>
</trkpt>
<trkpt lat="31.7699300" lon="35.0479340">
<ele>599.099976</ele>
<time>2017-10-20T05:07:39.000Z</time>
</trkpt>
<trkpt lat="31.7699120" lon="35.0479640">
<ele>599.600037</ele>
<time>2017-10-20T05:07:42.000Z</time>
</trkpt>
<trkpt lat="31.7698890" lon="35.0480010">
<ele>600.000000</ele>
<time>2017-10-20T05:07:45.000Z</time>
</trkpt>
<trkpt lat="31.7698770" lon="35.0480310">
<ele>600.299988</ele>
<time>2017-10-20T05:07:47.000Z</time>
</trkpt>
<trkpt lat="31.7698730" lon="35.0480730">
<ele>600.500000</ele>
<time>2017-10-20T05:07:50.000Z</time>
</trkpt>
<trkpt lat="31.7698710" lon="35.0481090">
<ele>600.700012</ele>
<time>2017-10-20T05:07:52.000Z</time>
</trkpt>
<trkpt lat="31.7698790" lon="35.0481480">
<ele>600.899963</ele>
<time>2017-10-20T05:07:55.000Z</time>
</trkpt>
<trkpt lat="31.7699000" lon="35.0481910">
<ele>601.799988</ele>
<time>2017-10-20T05:07:58.000Z</time>
</trkpt>
<trkpt lat="31.7699180" lon="35.0482210">
<ele>601.700012</ele>
<time>2017-10-20T05:08:01.000Z</time>
</trkpt>
<trkpt lat="31.7699460" lon="35.0482480">
<ele>601.599976</ele>
<time>2017-10-20T05:08:03.000Z</time>
</trkpt>
<trkpt lat="31.7699780" lon="35.0482660">
<ele>601.500000</ele>
<time>2017-10-20T05:08:06.000Z</time>
</trkpt>
<trkpt lat="31.7700100" lon="35.0482760">
<ele>601.500000</ele>
<time>2017-10-20T05:08:08.000Z</time>
</trkpt>
<trkpt lat="31.7700440" lon="35.0482800">
<ele>601.400024</ele>
<time>2017-10-20T05:08:10.000Z</time>
</trkpt>
<trkpt lat="31.7700810" lon="35.0482850">
<ele>601.299988</ele>
<time>2017-10-20T05:08:13.000Z</time>
</trkpt>
<trkpt lat="31.7701090" lon="35.0482700">
<ele>601.299988</ele>
<time>2017-10-20T05:08:16.000Z</time>
</trkpt>
<trkpt lat="31.7701410" lon="35.0482500">
<ele>601.200012</ele>
<time>2017-10-20T05:08:19.000Z</time>
</trkpt>
<trkpt lat="31.7701660" lon="35.0482290">
<ele>601.100037</ele>
<time>2017-10-20T05:08:21.000Z</time>
</trkpt>
<trkpt lat="31.7701850" lon="35.0482050">
<ele>601.100037</ele>
<time>2017-10-20T05:08:23.000Z</time>
</trkpt>
<trkpt lat="31.7702120" lon="35.0481600">
<ele>601.000000</ele>
<time>2017-10-20T05:08:25.000Z</time>
</trkpt>
<trkpt lat="31.7702230" lon="35.0481310">
<ele>601.100037</ele>
<time>2017-10-20T05:08:26.000Z</time>
</trkpt>
<trkpt lat="31.7702410" lon="35.0480920">
<ele>601.100037</ele>
<time>2017-10-20T05:08:28.000Z</time>
</trkpt>
<trkpt lat="31.7702480" lon="35.0480550">
<ele>601.100037</ele>
<time>2017-10-20T05:08:30.000Z</time>
</trkpt>
<trkpt lat="31.7702610" lon="35.0480120">
<ele>601.100037</ele>
<time>2017-10-20T05:08:33.000Z</time>
</trkpt>
<trkpt lat="31.7702750" lon="35.0479820">
<ele>601.100037</ele>
<time>2017-10-20T05:08:35.000Z</time>
</trkpt>
<trkpt lat="31.7702980" lon="35.0479420">
<ele>601.200012</ele>
<time>2017-10-20T05:08:37.000Z</time>
</trkpt>
<trkpt lat="31.7703030" lon="35.0479090">
<ele>601.200012</ele>
<time>2017-10-20T05:08:39.000Z</time>
</trkpt>
<trkpt lat="31.7703050" lon="35.0478580">
<ele>601.200012</ele>
<time>2017-10-20T05:08:42.000Z</time>
</trkpt>
<trkpt lat="31.7702950" lon="35.0478280">
<ele>601.200012</ele>
<time>2017-10-20T05:08:44.000Z</time>
</trkpt>
<trkpt lat="31.7702940" lon="35.0477960">
<ele>601.200012</ele>
<time>2017-10-20T05:08:47.000Z</time>
</trkpt>
<trkpt lat="31.7703120" lon="35.0477630">
<ele>601.200012</ele>
<time>2017-10-20T05:08:51.000Z</time>
</trkpt>
<trkpt lat="31.7703250" lon="35.0477240">
<ele>601.200012</ele>
<time>2017-10-20T05:08:53.000Z</time>
</trkpt>
<trkpt lat="31.7703410" lon="35.0476780">
<ele>601.200012</ele>
<time>2017-10-20T05:08:55.000Z</time>
</trkpt>
<trkpt lat="31.7703580" lon="35.0476450">
<ele>601.200012</ele>
<time>2017-10-20T05:08:57.000Z</time>
</trkpt>
<trkpt lat="31.7703690" lon="35.0476100">
<ele>601.200012</ele>
<time>2017-10-20T05:09:00.000Z</time>
</trkpt>
<trkpt lat="31.7703950" lon="35.0475690">
<ele>601.200012</ele>
<time>2017-10-20T05:09:03.000Z</time>
</trkpt>
<trkpt lat="31.7704200" lon="35.0475400">
<ele>601.200012</ele>
<time>2017-10-20T05:09:05.000Z</time>
</trkpt>
<trkpt lat="31.7704390" lon="35.0475050">
<ele>601.100037</ele>
<time>2017-10-20T05:09:08.000Z</time>
</trkpt>
<trkpt lat="31.7704570" lon="35.0474790">
<ele>601.100037</ele>
<time>2017-10-20T05:09:10.000Z</time>
</trkpt>
<trkpt lat="31.7704830" lon="35.0474280">
<ele>601.100037</ele>
<time>2017-10-20T05:09:12.000Z</time>
</trkpt>
<trkpt lat="31.7705070" lon="35.0473870">
<ele>601.000000</ele>
<time>2017-10-20T05:09:14.000Z</time>
</trkpt>
<trkpt lat="31.7705400" lon="35.0473780">
<ele>601.599976</ele>
<time>2017-10-20T05:09:16.000Z</time>
</trkpt>
<trkpt lat="31.7705550" lon="35.0473500">
<ele>602.299988</ele>
<time>2017-10-20T05:09:18.000Z</time>
</trkpt>
<trkpt lat="31.7705700" lon="35.0473100">
<ele>603.299988</ele>
<time>2017-10-20T05:09:21.000Z</time>
</trkpt>
<trkpt lat="31.7706000" lon="35.0472780">
<ele>604.299988</ele>
<time>2017-10-20T05:09:24.000Z</time>
</trkpt>
<trkpt lat="31.7706290" lon="35.0472490">
<ele>605.200012</ele>
<time>2017-10-20T05:09:27.000Z</time>
</trkpt>
<trkpt lat="31.7706630" lon="35.0472270">
<ele>606.200012</ele>
<time>2017-10-20T05:09:30.000Z</time>
</trkpt>
<trkpt lat="31.7706840" lon="35.0471980">
<ele>606.900024</ele>
<time>2017-10-20T05:09:33.000Z</time>
</trkpt>
<trkpt lat="31.7707120" lon="35.0471710">
<ele>607.799988</ele>
<time>2017-10-20T05:09:37.000Z</time>
</trkpt>
<trkpt lat="31.7707450" lon="35.0471490">
<ele>608.700012</ele>
<time>2017-10-20T05:09:39.000Z</time>
</trkpt>
<trkpt lat="31.7707690" lon="35.0471260">
<ele>609.400024</ele>
<time>2017-10-20T05:09:40.000Z</time>
</trkpt>
<trkpt lat="31.7707950" lon="35.0471090">
<ele>610.099976</ele>
<time>2017-10-20T05:09:41.000Z</time>
</trkpt>
<trkpt lat="31.7708190" lon="35.0470920">
<ele>610.700012</ele>
<time>2017-10-20T05:09:42.000Z</time>
</trkpt>
<trkpt lat="31.7708480" lon="35.0470740">
<ele>611.400024</ele>
<time>2017-10-20T05:09:44.000Z</time>
</trkpt>
<trkpt lat="31.7708680" lon="35.0470480">
<ele>612.000000</ele>
<time>2017-10-20T05:09:46.000Z</time>
</trkpt>
<trkpt lat="31.7708950" lon="35.0470160">
<ele>612.799988</ele>
<time>2017-10-20T05:09:49.000Z</time>
</trkpt>
<trkpt lat="31.7709320" lon="35.0470080">
<ele>613.600037</ele>
<time>2017-10-20T05:09:51.000Z</time>
</trkpt>
<trkpt lat="31.7709640" lon="35.0469860">
<ele>614.299988</ele>
<time>2017-10-20T05:09:54.000Z</time>
</trkpt>
<trkpt lat="31.7709990" lon="35.0469660">
<ele>615.000000</ele>
<time>2017-10-20T05:09:56.000Z</time>
</trkpt>
<trkpt lat="31.7710230" lon="35.0469500">
<ele>615.599976</ele>
<time>2017-10-20T05:09:58.000Z</time>
</trkpt>
<trkpt lat="31.7710550" lon="35.0469300">
<ele>616.299988</ele>
<time>2017-10-20T05:10:01.000Z</time>
</trkpt>
<trkpt lat="31.7710830" lon="35.0469150">
<ele>616.899963</ele>
<time>2017-10-20T05:10:03.000Z</time>
</trkpt>
<trkpt lat="31.7711130" lon="35.0468970">
<ele>617.599976</ele>
<time>2017-10-20T05:10:06.000Z</time>
</trkpt>
<trkpt lat="31.7711370" lon="35.0468760">
<ele>618.099976</ele>
<time>2017-10-20T05:10:09.000Z</time>
</trkpt>
<trkpt lat="31.7711700" lon="35.0468600">
<ele>618.799988</ele>
<time>2017-10-20T05:10:12.000Z</time>
</trkpt>
<trkpt lat="31.7712060" lon="35.0468470">
<ele>619.599976</ele>
<time>2017-10-20T05:10:15.000Z</time>
</trkpt>
<trkpt lat="31.7712360" lon="35.0468240">
<ele>620.299988</ele>
<time>2017-10-20T05:10:17.000Z</time>
</trkpt>
<trkpt lat="31.7712610" lon="35.0468080">
<ele>620.900024</ele>
<time>2017-10-20T05:10:19.000Z</time>
</trkpt>
<trkpt lat="31.7712930" lon="35.0467810">
<ele>621.799988</ele>
<time>2017-10-20T05:10:22.000Z</time>
</trkpt>
<trkpt lat="31.7713270" lon="35.0467740">
<ele>622.500000</ele>
<time>2017-10-20T05:10:25.000Z</time>
</trkpt>
<trkpt lat="31.7713570" lon="35.0467510">
<ele>623.299988</ele>
<time>2017-10-20T05:10:28.000Z</time>
</trkpt>
<trkpt lat="31.7713890" lon="35.0467190">
<ele>624.200012</ele>
<time>2017-10-20T05:10:30.000Z</time>
</trkpt>
<trkpt lat="31.7714310" lon="35.0466940">
<ele>625.300049</ele>
<time>2017-10-20T05:10:32.000Z</time>
</trkpt>
<trkpt lat="31.7714620" lon="35.0466720">
<ele>626.099976</ele>
<time>2017-10-20T05:10:34.000Z</time>
</trkpt>
<trkpt lat="31.7714840" lon="35.0466520">
<ele>626.799988</ele>
<time>2017-10-20T05:10:37.000Z</time>
</trkpt>
<trkpt lat="31.7715100" lon="35.0466330">
<ele>627.500000</ele>
<time>2017-10-20T05:10:40.000Z</time>
</trkpt>
<trkpt lat="31.7715490" lon="35.0466050">
<ele>628.500000</ele>
<time>2017-10-20T05:10:44.000Z</time>
</trkpt>
<trkpt lat="31.7715770" lon="35.0466010">
<ele>629.099976</ele>
<time>2017-10-20T05:10:48.000Z</time>
</trkpt>
<trkpt lat="31.7716140" lon="35.0465810">
<ele>630.000000</ele>
<time>2017-10-20T05:10:51.000Z</time>
</trkpt>
<trkpt lat="31.7716550" lon="35.0465750">
<ele>630.899963</ele>
<time>2017-10-20T05:10:54.000Z</time>
</trkpt>
<trkpt lat="31.7716860" lon="35.0465670">
<ele>631.599976</ele>
<time>2017-10-20T05:10:56.000Z</time>
</trkpt>
<trkpt lat="31.7717160" lon="35.0465550">
<ele>632.099976</ele>
<time>2017-10-20T05:10:58.000Z</time>
</trkpt>
<trkpt lat="31.7717470" lon="35.0465560">
<ele>632.599976</ele>
<time>2017-10-20T05:11:01.000Z</time>
</trkpt>
<trkpt lat="31.7717750" lon="35.0465610">
<ele>633.000000</ele>
<time>2017-10-20T05:11:03.000Z</time>
</trkpt>
<trkpt lat="31.7718070" lon="35.0465600">
<ele>633.500000</ele>
<time>2017-10-20T05:11:06.000Z</time>
</trkpt>
<trkpt lat="31.7718440" lon="35.0465710">
<ele>634.000000</ele>
<time>2017-10-20T05:11:09.000Z</time>
</trkpt>
<trkpt lat="31.7718740" lon="35.0465720">
<ele>634.000000</ele>
<time>2017-10-20T05:11:12.000Z</time>
</trkpt>
<trkpt lat="31.7719040" lon="35.0465550">
<ele>634.000000</ele>
<time>2017-10-20T05:11:15.000Z</time>
</trkpt>
<trkpt lat="31.7719200" lon="35.0465280">
<ele>634.000000</ele>
<time>2017-10-20T05:11:17.000Z</time>
</trkpt>
<trkpt lat="31.7719360" lon="35.0464970">
<ele>634.000000</ele>
<time>2017-10-20T05:11:19.000Z</time>
</trkpt>
<trkpt lat="31.7719520" lon="35.0464600">
<ele>634.000000</ele>
<time>2017-10-20T05:11:21.000Z</time>
</trkpt>
<trkpt lat="31.7719620" lon="35.0464240">
<ele>634.000000</ele>
<time>2017-10-20T05:11:23.000Z</time>
</trkpt>
<trkpt lat="31.7719660" lon="35.0463730">
<ele>634.000000</ele>
<time>2017-10-20T05:11:25.000Z</time>
</trkpt>
<trkpt lat="31.7719750" lon="35.0463250">
<ele>634.000000</ele>
<time>2017-10-20T05:11:27.000Z</time>
</trkpt>
<trkpt lat="31.7719830" lon="35.0462740">
<ele>633.899963</ele>
<time>2017-10-20T05:11:29.000Z</time>
</trkpt>
<trkpt lat="31.7719880" lon="35.0462190">
<ele>633.700012</ele>
<time>2017-10-20T05:11:31.000Z</time>
</trkpt>
<trkpt lat="31.7719920" lon="35.0461670">
<ele>633.500000</ele>
<time>2017-10-20T05:11:33.000Z</time>
</trkpt>
<trkpt lat="31.7719950" lon="35.0461240">
<ele>633.299988</ele>
<time>2017-10-20T05:11:35.000Z</time>
</trkpt>
<trkpt lat="31.7719960" lon="35.0460810">
<ele>633.100037</ele>
<time>2017-10-20T05:11:37.000Z</time>
</trkpt>
<trkpt lat="31.7720000" lon="35.0460280">
<ele>632.900024</ele>
<time>2017-10-20T05:11:39.000Z</time>
</trkpt>
<trkpt lat="31.7720070" lon="35.0459900">
<ele>632.799988</ele>
<time>2017-10-20T05:11:41.000Z</time>
</trkpt>
<trkpt lat="31.7720130" lon="35.0459510">
<ele>632.599976</ele>
<time>2017-10-20T05:11:43.000Z</time>
</trkpt>
<trkpt lat="31.7720210" lon="35.0459060">
<ele>632.400024</ele>
<time>2017-10-20T05:11:45.000Z</time>
</trkpt>
<trkpt lat="31.7720270" lon="35.0458610">
<ele>632.299988</ele>
<time>2017-10-20T05:11:47.000Z</time>
</trkpt>
<trkpt lat="31.7720370" lon="35.0458130">
<ele>632.099976</ele>
<time>2017-10-20T05:11:49.000Z</time>
</trkpt>
<trkpt lat="31.7720520" lon="35.0457690">
<ele>632.000000</ele>
<time>2017-10-20T05:11:51.000Z</time>
</trkpt>
<trkpt lat="31.7720660" lon="35.0457260">
<ele>632.000000</ele>
<time>2017-10-20T05:11:53.000Z</time>
</trkpt>
<trkpt lat="31.7720750" lon="35.0456820">
<ele>632.000000</ele>
<time>2017-10-20T05:11:55.000Z</time>
</trkpt>
<trkpt lat="31.7720850" lon="35.0456450">
<ele>632.000000</ele>
<time>2017-10-20T05:11:57.000Z</time>
</trkpt>
<trkpt lat="31.7720930" lon="35.0456100">
<ele>632.000000</ele>
<time>2017-10-20T05:11:59.000Z</time>
</trkpt>
<trkpt lat="31.7720970" lon="35.0455760">
<ele>632.000000</ele>
<time>2017-10-20T05:12:01.000Z</time>
</trkpt>
<trkpt lat="31.7721040" lon="35.0455410">
<ele>632.000000</ele>
<time>2017-10-20T05:12:03.000Z</time>
</trkpt>
<trkpt lat="31.7721130" lon="35.0455110">
<ele>632.000000</ele>
<time>2017-10-20T05:12:05.000Z</time>
</trkpt>
<trkpt lat="31.7721230" lon="35.0454750">
<ele>632.000000</ele>
<time>2017-10-20T05:12:07.000Z</time>
</trkpt>
<trkpt lat="31.7721320" lon="35.0454450">
<ele>632.000000</ele>
<time>2017-10-20T05:12:09.000Z</time>
</trkpt>
<trkpt lat="31.7721390" lon="35.0454080">
<ele>632.000000</ele>
<time>2017-10-20T05:12:11.000Z</time>
</trkpt>
<trkpt lat="31.7721470" lon="35.0453740">
<ele>631.900024</ele>
<time>2017-10-20T05:12:13.000Z</time>
</trkpt>
<trkpt lat="31.7721540" lon="35.0453380">
<ele>631.800049</ele>
<time>2017-10-20T05:12:15.000Z</time>
</trkpt>
<trkpt lat="31.7721610" lon="35.0452950">
<ele>631.800049</ele>
<time>2017-10-20T05:12:17.000Z</time>
</trkpt>
<trkpt lat="31.7721730" lon="35.0452550">
<ele>631.800049</ele>
<time>2017-10-20T05:12:19.000Z</time>
</trkpt>
<trkpt lat="31.7721920" lon="35.0452100">
<ele>631.900024</ele>
<time>2017-10-20T05:12:21.000Z</time>
</trkpt>
<trkpt lat="31.7722060" lon="35.0451620">
<ele>632.099976</ele>
<time>2017-10-20T05:12:23.000Z</time>
</trkpt>
<trkpt lat="31.7722160" lon="35.0451050">
<ele>632.299988</ele>
<time>2017-10-20T05:12:25.000Z</time>
</trkpt>
<trkpt lat="31.7722310" lon="35.0450770">
<ele>632.599976</ele>
<time>2017-10-20T05:12:26.000Z</time>
</trkpt>
<trkpt lat="31.7722470" lon="35.0450500">
<ele>632.799988</ele>
<time>2017-10-20T05:12:27.000Z</time>
</trkpt>
<trkpt lat="31.7722590" lon="35.0450190">
<ele>633.000000</ele>
<time>2017-10-20T05:12:28.000Z</time>
</trkpt>
<trkpt lat="31.7722760" lon="35.0449620">
<ele>633.400024</ele>
<time>2017-10-20T05:12:30.000Z</time>
</trkpt>
<trkpt lat="31.7722970" lon="35.0449070">
<ele>633.700012</ele>
<time>2017-10-20T05:12:32.000Z</time>
</trkpt>
<trkpt lat="31.7723150" lon="35.0448510">
<ele>633.899963</ele>
<time>2017-10-20T05:12:34.000Z</time>
</trkpt>
<trkpt lat="31.7723430" lon="35.0447980">
<ele>633.899963</ele>
<time>2017-10-20T05:12:36.000Z</time>
</trkpt>
<trkpt lat="31.7723570" lon="35.0447460">
<ele>633.799988</ele>
<time>2017-10-20T05:12:38.000Z</time>
</trkpt>
<trkpt lat="31.7723670" lon="35.0446980">
<ele>633.600037</ele>
<time>2017-10-20T05:12:40.000Z</time>
</trkpt>
<trkpt lat="31.7723790" lon="35.0446490">
<ele>633.299988</ele>
<time>2017-10-20T05:12:42.000Z</time>
</trkpt>
<trkpt lat="31.7723990" lon="35.0446020">
<ele>633.199951</ele>
<time>2017-10-20T05:12:44.000Z</time>
</trkpt>
<trkpt lat="31.7724220" lon="35.0445560">
<ele>633.100037</ele>
<time>2017-10-20T05:12:46.000Z</time>
</trkpt>
<trkpt lat="31.7724410" lon="35.0445100">
<ele>632.900024</ele>
<time>2017-10-20T05:12:48.000Z</time>
</trkpt>
<trkpt lat="31.7724550" lon="35.0444570">
<ele>632.799988</ele>
<time>2017-10-20T05:12:50.000Z</time>
</trkpt>
<trkpt lat="31.7724680" lon="35.0444010">
<ele>632.799988</ele>
<time>2017-10-20T05:12:52.000Z</time>
</trkpt>
<trkpt lat="31.7724820" lon="35.0443500">
<ele>632.799988</ele>
<time>2017-10-20T05:12:54.000Z</time>
</trkpt>
<trkpt lat="31.7725000" lon="35.0443010">
<ele>632.599976</ele>
<time>2017-10-20T05:12:56.000Z</time>
</trkpt>
<trkpt lat="31.7725110" lon="35.0442620">
<ele>632.500061</ele>
<time>2017-10-20T05:12:58.000Z</time>
</trkpt>
<trkpt lat="31.7725100" lon="35.0442290">
<ele>632.299988</ele>
<time>2017-10-20T05:13:13.000Z</time>
</trkpt>
<trkpt lat="31.7725130" lon="35.0441970">
<ele>632.200012</ele>
<time>2017-10-20T05:14:37.000Z</time>
</trkpt>
<trkpt lat="31.7724860" lon="35.0441900">
<ele>632.099976</ele>
<time>2017-10-20T05:15:15.000Z</time>
</trkpt>
<trkpt lat="31.7724620" lon="35.0441760">
<ele>632.000000</ele>
<time>2017-10-20T05:15:41.000Z</time>
</trkpt>
<trkpt lat="31.7724330" lon="35.0441840">
<ele>632.099976</ele>
<time>2017-10-20T05:17:32.000Z</time>
</trkpt>
<trkpt lat="31.7724050" lon="35.0441890">
<ele>632.200012</ele>
<time>2017-10-20T05:17:43.000Z</time>
</trkpt>
<trkpt lat="31.7724310" lon="35.0442020">
<ele>632.299988</ele>
<time>2017-10-20T05:18:40.000Z</time>
</trkpt>
<trkpt lat="31.7724250" lon="35.0442340">
<ele>632.400024</ele>
<time>2017-10-20T05:18:44.000Z</time>
</trkpt>
<trkpt lat="31.7724520" lon="35.0442170">
<ele>632.500061</ele>
<time>2017-10-20T05:19:10.000Z</time>
</trkpt>
<trkpt lat="31.7724410" lon="35.0442490">
<ele>632.700012</ele>
<time>2017-10-20T05:19:14.000Z</time>
</trkpt>
<trkpt lat="31.7724280" lon="35.0442840">
<ele>632.799988</ele>
<time>2017-10-20T05:19:16.000Z</time>
</trkpt>
<trkpt lat="31.7724190" lon="35.0443190">
<ele>632.799988</ele>
<time>2017-10-20T05:19:18.000Z</time>
</trkpt>
<trkpt lat="31.7724080" lon="35.0443600">
<ele>632.799988</ele>
<time>2017-10-20T05:19:20.000Z</time>
</trkpt>
<trkpt lat="31.7723950" lon="35.0443920">
<ele>632.799988</ele>
<time>2017-10-20T05:19:22.000Z</time>
</trkpt>
<trkpt lat="31.7723810" lon="35.0444300">
<ele>632.900024</ele>
<time>2017-10-20T05:19:24.000Z</time>
</trkpt>
<trkpt lat="31.7723680" lon="35.0444760">
<ele>633.000000</ele>
<time>2017-10-20T05:19:26.000Z</time>
</trkpt>
<trkpt lat="31.7723560" lon="35.0445220">
<ele>633.100037</ele>
<time>2017-10-20T05:19:28.000Z</time>
</trkpt>
<trkpt lat="31.7723420" lon="35.0445720">
<ele>633.299988</ele>
<time>2017-10-20T05:19:30.000Z</time>
</trkpt>
<trkpt lat="31.7723330" lon="35.0446220">
<ele>633.400024</ele>
<time>2017-10-20T05:19:32.000Z</time>
</trkpt>
<trkpt lat="31.7723250" lon="35.0446730">
<ele>633.700012</ele>
<time>2017-10-20T05:19:34.000Z</time>
</trkpt>
<trkpt lat="31.7723140" lon="35.0447240">
<ele>633.899963</ele>
<time>2017-10-20T05:19:36.000Z</time>
</trkpt>
<trkpt lat="31.7722940" lon="35.0447750">
<ele>633.899963</ele>
<time>2017-10-20T05:19:38.000Z</time>
</trkpt>
<trkpt lat="31.7722730" lon="35.0448280">
<ele>633.799988</ele>
<time>2017-10-20T05:19:40.000Z</time>
</trkpt>
<trkpt lat="31.7722570" lon="35.0448770">
<ele>633.700012</ele>
<time>2017-10-20T05:19:42.000Z</time>
</trkpt>
<trkpt lat="31.7722430" lon="35.0449210">
<ele>633.500000</ele>
<time>2017-10-20T05:19:44.000Z</time>
</trkpt>
<trkpt lat="31.7722320" lon="35.0449590">
<ele>633.199951</ele>
<time>2017-10-20T05:19:46.000Z</time>
</trkpt>
<trkpt lat="31.7722220" lon="35.0450110">
<ele>632.900024</ele>
<time>2017-10-20T05:19:48.000Z</time>
</trkpt>
<trkpt lat="31.7722140" lon="35.0450440">
<ele>632.700012</ele>
<time>2017-10-20T05:19:49.000Z</time>
</trkpt>
<trkpt lat="31.7721990" lon="35.0451030">
<ele>632.200012</ele>
<time>2017-10-20T05:19:51.000Z</time>
</trkpt>
<trkpt lat="31.7721860" lon="35.0451570">
<ele>632.000000</ele>
<time>2017-10-20T05:19:53.000Z</time>
</trkpt>
<trkpt lat="31.7721780" lon="35.0452110">
<ele>631.900024</ele>
<time>2017-10-20T05:19:55.000Z</time>
</trkpt>
<trkpt lat="31.7721740" lon="35.0452570">
<ele>631.800049</ele>
<time>2017-10-20T05:19:57.000Z</time>
</trkpt>
<trkpt lat="31.7721610" lon="35.0453130">
<ele>631.800049</ele>
<time>2017-10-20T05:19:59.000Z</time>
</trkpt>
<trkpt lat="31.7721540" lon="35.0453450">
<ele>631.800049</ele>
<time>2017-10-20T05:20:00.000Z</time>
</trkpt>
<trkpt lat="31.7721470" lon="35.0453770">
<ele>631.900024</ele>
<time>2017-10-20T05:20:01.000Z</time>
</trkpt>
<trkpt lat="31.7721380" lon="35.0454110">
<ele>632.000000</ele>
<time>2017-10-20T05:20:02.000Z</time>
</trkpt>
<trkpt lat="31.7721240" lon="35.0454740">
<ele>632.000000</ele>
<time>2017-10-20T05:20:04.000Z</time>
</trkpt>
<trkpt lat="31.7721140" lon="35.0455150">
<ele>632.000000</ele>
<time>2017-10-20T05:20:05.000Z</time>
</trkpt>
<trkpt lat="31.7721030" lon="35.0455640">
<ele>632.000000</ele>
<time>2017-10-20T05:20:06.000Z</time>
</trkpt>
<trkpt lat="31.7720900" lon="35.0456170">
<ele>632.000000</ele>
<time>2017-10-20T05:20:07.000Z</time>
</trkpt>
<trkpt lat="31.7720810" lon="35.0456720">
<ele>632.000000</ele>
<time>2017-10-20T05:20:08.000Z</time>
</trkpt>
<trkpt lat="31.7720620" lon="35.0457240">
<ele>632.000000</ele>
<time>2017-10-20T05:20:09.000Z</time>
</trkpt>
<trkpt lat="31.7720420" lon="35.0457930">
<ele>632.000000</ele>
<time>2017-10-20T05:20:10.000Z</time>
</trkpt>
<trkpt lat="31.7720240" lon="35.0458640">
<ele>632.299988</ele>
<time>2017-10-20T05:20:11.000Z</time>
</trkpt>
<trkpt lat="31.7720040" lon="35.0459450">
<ele>632.599976</ele>
<time>2017-10-20T05:20:12.000Z</time>
</trkpt>
<trkpt lat="31.7719860" lon="35.0460310">
<ele>632.900024</ele>
<time>2017-10-20T05:20:13.000Z</time>
</trkpt>
<trkpt lat="31.7719670" lon="35.0461190">
<ele>633.299988</ele>
<time>2017-10-20T05:20:14.000Z</time>
</trkpt>
<trkpt lat="31.7719460" lon="35.0462090">
<ele>633.700012</ele>
<time>2017-10-20T05:20:15.000Z</time>
</trkpt>
<trkpt lat="31.7719220" lon="35.0463000">
<ele>634.000000</ele>
<time>2017-10-20T05:20:16.000Z</time>
</trkpt>
<trkpt lat="31.7718980" lon="35.0463940">
<ele>634.000000</ele>
<time>2017-10-20T05:20:17.000Z</time>
</trkpt>
<trkpt lat="31.7718790" lon="35.0464850">
<ele>634.000000</ele>
<time>2017-10-20T05:20:18.000Z</time>
</trkpt>
<trkpt lat="31.7718610" lon="35.0465730">
<ele>634.000000</ele>
<time>2017-10-20T05:20:19.000Z</time>
</trkpt>
<trkpt lat="31.7718480" lon="35.0466600">
<ele>634.500000</ele>
<time>2017-10-20T05:20:20.000Z</time>
</trkpt>
<trkpt lat="31.7718360" lon="35.0467360">
<ele>634.900024</ele>
<time>2017-10-20T05:20:21.000Z</time>
</trkpt>
<trkpt lat="31.7718260" lon="35.0468040">
<ele>635.299988</ele>
<time>2017-10-20T05:20:22.000Z</time>
</trkpt>
<trkpt lat="31.7718160" lon="35.0468640">
<ele>635.700012</ele>
<time>2017-10-20T05:20:23.000Z</time>
</trkpt>
<trkpt lat="31.7718090" lon="35.0469210">
<ele>636.000000</ele>
<time>2017-10-20T05:20:24.000Z</time>
</trkpt>
<trkpt lat="31.7718020" lon="35.0469760">
<ele>636.299988</ele>
<time>2017-10-20T05:20:25.000Z</time>
</trkpt>
<trkpt lat="31.7717930" lon="35.0470270">
<ele>636.600037</ele>
<time>2017-10-20T05:20:26.000Z</time>
</trkpt>
<trkpt lat="31.7717850" lon="35.0470710">
<ele>636.799988</ele>
<time>2017-10-20T05:20:27.000Z</time>
</trkpt>
<trkpt lat="31.7717770" lon="35.0471100">
<ele>637.000000</ele>
<time>2017-10-20T05:20:28.000Z</time>
</trkpt>
<trkpt lat="31.7717730" lon="35.0471490">
<ele>637.100037</ele>
<time>2017-10-20T05:20:29.000Z</time>
</trkpt>
<trkpt lat="31.7717630" lon="35.0471850">
<ele>637.200012</ele>
<time>2017-10-20T05:20:30.000Z</time>
</trkpt>
<trkpt lat="31.7717560" lon="35.0472170">
<ele>637.399963</ele>
<time>2017-10-20T05:20:31.000Z</time>
</trkpt>
<trkpt lat="31.7717530" lon="35.0472530">
<ele>637.399963</ele>
<time>2017-10-20T05:20:32.000Z</time>
</trkpt>
<trkpt lat="31.7717480" lon="35.0472880">
<ele>637.500000</ele>
<time>2017-10-20T05:20:33.000Z</time>
</trkpt>
<trkpt lat="31.7717430" lon="35.0473230">
<ele>637.500000</ele>
<time>2017-10-20T05:20:34.000Z</time>
</trkpt>
<trkpt lat="31.7717380" lon="35.0473560">
<ele>637.599976</ele>
<time>2017-10-20T05:20:35.000Z</time>
</trkpt>
<trkpt lat="31.7717320" lon="35.0473900">
<ele>637.599976</ele>
<time>2017-10-20T05:20:36.000Z</time>
</trkpt>
<trkpt lat="31.7717250" lon="35.0474210">
<ele>637.599976</ele>
<time>2017-10-20T05:20:37.000Z</time>
</trkpt>
<trkpt lat="31.7717120" lon="35.0474840">
<ele>637.700012</ele>
<time>2017-10-20T05:20:39.000Z</time>
</trkpt>
<trkpt lat="31.7717010" lon="35.0475370">
<ele>637.700012</ele>
<time>2017-10-20T05:20:41.000Z</time>
</trkpt>
<trkpt lat="31.7716880" lon="35.0475910">
<ele>637.599976</ele>
<time>2017-10-20T05:20:43.000Z</time>
</trkpt>
<trkpt lat="31.7716780" lon="35.0476390">
<ele>637.599976</ele>
<time>2017-10-20T05:20:45.000Z</time>
</trkpt>
<trkpt lat="31.7716680" lon="35.0476880">
<ele>637.500000</ele>
<time>2017-10-20T05:20:47.000Z</time>
</trkpt>
<trkpt lat="31.7716630" lon="35.0477280">
<ele>637.399963</ele>
<time>2017-10-20T05:20:49.000Z</time>
</trkpt>
<trkpt lat="31.7716580" lon="35.0477650">
<ele>637.299988</ele>
<time>2017-10-20T05:20:51.000Z</time>
</trkpt>
<trkpt lat="31.7716480" lon="35.0478070">
<ele>637.299988</ele>
<time>2017-10-20T05:20:53.000Z</time>
</trkpt>
<trkpt lat="31.7716390" lon="35.0478530">
<ele>637.200012</ele>
<time>2017-10-20T05:20:55.000Z</time>
</trkpt>
<trkpt lat="31.7716270" lon="35.0479000">
<ele>637.200012</ele>
<time>2017-10-20T05:20:57.000Z</time>
</trkpt>
<trkpt lat="31.7716160" lon="35.0479500">
<ele>637.200012</ele>
<time>2017-10-20T05:20:59.000Z</time>
</trkpt>
<trkpt lat="31.7716030" lon="35.0480000">
<ele>637.200012</ele>
<time>2017-10-20T05:21:01.000Z</time>
</trkpt>
<trkpt lat="31.7715930" lon="35.0480540">
<ele>637.100037</ele>
<time>2017-10-20T05:21:03.000Z</time>
</trkpt>
<trkpt lat="31.7715820" lon="35.0481090">
<ele>637.100037</ele>
<time>2017-10-20T05:21:05.000Z</time>
</trkpt>
<trkpt lat="31.7715700" lon="35.0481630">
<ele>637.100037</ele>
<time>2017-10-20T05:21:07.000Z</time>
</trkpt>
<trkpt lat="31.7715590" lon="35.0482170">
<ele>637.100037</ele>
<time>2017-10-20T05:21:09.000Z</time>
</trkpt>
<trkpt lat="31.7715460" lon="35.0482750">
<ele>637.100037</ele>
<time>2017-10-20T05:21:11.000Z</time>
</trkpt>
<trkpt lat="31.7715380" lon="35.0483100">
<ele>637.100037</ele>
<time>2017-10-20T05:21:12.000Z</time>
</trkpt>
<trkpt lat="31.7715300" lon="35.0483420">
<ele>637.100037</ele>
<time>2017-10-20T05:21:13.000Z</time>
</trkpt>
<trkpt lat="31.7715230" lon="35.0483750">
<ele>637.100037</ele>
<time>2017-10-20T05:21:14.000Z</time>
</trkpt>
<trkpt lat="31.7715160" lon="35.0484170">
<ele>637.100037</ele>
<time>2017-10-20T05:21:15.000Z</time>
</trkpt>
<trkpt lat="31.7715060" lon="35.0484630">
<ele>637.100037</ele>
<time>2017-10-20T05:21:16.000Z</time>
</trkpt>
<trkpt lat="31.7714980" lon="35.0485090">
<ele>637.100037</ele>
<time>2017-10-20T05:21:17.000Z</time>
</trkpt>
<trkpt lat="31.7714880" lon="35.0485590">
<ele>637.200012</ele>
<time>2017-10-20T05:21:18.000Z</time>
</trkpt>
<trkpt lat="31.7714780" lon="35.0486140">
<ele>637.299988</ele>
<time>2017-10-20T05:21:19.000Z</time>
</trkpt>
<trkpt lat="31.7714670" lon="35.0486680">
<ele>637.500000</ele>
<time>2017-10-20T05:21:20.000Z</time>
</trkpt>
<trkpt lat="31.7714550" lon="35.0487220">
<ele>637.700012</ele>
<time>2017-10-20T05:21:21.000Z</time>
</trkpt>
<trkpt lat="31.7714430" lon="35.0487750">
<ele>637.899963</ele>
<time>2017-10-20T05:21:22.000Z</time>
</trkpt>
<trkpt lat="31.7714310" lon="35.0488290">
<ele>638.200012</ele>
<time>2017-10-20T05:21:23.000Z</time>
</trkpt>
<trkpt lat="31.7714170" lon="35.0488810">
<ele>638.499939</ele>
<time>2017-10-20T05:21:24.000Z</time>
</trkpt>
<trkpt lat="31.7714050" lon="35.0489360">
<ele>638.799988</ele>
<time>2017-10-20T05:21:25.000Z</time>
</trkpt>
<trkpt lat="31.7713910" lon="35.0489960">
<ele>639.099976</ele>
<time>2017-10-20T05:21:26.000Z</time>
</trkpt>
<trkpt lat="31.7713760" lon="35.0490570">
<ele>639.400024</ele>
<time>2017-10-20T05:21:27.000Z</time>
</trkpt>
<trkpt lat="31.7713620" lon="35.0491150">
<ele>639.799988</ele>
<time>2017-10-20T05:21:28.000Z</time>
</trkpt>
<trkpt lat="31.7713490" lon="35.0491760">
<ele>640.100037</ele>
<time>2017-10-20T05:21:29.000Z</time>
</trkpt>
<trkpt lat="31.7713400" lon="35.0492300">
<ele>640.399963</ele>
<time>2017-10-20T05:21:30.000Z</time>
</trkpt>
<trkpt lat="31.7713300" lon="35.0492840">
<ele>640.700012</ele>
<time>2017-10-20T05:21:31.000Z</time>
</trkpt>
<trkpt lat="31.7713220" lon="35.0493400">
<ele>641.000000</ele>
<time>2017-10-20T05:21:32.000Z</time>
</trkpt>
<trkpt lat="31.7713140" lon="35.0493910">
<ele>641.200012</ele>
<time>2017-10-20T05:21:33.000Z</time>
</trkpt>
<trkpt lat="31.7713040" lon="35.0494400">
<ele>641.499939</ele>
<time>2017-10-20T05:21:34.000Z</time>
</trkpt>
<trkpt lat="31.7712960" lon="35.0494830">
<ele>641.700012</ele>
<time>2017-10-20T05:21:35.000Z</time>
</trkpt>
<trkpt lat="31.7712880" lon="35.0495290">
<ele>641.900024</ele>
<time>2017-10-20T05:21:36.000Z</time>
</trkpt>
<trkpt lat="31.7712810" lon="35.0495740">
<ele>642.099976</ele>
<time>2017-10-20T05:21:37.000Z</time>
</trkpt>
<trkpt lat="31.7712760" lon="35.0496180">
<ele>642.299988</ele>
<time>2017-10-20T05:21:38.000Z</time>
</trkpt>
<trkpt lat="31.7712690" lon="35.0496610">
<ele>642.500000</ele>
<time>2017-10-20T05:21:39.000Z</time>
</trkpt>
<trkpt lat="31.7712590" lon="35.0497030">
<ele>642.600037</ele>
<time>2017-10-20T05:21:40.000Z</time>
</trkpt>
<trkpt lat="31.7712500" lon="35.0497440">
<ele>642.799988</ele>
<time>2017-10-20T05:21:41.000Z</time>
</trkpt>
<trkpt lat="31.7712450" lon="35.0497820">
<ele>642.900024</ele>
<time>2017-10-20T05:21:42.000Z</time>
</trkpt>
<trkpt lat="31.7712370" lon="35.0498160">
<ele>643.100037</ele>
<time>2017-10-20T05:21:43.000Z</time>
</trkpt>
<trkpt lat="31.7712290" lon="35.0498480">
<ele>643.200012</ele>
<time>2017-10-20T05:21:44.000Z</time>
</trkpt>
<trkpt lat="31.7712200" lon="35.0498800">
<ele>643.299988</ele>
<time>2017-10-20T05:21:45.000Z</time>
</trkpt>
<trkpt lat="31.7712070" lon="35.0499390">
<ele>643.500000</ele>
<time>2017-10-20T05:21:47.000Z</time>
</trkpt>
<trkpt lat="31.7711940" lon="35.0500100">
<ele>643.600037</ele>
<time>2017-10-20T05:21:49.000Z</time>
</trkpt>
<trkpt lat="31.7711890" lon="35.0500420">
<ele>643.600037</ele>
<time>2017-10-20T05:21:50.000Z</time>
</trkpt>
<trkpt lat="31.7711720" lon="35.0501030">
<ele>643.700012</ele>
<time>2017-10-20T05:21:52.000Z</time>
</trkpt>
<trkpt lat="31.7711610" lon="35.0501580">
<ele>643.700012</ele>
<time>2017-10-20T05:21:54.000Z</time>
</trkpt>
<trkpt lat="31.7711480" lon="35.0502120">
<ele>643.800049</ele>
<time>2017-10-20T05:21:56.000Z</time>
</trkpt>
<trkpt lat="31.7711330" lon="35.0502630">
<ele>643.899963</ele>
<time>2017-10-20T05:21:58.000Z</time>
</trkpt>
<trkpt lat="31.7711220" lon="35.0503060">
<ele>643.899963</ele>
<time>2017-10-20T05:22:00.000Z</time>
</trkpt>
<trkpt lat="31.7711090" lon="35.0503560">
<ele>644.000000</ele>
<time>2017-10-20T05:22:02.000Z</time>
</trkpt>
<trkpt lat="31.7710990" lon="35.0504060">
<ele>644.000000</ele>
<time>2017-10-20T05:22:04.000Z</time>
</trkpt>
<trkpt lat="31.7710850" lon="35.0504570">
<ele>644.099976</ele>
<time>2017-10-20T05:22:06.000Z</time>
</trkpt>
<trkpt lat="31.7710750" lon="35.0505080">
<ele>644.099976</ele>
<time>2017-10-20T05:22:08.000Z</time>
</trkpt>
<trkpt lat="31.7710630" lon="35.0505570">
<ele>644.200012</ele>
<time>2017-10-20T05:22:10.000Z</time>
</trkpt>
<trkpt lat="31.7710530" lon="35.0506020">
<ele>644.200012</ele>
<time>2017-10-20T05:22:12.000Z</time>
</trkpt>
<trkpt lat="31.7710420" lon="35.0506490">
<ele>644.200012</ele>
<time>2017-10-20T05:22:14.000Z</time>
</trkpt>
<trkpt lat="31.7710270" lon="35.0506990">
<ele>644.300049</ele>
<time>2017-10-20T05:22:16.000Z</time>
</trkpt>
<trkpt lat="31.7710040" lon="35.0507560">
<ele>644.300049</ele>
<time>2017-10-20T05:22:18.000Z</time>
</trkpt>
<trkpt lat="31.7709880" lon="35.0508100">
<ele>644.300049</ele>
<time>2017-10-20T05:22:20.000Z</time>
</trkpt>
<trkpt lat="31.7709710" lon="35.0508610">
<ele>644.300049</ele>
<time>2017-10-20T05:22:22.000Z</time>
</trkpt>
<trkpt lat="31.7709520" lon="35.0509080">
<ele>644.300049</ele>
<time>2017-10-20T05:22:24.000Z</time>
</trkpt>
<trkpt lat="31.7709330" lon="35.0509550">
<ele>644.300049</ele>
<time>2017-10-20T05:22:26.000Z</time>
</trkpt>
<trkpt lat="31.7709180" lon="35.0510020">
<ele>644.300049</ele>
<time>2017-10-20T05:22:28.000Z</time>
</trkpt>
<trkpt lat="31.7709030" lon="35.0510570">
<ele>644.400024</ele>
<time>2017-10-20T05:22:30.000Z</time>
</trkpt>
<trkpt lat="31.7708930" lon="35.0510920">
<ele>644.400024</ele>
<time>2017-10-20T05:22:31.000Z</time>
</trkpt>
<trkpt lat="31.7708830" lon="35.0511260">
<ele>644.400024</ele>
<time>2017-10-20T05:22:32.000Z</time>
</trkpt>
<trkpt lat="31.7708720" lon="35.0511600">
<ele>644.400024</ele>
<time>2017-10-20T05:22:33.000Z</time>
</trkpt>
<trkpt lat="31.7708620" lon="35.0511950">
<ele>644.400024</ele>
<time>2017-10-20T05:22:34.000Z</time>
</trkpt>
<trkpt lat="31.7708470" lon="35.0512320">
<ele>644.400024</ele>
<time>2017-10-20T05:22:35.000Z</time>
</trkpt>
<trkpt lat="31.7708330" lon="35.0512670">
<ele>644.400024</ele>
<time>2017-10-20T05:22:36.000Z</time>
</trkpt>
<trkpt lat="31.7708170" lon="35.0513050">
<ele>644.400024</ele>
<time>2017-10-20T05:22:37.000Z</time>
</trkpt>
<trkpt lat="31.7708000" lon="35.0513410">
<ele>644.400024</ele>
<time>2017-10-20T05:22:38.000Z</time>
</trkpt>
<trkpt lat="31.7707850" lon="35.0513780">
<ele>644.500000</ele>
<time>2017-10-20T05:22:39.000Z</time>
</trkpt>
<trkpt lat="31.7707710" lon="35.0514120">
<ele>644.500000</ele>
<time>2017-10-20T05:22:40.000Z</time>
</trkpt>
<trkpt lat="31.7707570" lon="35.0514450">
<ele>644.599976</ele>
<time>2017-10-20T05:22:41.000Z</time>
</trkpt>
<trkpt lat="31.7707420" lon="35.0514820">
<ele>644.599976</ele>
<time>2017-10-20T05:22:42.000Z</time>
</trkpt>
<trkpt lat="31.7707260" lon="35.0515230">
<ele>644.700012</ele>
<time>2017-10-20T05:22:43.000Z</time>
</trkpt>
<trkpt lat="31.7707100" lon="35.0515640">
<ele>644.799988</ele>
<time>2017-10-20T05:22:44.000Z</time>
</trkpt>
<trkpt lat="31.7706920" lon="35.0516090">
<ele>644.900024</ele>
<time>2017-10-20T05:22:45.000Z</time>
</trkpt>
<trkpt lat="31.7706740" lon="35.0516520">
<ele>645.000061</ele>
<time>2017-10-20T05:22:46.000Z</time>
</trkpt>
<trkpt lat="31.7706550" lon="35.0516990">
<ele>645.200012</ele>
<time>2017-10-20T05:22:47.000Z</time>
</trkpt>
<trkpt lat="31.7706340" lon="35.0517510">
<ele>645.400024</ele>
<time>2017-10-20T05:22:48.000Z</time>
</trkpt>
<trkpt lat="31.7706140" lon="35.0518020">
<ele>645.600037</ele>
<time>2017-10-20T05:22:49.000Z</time>
</trkpt>
<trkpt lat="31.7705920" lon="35.0518510">
<ele>645.900024</ele>
<time>2017-10-20T05:22:50.000Z</time>
</trkpt>
<trkpt lat="31.7705710" lon="35.0519000">
<ele>646.100037</ele>
<time>2017-10-20T05:22:51.000Z</time>
</trkpt>
<trkpt lat="31.7705480" lon="35.0519530">
<ele>646.399963</ele>
<time>2017-10-20T05:22:52.000Z</time>
</trkpt>
<trkpt lat="31.7705230" lon="35.0520090">
<ele>646.700012</ele>
<time>2017-10-20T05:22:53.000Z</time>
</trkpt>
<trkpt lat="31.7705000" lon="35.0520600">
<ele>647.000000</ele>
<time>2017-10-20T05:22:54.000Z</time>
</trkpt>
<trkpt lat="31.7704800" lon="35.0521050">
<ele>647.300049</ele>
<time>2017-10-20T05:22:55.000Z</time>
</trkpt>
<trkpt lat="31.7704610" lon="35.0521490">
<ele>647.500000</ele>
<time>2017-10-20T05:22:56.000Z</time>
</trkpt>
<trkpt lat="31.7704420" lon="35.0521930">
<ele>647.700012</ele>
<time>2017-10-20T05:22:57.000Z</time>
</trkpt>
<trkpt lat="31.7704230" lon="35.0522330">
<ele>647.999939</ele>
<time>2017-10-20T05:22:58.000Z</time>
</trkpt>
<trkpt lat="31.7704070" lon="35.0522680">
<ele>648.099976</ele>
<time>2017-10-20T05:22:59.000Z</time>
</trkpt>
<trkpt lat="31.7703920" lon="35.0523030">
<ele>648.299988</ele>
<time>2017-10-20T05:23:00.000Z</time>
</trkpt>
<trkpt lat="31.7703780" lon="35.0523370">
<ele>648.500000</ele>
<time>2017-10-20T05:23:01.000Z</time>
</trkpt>
<trkpt lat="31.7703660" lon="35.0523670">
<ele>648.699951</ele>
<time>2017-10-20T05:23:02.000Z</time>
</trkpt>
<trkpt lat="31.7703510" lon="35.0523940">
<ele>648.799988</ele>
<time>2017-10-20T05:23:03.000Z</time>
</trkpt>
<trkpt lat="31.7703260" lon="35.0524480">
<ele>649.100037</ele>
<time>2017-10-20T05:23:05.000Z</time>
</trkpt>
<trkpt lat="31.7703030" lon="35.0525090">
<ele>649.399963</ele>
<time>2017-10-20T05:23:07.000Z</time>
</trkpt>
<trkpt lat="31.7702900" lon="35.0525390">
<ele>649.600037</ele>
<time>2017-10-20T05:23:08.000Z</time>
</trkpt>
<trkpt lat="31.7702670" lon="35.0525940">
<ele>649.799988</ele>
<time>2017-10-20T05:23:10.000Z</time>
</trkpt>
<trkpt lat="31.7702450" lon="35.0526500">
<ele>650.099976</ele>
<time>2017-10-20T05:23:12.000Z</time>
</trkpt>
<trkpt lat="31.7702310" lon="35.0526810">
<ele>650.300049</ele>
<time>2017-10-20T05:23:13.000Z</time>
</trkpt>
<trkpt lat="31.7702050" lon="35.0527390">
<ele>650.500000</ele>
<time>2017-10-20T05:23:15.000Z</time>
</trkpt>
<trkpt lat="31.7701810" lon="35.0527910">
<ele>650.799988</ele>
<time>2017-10-20T05:23:17.000Z</time>
</trkpt>
<trkpt lat="31.7701660" lon="35.0528210">
<ele>650.900024</ele>
<time>2017-10-20T05:23:18.000Z</time>
</trkpt>
<trkpt lat="31.7701430" lon="35.0528700">
<ele>651.099976</ele>
<time>2017-10-20T05:23:20.000Z</time>
</trkpt>
<trkpt lat="31.7701130" lon="35.0529280">
<ele>651.200012</ele>
<time>2017-10-20T05:23:22.000Z</time>
</trkpt>
<trkpt lat="31.7701010" lon="35.0529570">
<ele>651.299988</ele>
<time>2017-10-20T05:23:23.000Z</time>
</trkpt>
<trkpt lat="31.7700850" lon="35.0529880">
<ele>651.400024</ele>
<time>2017-10-20T05:23:24.000Z</time>
</trkpt>
<trkpt lat="31.7700620" lon="35.0530360">
<ele>651.500000</ele>
<time>2017-10-20T05:23:26.000Z</time>
</trkpt>
<trkpt lat="31.7700400" lon="35.0530930">
<ele>651.599976</ele>
<time>2017-10-20T05:23:28.000Z</time>
</trkpt>
<trkpt lat="31.7700270" lon="35.0531230">
<ele>651.699951</ele>
<time>2017-10-20T05:23:29.000Z</time>
</trkpt>
<trkpt lat="31.7700130" lon="35.0531520">
<ele>651.799988</ele>
<time>2017-10-20T05:23:30.000Z</time>
</trkpt>
<trkpt lat="31.7699990" lon="35.0531820">
<ele>651.900024</ele>
<time>2017-10-20T05:23:31.000Z</time>
</trkpt>
<trkpt lat="31.7699860" lon="35.0532120">
<ele>652.000000</ele>
<time>2017-10-20T05:23:32.000Z</time>
</trkpt>
<trkpt lat="31.7699620" lon="35.0532630">
<ele>652.100037</ele>
<time>2017-10-20T05:23:34.000Z</time>
</trkpt>
<trkpt lat="31.7699360" lon="35.0533130">
<ele>652.299988</ele>
<time>2017-10-20T05:23:36.000Z</time>
</trkpt>
<trkpt lat="31.7699100" lon="35.0533630">
<ele>652.500000</ele>
<time>2017-10-20T05:23:38.000Z</time>
</trkpt>
<trkpt lat="31.7698850" lon="35.0534200">
<ele>652.700012</ele>
<time>2017-10-20T05:23:40.000Z</time>
</trkpt>
<trkpt lat="31.7698690" lon="35.0534550">
<ele>652.899963</ele>
<time>2017-10-20T05:23:41.000Z</time>
</trkpt>
<trkpt lat="31.7698540" lon="35.0534870">
<ele>653.000000</ele>
<time>2017-10-20T05:23:42.000Z</time>
</trkpt>
<trkpt lat="31.7698360" lon="35.0535160">
<ele>653.200012</ele>
<time>2017-10-20T05:23:43.000Z</time>
</trkpt>
<trkpt lat="31.7698190" lon="35.0535470">
<ele>653.300049</ele>
<time>2017-10-20T05:23:44.000Z</time>
</trkpt>
<trkpt lat="31.7698030" lon="35.0535770">
<ele>653.500000</ele>
<time>2017-10-20T05:23:45.000Z</time>
</trkpt>
<trkpt lat="31.7697860" lon="35.0536050">
<ele>653.599976</ele>
<time>2017-10-20T05:23:46.000Z</time>
</trkpt>
<trkpt lat="31.7697720" lon="35.0536330">
<ele>653.800049</ele>
<time>2017-10-20T05:23:47.000Z</time>
</trkpt>
<trkpt lat="31.7697560" lon="35.0536620">
<ele>653.900024</ele>
<time>2017-10-20T05:23:48.000Z</time>
</trkpt>
<trkpt lat="31.7697400" lon="35.0536910">
<ele>654.099976</ele>
<time>2017-10-20T05:23:49.000Z</time>
</trkpt>
<trkpt lat="31.7697240" lon="35.0537190">
<ele>654.200012</ele>
<time>2017-10-20T05:23:50.000Z</time>
</trkpt>
<trkpt lat="31.7696960" lon="35.0537730">
<ele>654.500061</ele>
<time>2017-10-20T05:23:52.000Z</time>
</trkpt>
<trkpt lat="31.7696790" lon="35.0538050">
<ele>654.700012</ele>
<time>2017-10-20T05:23:53.000Z</time>
</trkpt>
<trkpt lat="31.7696630" lon="35.0538380">
<ele>654.799988</ele>
<time>2017-10-20T05:23:54.000Z</time>
</trkpt>
<trkpt lat="31.7696470" lon="35.0538690">
<ele>655.000000</ele>
<time>2017-10-20T05:23:55.000Z</time>
</trkpt>
<trkpt lat="31.7696290" lon="35.0539000">
<ele>655.100037</ele>
<time>2017-10-20T05:23:56.000Z</time>
</trkpt>
<trkpt lat="31.7696140" lon="35.0539270">
<ele>655.299988</ele>
<time>2017-10-20T05:23:57.000Z</time>
</trkpt>
<trkpt lat="31.7695990" lon="35.0539580">
<ele>655.400024</ele>
<time>2017-10-20T05:23:58.000Z</time>
</trkpt>
<trkpt lat="31.7695850" lon="35.0539880">
<ele>655.600037</ele>
<time>2017-10-20T05:23:59.000Z</time>
</trkpt>
<trkpt lat="31.7695720" lon="35.0540190">
<ele>655.700012</ele>
<time>2017-10-20T05:24:00.000Z</time>
</trkpt>
<trkpt lat="31.7695480" lon="35.0540780">
<ele>656.000000</ele>
<time>2017-10-20T05:24:02.000Z</time>
</trkpt>
<trkpt lat="31.7695340" lon="35.0541330">
<ele>656.200012</ele>
<time>2017-10-20T05:24:04.000Z</time>
</trkpt>
<trkpt lat="31.7695240" lon="35.0541630">
<ele>656.200012</ele>
<time>2017-10-20T05:24:05.000Z</time>
</trkpt>
<trkpt lat="31.7695150" lon="35.0541950">
<ele>656.300049</ele>
<time>2017-10-20T05:24:06.000Z</time>
</trkpt>
<trkpt lat="31.7695080" lon="35.0542270">
<ele>656.399963</ele>
<time>2017-10-20T05:24:07.000Z</time>
</trkpt>
<trkpt lat="31.7694990" lon="35.0542580">
<ele>656.399963</ele>
<time>2017-10-20T05:24:08.000Z</time>
</trkpt>
<trkpt lat="31.7694880" lon="35.0542890">
<ele>656.500000</ele>
<time>2017-10-20T05:24:09.000Z</time>
</trkpt>
<trkpt lat="31.7694720" lon="35.0543460">
<ele>656.599976</ele>
<time>2017-10-20T05:24:11.000Z</time>
</trkpt>
<trkpt lat="31.7694600" lon="35.0544040">
<ele>656.700012</ele>
<time>2017-10-20T05:24:13.000Z</time>
</trkpt>
<trkpt lat="31.7694470" lon="35.0544670">
<ele>656.800049</ele>
<time>2017-10-20T05:24:15.000Z</time>
</trkpt>
<trkpt lat="31.7694420" lon="35.0544990">
<ele>656.800049</ele>
<time>2017-10-20T05:24:16.000Z</time>
</trkpt>
<trkpt lat="31.7694350" lon="35.0545320">
<ele>656.800049</ele>
<time>2017-10-20T05:24:17.000Z</time>
</trkpt>
<trkpt lat="31.7694290" lon="35.0545680">
<ele>656.800049</ele>
<time>2017-10-20T05:24:18.000Z</time>
</trkpt>
<trkpt lat="31.7694270" lon="35.0546050">
<ele>656.900024</ele>
<time>2017-10-20T05:24:19.000Z</time>
</trkpt>
<trkpt lat="31.7694230" lon="35.0546370">
<ele>656.900024</ele>
<time>2017-10-20T05:24:20.000Z</time>
</trkpt>
<trkpt lat="31.7694190" lon="35.0546970">
<ele>656.900024</ele>
<time>2017-10-20T05:24:22.000Z</time>
</trkpt>
<trkpt lat="31.7694200" lon="35.0547560">
<ele>656.900024</ele>
<time>2017-10-20T05:24:24.000Z</time>
</trkpt>
<trkpt lat="31.7694230" lon="35.0548100">
<ele>657.000000</ele>
<time>2017-10-20T05:24:26.000Z</time>
</trkpt>
<trkpt lat="31.7694170" lon="35.0548720">
<ele>657.000000</ele>
<time>2017-10-20T05:24:28.000Z</time>
</trkpt>
<trkpt lat="31.7694110" lon="35.0549330">
<ele>657.000000</ele>
<time>2017-10-20T05:24:30.000Z</time>
</trkpt>
<trkpt lat="31.7694080" lon="35.0549660">
<ele>657.299988</ele>
<time>2017-10-20T05:24:31.000Z</time>
</trkpt>
<trkpt lat="31.7694070" lon="35.0550000">
<ele>657.700012</ele>
<time>2017-10-20T05:24:32.000Z</time>
</trkpt>
<trkpt lat="31.7694030" lon="35.0550360">
<ele>658.000000</ele>
<time>2017-10-20T05:24:33.000Z</time>
</trkpt>
<trkpt lat="31.7693990" lon="35.0550700">
<ele>658.299988</ele>
<time>2017-10-20T05:24:34.000Z</time>
</trkpt>
<trkpt lat="31.7693980" lon="35.0551020">
<ele>658.500000</ele>
<time>2017-10-20T05:24:35.000Z</time>
</trkpt>
<trkpt lat="31.7693970" lon="35.0551340">
<ele>658.600037</ele>
<time>2017-10-20T05:24:36.000Z</time>
</trkpt>
<trkpt lat="31.7693970" lon="35.0551930">
<ele>658.700012</ele>
<time>2017-10-20T05:24:38.000Z</time>
</trkpt>
<trkpt lat="31.7693980" lon="35.0552510">
<ele>658.799988</ele>
<time>2017-10-20T05:24:40.000Z</time>
</trkpt>
<trkpt lat="31.7693950" lon="35.0553120">
<ele>658.899963</ele>
<time>2017-10-20T05:24:42.000Z</time>
</trkpt>
<trkpt lat="31.7693920" lon="35.0553710">
<ele>659.000000</ele>
<time>2017-10-20T05:24:44.000Z</time>
</trkpt>
<trkpt lat="31.7693890" lon="35.0554290">
<ele>659.200012</ele>
<time>2017-10-20T05:24:46.000Z</time>
</trkpt>
<trkpt lat="31.7693850" lon="35.0554610">
<ele>659.300049</ele>
<time>2017-10-20T05:24:47.000Z</time>
</trkpt>
<trkpt lat="31.7693810" lon="35.0554930">
<ele>659.300049</ele>
<time>2017-10-20T05:24:48.000Z</time>
</trkpt>
<trkpt lat="31.7693770" lon="35.0555520">
<ele>659.599976</ele>
<time>2017-10-20T05:24:50.000Z</time>
</trkpt>
<trkpt lat="31.7693730" lon="35.0556100">
<ele>659.900024</ele>
<time>2017-10-20T05:24:52.000Z</time>
</trkpt>
<trkpt lat="31.7693700" lon="35.0556670">
<ele>660.299988</ele>
<time>2017-10-20T05:24:54.000Z</time>
</trkpt>
<trkpt lat="31.7693660" lon="35.0557280">
<ele>660.499939</ele>
<time>2017-10-20T05:24:56.000Z</time>
</trkpt>
<trkpt lat="31.7693640" lon="35.0557610">
<ele>660.599976</ele>
<time>2017-10-20T05:24:57.000Z</time>
</trkpt>
<trkpt lat="31.7693630" lon="35.0557930">
<ele>660.700012</ele>
<time>2017-10-20T05:24:58.000Z</time>
</trkpt>
<trkpt lat="31.7693620" lon="35.0558570">
<ele>660.799988</ele>
<time>2017-10-20T05:25:00.000Z</time>
</trkpt>
<trkpt lat="31.7693610" lon="35.0558910">
<ele>660.900024</ele>
<time>2017-10-20T05:25:01.000Z</time>
</trkpt>
<trkpt lat="31.7693600" lon="35.0559480">
<ele>661.000000</ele>
<time>2017-10-20T05:25:03.000Z</time>
</trkpt>
<trkpt lat="31.7693570" lon="35.0560010">
<ele>661.099976</ele>
<time>2017-10-20T05:25:05.000Z</time>
</trkpt>
<trkpt lat="31.7693540" lon="35.0560590">
<ele>661.299988</ele>
<time>2017-10-20T05:25:07.000Z</time>
</trkpt>
<trkpt lat="31.7693490" lon="35.0561180">
<ele>661.400024</ele>
<time>2017-10-20T05:25:09.000Z</time>
</trkpt>
<trkpt lat="31.7693410" lon="35.0561860">
<ele>661.899963</ele>
<time>2017-10-20T05:25:11.000Z</time>
</trkpt>
<trkpt lat="31.7693360" lon="35.0562220">
<ele>662.100037</ele>
<time>2017-10-20T05:25:12.000Z</time>
</trkpt>
<trkpt lat="31.7693330" lon="35.0562540">
<ele>662.299988</ele>
<time>2017-10-20T05:25:13.000Z</time>
</trkpt>
<trkpt lat="31.7693290" lon="35.0562860">
<ele>662.500000</ele>
<time>2017-10-20T05:25:14.000Z</time>
</trkpt>
<trkpt lat="31.7693230" lon="35.0563250">
<ele>662.599976</ele>
<time>2017-10-20T05:25:15.000Z</time>
</trkpt>
<trkpt lat="31.7693180" lon="35.0563630">
<ele>662.700012</ele>
<time>2017-10-20T05:25:16.000Z</time>
</trkpt>
<trkpt lat="31.7693130" lon="35.0563970">
<ele>662.800049</ele>
<time>2017-10-20T05:25:17.000Z</time>
</trkpt>
<trkpt lat="31.7693050" lon="35.0564570">
<ele>663.000000</ele>
<time>2017-10-20T05:25:19.000Z</time>
</trkpt>
<trkpt lat="31.7692990" lon="35.0565180">
<ele>663.200012</ele>
<time>2017-10-20T05:25:21.000Z</time>
</trkpt>
<trkpt lat="31.7692900" lon="35.0565880">
<ele>663.700012</ele>
<time>2017-10-20T05:25:23.000Z</time>
</trkpt>
<trkpt lat="31.7692830" lon="35.0566240">
<ele>663.900024</ele>
<time>2017-10-20T05:25:24.000Z</time>
</trkpt>
<trkpt lat="31.7692780" lon="35.0566660">
<ele>664.299988</ele>
<time>2017-10-20T05:25:25.000Z</time>
</trkpt>
<trkpt lat="31.7692720" lon="35.0567030">
<ele>664.400024</ele>
<time>2017-10-20T05:25:26.000Z</time>
</trkpt>
<trkpt lat="31.7692690" lon="35.0567400">
<ele>664.600037</ele>
<time>2017-10-20T05:25:27.000Z</time>
</trkpt>
<trkpt lat="31.7692650" lon="35.0568060">
<ele>664.899963</ele>
<time>2017-10-20T05:25:29.000Z</time>
</trkpt>
<trkpt lat="31.7692640" lon="35.0568410">
<ele>665.000000</ele>
<time>2017-10-20T05:25:30.000Z</time>
</trkpt>
<trkpt lat="31.7692650" lon="35.0568760">
<ele>665.100037</ele>
<time>2017-10-20T05:25:31.000Z</time>
</trkpt>
<trkpt lat="31.7692740" lon="35.0569380">
<ele>665.399963</ele>
<time>2017-10-20T05:25:33.000Z</time>
</trkpt>
<trkpt lat="31.7692860" lon="35.0569940">
<ele>665.800049</ele>
<time>2017-10-20T05:25:35.000Z</time>
</trkpt>
<trkpt lat="31.7693010" lon="35.0570470">
<ele>666.099976</ele>
<time>2017-10-20T05:25:37.000Z</time>
</trkpt>
<trkpt lat="31.7693200" lon="35.0570990">
<ele>666.200012</ele>
<time>2017-10-20T05:25:39.000Z</time>
</trkpt>
<trkpt lat="31.7693420" lon="35.0571490">
<ele>666.299988</ele>
<time>2017-10-20T05:25:41.000Z</time>
</trkpt>
<trkpt lat="31.7693590" lon="35.0571770">
<ele>666.400024</ele>
<time>2017-10-20T05:25:42.000Z</time>
</trkpt>
<trkpt lat="31.7693810" lon="35.0572230">
<ele>666.400024</ele>
<time>2017-10-20T05:25:44.000Z</time>
</trkpt>
<trkpt lat="31.7693980" lon="35.0572520">
<ele>666.499939</ele>
<time>2017-10-20T05:25:45.000Z</time>
</trkpt>
<trkpt lat="31.7694250" lon="35.0573000">
<ele>666.499939</ele>
<time>2017-10-20T05:25:47.000Z</time>
</trkpt>
<trkpt lat="31.7694400" lon="35.0573270">
<ele>666.499939</ele>
<time>2017-10-20T05:25:48.000Z</time>
</trkpt>
<trkpt lat="31.7694550" lon="35.0573550">
<ele>666.599976</ele>
<time>2017-10-20T05:25:49.000Z</time>
</trkpt>
<trkpt lat="31.7694740" lon="35.0573890">
<ele>666.599976</ele>
<time>2017-10-20T05:25:50.000Z</time>
</trkpt>
<trkpt lat="31.7694900" lon="35.0574170">
<ele>666.599976</ele>
<time>2017-10-20T05:25:51.000Z</time>
</trkpt>
<trkpt lat="31.7695050" lon="35.0574470">
<ele>666.599976</ele>
<time>2017-10-20T05:25:52.000Z</time>
</trkpt>
<trkpt lat="31.7695200" lon="35.0574770">
<ele>666.599976</ele>
<time>2017-10-20T05:25:53.000Z</time>
</trkpt>
<trkpt lat="31.7695340" lon="35.0575080">
<ele>666.599976</ele>
<time>2017-10-20T05:25:54.000Z</time>
</trkpt>
<trkpt lat="31.7695480" lon="35.0575390">
<ele>666.700012</ele>
<time>2017-10-20T05:25:55.000Z</time>
</trkpt>
<trkpt lat="31.7695610" lon="35.0575700">
<ele>666.700012</ele>
<time>2017-10-20T05:25:56.000Z</time>
</trkpt>
<trkpt lat="31.7695740" lon="35.0575990">
<ele>666.700012</ele>
<time>2017-10-20T05:25:57.000Z</time>
</trkpt>
<trkpt lat="31.7695860" lon="35.0576300">
<ele>666.700012</ele>
<time>2017-10-20T05:25:58.000Z</time>
</trkpt>
<trkpt lat="31.7695980" lon="35.0576590">
<ele>666.700012</ele>
<time>2017-10-20T05:25:59.000Z</time>
</trkpt>
<trkpt lat="31.7696210" lon="35.0577130">
<ele>666.700012</ele>
<time>2017-10-20T05:26:01.000Z</time>
</trkpt>
<trkpt lat="31.7696320" lon="35.0577450">
<ele>666.599976</ele>
<time>2017-10-20T05:26:02.000Z</time>
</trkpt>
<trkpt lat="31.7696440" lon="35.0577790">
<ele>666.599976</ele>
<time>2017-10-20T05:26:03.000Z</time>
</trkpt>
<trkpt lat="31.7696560" lon="35.0578150">
<ele>666.599976</ele>
<time>2017-10-20T05:26:04.000Z</time>
</trkpt>
<trkpt lat="31.7696690" lon="35.0578510">
<ele>666.599976</ele>
<time>2017-10-20T05:26:05.000Z</time>
</trkpt>
<trkpt lat="31.7696820" lon="35.0578860">
<ele>666.599976</ele>
<time>2017-10-20T05:26:06.000Z</time>
</trkpt>
<trkpt lat="31.7696950" lon="35.0579240">
<ele>666.599976</ele>
<time>2017-10-20T05:26:07.000Z</time>
</trkpt>
<trkpt lat="31.7697060" lon="35.0579550">
<ele>666.599976</ele>
<time>2017-10-20T05:26:08.000Z</time>
</trkpt>
<trkpt lat="31.7697190" lon="35.0579920">
<ele>666.599976</ele>
<time>2017-10-20T05:26:09.000Z</time>
</trkpt>
<trkpt lat="31.7697280" lon="35.0580270">
<ele>666.599976</ele>
<time>2017-10-20T05:26:10.000Z</time>
</trkpt>
<trkpt lat="31.7697390" lon="35.0580640">
<ele>666.599976</ele>
<time>2017-10-20T05:26:11.000Z</time>
</trkpt>
<trkpt lat="31.7697480" lon="35.0580970">
<ele>666.599976</ele>
<time>2017-10-20T05:26:12.000Z</time>
</trkpt>
<trkpt lat="31.7697590" lon="35.0581340">
<ele>666.599976</ele>
<time>2017-10-20T05:26:13.000Z</time>
</trkpt>
<trkpt lat="31.7697660" lon="35.0581690">
<ele>666.599976</ele>
<time>2017-10-20T05:26:14.000Z</time>
</trkpt>
<trkpt lat="31.7697780" lon="35.0582090">
<ele>666.599976</ele>
<time>2017-10-20T05:26:15.000Z</time>
</trkpt>
<trkpt lat="31.7697890" lon="35.0582490">
<ele>666.599976</ele>
<time>2017-10-20T05:26:16.000Z</time>
</trkpt>
<trkpt lat="31.7698000" lon="35.0582910">
<ele>666.599976</ele>
<time>2017-10-20T05:26:17.000Z</time>
</trkpt>
<trkpt lat="31.7698070" lon="35.0583270">
<ele>666.599976</ele>
<time>2017-10-20T05:26:18.000Z</time>
</trkpt>
<trkpt lat="31.7698160" lon="35.0583670">
<ele>666.599976</ele>
<time>2017-10-20T05:26:19.000Z</time>
</trkpt>
<trkpt lat="31.7698220" lon="35.0584020">
<ele>666.599976</ele>
<time>2017-10-20T05:26:20.000Z</time>
</trkpt>
<trkpt lat="31.7698280" lon="35.0584410">
<ele>666.599976</ele>
<time>2017-10-20T05:26:21.000Z</time>
</trkpt>
<trkpt lat="31.7698300" lon="35.0584730">
<ele>666.599976</ele>
<time>2017-10-20T05:26:22.000Z</time>
</trkpt>
<trkpt lat="31.7698350" lon="35.0585100">
<ele>666.599976</ele>
<time>2017-10-20T05:26:23.000Z</time>
</trkpt>
<trkpt lat="31.7698410" lon="35.0585470">
<ele>666.599976</ele>
<time>2017-10-20T05:26:24.000Z</time>
</trkpt>
<trkpt lat="31.7698490" lon="35.0585890">
<ele>666.499939</ele>
<time>2017-10-20T05:26:25.000Z</time>
</trkpt>
<trkpt lat="31.7698560" lon="35.0586290">
<ele>666.499939</ele>
<time>2017-10-20T05:26:26.000Z</time>
</trkpt>
<trkpt lat="31.7698640" lon="35.0586710">
<ele>666.499939</ele>
<time>2017-10-20T05:26:27.000Z</time>
</trkpt>
<trkpt lat="31.7698680" lon="35.0587080">
<ele>666.499939</ele>
<time>2017-10-20T05:26:28.000Z</time>
</trkpt>
<trkpt lat="31.7698760" lon="35.0587500">
<ele>666.499939</ele>
<time>2017-10-20T05:26:29.000Z</time>
</trkpt>
<trkpt lat="31.7698830" lon="35.0587870">
<ele>666.499939</ele>
<time>2017-10-20T05:26:30.000Z</time>
</trkpt>
<trkpt lat="31.7698920" lon="35.0588260">
<ele>666.499939</ele>
<time>2017-10-20T05:26:31.000Z</time>
</trkpt>
<trkpt lat="31.7699000" lon="35.0588600">
<ele>666.499939</ele>
<time>2017-10-20T05:26:32.000Z</time>
</trkpt>
<trkpt lat="31.7699080" lon="35.0589020">
<ele>666.499939</ele>
<time>2017-10-20T05:26:33.000Z</time>
</trkpt>
<trkpt lat="31.7699150" lon="35.0589360">
<ele>666.499939</ele>
<time>2017-10-20T05:26:34.000Z</time>
</trkpt>
<trkpt lat="31.7699260" lon="35.0589750">
<ele>666.499939</ele>
<time>2017-10-20T05:26:35.000Z</time>
</trkpt>
<trkpt lat="31.7699380" lon="35.0590120">
<ele>666.499939</ele>
<time>2017-10-20T05:26:36.000Z</time>
</trkpt>
<trkpt lat="31.7699560" lon="35.0590530">
<ele>666.499939</ele>
<time>2017-10-20T05:26:37.000Z</time>
</trkpt>
<trkpt lat="31.7699750" lon="35.0590940">
<ele>666.400024</ele>
<time>2017-10-20T05:26:38.000Z</time>
</trkpt>
<trkpt lat="31.7699930" lon="35.0591340">
<ele>666.400024</ele>
<time>2017-10-20T05:26:39.000Z</time>
</trkpt>
<trkpt lat="31.7700130" lon="35.0591740">
<ele>666.400024</ele>
<time>2017-10-20T05:26:40.000Z</time>
</trkpt>
<trkpt lat="31.7700410" lon="35.0592120">
<ele>666.400024</ele>
<time>2017-10-20T05:26:41.000Z</time>
</trkpt>
<trkpt lat="31.7700710" lon="35.0592550">
<ele>666.299988</ele>
<time>2017-10-20T05:26:42.000Z</time>
</trkpt>
<trkpt lat="31.7701000" lon="35.0592920">
<ele>666.299988</ele>
<time>2017-10-20T05:26:43.000Z</time>
</trkpt>
<trkpt lat="31.7701330" lon="35.0593330">
<ele>666.200012</ele>
<time>2017-10-20T05:26:44.000Z</time>
</trkpt>
<trkpt lat="31.7701690" lon="35.0593740">
<ele>666.200012</ele>
<time>2017-10-20T05:26:45.000Z</time>
</trkpt>
<trkpt lat="31.7702050" lon="35.0594170">
<ele>666.099976</ele>
<time>2017-10-20T05:26:46.000Z</time>
</trkpt>
<trkpt lat="31.7702410" lon="35.0594590">
<ele>666.099976</ele>
<time>2017-10-20T05:26:47.000Z</time>
</trkpt>
<trkpt lat="31.7702780" lon="35.0595030">
<ele>666.000000</ele>
<time>2017-10-20T05:26:48.000Z</time>
</trkpt>
<trkpt lat="31.7703160" lon="35.0595460">
<ele>665.899963</ele>
<time>2017-10-20T05:26:49.000Z</time>
</trkpt>
<trkpt lat="31.7703540" lon="35.0595890">
<ele>665.800049</ele>
<time>2017-10-20T05:26:50.000Z</time>
</trkpt>
<trkpt lat="31.7703920" lon="35.0596380">
<ele>665.700012</ele>
<time>2017-10-20T05:26:51.000Z</time>
</trkpt>
<trkpt lat="31.7704330" lon="35.0596860">
<ele>665.599976</ele>
<time>2017-10-20T05:26:52.000Z</time>
</trkpt>
<trkpt lat="31.7704730" lon="35.0597370">
<ele>665.399963</ele>
<time>2017-10-20T05:26:53.000Z</time>
</trkpt>
<trkpt lat="31.7705100" lon="35.0597860">
<ele>665.100037</ele>
<time>2017-10-20T05:26:54.000Z</time>
</trkpt>
<trkpt lat="31.7705440" lon="35.0598310">
<ele>664.799988</ele>
<time>2017-10-20T05:26:55.000Z</time>
</trkpt>
<trkpt lat="31.7705740" lon="35.0598690">
<ele>664.600037</ele>
<time>2017-10-20T05:26:56.000Z</time>
</trkpt>
<trkpt lat="31.7706030" lon="35.0599080">
<ele>664.400024</ele>
<time>2017-10-20T05:26:57.000Z</time>
</trkpt>
<trkpt lat="31.7706280" lon="35.0599410">
<ele>664.199951</ele>
<time>2017-10-20T05:26:58.000Z</time>
</trkpt>
<trkpt lat="31.7706520" lon="35.0599740">
<ele>664.099976</ele>
<time>2017-10-20T05:26:59.000Z</time>
</trkpt>
<trkpt lat="31.7706680" lon="35.0600000">
<ele>664.000000</ele>
<time>2017-10-20T05:27:00.000Z</time>
</trkpt>
<trkpt lat="31.7706860" lon="35.0600280">
<ele>663.900024</ele>
<time>2017-10-20T05:27:01.000Z</time>
</trkpt>
<trkpt lat="31.7707010" lon="35.0600560">
<ele>663.900024</ele>
<time>2017-10-20T05:27:02.000Z</time>
</trkpt>
<trkpt lat="31.7707250" lon="35.0601080">
<ele>663.700012</ele>
<time>2017-10-20T05:27:04.000Z</time>
</trkpt>
<trkpt lat="31.7707290" lon="35.0601620">
<ele>663.599976</ele>
<time>2017-10-20T05:27:06.000Z</time>
</trkpt>
<trkpt lat="31.7707340" lon="35.0602000">
<ele>663.499939</ele>
<time>2017-10-20T05:27:08.000Z</time>
</trkpt>
<trkpt lat="31.7707520" lon="35.0602290">
<ele>663.299988</ele>
<time>2017-10-20T05:27:10.000Z</time>
</trkpt>
<trkpt lat="31.7707790" lon="35.0602440">
<ele>663.200012</ele>
<time>2017-10-20T05:27:13.000Z</time>
</trkpt>
<trkpt lat="31.7708070" lon="35.0602570">
<ele>663.099976</ele>
<time>2017-10-20T05:27:15.000Z</time>
</trkpt>
<trkpt lat="31.7708400" lon="35.0602950">
<ele>662.800049</ele>
<time>2017-10-20T05:27:17.000Z</time>
</trkpt>
<trkpt lat="31.7708570" lon="35.0603240">
<ele>662.700012</ele>
<time>2017-10-20T05:27:18.000Z</time>
</trkpt>
<trkpt lat="31.7708890" lon="35.0603800">
<ele>662.399963</ele>
<time>2017-10-20T05:27:20.000Z</time>
</trkpt>
<trkpt lat="31.7709060" lon="35.0604100">
<ele>662.200012</ele>
<time>2017-10-20T05:27:21.000Z</time>
</trkpt>
<trkpt lat="31.7709280" lon="35.0604500">
<ele>662.000000</ele>
<time>2017-10-20T05:27:22.000Z</time>
</trkpt>
<trkpt lat="31.7709490" lon="35.0604850">
<ele>661.899963</ele>
<time>2017-10-20T05:27:23.000Z</time>
</trkpt>
<trkpt lat="31.7709760" lon="35.0605270">
<ele>661.699951</ele>
<time>2017-10-20T05:27:24.000Z</time>
</trkpt>
<trkpt lat="31.7710010" lon="35.0605640">
<ele>661.600037</ele>
<time>2017-10-20T05:27:25.000Z</time>
</trkpt>
<trkpt lat="31.7710260" lon="35.0606130">
<ele>661.400024</ele>
<time>2017-10-20T05:27:26.000Z</time>
</trkpt>
<trkpt lat="31.7710480" lon="35.0606560">
<ele>661.199951</ele>
<time>2017-10-20T05:27:27.000Z</time>
</trkpt>
<trkpt lat="31.7710670" lon="35.0607100">
<ele>660.900024</ele>
<time>2017-10-20T05:27:28.000Z</time>
</trkpt>
<trkpt lat="31.7710840" lon="35.0607590">
<ele>660.700012</ele>
<time>2017-10-20T05:27:29.000Z</time>
</trkpt>
<trkpt lat="31.7710980" lon="35.0608140">
<ele>660.499939</ele>
<time>2017-10-20T05:27:30.000Z</time>
</trkpt>
<trkpt lat="31.7711040" lon="35.0608650">
<ele>660.299988</ele>
<time>2017-10-20T05:27:31.000Z</time>
</trkpt>
<trkpt lat="31.7711090" lon="35.0609150">
<ele>660.099976</ele>
<time>2017-10-20T05:27:32.000Z</time>
</trkpt>
<trkpt lat="31.7711140" lon="35.0609610">
<ele>659.900024</ele>
<time>2017-10-20T05:27:33.000Z</time>
</trkpt>
<trkpt lat="31.7711190" lon="35.0610130">
<ele>659.800049</ele>
<time>2017-10-20T05:27:34.000Z</time>
</trkpt>
<trkpt lat="31.7711210" lon="35.0610550">
<ele>659.700012</ele>
<time>2017-10-20T05:27:35.000Z</time>
</trkpt>
<trkpt lat="31.7711230" lon="35.0611020">
<ele>659.700012</ele>
<time>2017-10-20T05:27:36.000Z</time>
</trkpt>
<trkpt lat="31.7711240" lon="35.0611430">
<ele>659.599976</ele>
<time>2017-10-20T05:27:37.000Z</time>
</trkpt>
<trkpt lat="31.7711260" lon="35.0611880">
<ele>659.599976</ele>
<time>2017-10-20T05:27:38.000Z</time>
</trkpt>
<trkpt lat="31.7711230" lon="35.0612230">
<ele>659.500000</ele>
<time>2017-10-20T05:27:39.000Z</time>
</trkpt>
<trkpt lat="31.7711240" lon="35.0612640">
<ele>659.500000</ele>
<time>2017-10-20T05:27:40.000Z</time>
</trkpt>
<trkpt lat="31.7711240" lon="35.0612990">
<ele>659.399963</ele>
<time>2017-10-20T05:27:41.000Z</time>
</trkpt>
<trkpt lat="31.7711250" lon="35.0613420">
<ele>659.300049</ele>
<time>2017-10-20T05:27:42.000Z</time>
</trkpt>
<trkpt lat="31.7711200" lon="35.0613800">
<ele>659.200012</ele>
<time>2017-10-20T05:27:43.000Z</time>
</trkpt>
<trkpt lat="31.7711140" lon="35.0614250">
<ele>659.200012</ele>
<time>2017-10-20T05:27:44.000Z</time>
</trkpt>
<trkpt lat="31.7711090" lon="35.0614660">
<ele>659.100037</ele>
<time>2017-10-20T05:27:45.000Z</time>
</trkpt>
<trkpt lat="31.7711050" lon="35.0615180">
<ele>659.100037</ele>
<time>2017-10-20T05:27:46.000Z</time>
</trkpt>
<trkpt lat="31.7710990" lon="35.0615660">
<ele>659.000000</ele>
<time>2017-10-20T05:27:47.000Z</time>
</trkpt>
<trkpt lat="31.7710950" lon="35.0616260">
<ele>658.899963</ele>
<time>2017-10-20T05:27:48.000Z</time>
</trkpt>
<trkpt lat="31.7710870" lon="35.0616840">
<ele>658.799988</ele>
<time>2017-10-20T05:27:49.000Z</time>
</trkpt>
<trkpt lat="31.7710860" lon="35.0617520">
<ele>658.700012</ele>
<time>2017-10-20T05:27:50.000Z</time>
</trkpt>
<trkpt lat="31.7710810" lon="35.0618160">
<ele>658.400024</ele>
<time>2017-10-20T05:27:51.000Z</time>
</trkpt>
<trkpt lat="31.7710770" lon="35.0618850">
<ele>658.100037</ele>
<time>2017-10-20T05:27:52.000Z</time>
</trkpt>
<trkpt lat="31.7710720" lon="35.0619510">
<ele>657.799988</ele>
<time>2017-10-20T05:27:53.000Z</time>
</trkpt>
<trkpt lat="31.7710670" lon="35.0620220">
<ele>657.500061</ele>
<time>2017-10-20T05:27:54.000Z</time>
</trkpt>
<trkpt lat="31.7710650" lon="35.0620930">
<ele>657.299988</ele>
<time>2017-10-20T05:27:55.000Z</time>
</trkpt>
<trkpt lat="31.7710630" lon="35.0621620">
<ele>657.099976</ele>
<time>2017-10-20T05:27:56.000Z</time>
</trkpt>
<trkpt lat="31.7710610" lon="35.0622370">
<ele>657.000000</ele>
<time>2017-10-20T05:27:57.000Z</time>
</trkpt>
<trkpt lat="31.7710620" lon="35.0623110">
<ele>656.700012</ele>
<time>2017-10-20T05:27:58.000Z</time>
</trkpt>
<trkpt lat="31.7710670" lon="35.0623840">
<ele>656.399963</ele>
<time>2017-10-20T05:27:59.000Z</time>
</trkpt>
<trkpt lat="31.7710740" lon="35.0624580">
<ele>656.100037</ele>
<time>2017-10-20T05:28:00.000Z</time>
</trkpt>
<trkpt lat="31.7710810" lon="35.0625300">
<ele>655.799988</ele>
<time>2017-10-20T05:28:01.000Z</time>
</trkpt>
<trkpt lat="31.7710870" lon="35.0626020">
<ele>655.500000</ele>
<time>2017-10-20T05:28:02.000Z</time>
</trkpt>
<trkpt lat="31.7710980" lon="35.0626730">
<ele>655.299988</ele>
<time>2017-10-20T05:28:03.000Z</time>
</trkpt>
<trkpt lat="31.7711130" lon="35.0627430">
<ele>655.199951</ele>
<time>2017-10-20T05:28:04.000Z</time>
</trkpt>
<trkpt lat="31.7711270" lon="35.0628100">
<ele>655.100037</ele>
<time>2017-10-20T05:28:05.000Z</time>
</trkpt>
<trkpt lat="31.7711400" lon="35.0628740">
<ele>655.100037</ele>
<time>2017-10-20T05:28:06.000Z</time>
</trkpt>
<trkpt lat="31.7711540" lon="35.0629340">
<ele>655.100037</ele>
<time>2017-10-20T05:28:07.000Z</time>
</trkpt>
<trkpt lat="31.7711690" lon="35.0629950">
<ele>655.000000</ele>
<time>2017-10-20T05:28:08.000Z</time>
</trkpt>
<trkpt lat="31.7711830" lon="35.0630520">
<ele>655.000000</ele>
<time>2017-10-20T05:28:09.000Z</time>
</trkpt>
<trkpt lat="31.7712010" lon="35.0631090">
<ele>654.900024</ele>
<time>2017-10-20T05:28:10.000Z</time>
</trkpt>
<trkpt lat="31.7712210" lon="35.0631640">
<ele>654.900024</ele>
<time>2017-10-20T05:28:11.000Z</time>
</trkpt>
<trkpt lat="31.7712370" lon="35.0632170">
<ele>654.900024</ele>
<time>2017-10-20T05:28:12.000Z</time>
</trkpt>
<trkpt lat="31.7712530" lon="35.0632680">
<ele>654.799988</ele>
<time>2017-10-20T05:28:13.000Z</time>
</trkpt>
<trkpt lat="31.7712680" lon="35.0633190">
<ele>654.799988</ele>
<time>2017-10-20T05:28:14.000Z</time>
</trkpt>
<trkpt lat="31.7712840" lon="35.0633690">
<ele>654.799988</ele>
<time>2017-10-20T05:28:15.000Z</time>
</trkpt>
<trkpt lat="31.7713040" lon="35.0634190">
<ele>654.700012</ele>
<time>2017-10-20T05:28:16.000Z</time>
</trkpt>
<trkpt lat="31.7713210" lon="35.0634670">
<ele>654.700012</ele>
<time>2017-10-20T05:28:17.000Z</time>
</trkpt>
<trkpt lat="31.7713330" lon="35.0635110">
<ele>654.700012</ele>
<time>2017-10-20T05:28:18.000Z</time>
</trkpt>
<trkpt lat="31.7713450" lon="35.0635570">
<ele>654.599976</ele>
<time>2017-10-20T05:28:19.000Z</time>
</trkpt>
<trkpt lat="31.7713580" lon="35.0636010">
<ele>654.599976</ele>
<time>2017-10-20T05:28:20.000Z</time>
</trkpt>
<trkpt lat="31.7713740" lon="35.0636480">
<ele>654.599976</ele>
<time>2017-10-20T05:28:21.000Z</time>
</trkpt>
<trkpt lat="31.7713880" lon="35.0636940">
<ele>654.500061</ele>
<time>2017-10-20T05:28:22.000Z</time>
</trkpt>
<trkpt lat="31.7714000" lon="35.0637430">
<ele>654.500061</ele>
<time>2017-10-20T05:28:23.000Z</time>
</trkpt>
<trkpt lat="31.7714100" lon="35.0637920">
<ele>654.400024</ele>
<time>2017-10-20T05:28:24.000Z</time>
</trkpt>
<trkpt lat="31.7714220" lon="35.0638400">
<ele>654.400024</ele>
<time>2017-10-20T05:28:25.000Z</time>
</trkpt>
<trkpt lat="31.7714390" lon="35.0638910">
<ele>654.299988</ele>
<time>2017-10-20T05:28:26.000Z</time>
</trkpt>
<trkpt lat="31.7714540" lon="35.0639490">
<ele>654.299988</ele>
<time>2017-10-20T05:28:27.000Z</time>
</trkpt>
<trkpt lat="31.7714700" lon="35.0640090">
<ele>654.200012</ele>
<time>2017-10-20T05:28:28.000Z</time>
</trkpt>
<trkpt lat="31.7714870" lon="35.0640750">
<ele>653.999939</ele>
<time>2017-10-20T05:28:29.000Z</time>
</trkpt>
<trkpt lat="31.7715070" lon="35.0641440">
<ele>653.700012</ele>
<time>2017-10-20T05:28:30.000Z</time>
</trkpt>
<trkpt lat="31.7715250" lon="35.0642170">
<ele>653.399963</ele>
<time>2017-10-20T05:28:31.000Z</time>
</trkpt>
<trkpt lat="31.7715450" lon="35.0642910">
<ele>652.899963</ele>
<time>2017-10-20T05:28:32.000Z</time>
</trkpt>
<trkpt lat="31.7715650" lon="35.0643670">
<ele>652.500000</ele>
<time>2017-10-20T05:28:33.000Z</time>
</trkpt>
<trkpt lat="31.7715890" lon="35.0644450">
<ele>652.000000</ele>
<time>2017-10-20T05:28:34.000Z</time>
</trkpt>
<trkpt lat="31.7716180" lon="35.0645260">
<ele>651.500000</ele>
<time>2017-10-20T05:28:35.000Z</time>
</trkpt>
<trkpt lat="31.7716450" lon="35.0645910">
<ele>651.200012</ele>
<time>2017-10-20T05:28:36.000Z</time>
</trkpt>
<trkpt lat="31.7716720" lon="35.0646460">
<ele>650.799988</ele>
<time>2017-10-20T05:28:37.000Z</time>
</trkpt>
<trkpt lat="31.7716960" lon="35.0646880">
<ele>650.599976</ele>
<time>2017-10-20T05:28:38.000Z</time>
</trkpt>
<trkpt lat="31.7717110" lon="35.0647170">
<ele>650.500000</ele>
<time>2017-10-20T05:28:39.000Z</time>
</trkpt>
<trkpt lat="31.7717320" lon="35.0647470">
<ele>650.300049</ele>
<time>2017-10-20T05:28:41.000Z</time>
</trkpt>
<trkpt lat="31.7717580" lon="35.0647620">
<ele>650.200012</ele>
<time>2017-10-20T05:28:44.000Z</time>
</trkpt>
<trkpt lat="31.7717740" lon="35.0647930">
<ele>650.200012</ele>
<time>2017-10-20T05:28:47.000Z</time>
</trkpt>
<trkpt lat="31.7717750" lon="35.0648260">
<ele>650.200012</ele>
<time>2017-10-20T05:28:50.000Z</time>
</trkpt>
<trkpt lat="31.7717580" lon="35.0648650">
<ele>650.200012</ele>
<time>2017-10-20T05:28:53.000Z</time>
</trkpt>
<trkpt lat="31.7717400" lon="35.0649050">
<ele>650.300049</ele>
<time>2017-10-20T05:28:55.000Z</time>
</trkpt>
<trkpt lat="31.7717320" lon="35.0649490">
<ele>650.300049</ele>
<time>2017-10-20T05:28:57.000Z</time>
</trkpt>
<trkpt lat="31.7717170" lon="35.0649990">
<ele>650.399963</ele>
<time>2017-10-20T05:28:59.000Z</time>
</trkpt>
<trkpt lat="31.7717050" lon="35.0650310">
<ele>650.399963</ele>
<time>2017-10-20T05:29:00.000Z</time>
</trkpt>
<trkpt lat="31.7716940" lon="35.0650630">
<ele>650.500000</ele>
<time>2017-10-20T05:29:01.000Z</time>
</trkpt>
<trkpt lat="31.7716860" lon="35.0650960">
<ele>650.500000</ele>
<time>2017-10-20T05:29:02.000Z</time>
</trkpt>
<trkpt lat="31.7716820" lon="35.0651290">
<ele>650.599976</ele>
<time>2017-10-20T05:29:03.000Z</time>
</trkpt>
<trkpt lat="31.7716770" lon="35.0651650">
<ele>650.700012</ele>
<time>2017-10-20T05:29:04.000Z</time>
</trkpt>
<trkpt lat="31.7716750" lon="35.0652010">
<ele>650.799988</ele>
<time>2017-10-20T05:29:05.000Z</time>
</trkpt>
<trkpt lat="31.7716750" lon="35.0652530">
<ele>650.900024</ele>
<time>2017-10-20T05:29:07.000Z</time>
</trkpt>
<trkpt lat="31.7716680" lon="35.0652930">
<ele>651.099976</ele>
<time>2017-10-20T05:29:09.000Z</time>
</trkpt>
<trkpt lat="31.7716650" lon="35.0653340">
<ele>651.200012</ele>
<time>2017-10-20T05:29:11.000Z</time>
</trkpt>
<trkpt lat="31.7716590" lon="35.0653730">
<ele>651.400024</ele>
<time>2017-10-20T05:29:13.000Z</time>
</trkpt>
<trkpt lat="31.7716640" lon="35.0654110">
<ele>651.599976</ele>
<time>2017-10-20T05:29:15.000Z</time>
</trkpt>
<trkpt lat="31.7716650" lon="35.0654470">
<ele>652.000000</ele>
<time>2017-10-20T05:29:17.000Z</time>
</trkpt>
<trkpt lat="31.7716640" lon="35.0654800">
<ele>652.299988</ele>
<time>2017-10-20T05:29:19.000Z</time>
</trkpt>
<trkpt lat="31.7716620" lon="35.0655260">
<ele>652.799988</ele>
<time>2017-10-20T05:29:22.000Z</time>
</trkpt>
<trkpt lat="31.7716590" lon="35.0655590">
<ele>653.000000</ele>
<time>2017-10-20T05:29:24.000Z</time>
</trkpt>
<trkpt lat="31.7716500" lon="35.0655910">
<ele>653.200012</ele>
<time>2017-10-20T05:29:26.000Z</time>
</trkpt>
<trkpt lat="31.7716470" lon="35.0656390">
<ele>653.599976</ele>
<time>2017-10-20T05:29:29.000Z</time>
</trkpt>
<trkpt lat="31.7716410" lon="35.0656730">
<ele>654.099976</ele>
<time>2017-10-20T05:29:31.000Z</time>
</trkpt>
<trkpt lat="31.7716370" lon="35.0657040">
<ele>654.500061</ele>
<time>2017-10-20T05:29:34.000Z</time>
</trkpt>
<trkpt lat="31.7716320" lon="35.0657400">
<ele>654.900024</ele>
<time>2017-10-20T05:29:38.000Z</time>
</trkpt>
<trkpt lat="31.7716270" lon="35.0657770">
<ele>655.400024</ele>
<time>2017-10-20T05:29:40.000Z</time>
</trkpt>
<trkpt lat="31.7716230" lon="35.0658130">
<ele>655.899963</ele>
<time>2017-10-20T05:29:42.000Z</time>
</trkpt>
<trkpt lat="31.7716150" lon="35.0658480">
<ele>656.300049</ele>
<time>2017-10-20T05:29:44.000Z</time>
</trkpt>
<trkpt lat="31.7716120" lon="35.0658910">
<ele>656.599976</ele>
<time>2017-10-20T05:29:48.000Z</time>
</trkpt>
<trkpt lat="31.7716100" lon="35.0659290">
<ele>656.800049</ele>
<time>2017-10-20T05:29:50.000Z</time>
</trkpt>
<trkpt lat="31.7716190" lon="35.0659610">
<ele>657.000000</ele>
<time>2017-10-20T05:29:52.000Z</time>
</trkpt>
<trkpt lat="31.7716170" lon="35.0659950">
<ele>657.400024</ele>
<time>2017-10-20T05:29:55.000Z</time>
</trkpt>
<trkpt lat="31.7716090" lon="35.0660340">
<ele>658.000000</ele>
<time>2017-10-20T05:29:58.000Z</time>
</trkpt>
<trkpt lat="31.7716040" lon="35.0660750">
<ele>658.500000</ele>
<time>2017-10-20T05:30:01.000Z</time>
</trkpt>
<trkpt lat="31.7715880" lon="35.0661140">
<ele>658.799988</ele>
<time>2017-10-20T05:30:04.000Z</time>
</trkpt>
<trkpt lat="31.7715830" lon="35.0661470">
<ele>659.000000</ele>
<time>2017-10-20T05:30:06.000Z</time>
</trkpt>
<trkpt lat="31.7715790" lon="35.0661890">
<ele>659.500000</ele>
<time>2017-10-20T05:30:08.000Z</time>
</trkpt>
<trkpt lat="31.7715780" lon="35.0662240">
<ele>660.000000</ele>
<time>2017-10-20T05:30:10.000Z</time>
</trkpt>
<trkpt lat="31.7715790" lon="35.0662620">
<ele>660.599976</ele>
<time>2017-10-20T05:30:14.000Z</time>
</trkpt>
<trkpt lat="31.7715750" lon="35.0663060">
<ele>661.099976</ele>
<time>2017-10-20T05:30:18.000Z</time>
</trkpt>
<trkpt lat="31.7715690" lon="35.0663390">
<ele>661.600037</ele>
<time>2017-10-20T05:30:20.000Z</time>
</trkpt>
<trkpt lat="31.7715610" lon="35.0663700">
<ele>662.100037</ele>
<time>2017-10-20T05:30:22.000Z</time>
</trkpt>
<trkpt lat="31.7715470" lon="35.0664080">
<ele>662.800049</ele>
<time>2017-10-20T05:30:25.000Z</time>
</trkpt>
<trkpt lat="31.7715310" lon="35.0664470">
<ele>663.599976</ele>
<time>2017-10-20T05:30:28.000Z</time>
</trkpt>
<trkpt lat="31.7715150" lon="35.0664860">
<ele>664.099976</ele>
<time>2017-10-20T05:30:31.000Z</time>
</trkpt>
<trkpt lat="31.7714980" lon="35.0665160">
<ele>664.299988</ele>
<time>2017-10-20T05:30:34.000Z</time>
</trkpt>
<trkpt lat="31.7714830" lon="35.0665490">
<ele>664.600037</ele>
<time>2017-10-20T05:30:36.000Z</time>
</trkpt>
<trkpt lat="31.7714750" lon="35.0665850">
<ele>664.799988</ele>
<time>2017-10-20T05:30:38.000Z</time>
</trkpt>
<trkpt lat="31.7714610" lon="35.0666190">
<ele>665.299988</ele>
<time>2017-10-20T05:30:40.000Z</time>
</trkpt>
<trkpt lat="31.7714470" lon="35.0666610">
<ele>665.899963</ele>
<time>2017-10-20T05:30:43.000Z</time>
</trkpt>
<trkpt lat="31.7714310" lon="35.0667100">
<ele>666.299988</ele>
<time>2017-10-20T05:30:46.000Z</time>
</trkpt>
<trkpt lat="31.7714160" lon="35.0667450">
<ele>666.499939</ele>
<time>2017-10-20T05:30:48.000Z</time>
</trkpt>
<trkpt lat="31.7714050" lon="35.0667760">
<ele>666.700012</ele>
<time>2017-10-20T05:30:50.000Z</time>
</trkpt>
<trkpt lat="31.7713900" lon="35.0668210">
<ele>666.900024</ele>
<time>2017-10-20T05:30:53.000Z</time>
</trkpt>
<trkpt lat="31.7713790" lon="35.0668580">
<ele>667.200012</ele>
<time>2017-10-20T05:30:54.000Z</time>
</trkpt>
<trkpt lat="31.7713710" lon="35.0668960">
<ele>667.400024</ele>
<time>2017-10-20T05:30:56.000Z</time>
</trkpt>
<trkpt lat="31.7713620" lon="35.0669380">
<ele>667.600037</ele>
<time>2017-10-20T05:30:58.000Z</time>
</trkpt>
<trkpt lat="31.7713560" lon="35.0669700">
<ele>668.000000</ele>
<time>2017-10-20T05:31:02.000Z</time>
</trkpt>
<trkpt lat="31.7713510" lon="35.0670020">
<ele>668.399963</ele>
<time>2017-10-20T05:31:06.000Z</time>
</trkpt>
<trkpt lat="31.7713400" lon="35.0670350">
<ele>668.800049</ele>
<time>2017-10-20T05:31:09.000Z</time>
</trkpt>
<trkpt lat="31.7713290" lon="35.0670760">
<ele>669.099976</ele>
<time>2017-10-20T05:31:12.000Z</time>
</trkpt>
<trkpt lat="31.7713300" lon="35.0671270">
<ele>669.300049</ele>
<time>2017-10-20T05:31:15.000Z</time>
</trkpt>
<trkpt lat="31.7713280" lon="35.0671770">
<ele>669.599976</ele>
<time>2017-10-20T05:31:18.000Z</time>
</trkpt>
<trkpt lat="31.7713230" lon="35.0672220">
<ele>669.799988</ele>
<time>2017-10-20T05:31:21.000Z</time>
</trkpt>
<trkpt lat="31.7713210" lon="35.0672670">
<ele>670.000061</ele>
<time>2017-10-20T05:31:24.000Z</time>
</trkpt>
<trkpt lat="31.7713210" lon="35.0673080">
<ele>670.200012</ele>
<time>2017-10-20T05:31:27.000Z</time>
</trkpt>
<trkpt lat="31.7713250" lon="35.0673530">
<ele>670.400024</ele>
<time>2017-10-20T05:31:30.000Z</time>
</trkpt>
<trkpt lat="31.7713310" lon="35.0673900">
<ele>670.799988</ele>
<time>2017-10-20T05:31:33.000Z</time>
</trkpt>
<trkpt lat="31.7713370" lon="35.0674270">
<ele>671.200012</ele>
<time>2017-10-20T05:31:36.000Z</time>
</trkpt>
<trkpt lat="31.7713420" lon="35.0674680">
<ele>671.600037</ele>
<time>2017-10-20T05:31:40.000Z</time>
</trkpt>
<trkpt lat="31.7713460" lon="35.0675100">
<ele>671.700012</ele>
<time>2017-10-20T05:31:42.000Z</time>
</trkpt>
<trkpt lat="31.7713520" lon="35.0675530">
<ele>671.899963</ele>
<time>2017-10-20T05:31:45.000Z</time>
</trkpt>
<trkpt lat="31.7713710" lon="35.0675920">
<ele>672.099976</ele>
<time>2017-10-20T05:31:47.000Z</time>
</trkpt>
<trkpt lat="31.7714720" lon="35.0676050">
<ele>672.599976</ele>
<time>2017-10-20T05:31:57.000Z</time>
</trkpt>
<trkpt lat="31.7716150" lon="35.0676100">
<ele>673.900024</ele>
<time>2017-10-20T05:32:25.000Z</time>
</trkpt>
<trkpt lat="31.7716290" lon="35.0676470">
<ele>674.100037</ele>
<time>2017-10-20T05:32:29.000Z</time>
</trkpt>
<trkpt lat="31.7716530" lon="35.0676710">
<ele>674.199951</ele>
<time>2017-10-20T05:32:44.000Z</time>
</trkpt>
<trkpt lat="31.7716510" lon="35.0677180">
<ele>674.399963</ele>
<time>2017-10-20T05:32:47.000Z</time>
</trkpt>
<trkpt lat="31.7716490" lon="35.0677570">
<ele>674.399963</ele>
<time>2017-10-20T05:32:49.000Z</time>
</trkpt>
<trkpt lat="31.7716480" lon="35.0677930">
<ele>674.500000</ele>
<time>2017-10-20T05:32:51.000Z</time>
</trkpt>
<trkpt lat="31.7716520" lon="35.0678360">
<ele>674.600037</ele>
<time>2017-10-20T05:32:53.000Z</time>
</trkpt>
<trkpt lat="31.7716550" lon="35.0678770">
<ele>674.700012</ele>
<time>2017-10-20T05:32:55.000Z</time>
</trkpt>
<trkpt lat="31.7716580" lon="35.0679220">
<ele>674.799988</ele>
<time>2017-10-20T05:32:57.000Z</time>
</trkpt>
<trkpt lat="31.7716610" lon="35.0679780">
<ele>674.799988</ele>
<time>2017-10-20T05:32:59.000Z</time>
</trkpt>
<trkpt lat="31.7716610" lon="35.0680280">
<ele>674.899963</ele>
<time>2017-10-20T05:33:01.000Z</time>
</trkpt>
<trkpt lat="31.7716610" lon="35.0680790">
<ele>675.000000</ele>
<time>2017-10-20T05:33:03.000Z</time>
</trkpt>
<trkpt lat="31.7716590" lon="35.0681370">
<ele>675.000000</ele>
<time>2017-10-20T05:33:05.000Z</time>
</trkpt>
<trkpt lat="31.7716550" lon="35.0681690">
<ele>675.000000</ele>
<time>2017-10-20T05:33:06.000Z</time>
</trkpt>
<trkpt lat="31.7716570" lon="35.0682300">
<ele>675.000000</ele>
<time>2017-10-20T05:33:08.000Z</time>
</trkpt>
<trkpt lat="31.7716600" lon="35.0682860">
<ele>675.000000</ele>
<time>2017-10-20T05:33:10.000Z</time>
</trkpt>
<trkpt lat="31.7716710" lon="35.0683420">
<ele>675.099976</ele>
<time>2017-10-20T05:33:12.000Z</time>
</trkpt>
<trkpt lat="31.7716760" lon="35.0684010">
<ele>675.099976</ele>
<time>2017-10-20T05:33:14.000Z</time>
</trkpt>
<trkpt lat="31.7716730" lon="35.0684430">
<ele>675.200012</ele>
<time>2017-10-20T05:33:16.000Z</time>
</trkpt>
<trkpt lat="31.7716820" lon="35.0684920">
<ele>675.200012</ele>
<time>2017-10-20T05:33:19.000Z</time>
</trkpt>
<trkpt lat="31.7716970" lon="35.0685460">
<ele>675.300049</ele>
<time>2017-10-20T05:33:21.000Z</time>
</trkpt>
<trkpt lat="31.7717050" lon="35.0685780">
<ele>675.300049</ele>
<time>2017-10-20T05:33:22.000Z</time>
</trkpt>
<trkpt lat="31.7717220" lon="35.0686440">
<ele>675.500000</ele>
<time>2017-10-20T05:33:24.000Z</time>
</trkpt>
<trkpt lat="31.7717260" lon="35.0686760">
<ele>675.599976</ele>
<time>2017-10-20T05:33:25.000Z</time>
</trkpt>
<trkpt lat="31.7717330" lon="35.0687110">
<ele>675.599976</ele>
<time>2017-10-20T05:33:26.000Z</time>
</trkpt>
<trkpt lat="31.7717440" lon="35.0687630">
<ele>675.799988</ele>
<time>2017-10-20T05:33:28.000Z</time>
</trkpt>
<trkpt lat="31.7717570" lon="35.0688100">
<ele>676.200012</ele>
<time>2017-10-20T05:33:30.000Z</time>
</trkpt>
<trkpt lat="31.7717710" lon="35.0688570">
<ele>676.500000</ele>
<time>2017-10-20T05:33:32.000Z</time>
</trkpt>
<trkpt lat="31.7717770" lon="35.0689010">
<ele>676.699951</ele>
<time>2017-10-20T05:33:34.000Z</time>
</trkpt>
<trkpt lat="31.7717770" lon="35.0689450">
<ele>676.900024</ele>
<time>2017-10-20T05:33:36.000Z</time>
</trkpt>
<trkpt lat="31.7717860" lon="35.0689800">
<ele>677.000000</ele>
<time>2017-10-20T05:33:39.000Z</time>
</trkpt>
<trkpt lat="31.7717950" lon="35.0690290">
<ele>677.199951</ele>
<time>2017-10-20T05:33:42.000Z</time>
</trkpt>
<trkpt lat="31.7717940" lon="35.0690700">
<ele>677.700012</ele>
<time>2017-10-20T05:33:44.000Z</time>
</trkpt>
<trkpt lat="31.7718040" lon="35.0691150">
<ele>678.399963</ele>
<time>2017-10-20T05:33:47.000Z</time>
</trkpt>
<trkpt lat="31.7718080" lon="35.0691540">
<ele>678.900024</ele>
<time>2017-10-20T05:33:50.000Z</time>
</trkpt>
<trkpt lat="31.7718160" lon="35.0691890">
<ele>679.200012</ele>
<time>2017-10-20T05:33:52.000Z</time>
</trkpt>
<trkpt lat="31.7718250" lon="35.0692270">
<ele>679.699951</ele>
<time>2017-10-20T05:33:54.000Z</time>
</trkpt>
<trkpt lat="31.7718310" lon="35.0692620">
<ele>680.299988</ele>
<time>2017-10-20T05:33:56.000Z</time>
</trkpt>
<trkpt lat="31.7718360" lon="35.0693060">
<ele>680.700012</ele>
<time>2017-10-20T05:33:59.000Z</time>
</trkpt>
<trkpt lat="31.7718400" lon="35.0693400">
<ele>681.100037</ele>
<time>2017-10-20T05:34:03.000Z</time>
</trkpt>
<trkpt lat="31.7718540" lon="35.0693790">
<ele>681.599976</ele>
<time>2017-10-20T05:34:07.000Z</time>
</trkpt>
<trkpt lat="31.7718640" lon="35.0694130">
<ele>682.200012</ele>
<time>2017-10-20T05:34:10.000Z</time>
</trkpt>
<trkpt lat="31.7718730" lon="35.0694500">
<ele>682.900024</ele>
<time>2017-10-20T05:34:13.000Z</time>
</trkpt>
<trkpt lat="31.7718730" lon="35.0694970">
<ele>683.299988</ele>
<time>2017-10-20T05:34:16.000Z</time>
</trkpt>
<trkpt lat="31.7718650" lon="35.0695320">
<ele>683.899963</ele>
<time>2017-10-20T05:34:18.000Z</time>
</trkpt>
<trkpt lat="31.7718730" lon="35.0695690">
<ele>684.500000</ele>
<time>2017-10-20T05:34:21.000Z</time>
</trkpt>
<trkpt lat="31.7718810" lon="35.0696100">
<ele>685.099976</ele>
<time>2017-10-20T05:34:24.000Z</time>
</trkpt>
<trkpt lat="31.7718790" lon="35.0696420">
<ele>685.400024</ele>
<time>2017-10-20T05:34:26.000Z</time>
</trkpt>
<trkpt lat="31.7718800" lon="35.0696740">
<ele>685.799988</ele>
<time>2017-10-20T05:34:28.000Z</time>
</trkpt>
<trkpt lat="31.7718770" lon="35.0697180">
<ele>686.400024</ele>
<time>2017-10-20T05:34:31.000Z</time>
</trkpt>
<trkpt lat="31.7718710" lon="35.0697550">
<ele>686.600037</ele>
<time>2017-10-20T05:34:34.000Z</time>
</trkpt>
<trkpt lat="31.7718690" lon="35.0697940">
<ele>686.799988</ele>
<time>2017-10-20T05:34:37.000Z</time>
</trkpt>
<trkpt lat="31.7718620" lon="35.0698280">
<ele>687.000000</ele>
<time>2017-10-20T05:34:40.000Z</time>
</trkpt>
<trkpt lat="31.7718560" lon="35.0698600">
<ele>687.200012</ele>
<time>2017-10-20T05:34:42.000Z</time>
</trkpt>
<trkpt lat="31.7718460" lon="35.0699050">
<ele>687.700012</ele>
<time>2017-10-20T05:34:45.000Z</time>
</trkpt>
<trkpt lat="31.7718290" lon="35.0699310">
<ele>688.299988</ele>
<time>2017-10-20T05:34:47.000Z</time>
</trkpt>
<trkpt lat="31.7718050" lon="35.0699780">
<ele>688.900024</ele>
<time>2017-10-20T05:34:50.000Z</time>
</trkpt>
<trkpt lat="31.7717880" lon="35.0700170">
<ele>689.000000</ele>
<time>2017-10-20T05:34:52.000Z</time>
</trkpt>
<trkpt lat="31.7717710" lon="35.0700620">
<ele>689.000000</ele>
<time>2017-10-20T05:34:54.000Z</time>
</trkpt>
<trkpt lat="31.7717530" lon="35.0701100">
<ele>689.000000</ele>
<time>2017-10-20T05:34:56.000Z</time>
</trkpt>
<trkpt lat="31.7717410" lon="35.0701440">
<ele>689.000000</ele>
<time>2017-10-20T05:34:58.000Z</time>
</trkpt>
<trkpt lat="31.7717250" lon="35.0701820">
<ele>689.099976</ele>
<time>2017-10-20T05:35:00.000Z</time>
</trkpt>
<trkpt lat="31.7717080" lon="35.0702130">
<ele>689.099976</ele>
<time>2017-10-20T05:35:02.000Z</time>
</trkpt>
<trkpt lat="31.7716920" lon="35.0702480">
<ele>689.099976</ele>
<time>2017-10-20T05:35:04.000Z</time>
</trkpt>
<trkpt lat="31.7716780" lon="35.0702780">
<ele>689.099976</ele>
<time>2017-10-20T05:35:06.000Z</time>
</trkpt>
<trkpt lat="31.7716660" lon="35.0703110">
<ele>689.199951</ele>
<time>2017-10-20T05:35:08.000Z</time>
</trkpt>
<trkpt lat="31.7716560" lon="35.0703510">
<ele>689.299988</ele>
<time>2017-10-20T05:35:10.000Z</time>
</trkpt>
<trkpt lat="31.7716460" lon="35.0703930">
<ele>689.299988</ele>
<time>2017-10-20T05:35:12.000Z</time>
</trkpt>
<trkpt lat="31.7716350" lon="35.0704320">
<ele>689.400024</ele>
<time>2017-10-20T05:35:14.000Z</time>
</trkpt>
<trkpt lat="31.7716260" lon="35.0704620">
<ele>689.600037</ele>
<time>2017-10-20T05:35:16.000Z</time>
</trkpt>
<trkpt lat="31.7716170" lon="35.0704960">
<ele>689.799988</ele>
<time>2017-10-20T05:35:18.000Z</time>
</trkpt>
<trkpt lat="31.7716060" lon="35.0705290">
<ele>690.100037</ele>
<time>2017-10-20T05:35:20.000Z</time>
</trkpt>
<trkpt lat="31.7715930" lon="35.0705650">
<ele>690.399963</ele>
<time>2017-10-20T05:35:22.000Z</time>
</trkpt>
<trkpt lat="31.7715760" lon="35.0706110">
<ele>690.599976</ele>
<time>2017-10-20T05:35:24.000Z</time>
</trkpt>
<trkpt lat="31.7715640" lon="35.0706480">
<ele>690.700012</ele>
<time>2017-10-20T05:35:26.000Z</time>
</trkpt>
<trkpt lat="31.7715510" lon="35.0706860">
<ele>690.800049</ele>
<time>2017-10-20T05:35:28.000Z</time>
</trkpt>
<trkpt lat="31.7715290" lon="35.0707240">
<ele>690.899963</ele>
<time>2017-10-20T05:35:30.000Z</time>
</trkpt>
<trkpt lat="31.7715120" lon="35.0707670">
<ele>691.099976</ele>
<time>2017-10-20T05:35:32.000Z</time>
</trkpt>
<trkpt lat="31.7714980" lon="35.0708070">
<ele>691.200012</ele>
<time>2017-10-20T05:35:34.000Z</time>
</trkpt>
<trkpt lat="31.7714790" lon="35.0708460">
<ele>691.400024</ele>
<time>2017-10-20T05:35:36.000Z</time>
</trkpt>
<trkpt lat="31.7714580" lon="35.0708920">
<ele>691.700012</ele>
<time>2017-10-20T05:35:38.000Z</time>
</trkpt>
<trkpt lat="31.7714330" lon="35.0709360">
<ele>692.099976</ele>
<time>2017-10-20T05:35:40.000Z</time>
</trkpt>
<trkpt lat="31.7714120" lon="35.0709800">
<ele>692.299988</ele>
<time>2017-10-20T05:35:42.000Z</time>
</trkpt>
<trkpt lat="31.7713980" lon="35.0710190">
<ele>692.400024</ele>
<time>2017-10-20T05:35:44.000Z</time>
</trkpt>
<trkpt lat="31.7713860" lon="35.0710650">
<ele>692.500000</ele>
<time>2017-10-20T05:35:46.000Z</time>
</trkpt>
<trkpt lat="31.7713730" lon="35.0711090">
<ele>692.600037</ele>
<time>2017-10-20T05:35:48.000Z</time>
</trkpt>
<trkpt lat="31.7713630" lon="35.0711570">
<ele>692.699951</ele>
<time>2017-10-20T05:35:50.000Z</time>
</trkpt>
<trkpt lat="31.7713540" lon="35.0712130">
<ele>692.799988</ele>
<time>2017-10-20T05:35:52.000Z</time>
</trkpt>
<trkpt lat="31.7713380" lon="35.0712590">
<ele>692.900024</ele>
<time>2017-10-20T05:35:54.000Z</time>
</trkpt>
<trkpt lat="31.7713240" lon="35.0713010">
<ele>693.000000</ele>
<time>2017-10-20T05:35:56.000Z</time>
</trkpt>
<trkpt lat="31.7713160" lon="35.0713330">
<ele>693.100037</ele>
<time>2017-10-20T05:35:58.000Z</time>
</trkpt>
<trkpt lat="31.7712980" lon="35.0713860">
<ele>693.200012</ele>
<time>2017-10-20T05:36:01.000Z</time>
</trkpt>
<trkpt lat="31.7712830" lon="35.0714290">
<ele>693.299988</ele>
<time>2017-10-20T05:36:03.000Z</time>
</trkpt>
<trkpt lat="31.7712730" lon="35.0714640">
<ele>693.500000</ele>
<time>2017-10-20T05:36:05.000Z</time>
</trkpt>
<trkpt lat="31.7712580" lon="35.0714950">
<ele>693.800049</ele>
<time>2017-10-20T05:36:07.000Z</time>
</trkpt>
<trkpt lat="31.7712440" lon="35.0715310">
<ele>694.099976</ele>
<time>2017-10-20T05:36:09.000Z</time>
</trkpt>
<trkpt lat="31.7712280" lon="35.0715750">
<ele>694.300049</ele>
<time>2017-10-20T05:36:11.000Z</time>
</trkpt>
<trkpt lat="31.7712110" lon="35.0716190">
<ele>694.500000</ele>
<time>2017-10-20T05:36:13.000Z</time>
</trkpt>
<trkpt lat="31.7711930" lon="35.0716650">
<ele>694.700012</ele>
<time>2017-10-20T05:36:15.000Z</time>
</trkpt>
<trkpt lat="31.7711730" lon="35.0717020">
<ele>694.900024</ele>
<time>2017-10-20T05:36:17.000Z</time>
</trkpt>
<trkpt lat="31.7711580" lon="35.0717370">
<ele>695.200012</ele>
<time>2017-10-20T05:36:19.000Z</time>
</trkpt>
<trkpt lat="31.7711430" lon="35.0717740">
<ele>695.500000</ele>
<time>2017-10-20T05:36:21.000Z</time>
</trkpt>
<trkpt lat="31.7711300" lon="35.0718090">
<ele>695.799988</ele>
<time>2017-10-20T05:36:23.000Z</time>
</trkpt>
<trkpt lat="31.7711190" lon="35.0718490">
<ele>696.100037</ele>
<time>2017-10-20T05:36:25.000Z</time>
</trkpt>
<trkpt lat="31.7711060" lon="35.0718940">
<ele>696.299988</ele>
<time>2017-10-20T05:36:27.000Z</time>
</trkpt>
<trkpt lat="31.7710970" lon="35.0719370">
<ele>696.399963</ele>
<time>2017-10-20T05:36:29.000Z</time>
</trkpt>
<trkpt lat="31.7710840" lon="35.0719740">
<ele>696.500000</ele>
<time>2017-10-20T05:36:31.000Z</time>
</trkpt>
<trkpt lat="31.7710760" lon="35.0720210">
<ele>696.700012</ele>
<time>2017-10-20T05:36:33.000Z</time>
</trkpt>
<trkpt lat="31.7710700" lon="35.0720520">
<ele>696.700012</ele>
<time>2017-10-20T05:36:35.000Z</time>
</trkpt>
<trkpt lat="31.7710610" lon="35.0720860">
<ele>696.800049</ele>
<time>2017-10-20T05:36:37.000Z</time>
</trkpt>
<trkpt lat="31.7710470" lon="35.0721300">
<ele>697.000000</ele>
<time>2017-10-20T05:36:39.000Z</time>
</trkpt>
<trkpt lat="31.7710290" lon="35.0721660">
<ele>697.200012</ele>
<time>2017-10-20T05:36:41.000Z</time>
</trkpt>
<trkpt lat="31.7710000" lon="35.0722110">
<ele>697.599976</ele>
<time>2017-10-20T05:36:43.000Z</time>
</trkpt>
<trkpt lat="31.7709730" lon="35.0722490">
<ele>697.900024</ele>
<time>2017-10-20T05:36:45.000Z</time>
</trkpt>
<trkpt lat="31.7709470" lon="35.0722980">
<ele>698.000061</ele>
<time>2017-10-20T05:36:47.000Z</time>
</trkpt>
<trkpt lat="31.7709200" lon="35.0723410">
<ele>698.099976</ele>
<time>2017-10-20T05:36:49.000Z</time>
</trkpt>
<trkpt lat="31.7709000" lon="35.0723780">
<ele>698.200012</ele>
<time>2017-10-20T05:36:51.000Z</time>
</trkpt>
<trkpt lat="31.7708820" lon="35.0724290">
<ele>698.299988</ele>
<time>2017-10-20T05:36:53.000Z</time>
</trkpt>
<trkpt lat="31.7708590" lon="35.0724780">
<ele>698.400024</ele>
<time>2017-10-20T05:36:55.000Z</time>
</trkpt>
<trkpt lat="31.7708460" lon="35.0725140">
<ele>698.500000</ele>
<time>2017-10-20T05:36:57.000Z</time>
</trkpt>
<trkpt lat="31.7708300" lon="35.0725540">
<ele>698.599976</ele>
<time>2017-10-20T05:36:58.000Z</time>
</trkpt>
<trkpt lat="31.7708230" lon="35.0725960">
<ele>698.699951</ele>
<time>2017-10-20T05:37:00.000Z</time>
</trkpt>
<trkpt lat="31.7708100" lon="35.0726340">
<ele>698.799988</ele>
<time>2017-10-20T05:37:02.000Z</time>
</trkpt>
<trkpt lat="31.7707970" lon="35.0726800">
<ele>698.900024</ele>
<time>2017-10-20T05:37:04.000Z</time>
</trkpt>
<trkpt lat="31.7707860" lon="35.0727240">
<ele>699.000000</ele>
<time>2017-10-20T05:37:06.000Z</time>
</trkpt>
<trkpt lat="31.7707760" lon="35.0727640">
<ele>699.299988</ele>
<time>2017-10-20T05:37:08.000Z</time>
</trkpt>
<trkpt lat="31.7707650" lon="35.0727930">
<ele>699.500000</ele>
<time>2017-10-20T05:37:10.000Z</time>
</trkpt>
<trkpt lat="31.7707500" lon="35.0728310">
<ele>699.899963</ele>
<time>2017-10-20T05:37:13.000Z</time>
</trkpt>
<trkpt lat="31.7707390" lon="35.0728620">
<ele>700.300049</ele>
<time>2017-10-20T05:37:15.000Z</time>
</trkpt>
<trkpt lat="31.7707270" lon="35.0728990">
<ele>700.599976</ele>
<time>2017-10-20T05:37:18.000Z</time>
</trkpt>
<trkpt lat="31.7707140" lon="35.0729370">
<ele>700.999939</ele>
<time>2017-10-20T05:37:21.000Z</time>
</trkpt>
<trkpt lat="31.7707050" lon="35.0729730">
<ele>701.299988</ele>
<time>2017-10-20T05:37:23.000Z</time>
</trkpt>
<trkpt lat="31.7706920" lon="35.0730030">
<ele>701.699951</ele>
<time>2017-10-20T05:37:25.000Z</time>
</trkpt>
<trkpt lat="31.7706770" lon="35.0730430">
<ele>702.100037</ele>
<time>2017-10-20T05:37:27.000Z</time>
</trkpt>
<trkpt lat="31.7706630" lon="35.0730850">
<ele>702.399963</ele>
<time>2017-10-20T05:37:30.000Z</time>
</trkpt>
<trkpt lat="31.7706470" lon="35.0731160">
<ele>702.700012</ele>
<time>2017-10-20T05:37:32.000Z</time>
</trkpt>
<trkpt lat="31.7706340" lon="35.0731470">
<ele>703.000000</ele>
<time>2017-10-20T05:37:34.000Z</time>
</trkpt>
<trkpt lat="31.7706220" lon="35.0731780">
<ele>703.399963</ele>
<time>2017-10-20T05:37:37.000Z</time>
</trkpt>
<trkpt lat="31.7706090" lon="35.0732170">
<ele>703.799988</ele>
<time>2017-10-20T05:37:40.000Z</time>
</trkpt>
<trkpt lat="31.7706000" lon="35.0732590">
<ele>704.200012</ele>
<time>2017-10-20T05:37:43.000Z</time>
</trkpt>
<trkpt lat="31.7705900" lon="35.0732910">
<ele>704.500061</ele>
<time>2017-10-20T05:37:45.000Z</time>
</trkpt>
<trkpt lat="31.7705730" lon="35.0733330">
<ele>704.699951</ele>
<time>2017-10-20T05:37:48.000Z</time>
</trkpt>
<trkpt lat="31.7705540" lon="35.0733710">
<ele>704.900024</ele>
<time>2017-10-20T05:37:50.000Z</time>
</trkpt>
<trkpt lat="31.7705360" lon="35.0734130">
<ele>705.299988</ele>
<time>2017-10-20T05:37:53.000Z</time>
</trkpt>
<trkpt lat="31.7705240" lon="35.0734520">
<ele>705.700012</ele>
<time>2017-10-20T05:37:55.000Z</time>
</trkpt>
<trkpt lat="31.7705100" lon="35.0734890">
<ele>706.000000</ele>
<time>2017-10-20T05:37:57.000Z</time>
</trkpt>
<trkpt lat="31.7704990" lon="35.0735220">
<ele>706.200012</ele>
<time>2017-10-20T05:37:59.000Z</time>
</trkpt>
<trkpt lat="31.7704920" lon="35.0735550">
<ele>706.399963</ele>
<time>2017-10-20T05:38:01.000Z</time>
</trkpt>
<trkpt lat="31.7704810" lon="35.0735910">
<ele>706.500000</ele>
<time>2017-10-20T05:38:03.000Z</time>
</trkpt>
<trkpt lat="31.7704680" lon="35.0736300">
<ele>706.700012</ele>
<time>2017-10-20T05:38:05.000Z</time>
</trkpt>
<trkpt lat="31.7704560" lon="35.0736610">
<ele>706.800049</ele>
<time>2017-10-20T05:38:07.000Z</time>
</trkpt>
<trkpt lat="31.7704400" lon="35.0737060">
<ele>707.000000</ele>
<time>2017-10-20T05:38:10.000Z</time>
</trkpt>
<trkpt lat="31.7704290" lon="35.0737400">
<ele>707.299988</ele>
<time>2017-10-20T05:38:12.000Z</time>
</trkpt>
<trkpt lat="31.7704190" lon="35.0737730">
<ele>707.599976</ele>
<time>2017-10-20T05:38:14.000Z</time>
</trkpt>
<trkpt lat="31.7704110" lon="35.0738090">
<ele>707.900024</ele>
<time>2017-10-20T05:38:16.000Z</time>
</trkpt>
<trkpt lat="31.7704030" lon="35.0738510">
<ele>708.000000</ele>
<time>2017-10-20T05:38:19.000Z</time>
</trkpt>
<trkpt lat="31.7704020" lon="35.0738860">
<ele>708.100037</ele>
<time>2017-10-20T05:38:21.000Z</time>
</trkpt>
<trkpt lat="31.7704060" lon="35.0739210">
<ele>708.199951</ele>
<time>2017-10-20T05:38:23.000Z</time>
</trkpt>
<trkpt lat="31.7704080" lon="35.0739560">
<ele>708.299988</ele>
<time>2017-10-20T05:38:25.000Z</time>
</trkpt>
<trkpt lat="31.7704140" lon="35.0739930">
<ele>708.500000</ele>
<time>2017-10-20T05:38:27.000Z</time>
</trkpt>
<trkpt lat="31.7704160" lon="35.0740290">
<ele>708.600037</ele>
<time>2017-10-20T05:38:29.000Z</time>
</trkpt>
<trkpt lat="31.7704260" lon="35.0740730">
<ele>708.799988</ele>
<time>2017-10-20T05:38:32.000Z</time>
</trkpt>
<trkpt lat="31.7704340" lon="35.0741140">
<ele>708.899963</ele>
<time>2017-10-20T05:38:34.000Z</time>
</trkpt>
<trkpt lat="31.7704400" lon="35.0741620">
<ele>709.000000</ele>
<time>2017-10-20T05:38:37.000Z</time>
</trkpt>
<trkpt lat="31.7704460" lon="35.0741980">
<ele>709.300049</ele>
<time>2017-10-20T05:38:39.000Z</time>
</trkpt>
<trkpt lat="31.7704570" lon="35.0742390">
<ele>709.599976</ele>
<time>2017-10-20T05:38:41.000Z</time>
</trkpt>
<trkpt lat="31.7704680" lon="35.0742710">
<ele>709.800049</ele>
<time>2017-10-20T05:38:43.000Z</time>
</trkpt>
<trkpt lat="31.7704880" lon="35.0743090">
<ele>709.900024</ele>
<time>2017-10-20T05:38:46.000Z</time>
</trkpt>
<trkpt lat="31.7705060" lon="35.0743480">
<ele>710.000000</ele>
<time>2017-10-20T05:38:48.000Z</time>
</trkpt>
<trkpt lat="31.7705240" lon="35.0743950">
<ele>710.000000</ele>
<time>2017-10-20T05:38:50.000Z</time>
</trkpt>
<trkpt lat="31.7705450" lon="35.0744450">
<ele>710.000000</ele>
<time>2017-10-20T05:38:52.000Z</time>
</trkpt>
<trkpt lat="31.7705680" lon="35.0744990">
<ele>710.099976</ele>
<time>2017-10-20T05:38:54.000Z</time>
</trkpt>
<trkpt lat="31.7705930" lon="35.0745550">
<ele>710.099976</ele>
<time>2017-10-20T05:38:56.000Z</time>
</trkpt>
<trkpt lat="31.7706060" lon="35.0745840">
<ele>710.099976</ele>
<time>2017-10-20T05:38:57.000Z</time>
</trkpt>
<trkpt lat="31.7706200" lon="35.0746130">
<ele>710.099976</ele>
<time>2017-10-20T05:38:58.000Z</time>
</trkpt>
<trkpt lat="31.7706340" lon="35.0746420">
<ele>710.099976</ele>
<time>2017-10-20T05:38:59.000Z</time>
</trkpt>
<trkpt lat="31.7706510" lon="35.0746720">
<ele>710.099976</ele>
<time>2017-10-20T05:39:00.000Z</time>
</trkpt>
<trkpt lat="31.7706670" lon="35.0747020">
<ele>710.099976</ele>
<time>2017-10-20T05:39:01.000Z</time>
</trkpt>
<trkpt lat="31.7706840" lon="35.0747300">
<ele>710.099976</ele>
<time>2017-10-20T05:39:02.000Z</time>
</trkpt>
<trkpt lat="31.7707030" lon="35.0747570">
<ele>710.099976</ele>
<time>2017-10-20T05:39:03.000Z</time>
</trkpt>
<trkpt lat="31.7707270" lon="35.0748080">
<ele>710.099976</ele>
<time>2017-10-20T05:39:05.000Z</time>
</trkpt>
<trkpt lat="31.7707540" lon="35.0748540">
<ele>710.099976</ele>
<time>2017-10-20T05:39:07.000Z</time>
</trkpt>
<trkpt lat="31.7707700" lon="35.0748800">
<ele>710.099976</ele>
<time>2017-10-20T05:39:08.000Z</time>
</trkpt>
<trkpt lat="31.7707880" lon="35.0749100">
<ele>710.099976</ele>
<time>2017-10-20T05:39:09.000Z</time>
</trkpt>
<trkpt lat="31.7708100" lon="35.0749460">
<ele>710.099976</ele>
<time>2017-10-20T05:39:10.000Z</time>
</trkpt>
<trkpt lat="31.7708480" lon="35.0749960">
<ele>710.099976</ele>
<time>2017-10-20T05:39:12.000Z</time>
</trkpt>
<trkpt lat="31.7708660" lon="35.0750240">
<ele>710.099976</ele>
<time>2017-10-20T05:39:13.000Z</time>
</trkpt>
<trkpt lat="31.7708860" lon="35.0750520">
<ele>710.099976</ele>
<time>2017-10-20T05:39:14.000Z</time>
</trkpt>
<trkpt lat="31.7709050" lon="35.0750760">
<ele>710.099976</ele>
<time>2017-10-20T05:39:15.000Z</time>
</trkpt>
<trkpt lat="31.7709270" lon="35.0751020">
<ele>710.099976</ele>
<time>2017-10-20T05:39:16.000Z</time>
</trkpt>
<trkpt lat="31.7709460" lon="35.0751270">
<ele>710.099976</ele>
<time>2017-10-20T05:39:17.000Z</time>
</trkpt>
<trkpt lat="31.7709630" lon="35.0751600">
<ele>710.099976</ele>
<time>2017-10-20T05:39:18.000Z</time>
</trkpt>
<trkpt lat="31.7709920" lon="35.0752010">
<ele>710.099976</ele>
<time>2017-10-20T05:39:20.000Z</time>
</trkpt>
<trkpt lat="31.7710240" lon="35.0752550">
<ele>710.099976</ele>
<time>2017-10-20T05:39:22.000Z</time>
</trkpt>
<trkpt lat="31.7710420" lon="35.0752820">
<ele>710.099976</ele>
<time>2017-10-20T05:39:23.000Z</time>
</trkpt>
<trkpt lat="31.7710740" lon="35.0753310">
<ele>710.099976</ele>
<time>2017-10-20T05:39:25.000Z</time>
</trkpt>
<trkpt lat="31.7710950" lon="35.0753520">
<ele>710.099976</ele>
<time>2017-10-20T05:39:26.000Z</time>
</trkpt>
<trkpt lat="31.7711320" lon="35.0753970">
<ele>710.099976</ele>
<time>2017-10-20T05:39:28.000Z</time>
</trkpt>
<trkpt lat="31.7711520" lon="35.0754220">
<ele>710.099976</ele>
<time>2017-10-20T05:39:29.000Z</time>
</trkpt>
<trkpt lat="31.7711720" lon="35.0754450">
<ele>710.099976</ele>
<time>2017-10-20T05:39:30.000Z</time>
</trkpt>
<trkpt lat="31.7711950" lon="35.0755100">
<ele>710.000000</ele>
<time>2017-10-20T05:39:32.000Z</time>
</trkpt>
<trkpt lat="31.7712030" lon="35.0755630">
<ele>710.000000</ele>
<time>2017-10-20T05:39:33.000Z</time>
</trkpt>
<trkpt lat="31.7712060" lon="35.0756140">
<ele>710.000000</ele>
<time>2017-10-20T05:39:34.000Z</time>
</trkpt>
<trkpt lat="31.7712180" lon="35.0756690">
<ele>709.900024</ele>
<time>2017-10-20T05:39:35.000Z</time>
</trkpt>
<trkpt lat="31.7712140" lon="35.0757270">
<ele>709.800049</ele>
<time>2017-10-20T05:39:36.000Z</time>
</trkpt>
<trkpt lat="31.7712100" lon="35.0757840">
<ele>709.700012</ele>
<time>2017-10-20T05:39:37.000Z</time>
</trkpt>
<trkpt lat="31.7712060" lon="35.0758320">
<ele>709.500000</ele>
<time>2017-10-20T05:39:38.000Z</time>
</trkpt>
<trkpt lat="31.7712030" lon="35.0758850">
<ele>709.300049</ele>
<time>2017-10-20T05:39:39.000Z</time>
</trkpt>
<trkpt lat="31.7711960" lon="35.0759300">
<ele>709.000000</ele>
<time>2017-10-20T05:39:40.000Z</time>
</trkpt>
<trkpt lat="31.7711900" lon="35.0759660">
<ele>708.799988</ele>
<time>2017-10-20T05:39:41.000Z</time>
</trkpt>
<trkpt lat="31.7711800" lon="35.0759980">
<ele>708.600037</ele>
<time>2017-10-20T05:39:42.000Z</time>
</trkpt>
<trkpt lat="31.7711670" lon="35.0760260">
<ele>708.500000</ele>
<time>2017-10-20T05:39:43.000Z</time>
</trkpt>
<trkpt lat="31.7711450" lon="35.0760730">
<ele>708.299988</ele>
<time>2017-10-20T05:39:45.000Z</time>
</trkpt>
<trkpt lat="31.7711280" lon="35.0761080">
<ele>708.199951</ele>
<time>2017-10-20T05:39:47.000Z</time>
</trkpt>
<trkpt lat="31.7711120" lon="35.0761420">
<ele>708.199951</ele>
<time>2017-10-20T05:39:49.000Z</time>
</trkpt>
<trkpt lat="31.7711000" lon="35.0761720">
<ele>708.199951</ele>
<time>2017-10-20T05:39:51.000Z</time>
</trkpt>
<trkpt lat="31.7710830" lon="35.0762090">
<ele>708.299988</ele>
<time>2017-10-20T05:39:54.000Z</time>
</trkpt>
<trkpt lat="31.7710590" lon="35.0762450">
<ele>708.299988</ele>
<time>2017-10-20T05:39:57.000Z</time>
</trkpt>
<trkpt lat="31.7710420" lon="35.0762800">
<ele>708.400024</ele>
<time>2017-10-20T05:39:59.000Z</time>
</trkpt>
<trkpt lat="31.7710220" lon="35.0763070">
<ele>708.400024</ele>
<time>2017-10-20T05:40:02.000Z</time>
</trkpt>
<trkpt lat="31.7709910" lon="35.0763370">
<ele>708.700012</ele>
<time>2017-10-20T05:40:05.000Z</time>
</trkpt>
<trkpt lat="31.7709600" lon="35.0763700">
<ele>709.200012</ele>
<time>2017-10-20T05:40:08.000Z</time>
</trkpt>
<trkpt lat="31.7709340" lon="35.0763940">
<ele>709.599976</ele>
<time>2017-10-20T05:40:10.000Z</time>
</trkpt>
<trkpt lat="31.7709090" lon="35.0764100">
<ele>710.000000</ele>
<time>2017-10-20T05:40:12.000Z</time>
</trkpt>
<trkpt lat="31.7708820" lon="35.0764190">
<ele>710.299988</ele>
<time>2017-10-20T05:40:14.000Z</time>
</trkpt>
<trkpt lat="31.7708540" lon="35.0764210">
<ele>710.599976</ele>
<time>2017-10-20T05:40:16.000Z</time>
</trkpt>
<trkpt lat="31.7708220" lon="35.0764180">
<ele>710.900024</ele>
<time>2017-10-20T05:40:18.000Z</time>
</trkpt>
<trkpt lat="31.7707750" lon="35.0764230">
<ele>711.199951</ele>
<time>2017-10-20T05:40:20.000Z</time>
</trkpt>
<trkpt lat="31.7707450" lon="35.0764280">
<ele>711.299988</ele>
<time>2017-10-20T05:40:21.000Z</time>
</trkpt>
<trkpt lat="31.7707180" lon="35.0764340">
<ele>711.299988</ele>
<time>2017-10-20T05:40:22.000Z</time>
</trkpt>
<trkpt lat="31.7706780" lon="35.0764480">
<ele>711.400024</ele>
<time>2017-10-20T05:40:24.000Z</time>
</trkpt>
<trkpt lat="31.7706420" lon="35.0764810">
<ele>711.500000</ele>
<time>2017-10-20T05:40:26.000Z</time>
</trkpt>
<trkpt lat="31.7706160" lon="35.0765010">
<ele>711.600037</ele>
<time>2017-10-20T05:40:28.000Z</time>
</trkpt>
<trkpt lat="31.7705920" lon="35.0765200">
<ele>711.600037</ele>
<time>2017-10-20T05:40:30.000Z</time>
</trkpt>
<trkpt lat="31.7705690" lon="35.0765430">
<ele>711.699951</ele>
<time>2017-10-20T05:40:32.000Z</time>
</trkpt>
<trkpt lat="31.7705470" lon="35.0765750">
<ele>711.699951</ele>
<time>2017-10-20T05:40:34.000Z</time>
</trkpt>
<trkpt lat="31.7704950" lon="35.0766190">
<ele>711.899963</ele>
<time>2017-10-20T05:40:36.000Z</time>
</trkpt>
<trkpt lat="31.7704460" lon="35.0766420">
<ele>712.000000</ele>
<time>2017-10-20T05:40:38.000Z</time>
</trkpt>
<trkpt lat="31.7704020" lon="35.0766510">
<ele>712.200012</ele>
<time>2017-10-20T05:40:40.000Z</time>
</trkpt>
<trkpt lat="31.7703680" lon="35.0766610">
<ele>712.399963</ele>
<time>2017-10-20T05:40:42.000Z</time>
</trkpt>
<trkpt lat="31.7703300" lon="35.0766670">
<ele>712.700012</ele>
<time>2017-10-20T05:40:44.000Z</time>
</trkpt>
<trkpt lat="31.7702820" lon="35.0766680">
<ele>713.099976</ele>
<time>2017-10-20T05:40:46.000Z</time>
</trkpt>
<trkpt lat="31.7702470" lon="35.0766710">
<ele>713.299988</ele>
<time>2017-10-20T05:40:47.000Z</time>
</trkpt>
<trkpt lat="31.7702140" lon="35.0766720">
<ele>713.400024</ele>
<time>2017-10-20T05:40:48.000Z</time>
</trkpt>
<trkpt lat="31.7701790" lon="35.0766740">
<ele>713.400024</ele>
<time>2017-10-20T05:40:49.000Z</time>
</trkpt>
<trkpt lat="31.7701440" lon="35.0766790">
<ele>713.499939</ele>
<time>2017-10-20T05:40:50.000Z</time>
</trkpt>
<trkpt lat="31.7701120" lon="35.0766840">
<ele>713.499939</ele>
<time>2017-10-20T05:40:51.000Z</time>
</trkpt>
<trkpt lat="31.7700830" lon="35.0766910">
<ele>713.499939</ele>
<time>2017-10-20T05:40:52.000Z</time>
</trkpt>
<trkpt lat="31.7700350" lon="35.0767140">
<ele>713.599976</ele>
<time>2017-10-20T05:40:54.000Z</time>
</trkpt>
<trkpt lat="31.7700030" lon="35.0767340">
<ele>713.599976</ele>
<time>2017-10-20T05:40:56.000Z</time>
</trkpt>
<trkpt lat="31.7699740" lon="35.0767480">
<ele>713.599976</ele>
<time>2017-10-20T05:40:58.000Z</time>
</trkpt>
<trkpt lat="31.7699380" lon="35.0767520">
<ele>713.599976</ele>
<time>2017-10-20T05:41:00.000Z</time>
</trkpt>
<trkpt lat="31.7698990" lon="35.0767520">
<ele>713.599976</ele>
<time>2017-10-20T05:41:02.000Z</time>
</trkpt>
<trkpt lat="31.7698700" lon="35.0767460">
<ele>713.599976</ele>
<time>2017-10-20T05:41:03.000Z</time>
</trkpt>
<trkpt lat="31.7698390" lon="35.0767490">
<ele>713.599976</ele>
<time>2017-10-20T05:41:05.000Z</time>
</trkpt>
<trkpt lat="31.7698080" lon="35.0767440">
<ele>713.599976</ele>
<time>2017-10-20T05:41:08.000Z</time>
</trkpt>
<trkpt lat="31.7697780" lon="35.0767430">
<ele>713.599976</ele>
<time>2017-10-20T05:41:16.000Z</time>
</trkpt>
<trkpt lat="31.7697490" lon="35.0767520">
<ele>713.599976</ele>
<time>2017-10-20T05:41:19.000Z</time>
</trkpt>
<trkpt lat="31.7697120" lon="35.0767630">
<ele>713.599976</ele>
<time>2017-10-20T05:41:21.000Z</time>
</trkpt>
<trkpt lat="31.7696790" lon="35.0767880">
<ele>713.599976</ele>
<time>2017-10-20T05:41:23.000Z</time>
</trkpt>
<trkpt lat="31.7696560" lon="35.0768090">
<ele>713.599976</ele>
<time>2017-10-20T05:41:24.000Z</time>
</trkpt>
<trkpt lat="31.7696260" lon="35.0768320">
<ele>713.599976</ele>
<time>2017-10-20T05:41:26.000Z</time>
</trkpt>
<trkpt lat="31.7695830" lon="35.0768600">
<ele>713.599976</ele>
<time>2017-10-20T05:41:28.000Z</time>
</trkpt>
<trkpt lat="31.7695500" lon="35.0768810">
<ele>713.599976</ele>
<time>2017-10-20T05:41:29.000Z</time>
</trkpt>
<trkpt lat="31.7695170" lon="35.0769160">
<ele>713.599976</ele>
<time>2017-10-20T05:41:30.000Z</time>
</trkpt>
<trkpt lat="31.7694910" lon="35.0769600">
<ele>713.599976</ele>
<time>2017-10-20T05:41:31.000Z</time>
</trkpt>
<trkpt lat="31.7694760" lon="35.0769960">
<ele>713.599976</ele>
<time>2017-10-20T05:41:32.000Z</time>
</trkpt>
<trkpt lat="31.7694680" lon="35.0770330">
<ele>713.599976</ele>
<time>2017-10-20T05:41:33.000Z</time>
</trkpt>
<trkpt lat="31.7694680" lon="35.0770760">
<ele>713.599976</ele>
<time>2017-10-20T05:41:34.000Z</time>
</trkpt>
<trkpt lat="31.7694800" lon="35.0771380">
<ele>713.599976</ele>
<time>2017-10-20T05:41:36.000Z</time>
</trkpt>
<trkpt lat="31.7694950" lon="35.0771750">
<ele>713.599976</ele>
<time>2017-10-20T05:41:38.000Z</time>
</trkpt>
<trkpt lat="31.7695130" lon="35.0772030">
<ele>713.599976</ele>
<time>2017-10-20T05:41:40.000Z</time>
</trkpt>
<trkpt lat="31.7695120" lon="35.0772500">
<ele>713.499939</ele>
<time>2017-10-20T05:41:42.000Z</time>
</trkpt>
<trkpt lat="31.7695260" lon="35.0772790">
<ele>713.499939</ele>
<time>2017-10-20T05:41:46.000Z</time>
</trkpt>
<trkpt lat="31.7695350" lon="35.0773180">
<ele>713.499939</ele>
<time>2017-10-20T05:41:48.000Z</time>
</trkpt>
<trkpt lat="31.7695540" lon="35.0773690">
<ele>713.499939</ele>
<time>2017-10-20T05:41:50.000Z</time>
</trkpt>
<trkpt lat="31.7695740" lon="35.0773950">
<ele>713.499939</ele>
<time>2017-10-20T05:41:51.000Z</time>
</trkpt>
<trkpt lat="31.7695940" lon="35.0774210">
<ele>713.499939</ele>
<time>2017-10-20T05:41:52.000Z</time>
</trkpt>
<trkpt lat="31.7696120" lon="35.0774460">
<ele>713.499939</ele>
<time>2017-10-20T05:41:53.000Z</time>
</trkpt>
<trkpt lat="31.7696430" lon="35.0774970">
<ele>713.499939</ele>
<time>2017-10-20T05:41:55.000Z</time>
</trkpt>
<trkpt lat="31.7696690" lon="35.0775490">
<ele>713.499939</ele>
<time>2017-10-20T05:41:57.000Z</time>
</trkpt>
<trkpt lat="31.7696860" lon="35.0775770">
<ele>713.499939</ele>
<time>2017-10-20T05:41:58.000Z</time>
</trkpt>
<trkpt lat="31.7697060" lon="35.0775980">
<ele>713.499939</ele>
<time>2017-10-20T05:41:59.000Z</time>
</trkpt>
<trkpt lat="31.7697480" lon="35.0776360">
<ele>713.499939</ele>
<time>2017-10-20T05:42:01.000Z</time>
</trkpt>
<trkpt lat="31.7697870" lon="35.0776680">
<ele>713.400024</ele>
<time>2017-10-20T05:42:03.000Z</time>
</trkpt>
<trkpt lat="31.7698230" lon="35.0776910">
<ele>713.400024</ele>
<time>2017-10-20T05:42:05.000Z</time>
</trkpt>
<trkpt lat="31.7698590" lon="35.0777150">
<ele>713.400024</ele>
<time>2017-10-20T05:42:07.000Z</time>
</trkpt>
<trkpt lat="31.7698980" lon="35.0777370">
<ele>713.400024</ele>
<time>2017-10-20T05:42:09.000Z</time>
</trkpt>
<trkpt lat="31.7699230" lon="35.0777490">
<ele>713.299988</ele>
<time>2017-10-20T05:42:10.000Z</time>
</trkpt>
<trkpt lat="31.7699750" lon="35.0777700">
<ele>713.299988</ele>
<time>2017-10-20T05:42:12.000Z</time>
</trkpt>
<trkpt lat="31.7700010" lon="35.0777810">
<ele>713.299988</ele>
<time>2017-10-20T05:42:13.000Z</time>
</trkpt>
<trkpt lat="31.7700410" lon="35.0777980">
<ele>713.200012</ele>
<time>2017-10-20T05:42:15.000Z</time>
</trkpt>
<trkpt lat="31.7700690" lon="35.0778100">
<ele>713.099976</ele>
<time>2017-10-20T05:42:17.000Z</time>
</trkpt>
<trkpt lat="31.7701000" lon="35.0778150">
<ele>713.099976</ele>
<time>2017-10-20T05:42:20.000Z</time>
</trkpt>
<trkpt lat="31.7701300" lon="35.0778340">
<ele>713.000000</ele>
<time>2017-10-20T05:42:23.000Z</time>
</trkpt>
<trkpt lat="31.7701650" lon="35.0778570">
<ele>712.899963</ele>
<time>2017-10-20T05:42:25.000Z</time>
</trkpt>
<trkpt lat="31.7702010" lon="35.0778700">
<ele>712.800049</ele>
<time>2017-10-20T05:42:27.000Z</time>
</trkpt>
<trkpt lat="31.7702310" lon="35.0778860">
<ele>712.599976</ele>
<time>2017-10-20T05:42:29.000Z</time>
</trkpt>
<trkpt lat="31.7702660" lon="35.0779100">
<ele>712.399963</ele>
<time>2017-10-20T05:42:31.000Z</time>
</trkpt>
<trkpt lat="31.7703030" lon="35.0779390">
<ele>712.100037</ele>
<time>2017-10-20T05:42:33.000Z</time>
</trkpt>
<trkpt lat="31.7703610" lon="35.0779700">
<ele>711.699951</ele>
<time>2017-10-20T05:42:35.000Z</time>
</trkpt>
<trkpt lat="31.7703910" lon="35.0779870">
<ele>711.500000</ele>
<time>2017-10-20T05:42:36.000Z</time>
</trkpt>
<trkpt lat="31.7704160" lon="35.0780040">
<ele>711.299988</ele>
<time>2017-10-20T05:42:37.000Z</time>
</trkpt>
<trkpt lat="31.7704430" lon="35.0780210">
<ele>711.199951</ele>
<time>2017-10-20T05:42:38.000Z</time>
</trkpt>
<trkpt lat="31.7704700" lon="35.0780360">
<ele>711.199951</ele>
<time>2017-10-20T05:42:39.000Z</time>
</trkpt>
<trkpt lat="31.7704960" lon="35.0780510">
<ele>711.100037</ele>
<time>2017-10-20T05:42:40.000Z</time>
</trkpt>
<trkpt lat="31.7705250" lon="35.0780690">
<ele>711.000000</ele>
<time>2017-10-20T05:42:41.000Z</time>
</trkpt>
<trkpt lat="31.7705540" lon="35.0780880">
<ele>710.900024</ele>
<time>2017-10-20T05:42:42.000Z</time>
</trkpt>
<trkpt lat="31.7705800" lon="35.0781040">
<ele>710.900024</ele>
<time>2017-10-20T05:42:43.000Z</time>
</trkpt>
<trkpt lat="31.7706060" lon="35.0781210">
<ele>710.799988</ele>
<time>2017-10-20T05:42:44.000Z</time>
</trkpt>
<trkpt lat="31.7706340" lon="35.0781390">
<ele>710.700012</ele>
<time>2017-10-20T05:42:45.000Z</time>
</trkpt>
<trkpt lat="31.7706620" lon="35.0781550">
<ele>710.599976</ele>
<time>2017-10-20T05:42:46.000Z</time>
</trkpt>
<trkpt lat="31.7706910" lon="35.0781700">
<ele>710.500061</ele>
<time>2017-10-20T05:42:47.000Z</time>
</trkpt>
<trkpt lat="31.7707190" lon="35.0781860">
<ele>710.400024</ele>
<time>2017-10-20T05:42:48.000Z</time>
</trkpt>
<trkpt lat="31.7707430" lon="35.0782040">
<ele>710.200012</ele>
<time>2017-10-20T05:42:49.000Z</time>
</trkpt>
<trkpt lat="31.7707620" lon="35.0782300">
<ele>710.099976</ele>
<time>2017-10-20T05:42:51.000Z</time>
</trkpt>
<trkpt lat="31.7707850" lon="35.0782530">
<ele>709.900024</ele>
<time>2017-10-20T05:43:13.000Z</time>
</trkpt>
<trkpt lat="31.7708090" lon="35.0782710">
<ele>709.700012</ele>
<time>2017-10-20T05:43:23.000Z</time>
</trkpt>
<trkpt lat="31.7708260" lon="35.0783000">
<ele>709.599976</ele>
<time>2017-10-20T05:43:30.000Z</time>
</trkpt>
<trkpt lat="31.7708490" lon="35.0783410">
<ele>709.300049</ele>
<time>2017-10-20T05:43:32.000Z</time>
</trkpt>
<trkpt lat="31.7708720" lon="35.0783730">
<ele>709.100037</ele>
<time>2017-10-20T05:43:33.000Z</time>
</trkpt>
<trkpt lat="31.7708930" lon="35.0784080">
<ele>708.899963</ele>
<time>2017-10-20T05:43:34.000Z</time>
</trkpt>
<trkpt lat="31.7709060" lon="35.0784390">
<ele>708.799988</ele>
<time>2017-10-20T05:43:35.000Z</time>
</trkpt>
<trkpt lat="31.7709170" lon="35.0784830">
<ele>708.700012</ele>
<time>2017-10-20T05:43:36.000Z</time>
</trkpt>
<trkpt lat="31.7709210" lon="35.0785270">
<ele>708.600037</ele>
<time>2017-10-20T05:43:37.000Z</time>
</trkpt>
<trkpt lat="31.7709190" lon="35.0785690">
<ele>708.500000</ele>
<time>2017-10-20T05:43:38.000Z</time>
</trkpt>
<trkpt lat="31.7709230" lon="35.0786060">
<ele>708.500000</ele>
<time>2017-10-20T05:43:39.000Z</time>
</trkpt>
<trkpt lat="31.7709170" lon="35.0786440">
<ele>708.400024</ele>
<time>2017-10-20T05:43:40.000Z</time>
</trkpt>
<trkpt lat="31.7709030" lon="35.0786770">
<ele>708.299988</ele>
<time>2017-10-20T05:43:41.000Z</time>
</trkpt>
<trkpt lat="31.7708910" lon="35.0787100">
<ele>708.299988</ele>
<time>2017-10-20T05:43:42.000Z</time>
</trkpt>
<trkpt lat="31.7708730" lon="35.0787470">
<ele>708.199951</ele>
<time>2017-10-20T05:43:43.000Z</time>
</trkpt>
<trkpt lat="31.7708560" lon="35.0787820">
<ele>708.100037</ele>
<time>2017-10-20T05:43:44.000Z</time>
</trkpt>
<trkpt lat="31.7708370" lon="35.0788120">
<ele>708.100037</ele>
<time>2017-10-20T05:43:45.000Z</time>
</trkpt>
<trkpt lat="31.7708180" lon="35.0788430">
<ele>708.000000</ele>
<time>2017-10-20T05:43:46.000Z</time>
</trkpt>
<trkpt lat="31.7708010" lon="35.0788730">
<ele>707.900024</ele>
<time>2017-10-20T05:43:47.000Z</time>
</trkpt>
<trkpt lat="31.7707810" lon="35.0788970">
<ele>707.799988</ele>
<time>2017-10-20T05:43:48.000Z</time>
</trkpt>
<trkpt lat="31.7707550" lon="35.0789330">
<ele>707.599976</ele>
<time>2017-10-20T05:43:50.000Z</time>
</trkpt>
<trkpt lat="31.7707350" lon="35.0789700">
<ele>707.400024</ele>
<time>2017-10-20T05:43:52.000Z</time>
</trkpt>
<trkpt lat="31.7707160" lon="35.0790130">
<ele>707.200012</ele>
<time>2017-10-20T05:43:54.000Z</time>
</trkpt>
<trkpt lat="31.7707000" lon="35.0790420">
<ele>707.099976</ele>
<time>2017-10-20T05:43:56.000Z</time>
</trkpt>
<trkpt lat="31.7706810" lon="35.0790790">
<ele>707.000000</ele>
<time>2017-10-20T05:43:58.000Z</time>
</trkpt>
<trkpt lat="31.7706670" lon="35.0791120">
<ele>706.900024</ele>
<time>2017-10-20T05:44:00.000Z</time>
</trkpt>
<trkpt lat="31.7706520" lon="35.0791480">
<ele>706.900024</ele>
<time>2017-10-20T05:44:02.000Z</time>
</trkpt>
<trkpt lat="31.7706410" lon="35.0791800">
<ele>706.800049</ele>
<time>2017-10-20T05:44:04.000Z</time>
</trkpt>
<trkpt lat="31.7706290" lon="35.0792180">
<ele>706.800049</ele>
<time>2017-10-20T05:44:06.000Z</time>
</trkpt>
<trkpt lat="31.7706180" lon="35.0792490">
<ele>706.800049</ele>
<time>2017-10-20T05:44:08.000Z</time>
</trkpt>
<trkpt lat="31.7706080" lon="35.0792900">
<ele>706.800049</ele>
<time>2017-10-20T05:44:10.000Z</time>
</trkpt>
<trkpt lat="31.7705930" lon="35.0793330">
<ele>706.800049</ele>
<time>2017-10-20T05:44:12.000Z</time>
</trkpt>
<trkpt lat="31.7705830" lon="35.0793720">
<ele>706.800049</ele>
<time>2017-10-20T05:44:14.000Z</time>
</trkpt>
<trkpt lat="31.7705760" lon="35.0794090">
<ele>706.900024</ele>
<time>2017-10-20T05:44:16.000Z</time>
</trkpt>
<trkpt lat="31.7705760" lon="35.0794430">
<ele>707.099976</ele>
<time>2017-10-20T05:44:18.000Z</time>
</trkpt>
<trkpt lat="31.7705720" lon="35.0794790">
<ele>707.200012</ele>
<time>2017-10-20T05:44:20.000Z</time>
</trkpt>
<trkpt lat="31.7705650" lon="35.0795180">
<ele>707.400024</ele>
<time>2017-10-20T05:44:22.000Z</time>
</trkpt>
<trkpt lat="31.7705590" lon="35.0795590">
<ele>707.700012</ele>
<time>2017-10-20T05:44:24.000Z</time>
</trkpt>
<trkpt lat="31.7705550" lon="35.0795960">
<ele>708.100037</ele>
<time>2017-10-20T05:44:26.000Z</time>
</trkpt>
<trkpt lat="31.7705470" lon="35.0796370">
<ele>708.400024</ele>
<time>2017-10-20T05:44:28.000Z</time>
</trkpt>
<trkpt lat="31.7705430" lon="35.0796750">
<ele>708.700012</ele>
<time>2017-10-20T05:44:31.000Z</time>
</trkpt>
<trkpt lat="31.7705450" lon="35.0797110">
<ele>708.899963</ele>
<time>2017-10-20T05:44:34.000Z</time>
</trkpt>
<trkpt lat="31.7705470" lon="35.0797500">
<ele>709.100037</ele>
<time>2017-10-20T05:44:37.000Z</time>
</trkpt>
<trkpt lat="31.7705390" lon="35.0798030">
<ele>709.599976</ele>
<time>2017-10-20T05:44:40.000Z</time>
</trkpt>
<trkpt lat="31.7705290" lon="35.0798470">
<ele>710.000000</ele>
<time>2017-10-20T05:44:42.000Z</time>
</trkpt>
<trkpt lat="31.7705120" lon="35.0798930">
<ele>710.299988</ele>
<time>2017-10-20T05:44:44.000Z</time>
</trkpt>
<trkpt lat="31.7704930" lon="35.0799380">
<ele>710.599976</ele>
<time>2017-10-20T05:44:46.000Z</time>
</trkpt>
<trkpt lat="31.7704790" lon="35.0799810">
<ele>710.700012</ele>
<time>2017-10-20T05:44:49.000Z</time>
</trkpt>
<trkpt lat="31.7704700" lon="35.0800110">
<ele>710.799988</ele>
<time>2017-10-20T05:44:51.000Z</time>
</trkpt>
<trkpt lat="31.7704590" lon="35.0800450">
<ele>710.900024</ele>
<time>2017-10-20T05:44:53.000Z</time>
</trkpt>
<trkpt lat="31.7704490" lon="35.0800750">
<ele>711.000000</ele>
<time>2017-10-20T05:44:55.000Z</time>
</trkpt>
<trkpt lat="31.7704320" lon="35.0801140">
<ele>711.100037</ele>
<time>2017-10-20T05:44:58.000Z</time>
</trkpt>
<trkpt lat="31.7704170" lon="35.0801510">
<ele>711.199951</ele>
<time>2017-10-20T05:45:01.000Z</time>
</trkpt>
<trkpt lat="31.7703980" lon="35.0801900">
<ele>711.400024</ele>
<time>2017-10-20T05:45:04.000Z</time>
</trkpt>
<trkpt lat="31.7703730" lon="35.0802250">
<ele>711.600037</ele>
<time>2017-10-20T05:45:07.000Z</time>
</trkpt>
<trkpt lat="31.7703510" lon="35.0802630">
<ele>712.200012</ele>
<time>2017-10-20T05:45:10.000Z</time>
</trkpt>
<trkpt lat="31.7703240" lon="35.0802950">
<ele>712.800049</ele>
<time>2017-10-20T05:45:13.000Z</time>
</trkpt>
<trkpt lat="31.7703030" lon="35.0803210">
<ele>713.099976</ele>
<time>2017-10-20T05:45:15.000Z</time>
</trkpt>
<trkpt lat="31.7702750" lon="35.0803510">
<ele>713.400024</ele>
<time>2017-10-20T05:45:18.000Z</time>
</trkpt>
<trkpt lat="31.7702530" lon="35.0803800">
<ele>714.000000</ele>
<time>2017-10-20T05:45:21.000Z</time>
</trkpt>
<trkpt lat="31.7702280" lon="35.0804110">
<ele>714.500000</ele>
<time>2017-10-20T05:45:25.000Z</time>
</trkpt>
<trkpt lat="31.7701970" lon="35.0804200">
<ele>714.799988</ele>
<time>2017-10-20T05:45:27.000Z</time>
</trkpt>
<trkpt lat="31.7701380" lon="35.0804190">
<ele>714.500000</ele>
<time>2017-10-20T05:45:29.000Z</time>
</trkpt>
<trkpt lat="31.7700950" lon="35.0804200">
<ele>714.199951</ele>
<time>2017-10-20T05:45:30.000Z</time>
</trkpt>
<trkpt lat="31.7700470" lon="35.0804160">
<ele>713.799988</ele>
<time>2017-10-20T05:45:31.000Z</time>
</trkpt>
<trkpt lat="31.7699970" lon="35.0804170">
<ele>713.499939</ele>
<time>2017-10-20T05:45:32.000Z</time>
</trkpt>
<trkpt lat="31.7699460" lon="35.0804220">
<ele>713.099976</ele>
<time>2017-10-20T05:45:33.000Z</time>
</trkpt>
<trkpt lat="31.7698880" lon="35.0804310">
<ele>712.700012</ele>
<time>2017-10-20T05:45:34.000Z</time>
</trkpt>
<trkpt lat="31.7698310" lon="35.0804270">
<ele>712.299988</ele>
<time>2017-10-20T05:45:35.000Z</time>
</trkpt>
<trkpt lat="31.7697710" lon="35.0804230">
<ele>711.899963</ele>
<time>2017-10-20T05:45:36.000Z</time>
</trkpt>
<trkpt lat="31.7697130" lon="35.0804130">
<ele>711.500000</ele>
<time>2017-10-20T05:45:37.000Z</time>
</trkpt>
<trkpt lat="31.7696420" lon="35.0803990">
<ele>711.000000</ele>
<time>2017-10-20T05:45:38.000Z</time>
</trkpt>
<trkpt lat="31.7695670" lon="35.0803930">
<ele>710.099976</ele>
<time>2017-10-20T05:45:39.000Z</time>
</trkpt>
<trkpt lat="31.7694960" lon="35.0803990">
<ele>710.500061</ele>
<time>2017-10-20T05:45:40.000Z</time>
</trkpt>
<trkpt lat="31.7694400" lon="35.0804050">
<ele>711.000000</ele>
<time>2017-10-20T05:45:41.000Z</time>
</trkpt>
<trkpt lat="31.7694000" lon="35.0804100">
<ele>711.400024</ele>
<time>2017-10-20T05:45:42.000Z</time>
</trkpt>
<trkpt lat="31.7693550" lon="35.0804240">
<ele>712.000000</ele>
<time>2017-10-20T05:45:44.000Z</time>
</trkpt>
<trkpt lat="31.7693330" lon="35.0804410">
<ele>712.599976</ele>
<time>2017-10-20T05:45:46.000Z</time>
</trkpt>
<trkpt lat="31.7693040" lon="35.0804680">
<ele>713.499939</ele>
<time>2017-10-20T05:45:49.000Z</time>
</trkpt>
<trkpt lat="31.7692840" lon="35.0804930">
<ele>714.099976</ele>
<time>2017-10-20T05:45:51.000Z</time>
</trkpt>
<trkpt lat="31.7692610" lon="35.0805220">
<ele>714.500000</ele>
<time>2017-10-20T05:45:53.000Z</time>
</trkpt>
<trkpt lat="31.7692340" lon="35.0805510">
<ele>714.799988</ele>
<time>2017-10-20T05:45:55.000Z</time>
</trkpt>
<trkpt lat="31.7692120" lon="35.0805750">
<ele>715.100037</ele>
<time>2017-10-20T05:45:57.000Z</time>
</trkpt>
<trkpt lat="31.7691940" lon="35.0805990">
<ele>715.299988</ele>
<time>2017-10-20T05:45:59.000Z</time>
</trkpt>
<trkpt lat="31.7691760" lon="35.0806290">
<ele>716.000000</ele>
<time>2017-10-20T05:46:02.000Z</time>
</trkpt>
<trkpt lat="31.7691590" lon="35.0806610">
<ele>716.599976</ele>
<time>2017-10-20T05:46:05.000Z</time>
</trkpt>
<trkpt lat="31.7691310" lon="35.0806860">
<ele>716.900024</ele>
<time>2017-10-20T05:46:10.000Z</time>
</trkpt>
<trkpt lat="31.7691050" lon="35.0807050">
<ele>717.099976</ele>
<time>2017-10-20T05:46:15.000Z</time>
</trkpt>
<trkpt lat="31.7690840" lon="35.0807270">
<ele>717.299988</ele>
<time>2017-10-20T05:46:20.000Z</time>
</trkpt>
<trkpt lat="31.7690610" lon="35.0807660">
<ele>717.500000</ele>
<time>2017-10-20T05:46:23.000Z</time>
</trkpt>
<trkpt lat="31.7690380" lon="35.0807920">
<ele>717.699951</ele>
<time>2017-10-20T05:46:25.000Z</time>
</trkpt>
<trkpt lat="31.7690290" lon="35.0808310">
<ele>717.900024</ele>
<time>2017-10-20T05:46:28.000Z</time>
</trkpt>
<trkpt lat="31.7690280" lon="35.0808690">
<ele>718.000000</ele>
<time>2017-10-20T05:46:30.000Z</time>
</trkpt>
<trkpt lat="31.7690250" lon="35.0809120">
<ele>718.200012</ele>
<time>2017-10-20T05:46:32.000Z</time>
</trkpt>
<trkpt lat="31.7690150" lon="35.0809530">
<ele>718.399963</ele>
<time>2017-10-20T05:46:34.000Z</time>
</trkpt>
<trkpt lat="31.7690030" lon="35.0810050">
<ele>718.899963</ele>
<time>2017-10-20T05:46:36.000Z</time>
</trkpt>
<trkpt lat="31.7689900" lon="35.0810590">
<ele>719.599976</ele>
<time>2017-10-20T05:46:38.000Z</time>
</trkpt>
<trkpt lat="31.7689750" lon="35.0811170">
<ele>720.200012</ele>
<time>2017-10-20T05:46:40.000Z</time>
</trkpt>
<trkpt lat="31.7689560" lon="35.0811710">
<ele>720.600037</ele>
<time>2017-10-20T05:46:42.000Z</time>
</trkpt>
<trkpt lat="31.7689410" lon="35.0812170">
<ele>720.799988</ele>
<time>2017-10-20T05:46:44.000Z</time>
</trkpt>
<trkpt lat="31.7689380" lon="35.0812750">
<ele>721.000000</ele>
<time>2017-10-20T05:46:46.000Z</time>
</trkpt>
<trkpt lat="31.7689370" lon="35.0813120">
<ele>721.100037</ele>
<time>2017-10-20T05:46:47.000Z</time>
</trkpt>
<trkpt lat="31.7689480" lon="35.0813770">
<ele>721.500000</ele>
<time>2017-10-20T05:46:49.000Z</time>
</trkpt>
<trkpt lat="31.7689700" lon="35.0814230">
<ele>721.700012</ele>
<time>2017-10-20T05:46:51.000Z</time>
</trkpt>
<trkpt lat="31.7689870" lon="35.0814770">
<ele>722.000000</ele>
<time>2017-10-20T05:46:53.000Z</time>
</trkpt>
<trkpt lat="31.7689970" lon="35.0815340">
<ele>722.300049</ele>
<time>2017-10-20T05:46:55.000Z</time>
</trkpt>
<trkpt lat="31.7689990" lon="35.0815660">
<ele>722.400024</ele>
<time>2017-10-20T05:46:56.000Z</time>
</trkpt>
<trkpt lat="31.7689940" lon="35.0816030">
<ele>722.599976</ele>
<time>2017-10-20T05:46:57.000Z</time>
</trkpt>
<trkpt lat="31.7689920" lon="35.0816580">
<ele>722.900024</ele>
<time>2017-10-20T05:46:59.000Z</time>
</trkpt>
<trkpt lat="31.7689860" lon="35.0816980">
<ele>723.400024</ele>
<time>2017-10-20T05:47:00.000Z</time>
</trkpt>
<trkpt lat="31.7689730" lon="35.0817610">
<ele>724.299988</ele>
<time>2017-10-20T05:47:02.000Z</time>
</trkpt>
<trkpt lat="31.7689630" lon="35.0817980">
<ele>724.799988</ele>
<time>2017-10-20T05:47:03.000Z</time>
</trkpt>
<trkpt lat="31.7689550" lon="35.0818330">
<ele>725.099976</ele>
<time>2017-10-20T05:47:04.000Z</time>
</trkpt>
<trkpt lat="31.7689510" lon="35.0818680">
<ele>725.200012</ele>
<time>2017-10-20T05:47:05.000Z</time>
</trkpt>
<trkpt lat="31.7689470" lon="35.0819030">
<ele>725.300049</ele>
<time>2017-10-20T05:47:06.000Z</time>
</trkpt>
<trkpt lat="31.7689420" lon="35.0819390">
<ele>725.500000</ele>
<time>2017-10-20T05:47:07.000Z</time>
</trkpt>
<trkpt lat="31.7689460" lon="35.0819990">
<ele>725.700012</ele>
<time>2017-10-20T05:47:09.000Z</time>
</trkpt>
<trkpt lat="31.7689540" lon="35.0820290">
<ele>725.900024</ele>
<time>2017-10-20T05:47:10.000Z</time>
</trkpt>
<trkpt lat="31.7689620" lon="35.0820610">
<ele>725.999939</ele>
<time>2017-10-20T05:47:11.000Z</time>
</trkpt>
<trkpt lat="31.7689710" lon="35.0820950">
<ele>726.200012</ele>
<time>2017-10-20T05:47:12.000Z</time>
</trkpt>
<trkpt lat="31.7689760" lon="35.0821330">
<ele>726.299988</ele>
<time>2017-10-20T05:47:13.000Z</time>
</trkpt>
<trkpt lat="31.7689840" lon="35.0821720">
<ele>726.500000</ele>
<time>2017-10-20T05:47:14.000Z</time>
</trkpt>
<trkpt lat="31.7689890" lon="35.0822050">
<ele>726.599976</ele>
<time>2017-10-20T05:47:15.000Z</time>
</trkpt>
<trkpt lat="31.7689970" lon="35.0822550">
<ele>726.799988</ele>
<time>2017-10-20T05:47:17.000Z</time>
</trkpt>
<trkpt lat="31.7689960" lon="35.0823050">
<ele>727.199951</ele>
<time>2017-10-20T05:47:19.000Z</time>
</trkpt>
<trkpt lat="31.7689910" lon="35.0823500">
<ele>727.700012</ele>
<time>2017-10-20T05:47:21.000Z</time>
</trkpt>
<trkpt lat="31.7689890" lon="35.0823890">
<ele>728.500000</ele>
<time>2017-10-20T05:47:23.000Z</time>
</trkpt>
<trkpt lat="31.7689880" lon="35.0824270">
<ele>728.999939</ele>
<time>2017-10-20T05:47:26.000Z</time>
</trkpt>
<trkpt lat="31.7689860" lon="35.0824660">
<ele>729.400024</ele>
<time>2017-10-20T05:47:29.000Z</time>
</trkpt>
<trkpt lat="31.7690040" lon="35.0825030">
<ele>730.000000</ele>
<time>2017-10-20T05:47:32.000Z</time>
</trkpt>
<trkpt lat="31.7690240" lon="35.0825330">
<ele>730.400024</ele>
<time>2017-10-20T05:47:35.000Z</time>
</trkpt>
<trkpt lat="31.7690500" lon="35.0825620">
<ele>730.899963</ele>
<time>2017-10-20T05:47:37.000Z</time>
</trkpt>
<trkpt lat="31.7690700" lon="35.0825930">
<ele>731.599976</ele>
<time>2017-10-20T05:47:39.000Z</time>
</trkpt>
<trkpt lat="31.7690910" lon="35.0826310">
<ele>732.799988</ele>
<time>2017-10-20T05:47:41.000Z</time>
</trkpt>
<trkpt lat="31.7691110" lon="35.0826650">
<ele>733.500000</ele>
<time>2017-10-20T05:47:44.000Z</time>
</trkpt>
<trkpt lat="31.7691230" lon="35.0827020">
<ele>734.399963</ele>
<time>2017-10-20T05:47:46.000Z</time>
</trkpt>
<trkpt lat="31.7691330" lon="35.0827470">
<ele>735.599976</ele>
<time>2017-10-20T05:47:48.000Z</time>
</trkpt>
<trkpt lat="31.7691390" lon="35.0827860">
<ele>736.299988</ele>
<time>2017-10-20T05:47:50.000Z</time>
</trkpt>
<trkpt lat="31.7691440" lon="35.0828180">
<ele>736.799988</ele>
<time>2017-10-20T05:47:52.000Z</time>
</trkpt>
<trkpt lat="31.7691640" lon="35.0828560">
<ele>737.299988</ele>
<time>2017-10-20T05:47:55.000Z</time>
</trkpt>
<trkpt lat="31.7691810" lon="35.0828840">
<ele>737.800049</ele>
<time>2017-10-20T05:47:57.000Z</time>
</trkpt>
<trkpt lat="31.7691960" lon="35.0829140">
<ele>738.499939</ele>
<time>2017-10-20T05:48:00.000Z</time>
</trkpt>
<trkpt lat="31.7692260" lon="35.0829270">
<ele>739.400024</ele>
<time>2017-10-20T05:48:04.000Z</time>
</trkpt>
<trkpt lat="31.7692620" lon="35.0829310">
<ele>740.200012</ele>
<time>2017-10-20T05:48:08.000Z</time>
</trkpt>
<trkpt lat="31.7692960" lon="35.0829650">
<ele>740.899963</ele>
<time>2017-10-20T05:48:12.000Z</time>
</trkpt>
<trkpt lat="31.7693210" lon="35.0829950">
<ele>741.299988</ele>
<time>2017-10-20T05:48:14.000Z</time>
</trkpt>
<trkpt lat="31.7693420" lon="35.0830230">
<ele>741.700012</ele>
<time>2017-10-20T05:48:16.000Z</time>
</trkpt>
<trkpt lat="31.7693710" lon="35.0830450">
<ele>742.000000</ele>
<time>2017-10-20T05:48:19.000Z</time>
</trkpt>
<trkpt lat="31.7693970" lon="35.0830610">
<ele>742.699951</ele>
<time>2017-10-20T05:48:22.000Z</time>
</trkpt>
<trkpt lat="31.7694340" lon="35.0830800">
<ele>743.500000</ele>
<time>2017-10-20T05:48:25.000Z</time>
</trkpt>
<trkpt lat="31.7694650" lon="35.0830980">
<ele>743.800049</ele>
<time>2017-10-20T05:48:27.000Z</time>
</trkpt>
<trkpt lat="31.7694980" lon="35.0831310">
<ele>744.000000</ele>
<time>2017-10-20T05:48:30.000Z</time>
</trkpt>
<trkpt lat="31.7695260" lon="35.0831590">
<ele>744.200012</ele>
<time>2017-10-20T05:48:32.000Z</time>
</trkpt>
<trkpt lat="31.7695450" lon="35.0831830">
<ele>744.300049</ele>
<time>2017-10-20T05:48:34.000Z</time>
</trkpt>
<trkpt lat="31.7695660" lon="35.0832100">
<ele>744.500000</ele>
<time>2017-10-20T05:48:36.000Z</time>
</trkpt>
<trkpt lat="31.7695850" lon="35.0832370">
<ele>744.599976</ele>
<time>2017-10-20T05:48:38.000Z</time>
</trkpt>
<trkpt lat="31.7696070" lon="35.0832710">
<ele>744.799988</ele>
<time>2017-10-20T05:48:40.000Z</time>
</trkpt>
<trkpt lat="31.7696360" lon="35.0832960">
<ele>744.900024</ele>
<time>2017-10-20T05:48:42.000Z</time>
</trkpt>
<trkpt lat="31.7696690" lon="35.0833150">
<ele>745.099976</ele>
<time>2017-10-20T05:48:44.000Z</time>
</trkpt>
<trkpt lat="31.7697070" lon="35.0833380">
<ele>745.299988</ele>
<time>2017-10-20T05:48:46.000Z</time>
</trkpt>
<trkpt lat="31.7697360" lon="35.0833610">
<ele>745.500000</ele>
<time>2017-10-20T05:48:48.000Z</time>
</trkpt>
<trkpt lat="31.7697640" lon="35.0833880">
<ele>745.699951</ele>
<time>2017-10-20T05:48:50.000Z</time>
</trkpt>
<trkpt lat="31.7697930" lon="35.0834120">
<ele>746.000000</ele>
<time>2017-10-20T05:48:52.000Z</time>
</trkpt>
<trkpt lat="31.7698240" lon="35.0834380">
<ele>746.399963</ele>
<time>2017-10-20T05:48:54.000Z</time>
</trkpt>
<trkpt lat="31.7698490" lon="35.0834650">
<ele>747.000000</ele>
<time>2017-10-20T05:48:56.000Z</time>
</trkpt>
<trkpt lat="31.7698870" lon="35.0835060">
<ele>747.700012</ele>
<time>2017-10-20T05:48:58.000Z</time>
</trkpt>
<trkpt lat="31.7699230" lon="35.0835410">
<ele>748.000061</ele>
<time>2017-10-20T05:49:00.000Z</time>
</trkpt>
<trkpt lat="31.7699650" lon="35.0835780">
<ele>748.299988</ele>
<time>2017-10-20T05:49:02.000Z</time>
</trkpt>
<trkpt lat="31.7699990" lon="35.0836150">
<ele>748.699951</ele>
<time>2017-10-20T05:49:04.000Z</time>
</trkpt>
<trkpt lat="31.7700230" lon="35.0836320">
<ele>748.900024</ele>
<time>2017-10-20T05:49:07.000Z</time>
</trkpt>
<trkpt lat="31.7700470" lon="35.0836480">
<ele>749.100037</ele>
<time>2017-10-20T05:49:09.000Z</time>
</trkpt>
<trkpt lat="31.7700770" lon="35.0836750">
<ele>749.600037</ele>
<time>2017-10-20T05:49:11.000Z</time>
</trkpt>
<trkpt lat="31.7701050" lon="35.0837070">
<ele>750.399963</ele>
<time>2017-10-20T05:49:13.000Z</time>
</trkpt>
<trkpt lat="31.7701450" lon="35.0837350">
<ele>751.799988</ele>
<time>2017-10-20T05:49:15.000Z</time>
</trkpt>
<trkpt lat="31.7701730" lon="35.0837540">
<ele>752.299988</ele>
<time>2017-10-20T05:49:18.000Z</time>
</trkpt>
<trkpt lat="31.7701980" lon="35.0837900">
<ele>753.000000</ele>
<time>2017-10-20T05:49:21.000Z</time>
</trkpt>
<trkpt lat="31.7702390" lon="35.0838040">
<ele>754.099976</ele>
<time>2017-10-20T05:49:23.000Z</time>
</trkpt>
<trkpt lat="31.7702880" lon="35.0838290">
<ele>755.100037</ele>
<time>2017-10-20T05:49:26.000Z</time>
</trkpt>
<trkpt lat="31.7703180" lon="35.0838620">
<ele>755.399963</ele>
<time>2017-10-20T05:49:29.000Z</time>
</trkpt>
<trkpt lat="31.7703410" lon="35.0838850">
<ele>755.600037</ele>
<time>2017-10-20T05:49:30.000Z</time>
</trkpt>
<trkpt lat="31.7703850" lon="35.0839230">
<ele>755.799988</ele>
<time>2017-10-20T05:49:32.000Z</time>
</trkpt>
<trkpt lat="31.7704140" lon="35.0839380">
<ele>755.899963</ele>
<time>2017-10-20T05:49:33.000Z</time>
</trkpt>
<trkpt lat="31.7704610" lon="35.0839640">
<ele>756.100037</ele>
<time>2017-10-20T05:49:35.000Z</time>
</trkpt>
<trkpt lat="31.7705000" lon="35.0839830">
<ele>756.200012</ele>
<time>2017-10-20T05:49:37.000Z</time>
</trkpt>
<trkpt lat="31.7705410" lon="35.0840020">
<ele>756.300049</ele>
<time>2017-10-20T05:49:39.000Z</time>
</trkpt>
<trkpt lat="31.7705770" lon="35.0840190">
<ele>756.399963</ele>
<time>2017-10-20T05:49:41.000Z</time>
</trkpt>
<trkpt lat="31.7706060" lon="35.0840320">
<ele>756.500000</ele>
<time>2017-10-20T05:49:43.000Z</time>
</trkpt>
<trkpt lat="31.7706400" lon="35.0840500">
<ele>756.500000</ele>
<time>2017-10-20T05:49:45.000Z</time>
</trkpt>
<trkpt lat="31.7706800" lon="35.0840630">
<ele>756.599976</ele>
<time>2017-10-20T05:49:47.000Z</time>
</trkpt>
<trkpt lat="31.7707190" lon="35.0840800">
<ele>756.700012</ele>
<time>2017-10-20T05:49:49.000Z</time>
</trkpt>
<trkpt lat="31.7707630" lon="35.0841020">
<ele>756.800049</ele>
<time>2017-10-20T05:49:51.000Z</time>
</trkpt>
<trkpt lat="31.7708080" lon="35.0841220">
<ele>756.800049</ele>
<time>2017-10-20T05:49:53.000Z</time>
</trkpt>
<trkpt lat="31.7708500" lon="35.0841380">
<ele>756.900024</ele>
<time>2017-10-20T05:49:55.000Z</time>
</trkpt>
<trkpt lat="31.7708970" lon="35.0841540">
<ele>757.000000</ele>
<time>2017-10-20T05:49:57.000Z</time>
</trkpt>
<trkpt lat="31.7709270" lon="35.0841660">
<ele>756.700012</ele>
<time>2017-10-20T05:49:58.000Z</time>
</trkpt>
<trkpt lat="31.7709590" lon="35.0841760">
<ele>756.200012</ele>
<time>2017-10-20T05:49:59.000Z</time>
</trkpt>
<trkpt lat="31.7709940" lon="35.0841850">
<ele>755.600037</ele>
<time>2017-10-20T05:50:00.000Z</time>
</trkpt>
<trkpt lat="31.7710280" lon="35.0841960">
<ele>755.000000</ele>
<time>2017-10-20T05:50:01.000Z</time>
</trkpt>
<trkpt lat="31.7710570" lon="35.0842060">
<ele>754.500000</ele>
<time>2017-10-20T05:50:02.000Z</time>
</trkpt>
<trkpt lat="31.7710900" lon="35.0842080">
<ele>753.900024</ele>
<time>2017-10-20T05:50:03.000Z</time>
</trkpt>
<trkpt lat="31.7711200" lon="35.0842040">
<ele>753.399963</ele>
<time>2017-10-20T05:50:04.000Z</time>
</trkpt>
<trkpt lat="31.7711470" lon="35.0842020">
<ele>752.899963</ele>
<time>2017-10-20T05:50:05.000Z</time>
</trkpt>
<trkpt lat="31.7711780" lon="35.0842000">
<ele>752.399963</ele>
<time>2017-10-20T05:50:06.000Z</time>
</trkpt>
<trkpt lat="31.7712090" lon="35.0841990">
<ele>751.799988</ele>
<time>2017-10-20T05:50:07.000Z</time>
</trkpt>
<trkpt lat="31.7712360" lon="35.0841950">
<ele>751.200012</ele>
<time>2017-10-20T05:50:08.000Z</time>
</trkpt>
<trkpt lat="31.7712660" lon="35.0841970">
<ele>750.599976</ele>
<time>2017-10-20T05:50:09.000Z</time>
</trkpt>
<trkpt lat="31.7712950" lon="35.0842010">
<ele>750.000000</ele>
<time>2017-10-20T05:50:10.000Z</time>
</trkpt>
<trkpt lat="31.7713220" lon="35.0842080">
<ele>749.399963</ele>
<time>2017-10-20T05:50:11.000Z</time>
</trkpt>
<trkpt lat="31.7713570" lon="35.0842130">
<ele>748.600037</ele>
<time>2017-10-20T05:50:12.000Z</time>
</trkpt>
<trkpt lat="31.7713860" lon="35.0842170">
<ele>748.000061</ele>
<time>2017-10-20T05:50:13.000Z</time>
</trkpt>
<trkpt lat="31.7714430" lon="35.0842330">
<ele>746.700012</ele>
<time>2017-10-20T05:50:15.000Z</time>
</trkpt>
<trkpt lat="31.7714750" lon="35.0842440">
<ele>745.799988</ele>
<time>2017-10-20T05:50:16.000Z</time>
</trkpt>
<trkpt lat="31.7715050" lon="35.0842590">
<ele>745.000061</ele>
<time>2017-10-20T05:50:17.000Z</time>
</trkpt>
<trkpt lat="31.7715310" lon="35.0842680">
<ele>744.300049</ele>
<time>2017-10-20T05:50:18.000Z</time>
</trkpt>
<trkpt lat="31.7715790" lon="35.0842860">
<ele>743.100037</ele>
<time>2017-10-20T05:50:20.000Z</time>
</trkpt>
<trkpt lat="31.7716190" lon="35.0843240">
<ele>741.799988</ele>
<time>2017-10-20T05:50:22.000Z</time>
</trkpt>
<trkpt lat="31.7716150" lon="35.0843620">
<ele>741.799988</ele>
<time>2017-10-20T05:50:24.000Z</time>
</trkpt>
<trkpt lat="31.7715930" lon="35.0843990">
<ele>741.700012</ele>
<time>2017-10-20T05:50:27.000Z</time>
</trkpt>
<trkpt lat="31.7715780" lon="35.0844450">
<ele>741.599976</ele>
<time>2017-10-20T05:50:30.000Z</time>
</trkpt>
<trkpt lat="31.7715820" lon="35.0844790">
<ele>741.499939</ele>
<time>2017-10-20T05:50:31.000Z</time>
</trkpt>
<trkpt lat="31.7715830" lon="35.0845220">
<ele>741.400024</ele>
<time>2017-10-20T05:50:32.000Z</time>
</trkpt>
<trkpt lat="31.7715840" lon="35.0845680">
<ele>741.299988</ele>
<time>2017-10-20T05:50:33.000Z</time>
</trkpt>
<trkpt lat="31.7715800" lon="35.0846170">
<ele>741.200012</ele>
<time>2017-10-20T05:50:34.000Z</time>
</trkpt>
<trkpt lat="31.7715790" lon="35.0846700">
<ele>741.200012</ele>
<time>2017-10-20T05:50:35.000Z</time>
</trkpt>
<trkpt lat="31.7716014" lon="35.0847254">
<ele>741.099976</ele>
<time>2017-10-20T05:50:36.000Z</time>
</trkpt>
<trkpt lat="31.7716162" lon="35.0847723">
<ele>741.000000</ele>
<time>2017-10-20T05:50:37.000Z</time>
</trkpt>
<trkpt lat="31.7716333" lon="35.0848139">
<ele>741.000000</ele>
<time>2017-10-20T05:50:38.000Z</time>
</trkpt>
<trkpt lat="31.7716584" lon="35.0848756">
<ele>740.899963</ele>
<time>2017-10-20T05:50:39.000Z</time>
</trkpt>
<trkpt lat="31.7716789" lon="35.0849145">
<ele>740.899963</ele>
<time>2017-10-20T05:50:40.000Z</time>
</trkpt>
<trkpt lat="31.7717051" lon="35.0849735">
<ele>740.800049</ele>
<time>2017-10-20T05:50:41.000Z</time>
</trkpt>
<trkpt lat="31.7717302" lon="35.0850298">
<ele>740.800049</ele>
<time>2017-10-20T05:50:42.000Z</time>
</trkpt>
<trkpt lat="31.7717530" lon="35.0850673">
<ele>740.700012</ele>
<time>2017-10-20T05:50:43.000Z</time>
</trkpt>
<trkpt lat="31.7717735" lon="35.0850955">
<ele>740.700012</ele>
<time>2017-10-20T05:50:44.000Z</time>
</trkpt>
<trkpt lat="31.7717975" lon="35.0851250">
<ele>740.800049</ele>
<time>2017-10-20T05:50:45.000Z</time>
</trkpt>
<trkpt lat="31.7718203" lon="35.0851505">
<ele>741.099976</ele>
<time>2017-10-20T05:50:46.000Z</time>
</trkpt>
<trkpt lat="31.7718465" lon="35.0851907">
<ele>741.099976</ele>
<time>2017-10-20T05:50:48.000Z</time>
</trkpt>
<trkpt lat="31.7718773" lon="35.0852256">
<ele>741.400024</ele>
<time>2017-10-20T05:50:49.000Z</time>
</trkpt>
<trkpt lat="31.7718602" lon="35.0852752">
<ele>741.400024</ele>
<time>2017-10-20T05:50:50.000Z</time>
</trkpt>
<trkpt lat="31.7718465" lon="35.0853101">
<ele>741.700012</ele>
<time>2017-10-20T05:50:51.000Z</time>
</trkpt>
<trkpt lat="31.7718305" lon="35.0853530">
<ele>741.499939</ele>
<time>2017-10-20T05:50:52.000Z</time>
</trkpt>
<trkpt lat="31.7717952" lon="35.0854133">
<ele>741.799988</ele>
<time>2017-10-20T05:50:53.000Z</time>
</trkpt>
<trkpt lat="31.7717815" lon="35.0854415">
<ele>741.599976</ele>
<time>2017-10-20T05:50:55.000Z</time>
</trkpt>
<trkpt lat="31.7717370" lon="35.0854952">
<ele>742.199951</ele>
<time>2017-10-20T05:50:57.000Z</time>
</trkpt>
<trkpt lat="31.7716823" lon="35.0855636">
<ele>741.700012</ele>
<time>2017-10-20T05:50:58.000Z</time>
</trkpt>
<trkpt lat="31.7716333" lon="35.0856252">
<ele>741.499939</ele>
<time>2017-10-20T05:51:00.000Z</time>
</trkpt>
<trkpt lat="31.7715854" lon="35.0856896">
<ele>741.200012</ele>
<time>2017-10-20T05:51:02.000Z</time>
</trkpt>
<trkpt lat="31.7715501" lon="35.0857366">
<ele>740.500000</ele>
<time>2017-10-20T05:51:03.000Z</time>
</trkpt>
<trkpt lat="31.7715252" lon="35.0857862">
<ele>739.799988</ele>
<time>2017-10-20T05:51:05.000Z</time>
</trkpt>
<trkpt lat="31.7715035" lon="35.0858251">
<ele>739.000000</ele>
<time>2017-10-20T05:51:07.000Z</time>
</trkpt>
<trkpt lat="31.7714910" lon="35.0858626">
<ele>739.299988</ele>
<time>2017-10-20T05:51:10.000Z</time>
</trkpt>
<trkpt lat="31.7714762" lon="35.0859029">
<ele>739.299988</ele>
<time>2017-10-20T05:51:13.000Z</time>
</trkpt>
<trkpt lat="31.7714613" lon="35.0859417">
<ele>738.700012</ele>
<time>2017-10-20T05:51:15.000Z</time>
</trkpt>
<trkpt lat="31.7714522" lon="35.0859900">
<ele>738.099976</ele>
<time>2017-10-20T05:51:17.000Z</time>
</trkpt>
<trkpt lat="31.7714408" lon="35.0860464">
<ele>738.299988</ele>
<time>2017-10-20T05:51:19.000Z</time>
</trkpt>
<trkpt lat="31.7714328" lon="35.0860987">
<ele>737.800049</ele>
<time>2017-10-20T05:51:21.000Z</time>
</trkpt>
<trkpt lat="31.7714317" lon="35.0861456">
<ele>737.399963</ele>
<time>2017-10-20T05:51:23.000Z</time>
</trkpt>
<trkpt lat="31.7714271" lon="35.0861791">
<ele>737.700012</ele>
<time>2017-10-20T05:51:25.000Z</time>
</trkpt>
<trkpt lat="31.7714317" lon="35.0862180">
<ele>738.000000</ele>
<time>2017-10-20T05:51:27.000Z</time>
</trkpt>
<trkpt lat="31.7714374" lon="35.0862676">
<ele>738.000000</ele>
<time>2017-10-20T05:51:30.000Z</time>
</trkpt>
<trkpt lat="31.7714465" lon="35.0863199">
<ele>739.000000</ele>
<time>2017-10-20T05:51:33.000Z</time>
</trkpt>
<trkpt lat="31.7714556" lon="35.0863669">
<ele>739.299988</ele>
<time>2017-10-20T05:51:35.000Z</time>
</trkpt>
<trkpt lat="31.7714750" lon="35.0864165">
<ele>740.200012</ele>
<time>2017-10-20T05:51:38.000Z</time>
</trkpt>
<trkpt lat="31.7714864" lon="35.0864621">
<ele>740.399963</ele>
<time>2017-10-20T05:51:45.000Z</time>
</trkpt>
<trkpt lat="31.7715035" lon="35.0865063">
<ele>740.500000</ele>
<time>2017-10-20T05:51:50.000Z</time>
</trkpt>
<trkpt lat="31.7715172" lon="35.0865385">
<ele>741.200012</ele>
<time>2017-10-20T05:51:54.000Z</time>
</trkpt>
<trkpt lat="31.7715297" lon="35.0865801">
<ele>741.299988</ele>
<time>2017-10-20T05:51:59.000Z</time>
</trkpt>
<trkpt lat="31.7715525" lon="35.0866458">
<ele>741.299988</ele>
<time>2017-10-20T05:52:02.000Z</time>
</trkpt>
<trkpt lat="31.7715696" lon="35.0867048">
<ele>741.299988</ele>
<time>2017-10-20T05:52:05.000Z</time>
</trkpt>
<trkpt lat="31.7715822" lon="35.0867424">
<ele>741.299988</ele>
<time>2017-10-20T05:52:07.000Z</time>
</trkpt>
<trkpt lat="31.7715936" lon="35.0867732">
<ele>741.200012</ele>
<time>2017-10-20T05:52:09.000Z</time>
</trkpt>
<trkpt lat="31.7716061" lon="35.0868081">
<ele>741.099976</ele>
<time>2017-10-20T05:52:11.000Z</time>
</trkpt>
<trkpt lat="31.7716255" lon="35.0868617">
<ele>741.700012</ele>
<time>2017-10-20T05:52:14.000Z</time>
</trkpt>
<trkpt lat="31.7716460" lon="35.0869114">
<ele>741.700012</ele>
<time>2017-10-20T05:52:16.000Z</time>
</trkpt>
<trkpt lat="31.7716609" lon="35.0869717">
<ele>741.400024</ele>
<time>2017-10-20T05:52:18.000Z</time>
</trkpt>
<trkpt lat="31.7716791" lon="35.0870213">
<ele>741.900024</ele>
<time>2017-10-20T05:52:20.000Z</time>
</trkpt>
<trkpt lat="31.7716905" lon="35.0870616">
<ele>741.900024</ele>
<time>2017-10-20T05:52:22.000Z</time>
</trkpt>
<trkpt lat="31.7716997" lon="35.0870978">
<ele>753.099976</ele>
<time>2017-10-20T05:54:08.000Z</time>
</trkpt>
<trkpt lat="31.7717077" lon="35.0871259">
<ele>752.700012</ele>
<time>2017-10-20T05:54:15.000Z</time>
</trkpt>
<trkpt lat="31.7717168" lon="35.0871581">
<ele>752.199951</ele>
<time>2017-10-20T05:54:18.000Z</time>
</trkpt>
<trkpt lat="31.7717290" lon="35.0871900">
<ele>752.399963</ele>
<time>2017-10-20T05:54:22.000Z</time>
</trkpt>
<trkpt lat="31.7717580" lon="35.0872290">
<ele>752.799988</ele>
<time>2017-10-20T05:54:31.000Z</time>
</trkpt>
<trkpt lat="31.7717800" lon="35.0872780">
<ele>753.099976</ele>
<time>2017-10-20T05:54:33.000Z</time>
</trkpt>
<trkpt lat="31.7718010" lon="35.0873180">
<ele>753.399963</ele>
<time>2017-10-20T05:54:35.000Z</time>
</trkpt>
<trkpt lat="31.7718220" lon="35.0873500">
<ele>753.599976</ele>
<time>2017-10-20T05:54:37.000Z</time>
</trkpt>
<trkpt lat="31.7718470" lon="35.0873840">
<ele>753.900024</ele>
<time>2017-10-20T05:54:39.000Z</time>
</trkpt>
<trkpt lat="31.7718710" lon="35.0874230">
<ele>754.200012</ele>
<time>2017-10-20T05:54:42.000Z</time>
</trkpt>
<trkpt lat="31.7718910" lon="35.0874560">
<ele>754.500000</ele>
<time>2017-10-20T05:54:44.000Z</time>
</trkpt>
<trkpt lat="31.7719180" lon="35.0874910">
<ele>754.799988</ele>
<time>2017-10-20T05:54:47.000Z</time>
</trkpt>
<trkpt lat="31.7719390" lon="35.0875130">
<ele>755.000000</ele>
<time>2017-10-20T05:54:49.000Z</time>
</trkpt>
<trkpt lat="31.7719620" lon="35.0875330">
<ele>755.000000</ele>
<time>2017-10-20T05:54:52.000Z</time>
</trkpt>
<trkpt lat="31.7719800" lon="35.0875580">
<ele>755.000000</ele>
<time>2017-10-20T05:54:55.000Z</time>
</trkpt>
<trkpt lat="31.7720070" lon="35.0875860">
<ele>755.000000</ele>
<time>2017-10-20T05:54:58.000Z</time>
</trkpt>
<trkpt lat="31.7720310" lon="35.0876080">
<ele>755.000000</ele>
<time>2017-10-20T05:55:00.000Z</time>
</trkpt>
<trkpt lat="31.7720530" lon="35.0876290">
<ele>755.000000</ele>
<time>2017-10-20T05:55:02.000Z</time>
</trkpt>
<trkpt lat="31.7720790" lon="35.0876560">
<ele>755.000000</ele>
<time>2017-10-20T05:55:05.000Z</time>
</trkpt>
<trkpt lat="31.7721060" lon="35.0876840">
<ele>755.000000</ele>
<time>2017-10-20T05:55:08.000Z</time>
</trkpt>
<trkpt lat="31.7721300" lon="35.0877050">
<ele>755.000000</ele>
<time>2017-10-20T05:55:10.000Z</time>
</trkpt>
<trkpt lat="31.7721660" lon="35.0877260">
<ele>755.000000</ele>
<time>2017-10-20T05:55:13.000Z</time>
</trkpt>
<trkpt lat="31.7721930" lon="35.0877460">
<ele>755.100037</ele>
<time>2017-10-20T05:55:15.000Z</time>
</trkpt>
<trkpt lat="31.7722260" lon="35.0877680">
<ele>755.600037</ele>
<time>2017-10-20T05:55:18.000Z</time>
</trkpt>
<trkpt lat="31.7722620" lon="35.0877890">
<ele>756.100037</ele>
<time>2017-10-20T05:55:21.000Z</time>
</trkpt>
<trkpt lat="31.7722870" lon="35.0878160">
<ele>756.399963</ele>
<time>2017-10-20T05:55:23.000Z</time>
</trkpt>
<trkpt lat="31.7723090" lon="35.0878400">
<ele>756.800049</ele>
<time>2017-10-20T05:55:25.000Z</time>
</trkpt>
<trkpt lat="31.7723310" lon="35.0878620">
<ele>757.099976</ele>
<time>2017-10-20T05:55:27.000Z</time>
</trkpt>
<trkpt lat="31.7723630" lon="35.0878840">
<ele>757.500061</ele>
<time>2017-10-20T05:55:30.000Z</time>
</trkpt>
<trkpt lat="31.7723960" lon="35.0878920">
<ele>757.799988</ele>
<time>2017-10-20T05:55:33.000Z</time>
</trkpt>
<trkpt lat="31.7724210" lon="35.0879120">
<ele>758.100037</ele>
<time>2017-10-20T05:55:35.000Z</time>
</trkpt>
<trkpt lat="31.7724620" lon="35.0879210">
<ele>758.500000</ele>
<time>2017-10-20T05:55:38.000Z</time>
</trkpt>
<trkpt lat="31.7724890" lon="35.0879340">
<ele>758.799988</ele>
<time>2017-10-20T05:55:40.000Z</time>
</trkpt>
<trkpt lat="31.7725200" lon="35.0879560">
<ele>759.100037</ele>
<time>2017-10-20T05:55:43.000Z</time>
</trkpt>
<trkpt lat="31.7725510" lon="35.0879780">
<ele>759.399963</ele>
<time>2017-10-20T05:55:46.000Z</time>
</trkpt>
<trkpt lat="31.7725900" lon="35.0879950">
<ele>759.700012</ele>
<time>2017-10-20T05:55:49.000Z</time>
</trkpt>
<trkpt lat="31.7726160" lon="35.0880040">
<ele>759.900024</ele>
<time>2017-10-20T05:55:51.000Z</time>
</trkpt>
<trkpt lat="31.7726510" lon="35.0880130">
<ele>760.200012</ele>
<time>2017-10-20T05:55:53.000Z</time>
</trkpt>
<trkpt lat="31.7726800" lon="35.0880220">
<ele>760.400024</ele>
<time>2017-10-20T05:55:55.000Z</time>
</trkpt>
<trkpt lat="31.7727030" lon="35.0880410">
<ele>760.500061</ele>
<time>2017-10-20T05:55:57.000Z</time>
</trkpt>
<trkpt lat="31.7727320" lon="35.0880580">
<ele>760.700012</ele>
<time>2017-10-20T05:56:00.000Z</time>
</trkpt>
<trkpt lat="31.7727610" lon="35.0880830">
<ele>761.000000</ele>
<time>2017-10-20T05:56:03.000Z</time>
</trkpt>
<trkpt lat="31.7727970" lon="35.0880930">
<ele>761.199951</ele>
<time>2017-10-20T05:56:06.000Z</time>
</trkpt>
<trkpt lat="31.7728290" lon="35.0881080">
<ele>761.400024</ele>
<time>2017-10-20T05:56:09.000Z</time>
</trkpt>
<trkpt lat="31.7728550" lon="35.0881250">
<ele>761.600037</ele>
<time>2017-10-20T05:56:11.000Z</time>
</trkpt>
<trkpt lat="31.7728820" lon="35.0881420">
<ele>761.899963</ele>
<time>2017-10-20T05:56:13.000Z</time>
</trkpt>
<trkpt lat="31.7729220" lon="35.0881530">
<ele>762.200012</ele>
<time>2017-10-20T05:56:16.000Z</time>
</trkpt>
<trkpt lat="31.7729520" lon="35.0881560">
<ele>762.399963</ele>
<time>2017-10-20T05:56:18.000Z</time>
</trkpt>
<trkpt lat="31.7729780" lon="35.0881690">
<ele>762.599976</ele>
<time>2017-10-20T05:56:20.000Z</time>
</trkpt>
<trkpt lat="31.7730080" lon="35.0881790">
<ele>762.899963</ele>
<time>2017-10-20T05:56:22.000Z</time>
</trkpt>
<trkpt lat="31.7730440" lon="35.0881800">
<ele>763.200012</ele>
<time>2017-10-20T05:56:24.000Z</time>
</trkpt>
<trkpt lat="31.7730780" lon="35.0881840">
<ele>763.400024</ele>
<time>2017-10-20T05:56:26.000Z</time>
</trkpt>
<trkpt lat="31.7731140" lon="35.0881850">
<ele>763.700012</ele>
<time>2017-10-20T05:56:39.000Z</time>
</trkpt>
<trkpt lat="31.7731440" lon="35.0881960">
<ele>764.000000</ele>
<time>2017-10-20T05:56:41.000Z</time>
</trkpt>
<trkpt lat="31.7731760" lon="35.0882090">
<ele>764.299988</ele>
<time>2017-10-20T05:56:43.000Z</time>
</trkpt>
<trkpt lat="31.7732180" lon="35.0882210">
<ele>764.699951</ele>
<time>2017-10-20T05:56:45.000Z</time>
</trkpt>
<trkpt lat="31.7732470" lon="35.0882300">
<ele>764.899963</ele>
<time>2017-10-20T05:56:46.000Z</time>
</trkpt>
<trkpt lat="31.7732760" lon="35.0882400">
<ele>765.200012</ele>
<time>2017-10-20T05:56:47.000Z</time>
</trkpt>
<trkpt lat="31.7733060" lon="35.0882520">
<ele>765.500000</ele>
<time>2017-10-20T05:56:48.000Z</time>
</trkpt>
<trkpt lat="31.7733380" lon="35.0882630">
<ele>765.800049</ele>
<time>2017-10-20T05:56:49.000Z</time>
</trkpt>
<trkpt lat="31.7733670" lon="35.0882720">
<ele>766.000000</ele>
<time>2017-10-20T05:56:50.000Z</time>
</trkpt>
<trkpt lat="31.7734000" lon="35.0882780">
<ele>766.400024</ele>
<time>2017-10-20T05:56:51.000Z</time>
</trkpt>
<trkpt lat="31.7734330" lon="35.0882830">
<ele>766.700012</ele>
<time>2017-10-20T05:56:52.000Z</time>
</trkpt>
<trkpt lat="31.7734650" lon="35.0882870">
<ele>767.000000</ele>
<time>2017-10-20T05:56:53.000Z</time>
</trkpt>
<trkpt lat="31.7735000" lon="35.0882920">
<ele>767.299988</ele>
<time>2017-10-20T05:56:54.000Z</time>
</trkpt>
<trkpt lat="31.7735370" lon="35.0882970">
<ele>767.699951</ele>
<time>2017-10-20T05:56:55.000Z</time>
</trkpt>
<trkpt lat="31.7735710" lon="35.0883020">
<ele>768.100037</ele>
<time>2017-10-20T05:56:56.000Z</time>
</trkpt>
<trkpt lat="31.7736060" lon="35.0883050">
<ele>768.399963</ele>
<time>2017-10-20T05:56:57.000Z</time>
</trkpt>
<trkpt lat="31.7736430" lon="35.0883100">
<ele>768.800049</ele>
<time>2017-10-20T05:56:58.000Z</time>
</trkpt>
<trkpt lat="31.7736790" lon="35.0883130">
<ele>769.200012</ele>
<time>2017-10-20T05:56:59.000Z</time>
</trkpt>
<trkpt lat="31.7737170" lon="35.0883180">
<ele>769.599976</ele>
<time>2017-10-20T05:57:00.000Z</time>
</trkpt>
<trkpt lat="31.7737450" lon="35.0883230">
<ele>769.900024</ele>
<time>2017-10-20T05:57:01.000Z</time>
</trkpt>
<trkpt lat="31.7737730" lon="35.0883290">
<ele>770.200012</ele>
<time>2017-10-20T05:57:02.000Z</time>
</trkpt>
<trkpt lat="31.7738040" lon="35.0883350">
<ele>770.500000</ele>
<time>2017-10-20T05:57:03.000Z</time>
</trkpt>
<trkpt lat="31.7738340" lon="35.0883390">
<ele>770.799988</ele>
<time>2017-10-20T05:57:04.000Z</time>
</trkpt>
<trkpt lat="31.7738650" lon="35.0883380">
<ele>771.100037</ele>
<time>2017-10-20T05:57:05.000Z</time>
</trkpt>
<trkpt lat="31.7739200" lon="35.0883400">
<ele>771.600037</ele>
<time>2017-10-20T05:57:07.000Z</time>
</trkpt>
<trkpt lat="31.7739490" lon="35.0883460">
<ele>771.899963</ele>
<time>2017-10-20T05:57:08.000Z</time>
</trkpt>
<trkpt lat="31.7739780" lon="35.0883540">
<ele>772.200012</ele>
<time>2017-10-20T05:57:09.000Z</time>
</trkpt>
<trkpt lat="31.7740060" lon="35.0883620">
<ele>772.500000</ele>
<time>2017-10-20T05:57:10.000Z</time>
</trkpt>
<trkpt lat="31.7740350" lon="35.0883690">
<ele>772.700012</ele>
<time>2017-10-20T05:57:11.000Z</time>
</trkpt>
<trkpt lat="31.7740730" lon="35.0883740">
<ele>773.099976</ele>
<time>2017-10-20T05:57:12.000Z</time>
</trkpt>
<trkpt lat="31.7741060" lon="35.0883790">
<ele>773.400024</ele>
<time>2017-10-20T05:57:13.000Z</time>
</trkpt>
<trkpt lat="31.7741360" lon="35.0883830">
<ele>773.699951</ele>
<time>2017-10-20T05:57:14.000Z</time>
</trkpt>
<trkpt lat="31.7741860" lon="35.0884030">
<ele>774.200012</ele>
<time>2017-10-20T05:57:16.000Z</time>
</trkpt>
<trkpt lat="31.7742130" lon="35.0884110">
<ele>774.399963</ele>
<time>2017-10-20T05:57:17.000Z</time>
</trkpt>
<trkpt lat="31.7742590" lon="35.0884330">
<ele>774.899963</ele>
<time>2017-10-20T05:57:19.000Z</time>
</trkpt>
<trkpt lat="31.7743040" lon="35.0884560">
<ele>775.300049</ele>
<time>2017-10-20T05:57:21.000Z</time>
</trkpt>
<trkpt lat="31.7743420" lon="35.0884720">
<ele>775.700012</ele>
<time>2017-10-20T05:57:23.000Z</time>
</trkpt>
<trkpt lat="31.7743740" lon="35.0884890">
<ele>775.999939</ele>
<time>2017-10-20T05:57:25.000Z</time>
</trkpt>
<trkpt lat="31.7744050" lon="35.0885230">
<ele>776.400024</ele>
<time>2017-10-20T05:57:27.000Z</time>
</trkpt>
<trkpt lat="31.7744330" lon="35.0885530">
<ele>776.699951</ele>
<time>2017-10-20T05:57:29.000Z</time>
</trkpt>
<trkpt lat="31.7744570" lon="35.0885830">
<ele>777.000000</ele>
<time>2017-10-20T05:57:31.000Z</time>
</trkpt>
<trkpt lat="31.7744760" lon="35.0886220">
<ele>777.000000</ele>
<time>2017-10-20T05:57:33.000Z</time>
</trkpt>
<trkpt lat="31.7744800" lon="35.0886780">
<ele>777.000000</ele>
<time>2017-10-20T05:57:35.000Z</time>
</trkpt>
<trkpt lat="31.7744790" lon="35.0887110">
<ele>777.000000</ele>
<time>2017-10-20T05:57:36.000Z</time>
</trkpt>
<trkpt lat="31.7744780" lon="35.0887430">
<ele>777.000000</ele>
<time>2017-10-20T05:57:37.000Z</time>
</trkpt>
<trkpt lat="31.7744670" lon="35.0887900">
<ele>777.000000</ele>
<time>2017-10-20T05:57:39.000Z</time>
</trkpt>
<trkpt lat="31.7744490" lon="35.0888310">
<ele>777.000000</ele>
<time>2017-10-20T05:57:41.000Z</time>
</trkpt>
<trkpt lat="31.7744370" lon="35.0888770">
<ele>777.199951</ele>
<time>2017-10-20T05:57:43.000Z</time>
</trkpt>
<trkpt lat="31.7744300" lon="35.0889100">
<ele>777.500000</ele>
<time>2017-10-20T05:57:46.000Z</time>
</trkpt>
<trkpt lat="31.7744460" lon="35.0889410">
<ele>777.700012</ele>
<time>2017-10-20T05:57:48.000Z</time>
</trkpt>
<trkpt lat="31.7744690" lon="35.0889780">
<ele>778.000000</ele>
<time>2017-10-20T05:57:50.000Z</time>
</trkpt>
<trkpt lat="31.7744830" lon="35.0890130">
<ele>778.200012</ele>
<time>2017-10-20T05:57:52.000Z</time>
</trkpt>
<trkpt lat="31.7744880" lon="35.0890440">
<ele>778.500000</ele>
<time>2017-10-20T05:57:54.000Z</time>
</trkpt>
<trkpt lat="31.7744910" lon="35.0890860">
<ele>778.900024</ele>
<time>2017-10-20T05:57:56.000Z</time>
</trkpt>
<trkpt lat="31.7744930" lon="35.0891220">
<ele>779.299988</ele>
<time>2017-10-20T05:57:59.000Z</time>
</trkpt>
<trkpt lat="31.7744920" lon="35.0891550">
<ele>779.599976</ele>
<time>2017-10-20T05:58:02.000Z</time>
</trkpt>
<trkpt lat="31.7744870" lon="35.0891910">
<ele>780.000000</ele>
<time>2017-10-20T05:58:04.000Z</time>
</trkpt>
<trkpt lat="31.7744840" lon="35.0892230">
<ele>780.399963</ele>
<time>2017-10-20T05:58:06.000Z</time>
</trkpt>
<trkpt lat="31.7744630" lon="35.0892470">
<ele>780.799988</ele>
<time>2017-10-20T05:58:09.000Z</time>
</trkpt>
<trkpt lat="31.7744680" lon="35.0892970">
<ele>781.300049</ele>
<time>2017-10-20T05:58:12.000Z</time>
</trkpt>
<trkpt lat="31.7744720" lon="35.0893470">
<ele>781.700012</ele>
<time>2017-10-20T05:58:14.000Z</time>
</trkpt>
<trkpt lat="31.7744740" lon="35.0893830">
<ele>782.099976</ele>
<time>2017-10-20T05:58:16.000Z</time>
</trkpt>
<trkpt lat="31.7744780" lon="35.0894240">
<ele>782.500061</ele>
<time>2017-10-20T05:58:18.000Z</time>
</trkpt>
<trkpt lat="31.7744830" lon="35.0894630">
<ele>784.500000</ele>
<time>2017-10-20T05:58:20.000Z</time>
</trkpt>
<trkpt lat="31.7744980" lon="35.0895040">
<ele>786.500000</ele>
<time>2017-10-20T05:58:22.000Z</time>
</trkpt>
<trkpt lat="31.7745110" lon="35.0895390">
<ele>788.599976</ele>
<time>2017-10-20T05:58:24.000Z</time>
</trkpt>
<trkpt lat="31.7745270" lon="35.0895820">
<ele>788.599976</ele>
<time>2017-10-20T05:58:26.000Z</time>
</trkpt>
<trkpt lat="31.7745460" lon="35.0896330">
<ele>788.499939</ele>
<time>2017-10-20T05:58:28.000Z</time>
</trkpt>
<trkpt lat="31.7745640" lon="35.0896790">
<ele>788.299988</ele>
<time>2017-10-20T05:58:30.000Z</time>
</trkpt>
<trkpt lat="31.7745750" lon="35.0897220">
<ele>788.200012</ele>
<time>2017-10-20T05:58:32.000Z</time>
</trkpt>
<trkpt lat="31.7745820" lon="35.0897640">
<ele>788.000000</ele>
<time>2017-10-20T05:58:34.000Z</time>
</trkpt>
<trkpt lat="31.7745890" lon="35.0898030">
<ele>788.000000</ele>
<time>2017-10-20T05:58:36.000Z</time>
</trkpt>
<trkpt lat="31.7745930" lon="35.0898560">
<ele>788.000000</ele>
<time>2017-10-20T05:58:38.000Z</time>
</trkpt>
<trkpt lat="31.7745780" lon="35.0899040">
<ele>788.799988</ele>
<time>2017-10-20T05:58:40.000Z</time>
</trkpt>
<trkpt lat="31.7745550" lon="35.0899410">
<ele>789.199951</ele>
<time>2017-10-20T05:58:42.000Z</time>
</trkpt>
<trkpt lat="31.7745430" lon="35.0899750">
<ele>789.899963</ele>
<time>2017-10-20T05:58:44.000Z</time>
</trkpt>
<trkpt lat="31.7745570" lon="35.0900210">
<ele>789.699951</ele>
<time>2017-10-20T05:58:47.000Z</time>
</trkpt>
<trkpt lat="31.7745900" lon="35.0900540">
<ele>789.500000</ele>
<time>2017-10-20T05:58:49.000Z</time>
</trkpt>
<trkpt lat="31.7746090" lon="35.0900950">
<ele>789.699951</ele>
<time>2017-10-20T05:58:51.000Z</time>
</trkpt>
<trkpt lat="31.7746100" lon="35.0901510">
<ele>789.899963</ele>
<time>2017-10-20T05:58:53.000Z</time>
</trkpt>
<trkpt lat="31.7746000" lon="35.0901820">
<ele>790.000000</ele>
<time>2017-10-20T05:58:55.000Z</time>
</trkpt>
<trkpt lat="31.7745720" lon="35.0902070">
<ele>790.500000</ele>
<time>2017-10-20T05:58:58.000Z</time>
</trkpt>
<trkpt lat="31.7745680" lon="35.0902650">
<ele>790.599976</ele>
<time>2017-10-20T05:59:02.000Z</time>
</trkpt>
<trkpt lat="31.7745860" lon="35.0903150">
<ele>790.599976</ele>
<time>2017-10-20T05:59:04.000Z</time>
</trkpt>
<trkpt lat="31.7746000" lon="35.0903730">
<ele>790.800049</ele>
<time>2017-10-20T05:59:06.000Z</time>
</trkpt>
<trkpt lat="31.7745970" lon="35.0904070">
<ele>791.000000</ele>
<time>2017-10-20T05:59:07.000Z</time>
</trkpt>
<trkpt lat="31.7745930" lon="35.0904760">
<ele>791.000000</ele>
<time>2017-10-20T05:59:09.000Z</time>
</trkpt>
<trkpt lat="31.7745870" lon="35.0905150">
<ele>791.400024</ele>
<time>2017-10-20T05:59:10.000Z</time>
</trkpt>
<trkpt lat="31.7745800" lon="35.0905500">
<ele>792.000000</ele>
<time>2017-10-20T05:59:11.000Z</time>
</trkpt>
<trkpt lat="31.7745850" lon="35.0905920">
<ele>792.000000</ele>
<time>2017-10-20T05:59:13.000Z</time>
</trkpt>
<trkpt lat="31.7746220" lon="35.0906160">
<ele>792.000000</ele>
<time>2017-10-20T05:59:15.000Z</time>
</trkpt>
<trkpt lat="31.7746700" lon="35.0906250">
<ele>792.000000</ele>
<time>2017-10-20T05:59:17.000Z</time>
</trkpt>
<trkpt lat="31.7746970" lon="35.0906490">
<ele>792.000000</ele>
<time>2017-10-20T05:59:19.000Z</time>
</trkpt>
<trkpt lat="31.7747250" lon="35.0906570">
<ele>792.000000</ele>
<time>2017-10-20T05:59:22.000Z</time>
</trkpt>
<trkpt lat="31.7747390" lon="35.0906180">
<ele>792.000000</ele>
<time>2017-10-20T05:59:26.000Z</time>
</trkpt>
<trkpt lat="31.7747560" lon="35.0905830">
<ele>792.000000</ele>
<time>2017-10-20T05:59:28.000Z</time>
</trkpt>
<trkpt lat="31.7747780" lon="35.0905540">
<ele>792.000000</ele>
<time>2017-10-20T05:59:30.000Z</time>
</trkpt>
<trkpt lat="31.7747960" lon="35.0905260">
<ele>792.000000</ele>
<time>2017-10-20T05:59:32.000Z</time>
</trkpt>
<trkpt lat="31.7748110" lon="35.0904960">
<ele>792.000000</ele>
<time>2017-10-20T05:59:34.000Z</time>
</trkpt>
<trkpt lat="31.7748480" lon="35.0904800">
<ele>792.000000</ele>
<time>2017-10-20T05:59:37.000Z</time>
</trkpt>
<trkpt lat="31.7748790" lon="35.0904980">
<ele>790.800049</ele>
<time>2017-10-20T05:59:39.000Z</time>
</trkpt>
<trkpt lat="31.7749110" lon="35.0904770">
<ele>790.200012</ele>
<time>2017-10-20T05:59:43.000Z</time>
</trkpt>
<trkpt lat="31.7749240" lon="35.0904470">
<ele>789.799988</ele>
<time>2017-10-20T05:59:45.000Z</time>
</trkpt>
<trkpt lat="31.7749450" lon="35.0904180">
<ele>789.400024</ele>
<time>2017-10-20T05:59:48.000Z</time>
</trkpt>
<trkpt lat="31.7749670" lon="35.0903860">
<ele>788.900024</ele>
<time>2017-10-20T05:59:51.000Z</time>
</trkpt>
<trkpt lat="31.7749870" lon="35.0903440">
<ele>788.400024</ele>
<time>2017-10-20T05:59:54.000Z</time>
</trkpt>
<trkpt lat="31.7749930" lon="35.0903030">
<ele>787.899963</ele>
<time>2017-10-20T05:59:57.000Z</time>
</trkpt>
<trkpt lat="31.7749920" lon="35.0902670">
<ele>787.500000</ele>
<time>2017-10-20T06:00:00.000Z</time>
</trkpt>
<trkpt lat="31.7749860" lon="35.0902300">
<ele>787.100037</ele>
<time>2017-10-20T06:00:03.000Z</time>
</trkpt>
<trkpt lat="31.7749960" lon="35.0901990">
<ele>786.700012</ele>
<time>2017-10-20T06:00:18.000Z</time>
</trkpt>
<trkpt lat="31.7750240" lon="35.0901770">
<ele>786.299988</ele>
<time>2017-10-20T06:00:56.000Z</time>
</trkpt>
<trkpt lat="31.7750530" lon="35.0901340">
<ele>785.700012</ele>
<time>2017-10-20T06:00:58.000Z</time>
</trkpt>
<trkpt lat="31.7750710" lon="35.0901090">
<ele>785.299988</ele>
<time>2017-10-20T06:01:07.000Z</time>
</trkpt>
<trkpt lat="31.7750570" lon="35.0901360">
<ele>785.000000</ele>
<time>2017-10-20T06:01:59.000Z</time>
</trkpt>
<trkpt lat="31.7750310" lon="35.0901460">
<ele>785.000000</ele>
<time>2017-10-20T06:02:54.000Z</time>
</trkpt>
<trkpt lat="31.7750560" lon="35.0901330">
<ele>784.700012</ele>
<time>2017-10-20T06:03:40.000Z</time>
</trkpt>
<trkpt lat="31.7750960" lon="35.0901370">
<ele>784.200012</ele>
<time>2017-10-20T06:03:42.000Z</time>
</trkpt>
<trkpt lat="31.7751530" lon="35.0901470">
<ele>783.600037</ele>
<time>2017-10-20T06:03:44.000Z</time>
</trkpt>
<trkpt lat="31.7751840" lon="35.0901450">
<ele>783.199951</ele>
<time>2017-10-20T06:03:45.000Z</time>
</trkpt>
<trkpt lat="31.7752110" lon="35.0901370">
<ele>782.900024</ele>
<time>2017-10-20T06:03:46.000Z</time>
</trkpt>
<trkpt lat="31.7752400" lon="35.0901230">
<ele>782.500061</ele>
<time>2017-10-20T06:03:47.000Z</time>
</trkpt>
<trkpt lat="31.7752670" lon="35.0901050">
<ele>782.200012</ele>
<time>2017-10-20T06:03:48.000Z</time>
</trkpt>
<trkpt lat="31.7752960" lon="35.0900880">
<ele>781.800049</ele>
<time>2017-10-20T06:03:49.000Z</time>
</trkpt>
<trkpt lat="31.7753280" lon="35.0900750">
<ele>781.399963</ele>
<time>2017-10-20T06:03:50.000Z</time>
</trkpt>
<trkpt lat="31.7753620" lon="35.0900690">
<ele>780.600037</ele>
<time>2017-10-20T06:03:51.000Z</time>
</trkpt>
<trkpt lat="31.7754060" lon="35.0900640">
<ele>780.199951</ele>
<time>2017-10-20T06:03:52.000Z</time>
</trkpt>
<trkpt lat="31.7754490" lon="35.0900650">
<ele>779.799988</ele>
<time>2017-10-20T06:03:53.000Z</time>
</trkpt>
<trkpt lat="31.7754980" lon="35.0900710">
<ele>779.400024</ele>
<time>2017-10-20T06:03:54.000Z</time>
</trkpt>
<trkpt lat="31.7755510" lon="35.0900810">
<ele>778.799988</ele>
<time>2017-10-20T06:03:55.000Z</time>
</trkpt>
<trkpt lat="31.7755990" lon="35.0900950">
<ele>778.399963</ele>
<time>2017-10-20T06:03:56.000Z</time>
</trkpt>
<trkpt lat="31.7756440" lon="35.0901200">
<ele>777.899963</ele>
<time>2017-10-20T06:03:57.000Z</time>
</trkpt>
<trkpt lat="31.7756840" lon="35.0901560">
<ele>777.399963</ele>
<time>2017-10-20T06:03:58.000Z</time>
</trkpt>
<trkpt lat="31.7757200" lon="35.0901980">
<ele>776.900024</ele>
<time>2017-10-20T06:03:59.000Z</time>
</trkpt>
<trkpt lat="31.7757560" lon="35.0902450">
<ele>776.400024</ele>
<time>2017-10-20T06:04:00.000Z</time>
</trkpt>
<trkpt lat="31.7757890" lon="35.0902890">
<ele>776.099976</ele>
<time>2017-10-20T06:04:01.000Z</time>
</trkpt>
<trkpt lat="31.7758210" lon="35.0903370">
<ele>775.700012</ele>
<time>2017-10-20T06:04:02.000Z</time>
</trkpt>
<trkpt lat="31.7758580" lon="35.0903790">
<ele>775.399963</ele>
<time>2017-10-20T06:04:03.000Z</time>
</trkpt>
<trkpt lat="31.7758910" lon="35.0904140">
<ele>775.000000</ele>
<time>2017-10-20T06:04:04.000Z</time>
</trkpt>
<trkpt lat="31.7759260" lon="35.0904450">
<ele>774.600037</ele>
<time>2017-10-20T06:04:05.000Z</time>
</trkpt>
<trkpt lat="31.7759620" lon="35.0904780">
<ele>774.100037</ele>
<time>2017-10-20T06:04:06.000Z</time>
</trkpt>
<trkpt lat="31.7759950" lon="35.0905190">
<ele>773.699951</ele>
<time>2017-10-20T06:04:07.000Z</time>
</trkpt>
<trkpt lat="31.7760200" lon="35.0905610">
<ele>773.099976</ele>
<time>2017-10-20T06:04:08.000Z</time>
</trkpt>
<trkpt lat="31.7760410" lon="35.0906090">
<ele>773.200012</ele>
<time>2017-10-20T06:04:09.000Z</time>
</trkpt>
<trkpt lat="31.7760570" lon="35.0906620">
<ele>773.400024</ele>
<time>2017-10-20T06:04:10.000Z</time>
</trkpt>
<trkpt lat="31.7760690" lon="35.0907240">
<ele>773.600037</ele>
<time>2017-10-20T06:04:11.000Z</time>
</trkpt>
<trkpt lat="31.7760750" lon="35.0907910">
<ele>773.799988</ele>
<time>2017-10-20T06:04:12.000Z</time>
</trkpt>
<trkpt lat="31.7760810" lon="35.0908650">
<ele>774.100037</ele>
<time>2017-10-20T06:04:13.000Z</time>
</trkpt>
<trkpt lat="31.7760780" lon="35.0909440">
<ele>774.399963</ele>
<time>2017-10-20T06:04:14.000Z</time>
</trkpt>
<trkpt lat="31.7760680" lon="35.0910210">
<ele>774.700012</ele>
<time>2017-10-20T06:04:15.000Z</time>
</trkpt>
<trkpt lat="31.7760490" lon="35.0910940">
<ele>775.500000</ele>
<time>2017-10-20T06:04:16.000Z</time>
</trkpt>
<trkpt lat="31.7760280" lon="35.0911610">
<ele>775.599976</ele>
<time>2017-10-20T06:04:17.000Z</time>
</trkpt>
<trkpt lat="31.7760050" lon="35.0912260">
<ele>776.200012</ele>
<time>2017-10-20T06:04:18.000Z</time>
</trkpt>
<trkpt lat="31.7759770" lon="35.0912810">
<ele>777.500000</ele>
<time>2017-10-20T06:04:19.000Z</time>
</trkpt>
<trkpt lat="31.7759460" lon="35.0913330">
<ele>777.399963</ele>
<time>2017-10-20T06:04:20.000Z</time>
</trkpt>
<trkpt lat="31.7759140" lon="35.0913690">
<ele>777.799988</ele>
<time>2017-10-20T06:04:21.000Z</time>
</trkpt>
<trkpt lat="31.7758850" lon="35.0914030">
<ele>778.599976</ele>
<time>2017-10-20T06:04:22.000Z</time>
</trkpt>
<trkpt lat="31.7758610" lon="35.0914340">
<ele>778.799988</ele>
<time>2017-10-20T06:04:23.000Z</time>
</trkpt>
<trkpt lat="31.7758410" lon="35.0914700">
<ele>778.799988</ele>
<time>2017-10-20T06:04:24.000Z</time>
</trkpt>
<trkpt lat="31.7758140" lon="35.0915020">
<ele>779.099976</ele>
<time>2017-10-20T06:04:25.000Z</time>
</trkpt>
<trkpt lat="31.7757860" lon="35.0915340">
<ele>779.599976</ele>
<time>2017-10-20T06:04:26.000Z</time>
</trkpt>
<trkpt lat="31.7757580" lon="35.0915630">
<ele>780.100037</ele>
<time>2017-10-20T06:04:27.000Z</time>
</trkpt>
<trkpt lat="31.7757310" lon="35.0915930">
<ele>780.500000</ele>
<time>2017-10-20T06:04:28.000Z</time>
</trkpt>
<trkpt lat="31.7757000" lon="35.0916220">
<ele>780.899963</ele>
<time>2017-10-20T06:04:29.000Z</time>
</trkpt>
<trkpt lat="31.7756640" lon="35.0916470">
<ele>780.700012</ele>
<time>2017-10-20T06:04:30.000Z</time>
</trkpt>
<trkpt lat="31.7756250" lon="35.0916740">
<ele>780.500000</ele>
<time>2017-10-20T06:04:31.000Z</time>
</trkpt>
<trkpt lat="31.7755880" lon="35.0916910">
<ele>780.700012</ele>
<time>2017-10-20T06:04:32.000Z</time>
</trkpt>
<trkpt lat="31.7755520" lon="35.0917050">
<ele>780.799988</ele>
<time>2017-10-20T06:04:33.000Z</time>
</trkpt>
<trkpt lat="31.7755160" lon="35.0917190">
<ele>781.100037</ele>
<time>2017-10-20T06:04:34.000Z</time>
</trkpt>
<trkpt lat="31.7754800" lon="35.0917310">
<ele>781.300049</ele>
<time>2017-10-20T06:04:35.000Z</time>
</trkpt>
<trkpt lat="31.7754420" lon="35.0917460">
<ele>781.800049</ele>
<time>2017-10-20T06:04:36.000Z</time>
</trkpt>
<trkpt lat="31.7754050" lon="35.0917610">
<ele>782.299988</ele>
<time>2017-10-20T06:04:37.000Z</time>
</trkpt>
<trkpt lat="31.7753680" lon="35.0917810">
<ele>782.900024</ele>
<time>2017-10-20T06:04:38.000Z</time>
</trkpt>
<trkpt lat="31.7753300" lon="35.0918030">
<ele>783.000000</ele>
<time>2017-10-20T06:04:39.000Z</time>
</trkpt>
<trkpt lat="31.7752910" lon="35.0918230">
<ele>783.100037</ele>
<time>2017-10-20T06:04:40.000Z</time>
</trkpt>
<trkpt lat="31.7752490" lon="35.0918480">
<ele>782.900024</ele>
<time>2017-10-20T06:04:41.000Z</time>
</trkpt>
<trkpt lat="31.7752050" lon="35.0918770">
<ele>782.599976</ele>
<time>2017-10-20T06:04:42.000Z</time>
</trkpt>
<trkpt lat="31.7751600" lon="35.0919060">
<ele>781.599976</ele>
<time>2017-10-20T06:04:43.000Z</time>
</trkpt>
<trkpt lat="31.7751160" lon="35.0919420">
<ele>780.600037</ele>
<time>2017-10-20T06:04:44.000Z</time>
</trkpt>
<trkpt lat="31.7750740" lon="35.0919760">
<ele>779.599976</ele>
<time>2017-10-20T06:04:45.000Z</time>
</trkpt>
<trkpt lat="31.7750340" lon="35.0920120">
<ele>779.299988</ele>
<time>2017-10-20T06:04:46.000Z</time>
</trkpt>
<trkpt lat="31.7749960" lon="35.0920480">
<ele>779.099976</ele>
<time>2017-10-20T06:04:47.000Z</time>
</trkpt>
<trkpt lat="31.7749590" lon="35.0920820">
<ele>778.500000</ele>
<time>2017-10-20T06:04:48.000Z</time>
</trkpt>
<trkpt lat="31.7749220" lon="35.0921150">
<ele>778.000000</ele>
<time>2017-10-20T06:04:49.000Z</time>
</trkpt>
<trkpt lat="31.7748870" lon="35.0921470">
<ele>778.099976</ele>
<time>2017-10-20T06:04:50.000Z</time>
</trkpt>
<trkpt lat="31.7748530" lon="35.0921790">
<ele>778.200012</ele>
<time>2017-10-20T06:04:51.000Z</time>
</trkpt>
<trkpt lat="31.7748190" lon="35.0922120">
<ele>778.200012</ele>
<time>2017-10-20T06:04:52.000Z</time>
</trkpt>
<trkpt lat="31.7747820" lon="35.0922400">
<ele>778.200012</ele>
<time>2017-10-20T06:04:53.000Z</time>
</trkpt>
<trkpt lat="31.7747470" lon="35.0922710">
<ele>778.099976</ele>
<time>2017-10-20T06:04:54.000Z</time>
</trkpt>
<trkpt lat="31.7747140" lon="35.0923040">
<ele>778.000000</ele>
<time>2017-10-20T06:04:55.000Z</time>
</trkpt>
<trkpt lat="31.7746810" lon="35.0923330">
<ele>778.000000</ele>
<time>2017-10-20T06:04:56.000Z</time>
</trkpt>
<trkpt lat="31.7746450" lon="35.0923600">
<ele>778.000000</ele>
<time>2017-10-20T06:04:57.000Z</time>
</trkpt>
<trkpt lat="31.7746070" lon="35.0923820">
<ele>778.000000</ele>
<time>2017-10-20T06:04:58.000Z</time>
</trkpt>
<trkpt lat="31.7745700" lon="35.0924000">
<ele>778.000000</ele>
<time>2017-10-20T06:04:59.000Z</time>
</trkpt>
<trkpt lat="31.7745370" lon="35.0924110">
<ele>778.000000</ele>
<time>2017-10-20T06:05:00.000Z</time>
</trkpt>
<trkpt lat="31.7745080" lon="35.0924250">
<ele>778.000000</ele>
<time>2017-10-20T06:05:01.000Z</time>
</trkpt>
<trkpt lat="31.7744800" lon="35.0924360">
<ele>778.000000</ele>
<time>2017-10-20T06:05:02.000Z</time>
</trkpt>
<trkpt lat="31.7744260" lon="35.0924530">
<ele>778.000000</ele>
<time>2017-10-20T06:05:04.000Z</time>
</trkpt>
<trkpt lat="31.7743950" lon="35.0924670">
<ele>777.899963</ele>
<time>2017-10-20T06:05:05.000Z</time>
</trkpt>
<trkpt lat="31.7743680" lon="35.0924810">
<ele>777.700012</ele>
<time>2017-10-20T06:05:06.000Z</time>
</trkpt>
<trkpt lat="31.7743400" lon="35.0924950">
<ele>777.600037</ele>
<time>2017-10-20T06:05:07.000Z</time>
</trkpt>
<trkpt lat="31.7743120" lon="35.0925090">
<ele>777.700012</ele>
<time>2017-10-20T06:05:08.000Z</time>
</trkpt>
<trkpt lat="31.7742840" lon="35.0925240">
<ele>777.899963</ele>
<time>2017-10-20T06:05:09.000Z</time>
</trkpt>
<trkpt lat="31.7742490" lon="35.0925390">
<ele>778.000000</ele>
<time>2017-10-20T06:05:10.000Z</time>
</trkpt>
<trkpt lat="31.7742080" lon="35.0925510">
<ele>777.899963</ele>
<time>2017-10-20T06:05:11.000Z</time>
</trkpt>
<trkpt lat="31.7741620" lon="35.0925520">
<ele>778.000000</ele>
<time>2017-10-20T06:05:12.000Z</time>
</trkpt>
<trkpt lat="31.7741170" lon="35.0925400">
<ele>778.200012</ele>
<time>2017-10-20T06:05:13.000Z</time>
</trkpt>
<trkpt lat="31.7740780" lon="35.0925250">
<ele>778.200012</ele>
<time>2017-10-20T06:05:14.000Z</time>
</trkpt>
<trkpt lat="31.7740390" lon="35.0925060">
<ele>778.000000</ele>
<time>2017-10-20T06:05:15.000Z</time>
</trkpt>
<trkpt lat="31.7740010" lon="35.0924840">
<ele>777.700012</ele>
<time>2017-10-20T06:05:16.000Z</time>
</trkpt>
<trkpt lat="31.7739610" lon="35.0924620">
<ele>777.500000</ele>
<time>2017-10-20T06:05:17.000Z</time>
</trkpt>
<trkpt lat="31.7739210" lon="35.0924430">
<ele>777.199951</ele>
<time>2017-10-20T06:05:18.000Z</time>
</trkpt>
<trkpt lat="31.7738780" lon="35.0924260">
<ele>777.100037</ele>
<time>2017-10-20T06:05:19.000Z</time>
</trkpt>
<trkpt lat="31.7738300" lon="35.0924100">
<ele>777.000000</ele>
<time>2017-10-20T06:05:20.000Z</time>
</trkpt>
<trkpt lat="31.7737850" lon="35.0924010">
<ele>777.000000</ele>
<time>2017-10-20T06:05:21.000Z</time>
</trkpt>
<trkpt lat="31.7737430" lon="35.0923860">
<ele>777.000000</ele>
<time>2017-10-20T06:05:22.000Z</time>
</trkpt>
<trkpt lat="31.7736960" lon="35.0923770">
<ele>776.699951</ele>
<time>2017-10-20T06:05:23.000Z</time>
</trkpt>
<trkpt lat="31.7736490" lon="35.0923670">
<ele>776.200012</ele>
<time>2017-10-20T06:05:24.000Z</time>
</trkpt>
<trkpt lat="31.7735850" lon="35.0923600">
<ele>774.700012</ele>
<time>2017-10-20T06:05:25.000Z</time>
</trkpt>
<trkpt lat="31.7735140" lon="35.0923470">
<ele>772.700012</ele>
<time>2017-10-20T06:05:26.000Z</time>
</trkpt>
<trkpt lat="31.7734380" lon="35.0923340">
<ele>770.799988</ele>
<time>2017-10-20T06:05:27.000Z</time>
</trkpt>
<trkpt lat="31.7733630" lon="35.0923100">
<ele>769.099976</ele>
<time>2017-10-20T06:05:28.000Z</time>
</trkpt>
<trkpt lat="31.7732940" lon="35.0922820">
<ele>767.600037</ele>
<time>2017-10-20T06:05:29.000Z</time>
</trkpt>
<trkpt lat="31.7732280" lon="35.0922620">
<ele>766.799988</ele>
<time>2017-10-20T06:05:30.000Z</time>
</trkpt>
<trkpt lat="31.7731690" lon="35.0922520">
<ele>767.099976</ele>
<time>2017-10-20T06:05:31.000Z</time>
</trkpt>
<trkpt lat="31.7731110" lon="35.0922520">
<ele>766.799988</ele>
<time>2017-10-20T06:05:32.000Z</time>
</trkpt>
<trkpt lat="31.7730530" lon="35.0922530">
<ele>766.099976</ele>
<time>2017-10-20T06:05:33.000Z</time>
</trkpt>
<trkpt lat="31.7730040" lon="35.0922510">
<ele>765.599976</ele>
<time>2017-10-20T06:05:34.000Z</time>
</trkpt>
<trkpt lat="31.7729640" lon="35.0922520">
<ele>765.000000</ele>
<time>2017-10-20T06:05:35.000Z</time>
</trkpt>
<trkpt lat="31.7729150" lon="35.0922560">
<ele>764.199951</ele>
<time>2017-10-20T06:05:36.000Z</time>
</trkpt>
<trkpt lat="31.7728510" lon="35.0922610">
<ele>762.899963</ele>
<time>2017-10-20T06:05:37.000Z</time>
</trkpt>
<trkpt lat="31.7727750" lon="35.0922620">
<ele>761.700012</ele>
<time>2017-10-20T06:05:38.000Z</time>
</trkpt>
<trkpt lat="31.7726990" lon="35.0922550">
<ele>760.799988</ele>
<time>2017-10-20T06:05:39.000Z</time>
</trkpt>
<trkpt lat="31.7726370" lon="35.0922440">
<ele>760.299988</ele>
<time>2017-10-20T06:05:40.000Z</time>
</trkpt>
<trkpt lat="31.7725740" lon="35.0922320">
<ele>760.500061</ele>
<time>2017-10-20T06:05:41.000Z</time>
</trkpt>
<trkpt lat="31.7725130" lon="35.0922240">
<ele>759.700012</ele>
<time>2017-10-20T06:05:42.000Z</time>
</trkpt>
<trkpt lat="31.7724570" lon="35.0922240">
<ele>758.400024</ele>
<time>2017-10-20T06:05:43.000Z</time>
</trkpt>
<trkpt lat="31.7724180" lon="35.0922310">
<ele>757.099976</ele>
<time>2017-10-20T06:05:44.000Z</time>
</trkpt>
<trkpt lat="31.7723910" lon="35.0922500">
<ele>756.000000</ele>
<time>2017-10-20T06:05:45.000Z</time>
</trkpt>
<trkpt lat="31.7723610" lon="35.0922630">
<ele>754.900024</ele>
<time>2017-10-20T06:05:46.000Z</time>
</trkpt>
<trkpt lat="31.7723270" lon="35.0922820">
<ele>753.599976</ele>
<time>2017-10-20T06:05:47.000Z</time>
</trkpt>
<trkpt lat="31.7722890" lon="35.0923030">
<ele>752.899963</ele>
<time>2017-10-20T06:05:48.000Z</time>
</trkpt>
<trkpt lat="31.7722470" lon="35.0923260">
<ele>752.000000</ele>
<time>2017-10-20T06:05:49.000Z</time>
</trkpt>
<trkpt lat="31.7721920" lon="35.0923580">
<ele>750.300049</ele>
<time>2017-10-20T06:05:50.000Z</time>
</trkpt>
<trkpt lat="31.7721270" lon="35.0923920">
<ele>748.500000</ele>
<time>2017-10-20T06:05:51.000Z</time>
</trkpt>
<trkpt lat="31.7720540" lon="35.0924310">
<ele>747.400024</ele>
<time>2017-10-20T06:05:52.000Z</time>
</trkpt>
<trkpt lat="31.7719800" lon="35.0924670">
<ele>746.000000</ele>
<time>2017-10-20T06:05:53.000Z</time>
</trkpt>
<trkpt lat="31.7719010" lon="35.0924940">
<ele>744.900024</ele>
<time>2017-10-20T06:05:54.000Z</time>
</trkpt>
<trkpt lat="31.7718170" lon="35.0925210">
<ele>743.500000</ele>
<time>2017-10-20T06:05:55.000Z</time>
</trkpt>
<trkpt lat="31.7717290" lon="35.0925400">
<ele>741.499939</ele>
<time>2017-10-20T06:05:56.000Z</time>
</trkpt>
<trkpt lat="31.7716410" lon="35.0925550">
<ele>740.399963</ele>
<time>2017-10-20T06:05:57.000Z</time>
</trkpt>
<trkpt lat="31.7715520" lon="35.0925660">
<ele>739.500000</ele>
<time>2017-10-20T06:05:58.000Z</time>
</trkpt>
<trkpt lat="31.7714650" lon="35.0925660">
<ele>738.499939</ele>
<time>2017-10-20T06:05:59.000Z</time>
</trkpt>
<trkpt lat="31.7713850" lon="35.0925650">
<ele>737.899963</ele>
<time>2017-10-20T06:06:00.000Z</time>
</trkpt>
<trkpt lat="31.7713160" lon="35.0925590">
<ele>737.299988</ele>
<time>2017-10-20T06:06:01.000Z</time>
</trkpt>
<trkpt lat="31.7712600" lon="35.0925500">
<ele>737.100037</ele>
<time>2017-10-20T06:06:02.000Z</time>
</trkpt>
<trkpt lat="31.7712110" lon="35.0925340">
<ele>737.000000</ele>
<time>2017-10-20T06:06:03.000Z</time>
</trkpt>
<trkpt lat="31.7711720" lon="35.0925210">
<ele>736.799988</ele>
<time>2017-10-20T06:06:04.000Z</time>
</trkpt>
<trkpt lat="31.7711360" lon="35.0925080">
<ele>736.400024</ele>
<time>2017-10-20T06:06:05.000Z</time>
</trkpt>
<trkpt lat="31.7711070" lon="35.0925030">
<ele>736.100037</ele>
<time>2017-10-20T06:06:06.000Z</time>
</trkpt>
<trkpt lat="31.7710720" lon="35.0925090">
<ele>735.700012</ele>
<time>2017-10-20T06:06:08.000Z</time>
</trkpt>
<trkpt lat="31.7710490" lon="35.0925490">
<ele>735.200012</ele>
<time>2017-10-20T06:06:11.000Z</time>
</trkpt>
<trkpt lat="31.7710300" lon="35.0925810">
<ele>734.500000</ele>
<time>2017-10-20T06:06:12.000Z</time>
</trkpt>
<trkpt lat="31.7710110" lon="35.0926240">
<ele>734.000000</ele>
<time>2017-10-20T06:06:13.000Z</time>
</trkpt>
<trkpt lat="31.7709970" lon="35.0926570">
<ele>733.500000</ele>
<time>2017-10-20T06:06:14.000Z</time>
</trkpt>
<trkpt lat="31.7709870" lon="35.0926920">
<ele>733.100037</ele>
<time>2017-10-20T06:06:15.000Z</time>
</trkpt>
<trkpt lat="31.7709820" lon="35.0927250">
<ele>732.799988</ele>
<time>2017-10-20T06:06:16.000Z</time>
</trkpt>
<trkpt lat="31.7709850" lon="35.0927670">
<ele>732.299988</ele>
<time>2017-10-20T06:06:17.000Z</time>
</trkpt>
<trkpt lat="31.7709880" lon="35.0928110">
<ele>731.900024</ele>
<time>2017-10-20T06:06:18.000Z</time>
</trkpt>
<trkpt lat="31.7709900" lon="35.0928560">
<ele>731.399963</ele>
<time>2017-10-20T06:06:19.000Z</time>
</trkpt>
<trkpt lat="31.7709820" lon="35.0928910">
<ele>730.899963</ele>
<time>2017-10-20T06:06:20.000Z</time>
</trkpt>
<trkpt lat="31.7709580" lon="35.0929140">
<ele>730.500000</ele>
<time>2017-10-20T06:06:21.000Z</time>
</trkpt>
<trkpt lat="31.7709250" lon="35.0929350">
<ele>729.900024</ele>
<time>2017-10-20T06:06:22.000Z</time>
</trkpt>
<trkpt lat="31.7708940" lon="35.0929500">
<ele>729.299988</ele>
<time>2017-10-20T06:06:23.000Z</time>
</trkpt>
<trkpt lat="31.7708580" lon="35.0929710">
<ele>728.799988</ele>
<time>2017-10-20T06:06:24.000Z</time>
</trkpt>
<trkpt lat="31.7708210" lon="35.0929930">
<ele>728.300049</ele>
<time>2017-10-20T06:06:25.000Z</time>
</trkpt>
<trkpt lat="31.7707850" lon="35.0930140">
<ele>727.799988</ele>
<time>2017-10-20T06:06:26.000Z</time>
</trkpt>
<trkpt lat="31.7707580" lon="35.0930360">
<ele>727.399963</ele>
<time>2017-10-20T06:06:27.000Z</time>
</trkpt>
<trkpt lat="31.7707390" lon="35.0930610">
<ele>727.199951</ele>
<time>2017-10-20T06:06:28.000Z</time>
</trkpt>
<trkpt lat="31.7707200" lon="35.0930940">
<ele>727.000000</ele>
<time>2017-10-20T06:06:29.000Z</time>
</trkpt>
<trkpt lat="31.7706980" lon="35.0931310">
<ele>726.699951</ele>
<time>2017-10-20T06:06:30.000Z</time>
</trkpt>
<trkpt lat="31.7706800" lon="35.0931680">
<ele>726.500000</ele>
<time>2017-10-20T06:06:31.000Z</time>
</trkpt>
<trkpt lat="31.7706680" lon="35.0932090">
<ele>726.299988</ele>
<time>2017-10-20T06:06:33.000Z</time>
</trkpt>
<trkpt lat="31.7706650" lon="35.0932410">
<ele>726.200012</ele>
<time>2017-10-20T06:06:34.000Z</time>
</trkpt>
<trkpt lat="31.7706650" lon="35.0932770">
<ele>725.999939</ele>
<time>2017-10-20T06:06:35.000Z</time>
</trkpt>
<trkpt lat="31.7706630" lon="35.0933160">
<ele>725.900024</ele>
<time>2017-10-20T06:06:36.000Z</time>
</trkpt>
<trkpt lat="31.7706460" lon="35.0933570">
<ele>725.700012</ele>
<time>2017-10-20T06:06:37.000Z</time>
</trkpt>
<trkpt lat="31.7706250" lon="35.0934030">
<ele>725.500000</ele>
<time>2017-10-20T06:06:38.000Z</time>
</trkpt>
<trkpt lat="31.7706030" lon="35.0934480">
<ele>725.200012</ele>
<time>2017-10-20T06:06:39.000Z</time>
</trkpt>
<trkpt lat="31.7705740" lon="35.0934880">
<ele>724.899963</ele>
<time>2017-10-20T06:06:40.000Z</time>
</trkpt>
<trkpt lat="31.7705410" lon="35.0935280">
<ele>724.600037</ele>
<time>2017-10-20T06:06:41.000Z</time>
</trkpt>
<trkpt lat="31.7705110" lon="35.0935760">
<ele>723.900024</ele>
<time>2017-10-20T06:06:42.000Z</time>
</trkpt>
<trkpt lat="31.7704820" lon="35.0936210">
<ele>723.400024</ele>
<time>2017-10-20T06:06:43.000Z</time>
</trkpt>
<trkpt lat="31.7704450" lon="35.0936520">
<ele>723.000061</ele>
<time>2017-10-20T06:06:44.000Z</time>
</trkpt>
<trkpt lat="31.7703970" lon="35.0936720">
<ele>722.500000</ele>
<time>2017-10-20T06:06:45.000Z</time>
</trkpt>
<trkpt lat="31.7703520" lon="35.0936790">
<ele>722.000000</ele>
<time>2017-10-20T06:06:46.000Z</time>
</trkpt>
<trkpt lat="31.7703120" lon="35.0936810">
<ele>721.500000</ele>
<time>2017-10-20T06:06:47.000Z</time>
</trkpt>
<trkpt lat="31.7702750" lon="35.0936730">
<ele>721.000000</ele>
<time>2017-10-20T06:06:48.000Z</time>
</trkpt>
<trkpt lat="31.7702320" lon="35.0936620">
<ele>720.400024</ele>
<time>2017-10-20T06:06:49.000Z</time>
</trkpt>
<trkpt lat="31.7701950" lon="35.0936480">
<ele>719.799988</ele>
<time>2017-10-20T06:06:50.000Z</time>
</trkpt>
<trkpt lat="31.7701570" lon="35.0936280">
<ele>719.200012</ele>
<time>2017-10-20T06:06:51.000Z</time>
</trkpt>
<trkpt lat="31.7701230" lon="35.0936100">
<ele>718.700012</ele>
<time>2017-10-20T06:06:52.000Z</time>
</trkpt>
<trkpt lat="31.7700840" lon="35.0935910">
<ele>718.299988</ele>
<time>2017-10-20T06:06:53.000Z</time>
</trkpt>
<trkpt lat="31.7700480" lon="35.0935660">
<ele>718.000000</ele>
<time>2017-10-20T06:06:54.000Z</time>
</trkpt>
<trkpt lat="31.7700190" lon="35.0935380">
<ele>717.699951</ele>
<time>2017-10-20T06:06:55.000Z</time>
</trkpt>
<trkpt lat="31.7700060" lon="35.0935090">
<ele>717.500000</ele>
<time>2017-10-20T06:06:56.000Z</time>
</trkpt>
<trkpt lat="31.7700020" lon="35.0934710">
<ele>717.299988</ele>
<time>2017-10-20T06:06:57.000Z</time>
</trkpt>
<trkpt lat="31.7700070" lon="35.0934280">
<ele>717.000000</ele>
<time>2017-10-20T06:06:58.000Z</time>
</trkpt>
<trkpt lat="31.7700150" lon="35.0933850">
<ele>716.700012</ele>
<time>2017-10-20T06:06:59.000Z</time>
</trkpt>
<trkpt lat="31.7700160" lon="35.0933490">
<ele>716.400024</ele>
<time>2017-10-20T06:07:00.000Z</time>
</trkpt>
<trkpt lat="31.7700190" lon="35.0933130">
<ele>716.200012</ele>
<time>2017-10-20T06:07:01.000Z</time>
</trkpt>
<trkpt lat="31.7700230" lon="35.0932720">
<ele>716.000000</ele>
<time>2017-10-20T06:07:02.000Z</time>
</trkpt>
<trkpt lat="31.7700250" lon="35.0932320">
<ele>715.800049</ele>
<time>2017-10-20T06:07:03.000Z</time>
</trkpt>
<trkpt lat="31.7700270" lon="35.0931980">
<ele>715.599976</ele>
<time>2017-10-20T06:07:04.000Z</time>
</trkpt>
<trkpt lat="31.7700180" lon="35.0931670">
<ele>715.500000</ele>
<time>2017-10-20T06:07:05.000Z</time>
</trkpt>
<trkpt lat="31.7699930" lon="35.0931210">
<ele>715.200012</ele>
<time>2017-10-20T06:07:07.000Z</time>
</trkpt>
<trkpt lat="31.7699730" lon="35.0930950">
<ele>714.899963</ele>
<time>2017-10-20T06:07:08.000Z</time>
</trkpt>
<trkpt lat="31.7699490" lon="35.0930810">
<ele>714.600037</ele>
<time>2017-10-20T06:07:09.000Z</time>
</trkpt>
<trkpt lat="31.7699200" lon="35.0930710">
<ele>714.400024</ele>
<time>2017-10-20T06:07:10.000Z</time>
</trkpt>
<trkpt lat="31.7698880" lon="35.0930670">
<ele>714.000000</ele>
<time>2017-10-20T06:07:11.000Z</time>
</trkpt>
<trkpt lat="31.7698600" lon="35.0930740">
<ele>713.700012</ele>
<time>2017-10-20T06:07:12.000Z</time>
</trkpt>
<trkpt lat="31.7698120" lon="35.0930940">
<ele>713.200012</ele>
<time>2017-10-20T06:07:14.000Z</time>
</trkpt>
<trkpt lat="31.7697850" lon="35.0931100">
<ele>712.599976</ele>
<time>2017-10-20T06:07:15.000Z</time>
</trkpt>
<trkpt lat="31.7697550" lon="35.0931410">
<ele>712.000000</ele>
<time>2017-10-20T06:07:16.000Z</time>
</trkpt>
<trkpt lat="31.7697180" lon="35.0931750">
<ele>711.500000</ele>
<time>2017-10-20T06:07:17.000Z</time>
</trkpt>
<trkpt lat="31.7696870" lon="35.0932010">
<ele>711.100037</ele>
<time>2017-10-20T06:07:18.000Z</time>
</trkpt>
<trkpt lat="31.7696410" lon="35.0932310">
<ele>710.400024</ele>
<time>2017-10-20T06:07:20.000Z</time>
</trkpt>
<trkpt lat="31.7695920" lon="35.0932350">
<ele>709.900024</ele>
<time>2017-10-20T06:07:22.000Z</time>
</trkpt>
<trkpt lat="31.7695650" lon="35.0932310">
<ele>709.599976</ele>
<time>2017-10-20T06:07:23.000Z</time>
</trkpt>
<trkpt lat="31.7695460" lon="35.0931820">
<ele>709.000000</ele>
<time>2017-10-20T06:07:25.000Z</time>
</trkpt>
<trkpt lat="31.7695660" lon="35.0931210">
<ele>708.199951</ele>
<time>2017-10-20T06:07:27.000Z</time>
</trkpt>
<trkpt lat="31.7695810" lon="35.0930930">
<ele>707.900024</ele>
<time>2017-10-20T06:07:28.000Z</time>
</trkpt>
<trkpt lat="31.7695890" lon="35.0930600">
<ele>707.599976</ele>
<time>2017-10-20T06:07:29.000Z</time>
</trkpt>
<trkpt lat="31.7695930" lon="35.0930010">
<ele>707.099976</ele>
<time>2017-10-20T06:07:31.000Z</time>
</trkpt>
<trkpt lat="31.7695940" lon="35.0929330">
<ele>706.599976</ele>
<time>2017-10-20T06:07:33.000Z</time>
</trkpt>
<trkpt lat="31.7695960" lon="35.0928850">
<ele>706.300049</ele>
<time>2017-10-20T06:07:34.000Z</time>
</trkpt>
<trkpt lat="31.7695870" lon="35.0928350">
<ele>705.899963</ele>
<time>2017-10-20T06:07:35.000Z</time>
</trkpt>
<trkpt lat="31.7695660" lon="35.0927890">
<ele>705.600037</ele>
<time>2017-10-20T06:07:36.000Z</time>
</trkpt>
<trkpt lat="31.7695440" lon="35.0927520">
<ele>705.400024</ele>
<time>2017-10-20T06:07:37.000Z</time>
</trkpt>
<trkpt lat="31.7695150" lon="35.0927140">
<ele>705.000000</ele>
<time>2017-10-20T06:07:38.000Z</time>
</trkpt>
<trkpt lat="31.7694930" lon="35.0926900">
<ele>704.799988</ele>
<time>2017-10-20T06:07:39.000Z</time>
</trkpt>
<trkpt lat="31.7694690" lon="35.0926640">
<ele>704.500061</ele>
<time>2017-10-20T06:07:40.000Z</time>
</trkpt>
<trkpt lat="31.7694410" lon="35.0926400">
<ele>704.299988</ele>
<time>2017-10-20T06:07:41.000Z</time>
</trkpt>
<trkpt lat="31.7694120" lon="35.0926210">
<ele>703.700012</ele>
<time>2017-10-20T06:07:42.000Z</time>
</trkpt>
<trkpt lat="31.7693690" lon="35.0926060">
<ele>703.399963</ele>
<time>2017-10-20T06:07:44.000Z</time>
</trkpt>
<trkpt lat="31.7693220" lon="35.0926150">
<ele>703.099976</ele>
<time>2017-10-20T06:07:46.000Z</time>
</trkpt>
<trkpt lat="31.7692750" lon="35.0926620">
<ele>702.700012</ele>
<time>2017-10-20T06:07:48.000Z</time>
</trkpt>
<trkpt lat="31.7692440" lon="35.0926960">
<ele>702.500000</ele>
<time>2017-10-20T06:07:49.000Z</time>
</trkpt>
<trkpt lat="31.7692150" lon="35.0927360">
<ele>702.199951</ele>
<time>2017-10-20T06:07:50.000Z</time>
</trkpt>
<trkpt lat="31.7691950" lon="35.0927870">
<ele>701.900024</ele>
<time>2017-10-20T06:07:51.000Z</time>
</trkpt>
<trkpt lat="31.7691710" lon="35.0928360">
<ele>701.599976</ele>
<time>2017-10-20T06:07:52.000Z</time>
</trkpt>
<trkpt lat="31.7691470" lon="35.0928900">
<ele>701.400024</ele>
<time>2017-10-20T06:07:53.000Z</time>
</trkpt>
<trkpt lat="31.7691170" lon="35.0929460">
<ele>701.200012</ele>
<time>2017-10-20T06:07:54.000Z</time>
</trkpt>
<trkpt lat="31.7690860" lon="35.0930110">
<ele>700.799988</ele>
<time>2017-10-20T06:07:55.000Z</time>
</trkpt>
<trkpt lat="31.7690580" lon="35.0930770">
<ele>700.500000</ele>
<time>2017-10-20T06:07:56.000Z</time>
</trkpt>
<trkpt lat="31.7690300" lon="35.0931410">
<ele>700.200012</ele>
<time>2017-10-20T06:07:57.000Z</time>
</trkpt>
<trkpt lat="31.7690020" lon="35.0932040">
<ele>700.099976</ele>
<time>2017-10-20T06:07:58.000Z</time>
</trkpt>
<trkpt lat="31.7689750" lon="35.0932640">
<ele>699.899963</ele>
<time>2017-10-20T06:07:59.000Z</time>
</trkpt>
<trkpt lat="31.7689380" lon="35.0933260">
<ele>699.799988</ele>
<time>2017-10-20T06:08:00.000Z</time>
</trkpt>
<trkpt lat="31.7688920" lon="35.0933960">
<ele>699.600037</ele>
<time>2017-10-20T06:08:01.000Z</time>
</trkpt>
<trkpt lat="31.7688580" lon="35.0934490">
<ele>699.500000</ele>
<time>2017-10-20T06:08:02.000Z</time>
</trkpt>
<trkpt lat="31.7688260" lon="35.0935150">
<ele>699.299988</ele>
<time>2017-10-20T06:08:03.000Z</time>
</trkpt>
<trkpt lat="31.7688040" lon="35.0935760">
<ele>699.000000</ele>
<time>2017-10-20T06:08:04.000Z</time>
</trkpt>
<trkpt lat="31.7687970" lon="35.0936290">
<ele>698.799988</ele>
<time>2017-10-20T06:08:05.000Z</time>
</trkpt>
<trkpt lat="31.7687870" lon="35.0936820">
<ele>698.500000</ele>
<time>2017-10-20T06:08:06.000Z</time>
</trkpt>
<trkpt lat="31.7687730" lon="35.0937330">
<ele>698.099976</ele>
<time>2017-10-20T06:08:07.000Z</time>
</trkpt>
<trkpt lat="31.7687600" lon="35.0937800">
<ele>697.799988</ele>
<time>2017-10-20T06:08:08.000Z</time>
</trkpt>
<trkpt lat="31.7687460" lon="35.0938290">
<ele>697.400024</ele>
<time>2017-10-20T06:08:09.000Z</time>
</trkpt>
<trkpt lat="31.7687300" lon="35.0938750">
<ele>697.099976</ele>
<time>2017-10-20T06:08:10.000Z</time>
</trkpt>
<trkpt lat="31.7687110" lon="35.0939220">
<ele>696.800049</ele>
<time>2017-10-20T06:08:11.000Z</time>
</trkpt>
<trkpt lat="31.7686910" lon="35.0939660">
<ele>696.299988</ele>
<time>2017-10-20T06:08:12.000Z</time>
</trkpt>
<trkpt lat="31.7686710" lon="35.0940110">
<ele>695.900024</ele>
<time>2017-10-20T06:08:13.000Z</time>
</trkpt>
<trkpt lat="31.7686500" lon="35.0940630">
<ele>695.500000</ele>
<time>2017-10-20T06:08:14.000Z</time>
</trkpt>
<trkpt lat="31.7686300" lon="35.0941160">
<ele>695.000061</ele>
<time>2017-10-20T06:08:15.000Z</time>
</trkpt>
<trkpt lat="31.7686060" lon="35.0941710">
<ele>694.200012</ele>
<time>2017-10-20T06:08:16.000Z</time>
</trkpt>
<trkpt lat="31.7685890" lon="35.0942110">
<ele>693.899963</ele>
<time>2017-10-20T06:08:17.000Z</time>
</trkpt>
<trkpt lat="31.7685790" lon="35.0942430">
<ele>693.600037</ele>
<time>2017-10-20T06:08:18.000Z</time>
</trkpt>
<trkpt lat="31.7685670" lon="35.0942910">
<ele>693.200012</ele>
<time>2017-10-20T06:08:19.000Z</time>
</trkpt>
<trkpt lat="31.7685550" lon="35.0943340">
<ele>692.799988</ele>
<time>2017-10-20T06:08:20.000Z</time>
</trkpt>
<trkpt lat="31.7685460" lon="35.0943750">
<ele>692.400024</ele>
<time>2017-10-20T06:08:21.000Z</time>
</trkpt>
<trkpt lat="31.7685360" lon="35.0944230">
<ele>691.900024</ele>
<time>2017-10-20T06:08:22.000Z</time>
</trkpt>
<trkpt lat="31.7685170" lon="35.0944670">
<ele>691.299988</ele>
<time>2017-10-20T06:08:23.000Z</time>
</trkpt>
<trkpt lat="31.7684980" lon="35.0945130">
<ele>690.500000</ele>
<time>2017-10-20T06:08:24.000Z</time>
</trkpt>
<trkpt lat="31.7684840" lon="35.0945520">
<ele>689.899963</ele>
<time>2017-10-20T06:08:25.000Z</time>
</trkpt>
<trkpt lat="31.7684750" lon="35.0945980">
<ele>689.400024</ele>
<time>2017-10-20T06:08:26.000Z</time>
</trkpt>
<trkpt lat="31.7684610" lon="35.0946480">
<ele>688.799988</ele>
<time>2017-10-20T06:08:27.000Z</time>
</trkpt>
<trkpt lat="31.7684420" lon="35.0947040">
<ele>687.899963</ele>
<time>2017-10-20T06:08:28.000Z</time>
</trkpt>
<trkpt lat="31.7684200" lon="35.0947490">
<ele>687.299988</ele>
<time>2017-10-20T06:08:29.000Z</time>
</trkpt>
<trkpt lat="31.7684020" lon="35.0947850">
<ele>686.799988</ele>
<time>2017-10-20T06:08:30.000Z</time>
</trkpt>
<trkpt lat="31.7683840" lon="35.0948220">
<ele>686.099976</ele>
<time>2017-10-20T06:08:31.000Z</time>
</trkpt>
<trkpt lat="31.7683680" lon="35.0948600">
<ele>685.599976</ele>
<time>2017-10-20T06:08:32.000Z</time>
</trkpt>
<trkpt lat="31.7683520" lon="35.0948960">
<ele>685.099976</ele>
<time>2017-10-20T06:08:33.000Z</time>
</trkpt>
<trkpt lat="31.7683370" lon="35.0949300">
<ele>684.700012</ele>
<time>2017-10-20T06:08:34.000Z</time>
</trkpt>
<trkpt lat="31.7683220" lon="35.0949700">
<ele>684.300049</ele>
<time>2017-10-20T06:08:35.000Z</time>
</trkpt>
<trkpt lat="31.7683120" lon="35.0950090">
<ele>683.899963</ele>
<time>2017-10-20T06:08:36.000Z</time>
</trkpt>
<trkpt lat="31.7683070" lon="35.0950530">
<ele>683.400024</ele>
<time>2017-10-20T06:08:37.000Z</time>
</trkpt>
<trkpt lat="31.7683100" lon="35.0950930">
<ele>683.000000</ele>
<time>2017-10-20T06:08:38.000Z</time>
</trkpt>
<trkpt lat="31.7683200" lon="35.0951350">
<ele>682.500061</ele>
<time>2017-10-20T06:08:39.000Z</time>
</trkpt>
<trkpt lat="31.7683310" lon="35.0951780">
<ele>682.000000</ele>
<time>2017-10-20T06:08:40.000Z</time>
</trkpt>
<trkpt lat="31.7683440" lon="35.0952200">
<ele>681.399963</ele>
<time>2017-10-20T06:08:41.000Z</time>
</trkpt>
<trkpt lat="31.7683560" lon="35.0952550">
<ele>681.000000</ele>
<time>2017-10-20T06:08:42.000Z</time>
</trkpt>
<trkpt lat="31.7683680" lon="35.0952930">
<ele>680.500000</ele>
<time>2017-10-20T06:08:43.000Z</time>
</trkpt>
<trkpt lat="31.7683740" lon="35.0953280">
<ele>680.100037</ele>
<time>2017-10-20T06:08:44.000Z</time>
</trkpt>
<trkpt lat="31.7683760" lon="35.0953620">
<ele>679.799988</ele>
<time>2017-10-20T06:08:45.000Z</time>
</trkpt>
<trkpt lat="31.7683750" lon="35.0953940">
<ele>679.500061</ele>
<time>2017-10-20T06:08:46.000Z</time>
</trkpt>
<trkpt lat="31.7683670" lon="35.0954340">
<ele>679.099976</ele>
<time>2017-10-20T06:08:47.000Z</time>
</trkpt>
<trkpt lat="31.7683580" lon="35.0954730">
<ele>678.700012</ele>
<time>2017-10-20T06:08:48.000Z</time>
</trkpt>
<trkpt lat="31.7683480" lon="35.0955120">
<ele>678.200012</ele>
<time>2017-10-20T06:08:49.000Z</time>
</trkpt>
<trkpt lat="31.7683300" lon="35.0955490">
<ele>677.799988</ele>
<time>2017-10-20T06:08:50.000Z</time>
</trkpt>
<trkpt lat="31.7683100" lon="35.0955900">
<ele>677.399963</ele>
<time>2017-10-20T06:08:51.000Z</time>
</trkpt>
<trkpt lat="31.7683020" lon="35.0956320">
<ele>677.000000</ele>
<time>2017-10-20T06:08:52.000Z</time>
</trkpt>
<trkpt lat="31.7683000" lon="35.0956640">
<ele>676.599976</ele>
<time>2017-10-20T06:08:53.000Z</time>
</trkpt>
<trkpt lat="31.7683010" lon="35.0956990">
<ele>676.099976</ele>
<time>2017-10-20T06:08:54.000Z</time>
</trkpt>
<trkpt lat="31.7682960" lon="35.0957400">
<ele>675.500000</ele>
<time>2017-10-20T06:08:55.000Z</time>
</trkpt>
<trkpt lat="31.7682960" lon="35.0957810">
<ele>674.899963</ele>
<time>2017-10-20T06:08:56.000Z</time>
</trkpt>
<trkpt lat="31.7682990" lon="35.0958230">
<ele>674.299988</ele>
<time>2017-10-20T06:08:57.000Z</time>
</trkpt>
<trkpt lat="31.7683070" lon="35.0958650">
<ele>673.699951</ele>
<time>2017-10-20T06:08:58.000Z</time>
</trkpt>
<trkpt lat="31.7683110" lon="35.0959030">
<ele>673.299988</ele>
<time>2017-10-20T06:08:59.000Z</time>
</trkpt>
<trkpt lat="31.7683180" lon="35.0959440">
<ele>673.000061</ele>
<time>2017-10-20T06:09:00.000Z</time>
</trkpt>
<trkpt lat="31.7683290" lon="35.0959850">
<ele>672.500000</ele>
<time>2017-10-20T06:09:01.000Z</time>
</trkpt>
<trkpt lat="31.7683420" lon="35.0960280">
<ele>671.899963</ele>
<time>2017-10-20T06:09:02.000Z</time>
</trkpt>
<trkpt lat="31.7683680" lon="35.0960810">
<ele>671.100037</ele>
<time>2017-10-20T06:09:03.000Z</time>
</trkpt>
<trkpt lat="31.7683910" lon="35.0961280">
<ele>671.500000</ele>
<time>2017-10-20T06:09:04.000Z</time>
</trkpt>
<trkpt lat="31.7684220" lon="35.0961740">
<ele>671.899963</ele>
<time>2017-10-20T06:09:05.000Z</time>
</trkpt>
<trkpt lat="31.7684580" lon="35.0962080">
<ele>672.300049</ele>
<time>2017-10-20T06:09:06.000Z</time>
</trkpt>
<trkpt lat="31.7684890" lon="35.0962360">
<ele>672.700012</ele>
<time>2017-10-20T06:09:07.000Z</time>
</trkpt>
<trkpt lat="31.7685190" lon="35.0962510">
<ele>673.000061</ele>
<time>2017-10-20T06:09:08.000Z</time>
</trkpt>
<trkpt lat="31.7685520" lon="35.0962650">
<ele>673.200012</ele>
<time>2017-10-20T06:09:09.000Z</time>
</trkpt>
<trkpt lat="31.7685910" lon="35.0962860">
<ele>673.400024</ele>
<time>2017-10-20T06:09:10.000Z</time>
</trkpt>
<trkpt lat="31.7686280" lon="35.0963150">
<ele>673.599976</ele>
<time>2017-10-20T06:09:11.000Z</time>
</trkpt>
<trkpt lat="31.7686600" lon="35.0963320">
<ele>673.699951</ele>
<time>2017-10-20T06:09:12.000Z</time>
</trkpt>
<trkpt lat="31.7686950" lon="35.0963440">
<ele>673.900024</ele>
<time>2017-10-20T06:09:13.000Z</time>
</trkpt>
<trkpt lat="31.7687430" lon="35.0963560">
<ele>674.100037</ele>
<time>2017-10-20T06:09:14.000Z</time>
</trkpt>
<trkpt lat="31.7687920" lon="35.0963680">
<ele>674.399963</ele>
<time>2017-10-20T06:09:15.000Z</time>
</trkpt>
<trkpt lat="31.7688320" lon="35.0963760">
<ele>674.600037</ele>
<time>2017-10-20T06:09:16.000Z</time>
</trkpt>
<trkpt lat="31.7688750" lon="35.0963840">
<ele>674.799988</ele>
<time>2017-10-20T06:09:17.000Z</time>
</trkpt>
<trkpt lat="31.7689150" lon="35.0963850">
<ele>675.099976</ele>
<time>2017-10-20T06:09:18.000Z</time>
</trkpt>
<trkpt lat="31.7689570" lon="35.0963890">
<ele>675.300049</ele>
<time>2017-10-20T06:09:19.000Z</time>
</trkpt>
<trkpt lat="31.7689950" lon="35.0963940">
<ele>675.500000</ele>
<time>2017-10-20T06:09:20.000Z</time>
</trkpt>
<trkpt lat="31.7690360" lon="35.0963960">
<ele>675.799988</ele>
<time>2017-10-20T06:09:21.000Z</time>
</trkpt>
<trkpt lat="31.7690710" lon="35.0963970">
<ele>675.999939</ele>
<time>2017-10-20T06:09:22.000Z</time>
</trkpt>
<trkpt lat="31.7691030" lon="35.0963920">
<ele>676.200012</ele>
<time>2017-10-20T06:09:23.000Z</time>
</trkpt>
<trkpt lat="31.7691390" lon="35.0963950">
<ele>676.500000</ele>
<time>2017-10-20T06:09:24.000Z</time>
</trkpt>
<trkpt lat="31.7691700" lon="35.0964000">
<ele>676.799988</ele>
<time>2017-10-20T06:09:25.000Z</time>
</trkpt>
<trkpt lat="31.7692000" lon="35.0964000">
<ele>677.000000</ele>
<time>2017-10-20T06:09:26.000Z</time>
</trkpt>
<trkpt lat="31.7692390" lon="35.0963940">
<ele>677.199951</ele>
<time>2017-10-20T06:09:28.000Z</time>
</trkpt>
<trkpt lat="31.7692880" lon="35.0964020">
<ele>677.500000</ele>
<time>2017-10-20T06:09:30.000Z</time>
</trkpt>
<trkpt lat="31.7693190" lon="35.0964020">
<ele>677.700012</ele>
<time>2017-10-20T06:09:31.000Z</time>
</trkpt>
<trkpt lat="31.7693490" lon="35.0964040">
<ele>677.899963</ele>
<time>2017-10-20T06:09:32.000Z</time>
</trkpt>
<trkpt lat="31.7693760" lon="35.0964050">
<ele>678.000000</ele>
<time>2017-10-20T06:09:33.000Z</time>
</trkpt>
<trkpt lat="31.7694060" lon="35.0964040">
<ele>678.099976</ele>
<time>2017-10-20T06:09:34.000Z</time>
</trkpt>
<trkpt lat="31.7694390" lon="35.0964030">
<ele>678.300049</ele>
<time>2017-10-20T06:09:35.000Z</time>
</trkpt>
<trkpt lat="31.7694720" lon="35.0964070">
<ele>678.500000</ele>
<time>2017-10-20T06:09:36.000Z</time>
</trkpt>
<trkpt lat="31.7695000" lon="35.0964110">
<ele>678.599976</ele>
<time>2017-10-20T06:09:37.000Z</time>
</trkpt>
<trkpt lat="31.7695300" lon="35.0964140">
<ele>678.799988</ele>
<time>2017-10-20T06:09:38.000Z</time>
</trkpt>
<trkpt lat="31.7695630" lon="35.0964120">
<ele>678.999939</ele>
<time>2017-10-20T06:09:39.000Z</time>
</trkpt>
<trkpt lat="31.7696030" lon="35.0964130">
<ele>679.299988</ele>
<time>2017-10-20T06:09:40.000Z</time>
</trkpt>
<trkpt lat="31.7696450" lon="35.0964160">
<ele>679.699951</ele>
<time>2017-10-20T06:09:41.000Z</time>
</trkpt>
<trkpt lat="31.7696760" lon="35.0964170">
<ele>679.799988</ele>
<time>2017-10-20T06:09:42.000Z</time>
</trkpt>
<trkpt lat="31.7697140" lon="35.0964110">
<ele>680.000000</ele>
<time>2017-10-20T06:09:43.000Z</time>
</trkpt>
<trkpt lat="31.7697560" lon="35.0964090">
<ele>680.299988</ele>
<time>2017-10-20T06:09:44.000Z</time>
</trkpt>
<trkpt lat="31.7697950" lon="35.0964070">
<ele>680.500000</ele>
<time>2017-10-20T06:09:45.000Z</time>
</trkpt>
<trkpt lat="31.7698320" lon="35.0964020">
<ele>680.700012</ele>
<time>2017-10-20T06:09:46.000Z</time>
</trkpt>
<trkpt lat="31.7698610" lon="35.0963960">
<ele>681.100037</ele>
<time>2017-10-20T06:09:47.000Z</time>
</trkpt>
<trkpt lat="31.7698910" lon="35.0963910">
<ele>681.300049</ele>
<time>2017-10-20T06:09:48.000Z</time>
</trkpt>
<trkpt lat="31.7699200" lon="35.0963830">
<ele>681.500000</ele>
<time>2017-10-20T06:09:49.000Z</time>
</trkpt>
<trkpt lat="31.7699760" lon="35.0963660">
<ele>681.800049</ele>
<time>2017-10-20T06:09:51.000Z</time>
</trkpt>
<trkpt lat="31.7700080" lon="35.0963540">
<ele>682.000000</ele>
<time>2017-10-20T06:09:52.000Z</time>
</trkpt>
<trkpt lat="31.7700390" lon="35.0963420">
<ele>682.200012</ele>
<time>2017-10-20T06:09:53.000Z</time>
</trkpt>
<trkpt lat="31.7700680" lon="35.0963320">
<ele>682.400024</ele>
<time>2017-10-20T06:09:54.000Z</time>
</trkpt>
<trkpt lat="31.7700960" lon="35.0963210">
<ele>682.599976</ele>
<time>2017-10-20T06:09:55.000Z</time>
</trkpt>
<trkpt lat="31.7701470" lon="35.0963010">
<ele>683.299988</ele>
<time>2017-10-20T06:09:57.000Z</time>
</trkpt>
<trkpt lat="31.7701890" lon="35.0962850">
<ele>683.600037</ele>
<time>2017-10-20T06:09:59.000Z</time>
</trkpt>
<trkpt lat="31.7702300" lon="35.0962610">
<ele>683.899963</ele>
<time>2017-10-20T06:10:01.000Z</time>
</trkpt>
<trkpt lat="31.7702640" lon="35.0962460">
<ele>684.200012</ele>
<time>2017-10-20T06:10:02.000Z</time>
</trkpt>
<trkpt lat="31.7702980" lon="35.0962310">
<ele>684.399963</ele>
<time>2017-10-20T06:10:03.000Z</time>
</trkpt>
<trkpt lat="31.7703220" lon="35.0962150">
<ele>684.599976</ele>
<time>2017-10-20T06:10:04.000Z</time>
</trkpt>
<trkpt lat="31.7703550" lon="35.0961830">
<ele>684.900024</ele>
<time>2017-10-20T06:10:06.000Z</time>
</trkpt>
<trkpt lat="31.7703750" lon="35.0961490">
<ele>685.400024</ele>
<time>2017-10-20T06:10:08.000Z</time>
</trkpt>
<trkpt lat="31.7704060" lon="35.0961320">
<ele>685.900024</ele>
<time>2017-10-20T06:10:10.000Z</time>
</trkpt>
<trkpt lat="31.7704370" lon="35.0961110">
<ele>686.199951</ele>
<time>2017-10-20T06:10:12.000Z</time>
</trkpt>
<trkpt lat="31.7704660" lon="35.0960890">
<ele>686.500000</ele>
<time>2017-10-20T06:10:14.000Z</time>
</trkpt>
<trkpt lat="31.7704940" lon="35.0960670">
<ele>686.799988</ele>
<time>2017-10-20T06:10:16.000Z</time>
</trkpt>
<trkpt lat="31.7705200" lon="35.0960410">
<ele>687.000000</ele>
<time>2017-10-20T06:10:18.000Z</time>
</trkpt>
<trkpt lat="31.7705490" lon="35.0960200">
<ele>687.599976</ele>
<time>2017-10-20T06:10:20.000Z</time>
</trkpt>
<trkpt lat="31.7705910" lon="35.0959910">
<ele>688.099976</ele>
<time>2017-10-20T06:10:22.000Z</time>
</trkpt>
<trkpt lat="31.7706340" lon="35.0959610">
<ele>688.400024</ele>
<time>2017-10-20T06:10:24.000Z</time>
</trkpt>
<trkpt lat="31.7706730" lon="35.0959280">
<ele>688.799988</ele>
<time>2017-10-20T06:10:26.000Z</time>
</trkpt>
<trkpt lat="31.7707030" lon="35.0958990">
<ele>689.099976</ele>
<time>2017-10-20T06:10:28.000Z</time>
</trkpt>
<trkpt lat="31.7707300" lon="35.0958810">
<ele>689.299988</ele>
<time>2017-10-20T06:10:30.000Z</time>
</trkpt>
<trkpt lat="31.7707640" lon="35.0958550">
<ele>689.799988</ele>
<time>2017-10-20T06:10:32.000Z</time>
</trkpt>
<trkpt lat="31.7707900" lon="35.0958290">
<ele>690.200012</ele>
<time>2017-10-20T06:10:33.000Z</time>
</trkpt>
<trkpt lat="31.7708130" lon="35.0958050">
<ele>690.500000</ele>
<time>2017-10-20T06:10:34.000Z</time>
</trkpt>
<trkpt lat="31.7708490" lon="35.0957850">
<ele>690.800049</ele>
<time>2017-10-20T06:10:36.000Z</time>
</trkpt>
<trkpt lat="31.7708730" lon="35.0957660">
<ele>691.000000</ele>
<time>2017-10-20T06:10:37.000Z</time>
</trkpt>
<trkpt lat="31.7708990" lon="35.0957450">
<ele>691.299988</ele>
<time>2017-10-20T06:10:38.000Z</time>
</trkpt>
<trkpt lat="31.7709240" lon="35.0957270">
<ele>691.599976</ele>
<time>2017-10-20T06:10:39.000Z</time>
</trkpt>
<trkpt lat="31.7709640" lon="35.0957010">
<ele>691.900024</ele>
<time>2017-10-20T06:10:41.000Z</time>
</trkpt>
<trkpt lat="31.7709930" lon="35.0956720">
<ele>692.099976</ele>
<time>2017-10-20T06:10:43.000Z</time>
</trkpt>
<trkpt lat="31.7710230" lon="35.0956400">
<ele>692.299988</ele>
<time>2017-10-20T06:10:45.000Z</time>
</trkpt>
<trkpt lat="31.7710560" lon="35.0955990">
<ele>692.500000</ele>
<time>2017-10-20T06:10:47.000Z</time>
</trkpt>
<trkpt lat="31.7710840" lon="35.0955740">
<ele>692.600037</ele>
<time>2017-10-20T06:10:49.000Z</time>
</trkpt>
<trkpt lat="31.7711130" lon="35.0955430">
<ele>692.699951</ele>
<time>2017-10-20T06:10:50.000Z</time>
</trkpt>
<trkpt lat="31.7711390" lon="35.0955170">
<ele>691.200012</ele>
<time>2017-10-20T06:10:52.000Z</time>
</trkpt>
<trkpt lat="31.7711640" lon="35.0955510">
<ele>690.299988</ele>
<time>2017-10-20T06:10:57.000Z</time>
</trkpt>
<trkpt lat="31.7711690" lon="35.0956050">
<ele>689.299988</ele>
<time>2017-10-20T06:11:00.000Z</time>
</trkpt>
<trkpt lat="31.7711630" lon="35.0956380">
<ele>688.799988</ele>
<time>2017-10-20T06:11:02.000Z</time>
</trkpt>
<trkpt lat="31.7711580" lon="35.0956880">
<ele>687.899963</ele>
<time>2017-10-20T06:11:04.000Z</time>
</trkpt>
<trkpt lat="31.7711490" lon="35.0957420">
<ele>687.100037</ele>
<time>2017-10-20T06:11:06.000Z</time>
</trkpt>
<trkpt lat="31.7711370" lon="35.0957880">
<ele>686.600037</ele>
<time>2017-10-20T06:11:08.000Z</time>
</trkpt>
<trkpt lat="31.7711190" lon="35.0958460">
<ele>685.900024</ele>
<time>2017-10-20T06:11:10.000Z</time>
</trkpt>
<trkpt lat="31.7711030" lon="35.0958860">
<ele>685.500061</ele>
<time>2017-10-20T06:11:11.000Z</time>
</trkpt>
<trkpt lat="31.7710850" lon="35.0959320">
<ele>685.000000</ele>
<time>2017-10-20T06:11:12.000Z</time>
</trkpt>
<trkpt lat="31.7710590" lon="35.0959590">
<ele>684.700012</ele>
<time>2017-10-20T06:11:13.000Z</time>
</trkpt>
<trkpt lat="31.7710320" lon="35.0959830">
<ele>684.399963</ele>
<time>2017-10-20T06:11:14.000Z</time>
</trkpt>
<trkpt lat="31.7710060" lon="35.0960100">
<ele>684.100037</ele>
<time>2017-10-20T06:11:15.000Z</time>
</trkpt>
<trkpt lat="31.7709750" lon="35.0960490">
<ele>683.899963</ele>
<time>2017-10-20T06:11:16.000Z</time>
</trkpt>
<trkpt lat="31.7709410" lon="35.0960890">
<ele>683.600037</ele>
<time>2017-10-20T06:11:17.000Z</time>
</trkpt>
<trkpt lat="31.7709030" lon="35.0961350">
<ele>683.299988</ele>
<time>2017-10-20T06:11:18.000Z</time>
</trkpt>
<trkpt lat="31.7708680" lon="35.0961950">
<ele>682.700012</ele>
<time>2017-10-20T06:11:19.000Z</time>
</trkpt>
<trkpt lat="31.7708450" lon="35.0962580">
<ele>682.200012</ele>
<time>2017-10-20T06:11:20.000Z</time>
</trkpt>
<trkpt lat="31.7707960" lon="35.0963400">
<ele>681.200012</ele>
<time>2017-10-20T06:11:21.000Z</time>
</trkpt>
<trkpt lat="31.7707450" lon="35.0963940">
<ele>680.299988</ele>
<time>2017-10-20T06:11:22.000Z</time>
</trkpt>
<trkpt lat="31.7706930" lon="35.0964280">
<ele>679.400024</ele>
<time>2017-10-20T06:11:23.000Z</time>
</trkpt>
<trkpt lat="31.7706530" lon="35.0964570">
<ele>678.599976</ele>
<time>2017-10-20T06:11:24.000Z</time>
</trkpt>
<trkpt lat="31.7706130" lon="35.0964850">
<ele>677.799988</ele>
<time>2017-10-20T06:11:25.000Z</time>
</trkpt>
<trkpt lat="31.7705840" lon="35.0965090">
<ele>677.199951</ele>
<time>2017-10-20T06:11:26.000Z</time>
</trkpt>
<trkpt lat="31.7705590" lon="35.0965410">
<ele>676.500000</ele>
<time>2017-10-20T06:11:27.000Z</time>
</trkpt>
<trkpt lat="31.7705350" lon="35.0965950">
<ele>675.599976</ele>
<time>2017-10-20T06:11:29.000Z</time>
</trkpt>
<trkpt lat="31.7705230" lon="35.0966280">
<ele>675.000000</ele>
<time>2017-10-20T06:11:30.000Z</time>
</trkpt>
<trkpt lat="31.7705100" lon="35.0966700">
<ele>674.399963</ele>
<time>2017-10-20T06:11:31.000Z</time>
</trkpt>
<trkpt lat="31.7704910" lon="35.0967190">
<ele>673.599976</ele>
<time>2017-10-20T06:11:32.000Z</time>
</trkpt>
<trkpt lat="31.7704690" lon="35.0967710">
<ele>672.700012</ele>
<time>2017-10-20T06:11:33.000Z</time>
</trkpt>
<trkpt lat="31.7704400" lon="35.0968210">
<ele>671.899963</ele>
<time>2017-10-20T06:11:34.000Z</time>
</trkpt>
<trkpt lat="31.7703900" lon="35.0968870">
<ele>670.600037</ele>
<time>2017-10-20T06:11:35.000Z</time>
</trkpt>
<trkpt lat="31.7703510" lon="35.0969420">
<ele>669.500000</ele>
<time>2017-10-20T06:11:36.000Z</time>
</trkpt>
<trkpt lat="31.7703190" lon="35.0969720">
<ele>668.800049</ele>
<time>2017-10-20T06:11:37.000Z</time>
</trkpt>
<trkpt lat="31.7702900" lon="35.0970010">
<ele>668.100037</ele>
<time>2017-10-20T06:11:38.000Z</time>
</trkpt>
<trkpt lat="31.7702630" lon="35.0970270">
<ele>667.500000</ele>
<time>2017-10-20T06:11:39.000Z</time>
</trkpt>
<trkpt lat="31.7702340" lon="35.0970770">
<ele>666.700012</ele>
<time>2017-10-20T06:11:41.000Z</time>
</trkpt>
<trkpt lat="31.7702210" lon="35.0971180">
<ele>666.099976</ele>
<time>2017-10-20T06:11:42.000Z</time>
</trkpt>
<trkpt lat="31.7702040" lon="35.0971450">
<ele>665.599976</ele>
<time>2017-10-20T06:11:43.000Z</time>
</trkpt>
<trkpt lat="31.7701800" lon="35.0971760">
<ele>665.000000</ele>
<time>2017-10-20T06:11:44.000Z</time>
</trkpt>
<trkpt lat="31.7701510" lon="35.0971990">
<ele>664.500000</ele>
<time>2017-10-20T06:11:45.000Z</time>
</trkpt>
<trkpt lat="31.7701180" lon="35.0972230">
<ele>663.900024</ele>
<time>2017-10-20T06:11:46.000Z</time>
</trkpt>
<trkpt lat="31.7700750" lon="35.0972550">
<ele>663.200012</ele>
<time>2017-10-20T06:11:47.000Z</time>
</trkpt>
<trkpt lat="31.7700290" lon="35.0972980">
<ele>662.299988</ele>
<time>2017-10-20T06:11:48.000Z</time>
</trkpt>
<trkpt lat="31.7699630" lon="35.0973560">
<ele>661.199951</ele>
<time>2017-10-20T06:11:49.000Z</time>
</trkpt>
<trkpt lat="31.7699070" lon="35.0973890">
<ele>660.299988</ele>
<time>2017-10-20T06:11:50.000Z</time>
</trkpt>
<trkpt lat="31.7698450" lon="35.0974070">
<ele>659.500000</ele>
<time>2017-10-20T06:11:51.000Z</time>
</trkpt>
<trkpt lat="31.7697860" lon="35.0974230">
<ele>658.700012</ele>
<time>2017-10-20T06:11:52.000Z</time>
</trkpt>
<trkpt lat="31.7697010" lon="35.0974480">
<ele>657.400024</ele>
<time>2017-10-20T06:11:53.000Z</time>
</trkpt>
<trkpt lat="31.7696290" lon="35.0974650">
<ele>656.300049</ele>
<time>2017-10-20T06:11:54.000Z</time>
</trkpt>
<trkpt lat="31.7695720" lon="35.0974810">
<ele>655.299988</ele>
<time>2017-10-20T06:11:55.000Z</time>
</trkpt>
<trkpt lat="31.7695200" lon="35.0974860">
<ele>654.299988</ele>
<time>2017-10-20T06:11:56.000Z</time>
</trkpt>
<trkpt lat="31.7694680" lon="35.0974980">
<ele>653.200012</ele>
<time>2017-10-20T06:11:57.000Z</time>
</trkpt>
<trkpt lat="31.7694160" lon="35.0975180">
<ele>652.100037</ele>
<time>2017-10-20T06:11:58.000Z</time>
</trkpt>
<trkpt lat="31.7693690" lon="35.0975370">
<ele>651.200012</ele>
<time>2017-10-20T06:11:59.000Z</time>
</trkpt>
<trkpt lat="31.7693270" lon="35.0975510">
<ele>650.500000</ele>
<time>2017-10-20T06:12:00.000Z</time>
</trkpt>
<trkpt lat="31.7692830" lon="35.0975770">
<ele>649.600037</ele>
<time>2017-10-20T06:12:01.000Z</time>
</trkpt>
<trkpt lat="31.7692440" lon="35.0975990">
<ele>648.799988</ele>
<time>2017-10-20T06:12:02.000Z</time>
</trkpt>
<trkpt lat="31.7692040" lon="35.0976210">
<ele>647.900024</ele>
<time>2017-10-20T06:12:03.000Z</time>
</trkpt>
<trkpt lat="31.7691690" lon="35.0976460">
<ele>647.000000</ele>
<time>2017-10-20T06:12:04.000Z</time>
</trkpt>
<trkpt lat="31.7691320" lon="35.0976580">
<ele>646.100037</ele>
<time>2017-10-20T06:12:06.000Z</time>
</trkpt>
<trkpt lat="31.7691070" lon="35.0976850">
<ele>645.099976</ele>
<time>2017-10-20T06:12:08.000Z</time>
</trkpt>
<trkpt lat="31.7691240" lon="35.0977210">
<ele>644.099976</ele>
<time>2017-10-20T06:12:10.000Z</time>
</trkpt>
<trkpt lat="31.7691740" lon="35.0977370">
<ele>642.799988</ele>
<time>2017-10-20T06:12:12.000Z</time>
</trkpt>
<trkpt lat="31.7692310" lon="35.0977440">
<ele>641.599976</ele>
<time>2017-10-20T06:12:14.000Z</time>
</trkpt>
<trkpt lat="31.7692730" lon="35.0977520">
<ele>640.899963</ele>
<time>2017-10-20T06:12:15.000Z</time>
</trkpt>
<trkpt lat="31.7693120" lon="35.0977610">
<ele>640.299988</ele>
<time>2017-10-20T06:12:16.000Z</time>
</trkpt>
<trkpt lat="31.7693420" lon="35.0977610">
<ele>639.899963</ele>
<time>2017-10-20T06:12:17.000Z</time>
</trkpt>
<trkpt lat="31.7693720" lon="35.0977590">
<ele>639.500000</ele>
<time>2017-10-20T06:12:18.000Z</time>
</trkpt>
<trkpt lat="31.7694080" lon="35.0977660">
<ele>639.000000</ele>
<time>2017-10-20T06:12:19.000Z</time>
</trkpt>
<trkpt lat="31.7694510" lon="35.0977740">
<ele>638.499939</ele>
<time>2017-10-20T06:12:20.000Z</time>
</trkpt>
<trkpt lat="31.7694990" lon="35.0977840">
<ele>637.899963</ele>
<time>2017-10-20T06:12:21.000Z</time>
</trkpt>
<trkpt lat="31.7695540" lon="35.0977930">
<ele>637.299988</ele>
<time>2017-10-20T06:12:22.000Z</time>
</trkpt>
<trkpt lat="31.7696050" lon="35.0978050">
<ele>636.699951</ele>
<time>2017-10-20T06:12:23.000Z</time>
</trkpt>
<trkpt lat="31.7696460" lon="35.0978180">
<ele>636.400024</ele>
<time>2017-10-20T06:12:24.000Z</time>
</trkpt>
<trkpt lat="31.7696890" lon="35.0978300">
<ele>636.099976</ele>
<time>2017-10-20T06:12:25.000Z</time>
</trkpt>
<trkpt lat="31.7697330" lon="35.0978400">
<ele>635.799988</ele>
<time>2017-10-20T06:12:26.000Z</time>
</trkpt>
<trkpt lat="31.7697720" lon="35.0978550">
<ele>635.599976</ele>
<time>2017-10-20T06:12:27.000Z</time>
</trkpt>
<trkpt lat="31.7698030" lon="35.0978680">
<ele>635.299988</ele>
<time>2017-10-20T06:12:28.000Z</time>
</trkpt>
<trkpt lat="31.7698350" lon="35.0978730">
<ele>634.900024</ele>
<time>2017-10-20T06:12:29.000Z</time>
</trkpt>
<trkpt lat="31.7698670" lon="35.0978760">
<ele>634.399963</ele>
<time>2017-10-20T06:12:30.000Z</time>
</trkpt>
<trkpt lat="31.7699170" lon="35.0978840">
<ele>633.700012</ele>
<time>2017-10-20T06:12:32.000Z</time>
</trkpt>
<trkpt lat="31.7699410" lon="35.0979050">
<ele>633.199951</ele>
<time>2017-10-20T06:12:34.000Z</time>
</trkpt>
<trkpt lat="31.7699520" lon="35.0979360">
<ele>632.599976</ele>
<time>2017-10-20T06:12:36.000Z</time>
</trkpt>
<trkpt lat="31.7699380" lon="35.0979640">
<ele>632.000000</ele>
<time>2017-10-20T06:12:38.000Z</time>
</trkpt>
<trkpt lat="31.7698870" lon="35.0979780">
<ele>631.000000</ele>
<time>2017-10-20T06:12:40.000Z</time>
</trkpt>
<trkpt lat="31.7698580" lon="35.0979880">
<ele>630.500000</ele>
<time>2017-10-20T06:12:41.000Z</time>
</trkpt>
<trkpt lat="31.7698230" lon="35.0979960">
<ele>629.900024</ele>
<time>2017-10-20T06:12:42.000Z</time>
</trkpt>
<trkpt lat="31.7697770" lon="35.0980030">
<ele>629.200012</ele>
<time>2017-10-20T06:12:43.000Z</time>
</trkpt>
<trkpt lat="31.7697260" lon="35.0980120">
<ele>628.500000</ele>
<time>2017-10-20T06:12:44.000Z</time>
</trkpt>
<trkpt lat="31.7696710" lon="35.0980260">
<ele>627.700012</ele>
<time>2017-10-20T06:12:45.000Z</time>
</trkpt>
<trkpt lat="31.7696230" lon="35.0980370">
<ele>627.000000</ele>
<time>2017-10-20T06:12:46.000Z</time>
</trkpt>
<trkpt lat="31.7695310" lon="35.0980740">
<ele>625.700012</ele>
<time>2017-10-20T06:12:47.000Z</time>
</trkpt>
<trkpt lat="31.7694470" lon="35.0981120">
<ele>624.500000</ele>
<time>2017-10-20T06:12:48.000Z</time>
</trkpt>
<trkpt lat="31.7693700" lon="35.0981420">
<ele>623.400024</ele>
<time>2017-10-20T06:12:49.000Z</time>
</trkpt>
<trkpt lat="31.7692970" lon="35.0981710">
<ele>622.500000</ele>
<time>2017-10-20T06:12:50.000Z</time>
</trkpt>
<trkpt lat="31.7692240" lon="35.0981990">
<ele>621.700012</ele>
<time>2017-10-20T06:12:51.000Z</time>
</trkpt>
<trkpt lat="31.7691530" lon="35.0982240">
<ele>620.900024</ele>
<time>2017-10-20T06:12:52.000Z</time>
</trkpt>
<trkpt lat="31.7690790" lon="35.0982450">
<ele>620.100037</ele>
<time>2017-10-20T06:12:53.000Z</time>
</trkpt>
<trkpt lat="31.7690070" lon="35.0982670">
<ele>619.299988</ele>
<time>2017-10-20T06:12:54.000Z</time>
</trkpt>
<trkpt lat="31.7689400" lon="35.0982880">
<ele>618.500000</ele>
<time>2017-10-20T06:12:55.000Z</time>
</trkpt>
<trkpt lat="31.7688790" lon="35.0983090">
<ele>617.799988</ele>
<time>2017-10-20T06:12:56.000Z</time>
</trkpt>
<trkpt lat="31.7688270" lon="35.0983380">
<ele>617.100037</ele>
<time>2017-10-20T06:12:57.000Z</time>
</trkpt>
<trkpt lat="31.7687710" lon="35.0983620">
<ele>616.400024</ele>
<time>2017-10-20T06:12:58.000Z</time>
</trkpt>
<trkpt lat="31.7687050" lon="35.0983890">
<ele>615.700012</ele>
<time>2017-10-20T06:12:59.000Z</time>
</trkpt>
<trkpt lat="31.7686360" lon="35.0984100">
<ele>615.000000</ele>
<time>2017-10-20T06:13:00.000Z</time>
</trkpt>
<trkpt lat="31.7685670" lon="35.0984230">
<ele>614.299988</ele>
<time>2017-10-20T06:13:01.000Z</time>
</trkpt>
<trkpt lat="31.7684970" lon="35.0984340">
<ele>613.700012</ele>
<time>2017-10-20T06:13:02.000Z</time>
</trkpt>
<trkpt lat="31.7684310" lon="35.0984430">
<ele>613.399963</ele>
<time>2017-10-20T06:13:03.000Z</time>
</trkpt>
<trkpt lat="31.7683630" lon="35.0984590">
<ele>613.099976</ele>
<time>2017-10-20T06:13:04.000Z</time>
</trkpt>
<trkpt lat="31.7682980" lon="35.0984780">
<ele>612.900024</ele>
<time>2017-10-20T06:13:05.000Z</time>
</trkpt>
<trkpt lat="31.7682350" lon="35.0984950">
<ele>612.599976</ele>
<time>2017-10-20T06:13:06.000Z</time>
</trkpt>
<trkpt lat="31.7681730" lon="35.0985130">
<ele>612.299988</ele>
<time>2017-10-20T06:13:07.000Z</time>
</trkpt>
<trkpt lat="31.7681130" lon="35.0985310">
<ele>611.899963</ele>
<time>2017-10-20T06:13:08.000Z</time>
</trkpt>
<trkpt lat="31.7680550" lon="35.0985470">
<ele>611.299988</ele>
<time>2017-10-20T06:13:09.000Z</time>
</trkpt>
<trkpt lat="31.7679990" lon="35.0985620">
<ele>610.799988</ele>
<time>2017-10-20T06:13:10.000Z</time>
</trkpt>
<trkpt lat="31.7679460" lon="35.0985790">
<ele>610.299988</ele>
<time>2017-10-20T06:13:11.000Z</time>
</trkpt>
<trkpt lat="31.7678880" lon="35.0985970">
<ele>609.700012</ele>
<time>2017-10-20T06:13:12.000Z</time>
</trkpt>
<trkpt lat="31.7678330" lon="35.0986150">
<ele>609.000000</ele>
<time>2017-10-20T06:13:13.000Z</time>
</trkpt>
<trkpt lat="31.7677810" lon="35.0986300">
<ele>608.400024</ele>
<time>2017-10-20T06:13:14.000Z</time>
</trkpt>
<trkpt lat="31.7677270" lon="35.0986430">
<ele>607.799988</ele>
<time>2017-10-20T06:13:15.000Z</time>
</trkpt>
<trkpt lat="31.7676700" lon="35.0986540">
<ele>607.000000</ele>
<time>2017-10-20T06:13:16.000Z</time>
</trkpt>
<trkpt lat="31.7676110" lon="35.0986710">
<ele>605.799988</ele>
<time>2017-10-20T06:13:17.000Z</time>
</trkpt>
<trkpt lat="31.7675640" lon="35.0986860">
<ele>605.000000</ele>
<time>2017-10-20T06:13:18.000Z</time>
</trkpt>
<trkpt lat="31.7675270" lon="35.0987030">
<ele>604.500000</ele>
<time>2017-10-20T06:13:19.000Z</time>
</trkpt>
<trkpt lat="31.7674880" lon="35.0987250">
<ele>604.299988</ele>
<time>2017-10-20T06:13:20.000Z</time>
</trkpt>
<trkpt lat="31.7674490" lon="35.0987470">
<ele>604.000000</ele>
<time>2017-10-20T06:13:21.000Z</time>
</trkpt>
<trkpt lat="31.7674060" lon="35.0987710">
<ele>603.799988</ele>
<time>2017-10-20T06:13:22.000Z</time>
</trkpt>
<trkpt lat="31.7673580" lon="35.0987950">
<ele>603.500000</ele>
<time>2017-10-20T06:13:23.000Z</time>
</trkpt>
<trkpt lat="31.7673130" lon="35.0988230">
<ele>603.200012</ele>
<time>2017-10-20T06:13:24.000Z</time>
</trkpt>
<trkpt lat="31.7672790" lon="35.0988460">
<ele>603.000000</ele>
<time>2017-10-20T06:13:25.000Z</time>
</trkpt>
<trkpt lat="31.7672420" lon="35.0988690">
<ele>602.799988</ele>
<time>2017-10-20T06:13:26.000Z</time>
</trkpt>
<trkpt lat="31.7671960" lon="35.0988990">
<ele>602.500000</ele>
<time>2017-10-20T06:13:27.000Z</time>
</trkpt>
<trkpt lat="31.7671400" lon="35.0989290">
<ele>602.099976</ele>
<time>2017-10-20T06:13:28.000Z</time>
</trkpt>
<trkpt lat="31.7670810" lon="35.0989570">
<ele>601.500000</ele>
<time>2017-10-20T06:13:29.000Z</time>
</trkpt>
<trkpt lat="31.7670170" lon="35.0989850">
<ele>600.500000</ele>
<time>2017-10-20T06:13:30.000Z</time>
</trkpt>
<trkpt lat="31.7669570" lon="35.0990080">
<ele>599.500000</ele>
<time>2017-10-20T06:13:31.000Z</time>
</trkpt>
<trkpt lat="31.7668950" lon="35.0990320">
<ele>598.200012</ele>
<time>2017-10-20T06:13:32.000Z</time>
</trkpt>
<trkpt lat="31.7668420" lon="35.0990550">
<ele>596.900024</ele>
<time>2017-10-20T06:13:33.000Z</time>
</trkpt>
<trkpt lat="31.7667900" lon="35.0990780">
<ele>595.599976</ele>
<time>2017-10-20T06:13:34.000Z</time>
</trkpt>
<trkpt lat="31.7667380" lon="35.0990960">
<ele>594.000000</ele>
<time>2017-10-20T06:13:35.000Z</time>
</trkpt>
<trkpt lat="31.7666940" lon="35.0991090">
<ele>592.500000</ele>
<time>2017-10-20T06:13:36.000Z</time>
</trkpt>
<trkpt lat="31.7666500" lon="35.0991210">
<ele>591.200012</ele>
<time>2017-10-20T06:13:37.000Z</time>
</trkpt>
<trkpt lat="31.7666120" lon="35.0991290">
<ele>590.100037</ele>
<time>2017-10-20T06:13:38.000Z</time>
</trkpt>
<trkpt lat="31.7665770" lon="35.0991340">
<ele>589.200012</ele>
<time>2017-10-20T06:13:39.000Z</time>
</trkpt>
<trkpt lat="31.7665480" lon="35.0991430">
<ele>588.299988</ele>
<time>2017-10-20T06:13:40.000Z</time>
</trkpt>
<trkpt lat="31.7665170" lon="35.0991480">
<ele>587.500000</ele>
<time>2017-10-20T06:13:41.000Z</time>
</trkpt>
<trkpt lat="31.7664830" lon="35.0991460">
<ele>586.599976</ele>
<time>2017-10-20T06:13:42.000Z</time>
</trkpt>
<trkpt lat="31.7664500" lon="35.0991450">
<ele>585.700012</ele>
<time>2017-10-20T06:13:43.000Z</time>
</trkpt>
<trkpt lat="31.7664180" lon="35.0991400">
<ele>584.900024</ele>
<time>2017-10-20T06:13:44.000Z</time>
</trkpt>
<trkpt lat="31.7663820" lon="35.0991380">
<ele>584.000000</ele>
<time>2017-10-20T06:13:45.000Z</time>
</trkpt>
<trkpt lat="31.7663430" lon="35.0991370">
<ele>583.099976</ele>
<time>2017-10-20T06:13:46.000Z</time>
</trkpt>
<trkpt lat="31.7663100" lon="35.0991380">
<ele>582.299988</ele>
<time>2017-10-20T06:13:47.000Z</time>
</trkpt>
<trkpt lat="31.7662790" lon="35.0991430">
<ele>581.500000</ele>
<time>2017-10-20T06:13:48.000Z</time>
</trkpt>
<trkpt lat="31.7662460" lon="35.0991540">
<ele>580.799988</ele>
<time>2017-10-20T06:13:49.000Z</time>
</trkpt>
<trkpt lat="31.7662180" lon="35.0991650">
<ele>580.099976</ele>
<time>2017-10-20T06:13:50.000Z</time>
</trkpt>
<trkpt lat="31.7661670" lon="35.0991850">
<ele>579.000000</ele>
<time>2017-10-20T06:13:52.000Z</time>
</trkpt>
<trkpt lat="31.7661330" lon="35.0991960">
<ele>578.200012</ele>
<time>2017-10-20T06:13:53.000Z</time>
</trkpt>
<trkpt lat="31.7660920" lon="35.0992090">
<ele>577.200012</ele>
<time>2017-10-20T06:13:54.000Z</time>
</trkpt>
<trkpt lat="31.7660420" lon="35.0992170">
<ele>576.100037</ele>
<time>2017-10-20T06:13:55.000Z</time>
</trkpt>
<trkpt lat="31.7659960" lon="35.0992240">
<ele>575.000000</ele>
<time>2017-10-20T06:13:56.000Z</time>
</trkpt>
<trkpt lat="31.7659450" lon="35.0992350">
<ele>573.799988</ele>
<time>2017-10-20T06:13:57.000Z</time>
</trkpt>
<trkpt lat="31.7659000" lon="35.0992500">
<ele>572.700012</ele>
<time>2017-10-20T06:13:58.000Z</time>
</trkpt>
<trkpt lat="31.7658440" lon="35.0992600">
<ele>571.399963</ele>
<time>2017-10-20T06:13:59.000Z</time>
</trkpt>
<trkpt lat="31.7657780" lon="35.0992650">
<ele>570.000000</ele>
<time>2017-10-20T06:14:00.000Z</time>
</trkpt>
<trkpt lat="31.7657130" lon="35.0992680">
<ele>568.600037</ele>
<time>2017-10-20T06:14:01.000Z</time>
</trkpt>
<trkpt lat="31.7656420" lon="35.0992560">
<ele>567.100037</ele>
<time>2017-10-20T06:14:02.000Z</time>
</trkpt>
<trkpt lat="31.7655810" lon="35.0992440">
<ele>565.799988</ele>
<time>2017-10-20T06:14:03.000Z</time>
</trkpt>
<trkpt lat="31.7655290" lon="35.0992280">
<ele>564.700012</ele>
<time>2017-10-20T06:14:04.000Z</time>
</trkpt>
<trkpt lat="31.7654760" lon="35.0992130">
<ele>563.600037</ele>
<time>2017-10-20T06:14:05.000Z</time>
</trkpt>
<trkpt lat="31.7654000" lon="35.0991990">
<ele>562.100037</ele>
<time>2017-10-20T06:14:06.000Z</time>
</trkpt>
<trkpt lat="31.7653290" lon="35.0991880">
<ele>560.700012</ele>
<time>2017-10-20T06:14:07.000Z</time>
</trkpt>
<trkpt lat="31.7652630" lon="35.0991750">
<ele>559.299988</ele>
<time>2017-10-20T06:14:08.000Z</time>
</trkpt>
<trkpt lat="31.7652160" lon="35.0991550">
<ele>558.299988</ele>
<time>2017-10-20T06:14:09.000Z</time>
</trkpt>
<trkpt lat="31.7651740" lon="35.0991420">
<ele>557.399963</ele>
<time>2017-10-20T06:14:10.000Z</time>
</trkpt>
<trkpt lat="31.7651340" lon="35.0991270">
<ele>556.599976</ele>
<time>2017-10-20T06:14:11.000Z</time>
</trkpt>
<trkpt lat="31.7650910" lon="35.0991140">
<ele>555.700012</ele>
<time>2017-10-20T06:14:12.000Z</time>
</trkpt>
<trkpt lat="31.7650420" lon="35.0990970">
<ele>554.600037</ele>
<time>2017-10-20T06:14:13.000Z</time>
</trkpt>
<trkpt lat="31.7650010" lon="35.0990850">
<ele>553.799988</ele>
<time>2017-10-20T06:14:14.000Z</time>
</trkpt>
<trkpt lat="31.7649610" lon="35.0990740">
<ele>553.000000</ele>
<time>2017-10-20T06:14:15.000Z</time>
</trkpt>
<trkpt lat="31.7649320" lon="35.0990620">
<ele>552.300049</ele>
<time>2017-10-20T06:14:16.000Z</time>
</trkpt>
<trkpt lat="31.7649020" lon="35.0990540">
<ele>551.700012</ele>
<time>2017-10-20T06:14:17.000Z</time>
</trkpt>
<trkpt lat="31.7648720" lon="35.0990480">
<ele>551.000000</ele>
<time>2017-10-20T06:14:18.000Z</time>
</trkpt>
<trkpt lat="31.7648420" lon="35.0990450">
<ele>550.400024</ele>
<time>2017-10-20T06:14:19.000Z</time>
</trkpt>
<trkpt lat="31.7648040" lon="35.0990330">
<ele>549.500000</ele>
<time>2017-10-20T06:14:20.000Z</time>
</trkpt>
<trkpt lat="31.7647570" lon="35.0990190">
<ele>548.400024</ele>
<time>2017-10-20T06:14:21.000Z</time>
</trkpt>
<trkpt lat="31.7647140" lon="35.0990100">
<ele>547.400024</ele>
<time>2017-10-20T06:14:22.000Z</time>
</trkpt>
<trkpt lat="31.7646700" lon="35.0990030">
<ele>546.399963</ele>
<time>2017-10-20T06:14:23.000Z</time>
</trkpt>
<trkpt lat="31.7646330" lon="35.0989910">
<ele>545.400024</ele>
<time>2017-10-20T06:14:24.000Z</time>
</trkpt>
<trkpt lat="31.7645950" lon="35.0989620">
<ele>544.299988</ele>
<time>2017-10-20T06:14:25.000Z</time>
</trkpt>
<trkpt lat="31.7645660" lon="35.0989250">
<ele>543.000000</ele>
<time>2017-10-20T06:14:26.000Z</time>
</trkpt>
<trkpt lat="31.7645410" lon="35.0988790">
<ele>541.599976</ele>
<time>2017-10-20T06:14:27.000Z</time>
</trkpt>
<trkpt lat="31.7645230" lon="35.0988360">
<ele>540.399963</ele>
<time>2017-10-20T06:14:28.000Z</time>
</trkpt>
<trkpt lat="31.7645140" lon="35.0987900">
<ele>539.299988</ele>
<time>2017-10-20T06:14:29.000Z</time>
</trkpt>
<trkpt lat="31.7645120" lon="35.0987390">
<ele>538.000000</ele>
<time>2017-10-20T06:14:30.000Z</time>
</trkpt>
<trkpt lat="31.7645130" lon="35.0986860">
<ele>536.799988</ele>
<time>2017-10-20T06:14:31.000Z</time>
</trkpt>
<trkpt lat="31.7645090" lon="35.0986420">
<ele>536.000000</ele>
<time>2017-10-20T06:14:32.000Z</time>
</trkpt>
<trkpt lat="31.7644980" lon="35.0985970">
<ele>536.000000</ele>
<time>2017-10-20T06:14:33.000Z</time>
</trkpt>
<trkpt lat="31.7644940" lon="35.0985560">
<ele>536.099976</ele>
<time>2017-10-20T06:14:34.000Z</time>
</trkpt>
<trkpt lat="31.7644910" lon="35.0985240">
<ele>536.099976</ele>
<time>2017-10-20T06:14:35.000Z</time>
</trkpt>
<trkpt lat="31.7644770" lon="35.0984590">
<ele>536.099976</ele>
<time>2017-10-20T06:14:37.000Z</time>
</trkpt>
<trkpt lat="31.7644620" lon="35.0984240">
<ele>536.099976</ele>
<time>2017-10-20T06:14:39.000Z</time>
</trkpt>
<trkpt lat="31.7644390" lon="35.0984010">
<ele>536.099976</ele>
<time>2017-10-20T06:14:42.000Z</time>
</trkpt>
<trkpt lat="31.7644220" lon="35.0984280">
<ele>536.099976</ele>
<time>2017-10-20T06:14:45.000Z</time>
</trkpt>
<trkpt lat="31.7644400" lon="35.0984530">
<ele>536.099976</ele>
<time>2017-10-20T06:16:08.000Z</time>
</trkpt>
<trkpt lat="31.7644650" lon="35.0984860">
<ele>536.099976</ele>
<time>2017-10-20T06:16:37.000Z</time>
</trkpt>
<trkpt lat="31.7644600" lon="35.0985420">
<ele>536.099976</ele>
<time>2017-10-20T06:16:39.000Z</time>
</trkpt>
<trkpt lat="31.7644670" lon="35.0986040">
<ele>536.000000</ele>
<time>2017-10-20T06:16:41.000Z</time>
</trkpt>
<trkpt lat="31.7644730" lon="35.0986540">
<ele>536.000000</ele>
<time>2017-10-20T06:16:43.000Z</time>
</trkpt>
<trkpt lat="31.7644780" lon="35.0986970">
<ele>536.200012</ele>
<time>2017-10-20T06:16:45.000Z</time>
</trkpt>
<trkpt lat="31.7644850" lon="35.0987440">
<ele>536.899963</ele>
<time>2017-10-20T06:16:47.000Z</time>
</trkpt>
<trkpt lat="31.7644880" lon="35.0987870">
<ele>537.400024</ele>
<time>2017-10-20T06:16:49.000Z</time>
</trkpt>
<trkpt lat="31.7644940" lon="35.0988200">
<ele>537.799988</ele>
<time>2017-10-20T06:16:52.000Z</time>
</trkpt>
<trkpt lat="31.7644980" lon="35.0988560">
<ele>538.299988</ele>
<time>2017-10-20T06:16:54.000Z</time>
</trkpt>
<trkpt lat="31.7645080" lon="35.0988890">
<ele>538.700012</ele>
<time>2017-10-20T06:16:56.000Z</time>
</trkpt>
<trkpt lat="31.7645180" lon="35.0989280">
<ele>539.200012</ele>
<time>2017-10-20T06:16:59.000Z</time>
</trkpt>
<trkpt lat="31.7645280" lon="35.0989610">
<ele>539.599976</ele>
<time>2017-10-20T06:17:01.000Z</time>
</trkpt>
<trkpt lat="31.7645470" lon="35.0989900">
<ele>540.000000</ele>
<time>2017-10-20T06:17:03.000Z</time>
</trkpt>
<trkpt lat="31.7645660" lon="35.0990180">
<ele>540.500000</ele>
<time>2017-10-20T06:17:05.000Z</time>
</trkpt>
<trkpt lat="31.7645870" lon="35.0990480">
<ele>540.900024</ele>
<time>2017-10-20T06:17:07.000Z</time>
</trkpt>
<trkpt lat="31.7646140" lon="35.0990720">
<ele>541.299988</ele>
<time>2017-10-20T06:17:09.000Z</time>
</trkpt>
<trkpt lat="31.7646380" lon="35.0990940">
<ele>541.700012</ele>
<time>2017-10-20T06:17:11.000Z</time>
</trkpt>
<trkpt lat="31.7646730" lon="35.0991150">
<ele>542.200012</ele>
<time>2017-10-20T06:17:13.000Z</time>
</trkpt>
<trkpt lat="31.7647060" lon="35.0991310">
<ele>542.700012</ele>
<time>2017-10-20T06:17:15.000Z</time>
</trkpt>
<trkpt lat="31.7647430" lon="35.0991570">
<ele>543.200012</ele>
<time>2017-10-20T06:17:18.000Z</time>
</trkpt>
<trkpt lat="31.7647750" lon="35.0991810">
<ele>543.700012</ele>
<time>2017-10-20T06:17:20.000Z</time>
</trkpt>
<trkpt lat="31.7648050" lon="35.0992080">
<ele>544.099976</ele>
<time>2017-10-20T06:17:22.000Z</time>
</trkpt>
<trkpt lat="31.7648390" lon="35.0992340">
<ele>544.599976</ele>
<time>2017-10-20T06:17:24.000Z</time>
</trkpt>
<trkpt lat="31.7648790" lon="35.0992580">
<ele>545.200012</ele>
<time>2017-10-20T06:17:26.000Z</time>
</trkpt>
<trkpt lat="31.7649180" lon="35.0992790">
<ele>545.700012</ele>
<time>2017-10-20T06:17:28.000Z</time>
</trkpt>
<trkpt lat="31.7649480" lon="35.0992920">
<ele>546.099976</ele>
<time>2017-10-20T06:17:30.000Z</time>
</trkpt>
<trkpt lat="31.7649780" lon="35.0993050">
<ele>546.500000</ele>
<time>2017-10-20T06:17:32.000Z</time>
</trkpt>
<trkpt lat="31.7650050" lon="35.0993190">
<ele>546.900024</ele>
<time>2017-10-20T06:17:34.000Z</time>
</trkpt>
<trkpt lat="31.7650460" lon="35.0993410">
<ele>547.500000</ele>
<time>2017-10-20T06:17:37.000Z</time>
</trkpt>
<trkpt lat="31.7650830" lon="35.0993550">
<ele>548.000000</ele>
<time>2017-10-20T06:17:39.000Z</time>
</trkpt>
<trkpt lat="31.7651190" lon="35.0993640">
<ele>548.500000</ele>
<time>2017-10-20T06:17:41.000Z</time>
</trkpt>
<trkpt lat="31.7651680" lon="35.0993820">
<ele>549.099976</ele>
<time>2017-10-20T06:17:43.000Z</time>
</trkpt>
<trkpt lat="31.7651990" lon="35.0993900">
<ele>549.600037</ele>
<time>2017-10-20T06:17:45.000Z</time>
</trkpt>
<trkpt lat="31.7652330" lon="35.0994000">
<ele>550.000000</ele>
<time>2017-10-20T06:17:47.000Z</time>
</trkpt>
<trkpt lat="31.7652710" lon="35.0994160">
<ele>550.599976</ele>
<time>2017-10-20T06:17:49.000Z</time>
</trkpt>
<trkpt lat="31.7653140" lon="35.0994230">
<ele>551.100037</ele>
<time>2017-10-20T06:17:51.000Z</time>
</trkpt>
<trkpt lat="31.7653460" lon="35.0994210">
<ele>551.599976</ele>
<time>2017-10-20T06:17:53.000Z</time>
</trkpt>
<trkpt lat="31.7653900" lon="35.0994310">
<ele>552.200012</ele>
<time>2017-10-20T06:17:55.000Z</time>
</trkpt>
<trkpt lat="31.7654190" lon="35.0994260">
<ele>552.599976</ele>
<time>2017-10-20T06:17:57.000Z</time>
</trkpt>
<trkpt lat="31.7654560" lon="35.0994250">
<ele>553.100037</ele>
<time>2017-10-20T06:17:59.000Z</time>
</trkpt>
<trkpt lat="31.7654900" lon="35.0994370">
<ele>553.500000</ele>
<time>2017-10-20T06:18:01.000Z</time>
</trkpt>
<trkpt lat="31.7655190" lon="35.0994550">
<ele>554.000000</ele>
<time>2017-10-20T06:18:03.000Z</time>
</trkpt>
<trkpt lat="31.7655560" lon="35.0994640">
<ele>554.500000</ele>
<time>2017-10-20T06:18:05.000Z</time>
</trkpt>
<trkpt lat="31.7655830" lon="35.0994660">
<ele>554.900024</ele>
<time>2017-10-20T06:18:07.000Z</time>
</trkpt>
<trkpt lat="31.7656150" lon="35.0994770">
<ele>555.299988</ele>
<time>2017-10-20T06:18:09.000Z</time>
</trkpt>
<trkpt lat="31.7656430" lon="35.0994890">
<ele>555.700012</ele>
<time>2017-10-20T06:18:11.000Z</time>
</trkpt>
<trkpt lat="31.7656770" lon="35.0994940">
<ele>556.200012</ele>
<time>2017-10-20T06:18:13.000Z</time>
</trkpt>
<trkpt lat="31.7657160" lon="35.0995120">
<ele>556.799988</ele>
<time>2017-10-20T06:18:15.000Z</time>
</trkpt>
<trkpt lat="31.7657460" lon="35.0995230">
<ele>557.200012</ele>
<time>2017-10-20T06:18:17.000Z</time>
</trkpt>
<trkpt lat="31.7657740" lon="35.0995290">
<ele>557.600037</ele>
<time>2017-10-20T06:18:20.000Z</time>
</trkpt>
<trkpt lat="31.7658120" lon="35.0995370">
<ele>558.200012</ele>
<time>2017-10-20T06:18:22.000Z</time>
</trkpt>
<trkpt lat="31.7658410" lon="35.0995490">
<ele>558.599976</ele>
<time>2017-10-20T06:18:23.000Z</time>
</trkpt>
<trkpt lat="31.7658680" lon="35.0995600">
<ele>559.000000</ele>
<time>2017-10-20T06:18:24.000Z</time>
</trkpt>
<trkpt lat="31.7659020" lon="35.0995760">
<ele>559.500000</ele>
<time>2017-10-20T06:18:26.000Z</time>
</trkpt>
<trkpt lat="31.7659360" lon="35.0995930">
<ele>560.099976</ele>
<time>2017-10-20T06:18:29.000Z</time>
</trkpt>
<trkpt lat="31.7659640" lon="35.0996100">
<ele>560.500000</ele>
<time>2017-10-20T06:18:31.000Z</time>
</trkpt>
<trkpt lat="31.7659930" lon="35.0996260">
<ele>560.900024</ele>
<time>2017-10-20T06:18:33.000Z</time>
</trkpt>
<trkpt lat="31.7660210" lon="35.0996390">
<ele>561.400024</ele>
<time>2017-10-20T06:18:35.000Z</time>
</trkpt>
<trkpt lat="31.7660430" lon="35.0996590">
<ele>561.700012</ele>
<time>2017-10-20T06:18:37.000Z</time>
</trkpt>
<trkpt lat="31.7660730" lon="35.0996720">
<ele>562.200012</ele>
<time>2017-10-20T06:18:40.000Z</time>
</trkpt>
<trkpt lat="31.7661050" lon="35.0996920">
<ele>562.700012</ele>
<time>2017-10-20T06:18:43.000Z</time>
</trkpt>
<trkpt lat="31.7661310" lon="35.0997090">
<ele>563.099976</ele>
<time>2017-10-20T06:18:45.000Z</time>
</trkpt>
<trkpt lat="31.7661620" lon="35.0997260">
<ele>563.500000</ele>
<time>2017-10-20T06:18:48.000Z</time>
</trkpt>
<trkpt lat="31.7661930" lon="35.0997350">
<ele>563.900024</ele>
<time>2017-10-20T06:18:50.000Z</time>
</trkpt>
<trkpt lat="31.7662220" lon="35.0997430">
<ele>564.299988</ele>
<time>2017-10-20T06:18:52.000Z</time>
</trkpt>
<trkpt lat="31.7662610" lon="35.0997550">
<ele>564.799988</ele>
<time>2017-10-20T06:18:54.000Z</time>
</trkpt>
<trkpt lat="31.7662990" lon="35.0997730">
<ele>565.299988</ele>
<time>2017-10-20T06:18:56.000Z</time>
</trkpt>
<trkpt lat="31.7663290" lon="35.0997790">
<ele>565.600037</ele>
<time>2017-10-20T06:18:58.000Z</time>
</trkpt>
<trkpt lat="31.7663560" lon="35.0997840">
<ele>565.900024</ele>
<time>2017-10-20T06:19:00.000Z</time>
</trkpt>
<trkpt lat="31.7663870" lon="35.0997830">
<ele>566.299988</ele>
<time>2017-10-20T06:19:02.000Z</time>
</trkpt>
<trkpt lat="31.7664200" lon="35.0997790">
<ele>566.700012</ele>
<time>2017-10-20T06:19:05.000Z</time>
</trkpt>
<trkpt lat="31.7664550" lon="35.0997830">
<ele>567.100037</ele>
<time>2017-10-20T06:19:07.000Z</time>
</trkpt>
<trkpt lat="31.7664990" lon="35.0997850">
<ele>567.500000</ele>
<time>2017-10-20T06:19:10.000Z</time>
</trkpt>
<trkpt lat="31.7665390" lon="35.0997880">
<ele>568.000000</ele>
<time>2017-10-20T06:19:12.000Z</time>
</trkpt>
<trkpt lat="31.7665820" lon="35.0997860">
<ele>568.399963</ele>
<time>2017-10-20T06:19:14.000Z</time>
</trkpt>
<trkpt lat="31.7666180" lon="35.0997880">
<ele>568.799988</ele>
<time>2017-10-20T06:19:16.000Z</time>
</trkpt>
<trkpt lat="31.7666460" lon="35.0997890">
<ele>569.099976</ele>
<time>2017-10-20T06:19:18.000Z</time>
</trkpt>
<trkpt lat="31.7666820" lon="35.0997790">
<ele>569.500000</ele>
<time>2017-10-20T06:19:20.000Z</time>
</trkpt>
<trkpt lat="31.7667310" lon="35.0997750">
<ele>570.100037</ele>
<time>2017-10-20T06:19:22.000Z</time>
</trkpt>
<trkpt lat="31.7667580" lon="35.0997770">
<ele>570.400024</ele>
<time>2017-10-20T06:19:23.000Z</time>
</trkpt>
<trkpt lat="31.7668050" lon="35.0997920">
<ele>571.000000</ele>
<time>2017-10-20T06:19:25.000Z</time>
</trkpt>
<trkpt lat="31.7668490" lon="35.0997920">
<ele>571.500000</ele>
<time>2017-10-20T06:19:27.000Z</time>
</trkpt>
<trkpt lat="31.7668820" lon="35.0997940">
<ele>571.900024</ele>
<time>2017-10-20T06:19:29.000Z</time>
</trkpt>
<trkpt lat="31.7669340" lon="35.0997930">
<ele>572.500000</ele>
<time>2017-10-20T06:19:31.000Z</time>
</trkpt>
<trkpt lat="31.7669700" lon="35.0997980">
<ele>573.000000</ele>
<time>2017-10-20T06:19:33.000Z</time>
</trkpt>
<trkpt lat="31.7670100" lon="35.0998040">
<ele>573.500000</ele>
<time>2017-10-20T06:19:35.000Z</time>
</trkpt>
<trkpt lat="31.7670420" lon="35.0998060">
<ele>573.900024</ele>
<time>2017-10-20T06:19:37.000Z</time>
</trkpt>
<trkpt lat="31.7670780" lon="35.0998100">
<ele>574.399963</ele>
<time>2017-10-20T06:19:39.000Z</time>
</trkpt>
<trkpt lat="31.7671190" lon="35.0998080">
<ele>575.000000</ele>
<time>2017-10-20T06:19:41.000Z</time>
</trkpt>
<trkpt lat="31.7671570" lon="35.0998100">
<ele>575.500000</ele>
<time>2017-10-20T06:19:43.000Z</time>
</trkpt>
<trkpt lat="31.7671900" lon="35.0998090">
<ele>576.000000</ele>
<time>2017-10-20T06:19:45.000Z</time>
</trkpt>
<trkpt lat="31.7672240" lon="35.0998170">
<ele>576.500000</ele>
<time>2017-10-20T06:19:47.000Z</time>
</trkpt>
<trkpt lat="31.7672530" lon="35.0998160">
<ele>576.900024</ele>
<time>2017-10-20T06:19:49.000Z</time>
</trkpt>
<trkpt lat="31.7672800" lon="35.0998180">
<ele>577.299988</ele>
<time>2017-10-20T06:19:51.000Z</time>
</trkpt>
<trkpt lat="31.7673090" lon="35.0998270">
<ele>577.700012</ele>
<time>2017-10-20T06:19:54.000Z</time>
</trkpt>
<trkpt lat="31.7673420" lon="35.0998280">
<ele>578.100037</ele>
<time>2017-10-20T06:19:57.000Z</time>
</trkpt>
<trkpt lat="31.7673800" lon="35.0998300">
<ele>578.700012</ele>
<time>2017-10-20T06:19:59.000Z</time>
</trkpt>
<trkpt lat="31.7674360" lon="35.0998390">
<ele>579.399963</ele>
<time>2017-10-20T06:20:01.000Z</time>
</trkpt>
<trkpt lat="31.7674830" lon="35.0998390">
<ele>580.000000</ele>
<time>2017-10-20T06:20:03.000Z</time>
</trkpt>
<trkpt lat="31.7675240" lon="35.0998340">
<ele>580.500000</ele>
<time>2017-10-20T06:20:06.000Z</time>
</trkpt>
<trkpt lat="31.7675560" lon="35.0998300">
<ele>580.799988</ele>
<time>2017-10-20T06:20:08.000Z</time>
</trkpt>
<trkpt lat="31.7675940" lon="35.0998220">
<ele>581.299988</ele>
<time>2017-10-20T06:20:11.000Z</time>
</trkpt>
<trkpt lat="31.7676280" lon="35.0998090">
<ele>581.700012</ele>
<time>2017-10-20T06:20:13.000Z</time>
</trkpt>
<trkpt lat="31.7676660" lon="35.0997930">
<ele>582.099976</ele>
<time>2017-10-20T06:20:16.000Z</time>
</trkpt>
<trkpt lat="31.7676970" lon="35.0997760">
<ele>582.500000</ele>
<time>2017-10-20T06:20:18.000Z</time>
</trkpt>
<trkpt lat="31.7677230" lon="35.0997530">
<ele>582.900024</ele>
<time>2017-10-20T06:20:20.000Z</time>
</trkpt>
<trkpt lat="31.7677590" lon="35.0997380">
<ele>583.299988</ele>
<time>2017-10-20T06:20:22.000Z</time>
</trkpt>
<trkpt lat="31.7677880" lon="35.0997190">
<ele>583.700012</ele>
<time>2017-10-20T06:20:24.000Z</time>
</trkpt>
<trkpt lat="31.7678130" lon="35.0996900">
<ele>584.100037</ele>
<time>2017-10-20T06:20:27.000Z</time>
</trkpt>
<trkpt lat="31.7678460" lon="35.0996590">
<ele>584.599976</ele>
<time>2017-10-20T06:20:30.000Z</time>
</trkpt>
<trkpt lat="31.7678630" lon="35.0996320">
<ele>584.900024</ele>
<time>2017-10-20T06:20:32.000Z</time>
</trkpt>
<trkpt lat="31.7678850" lon="35.0996070">
<ele>585.200012</ele>
<time>2017-10-20T06:20:34.000Z</time>
</trkpt>
<trkpt lat="31.7679100" lon="35.0995850">
<ele>585.600037</ele>
<time>2017-10-20T06:20:36.000Z</time>
</trkpt>
<trkpt lat="31.7679400" lon="35.0995560">
<ele>586.099976</ele>
<time>2017-10-20T06:20:38.000Z</time>
</trkpt>
<trkpt lat="31.7679630" lon="35.0995280">
<ele>586.500000</ele>
<time>2017-10-20T06:20:40.000Z</time>
</trkpt>
<trkpt lat="31.7679930" lon="35.0995000">
<ele>586.899963</ele>
<time>2017-10-20T06:20:42.000Z</time>
</trkpt>
<trkpt lat="31.7680220" lon="35.0994760">
<ele>587.400024</ele>
<time>2017-10-20T06:20:44.000Z</time>
</trkpt>
<trkpt lat="31.7680510" lon="35.0994510">
<ele>587.799988</ele>
<time>2017-10-20T06:20:47.000Z</time>
</trkpt>
<trkpt lat="31.7680860" lon="35.0994270">
<ele>588.399963</ele>
<time>2017-10-20T06:20:50.000Z</time>
</trkpt>
<trkpt lat="31.7681290" lon="35.0994000">
<ele>589.000000</ele>
<time>2017-10-20T06:20:52.000Z</time>
</trkpt>
<trkpt lat="31.7681710" lon="35.0993860">
<ele>589.599976</ele>
<time>2017-10-20T06:20:54.000Z</time>
</trkpt>
<trkpt lat="31.7682100" lon="35.0993620">
<ele>590.200012</ele>
<time>2017-10-20T06:20:56.000Z</time>
</trkpt>
<trkpt lat="31.7682450" lon="35.0993400">
<ele>590.799988</ele>
<time>2017-10-20T06:20:58.000Z</time>
</trkpt>
<trkpt lat="31.7682840" lon="35.0993180">
<ele>591.400024</ele>
<time>2017-10-20T06:21:00.000Z</time>
</trkpt>
<trkpt lat="31.7683080" lon="35.0992990">
<ele>591.799988</ele>
<time>2017-10-20T06:21:02.000Z</time>
</trkpt>
<trkpt lat="31.7683420" lon="35.0992670">
<ele>592.400024</ele>
<time>2017-10-20T06:21:04.000Z</time>
</trkpt>
<trkpt lat="31.7683650" lon="35.0992480">
<ele>592.799988</ele>
<time>2017-10-20T06:21:06.000Z</time>
</trkpt>
<trkpt lat="31.7683930" lon="35.0992350">
<ele>593.200012</ele>
<time>2017-10-20T06:21:08.000Z</time>
</trkpt>
<trkpt lat="31.7684340" lon="35.0992340">
<ele>593.799988</ele>
<time>2017-10-20T06:21:10.000Z</time>
</trkpt>
<trkpt lat="31.7684710" lon="35.0992250">
<ele>594.299988</ele>
<time>2017-10-20T06:21:12.000Z</time>
</trkpt>
<trkpt lat="31.7685070" lon="35.0992110">
<ele>594.799988</ele>
<time>2017-10-20T06:21:14.000Z</time>
</trkpt>
<trkpt lat="31.7685330" lon="35.0992000">
<ele>595.200012</ele>
<time>2017-10-20T06:21:16.000Z</time>
</trkpt>
<trkpt lat="31.7685650" lon="35.0991950">
<ele>595.599976</ele>
<time>2017-10-20T06:21:18.000Z</time>
</trkpt>
<trkpt lat="31.7686080" lon="35.0991890">
<ele>596.200012</ele>
<time>2017-10-20T06:21:20.000Z</time>
</trkpt>
<trkpt lat="31.7686480" lon="35.0991850">
<ele>596.700012</ele>
<time>2017-10-20T06:21:22.000Z</time>
</trkpt>
<trkpt lat="31.7686780" lon="35.0991800">
<ele>597.099976</ele>
<time>2017-10-20T06:21:24.000Z</time>
</trkpt>
<trkpt lat="31.7687150" lon="35.0991730">
<ele>597.599976</ele>
<time>2017-10-20T06:21:26.000Z</time>
</trkpt>
<trkpt lat="31.7687510" lon="35.0991730">
<ele>598.100037</ele>
<time>2017-10-20T06:21:28.000Z</time>
</trkpt>
<trkpt lat="31.7687800" lon="35.0991660">
<ele>598.500000</ele>
<time>2017-10-20T06:21:30.000Z</time>
</trkpt>
<trkpt lat="31.7688110" lon="35.0991580">
<ele>598.799988</ele>
<time>2017-10-20T06:21:32.000Z</time>
</trkpt>
<trkpt lat="31.7688430" lon="35.0991480">
<ele>599.200012</ele>
<time>2017-10-20T06:21:34.000Z</time>
</trkpt>
<trkpt lat="31.7688710" lon="35.0991420">
<ele>599.600037</ele>
<time>2017-10-20T06:21:36.000Z</time>
</trkpt>
<trkpt lat="31.7689030" lon="35.0991320">
<ele>600.000000</ele>
<time>2017-10-20T06:21:38.000Z</time>
</trkpt>
<trkpt lat="31.7689370" lon="35.0991240">
<ele>600.400024</ele>
<time>2017-10-20T06:21:40.000Z</time>
</trkpt>
<trkpt lat="31.7689650" lon="35.0991170">
<ele>600.700012</ele>
<time>2017-10-20T06:21:42.000Z</time>
</trkpt>
<trkpt lat="31.7690020" lon="35.0991110">
<ele>601.200012</ele>
<time>2017-10-20T06:21:45.000Z</time>
</trkpt>
<trkpt lat="31.7690430" lon="35.0991050">
<ele>601.599976</ele>
<time>2017-10-20T06:21:48.000Z</time>
</trkpt>
<trkpt lat="31.7690750" lon="35.0990950">
<ele>602.000000</ele>
<time>2017-10-20T06:21:50.000Z</time>
</trkpt>
<trkpt lat="31.7691060" lon="35.0990780">
<ele>602.399963</ele>
<time>2017-10-20T06:21:52.000Z</time>
</trkpt>
<trkpt lat="31.7691430" lon="35.0990620">
<ele>602.900024</ele>
<time>2017-10-20T06:21:54.000Z</time>
</trkpt>
<trkpt lat="31.7691910" lon="35.0990510">
<ele>603.500000</ele>
<time>2017-10-20T06:21:56.000Z</time>
</trkpt>
<trkpt lat="31.7692290" lon="35.0990410">
<ele>603.900024</ele>
<time>2017-10-20T06:21:58.000Z</time>
</trkpt>
<trkpt lat="31.7692650" lon="35.0990350">
<ele>604.299988</ele>
<time>2017-10-20T06:22:01.000Z</time>
</trkpt>
<trkpt lat="31.7692980" lon="35.0990340">
<ele>604.700012</ele>
<time>2017-10-20T06:22:03.000Z</time>
</trkpt>
<trkpt lat="31.7693310" lon="35.0990400">
<ele>605.099976</ele>
<time>2017-10-20T06:22:05.000Z</time>
</trkpt>
<trkpt lat="31.7693590" lon="35.0990310">
<ele>605.500000</ele>
<time>2017-10-20T06:22:07.000Z</time>
</trkpt>
<trkpt lat="31.7694020" lon="35.0990330">
<ele>605.899963</ele>
<time>2017-10-20T06:22:10.000Z</time>
</trkpt>
<trkpt lat="31.7694320" lon="35.0990300">
<ele>606.299988</ele>
<time>2017-10-20T06:22:12.000Z</time>
</trkpt>
<trkpt lat="31.7694680" lon="35.0990190">
<ele>606.599976</ele>
<time>2017-10-20T06:22:14.000Z</time>
</trkpt>
<trkpt lat="31.7695050" lon="35.0990090">
<ele>607.000000</ele>
<time>2017-10-20T06:22:16.000Z</time>
</trkpt>
<trkpt lat="31.7695430" lon="35.0990110">
<ele>607.399963</ele>
<time>2017-10-20T06:22:18.000Z</time>
</trkpt>
<trkpt lat="31.7695810" lon="35.0990120">
<ele>607.700012</ele>
<time>2017-10-20T06:22:20.000Z</time>
</trkpt>
<trkpt lat="31.7696230" lon="35.0990080">
<ele>608.000000</ele>
<time>2017-10-20T06:22:22.000Z</time>
</trkpt>
<trkpt lat="31.7696670" lon="35.0990120">
<ele>608.200012</ele>
<time>2017-10-20T06:22:24.000Z</time>
</trkpt>
<trkpt lat="31.7697120" lon="35.0990160">
<ele>608.400024</ele>
<time>2017-10-20T06:22:26.000Z</time>
</trkpt>
<trkpt lat="31.7697540" lon="35.0990170">
<ele>608.500000</ele>
<time>2017-10-20T06:22:28.000Z</time>
</trkpt>
<trkpt lat="31.7698010" lon="35.0990180">
<ele>608.599976</ele>
<time>2017-10-20T06:22:30.000Z</time>
</trkpt>
<trkpt lat="31.7698440" lon="35.0990140">
<ele>608.799988</ele>
<time>2017-10-20T06:22:32.000Z</time>
</trkpt>
<trkpt lat="31.7698730" lon="35.0990050">
<ele>608.799988</ele>
<time>2017-10-20T06:22:34.000Z</time>
</trkpt>
<trkpt lat="31.7699050" lon="35.0990020">
<ele>608.899963</ele>
<time>2017-10-20T06:22:35.000Z</time>
</trkpt>
<trkpt lat="31.7699400" lon="35.0989990">
<ele>609.000000</ele>
<time>2017-10-20T06:22:36.000Z</time>
</trkpt>
<trkpt lat="31.7699730" lon="35.0989990">
<ele>609.100037</ele>
<time>2017-10-20T06:22:37.000Z</time>
</trkpt>
<trkpt lat="31.7700030" lon="35.0989980">
<ele>609.200012</ele>
<time>2017-10-20T06:22:38.000Z</time>
</trkpt>
<trkpt lat="31.7700310" lon="35.0990010">
<ele>609.299988</ele>
<time>2017-10-20T06:22:39.000Z</time>
</trkpt>
<trkpt lat="31.7700600" lon="35.0990020">
<ele>609.400024</ele>
<time>2017-10-20T06:22:40.000Z</time>
</trkpt>
<trkpt lat="31.7701100" lon="35.0990120">
<ele>609.500000</ele>
<time>2017-10-20T06:22:42.000Z</time>
</trkpt>
<trkpt lat="31.7701370" lon="35.0990160">
<ele>609.599976</ele>
<time>2017-10-20T06:22:43.000Z</time>
</trkpt>
<trkpt lat="31.7701840" lon="35.0990210">
<ele>609.799988</ele>
<time>2017-10-20T06:22:45.000Z</time>
</trkpt>
<trkpt lat="31.7702300" lon="35.0990250">
<ele>610.000000</ele>
<time>2017-10-20T06:22:47.000Z</time>
</trkpt>
<trkpt lat="31.7702850" lon="35.0990250">
<ele>610.399963</ele>
<time>2017-10-20T06:22:49.000Z</time>
</trkpt>
<trkpt lat="31.7703280" lon="35.0990230">
<ele>610.799988</ele>
<time>2017-10-20T06:22:51.000Z</time>
</trkpt>
<trkpt lat="31.7703680" lon="35.0990200">
<ele>611.200012</ele>
<time>2017-10-20T06:22:53.000Z</time>
</trkpt>
<trkpt lat="31.7704150" lon="35.0990190">
<ele>611.599976</ele>
<time>2017-10-20T06:22:55.000Z</time>
</trkpt>
<trkpt lat="31.7704430" lon="35.0990150">
<ele>611.899963</ele>
<time>2017-10-20T06:22:56.000Z</time>
</trkpt>
<trkpt lat="31.7704710" lon="35.0990120">
<ele>612.200012</ele>
<time>2017-10-20T06:22:57.000Z</time>
</trkpt>
<trkpt lat="31.7704980" lon="35.0990140">
<ele>612.500000</ele>
<time>2017-10-20T06:22:58.000Z</time>
</trkpt>
<trkpt lat="31.7705460" lon="35.0990070">
<ele>613.000000</ele>
<time>2017-10-20T06:23:00.000Z</time>
</trkpt>
<trkpt lat="31.7705750" lon="35.0990040">
<ele>613.299988</ele>
<time>2017-10-20T06:23:01.000Z</time>
</trkpt>
<trkpt lat="31.7706040" lon="35.0989980">
<ele>613.600037</ele>
<time>2017-10-20T06:23:02.000Z</time>
</trkpt>
<trkpt lat="31.7706320" lon="35.0989890">
<ele>613.900024</ele>
<time>2017-10-20T06:23:03.000Z</time>
</trkpt>
<trkpt lat="31.7706680" lon="35.0989790">
<ele>614.200012</ele>
<time>2017-10-20T06:23:04.000Z</time>
</trkpt>
<trkpt lat="31.7707050" lon="35.0989710">
<ele>614.599976</ele>
<time>2017-10-20T06:23:05.000Z</time>
</trkpt>
<trkpt lat="31.7707390" lon="35.0989600">
<ele>614.899963</ele>
<time>2017-10-20T06:23:06.000Z</time>
</trkpt>
<trkpt lat="31.7707710" lon="35.0989390">
<ele>615.200012</ele>
<time>2017-10-20T06:23:07.000Z</time>
</trkpt>
<trkpt lat="31.7708020" lon="35.0989240">
<ele>615.400024</ele>
<time>2017-10-20T06:23:08.000Z</time>
</trkpt>
<trkpt lat="31.7708350" lon="35.0989120">
<ele>615.599976</ele>
<time>2017-10-20T06:23:09.000Z</time>
</trkpt>
<trkpt lat="31.7708620" lon="35.0988960">
<ele>615.700012</ele>
<time>2017-10-20T06:23:10.000Z</time>
</trkpt>
<trkpt lat="31.7708920" lon="35.0988820">
<ele>615.799988</ele>
<time>2017-10-20T06:23:11.000Z</time>
</trkpt>
<trkpt lat="31.7709190" lon="35.0988680">
<ele>616.000000</ele>
<time>2017-10-20T06:23:12.000Z</time>
</trkpt>
<trkpt lat="31.7709480" lon="35.0988530">
<ele>616.099976</ele>
<time>2017-10-20T06:23:13.000Z</time>
</trkpt>
<trkpt lat="31.7709790" lon="35.0988390">
<ele>616.299988</ele>
<time>2017-10-20T06:23:14.000Z</time>
</trkpt>
<trkpt lat="31.7710100" lon="35.0988220">
<ele>616.400024</ele>
<time>2017-10-20T06:23:15.000Z</time>
</trkpt>
<trkpt lat="31.7710370" lon="35.0988070">
<ele>616.599976</ele>
<time>2017-10-20T06:23:16.000Z</time>
</trkpt>
<trkpt lat="31.7710620" lon="35.0987910">
<ele>616.799988</ele>
<time>2017-10-20T06:23:17.000Z</time>
</trkpt>
<trkpt lat="31.7710870" lon="35.0987720">
<ele>617.000000</ele>
<time>2017-10-20T06:23:18.000Z</time>
</trkpt>
<trkpt lat="31.7711110" lon="35.0987490">
<ele>617.299988</ele>
<time>2017-10-20T06:23:19.000Z</time>
</trkpt>
<trkpt lat="31.7711320" lon="35.0987270">
<ele>617.500000</ele>
<time>2017-10-20T06:23:20.000Z</time>
</trkpt>
<trkpt lat="31.7711550" lon="35.0987040">
<ele>617.799988</ele>
<time>2017-10-20T06:23:21.000Z</time>
</trkpt>
<trkpt lat="31.7711900" lon="35.0986650">
<ele>618.200012</ele>
<time>2017-10-20T06:23:23.000Z</time>
</trkpt>
<trkpt lat="31.7712230" lon="35.0986230">
<ele>618.700012</ele>
<time>2017-10-20T06:23:25.000Z</time>
</trkpt>
<trkpt lat="31.7712400" lon="35.0985990">
<ele>618.900024</ele>
<time>2017-10-20T06:23:26.000Z</time>
</trkpt>
<trkpt lat="31.7712570" lon="35.0985740">
<ele>619.200012</ele>
<time>2017-10-20T06:23:27.000Z</time>
</trkpt>
<trkpt lat="31.7712750" lon="35.0985480">
<ele>619.400024</ele>
<time>2017-10-20T06:23:28.000Z</time>
</trkpt>
<trkpt lat="31.7712940" lon="35.0985210">
<ele>619.700012</ele>
<time>2017-10-20T06:23:29.000Z</time>
</trkpt>
<trkpt lat="31.7713120" lon="35.0984950">
<ele>620.000000</ele>
<time>2017-10-20T06:23:30.000Z</time>
</trkpt>
<trkpt lat="31.7713300" lon="35.0984670">
<ele>620.200012</ele>
<time>2017-10-20T06:23:31.000Z</time>
</trkpt>
<trkpt lat="31.7713490" lon="35.0984430">
<ele>620.500000</ele>
<time>2017-10-20T06:23:32.000Z</time>
</trkpt>
<trkpt lat="31.7713670" lon="35.0984150">
<ele>620.700012</ele>
<time>2017-10-20T06:23:33.000Z</time>
</trkpt>
<trkpt lat="31.7713830" lon="35.0983870">
<ele>621.000000</ele>
<time>2017-10-20T06:23:34.000Z</time>
</trkpt>
<trkpt lat="31.7714030" lon="35.0983560">
<ele>621.099976</ele>
<time>2017-10-20T06:23:35.000Z</time>
</trkpt>
<trkpt lat="31.7714240" lon="35.0983260">
<ele>621.299988</ele>
<time>2017-10-20T06:23:36.000Z</time>
</trkpt>
<trkpt lat="31.7714460" lon="35.0982930">
<ele>621.399963</ele>
<time>2017-10-20T06:23:37.000Z</time>
</trkpt>
<trkpt lat="31.7714670" lon="35.0982600">
<ele>621.600037</ele>
<time>2017-10-20T06:23:38.000Z</time>
</trkpt>
<trkpt lat="31.7714920" lon="35.0982340">
<ele>621.700012</ele>
<time>2017-10-20T06:23:39.000Z</time>
</trkpt>
<trkpt lat="31.7715170" lon="35.0982010">
<ele>621.900024</ele>
<time>2017-10-20T06:23:40.000Z</time>
</trkpt>
<trkpt lat="31.7715340" lon="35.0981700">
<ele>622.099976</ele>
<time>2017-10-20T06:23:41.000Z</time>
</trkpt>
<trkpt lat="31.7715520" lon="35.0981330">
<ele>622.200012</ele>
<time>2017-10-20T06:23:42.000Z</time>
</trkpt>
<trkpt lat="31.7715690" lon="35.0981070">
<ele>622.299988</ele>
<time>2017-10-20T06:23:43.000Z</time>
</trkpt>
<trkpt lat="31.7715900" lon="35.0980780">
<ele>622.500000</ele>
<time>2017-10-20T06:23:44.000Z</time>
</trkpt>
<trkpt lat="31.7716080" lon="35.0980500">
<ele>622.599976</ele>
<time>2017-10-20T06:23:45.000Z</time>
</trkpt>
<trkpt lat="31.7716220" lon="35.0980200">
<ele>622.799988</ele>
<time>2017-10-20T06:23:46.000Z</time>
</trkpt>
<trkpt lat="31.7716410" lon="35.0979960">
<ele>622.899963</ele>
<time>2017-10-20T06:23:47.000Z</time>
</trkpt>
<trkpt lat="31.7716810" lon="35.0979530">
<ele>623.200012</ele>
<time>2017-10-20T06:23:49.000Z</time>
</trkpt>
<trkpt lat="31.7717030" lon="35.0979260">
<ele>623.299988</ele>
<time>2017-10-20T06:23:50.000Z</time>
</trkpt>
<trkpt lat="31.7717380" lon="35.0978740">
<ele>623.500000</ele>
<time>2017-10-20T06:23:52.000Z</time>
</trkpt>
<trkpt lat="31.7717590" lon="35.0978460">
<ele>623.700012</ele>
<time>2017-10-20T06:23:53.000Z</time>
</trkpt>
<trkpt lat="31.7717800" lon="35.0978170">
<ele>623.799988</ele>
<time>2017-10-20T06:23:54.000Z</time>
</trkpt>
<trkpt lat="31.7717990" lon="35.0977920">
<ele>623.900024</ele>
<time>2017-10-20T06:23:55.000Z</time>
</trkpt>
<trkpt lat="31.7718200" lon="35.0977630">
<ele>624.099976</ele>
<time>2017-10-20T06:23:56.000Z</time>
</trkpt>
<trkpt lat="31.7718410" lon="35.0977390">
<ele>624.200012</ele>
<time>2017-10-20T06:23:57.000Z</time>
</trkpt>
<trkpt lat="31.7718600" lon="35.0977040">
<ele>624.299988</ele>
<time>2017-10-20T06:23:58.000Z</time>
</trkpt>
<trkpt lat="31.7718820" lon="35.0976690">
<ele>624.500000</ele>
<time>2017-10-20T06:23:59.000Z</time>
</trkpt>
<trkpt lat="31.7719000" lon="35.0976340">
<ele>624.700012</ele>
<time>2017-10-20T06:24:00.000Z</time>
</trkpt>
<trkpt lat="31.7719160" lon="35.0976080">
<ele>624.799988</ele>
<time>2017-10-20T06:24:01.000Z</time>
</trkpt>
<trkpt lat="31.7719370" lon="35.0975740">
<ele>624.899963</ele>
<time>2017-10-20T06:24:02.000Z</time>
</trkpt>
<trkpt lat="31.7719490" lon="35.0975420">
<ele>625.099976</ele>
<time>2017-10-20T06:24:03.000Z</time>
</trkpt>
<trkpt lat="31.7719650" lon="35.0975130">
<ele>625.200012</ele>
<time>2017-10-20T06:24:04.000Z</time>
</trkpt>
<trkpt lat="31.7719910" lon="35.0974810">
<ele>625.399963</ele>
<time>2017-10-20T06:24:05.000Z</time>
</trkpt>
<trkpt lat="31.7720150" lon="35.0974520">
<ele>625.599976</ele>
<time>2017-10-20T06:24:06.000Z</time>
</trkpt>
<trkpt lat="31.7720410" lon="35.0974160">
<ele>625.799988</ele>
<time>2017-10-20T06:24:07.000Z</time>
</trkpt>
<trkpt lat="31.7720670" lon="35.0973850">
<ele>625.999939</ele>
<time>2017-10-20T06:24:08.000Z</time>
</trkpt>
<trkpt lat="31.7720890" lon="35.0973500">
<ele>626.299988</ele>
<time>2017-10-20T06:24:09.000Z</time>
</trkpt>
<trkpt lat="31.7721130" lon="35.0973210">
<ele>626.400024</ele>
<time>2017-10-20T06:24:10.000Z</time>
</trkpt>
<trkpt lat="31.7721320" lon="35.0972870">
<ele>626.599976</ele>
<time>2017-10-20T06:24:11.000Z</time>
</trkpt>
<trkpt lat="31.7721540" lon="35.0972610">
<ele>626.699951</ele>
<time>2017-10-20T06:24:12.000Z</time>
</trkpt>
<trkpt lat="31.7721740" lon="35.0972280">
<ele>626.799988</ele>
<time>2017-10-20T06:24:13.000Z</time>
</trkpt>
<trkpt lat="31.7721980" lon="35.0971960">
<ele>626.900024</ele>
<time>2017-10-20T06:24:14.000Z</time>
</trkpt>
<trkpt lat="31.7722210" lon="35.0971670">
<ele>627.000000</ele>
<time>2017-10-20T06:24:15.000Z</time>
</trkpt>
<trkpt lat="31.7722450" lon="35.0971360">
<ele>627.100037</ele>
<time>2017-10-20T06:24:16.000Z</time>
</trkpt>
<trkpt lat="31.7722660" lon="35.0971040">
<ele>627.199951</ele>
<time>2017-10-20T06:24:17.000Z</time>
</trkpt>
<trkpt lat="31.7722830" lon="35.0970710">
<ele>627.299988</ele>
<time>2017-10-20T06:24:18.000Z</time>
</trkpt>
<trkpt lat="31.7722980" lon="35.0970330">
<ele>627.399963</ele>
<time>2017-10-20T06:24:19.000Z</time>
</trkpt>
<trkpt lat="31.7723140" lon="35.0969890">
<ele>627.600037</ele>
<time>2017-10-20T06:24:20.000Z</time>
</trkpt>
<trkpt lat="31.7723480" lon="35.0969560">
<ele>627.700012</ele>
<time>2017-10-20T06:24:21.000Z</time>
</trkpt>
<trkpt lat="31.7723870" lon="35.0969280">
<ele>627.799988</ele>
<time>2017-10-20T06:24:22.000Z</time>
</trkpt>
<trkpt lat="31.7724360" lon="35.0968770">
<ele>627.899963</ele>
<time>2017-10-20T06:24:23.000Z</time>
</trkpt>
<trkpt lat="31.7724780" lon="35.0968650">
<ele>627.899963</ele>
<time>2017-10-20T06:24:24.000Z</time>
</trkpt>
<trkpt lat="31.7725190" lon="35.0968630">
<ele>627.799988</ele>
<time>2017-10-20T06:24:25.000Z</time>
</trkpt>
<trkpt lat="31.7725520" lon="35.0968830">
<ele>627.700012</ele>
<time>2017-10-20T06:24:26.000Z</time>
</trkpt>
<trkpt lat="31.7725740" lon="35.0969070">
<ele>627.700012</ele>
<time>2017-10-20T06:24:27.000Z</time>
</trkpt>
<trkpt lat="31.7725890" lon="35.0969760">
<ele>627.500000</ele>
<time>2017-10-20T06:24:29.000Z</time>
</trkpt>
<trkpt lat="31.7726050" lon="35.0970310">
<ele>627.500000</ele>
<time>2017-10-20T06:24:30.000Z</time>
</trkpt>
<trkpt lat="31.7726150" lon="35.0970770">
<ele>627.500000</ele>
<time>2017-10-20T06:24:31.000Z</time>
</trkpt>
<trkpt lat="31.7726250" lon="35.0971190">
<ele>627.500000</ele>
<time>2017-10-20T06:24:32.000Z</time>
</trkpt>
<trkpt lat="31.7726320" lon="35.0971550">
<ele>627.399963</ele>
<time>2017-10-20T06:24:33.000Z</time>
</trkpt>
<trkpt lat="31.7726400" lon="35.0972000">
<ele>627.399963</ele>
<time>2017-10-20T06:24:34.000Z</time>
</trkpt>
<trkpt lat="31.7726490" lon="35.0972440">
<ele>627.399963</ele>
<time>2017-10-20T06:24:35.000Z</time>
</trkpt>
<trkpt lat="31.7726560" lon="35.0972820">
<ele>627.299988</ele>
<time>2017-10-20T06:24:36.000Z</time>
</trkpt>
<trkpt lat="31.7726600" lon="35.0973150">
<ele>627.299988</ele>
<time>2017-10-20T06:24:37.000Z</time>
</trkpt>
<trkpt lat="31.7726650" lon="35.0973480">
<ele>627.299988</ele>
<time>2017-10-20T06:24:38.000Z</time>
</trkpt>
<trkpt lat="31.7726700" lon="35.0973830">
<ele>627.299988</ele>
<time>2017-10-20T06:24:39.000Z</time>
</trkpt>
<trkpt lat="31.7726740" lon="35.0974240">
<ele>627.299988</ele>
<time>2017-10-20T06:24:40.000Z</time>
</trkpt>
<trkpt lat="31.7726800" lon="35.0974580">
<ele>627.199951</ele>
<time>2017-10-20T06:24:41.000Z</time>
</trkpt>
<trkpt lat="31.7726850" lon="35.0974930">
<ele>627.199951</ele>
<time>2017-10-20T06:24:42.000Z</time>
</trkpt>
<trkpt lat="31.7726890" lon="35.0975340">
<ele>627.199951</ele>
<time>2017-10-20T06:24:43.000Z</time>
</trkpt>
<trkpt lat="31.7726890" lon="35.0975740">
<ele>627.100037</ele>
<time>2017-10-20T06:24:44.000Z</time>
</trkpt>
<trkpt lat="31.7726860" lon="35.0976120">
<ele>627.100037</ele>
<time>2017-10-20T06:24:45.000Z</time>
</trkpt>
<trkpt lat="31.7726870" lon="35.0976510">
<ele>627.100037</ele>
<time>2017-10-20T06:24:46.000Z</time>
</trkpt>
<trkpt lat="31.7726880" lon="35.0976920">
<ele>627.000000</ele>
<time>2017-10-20T06:24:47.000Z</time>
</trkpt>
<trkpt lat="31.7726880" lon="35.0977320">
<ele>627.000000</ele>
<time>2017-10-20T06:24:48.000Z</time>
</trkpt>
<trkpt lat="31.7726870" lon="35.0977690">
<ele>627.000000</ele>
<time>2017-10-20T06:24:49.000Z</time>
</trkpt>
<trkpt lat="31.7726870" lon="35.0978030">
<ele>627.000000</ele>
<time>2017-10-20T06:24:50.000Z</time>
</trkpt>
<trkpt lat="31.7726870" lon="35.0978390">
<ele>627.000000</ele>
<time>2017-10-20T06:24:51.000Z</time>
</trkpt>
<trkpt lat="31.7726880" lon="35.0978780">
<ele>627.000000</ele>
<time>2017-10-20T06:24:52.000Z</time>
</trkpt>
<trkpt lat="31.7726850" lon="35.0979150">
<ele>627.000000</ele>
<time>2017-10-20T06:24:53.000Z</time>
</trkpt>
<trkpt lat="31.7726850" lon="35.0979530">
<ele>627.000000</ele>
<time>2017-10-20T06:24:54.000Z</time>
</trkpt>
<trkpt lat="31.7726860" lon="35.0979960">
<ele>627.000000</ele>
<time>2017-10-20T06:24:55.000Z</time>
</trkpt>
<trkpt lat="31.7726890" lon="35.0980350">
<ele>627.000000</ele>
<time>2017-10-20T06:24:56.000Z</time>
</trkpt>
<trkpt lat="31.7726850" lon="35.0980730">
<ele>627.100037</ele>
<time>2017-10-20T06:24:57.000Z</time>
</trkpt>
<trkpt lat="31.7726810" lon="35.0981110">
<ele>627.100037</ele>
<time>2017-10-20T06:24:58.000Z</time>
</trkpt>
<trkpt lat="31.7726810" lon="35.0981470">
<ele>627.100037</ele>
<time>2017-10-20T06:24:59.000Z</time>
</trkpt>
<trkpt lat="31.7726820" lon="35.0981810">
<ele>627.100037</ele>
<time>2017-10-20T06:25:00.000Z</time>
</trkpt>
<trkpt lat="31.7726820" lon="35.0982240">
<ele>627.199951</ele>
<time>2017-10-20T06:25:01.000Z</time>
</trkpt>
<trkpt lat="31.7726840" lon="35.0982750">
<ele>627.199951</ele>
<time>2017-10-20T06:25:02.000Z</time>
</trkpt>
<trkpt lat="31.7726870" lon="35.0983260">
<ele>627.299988</ele>
<time>2017-10-20T06:25:03.000Z</time>
</trkpt>
<trkpt lat="31.7726880" lon="35.0983690">
<ele>627.299988</ele>
<time>2017-10-20T06:25:04.000Z</time>
</trkpt>
<trkpt lat="31.7726970" lon="35.0984390">
<ele>627.399963</ele>
<time>2017-10-20T06:25:06.000Z</time>
</trkpt>
<trkpt lat="31.7727020" lon="35.0984710">
<ele>627.399963</ele>
<time>2017-10-20T06:25:07.000Z</time>
</trkpt>
<trkpt lat="31.7727070" lon="35.0985130">
<ele>627.500000</ele>
<time>2017-10-20T06:25:08.000Z</time>
</trkpt>
<trkpt lat="31.7727130" lon="35.0985460">
<ele>627.600037</ele>
<time>2017-10-20T06:25:09.000Z</time>
</trkpt>
<trkpt lat="31.7727230" lon="35.0985970">
<ele>627.799988</ele>
<time>2017-10-20T06:25:10.000Z</time>
</trkpt>
<trkpt lat="31.7727360" lon="35.0986390">
<ele>627.899963</ele>
<time>2017-10-20T06:25:11.000Z</time>
</trkpt>
<trkpt lat="31.7727510" lon="35.0986870">
<ele>628.099976</ele>
<time>2017-10-20T06:25:12.000Z</time>
</trkpt>
<trkpt lat="31.7727770" lon="35.0987540">
<ele>628.399963</ele>
<time>2017-10-20T06:25:14.000Z</time>
</trkpt>
<trkpt lat="31.7727900" lon="35.0987850">
<ele>628.500000</ele>
<time>2017-10-20T06:25:15.000Z</time>
</trkpt>
<trkpt lat="31.7728020" lon="35.0988200">
<ele>628.599976</ele>
<time>2017-10-20T06:25:16.000Z</time>
</trkpt>
<trkpt lat="31.7728290" lon="35.0988790">
<ele>628.900024</ele>
<time>2017-10-20T06:25:18.000Z</time>
</trkpt>
<trkpt lat="31.7728430" lon="35.0989090">
<ele>628.999939</ele>
<time>2017-10-20T06:25:19.000Z</time>
</trkpt>
<trkpt lat="31.7728550" lon="35.0989390">
<ele>629.099976</ele>
<time>2017-10-20T06:25:20.000Z</time>
</trkpt>
<trkpt lat="31.7728680" lon="35.0989730">
<ele>629.200012</ele>
<time>2017-10-20T06:25:21.000Z</time>
</trkpt>
<trkpt lat="31.7728840" lon="35.0990040">
<ele>629.299988</ele>
<time>2017-10-20T06:25:23.000Z</time>
</trkpt>
<trkpt lat="31.7729060" lon="35.0990410">
<ele>629.400024</ele>
<time>2017-10-20T06:25:25.000Z</time>
</trkpt>
<trkpt lat="31.7729240" lon="35.0990820">
<ele>629.500061</ele>
<time>2017-10-20T06:25:27.000Z</time>
</trkpt>
<trkpt lat="31.7729420" lon="35.0991230">
<ele>629.599976</ele>
<time>2017-10-20T06:25:30.000Z</time>
</trkpt>
<trkpt lat="31.7729630" lon="35.0991600">
<ele>629.700012</ele>
<time>2017-10-20T06:25:32.000Z</time>
</trkpt>
<trkpt lat="31.7729910" lon="35.0992060">
<ele>629.700012</ele>
<time>2017-10-20T06:25:34.000Z</time>
</trkpt>
<trkpt lat="31.7730040" lon="35.0992410">
<ele>629.799988</ele>
<time>2017-10-20T06:25:37.000Z</time>
</trkpt>
<trkpt lat="31.7730280" lon="35.0992790">
<ele>629.900024</ele>
<time>2017-10-20T06:25:40.000Z</time>
</trkpt>
<trkpt lat="31.7730430" lon="35.0993060">
<ele>629.900024</ele>
<time>2017-10-20T06:25:43.000Z</time>
</trkpt>
<trkpt lat="31.7730610" lon="35.0993340">
<ele>629.900024</ele>
<time>2017-10-20T06:25:45.000Z</time>
</trkpt>
<trkpt lat="31.7730830" lon="35.0993610">
<ele>629.900024</ele>
<time>2017-10-20T06:25:47.000Z</time>
</trkpt>
<trkpt lat="31.7731200" lon="35.0993950">
<ele>630.000000</ele>
<time>2017-10-20T06:25:50.000Z</time>
</trkpt>
<trkpt lat="31.7731470" lon="35.0994230">
<ele>630.000000</ele>
<time>2017-10-20T06:25:53.000Z</time>
</trkpt>
<trkpt lat="31.7731820" lon="35.0994530">
<ele>630.000000</ele>
<time>2017-10-20T06:25:56.000Z</time>
</trkpt>
<trkpt lat="31.7732050" lon="35.0994700">
<ele>630.000000</ele>
<time>2017-10-20T06:25:58.000Z</time>
</trkpt>
<trkpt lat="31.7732420" lon="35.0994900">
<ele>630.100037</ele>
<time>2017-10-20T06:26:01.000Z</time>
</trkpt>
<trkpt lat="31.7732720" lon="35.0995060">
<ele>630.100037</ele>
<time>2017-10-20T06:26:03.000Z</time>
</trkpt>
<trkpt lat="31.7733120" lon="35.0995360">
<ele>630.100037</ele>
<time>2017-10-20T06:26:05.000Z</time>
</trkpt>
<trkpt lat="31.7733560" lon="35.0995580">
<ele>630.100037</ele>
<time>2017-10-20T06:26:07.000Z</time>
</trkpt>
<trkpt lat="31.7734080" lon="35.0995710">
<ele>630.100037</ele>
<time>2017-10-20T06:26:09.000Z</time>
</trkpt>
<trkpt lat="31.7734350" lon="35.0995690">
<ele>630.100037</ele>
<time>2017-10-20T06:26:10.000Z</time>
</trkpt>
<trkpt lat="31.7734900" lon="35.0995770">
<ele>630.100037</ele>
<time>2017-10-20T06:26:11.000Z</time>
</trkpt>
<trkpt lat="31.7735210" lon="35.0995870">
<ele>630.100037</ele>
<time>2017-10-20T06:26:12.000Z</time>
</trkpt>
<trkpt lat="31.7735500" lon="35.0995960">
<ele>630.100037</ele>
<time>2017-10-20T06:26:13.000Z</time>
</trkpt>
<trkpt lat="31.7735870" lon="35.0996000">
<ele>630.100037</ele>
<time>2017-10-20T06:26:14.000Z</time>
</trkpt>
<trkpt lat="31.7736150" lon="35.0995980">
<ele>630.000000</ele>
<time>2017-10-20T06:26:15.000Z</time>
</trkpt>
<trkpt lat="31.7736430" lon="35.0996150">
<ele>630.000000</ele>
<time>2017-10-20T06:26:16.000Z</time>
</trkpt>
<trkpt lat="31.7736950" lon="35.0996290">
<ele>630.000000</ele>
<time>2017-10-20T06:26:18.000Z</time>
</trkpt>
<trkpt lat="31.7737480" lon="35.0996350">
<ele>629.900024</ele>
<time>2017-10-20T06:26:20.000Z</time>
</trkpt>
<trkpt lat="31.7737750" lon="35.0996370">
<ele>629.900024</ele>
<time>2017-10-20T06:26:21.000Z</time>
</trkpt>
<trkpt lat="31.7738280" lon="35.0996240">
<ele>629.900024</ele>
<time>2017-10-20T06:26:23.000Z</time>
</trkpt>
<trkpt lat="31.7738690" lon="35.0996250">
<ele>629.799988</ele>
<time>2017-10-20T06:26:24.000Z</time>
</trkpt>
<trkpt lat="31.7738970" lon="35.0996270">
<ele>629.799988</ele>
<time>2017-10-20T06:26:25.000Z</time>
</trkpt>
<trkpt lat="31.7739430" lon="35.0996260">
<ele>629.700012</ele>
<time>2017-10-20T06:26:27.000Z</time>
</trkpt>
<trkpt lat="31.7739710" lon="35.0996330">
<ele>629.700012</ele>
<time>2017-10-20T06:26:28.000Z</time>
</trkpt>
<trkpt lat="31.7740220" lon="35.0996450">
<ele>629.599976</ele>
<time>2017-10-20T06:26:30.000Z</time>
</trkpt>
<trkpt lat="31.7740430" lon="35.0996550">
<ele>629.500061</ele>
<time>2017-10-20T06:26:32.000Z</time>
</trkpt>
<trkpt lat="31.7740650" lon="35.0996660">
<ele>629.400024</ele>
<time>2017-10-20T06:26:34.000Z</time>
</trkpt>
<trkpt lat="31.7740860" lon="35.0996770">
<ele>629.400024</ele>
<time>2017-10-20T06:26:37.000Z</time>
</trkpt>
<trkpt lat="31.7741080" lon="35.0996880">
<ele>629.299988</ele>
<time>2017-10-20T06:26:40.000Z</time>
</trkpt>
<trkpt lat="31.7741290" lon="35.0996980">
<ele>629.200012</ele>
<time>2017-10-20T06:26:43.000Z</time>
</trkpt>
<trkpt lat="31.7741510" lon="35.0997090">
<ele>629.200012</ele>
<time>2017-10-20T06:26:44.000Z</time>
</trkpt>
<trkpt lat="31.7741600" lon="35.0997610">
<ele>629.099976</ele>
<time>2017-10-20T06:26:45.000Z</time>
</trkpt>
<trkpt lat="31.7741720" lon="35.0997980">
<ele>628.999939</ele>
<time>2017-10-20T06:26:46.000Z</time>
</trkpt>
<trkpt lat="31.7742060" lon="35.0998560">
<ele>628.999939</ele>
<time>2017-10-20T06:26:48.000Z</time>
</trkpt>
<trkpt lat="31.7742300" lon="35.0999250">
<ele>628.999939</ele>
<time>2017-10-20T06:26:50.000Z</time>
</trkpt>
<trkpt lat="31.7742440" lon="35.0999590">
<ele>628.999939</ele>
<time>2017-10-20T06:26:51.000Z</time>
</trkpt>
<trkpt lat="31.7742580" lon="35.1000050">
<ele>629.099976</ele>
<time>2017-10-20T06:26:52.000Z</time>
</trkpt>
<trkpt lat="31.7742730" lon="35.1000390">
<ele>629.099976</ele>
<time>2017-10-20T06:26:53.000Z</time>
</trkpt>
<trkpt lat="31.7742880" lon="35.1000840">
<ele>629.200012</ele>
<time>2017-10-20T06:26:54.000Z</time>
</trkpt>
<trkpt lat="31.7743030" lon="35.1001180">
<ele>629.200012</ele>
<time>2017-10-20T06:26:55.000Z</time>
</trkpt>
<trkpt lat="31.7743160" lon="35.1001540">
<ele>629.299988</ele>
<time>2017-10-20T06:26:56.000Z</time>
</trkpt>
<trkpt lat="31.7743300" lon="35.1001830">
<ele>629.400024</ele>
<time>2017-10-20T06:26:57.000Z</time>
</trkpt>
<trkpt lat="31.7743480" lon="35.1002190">
<ele>629.500061</ele>
<time>2017-10-20T06:26:58.000Z</time>
</trkpt>
<trkpt lat="31.7743870" lon="35.1002740">
<ele>629.599976</ele>
<time>2017-10-20T06:27:00.000Z</time>
</trkpt>
<trkpt lat="31.7744080" lon="35.1003060">
<ele>629.700012</ele>
<time>2017-10-20T06:27:01.000Z</time>
</trkpt>
<trkpt lat="31.7744260" lon="35.1003310">
<ele>629.700012</ele>
<time>2017-10-20T06:27:02.000Z</time>
</trkpt>
<trkpt lat="31.7744620" lon="35.1003670">
<ele>629.799988</ele>
<time>2017-10-20T06:27:04.000Z</time>
</trkpt>
<trkpt lat="31.7744980" lon="35.1003950">
<ele>629.900024</ele>
<time>2017-10-20T06:27:06.000Z</time>
</trkpt>
<trkpt lat="31.7745370" lon="35.1004230">
<ele>630.000000</ele>
<time>2017-10-20T06:27:08.000Z</time>
</trkpt>
<trkpt lat="31.7745760" lon="35.1004540">
<ele>630.000000</ele>
<time>2017-10-20T06:27:10.000Z</time>
</trkpt>
<trkpt lat="31.7746140" lon="35.1004790">
<ele>630.100037</ele>
<time>2017-10-20T06:27:12.000Z</time>
</trkpt>
<trkpt lat="31.7746490" lon="35.1005010">
<ele>630.100037</ele>
<time>2017-10-20T06:27:14.000Z</time>
</trkpt>
<trkpt lat="31.7746750" lon="35.1005230">
<ele>630.100037</ele>
<time>2017-10-20T06:27:16.000Z</time>
</trkpt>
<trkpt lat="31.7747030" lon="35.1005560">
<ele>630.199951</ele>
<time>2017-10-20T06:27:18.000Z</time>
</trkpt>
<trkpt lat="31.7747310" lon="35.1005820">
<ele>630.299988</ele>
<time>2017-10-20T06:27:20.000Z</time>
</trkpt>
<trkpt lat="31.7747600" lon="35.1006100">
<ele>630.299988</ele>
<time>2017-10-20T06:27:22.000Z</time>
</trkpt>
<trkpt lat="31.7747810" lon="35.1006310">
<ele>630.400024</ele>
<time>2017-10-20T06:27:24.000Z</time>
</trkpt>
<trkpt lat="31.7748130" lon="35.1006540">
<ele>630.500000</ele>
<time>2017-10-20T06:27:27.000Z</time>
</trkpt>
<trkpt lat="31.7748400" lon="35.1006750">
<ele>630.600037</ele>
<time>2017-10-20T06:27:29.000Z</time>
</trkpt>
<trkpt lat="31.7748720" lon="35.1007030">
<ele>630.700012</ele>
<time>2017-10-20T06:27:31.000Z</time>
</trkpt>
<trkpt lat="31.7748980" lon="35.1007230">
<ele>630.799988</ele>
<time>2017-10-20T06:27:32.000Z</time>
</trkpt>
<trkpt lat="31.7749330" lon="35.1007510">
<ele>630.899963</ele>
<time>2017-10-20T06:27:34.000Z</time>
</trkpt>
<trkpt lat="31.7749660" lon="35.1007770">
<ele>631.100037</ele>
<time>2017-10-20T06:27:36.000Z</time>
</trkpt>
<trkpt lat="31.7750010" lon="35.1008090">
<ele>631.200012</ele>
<time>2017-10-20T06:27:38.000Z</time>
</trkpt>
<trkpt lat="31.7750390" lon="35.1008370">
<ele>631.399963</ele>
<time>2017-10-20T06:27:40.000Z</time>
</trkpt>
<trkpt lat="31.7750820" lon="35.1008650">
<ele>631.599976</ele>
<time>2017-10-20T06:27:42.000Z</time>
</trkpt>
<trkpt lat="31.7751240" lon="35.1008950">
<ele>631.700012</ele>
<time>2017-10-20T06:27:44.000Z</time>
</trkpt>
<trkpt lat="31.7751680" lon="35.1009230">
<ele>631.900024</ele>
<time>2017-10-20T06:27:46.000Z</time>
</trkpt>
<trkpt lat="31.7752100" lon="35.1009430">
<ele>632.099976</ele>
<time>2017-10-20T06:27:48.000Z</time>
</trkpt>
<trkpt lat="31.7752400" lon="35.1009610">
<ele>632.200012</ele>
<time>2017-10-20T06:27:50.000Z</time>
</trkpt>
<trkpt lat="31.7752850" lon="35.1009880">
<ele>632.400024</ele>
<time>2017-10-20T06:27:52.000Z</time>
</trkpt>
<trkpt lat="31.7753170" lon="35.1010070">
<ele>632.599976</ele>
<time>2017-10-20T06:27:54.000Z</time>
</trkpt>
<trkpt lat="31.7753540" lon="35.1010280">
<ele>632.700012</ele>
<time>2017-10-20T06:27:56.000Z</time>
</trkpt>
<trkpt lat="31.7753970" lon="35.1010520">
<ele>632.900024</ele>
<time>2017-10-20T06:27:58.000Z</time>
</trkpt>
<trkpt lat="31.7754400" lon="35.1010760">
<ele>633.100037</ele>
<time>2017-10-20T06:28:00.000Z</time>
</trkpt>
<trkpt lat="31.7754720" lon="35.1010970">
<ele>633.299988</ele>
<time>2017-10-20T06:28:02.000Z</time>
</trkpt>
<trkpt lat="31.7755030" lon="35.1011230">
<ele>633.400024</ele>
<time>2017-10-20T06:28:04.000Z</time>
</trkpt>
<trkpt lat="31.7755410" lon="35.1011470">
<ele>633.500000</ele>
<time>2017-10-20T06:28:07.000Z</time>
</trkpt>
<trkpt lat="31.7755750" lon="35.1011680">
<ele>633.600037</ele>
<time>2017-10-20T06:28:10.000Z</time>
</trkpt>
<trkpt lat="31.7756010" lon="35.1011850">
<ele>633.700012</ele>
<time>2017-10-20T06:28:12.000Z</time>
</trkpt>
<trkpt lat="31.7756290" lon="35.1012000">
<ele>633.799988</ele>
<time>2017-10-20T06:28:15.000Z</time>
</trkpt>
<trkpt lat="31.7756620" lon="35.1012200">
<ele>633.899963</ele>
<time>2017-10-20T06:28:17.000Z</time>
</trkpt>
<trkpt lat="31.7757050" lon="35.1012460">
<ele>634.000000</ele>
<time>2017-10-20T06:28:21.000Z</time>
</trkpt>
<trkpt lat="31.7757390" lon="35.1012530">
<ele>634.100037</ele>
<time>2017-10-20T06:28:23.000Z</time>
</trkpt>
<trkpt lat="31.7757650" lon="35.1012650">
<ele>634.100037</ele>
<time>2017-10-20T06:28:26.000Z</time>
</trkpt>
<trkpt lat="31.7758050" lon="35.1012850">
<ele>634.100037</ele>
<time>2017-10-20T06:28:29.000Z</time>
</trkpt>
<trkpt lat="31.7758330" lon="35.1012960">
<ele>634.100037</ele>
<time>2017-10-20T06:28:32.000Z</time>
</trkpt>
<trkpt lat="31.7758620" lon="35.1013080">
<ele>634.100037</ele>
<time>2017-10-20T06:28:33.000Z</time>
</trkpt>
<trkpt lat="31.7758950" lon="35.1013220">
<ele>634.100037</ele>
<time>2017-10-20T06:28:35.000Z</time>
</trkpt>
<trkpt lat="31.7759420" lon="35.1013400">
<ele>634.100037</ele>
<time>2017-10-20T06:28:37.000Z</time>
</trkpt>
<trkpt lat="31.7759700" lon="35.1013510">
<ele>634.100037</ele>
<time>2017-10-20T06:28:39.000Z</time>
</trkpt>
<trkpt lat="31.7760090" lon="35.1013690">
<ele>634.100037</ele>
<time>2017-10-20T06:28:41.000Z</time>
</trkpt>
<trkpt lat="31.7760450" lon="35.1013850">
<ele>634.100037</ele>
<time>2017-10-20T06:28:43.000Z</time>
</trkpt>
<trkpt lat="31.7760770" lon="35.1014000">
<ele>634.100037</ele>
<time>2017-10-20T06:28:45.000Z</time>
</trkpt>
<trkpt lat="31.7761140" lon="35.1014160">
<ele>634.100037</ele>
<time>2017-10-20T06:28:47.000Z</time>
</trkpt>
<trkpt lat="31.7761500" lon="35.1014290">
<ele>634.100037</ele>
<time>2017-10-20T06:28:50.000Z</time>
</trkpt>
<trkpt lat="31.7761810" lon="35.1014410">
<ele>634.100037</ele>
<time>2017-10-20T06:28:53.000Z</time>
</trkpt>
<trkpt lat="31.7762140" lon="35.1014540">
<ele>634.100037</ele>
<time>2017-10-20T06:28:55.000Z</time>
</trkpt>
<trkpt lat="31.7762540" lon="35.1014530">
<ele>634.000000</ele>
<time>2017-10-20T06:28:57.000Z</time>
</trkpt>
<trkpt lat="31.7762820" lon="35.1014620">
<ele>634.000000</ele>
<time>2017-10-20T06:28:58.000Z</time>
</trkpt>
<trkpt lat="31.7763190" lon="35.1014740">
<ele>634.000000</ele>
<time>2017-10-20T06:29:00.000Z</time>
</trkpt>
<trkpt lat="31.7763680" lon="35.1014850">
<ele>634.000000</ele>
<time>2017-10-20T06:29:02.000Z</time>
</trkpt>
<trkpt lat="31.7764050" lon="35.1014840">
<ele>634.000000</ele>
<time>2017-10-20T06:29:03.000Z</time>
</trkpt>
<trkpt lat="31.7764440" lon="35.1014830">
<ele>634.000000</ele>
<time>2017-10-20T06:29:05.000Z</time>
</trkpt>
<trkpt lat="31.7764750" lon="35.1014820">
<ele>634.000000</ele>
<time>2017-10-20T06:29:06.000Z</time>
</trkpt>
<trkpt lat="31.7765100" lon="35.1014830">
<ele>634.000000</ele>
<time>2017-10-20T06:29:08.000Z</time>
</trkpt>
<trkpt lat="31.7765750" lon="35.1014790">
<ele>634.000000</ele>
<time>2017-10-20T06:29:10.000Z</time>
</trkpt>
<trkpt lat="31.7766200" lon="35.1014750">
<ele>634.000000</ele>
<time>2017-10-20T06:29:12.000Z</time>
</trkpt>
<trkpt lat="31.7766540" lon="35.1014680">
<ele>634.000000</ele>
<time>2017-10-20T06:29:14.000Z</time>
</trkpt>
<trkpt lat="31.7767010" lon="35.1014660">
<ele>634.000000</ele>
<time>2017-10-20T06:29:16.000Z</time>
</trkpt>
<trkpt lat="31.7767440" lon="35.1014370">
<ele>633.899963</ele>
<time>2017-10-20T06:29:18.000Z</time>
</trkpt>
<trkpt lat="31.7767730" lon="35.1014200">
<ele>633.899963</ele>
<time>2017-10-20T06:29:19.000Z</time>
</trkpt>
<trkpt lat="31.7768180" lon="35.1014110">
<ele>633.899963</ele>
<time>2017-10-20T06:29:21.000Z</time>
</trkpt>
<trkpt lat="31.7768680" lon="35.1013850">
<ele>633.899963</ele>
<time>2017-10-20T06:29:23.000Z</time>
</trkpt>
<trkpt lat="31.7769220" lon="35.1013590">
<ele>633.899963</ele>
<time>2017-10-20T06:29:25.000Z</time>
</trkpt>
<trkpt lat="31.7769680" lon="35.1013400">
<ele>633.799988</ele>
<time>2017-10-20T06:29:27.000Z</time>
</trkpt>
<trkpt lat="31.7770290" lon="35.1013170">
<ele>633.799988</ele>
<time>2017-10-20T06:29:29.000Z</time>
</trkpt>
<trkpt lat="31.7770640" lon="35.1013100">
<ele>633.799988</ele>
<time>2017-10-20T06:29:30.000Z</time>
</trkpt>
<trkpt lat="31.7770970" lon="35.1013060">
<ele>633.700012</ele>
<time>2017-10-20T06:29:31.000Z</time>
</trkpt>
<trkpt lat="31.7771290" lon="35.1013000">
<ele>633.700012</ele>
<time>2017-10-20T06:29:32.000Z</time>
</trkpt>
<trkpt lat="31.7771600" lon="35.1012810">
<ele>633.700012</ele>
<time>2017-10-20T06:29:33.000Z</time>
</trkpt>
<trkpt lat="31.7771870" lon="35.1012720">
<ele>633.700012</ele>
<time>2017-10-20T06:29:34.000Z</time>
</trkpt>
<trkpt lat="31.7772140" lon="35.1012620">
<ele>633.700012</ele>
<time>2017-10-20T06:29:35.000Z</time>
</trkpt>
<trkpt lat="31.7772420" lon="35.1012550">
<ele>633.600037</ele>
<time>2017-10-20T06:29:36.000Z</time>
</trkpt>
<trkpt lat="31.7773000" lon="35.1012420">
<ele>633.600037</ele>
<time>2017-10-20T06:29:38.000Z</time>
</trkpt>
<trkpt lat="31.7773510" lon="35.1012300">
<ele>633.500000</ele>
<time>2017-10-20T06:29:40.000Z</time>
</trkpt>
<trkpt lat="31.7773780" lon="35.1012240">
<ele>633.500000</ele>
<time>2017-10-20T06:29:41.000Z</time>
</trkpt>
<trkpt lat="31.7774310" lon="35.1012080">
<ele>633.400024</ele>
<time>2017-10-20T06:29:43.000Z</time>
</trkpt>
<trkpt lat="31.7774650" lon="35.1012080">
<ele>633.299988</ele>
<time>2017-10-20T06:29:44.000Z</time>
</trkpt>
<trkpt lat="31.7774990" lon="35.1012030">
<ele>633.299988</ele>
<time>2017-10-20T06:29:45.000Z</time>
</trkpt>
<trkpt lat="31.7775280" lon="35.1011990">
<ele>633.299988</ele>
<time>2017-10-20T06:29:46.000Z</time>
</trkpt>
<trkpt lat="31.7775810" lon="35.1011920">
<ele>633.199951</ele>
<time>2017-10-20T06:29:48.000Z</time>
</trkpt>
<trkpt lat="31.7776110" lon="35.1011890">
<ele>633.199951</ele>
<time>2017-10-20T06:29:49.000Z</time>
</trkpt>
<trkpt lat="31.7776390" lon="35.1011860">
<ele>633.199951</ele>
<time>2017-10-20T06:29:50.000Z</time>
</trkpt>
<trkpt lat="31.7776670" lon="35.1011830">
<ele>633.199951</ele>
<time>2017-10-20T06:29:51.000Z</time>
</trkpt>
<trkpt lat="31.7776990" lon="35.1011830">
<ele>633.100037</ele>
<time>2017-10-20T06:29:52.000Z</time>
</trkpt>
<trkpt lat="31.7777320" lon="35.1011810">
<ele>633.100037</ele>
<time>2017-10-20T06:29:53.000Z</time>
</trkpt>
<trkpt lat="31.7777610" lon="35.1011810">
<ele>633.100037</ele>
<time>2017-10-20T06:29:54.000Z</time>
</trkpt>
<trkpt lat="31.7777940" lon="35.1011790">
<ele>633.100037</ele>
<time>2017-10-20T06:29:55.000Z</time>
</trkpt>
<trkpt lat="31.7778460" lon="35.1011770">
<ele>633.000000</ele>
<time>2017-10-20T06:29:57.000Z</time>
</trkpt>
<trkpt lat="31.7779000" lon="35.1011760">
<ele>633.000000</ele>
<time>2017-10-20T06:29:59.000Z</time>
</trkpt>
<trkpt lat="31.7779460" lon="35.1011830">
<ele>633.000000</ele>
<time>2017-10-20T06:30:01.000Z</time>
</trkpt>
<trkpt lat="31.7779750" lon="35.1011910">
<ele>632.900024</ele>
<time>2017-10-20T06:30:02.000Z</time>
</trkpt>
<trkpt lat="31.7780060" lon="35.1012020">
<ele>632.799988</ele>
<time>2017-10-20T06:30:03.000Z</time>
</trkpt>
<trkpt lat="31.7780550" lon="35.1012310">
<ele>632.700012</ele>
<time>2017-10-20T06:30:05.000Z</time>
</trkpt>
<trkpt lat="31.7780800" lon="35.1012640">
<ele>632.700012</ele>
<time>2017-10-20T06:30:06.000Z</time>
</trkpt>
<trkpt lat="31.7780970" lon="35.1013060">
<ele>632.599976</ele>
<time>2017-10-20T06:30:07.000Z</time>
</trkpt>
<trkpt lat="31.7781150" lon="35.1013540">
<ele>632.500061</ele>
<time>2017-10-20T06:30:08.000Z</time>
</trkpt>
<trkpt lat="31.7781300" lon="35.1014010">
<ele>632.400024</ele>
<time>2017-10-20T06:30:09.000Z</time>
</trkpt>
<trkpt lat="31.7781390" lon="35.1014390">
<ele>632.299988</ele>
<time>2017-10-20T06:30:10.000Z</time>
</trkpt>
<trkpt lat="31.7781440" lon="35.1014730">
<ele>632.299988</ele>
<time>2017-10-20T06:30:11.000Z</time>
</trkpt>
<trkpt lat="31.7781460" lon="35.1015170">
<ele>632.200012</ele>
<time>2017-10-20T06:30:13.000Z</time>
</trkpt>
<trkpt lat="31.7781430" lon="35.1015790">
<ele>632.099976</ele>
<time>2017-10-20T06:30:15.000Z</time>
</trkpt>
<trkpt lat="31.7781440" lon="35.1016220">
<ele>632.000000</ele>
<time>2017-10-20T06:30:17.000Z</time>
</trkpt>
<trkpt lat="31.7781500" lon="35.1016760">
<ele>631.900024</ele>
<time>2017-10-20T06:30:19.000Z</time>
</trkpt>
<trkpt lat="31.7781500" lon="35.1017100">
<ele>631.900024</ele>
<time>2017-10-20T06:30:20.000Z</time>
</trkpt>
<trkpt lat="31.7781500" lon="35.1017590">
<ele>631.800049</ele>
<time>2017-10-20T06:30:22.000Z</time>
</trkpt>
<trkpt lat="31.7781560" lon="35.1018260">
<ele>631.700012</ele>
<time>2017-10-20T06:30:24.000Z</time>
</trkpt>
<trkpt lat="31.7781520" lon="35.1018670">
<ele>631.700012</ele>
<time>2017-10-20T06:30:25.000Z</time>
</trkpt>
<trkpt lat="31.7781460" lon="35.1019110">
<ele>631.599976</ele>
<time>2017-10-20T06:30:26.000Z</time>
</trkpt>
<trkpt lat="31.7781420" lon="35.1019670">
<ele>631.599976</ele>
<time>2017-10-20T06:30:28.000Z</time>
</trkpt>
<trkpt lat="31.7781420" lon="35.1020220">
<ele>631.500000</ele>
<time>2017-10-20T06:30:30.000Z</time>
</trkpt>
<trkpt lat="31.7781420" lon="35.1020740">
<ele>631.500000</ele>
<time>2017-10-20T06:30:32.000Z</time>
</trkpt>
<trkpt lat="31.7781450" lon="35.1021370">
<ele>631.399963</ele>
<time>2017-10-20T06:30:34.000Z</time>
</trkpt>
<trkpt lat="31.7781450" lon="35.1021700">
<ele>631.399963</ele>
<time>2017-10-20T06:30:35.000Z</time>
</trkpt>
<trkpt lat="31.7781460" lon="35.1022030">
<ele>631.300049</ele>
<time>2017-10-20T06:30:36.000Z</time>
</trkpt>
<trkpt lat="31.7781440" lon="35.1022650">
<ele>631.300049</ele>
<time>2017-10-20T06:30:38.000Z</time>
</trkpt>
<trkpt lat="31.7781440" lon="35.1023270">
<ele>631.300049</ele>
<time>2017-10-20T06:30:40.000Z</time>
</trkpt>
<trkpt lat="31.7781430" lon="35.1023930">
<ele>631.300049</ele>
<time>2017-10-20T06:30:42.000Z</time>
</trkpt>
<trkpt lat="31.7781420" lon="35.1024530">
<ele>631.300049</ele>
<time>2017-10-20T06:30:44.000Z</time>
</trkpt>
<trkpt lat="31.7781410" lon="35.1025140">
<ele>631.300049</ele>
<time>2017-10-20T06:30:46.000Z</time>
</trkpt>
<trkpt lat="31.7781450" lon="35.1025710">
<ele>631.300049</ele>
<time>2017-10-20T06:30:48.000Z</time>
</trkpt>
<trkpt lat="31.7781510" lon="35.1026290">
<ele>631.399963</ele>
<time>2017-10-20T06:30:50.000Z</time>
</trkpt>
<trkpt lat="31.7781670" lon="35.1026870">
<ele>631.399963</ele>
<time>2017-10-20T06:30:52.000Z</time>
</trkpt>
<trkpt lat="31.7781760" lon="35.1027170">
<ele>631.399963</ele>
<time>2017-10-20T06:30:53.000Z</time>
</trkpt>
<trkpt lat="31.7781900" lon="35.1027470">
<ele>631.399963</ele>
<time>2017-10-20T06:30:54.000Z</time>
</trkpt>
<trkpt lat="31.7782050" lon="35.1027750">
<ele>631.399963</ele>
<time>2017-10-20T06:30:55.000Z</time>
</trkpt>
<trkpt lat="31.7782170" lon="35.1028060">
<ele>631.399963</ele>
<time>2017-10-20T06:30:56.000Z</time>
</trkpt>
<trkpt lat="31.7782440" lon="35.1028580">
<ele>631.399963</ele>
<time>2017-10-20T06:30:58.000Z</time>
</trkpt>
<trkpt lat="31.7782590" lon="35.1028860">
<ele>631.399963</ele>
<time>2017-10-20T06:30:59.000Z</time>
</trkpt>
<trkpt lat="31.7782750" lon="35.1029170">
<ele>631.399963</ele>
<time>2017-10-20T06:31:00.000Z</time>
</trkpt>
<trkpt lat="31.7782920" lon="35.1029470">
<ele>631.399963</ele>
<time>2017-10-20T06:31:01.000Z</time>
</trkpt>
<trkpt lat="31.7783040" lon="35.1029780">
<ele>631.399963</ele>
<time>2017-10-20T06:31:02.000Z</time>
</trkpt>
<trkpt lat="31.7783250" lon="35.1030380">
<ele>631.500000</ele>
<time>2017-10-20T06:31:04.000Z</time>
</trkpt>
<trkpt lat="31.7783390" lon="35.1030920">
<ele>631.500000</ele>
<time>2017-10-20T06:31:06.000Z</time>
</trkpt>
<trkpt lat="31.7783570" lon="35.1031360">
<ele>631.500000</ele>
<time>2017-10-20T06:31:08.000Z</time>
</trkpt>
<trkpt lat="31.7783700" lon="35.1031970">
<ele>631.500000</ele>
<time>2017-10-20T06:31:10.000Z</time>
</trkpt>
<trkpt lat="31.7783870" lon="35.1032450">
<ele>631.500000</ele>
<time>2017-10-20T06:31:12.000Z</time>
</trkpt>
<trkpt lat="31.7784080" lon="35.1033070">
<ele>631.500000</ele>
<time>2017-10-20T06:31:14.000Z</time>
</trkpt>
<trkpt lat="31.7784260" lon="35.1033630">
<ele>631.500000</ele>
<time>2017-10-20T06:31:16.000Z</time>
</trkpt>
<trkpt lat="31.7784540" lon="35.1034160">
<ele>631.500000</ele>
<time>2017-10-20T06:31:18.000Z</time>
</trkpt>
<trkpt lat="31.7784730" lon="35.1034470">
<ele>631.500000</ele>
<time>2017-10-20T06:31:19.000Z</time>
</trkpt>
<trkpt lat="31.7784900" lon="35.1034760">
<ele>631.500000</ele>
<time>2017-10-20T06:31:20.000Z</time>
</trkpt>
<trkpt lat="31.7785220" lon="35.1035320">
<ele>631.500000</ele>
<time>2017-10-20T06:31:22.000Z</time>
</trkpt>
<trkpt lat="31.7785450" lon="35.1035800">
<ele>631.599976</ele>
<time>2017-10-20T06:31:24.000Z</time>
</trkpt>
<trkpt lat="31.7785630" lon="35.1036210">
<ele>631.700012</ele>
<time>2017-10-20T06:31:26.000Z</time>
</trkpt>
<trkpt lat="31.7785780" lon="35.1036580">
<ele>631.700012</ele>
<time>2017-10-20T06:31:28.000Z</time>
</trkpt>
<trkpt lat="31.7785970" lon="35.1037050">
<ele>631.800049</ele>
<time>2017-10-20T06:31:30.000Z</time>
</trkpt>
<trkpt lat="31.7786160" lon="35.1037600">
<ele>632.000000</ele>
<time>2017-10-20T06:31:32.000Z</time>
</trkpt>
<trkpt lat="31.7786290" lon="35.1038170">
<ele>632.099976</ele>
<time>2017-10-20T06:31:34.000Z</time>
</trkpt>
<trkpt lat="31.7786300" lon="35.1038510">
<ele>632.299988</ele>
<time>2017-10-20T06:31:35.000Z</time>
</trkpt>
<trkpt lat="31.7786320" lon="35.1038840">
<ele>632.400024</ele>
<time>2017-10-20T06:31:36.000Z</time>
</trkpt>
<trkpt lat="31.7786370" lon="35.1039320">
<ele>632.500061</ele>
<time>2017-10-20T06:31:38.000Z</time>
</trkpt>
<trkpt lat="31.7786320" lon="35.1039730">
<ele>632.700012</ele>
<time>2017-10-20T06:31:40.000Z</time>
</trkpt>
<trkpt lat="31.7786220" lon="35.1040090">
<ele>632.799988</ele>
<time>2017-10-20T06:31:42.000Z</time>
</trkpt>
<trkpt lat="31.7786150" lon="35.1040400">
<ele>632.900024</ele>
<time>2017-10-20T06:31:44.000Z</time>
</trkpt>
<trkpt lat="31.7786030" lon="35.1040730">
<ele>633.100037</ele>
<time>2017-10-20T06:31:46.000Z</time>
</trkpt>
<trkpt lat="31.7785890" lon="35.1041110">
<ele>633.199951</ele>
<time>2017-10-20T06:31:48.000Z</time>
</trkpt>
<trkpt lat="31.7785720" lon="35.1041580">
<ele>633.400024</ele>
<time>2017-10-20T06:31:50.000Z</time>
</trkpt>
<trkpt lat="31.7785570" lon="35.1041980">
<ele>633.600037</ele>
<time>2017-10-20T06:31:52.000Z</time>
</trkpt>
<trkpt lat="31.7785440" lon="35.1042280">
<ele>633.799988</ele>
<time>2017-10-20T06:31:54.000Z</time>
</trkpt>
<trkpt lat="31.7785300" lon="35.1042580">
<ele>633.899963</ele>
<time>2017-10-20T06:31:56.000Z</time>
</trkpt>
<trkpt lat="31.7785150" lon="35.1042880">
<ele>634.100037</ele>
<time>2017-10-20T06:31:58.000Z</time>
</trkpt>
<trkpt lat="31.7784990" lon="35.1043200">
<ele>634.200012</ele>
<time>2017-10-20T06:31:59.000Z</time>
</trkpt>
<trkpt lat="31.7784880" lon="35.1043550">
<ele>634.399963</ele>
<time>2017-10-20T06:32:01.000Z</time>
</trkpt>
<trkpt lat="31.7784700" lon="35.1043880">
<ele>634.500000</ele>
<time>2017-10-20T06:32:03.000Z</time>
</trkpt>
<trkpt lat="31.7784540" lon="35.1044180">
<ele>634.700012</ele>
<time>2017-10-20T06:32:05.000Z</time>
</trkpt>
<trkpt lat="31.7784380" lon="35.1044510">
<ele>634.800049</ele>
<time>2017-10-20T06:32:08.000Z</time>
</trkpt>
<trkpt lat="31.7784220" lon="35.1044780">
<ele>634.900024</ele>
<time>2017-10-20T06:32:10.000Z</time>
</trkpt>
<trkpt lat="31.7784040" lon="35.1045140">
<ele>635.000000</ele>
<time>2017-10-20T06:32:12.000Z</time>
</trkpt>
<trkpt lat="31.7783920" lon="35.1045450">
<ele>635.099976</ele>
<time>2017-10-20T06:32:14.000Z</time>
</trkpt>
<trkpt lat="31.7783720" lon="35.1045840">
<ele>635.200012</ele>
<time>2017-10-20T06:32:17.000Z</time>
</trkpt>
<trkpt lat="31.7783540" lon="35.1046220">
<ele>635.299988</ele>
<time>2017-10-20T06:32:19.000Z</time>
</trkpt>
<trkpt lat="31.7783400" lon="35.1046520">
<ele>635.400024</ele>
<time>2017-10-20T06:32:21.000Z</time>
</trkpt>
<trkpt lat="31.7783290" lon="35.1046860">
<ele>635.499939</ele>
<time>2017-10-20T06:32:23.000Z</time>
</trkpt>
<trkpt lat="31.7783140" lon="35.1047320">
<ele>635.499939</ele>
<time>2017-10-20T06:32:25.000Z</time>
</trkpt>
<trkpt lat="31.7783070" lon="35.1047780">
<ele>635.599976</ele>
<time>2017-10-20T06:32:27.000Z</time>
</trkpt>
<trkpt lat="31.7783040" lon="35.1048170">
<ele>635.700012</ele>
<time>2017-10-20T06:32:29.000Z</time>
</trkpt>
<trkpt lat="31.7783000" lon="35.1048620">
<ele>635.700012</ele>
<time>2017-10-20T06:32:32.000Z</time>
</trkpt>
<trkpt lat="31.7783000" lon="35.1048950">
<ele>635.799988</ele>
<time>2017-10-20T06:32:34.000Z</time>
</trkpt>
<trkpt lat="31.7782980" lon="35.1049350">
<ele>635.799988</ele>
<time>2017-10-20T06:32:36.000Z</time>
</trkpt>
<trkpt lat="31.7782980" lon="35.1049920">
<ele>635.900024</ele>
<time>2017-10-20T06:32:38.000Z</time>
</trkpt>
<trkpt lat="31.7782990" lon="35.1050340">
<ele>635.900024</ele>
<time>2017-10-20T06:32:40.000Z</time>
</trkpt>
<trkpt lat="31.7783050" lon="35.1050980">
<ele>636.000000</ele>
<time>2017-10-20T06:32:42.000Z</time>
</trkpt>
<trkpt lat="31.7783070" lon="35.1051350">
<ele>636.000000</ele>
<time>2017-10-20T06:32:43.000Z</time>
</trkpt>
<trkpt lat="31.7783060" lon="35.1051680">
<ele>636.099976</ele>
<time>2017-10-20T06:32:44.000Z</time>
</trkpt>
<trkpt lat="31.7783060" lon="35.1052100">
<ele>636.099976</ele>
<time>2017-10-20T06:32:46.000Z</time>
</trkpt>
<trkpt lat="31.7783080" lon="35.1052600">
<ele>636.199951</ele>
<time>2017-10-20T06:32:48.000Z</time>
</trkpt>
<trkpt lat="31.7783120" lon="35.1053190">
<ele>636.199951</ele>
<time>2017-10-20T06:32:50.000Z</time>
</trkpt>
<trkpt lat="31.7783340" lon="35.1053610">
<ele>636.299988</ele>
<time>2017-10-20T06:32:52.000Z</time>
</trkpt>
<trkpt lat="31.7783560" lon="35.1054090">
<ele>636.400024</ele>
<time>2017-10-20T06:32:54.000Z</time>
</trkpt>
<trkpt lat="31.7783590" lon="35.1054520">
<ele>636.400024</ele>
<time>2017-10-20T06:32:56.000Z</time>
</trkpt>
<trkpt lat="31.7783620" lon="35.1054930">
<ele>636.500000</ele>
<time>2017-10-20T06:32:58.000Z</time>
</trkpt>
<trkpt lat="31.7783650" lon="35.1055290">
<ele>636.500000</ele>
<time>2017-10-20T06:33:00.000Z</time>
</trkpt>
<trkpt lat="31.7783660" lon="35.1055690">
<ele>636.600037</ele>
<time>2017-10-20T06:33:02.000Z</time>
</trkpt>
<trkpt lat="31.7783690" lon="35.1056080">
<ele>636.699951</ele>
<time>2017-10-20T06:33:04.000Z</time>
</trkpt>
<trkpt lat="31.7783750" lon="35.1056500">
<ele>636.699951</ele>
<time>2017-10-20T06:33:06.000Z</time>
</trkpt>
<trkpt lat="31.7783830" lon="35.1056830">
<ele>636.799988</ele>
<time>2017-10-20T06:33:08.000Z</time>
</trkpt>
<trkpt lat="31.7783970" lon="35.1057200">
<ele>636.899963</ele>
<time>2017-10-20T06:33:10.000Z</time>
</trkpt>
<trkpt lat="31.7784150" lon="35.1057690">
<ele>637.000000</ele>
<time>2017-10-20T06:33:12.000Z</time>
</trkpt>
<trkpt lat="31.7784300" lon="35.1058020">
<ele>637.100037</ele>
<time>2017-10-20T06:33:13.000Z</time>
</trkpt>
<trkpt lat="31.7784470" lon="35.1058380">
<ele>637.200012</ele>
<time>2017-10-20T06:33:14.000Z</time>
</trkpt>
<trkpt lat="31.7784640" lon="35.1058660">
<ele>637.299988</ele>
<time>2017-10-20T06:33:15.000Z</time>
</trkpt>
<trkpt lat="31.7784870" lon="35.1058940">
<ele>637.399963</ele>
<time>2017-10-20T06:33:17.000Z</time>
</trkpt>
<trkpt lat="31.7785140" lon="35.1059310">
<ele>637.500000</ele>
<time>2017-10-20T06:33:19.000Z</time>
</trkpt>
<trkpt lat="31.7785390" lon="35.1059580">
<ele>637.700012</ele>
<time>2017-10-20T06:33:21.000Z</time>
</trkpt>
<trkpt lat="31.7785630" lon="35.1059890">
<ele>637.800049</ele>
<time>2017-10-20T06:33:24.000Z</time>
</trkpt>
<trkpt lat="31.7785920" lon="35.1059820">
<ele>637.899963</ele>
<time>2017-10-20T06:33:27.000Z</time>
</trkpt>
<trkpt lat="31.7786180" lon="35.1060100">
<ele>638.099976</ele>
<time>2017-10-20T06:33:29.000Z</time>
</trkpt>
<trkpt lat="31.7786530" lon="35.1060280">
<ele>638.200012</ele>
<time>2017-10-20T06:33:30.000Z</time>
</trkpt>
<trkpt lat="31.7786910" lon="35.1060420">
<ele>638.400024</ele>
<time>2017-10-20T06:33:32.000Z</time>
</trkpt>
<trkpt lat="31.7787180" lon="35.1060520">
<ele>638.499939</ele>
<time>2017-10-20T06:33:34.000Z</time>
</trkpt>
<trkpt lat="31.7787470" lon="35.1060830">
<ele>638.700012</ele>
<time>2017-10-20T06:33:37.000Z</time>
</trkpt>
<trkpt lat="31.7787760" lon="35.1061180">
<ele>638.900024</ele>
<time>2017-10-20T06:33:39.000Z</time>
</trkpt>
<trkpt lat="31.7787990" lon="35.1061430">
<ele>639.099976</ele>
<time>2017-10-20T06:33:41.000Z</time>
</trkpt>
<trkpt lat="31.7788300" lon="35.1061790">
<ele>639.299988</ele>
<time>2017-10-20T06:33:42.000Z</time>
</trkpt>
<trkpt lat="31.7788660" lon="35.1062350">
<ele>639.600037</ele>
<time>2017-10-20T06:33:45.000Z</time>
</trkpt>
<trkpt lat="31.7788880" lon="35.1062690">
<ele>640.000000</ele>
<time>2017-10-20T06:33:53.000Z</time>
</trkpt>
<trkpt lat="31.7788900" lon="35.1063110">
<ele>640.000000</ele>
<time>2017-10-20T06:33:57.000Z</time>
</trkpt>
<trkpt lat="31.7788850" lon="35.1063430">
<ele>640.000000</ele>
<time>2017-10-20T06:33:59.000Z</time>
</trkpt>
<trkpt lat="31.7788790" lon="35.1063850">
<ele>640.000000</ele>
<time>2017-10-20T06:34:01.000Z</time>
</trkpt>
<trkpt lat="31.7788730" lon="35.1064230">
<ele>640.000000</ele>
<time>2017-10-20T06:34:03.000Z</time>
</trkpt>
<trkpt lat="31.7788670" lon="35.1064640">
<ele>640.100037</ele>
<time>2017-10-20T06:34:06.000Z</time>
</trkpt>
<trkpt lat="31.7788620" lon="35.1064960">
<ele>640.200012</ele>
<time>2017-10-20T06:34:09.000Z</time>
</trkpt>
<trkpt lat="31.7788500" lon="35.1065380">
<ele>639.500000</ele>
<time>2017-10-20T06:34:12.000Z</time>
</trkpt>
<trkpt lat="31.7788380" lon="35.1065810">
<ele>639.699951</ele>
<time>2017-10-20T06:34:15.000Z</time>
</trkpt>
<trkpt lat="31.7788380" lon="35.1066140">
<ele>639.899963</ele>
<time>2017-10-20T06:34:21.000Z</time>
</trkpt>
<trkpt lat="31.7788260" lon="35.1066690">
<ele>640.100037</ele>
<time>2017-10-20T06:34:24.000Z</time>
</trkpt>
<trkpt lat="31.7788110" lon="35.1066960">
<ele>639.299988</ele>
<time>2017-10-20T06:34:25.000Z</time>
</trkpt>
<trkpt lat="31.7787900" lon="35.1067410">
<ele>639.600037</ele>
<time>2017-10-20T06:34:27.000Z</time>
</trkpt>
<trkpt lat="31.7787750" lon="35.1067740">
<ele>638.700012</ele>
<time>2017-10-20T06:34:29.000Z</time>
</trkpt>
<trkpt lat="31.7787570" lon="35.1068130">
<ele>639.099976</ele>
<time>2017-10-20T06:34:32.000Z</time>
</trkpt>
<trkpt lat="31.7787440" lon="35.1068420">
<ele>637.899963</ele>
<time>2017-10-20T06:34:34.000Z</time>
</trkpt>
<trkpt lat="31.7787270" lon="35.1068750">
<ele>638.299988</ele>
<time>2017-10-20T06:34:37.000Z</time>
</trkpt>
<trkpt lat="31.7787190" lon="35.1069070">
<ele>638.599976</ele>
<time>2017-10-20T06:34:42.000Z</time>
</trkpt>
<trkpt lat="31.7787000" lon="35.1069380">
<ele>637.599976</ele>
<time>2017-10-20T06:34:45.000Z</time>
</trkpt>
<trkpt lat="31.7786750" lon="35.1069750">
<ele>638.000000</ele>
<time>2017-10-20T06:34:48.000Z</time>
</trkpt>
<trkpt lat="31.7786600" lon="35.1070020">
<ele>637.500000</ele>
<time>2017-10-20T06:34:51.000Z</time>
</trkpt>
<trkpt lat="31.7786400" lon="35.1070310">
<ele>638.099976</ele>
<time>2017-10-20T06:34:54.000Z</time>
</trkpt>
<trkpt lat="31.7786200" lon="35.1070570">
<ele>637.299988</ele>
<time>2017-10-20T06:34:56.000Z</time>
</trkpt>
<trkpt lat="31.7786010" lon="35.1070840">
<ele>638.000000</ele>
<time>2017-10-20T06:34:59.000Z</time>
</trkpt>
<trkpt lat="31.7785810" lon="35.1071080">
<ele>637.200012</ele>
<time>2017-10-20T06:35:02.000Z</time>
</trkpt>
<trkpt lat="31.7785600" lon="35.1071420">
<ele>637.000000</ele>
<time>2017-10-20T06:35:05.000Z</time>
</trkpt>
<trkpt lat="31.7785400" lon="35.1071730">
<ele>637.700012</ele>
<time>2017-10-20T06:35:08.000Z</time>
</trkpt>
<trkpt lat="31.7785110" lon="35.1071930">
<ele>636.699951</ele>
<time>2017-10-20T06:35:10.000Z</time>
</trkpt>
<trkpt lat="31.7784830" lon="35.1072200">
<ele>636.400024</ele>
<time>2017-10-20T06:35:12.000Z</time>
</trkpt>
<trkpt lat="31.7785240" lon="35.1073760">
<ele>640.299988</ele>
<time>2017-10-20T06:35:14.000Z</time>
</trkpt>
<trkpt lat="31.7785860" lon="35.1075020">
<ele>643.700012</ele>
<time>2017-10-20T06:35:16.000Z</time>
</trkpt>
<trkpt lat="31.7786330" lon="35.1075580">
<ele>645.000061</ele>
<time>2017-10-20T06:35:17.000Z</time>
</trkpt>
<trkpt lat="31.7786960" lon="35.1076110">
<ele>647.400024</ele>
<time>2017-10-20T06:35:18.000Z</time>
</trkpt>
<trkpt lat="31.7787310" lon="35.1076610">
<ele>649.100037</ele>
<time>2017-10-20T06:35:19.000Z</time>
</trkpt>
<trkpt lat="31.7787540" lon="35.1077060">
<ele>650.599976</ele>
<time>2017-10-20T06:35:20.000Z</time>
</trkpt>
<trkpt lat="31.7787700" lon="35.1077480">
<ele>651.099976</ele>
<time>2017-10-20T06:35:21.000Z</time>
</trkpt>
<trkpt lat="31.7787820" lon="35.1077870">
<ele>652.399963</ele>
<time>2017-10-20T06:35:22.000Z</time>
</trkpt>
<trkpt lat="31.7787910" lon="35.1078220">
<ele>652.600037</ele>
<time>2017-10-20T06:35:23.000Z</time>
</trkpt>
<trkpt lat="31.7787970" lon="35.1078560">
<ele>652.899963</ele>
<time>2017-10-20T06:35:24.000Z</time>
</trkpt>
<trkpt lat="31.7788040" lon="35.1078890">
<ele>653.099976</ele>
<time>2017-10-20T06:35:25.000Z</time>
</trkpt>
<trkpt lat="31.7788080" lon="35.1079230">
<ele>653.300049</ele>
<time>2017-10-20T06:35:26.000Z</time>
</trkpt>
<trkpt lat="31.7788160" lon="35.1079620">
<ele>653.599976</ele>
<time>2017-10-20T06:35:27.000Z</time>
</trkpt>
<trkpt lat="31.7788260" lon="35.1080000">
<ele>653.900024</ele>
<time>2017-10-20T06:35:28.000Z</time>
</trkpt>
<trkpt lat="31.7788340" lon="35.1080320">
<ele>654.099976</ele>
<time>2017-10-20T06:35:29.000Z</time>
</trkpt>
<trkpt lat="31.7788400" lon="35.1080650">
<ele>654.299988</ele>
<time>2017-10-20T06:35:30.000Z</time>
</trkpt>
<trkpt lat="31.7788440" lon="35.1080960">
<ele>654.400024</ele>
<time>2017-10-20T06:35:31.000Z</time>
</trkpt>
<trkpt lat="31.7788470" lon="35.1081290">
<ele>654.500061</ele>
<time>2017-10-20T06:35:32.000Z</time>
</trkpt>
<trkpt lat="31.7788480" lon="35.1081610">
<ele>654.700012</ele>
<time>2017-10-20T06:35:33.000Z</time>
</trkpt>
<trkpt lat="31.7788470" lon="35.1082050">
<ele>654.900024</ele>
<time>2017-10-20T06:35:34.000Z</time>
</trkpt>
<trkpt lat="31.7788480" lon="35.1082450">
<ele>655.100037</ele>
<time>2017-10-20T06:35:35.000Z</time>
</trkpt>
<trkpt lat="31.7788470" lon="35.1082870">
<ele>655.199951</ele>
<time>2017-10-20T06:35:36.000Z</time>
</trkpt>
<trkpt lat="31.7788470" lon="35.1083300">
<ele>655.299988</ele>
<time>2017-10-20T06:35:37.000Z</time>
</trkpt>
<trkpt lat="31.7788450" lon="35.1083740">
<ele>655.500000</ele>
<time>2017-10-20T06:35:38.000Z</time>
</trkpt>
<trkpt lat="31.7788440" lon="35.1084190">
<ele>655.600037</ele>
<time>2017-10-20T06:35:39.000Z</time>
</trkpt>
<trkpt lat="31.7788450" lon="35.1084630">
<ele>655.700012</ele>
<time>2017-10-20T06:35:40.000Z</time>
</trkpt>
<trkpt lat="31.7788450" lon="35.1085050">
<ele>655.899963</ele>
<time>2017-10-20T06:35:41.000Z</time>
</trkpt>
<trkpt lat="31.7788460" lon="35.1085420">
<ele>656.000000</ele>
<time>2017-10-20T06:35:42.000Z</time>
</trkpt>
<trkpt lat="31.7788470" lon="35.1085760">
<ele>656.100037</ele>
<time>2017-10-20T06:35:43.000Z</time>
</trkpt>
<trkpt lat="31.7788490" lon="35.1086130">
<ele>656.200012</ele>
<time>2017-10-20T06:35:44.000Z</time>
</trkpt>
<trkpt lat="31.7788520" lon="35.1086500">
<ele>656.300049</ele>
<time>2017-10-20T06:35:45.000Z</time>
</trkpt>
<trkpt lat="31.7788490" lon="35.1086890">
<ele>656.399963</ele>
<time>2017-10-20T06:35:46.000Z</time>
</trkpt>
<trkpt lat="31.7788460" lon="35.1087280">
<ele>656.500000</ele>
<time>2017-10-20T06:35:47.000Z</time>
</trkpt>
<trkpt lat="31.7788440" lon="35.1087650">
<ele>656.599976</ele>
<time>2017-10-20T06:35:48.000Z</time>
</trkpt>
<trkpt lat="31.7788440" lon="35.1088000">
<ele>656.800049</ele>
<time>2017-10-20T06:35:49.000Z</time>
</trkpt>
<trkpt lat="31.7788480" lon="35.1088340">
<ele>657.099976</ele>
<time>2017-10-20T06:35:50.000Z</time>
</trkpt>
<trkpt lat="31.7788530" lon="35.1088670">
<ele>657.299988</ele>
<time>2017-10-20T06:35:51.000Z</time>
</trkpt>
<trkpt lat="31.7788580" lon="35.1089010">
<ele>657.599976</ele>
<time>2017-10-20T06:35:52.000Z</time>
</trkpt>
<trkpt lat="31.7788620" lon="35.1089350">
<ele>657.900024</ele>
<time>2017-10-20T06:35:53.000Z</time>
</trkpt>
<trkpt lat="31.7788670" lon="35.1089730">
<ele>658.199951</ele>
<time>2017-10-20T06:35:54.000Z</time>
</trkpt>
<trkpt lat="31.7788710" lon="35.1090160">
<ele>658.600037</ele>
<time>2017-10-20T06:35:55.000Z</time>
</trkpt>
<trkpt lat="31.7788790" lon="35.1090580">
<ele>658.899963</ele>
<time>2017-10-20T06:35:56.000Z</time>
</trkpt>
<trkpt lat="31.7788870" lon="35.1090950">
<ele>659.300049</ele>
<time>2017-10-20T06:35:57.000Z</time>
</trkpt>
<trkpt lat="31.7788930" lon="35.1091290">
<ele>659.599976</ele>
<time>2017-10-20T06:35:58.000Z</time>
</trkpt>
<trkpt lat="31.7789010" lon="35.1091630">
<ele>659.900024</ele>
<time>2017-10-20T06:35:59.000Z</time>
</trkpt>
<trkpt lat="31.7789090" lon="35.1092040">
<ele>660.299988</ele>
<time>2017-10-20T06:36:00.000Z</time>
</trkpt>
<trkpt lat="31.7789230" lon="35.1092410">
<ele>660.700012</ele>
<time>2017-10-20T06:36:01.000Z</time>
</trkpt>
<trkpt lat="31.7789370" lon="35.1092790">
<ele>661.199951</ele>
<time>2017-10-20T06:36:02.000Z</time>
</trkpt>
<trkpt lat="31.7789490" lon="35.1093140">
<ele>661.500000</ele>
<time>2017-10-20T06:36:03.000Z</time>
</trkpt>
<trkpt lat="31.7789700" lon="35.1093630">
<ele>662.100037</ele>
<time>2017-10-20T06:36:05.000Z</time>
</trkpt>
<trkpt lat="31.7789950" lon="35.1094160">
<ele>662.700012</ele>
<time>2017-10-20T06:36:07.000Z</time>
</trkpt>
<trkpt lat="31.7790160" lon="35.1094520">
<ele>663.099976</ele>
<time>2017-10-20T06:36:09.000Z</time>
</trkpt>
<trkpt lat="31.7790340" lon="35.1094840">
<ele>663.499939</ele>
<time>2017-10-20T06:36:11.000Z</time>
</trkpt>
<trkpt lat="31.7790540" lon="35.1095170">
<ele>663.900024</ele>
<time>2017-10-20T06:36:13.000Z</time>
</trkpt>
<trkpt lat="31.7790790" lon="35.1095510">
<ele>664.299988</ele>
<time>2017-10-20T06:36:15.000Z</time>
</trkpt>
<trkpt lat="31.7791030" lon="35.1095850">
<ele>664.699951</ele>
<time>2017-10-20T06:36:17.000Z</time>
</trkpt>
<trkpt lat="31.7791330" lon="35.1096200">
<ele>665.100037</ele>
<time>2017-10-20T06:36:19.000Z</time>
</trkpt>
<trkpt lat="31.7791650" lon="35.1096550">
<ele>665.599976</ele>
<time>2017-10-20T06:36:21.000Z</time>
</trkpt>
<trkpt lat="31.7791880" lon="35.1096830">
<ele>665.899963</ele>
<time>2017-10-20T06:36:23.000Z</time>
</trkpt>
<trkpt lat="31.7792240" lon="35.1097360">
<ele>666.499939</ele>
<time>2017-10-20T06:36:25.000Z</time>
</trkpt>
<trkpt lat="31.7792510" lon="35.1097750">
<ele>666.900024</ele>
<time>2017-10-20T06:36:26.000Z</time>
</trkpt>
<trkpt lat="31.7792730" lon="35.1098130">
<ele>667.200012</ele>
<time>2017-10-20T06:36:27.000Z</time>
</trkpt>
<trkpt lat="31.7792940" lon="35.1098480">
<ele>667.500000</ele>
<time>2017-10-20T06:36:28.000Z</time>
</trkpt>
<trkpt lat="31.7793150" lon="35.1098840">
<ele>667.900024</ele>
<time>2017-10-20T06:36:30.000Z</time>
</trkpt>
<trkpt lat="31.7793390" lon="35.1099250">
<ele>668.200012</ele>
<time>2017-10-20T06:36:32.000Z</time>
</trkpt>
<trkpt lat="31.7793680" lon="35.1099700">
<ele>668.700012</ele>
<time>2017-10-20T06:36:34.000Z</time>
</trkpt>
<trkpt lat="31.7794040" lon="35.1100130">
<ele>669.099976</ele>
<time>2017-10-20T06:36:36.000Z</time>
</trkpt>
<trkpt lat="31.7794350" lon="35.1100510">
<ele>669.500000</ele>
<time>2017-10-20T06:36:38.000Z</time>
</trkpt>
<trkpt lat="31.7794620" lon="35.1100830">
<ele>669.799988</ele>
<time>2017-10-20T06:36:40.000Z</time>
</trkpt>
<trkpt lat="31.7794830" lon="35.1101180">
<ele>670.099976</ele>
<time>2017-10-20T06:36:42.000Z</time>
</trkpt>
<trkpt lat="31.7795010" lon="35.1101500">
<ele>670.299988</ele>
<time>2017-10-20T06:36:44.000Z</time>
</trkpt>
<trkpt lat="31.7795190" lon="35.1101740">
<ele>670.400024</ele>
<time>2017-10-20T06:36:46.000Z</time>
</trkpt>
<trkpt lat="31.7795390" lon="35.1102040">
<ele>670.600037</ele>
<time>2017-10-20T06:36:48.000Z</time>
</trkpt>
<trkpt lat="31.7795610" lon="35.1102450">
<ele>670.799988</ele>
<time>2017-10-20T06:36:50.000Z</time>
</trkpt>
<trkpt lat="31.7795810" lon="35.1102750">
<ele>671.000000</ele>
<time>2017-10-20T06:36:52.000Z</time>
</trkpt>
<trkpt lat="31.7795980" lon="35.1103040">
<ele>671.200012</ele>
<time>2017-10-20T06:36:54.000Z</time>
</trkpt>
<trkpt lat="31.7796080" lon="35.1103430">
<ele>671.299988</ele>
<time>2017-10-20T06:36:56.000Z</time>
</trkpt>
<trkpt lat="31.7796200" lon="35.1103830">
<ele>671.500000</ele>
<time>2017-10-20T06:36:58.000Z</time>
</trkpt>
<trkpt lat="31.7796350" lon="35.1104310">
<ele>671.800049</ele>
<time>2017-10-20T06:37:01.000Z</time>
</trkpt>
<trkpt lat="31.7796470" lon="35.1104850">
<ele>672.000000</ele>
<time>2017-10-20T06:37:03.000Z</time>
</trkpt>
<trkpt lat="31.7796520" lon="35.1105360">
<ele>672.300049</ele>
<time>2017-10-20T06:37:05.000Z</time>
</trkpt>
<trkpt lat="31.7796490" lon="35.1105730">
<ele>672.400024</ele>
<time>2017-10-20T06:37:07.000Z</time>
</trkpt>
<trkpt lat="31.7796480" lon="35.1106090">
<ele>672.599976</ele>
<time>2017-10-20T06:37:10.000Z</time>
</trkpt>
<trkpt lat="31.7796410" lon="35.1106580">
<ele>672.799988</ele>
<time>2017-10-20T06:37:13.000Z</time>
</trkpt>
<trkpt lat="31.7796210" lon="35.1106970">
<ele>673.000061</ele>
<time>2017-10-20T06:37:15.000Z</time>
</trkpt>
<trkpt lat="31.7796080" lon="35.1107290">
<ele>673.200012</ele>
<time>2017-10-20T06:37:17.000Z</time>
</trkpt>
<trkpt lat="31.7795880" lon="35.1107660">
<ele>673.400024</ele>
<time>2017-10-20T06:37:19.000Z</time>
</trkpt>
<trkpt lat="31.7795690" lon="35.1108060">
<ele>673.599976</ele>
<time>2017-10-20T06:37:21.000Z</time>
</trkpt>
<trkpt lat="31.7795540" lon="35.1108540">
<ele>673.799988</ele>
<time>2017-10-20T06:37:23.000Z</time>
</trkpt>
<trkpt lat="31.7795390" lon="35.1108890">
<ele>674.000000</ele>
<time>2017-10-20T06:37:25.000Z</time>
</trkpt>
<trkpt lat="31.7795250" lon="35.1109190">
<ele>674.100037</ele>
<time>2017-10-20T06:37:27.000Z</time>
</trkpt>
<trkpt lat="31.7795110" lon="35.1109510">
<ele>674.299988</ele>
<time>2017-10-20T06:37:29.000Z</time>
</trkpt>
<trkpt lat="31.7794940" lon="35.1109860">
<ele>673.699951</ele>
<time>2017-10-20T06:37:31.000Z</time>
</trkpt>
<trkpt lat="31.7794790" lon="35.1110150">
<ele>673.699951</ele>
<time>2017-10-20T06:37:33.000Z</time>
</trkpt>
<trkpt lat="31.7794660" lon="35.1110440">
<ele>673.400024</ele>
<time>2017-10-20T06:37:35.000Z</time>
</trkpt>
<trkpt lat="31.7794530" lon="35.1110730">
<ele>673.900024</ele>
<time>2017-10-20T06:37:37.000Z</time>
</trkpt>
<trkpt lat="31.7794370" lon="35.1111080">
<ele>673.599976</ele>
<time>2017-10-20T06:37:39.000Z</time>
</trkpt>
<trkpt lat="31.7794250" lon="35.1111370">
<ele>673.599976</ele>
<time>2017-10-20T06:37:40.000Z</time>
</trkpt>
<trkpt lat="31.7794110" lon="35.1111720">
<ele>674.199951</ele>
<time>2017-10-20T06:37:41.000Z</time>
</trkpt>
<trkpt lat="31.7794010" lon="35.1112060">
<ele>673.900024</ele>
<time>2017-10-20T06:37:42.000Z</time>
</trkpt>
<trkpt lat="31.7793850" lon="35.1112530">
<ele>674.600037</ele>
<time>2017-10-20T06:37:44.000Z</time>
</trkpt>
<trkpt lat="31.7793650" lon="35.1112890">
<ele>675.300049</ele>
<time>2017-10-20T06:37:47.000Z</time>
</trkpt>
<trkpt lat="31.7793490" lon="35.1113160">
<ele>674.399963</ele>
<time>2017-10-20T06:37:49.000Z</time>
</trkpt>
<trkpt lat="31.7793260" lon="35.1113510">
<ele>674.100037</ele>
<time>2017-10-20T06:37:51.000Z</time>
</trkpt>
<trkpt lat="31.7793010" lon="35.1114000">
<ele>674.799988</ele>
<time>2017-10-20T06:37:53.000Z</time>
</trkpt>
<trkpt lat="31.7792810" lon="35.1114520">
<ele>675.099976</ele>
<time>2017-10-20T06:37:55.000Z</time>
</trkpt>
<trkpt lat="31.7792550" lon="35.1114940">
<ele>674.799988</ele>
<time>2017-10-20T06:37:57.000Z</time>
</trkpt>
<trkpt lat="31.7793120" lon="35.1115540">
<ele>677.799988</ele>
<time>2017-10-20T06:37:59.000Z</time>
</trkpt>
<trkpt lat="31.7793030" lon="35.1115880">
<ele>678.500000</ele>
<time>2017-10-20T06:38:03.000Z</time>
</trkpt>
<trkpt lat="31.7792930" lon="35.1116220">
<ele>679.200012</ele>
<time>2017-10-20T06:38:06.000Z</time>
</trkpt>
<trkpt lat="31.7792810" lon="35.1116560">
<ele>678.000000</ele>
<time>2017-10-20T06:38:08.000Z</time>
</trkpt>
<trkpt lat="31.7792710" lon="35.1116910">
<ele>678.599976</ele>
<time>2017-10-20T06:38:10.000Z</time>
</trkpt>
<trkpt lat="31.7792630" lon="35.1117310">
<ele>679.200012</ele>
<time>2017-10-20T06:38:12.000Z</time>
</trkpt>
<trkpt lat="31.7792420" lon="35.1117930">
<ele>678.999939</ele>
<time>2017-10-20T06:38:14.000Z</time>
</trkpt>
<trkpt lat="31.7792170" lon="35.1118650">
<ele>678.399963</ele>
<time>2017-10-20T06:38:15.000Z</time>
</trkpt>
<trkpt lat="31.7792070" lon="35.1118980">
<ele>678.799988</ele>
<time>2017-10-20T06:38:16.000Z</time>
</trkpt>
<trkpt lat="31.7791910" lon="35.1119490">
<ele>679.099976</ele>
<time>2017-10-20T06:38:18.000Z</time>
</trkpt>
<trkpt lat="31.7791780" lon="35.1119990">
<ele>678.399963</ele>
<time>2017-10-20T06:38:20.000Z</time>
</trkpt>
<trkpt lat="31.7791680" lon="35.1120310">
<ele>678.799988</ele>
<time>2017-10-20T06:38:21.000Z</time>
</trkpt>
<trkpt lat="31.7791530" lon="35.1120610">
<ele>679.200012</ele>
<time>2017-10-20T06:38:22.000Z</time>
</trkpt>
<trkpt lat="31.7791380" lon="35.1120970">
<ele>678.599976</ele>
<time>2017-10-20T06:38:24.000Z</time>
</trkpt>
<trkpt lat="31.7791200" lon="35.1121290">
<ele>678.599976</ele>
<time>2017-10-20T06:38:27.000Z</time>
</trkpt>
<trkpt lat="31.7791120" lon="35.1121660">
<ele>678.999939</ele>
<time>2017-10-20T06:38:29.000Z</time>
</trkpt>
<trkpt lat="31.7790860" lon="35.1122100">
<ele>678.200012</ele>
<time>2017-10-20T06:38:31.000Z</time>
</trkpt>
<trkpt lat="31.7790840" lon="35.1122770">
<ele>678.500000</ele>
<time>2017-10-20T06:38:33.000Z</time>
</trkpt>
<trkpt lat="31.7790990" lon="35.1123190">
<ele>678.599976</ele>
<time>2017-10-20T06:38:34.000Z</time>
</trkpt>
<trkpt lat="31.7791130" lon="35.1123560">
<ele>679.799988</ele>
<time>2017-10-20T06:38:35.000Z</time>
</trkpt>
<trkpt lat="31.7791240" lon="35.1123900">
<ele>679.799988</ele>
<time>2017-10-20T06:38:36.000Z</time>
</trkpt>
<trkpt lat="31.7791430" lon="35.1124330">
<ele>680.000000</ele>
<time>2017-10-20T06:38:38.000Z</time>
</trkpt>
<trkpt lat="31.7791510" lon="35.1124770">
<ele>681.300049</ele>
<time>2017-10-20T06:38:40.000Z</time>
</trkpt>
<trkpt lat="31.7791530" lon="35.1125330">
<ele>681.500000</ele>
<time>2017-10-20T06:38:42.000Z</time>
</trkpt>
<trkpt lat="31.7791570" lon="35.1125900">
<ele>681.900024</ele>
<time>2017-10-20T06:38:44.000Z</time>
</trkpt>
<trkpt lat="31.7791300" lon="35.1126370">
<ele>681.500000</ele>
<time>2017-10-20T06:38:46.000Z</time>
</trkpt>
<trkpt lat="31.7791140" lon="35.1126820">
<ele>681.900024</ele>
<time>2017-10-20T06:38:48.000Z</time>
</trkpt>
<trkpt lat="31.7791010" lon="35.1127290">
<ele>681.500000</ele>
<time>2017-10-20T06:38:50.000Z</time>
</trkpt>
<trkpt lat="31.7790870" lon="35.1127720">
<ele>681.800049</ele>
<time>2017-10-20T06:38:52.000Z</time>
</trkpt>
<trkpt lat="31.7790770" lon="35.1128060">
<ele>681.900024</ele>
<time>2017-10-20T06:38:54.000Z</time>
</trkpt>
<trkpt lat="31.7790640" lon="35.1128510">
<ele>681.000000</ele>
<time>2017-10-20T06:38:56.000Z</time>
</trkpt>
<trkpt lat="31.7790890" lon="35.1128990">
<ele>682.000000</ele>
<time>2017-10-20T06:38:57.000Z</time>
</trkpt>
<trkpt lat="31.7791320" lon="35.1129540">
<ele>682.700012</ele>
<time>2017-10-20T06:38:58.000Z</time>
</trkpt>
<trkpt lat="31.7791610" lon="35.1129990">
<ele>683.400024</ele>
<time>2017-10-20T06:38:59.000Z</time>
</trkpt>
<trkpt lat="31.7791540" lon="35.1130380">
<ele>683.400024</ele>
<time>2017-10-20T06:39:01.000Z</time>
</trkpt>
<trkpt lat="31.7791500" lon="35.1130690">
<ele>683.400024</ele>
<time>2017-10-20T06:39:03.000Z</time>
</trkpt>
<trkpt lat="31.7791490" lon="35.1131160">
<ele>683.400024</ele>
<time>2017-10-20T06:39:05.000Z</time>
</trkpt>
<trkpt lat="31.7791710" lon="35.1131490">
<ele>683.400024</ele>
<time>2017-10-20T06:39:06.000Z</time>
</trkpt>
<trkpt lat="31.7791970" lon="35.1131810">
<ele>684.399963</ele>
<time>2017-10-20T06:39:07.000Z</time>
</trkpt>
<trkpt lat="31.7792250" lon="35.1132150">
<ele>685.400024</ele>
<time>2017-10-20T06:39:08.000Z</time>
</trkpt>
<trkpt lat="31.7792550" lon="35.1132520">
<ele>685.299988</ele>
<time>2017-10-20T06:39:09.000Z</time>
</trkpt>
<trkpt lat="31.7792840" lon="35.1132870">
<ele>686.400024</ele>
<time>2017-10-20T06:39:10.000Z</time>
</trkpt>
<trkpt lat="31.7792970" lon="35.1133180">
<ele>687.399963</ele>
<time>2017-10-20T06:39:11.000Z</time>
</trkpt>
<trkpt lat="31.7793120" lon="35.1133600">
<ele>687.299988</ele>
<time>2017-10-20T06:39:12.000Z</time>
</trkpt>
<trkpt lat="31.7793230" lon="35.1133910">
<ele>687.200012</ele>
<time>2017-10-20T06:39:13.000Z</time>
</trkpt>
<trkpt lat="31.7793370" lon="35.1134240">
<ele>688.099976</ele>
<time>2017-10-20T06:39:14.000Z</time>
</trkpt>
<trkpt lat="31.7793520" lon="35.1134520">
<ele>688.099976</ele>
<time>2017-10-20T06:39:15.000Z</time>
</trkpt>
<trkpt lat="31.7793750" lon="35.1134970">
<ele>688.900024</ele>
<time>2017-10-20T06:39:17.000Z</time>
</trkpt>
<trkpt lat="31.7793890" lon="35.1135290">
<ele>688.700012</ele>
<time>2017-10-20T06:39:18.000Z</time>
</trkpt>
<trkpt lat="31.7794070" lon="35.1135610">
<ele>689.299988</ele>
<time>2017-10-20T06:39:19.000Z</time>
</trkpt>
<trkpt lat="31.7794200" lon="35.1135900">
<ele>689.299988</ele>
<time>2017-10-20T06:39:20.000Z</time>
</trkpt>
<trkpt lat="31.7794380" lon="35.1136380">
<ele>689.699951</ele>
<time>2017-10-20T06:39:22.000Z</time>
</trkpt>
<trkpt lat="31.7794590" lon="35.1136930">
<ele>689.500000</ele>
<time>2017-10-20T06:39:24.000Z</time>
</trkpt>
<trkpt lat="31.7794730" lon="35.1137200">
<ele>689.500000</ele>
<time>2017-10-20T06:39:25.000Z</time>
</trkpt>
<trkpt lat="31.7794960" lon="35.1137630">
<ele>690.100037</ele>
<time>2017-10-20T06:39:27.000Z</time>
</trkpt>
<trkpt lat="31.7795180" lon="35.1138100">
<ele>690.700012</ele>
<time>2017-10-20T06:39:29.000Z</time>
</trkpt>
<trkpt lat="31.7795420" lon="35.1138550">
<ele>690.700012</ele>
<time>2017-10-20T06:39:31.000Z</time>
</trkpt>
<trkpt lat="31.7795580" lon="35.1138880">
<ele>691.700012</ele>
<time>2017-10-20T06:39:32.000Z</time>
</trkpt>
<trkpt lat="31.7795790" lon="35.1139250">
<ele>691.700012</ele>
<time>2017-10-20T06:39:33.000Z</time>
</trkpt>
<trkpt lat="31.7795990" lon="35.1139590">
<ele>692.699951</ele>
<time>2017-10-20T06:39:34.000Z</time>
</trkpt>
<trkpt lat="31.7796160" lon="35.1139870">
<ele>692.600037</ele>
<time>2017-10-20T06:39:35.000Z</time>
</trkpt>
<trkpt lat="31.7796420" lon="35.1140210">
<ele>693.600037</ele>
<time>2017-10-20T06:39:37.000Z</time>
</trkpt>
<trkpt lat="31.7796550" lon="35.1140540">
<ele>693.500000</ele>
<time>2017-10-20T06:39:39.000Z</time>
</trkpt>
<trkpt lat="31.7796730" lon="35.1140900">
<ele>694.200012</ele>
<time>2017-10-20T06:39:41.000Z</time>
</trkpt>
<trkpt lat="31.7796990" lon="35.1141310">
<ele>694.700012</ele>
<time>2017-10-20T06:39:43.000Z</time>
</trkpt>
<trkpt lat="31.7797160" lon="35.1141670">
<ele>694.599976</ele>
<time>2017-10-20T06:39:45.000Z</time>
</trkpt>
<trkpt lat="31.7797320" lon="35.1142010">
<ele>695.099976</ele>
<time>2017-10-20T06:39:47.000Z</time>
</trkpt>
<trkpt lat="31.7797520" lon="35.1142390">
<ele>694.799988</ele>
<time>2017-10-20T06:39:49.000Z</time>
</trkpt>
<trkpt lat="31.7797770" lon="35.1142790">
<ele>695.400024</ele>
<time>2017-10-20T06:39:51.000Z</time>
</trkpt>
<trkpt lat="31.7798000" lon="35.1143200">
<ele>695.400024</ele>
<time>2017-10-20T06:39:53.000Z</time>
</trkpt>
<trkpt lat="31.7798240" lon="35.1143670">
<ele>695.699951</ele>
<time>2017-10-20T06:39:55.000Z</time>
</trkpt>
<trkpt lat="31.7798470" lon="35.1144180">
<ele>696.399963</ele>
<time>2017-10-20T06:39:57.000Z</time>
</trkpt>
<trkpt lat="31.7798660" lon="35.1144500">
<ele>696.600037</ele>
<time>2017-10-20T06:39:59.000Z</time>
</trkpt>
<trkpt lat="31.7798890" lon="35.1144900">
<ele>696.899963</ele>
<time>2017-10-20T06:40:01.000Z</time>
</trkpt>
<trkpt lat="31.7799070" lon="35.1145220">
<ele>697.200012</ele>
<time>2017-10-20T06:40:02.000Z</time>
</trkpt>
<trkpt lat="31.7799230" lon="35.1145570">
<ele>697.500000</ele>
<time>2017-10-20T06:40:03.000Z</time>
</trkpt>
<trkpt lat="31.7799490" lon="35.1146070">
<ele>697.900024</ele>
<time>2017-10-20T06:40:05.000Z</time>
</trkpt>
<trkpt lat="31.7799660" lon="35.1146460">
<ele>698.200012</ele>
<time>2017-10-20T06:40:07.000Z</time>
</trkpt>
<trkpt lat="31.7799850" lon="35.1146900">
<ele>698.500000</ele>
<time>2017-10-20T06:40:09.000Z</time>
</trkpt>
<trkpt lat="31.7800010" lon="35.1147330">
<ele>698.699951</ele>
<time>2017-10-20T06:40:11.000Z</time>
</trkpt>
<trkpt lat="31.7800220" lon="35.1147720">
<ele>698.900024</ele>
<time>2017-10-20T06:40:13.000Z</time>
</trkpt>
<trkpt lat="31.7800410" lon="35.1148080">
<ele>699.000000</ele>
<time>2017-10-20T06:40:15.000Z</time>
</trkpt>
<trkpt lat="31.7800650" lon="35.1148530">
<ele>699.199951</ele>
<time>2017-10-20T06:40:17.000Z</time>
</trkpt>
<trkpt lat="31.7800900" lon="35.1149000">
<ele>699.500000</ele>
<time>2017-10-20T06:40:19.000Z</time>
</trkpt>
<trkpt lat="31.7801220" lon="35.1149400">
<ele>699.700012</ele>
<time>2017-10-20T06:40:21.000Z</time>
</trkpt>
<trkpt lat="31.7801600" lon="35.1149780">
<ele>700.099976</ele>
<time>2017-10-20T06:40:23.000Z</time>
</trkpt>
<trkpt lat="31.7801970" lon="35.1150160">
<ele>700.500000</ele>
<time>2017-10-20T06:40:25.000Z</time>
</trkpt>
<trkpt lat="31.7802430" lon="35.1150630">
<ele>700.999939</ele>
<time>2017-10-20T06:40:27.000Z</time>
</trkpt>
<trkpt lat="31.7802710" lon="35.1150890">
<ele>701.299988</ele>
<time>2017-10-20T06:40:28.000Z</time>
</trkpt>
<trkpt lat="31.7803220" lon="35.1151260">
<ele>701.799988</ele>
<time>2017-10-20T06:40:29.000Z</time>
</trkpt>
<trkpt lat="31.7803590" lon="35.1151500">
<ele>702.100037</ele>
<time>2017-10-20T06:40:30.000Z</time>
</trkpt>
<trkpt lat="31.7804120" lon="35.1151810">
<ele>702.600037</ele>
<time>2017-10-20T06:40:32.000Z</time>
</trkpt>
<trkpt lat="31.7804430" lon="35.1151950">
<ele>702.899963</ele>
<time>2017-10-20T06:40:33.000Z</time>
</trkpt>
<trkpt lat="31.7804710" lon="35.1152070">
<ele>703.200012</ele>
<time>2017-10-20T06:40:34.000Z</time>
</trkpt>
<trkpt lat="31.7805000" lon="35.1152220">
<ele>703.399963</ele>
<time>2017-10-20T06:40:35.000Z</time>
</trkpt>
<trkpt lat="31.7805450" lon="35.1152360">
<ele>703.799988</ele>
<time>2017-10-20T06:40:37.000Z</time>
</trkpt>
<trkpt lat="31.7805920" lon="35.1152450">
<ele>704.200012</ele>
<time>2017-10-20T06:40:39.000Z</time>
</trkpt>
<trkpt lat="31.7806400" lon="35.1152570">
<ele>704.599976</ele>
<time>2017-10-20T06:40:41.000Z</time>
</trkpt>
<trkpt lat="31.7806720" lon="35.1152620">
<ele>704.900024</ele>
<time>2017-10-20T06:40:42.000Z</time>
</trkpt>
<trkpt lat="31.7807280" lon="35.1152710">
<ele>705.400024</ele>
<time>2017-10-20T06:40:44.000Z</time>
</trkpt>
<trkpt lat="31.7807610" lon="35.1152760">
<ele>705.700012</ele>
<time>2017-10-20T06:40:45.000Z</time>
</trkpt>
<trkpt lat="31.7807890" lon="35.1152790">
<ele>705.899963</ele>
<time>2017-10-20T06:40:46.000Z</time>
</trkpt>
<trkpt lat="31.7808380" lon="35.1152890">
<ele>706.300049</ele>
<time>2017-10-20T06:40:48.000Z</time>
</trkpt>
<trkpt lat="31.7808900" lon="35.1152900">
<ele>706.700012</ele>
<time>2017-10-20T06:40:50.000Z</time>
</trkpt>
<trkpt lat="31.7809330" lon="35.1152960">
<ele>707.099976</ele>
<time>2017-10-20T06:40:52.000Z</time>
</trkpt>
<trkpt lat="31.7809860" lon="35.1153050">
<ele>707.599976</ele>
<time>2017-10-20T06:40:54.000Z</time>
</trkpt>
<trkpt lat="31.7810170" lon="35.1153080">
<ele>707.799988</ele>
<time>2017-10-20T06:40:55.000Z</time>
</trkpt>
<trkpt lat="31.7810480" lon="35.1153110">
<ele>708.100037</ele>
<time>2017-10-20T06:40:56.000Z</time>
</trkpt>
<trkpt lat="31.7810800" lon="35.1153100">
<ele>708.400024</ele>
<time>2017-10-20T06:40:57.000Z</time>
</trkpt>
<trkpt lat="31.7811310" lon="35.1153080">
<ele>708.799988</ele>
<time>2017-10-20T06:40:59.000Z</time>
</trkpt>
<trkpt lat="31.7811620" lon="35.1153010">
<ele>709.100037</ele>
<time>2017-10-20T06:41:00.000Z</time>
</trkpt>
<trkpt lat="31.7811920" lon="35.1152970">
<ele>709.300049</ele>
<time>2017-10-20T06:41:01.000Z</time>
</trkpt>
<trkpt lat="31.7812420" lon="35.1153010">
<ele>709.800049</ele>
<time>2017-10-20T06:41:03.000Z</time>
</trkpt>
<trkpt lat="31.7812890" lon="35.1153000">
<ele>710.200012</ele>
<time>2017-10-20T06:41:05.000Z</time>
</trkpt>
<trkpt lat="31.7813270" lon="35.1153000">
<ele>710.599976</ele>
<time>2017-10-20T06:41:07.000Z</time>
</trkpt>
<trkpt lat="31.7813540" lon="35.1153030">
<ele>710.900024</ele>
<time>2017-10-20T06:41:09.000Z</time>
</trkpt>
<trkpt lat="31.7813920" lon="35.1153090">
<ele>711.299988</ele>
<time>2017-10-20T06:41:11.000Z</time>
</trkpt>
<trkpt lat="31.7814350" lon="35.1153120">
<ele>711.699951</ele>
<time>2017-10-20T06:41:13.000Z</time>
</trkpt>
<trkpt lat="31.7814640" lon="35.1153130">
<ele>712.000000</ele>
<time>2017-10-20T06:41:14.000Z</time>
</trkpt>
<trkpt lat="31.7815060" lon="35.1153100">
<ele>712.399963</ele>
<time>2017-10-20T06:41:16.000Z</time>
</trkpt>
<trkpt lat="31.7815390" lon="35.1153100">
<ele>712.700012</ele>
<time>2017-10-20T06:41:17.000Z</time>
</trkpt>
<trkpt lat="31.7815700" lon="35.1153110">
<ele>713.000000</ele>
<time>2017-10-20T06:41:18.000Z</time>
</trkpt>
<trkpt lat="31.7816130" lon="35.1153050">
<ele>713.499939</ele>
<time>2017-10-20T06:41:20.000Z</time>
</trkpt>
<trkpt lat="31.7816560" lon="35.1153040">
<ele>713.900024</ele>
<time>2017-10-20T06:41:22.000Z</time>
</trkpt>
<trkpt lat="31.7816970" lon="35.1153050">
<ele>714.299988</ele>
<time>2017-10-20T06:41:24.000Z</time>
</trkpt>
<trkpt lat="31.7817350" lon="35.1153070">
<ele>714.699951</ele>
<time>2017-10-20T06:41:26.000Z</time>
</trkpt>
<trkpt lat="31.7817770" lon="35.1153080">
<ele>715.200012</ele>
<time>2017-10-20T06:41:28.000Z</time>
</trkpt>
<trkpt lat="31.7818090" lon="35.1153130">
<ele>715.599976</ele>
<time>2017-10-20T06:41:29.000Z</time>
</trkpt>
<trkpt lat="31.7818520" lon="35.1153070">
<ele>716.099976</ele>
<time>2017-10-20T06:41:31.000Z</time>
</trkpt>
<trkpt lat="31.7819010" lon="35.1153210">
<ele>716.599976</ele>
<time>2017-10-20T06:41:33.000Z</time>
</trkpt>
<trkpt lat="31.7819430" lon="35.1153350">
<ele>717.199951</ele>
<time>2017-10-20T06:41:35.000Z</time>
</trkpt>
<trkpt lat="31.7819950" lon="35.1153430">
<ele>717.799988</ele>
<time>2017-10-20T06:41:38.000Z</time>
</trkpt>
<trkpt lat="31.7820290" lon="35.1153480">
<ele>718.200012</ele>
<time>2017-10-20T06:41:39.000Z</time>
</trkpt>
<trkpt lat="31.7820800" lon="35.1153500">
<ele>718.800049</ele>
<time>2017-10-20T06:41:41.000Z</time>
</trkpt>
<trkpt lat="31.7821260" lon="35.1153390">
<ele>719.300049</ele>
<time>2017-10-20T06:41:43.000Z</time>
</trkpt>
<trkpt lat="31.7821530" lon="35.1153270">
<ele>719.599976</ele>
<time>2017-10-20T06:41:44.000Z</time>
</trkpt>
<trkpt lat="31.7821990" lon="35.1153100">
<ele>720.200012</ele>
<time>2017-10-20T06:41:46.000Z</time>
</trkpt>
<trkpt lat="31.7822290" lon="35.1153060">
<ele>720.500000</ele>
<time>2017-10-20T06:41:47.000Z</time>
</trkpt>
<trkpt lat="31.7822580" lon="35.1153010">
<ele>720.799988</ele>
<time>2017-10-20T06:41:48.000Z</time>
</trkpt>
<trkpt lat="31.7823070" lon="35.1152940">
<ele>721.399963</ele>
<time>2017-10-20T06:41:50.000Z</time>
</trkpt>
<trkpt lat="31.7823510" lon="35.1152890">
<ele>721.899963</ele>
<time>2017-10-20T06:41:52.000Z</time>
</trkpt>
<trkpt lat="31.7823990" lon="35.1152770">
<ele>722.400024</ele>
<time>2017-10-20T06:41:54.000Z</time>
</trkpt>
<trkpt lat="31.7824420" lon="35.1152690">
<ele>722.900024</ele>
<time>2017-10-20T06:41:56.000Z</time>
</trkpt>
<trkpt lat="31.7824740" lon="35.1152580">
<ele>723.200012</ele>
<time>2017-10-20T06:41:58.000Z</time>
</trkpt>
<trkpt lat="31.7825010" lon="35.1152570">
<ele>723.500000</ele>
<time>2017-10-20T06:42:00.000Z</time>
</trkpt>
<trkpt lat="31.7825360" lon="35.1152510">
<ele>723.799988</ele>
<time>2017-10-20T06:42:02.000Z</time>
</trkpt>
<trkpt lat="31.7825650" lon="35.1152430">
<ele>724.100037</ele>
<time>2017-10-20T06:42:04.000Z</time>
</trkpt>
<trkpt lat="31.7826040" lon="35.1152260">
<ele>724.500000</ele>
<time>2017-10-20T06:42:06.000Z</time>
</trkpt>
<trkpt lat="31.7826490" lon="35.1152080">
<ele>724.299988</ele>
<time>2017-10-20T06:42:08.000Z</time>
</trkpt>
<trkpt lat="31.7826810" lon="35.1152010">
<ele>723.200012</ele>
<time>2017-10-20T06:42:10.000Z</time>
</trkpt>
<trkpt lat="31.7827170" lon="35.1151880">
<ele>722.000000</ele>
<time>2017-10-20T06:42:12.000Z</time>
</trkpt>
<trkpt lat="31.7827470" lon="35.1151710">
<ele>722.000000</ele>
<time>2017-10-20T06:42:14.000Z</time>
</trkpt>
<trkpt lat="31.7827730" lon="35.1151580">
<ele>720.699951</ele>
<time>2017-10-20T06:42:16.000Z</time>
</trkpt>
<trkpt lat="31.7827980" lon="35.1151390">
<ele>719.500000</ele>
<time>2017-10-20T06:42:20.000Z</time>
</trkpt>
<trkpt lat="31.7828280" lon="35.1151190">
<ele>719.599976</ele>
<time>2017-10-20T06:42:22.000Z</time>
</trkpt>
<trkpt lat="31.7828570" lon="35.1151010">
<ele>718.299988</ele>
<time>2017-10-20T06:42:24.000Z</time>
</trkpt>
<trkpt lat="31.7828810" lon="35.1150800">
<ele>718.000000</ele>
<time>2017-10-20T06:42:26.000Z</time>
</trkpt>
<trkpt lat="31.7829060" lon="35.1150600">
<ele>716.700012</ele>
<time>2017-10-20T06:42:28.000Z</time>
</trkpt>
<trkpt lat="31.7829290" lon="35.1150310">
<ele>716.499939</ele>
<time>2017-10-20T06:42:31.000Z</time>
</trkpt>
<trkpt lat="31.7829500" lon="35.1150080">
<ele>715.800049</ele>
<time>2017-10-20T06:42:34.000Z</time>
</trkpt>
<trkpt lat="31.7829790" lon="35.1149780">
<ele>714.500000</ele>
<time>2017-10-20T06:42:38.000Z</time>
</trkpt>
<trkpt lat="31.7830010" lon="35.1149590">
<ele>714.000000</ele>
<time>2017-10-20T06:42:41.000Z</time>
</trkpt>
<trkpt lat="31.7830290" lon="35.1149490">
<ele>712.599976</ele>
<time>2017-10-20T06:42:44.000Z</time>
</trkpt>
<trkpt lat="31.7830720" lon="35.1149530">
<ele>711.199951</ele>
<time>2017-10-20T06:42:47.000Z</time>
</trkpt>
<trkpt lat="31.7831000" lon="35.1149580">
<ele>711.400024</ele>
<time>2017-10-20T06:42:48.000Z</time>
</trkpt>
<trkpt lat="31.7831390" lon="35.1149520">
<ele>711.699951</ele>
<time>2017-10-20T06:42:49.000Z</time>
</trkpt>
<trkpt lat="31.7831940" lon="35.1149600">
<ele>712.200012</ele>
<time>2017-10-20T06:42:50.000Z</time>
</trkpt>
<trkpt lat="31.7832770" lon="35.1149770">
<ele>712.899963</ele>
<time>2017-10-20T06:42:51.000Z</time>
</trkpt>
<trkpt lat="31.7833470" lon="35.1149920">
<ele>713.099976</ele>
<time>2017-10-20T06:42:52.000Z</time>
</trkpt>
<trkpt lat="31.7834020" lon="35.1149970">
<ele>713.299988</ele>
<time>2017-10-20T06:42:53.000Z</time>
</trkpt>
<trkpt lat="31.7834270" lon="35.1150400">
<ele>712.700012</ele>
<time>2017-10-20T06:42:54.000Z</time>
</trkpt>
<trkpt lat="31.7834420" lon="35.1150890">
<ele>712.500000</ele>
<time>2017-10-20T06:42:55.000Z</time>
</trkpt>
<trkpt lat="31.7834530" lon="35.1151330">
<ele>712.399963</ele>
<time>2017-10-20T06:42:56.000Z</time>
</trkpt>
<trkpt lat="31.7834670" lon="35.1151640">
<ele>712.299988</ele>
<time>2017-10-20T06:42:57.000Z</time>
</trkpt>
<trkpt lat="31.7834420" lon="35.1151240">
<ele>711.000000</ele>
<time>2017-10-20T06:42:58.000Z</time>
</trkpt>
<trkpt lat="31.7835150" lon="35.1151530">
<ele>712.100037</ele>
<time>2017-10-20T06:43:03.000Z</time>
</trkpt>
<trkpt lat="31.7835420" lon="35.1151500">
<ele>712.200012</ele>
<time>2017-10-20T06:43:04.000Z</time>
</trkpt>
<trkpt lat="31.7835900" lon="35.1151270">
<ele>712.500000</ele>
<time>2017-10-20T06:43:05.000Z</time>
</trkpt>
<trkpt lat="31.7836270" lon="35.1151080">
<ele>712.700012</ele>
<time>2017-10-20T06:43:06.000Z</time>
</trkpt>
<trkpt lat="31.7836580" lon="35.1150940">
<ele>712.800049</ele>
<time>2017-10-20T06:43:07.000Z</time>
</trkpt>
<trkpt lat="31.7836850" lon="35.1150820">
<ele>713.000000</ele>
<time>2017-10-20T06:43:08.000Z</time>
</trkpt>
<trkpt lat="31.7837150" lon="35.1150710">
<ele>713.099976</ele>
<time>2017-10-20T06:43:09.000Z</time>
</trkpt>
<trkpt lat="31.7837430" lon="35.1150620">
<ele>713.299988</ele>
<time>2017-10-20T06:43:10.000Z</time>
</trkpt>
<trkpt lat="31.7837720" lon="35.1150520">
<ele>713.400024</ele>
<time>2017-10-20T06:43:11.000Z</time>
</trkpt>
<trkpt lat="31.7838170" lon="35.1150310">
<ele>713.700012</ele>
<time>2017-10-20T06:43:13.000Z</time>
</trkpt>
<trkpt lat="31.7838500" lon="35.1150210">
<ele>713.799988</ele>
<time>2017-10-20T06:43:15.000Z</time>
</trkpt>
<trkpt lat="31.7838780" lon="35.1150140">
<ele>714.000000</ele>
<time>2017-10-20T06:43:17.000Z</time>
</trkpt>
<trkpt lat="31.7839160" lon="35.1149990">
<ele>712.899963</ele>
<time>2017-10-20T06:43:20.000Z</time>
</trkpt>
<trkpt lat="31.7839440" lon="35.1149830">
<ele>711.600037</ele>
<time>2017-10-20T06:43:22.000Z</time>
</trkpt>
<trkpt lat="31.7839830" lon="35.1149590">
<ele>712.000000</ele>
<time>2017-10-20T06:43:24.000Z</time>
</trkpt>
<trkpt lat="31.7840220" lon="35.1149290">
<ele>712.299988</ele>
<time>2017-10-20T06:43:26.000Z</time>
</trkpt>
<trkpt lat="31.7840630" lon="35.1148960">
<ele>712.500000</ele>
<time>2017-10-20T06:43:28.000Z</time>
</trkpt>
<trkpt lat="31.7840960" lon="35.1148610">
<ele>712.800049</ele>
<time>2017-10-20T06:43:30.000Z</time>
</trkpt>
<trkpt lat="31.7841280" lon="35.1148120">
<ele>713.000000</ele>
<time>2017-10-20T06:43:32.000Z</time>
</trkpt>
<trkpt lat="31.7841390" lon="35.1147800">
<ele>713.099976</ele>
<time>2017-10-20T06:43:33.000Z</time>
</trkpt>
<trkpt lat="31.7841500" lon="35.1147490">
<ele>713.000000</ele>
<time>2017-10-20T06:43:34.000Z</time>
</trkpt>
<trkpt lat="31.7841570" lon="35.1147160">
<ele>713.599976</ele>
<time>2017-10-20T06:43:35.000Z</time>
</trkpt>
<trkpt lat="31.7841640" lon="35.1146850">
<ele>713.799988</ele>
<time>2017-10-20T06:43:36.000Z</time>
</trkpt>
<trkpt lat="31.7841790" lon="35.1146360">
<ele>714.199951</ele>
<time>2017-10-20T06:43:38.000Z</time>
</trkpt>
<trkpt lat="31.7842070" lon="35.1145890">
<ele>714.600037</ele>
<time>2017-10-20T06:43:40.000Z</time>
</trkpt>
<trkpt lat="31.7842230" lon="35.1145560">
<ele>714.899963</ele>
<time>2017-10-20T06:43:41.000Z</time>
</trkpt>
<trkpt lat="31.7842330" lon="35.1145120">
<ele>716.000000</ele>
<time>2017-10-20T06:43:42.000Z</time>
</trkpt>
<trkpt lat="31.7842280" lon="35.1144650">
<ele>715.700012</ele>
<time>2017-10-20T06:43:43.000Z</time>
</trkpt>
<trkpt lat="31.7842220" lon="35.1144140">
<ele>715.599976</ele>
<time>2017-10-20T06:43:44.000Z</time>
</trkpt>
<trkpt lat="31.7842170" lon="35.1143510">
<ele>715.500000</ele>
<time>2017-10-20T06:43:45.000Z</time>
</trkpt>
<trkpt lat="31.7842090" lon="35.1142880">
<ele>715.299988</ele>
<time>2017-10-20T06:43:46.000Z</time>
</trkpt>
<trkpt lat="31.7841980" lon="35.1142230">
<ele>715.200012</ele>
<time>2017-10-20T06:43:47.000Z</time>
</trkpt>
<trkpt lat="31.7841850" lon="35.1141590">
<ele>715.000000</ele>
<time>2017-10-20T06:43:48.000Z</time>
</trkpt>
<trkpt lat="31.7841700" lon="35.1140910">
<ele>714.899963</ele>
<time>2017-10-20T06:43:49.000Z</time>
</trkpt>
<trkpt lat="31.7841560" lon="35.1140270">
<ele>714.799988</ele>
<time>2017-10-20T06:43:50.000Z</time>
</trkpt>
<trkpt lat="31.7841440" lon="35.1139730">
<ele>714.699951</ele>
<time>2017-10-20T06:43:51.000Z</time>
</trkpt>
<trkpt lat="31.7841330" lon="35.1139200">
<ele>714.699951</ele>
<time>2017-10-20T06:43:52.000Z</time>
</trkpt>
<trkpt lat="31.7841230" lon="35.1138660">
<ele>714.600037</ele>
<time>2017-10-20T06:43:53.000Z</time>
</trkpt>
<trkpt lat="31.7841130" lon="35.1138090">
<ele>714.600037</ele>
<time>2017-10-20T06:43:54.000Z</time>
</trkpt>
<trkpt lat="31.7841040" lon="35.1137550">
<ele>714.600037</ele>
<time>2017-10-20T06:43:55.000Z</time>
</trkpt>
<trkpt lat="31.7840940" lon="35.1137040">
<ele>714.600037</ele>
<time>2017-10-20T06:43:56.000Z</time>
</trkpt>
<trkpt lat="31.7840830" lon="35.1136550">
<ele>714.600037</ele>
<time>2017-10-20T06:43:57.000Z</time>
</trkpt>
<trkpt lat="31.7840640" lon="35.1135630">
<ele>714.699951</ele>
<time>2017-10-20T06:43:58.000Z</time>
</trkpt>
<trkpt lat="31.7840510" lon="35.1135180">
<ele>714.799988</ele>
<time>2017-10-20T06:43:59.000Z</time>
</trkpt>
<trkpt lat="31.7840390" lon="35.1134790">
<ele>714.799988</ele>
<time>2017-10-20T06:44:00.000Z</time>
</trkpt>
<trkpt lat="31.7840300" lon="35.1134310">
<ele>714.899963</ele>
<time>2017-10-20T06:44:01.000Z</time>
</trkpt>
<trkpt lat="31.7840200" lon="35.1133860">
<ele>715.000000</ele>
<time>2017-10-20T06:44:02.000Z</time>
</trkpt>
<trkpt lat="31.7840090" lon="35.1133420">
<ele>715.100037</ele>
<time>2017-10-20T06:44:03.000Z</time>
</trkpt>
<trkpt lat="31.7839990" lon="35.1132920">
<ele>715.100037</ele>
<time>2017-10-20T06:44:04.000Z</time>
</trkpt>
<trkpt lat="31.7839890" lon="35.1132420">
<ele>715.200012</ele>
<time>2017-10-20T06:44:05.000Z</time>
</trkpt>
<trkpt lat="31.7839750" lon="35.1131590">
<ele>715.200012</ele>
<time>2017-10-20T06:44:06.000Z</time>
</trkpt>
<trkpt lat="31.7839650" lon="35.1131010">
<ele>715.200012</ele>
<time>2017-10-20T06:44:07.000Z</time>
</trkpt>
<trkpt lat="31.7839540" lon="35.1130440">
<ele>715.100037</ele>
<time>2017-10-20T06:44:08.000Z</time>
</trkpt>
<trkpt lat="31.7839450" lon="35.1130040">
<ele>715.100037</ele>
<time>2017-10-20T06:44:09.000Z</time>
</trkpt>
<trkpt lat="31.7839350" lon="35.1129660">
<ele>715.000000</ele>
<time>2017-10-20T06:44:10.000Z</time>
</trkpt>
<trkpt lat="31.7839250" lon="35.1129240">
<ele>715.000000</ele>
<time>2017-10-20T06:44:11.000Z</time>
</trkpt>
<trkpt lat="31.7839180" lon="35.1128880">
<ele>714.899963</ele>
<time>2017-10-20T06:44:12.000Z</time>
</trkpt>
<trkpt lat="31.7839090" lon="35.1128510">
<ele>714.799988</ele>
<time>2017-10-20T06:44:13.000Z</time>
</trkpt>
<trkpt lat="31.7839010" lon="35.1128150">
<ele>714.799988</ele>
<time>2017-10-20T06:44:14.000Z</time>
</trkpt>
<trkpt lat="31.7838920" lon="35.1127780">
<ele>714.699951</ele>
<time>2017-10-20T06:44:15.000Z</time>
</trkpt>
<trkpt lat="31.7838830" lon="35.1127400">
<ele>714.600037</ele>
<time>2017-10-20T06:44:16.000Z</time>
</trkpt>
<trkpt lat="31.7838760" lon="35.1127050">
<ele>714.500000</ele>
<time>2017-10-20T06:44:17.000Z</time>
</trkpt>
<trkpt lat="31.7838700" lon="35.1126650">
<ele>714.500000</ele>
<time>2017-10-20T06:44:18.000Z</time>
</trkpt>
<trkpt lat="31.7838620" lon="35.1126290">
<ele>714.400024</ele>
<time>2017-10-20T06:44:19.000Z</time>
</trkpt>
<trkpt lat="31.7838560" lon="35.1125960">
<ele>714.299988</ele>
<time>2017-10-20T06:44:20.000Z</time>
</trkpt>
<trkpt lat="31.7838490" lon="35.1125640">
<ele>714.199951</ele>
<time>2017-10-20T06:44:21.000Z</time>
</trkpt>
<trkpt lat="31.7838380" lon="35.1125010">
<ele>714.099976</ele>
<time>2017-10-20T06:44:23.000Z</time>
</trkpt>
<trkpt lat="31.7838340" lon="35.1124690">
<ele>714.000000</ele>
<time>2017-10-20T06:44:24.000Z</time>
</trkpt>
<trkpt lat="31.7838280" lon="35.1124060">
<ele>713.700012</ele>
<time>2017-10-20T06:44:26.000Z</time>
</trkpt>
<trkpt lat="31.7838180" lon="35.1123490">
<ele>713.400024</ele>
<time>2017-10-20T06:44:28.000Z</time>
</trkpt>
<trkpt lat="31.7838110" lon="35.1123170">
<ele>713.299988</ele>
<time>2017-10-20T06:44:29.000Z</time>
</trkpt>
<trkpt lat="31.7838010" lon="35.1122850">
<ele>713.099976</ele>
<time>2017-10-20T06:44:30.000Z</time>
</trkpt>
<trkpt lat="31.7837910" lon="35.1122500">
<ele>713.000000</ele>
<time>2017-10-20T06:44:31.000Z</time>
</trkpt>
<trkpt lat="31.7837830" lon="35.1122150">
<ele>713.000000</ele>
<time>2017-10-20T06:44:32.000Z</time>
</trkpt>
<trkpt lat="31.7837690" lon="35.1121510">
<ele>712.899963</ele>
<time>2017-10-20T06:44:34.000Z</time>
</trkpt>
<trkpt lat="31.7837590" lon="35.1121200">
<ele>712.899963</ele>
<time>2017-10-20T06:44:35.000Z</time>
</trkpt>
<trkpt lat="31.7837500" lon="35.1120880">
<ele>712.899963</ele>
<time>2017-10-20T06:44:36.000Z</time>
</trkpt>
<trkpt lat="31.7837400" lon="35.1120540">
<ele>713.000000</ele>
<time>2017-10-20T06:44:37.000Z</time>
</trkpt>
<trkpt lat="31.7837300" lon="35.1120180">
<ele>713.000000</ele>
<time>2017-10-20T06:44:38.000Z</time>
</trkpt>
<trkpt lat="31.7837180" lon="35.1119830">
<ele>713.000000</ele>
<time>2017-10-20T06:44:39.000Z</time>
</trkpt>
<trkpt lat="31.7837090" lon="35.1119460">
<ele>713.099976</ele>
<time>2017-10-20T06:44:40.000Z</time>
</trkpt>
<trkpt lat="31.7836990" lon="35.1119090">
<ele>713.099976</ele>
<time>2017-10-20T06:44:41.000Z</time>
</trkpt>
<trkpt lat="31.7836870" lon="35.1118670">
<ele>713.099976</ele>
<time>2017-10-20T06:44:42.000Z</time>
</trkpt>
<trkpt lat="31.7836740" lon="35.1118230">
<ele>713.099976</ele>
<time>2017-10-20T06:44:43.000Z</time>
</trkpt>
<trkpt lat="31.7836630" lon="35.1117810">
<ele>713.000000</ele>
<time>2017-10-20T06:44:44.000Z</time>
</trkpt>
<trkpt lat="31.7836460" lon="35.1117330">
<ele>712.899963</ele>
<time>2017-10-20T06:44:45.000Z</time>
</trkpt>
<trkpt lat="31.7836340" lon="35.1116850">
<ele>712.700012</ele>
<time>2017-10-20T06:44:46.000Z</time>
</trkpt>
<trkpt lat="31.7836160" lon="35.1116380">
<ele>712.399963</ele>
<time>2017-10-20T06:44:47.000Z</time>
</trkpt>
<trkpt lat="31.7836010" lon="35.1115870">
<ele>712.100037</ele>
<time>2017-10-20T06:44:48.000Z</time>
</trkpt>
<trkpt lat="31.7835870" lon="35.1115340">
<ele>711.899963</ele>
<time>2017-10-20T06:44:49.000Z</time>
</trkpt>
<trkpt lat="31.7835750" lon="35.1114810">
<ele>711.799988</ele>
<time>2017-10-20T06:44:50.000Z</time>
</trkpt>
<trkpt lat="31.7835610" lon="35.1114300">
<ele>711.799988</ele>
<time>2017-10-20T06:44:51.000Z</time>
</trkpt>
<trkpt lat="31.7835450" lon="35.1113770">
<ele>711.799988</ele>
<time>2017-10-20T06:44:52.000Z</time>
</trkpt>
<trkpt lat="31.7835310" lon="35.1113220">
<ele>711.799988</ele>
<time>2017-10-20T06:44:53.000Z</time>
</trkpt>
<trkpt lat="31.7835160" lon="35.1112630">
<ele>711.699951</ele>
<time>2017-10-20T06:44:54.000Z</time>
</trkpt>
<trkpt lat="31.7835000" lon="35.1112080">
<ele>711.600037</ele>
<time>2017-10-20T06:44:55.000Z</time>
</trkpt>
<trkpt lat="31.7834860" lon="35.1111580">
<ele>711.400024</ele>
<time>2017-10-20T06:44:56.000Z</time>
</trkpt>
<trkpt lat="31.7834770" lon="35.1111150">
<ele>711.100037</ele>
<time>2017-10-20T06:44:57.000Z</time>
</trkpt>
<trkpt lat="31.7834650" lon="35.1110700">
<ele>710.900024</ele>
<time>2017-10-20T06:44:58.000Z</time>
</trkpt>
<trkpt lat="31.7834510" lon="35.1110240">
<ele>710.599976</ele>
<time>2017-10-20T06:44:59.000Z</time>
</trkpt>
<trkpt lat="31.7834420" lon="35.1109860">
<ele>710.500061</ele>
<time>2017-10-20T06:45:00.000Z</time>
</trkpt>
<trkpt lat="31.7834290" lon="35.1109480">
<ele>710.400024</ele>
<time>2017-10-20T06:45:01.000Z</time>
</trkpt>
<trkpt lat="31.7834170" lon="35.1109060">
<ele>710.400024</ele>
<time>2017-10-20T06:45:02.000Z</time>
</trkpt>
<trkpt lat="31.7834040" lon="35.1108640">
<ele>710.400024</ele>
<time>2017-10-20T06:45:03.000Z</time>
</trkpt>
<trkpt lat="31.7833940" lon="35.1108190">
<ele>710.400024</ele>
<time>2017-10-20T06:45:04.000Z</time>
</trkpt>
<trkpt lat="31.7833830" lon="35.1107750">
<ele>710.400024</ele>
<time>2017-10-20T06:45:05.000Z</time>
</trkpt>
<trkpt lat="31.7833700" lon="35.1107420">
<ele>710.299988</ele>
<time>2017-10-20T06:45:06.000Z</time>
</trkpt>
<trkpt lat="31.7833560" lon="35.1106930">
<ele>710.200012</ele>
<time>2017-10-20T06:45:08.000Z</time>
</trkpt>
<trkpt lat="31.7833400" lon="35.1106300">
<ele>710.000000</ele>
<time>2017-10-20T06:45:10.000Z</time>
</trkpt>
<trkpt lat="31.7833290" lon="35.1105940">
<ele>709.800049</ele>
<time>2017-10-20T06:45:11.000Z</time>
</trkpt>
<trkpt lat="31.7833190" lon="35.1105580">
<ele>709.599976</ele>
<time>2017-10-20T06:45:12.000Z</time>
</trkpt>
<trkpt lat="31.7833100" lon="35.1105170">
<ele>709.399963</ele>
<time>2017-10-20T06:45:13.000Z</time>
</trkpt>
<trkpt lat="31.7832990" lon="35.1104740">
<ele>709.300049</ele>
<time>2017-10-20T06:45:14.000Z</time>
</trkpt>
<trkpt lat="31.7832890" lon="35.1104280">
<ele>709.200012</ele>
<time>2017-10-20T06:45:15.000Z</time>
</trkpt>
<trkpt lat="31.7832780" lon="35.1103830">
<ele>709.100037</ele>
<time>2017-10-20T06:45:16.000Z</time>
</trkpt>
<trkpt lat="31.7832680" lon="35.1103450">
<ele>709.100037</ele>
<time>2017-10-20T06:45:17.000Z</time>
</trkpt>
<trkpt lat="31.7832580" lon="35.1103090">
<ele>709.100037</ele>
<time>2017-10-20T06:45:18.000Z</time>
</trkpt>
<trkpt lat="31.7832450" lon="35.1102630">
<ele>709.200012</ele>
<time>2017-10-20T06:45:20.000Z</time>
</trkpt>
<trkpt lat="31.7832350" lon="35.1102300">
<ele>709.200012</ele>
<time>2017-10-20T06:45:22.000Z</time>
</trkpt>
<trkpt lat="31.7832280" lon="35.1101960">
<ele>709.200012</ele>
<time>2017-10-20T06:45:25.000Z</time>
</trkpt>
<trkpt lat="31.7832620" lon="35.1102030">
<ele>707.200012</ele>
<time>2017-10-20T06:45:32.000Z</time>
</trkpt>
<trkpt lat="31.7832880" lon="35.1102220">
<ele>705.199951</ele>
<time>2017-10-20T06:45:35.000Z</time>
</trkpt>
<trkpt lat="31.7833150" lon="35.1102260">
<ele>705.400024</ele>
<time>2017-10-20T06:45:39.000Z</time>
</trkpt>
<trkpt lat="31.7833460" lon="35.1102330">
<ele>705.600037</ele>
<time>2017-10-20T06:46:04.000Z</time>
</trkpt>
<trkpt lat="31.7833590" lon="35.1102730">
<ele>705.700012</ele>
<time>2017-10-20T06:46:08.000Z</time>
</trkpt>
<trkpt lat="31.7833780" lon="35.1102970">
<ele>705.799988</ele>
<time>2017-10-20T06:46:10.000Z</time>
</trkpt>
<trkpt lat="31.7833970" lon="35.1103200">
<ele>705.899963</ele>
<time>2017-10-20T06:46:12.000Z</time>
</trkpt>
<trkpt lat="31.7834270" lon="35.1103190">
<ele>706.000000</ele>
<time>2017-10-20T06:46:17.000Z</time>
</trkpt>
<trkpt lat="31.7834150" lon="35.1103480">
<ele>706.100037</ele>
<time>2017-10-20T06:50:20.000Z</time>
</trkpt>
<trkpt lat="31.7834010" lon="35.1103130">
<ele>705.899963</ele>
<time>2017-10-20T06:52:06.000Z</time>
</trkpt>
<trkpt lat="31.7834060" lon="35.1102680">
<ele>705.700012</ele>
<time>2017-10-20T06:52:09.000Z</time>
</trkpt>
<trkpt lat="31.7833930" lon="35.1102240">
<ele>705.500000</ele>
<time>2017-10-20T06:52:12.000Z</time>
</trkpt>
<trkpt lat="31.7833820" lon="35.1101930">
<ele>705.299988</ele>
<time>2017-10-20T06:52:16.000Z</time>
</trkpt>
<trkpt lat="31.7833540" lon="35.1101750">
<ele>704.900024</ele>
<time>2017-10-20T06:52:30.000Z</time>
</trkpt>
<trkpt lat="31.7833400" lon="35.1101460">
<ele>704.599976</ele>
<time>2017-10-20T06:52:32.000Z</time>
</trkpt>
<trkpt lat="31.7833340" lon="35.1101030">
<ele>704.200012</ele>
<time>2017-10-20T06:52:34.000Z</time>
</trkpt>
<trkpt lat="31.7833150" lon="35.1100480">
<ele>703.900024</ele>
<time>2017-10-20T06:52:36.000Z</time>
</trkpt>
<trkpt lat="31.7833060" lon="35.1100170">
<ele>703.799988</ele>
<time>2017-10-20T06:52:37.000Z</time>
</trkpt>
<trkpt lat="31.7832920" lon="35.1099810">
<ele>703.599976</ele>
<time>2017-10-20T06:52:38.000Z</time>
</trkpt>
<trkpt lat="31.7832750" lon="35.1099420">
<ele>703.500000</ele>
<time>2017-10-20T06:52:39.000Z</time>
</trkpt>
<trkpt lat="31.7832580" lon="35.1098980">
<ele>703.399963</ele>
<time>2017-10-20T06:52:40.000Z</time>
</trkpt>
<trkpt lat="31.7832420" lon="35.1098590">
<ele>703.300049</ele>
<time>2017-10-20T06:52:41.000Z</time>
</trkpt>
<trkpt lat="31.7832280" lon="35.1098220">
<ele>703.300049</ele>
<time>2017-10-20T06:52:42.000Z</time>
</trkpt>
<trkpt lat="31.7832110" lon="35.1097840">
<ele>703.200012</ele>
<time>2017-10-20T06:52:43.000Z</time>
</trkpt>
<trkpt lat="31.7831960" lon="35.1097470">
<ele>703.200012</ele>
<time>2017-10-20T06:52:44.000Z</time>
</trkpt>
<trkpt lat="31.7831800" lon="35.1097010">
<ele>703.099976</ele>
<time>2017-10-20T06:52:45.000Z</time>
</trkpt>
<trkpt lat="31.7831620" lon="35.1096560">
<ele>703.099976</ele>
<time>2017-10-20T06:52:46.000Z</time>
</trkpt>
<trkpt lat="31.7831460" lon="35.1096110">
<ele>703.000000</ele>
<time>2017-10-20T06:52:47.000Z</time>
</trkpt>
<trkpt lat="31.7831370" lon="35.1095640">
<ele>703.000000</ele>
<time>2017-10-20T06:52:48.000Z</time>
</trkpt>
<trkpt lat="31.7831260" lon="35.1095200">
<ele>702.899963</ele>
<time>2017-10-20T06:52:49.000Z</time>
</trkpt>
<trkpt lat="31.7831140" lon="35.1094760">
<ele>702.799988</ele>
<time>2017-10-20T06:52:50.000Z</time>
</trkpt>
<trkpt lat="31.7830960" lon="35.1094310">
<ele>702.600037</ele>
<time>2017-10-20T06:52:51.000Z</time>
</trkpt>
<trkpt lat="31.7830810" lon="35.1093950">
<ele>702.299988</ele>
<time>2017-10-20T06:52:52.000Z</time>
</trkpt>
<trkpt lat="31.7830670" lon="35.1093560">
<ele>701.900024</ele>
<time>2017-10-20T06:52:53.000Z</time>
</trkpt>
<trkpt lat="31.7830600" lon="35.1093160">
<ele>701.500000</ele>
<time>2017-10-20T06:52:54.000Z</time>
</trkpt>
<trkpt lat="31.7830490" lon="35.1092720">
<ele>701.400024</ele>
<time>2017-10-20T06:52:55.000Z</time>
</trkpt>
<trkpt lat="31.7830340" lon="35.1092230">
<ele>701.200012</ele>
<time>2017-10-20T06:52:56.000Z</time>
</trkpt>
<trkpt lat="31.7830190" lon="35.1091680">
<ele>700.999939</ele>
<time>2017-10-20T06:52:57.000Z</time>
</trkpt>
<trkpt lat="31.7830060" lon="35.1091070">
<ele>700.799988</ele>
<time>2017-10-20T06:52:58.000Z</time>
</trkpt>
<trkpt lat="31.7829910" lon="35.1090450">
<ele>700.500000</ele>
<time>2017-10-20T06:52:59.000Z</time>
</trkpt>
<trkpt lat="31.7829840" lon="35.1089800">
<ele>700.300049</ele>
<time>2017-10-20T06:53:00.000Z</time>
</trkpt>
<trkpt lat="31.7829790" lon="35.1089160">
<ele>699.799988</ele>
<time>2017-10-20T06:53:01.000Z</time>
</trkpt>
<trkpt lat="31.7829700" lon="35.1088460">
<ele>699.199951</ele>
<time>2017-10-20T06:53:02.000Z</time>
</trkpt>
<trkpt lat="31.7829560" lon="35.1087800">
<ele>698.900024</ele>
<time>2017-10-20T06:53:03.000Z</time>
</trkpt>
<trkpt lat="31.7829450" lon="35.1087190">
<ele>698.599976</ele>
<time>2017-10-20T06:53:04.000Z</time>
</trkpt>
<trkpt lat="31.7829350" lon="35.1086420">
<ele>698.500000</ele>
<time>2017-10-20T06:53:05.000Z</time>
</trkpt>
<trkpt lat="31.7829230" lon="35.1085650">
<ele>698.299988</ele>
<time>2017-10-20T06:53:06.000Z</time>
</trkpt>
<trkpt lat="31.7829140" lon="35.1084910">
<ele>698.299988</ele>
<time>2017-10-20T06:53:07.000Z</time>
</trkpt>
<trkpt lat="31.7829110" lon="35.1084220">
<ele>698.200012</ele>
<time>2017-10-20T06:53:08.000Z</time>
</trkpt>
<trkpt lat="31.7829050" lon="35.1083590">
<ele>698.099976</ele>
<time>2017-10-20T06:53:09.000Z</time>
</trkpt>
<trkpt lat="31.7828950" lon="35.1083020">
<ele>698.099976</ele>
<time>2017-10-20T06:53:10.000Z</time>
</trkpt>
<trkpt lat="31.7828860" lon="35.1082520">
<ele>698.000061</ele>
<time>2017-10-20T06:53:11.000Z</time>
</trkpt>
<trkpt lat="31.7828840" lon="35.1082130">
<ele>698.000061</ele>
<time>2017-10-20T06:53:12.000Z</time>
</trkpt>
<trkpt lat="31.7828820" lon="35.1081740">
<ele>698.000061</ele>
<time>2017-10-20T06:53:13.000Z</time>
</trkpt>
<trkpt lat="31.7828790" lon="35.1081400">
<ele>698.000061</ele>
<time>2017-10-20T06:53:14.000Z</time>
</trkpt>
<trkpt lat="31.7828700" lon="35.1081090">
<ele>698.000061</ele>
<time>2017-10-20T06:53:15.000Z</time>
</trkpt>
<trkpt lat="31.7828310" lon="35.1080700">
<ele>698.000061</ele>
<time>2017-10-20T06:53:17.000Z</time>
</trkpt>
<trkpt lat="31.7827950" lon="35.1080640">
<ele>698.000061</ele>
<time>2017-10-20T06:53:19.000Z</time>
</trkpt>
<trkpt lat="31.7827610" lon="35.1080840">
<ele>698.099976</ele>
<time>2017-10-20T06:53:21.000Z</time>
</trkpt>
<trkpt lat="31.7827330" lon="35.1080800">
<ele>698.099976</ele>
<time>2017-10-20T06:53:23.000Z</time>
</trkpt>
<trkpt lat="31.7827310" lon="35.1080230">
<ele>698.200012</ele>
<time>2017-10-20T06:53:25.000Z</time>
</trkpt>
<trkpt lat="31.7827330" lon="35.1079910">
<ele>698.400024</ele>
<time>2017-10-20T06:53:26.000Z</time>
</trkpt>
<trkpt lat="31.7827270" lon="35.1079360">
<ele>698.699951</ele>
<time>2017-10-20T06:53:28.000Z</time>
</trkpt>
<trkpt lat="31.7827180" lon="35.1078840">
<ele>699.100037</ele>
<time>2017-10-20T06:53:30.000Z</time>
</trkpt>
<trkpt lat="31.7827080" lon="35.1078350">
<ele>699.100037</ele>
<time>2017-10-20T06:53:32.000Z</time>
</trkpt>
<trkpt lat="31.7827210" lon="35.1077810">
<ele>699.000000</ele>
<time>2017-10-20T06:53:34.000Z</time>
</trkpt>
<trkpt lat="31.7827290" lon="35.1077200">
<ele>698.900024</ele>
<time>2017-10-20T06:53:36.000Z</time>
</trkpt>
<trkpt lat="31.7827340" lon="35.1076640">
<ele>698.799988</ele>
<time>2017-10-20T06:53:38.000Z</time>
</trkpt>
<trkpt lat="31.7827290" lon="35.1076060">
<ele>698.599976</ele>
<time>2017-10-20T06:53:40.000Z</time>
</trkpt>
<trkpt lat="31.7827330" lon="35.1075740">
<ele>698.599976</ele>
<time>2017-10-20T06:53:42.000Z</time>
</trkpt>
<trkpt lat="31.7827060" lon="35.1075800">
<ele>698.500000</ele>
<time>2017-10-20T06:57:32.000Z</time>
</trkpt>
<trkpt lat="31.7826810" lon="35.1075640">
<ele>698.400024</ele>
<time>2017-10-20T06:58:01.000Z</time>
</trkpt>
<trkpt lat="31.7827050" lon="35.1075290">
<ele>698.299988</ele>
<time>2017-10-20T06:59:06.000Z</time>
</trkpt>
<trkpt lat="31.7827290" lon="35.1075140">
<ele>698.200012</ele>
<time>2017-10-20T06:59:17.000Z</time>
</trkpt>
<trkpt lat="31.7827470" lon="35.1075420">
<ele>698.099976</ele>
<time>2017-10-20T06:59:53.000Z</time>
</trkpt>
<trkpt lat="31.7827500" lon="35.1075830">
<ele>698.099976</ele>
<time>2017-10-20T06:59:56.000Z</time>
</trkpt>
<trkpt lat="31.7827360" lon="35.1076240">
<ele>698.000061</ele>
<time>2017-10-20T06:59:59.000Z</time>
</trkpt>
<trkpt lat="31.7827250" lon="35.1076610">
<ele>697.900024</ele>
<time>2017-10-20T07:00:03.000Z</time>
</trkpt>
<trkpt lat="31.7826900" lon="35.1076450">
<ele>697.900024</ele>
<time>2017-10-20T07:00:12.000Z</time>
</trkpt>
<trkpt lat="31.7826840" lon="35.1075920">
<ele>697.799988</ele>
<time>2017-10-20T07:00:14.000Z</time>
</trkpt>
<trkpt lat="31.7826840" lon="35.1075570">
<ele>697.700012</ele>
<time>2017-10-20T07:00:15.000Z</time>
</trkpt>
<trkpt lat="31.7826790" lon="35.1075190">
<ele>697.700012</ele>
<time>2017-10-20T07:00:16.000Z</time>
</trkpt>
<trkpt lat="31.7826640" lon="35.1074800">
<ele>697.599976</ele>
<time>2017-10-20T07:00:17.000Z</time>
</trkpt>
<trkpt lat="31.7826440" lon="35.1074320">
<ele>697.500000</ele>
<time>2017-10-20T07:00:18.000Z</time>
</trkpt>
<trkpt lat="31.7826250" lon="35.1073810">
<ele>697.400024</ele>
<time>2017-10-20T07:00:19.000Z</time>
</trkpt>
<trkpt lat="31.7826010" lon="35.1073270">
<ele>697.200012</ele>
<time>2017-10-20T07:00:20.000Z</time>
</trkpt>
<trkpt lat="31.7825800" lon="35.1072760">
<ele>696.899963</ele>
<time>2017-10-20T07:00:21.000Z</time>
</trkpt>
<trkpt lat="31.7825570" lon="35.1072130">
<ele>696.500000</ele>
<time>2017-10-20T07:00:22.000Z</time>
</trkpt>
<trkpt lat="31.7825360" lon="35.1071510">
<ele>696.299988</ele>
<time>2017-10-20T07:00:23.000Z</time>
</trkpt>
<trkpt lat="31.7825130" lon="35.1070790">
<ele>696.100037</ele>
<time>2017-10-20T07:00:24.000Z</time>
</trkpt>
<trkpt lat="31.7824920" lon="35.1070110">
<ele>695.900024</ele>
<time>2017-10-20T07:00:25.000Z</time>
</trkpt>
<trkpt lat="31.7824700" lon="35.1069400">
<ele>695.400024</ele>
<time>2017-10-20T07:00:26.000Z</time>
</trkpt>
<trkpt lat="31.7824470" lon="35.1068710">
<ele>694.900024</ele>
<time>2017-10-20T07:00:27.000Z</time>
</trkpt>
<trkpt lat="31.7824240" lon="35.1068010">
<ele>694.500000</ele>
<time>2017-10-20T07:00:28.000Z</time>
</trkpt>
<trkpt lat="31.7824010" lon="35.1067290">
<ele>694.200012</ele>
<time>2017-10-20T07:00:29.000Z</time>
</trkpt>
<trkpt lat="31.7823720" lon="35.1066570">
<ele>694.000000</ele>
<time>2017-10-20T07:00:30.000Z</time>
</trkpt>
<trkpt lat="31.7823410" lon="35.1065800">
<ele>693.600037</ele>
<time>2017-10-20T07:00:31.000Z</time>
</trkpt>
<trkpt lat="31.7823150" lon="35.1065010">
<ele>693.100037</ele>
<time>2017-10-20T07:00:32.000Z</time>
</trkpt>
<trkpt lat="31.7822930" lon="35.1064250">
<ele>692.600037</ele>
<time>2017-10-20T07:00:33.000Z</time>
</trkpt>
<trkpt lat="31.7822710" lon="35.1063450">
<ele>692.500000</ele>
<time>2017-10-20T07:00:34.000Z</time>
</trkpt>
<trkpt lat="31.7822420" lon="35.1062630">
<ele>692.299988</ele>
<time>2017-10-20T07:00:35.000Z</time>
</trkpt>
<trkpt lat="31.7822180" lon="35.1061810">
<ele>692.199951</ele>
<time>2017-10-20T07:00:36.000Z</time>
</trkpt>
<trkpt lat="31.7821960" lon="35.1061010">
<ele>692.099976</ele>
<time>2017-10-20T07:00:37.000Z</time>
</trkpt>
<trkpt lat="31.7821710" lon="35.1060190">
<ele>691.700012</ele>
<time>2017-10-20T07:00:38.000Z</time>
</trkpt>
<trkpt lat="31.7821450" lon="35.1059380">
<ele>691.200012</ele>
<time>2017-10-20T07:00:39.000Z</time>
</trkpt>
<trkpt lat="31.7821150" lon="35.1058570">
<ele>690.700012</ele>
<time>2017-10-20T07:00:40.000Z</time>
</trkpt>
<trkpt lat="31.7820890" lon="35.1057720">
<ele>690.500000</ele>
<time>2017-10-20T07:00:41.000Z</time>
</trkpt>
<trkpt lat="31.7820550" lon="35.1056910">
<ele>690.299988</ele>
<time>2017-10-20T07:00:42.000Z</time>
</trkpt>
<trkpt lat="31.7820270" lon="35.1056040">
<ele>690.100037</ele>
<time>2017-10-20T07:00:43.000Z</time>
</trkpt>
<trkpt lat="31.7819970" lon="35.1055180">
<ele>689.600037</ele>
<time>2017-10-20T07:00:44.000Z</time>
</trkpt>
<trkpt lat="31.7819660" lon="35.1054300">
<ele>689.199951</ele>
<time>2017-10-20T07:00:45.000Z</time>
</trkpt>
<trkpt lat="31.7819290" lon="35.1053410">
<ele>689.000000</ele>
<time>2017-10-20T07:00:46.000Z</time>
</trkpt>
<trkpt lat="31.7819020" lon="35.1052460">
<ele>688.799988</ele>
<time>2017-10-20T07:00:47.000Z</time>
</trkpt>
<trkpt lat="31.7818740" lon="35.1051530">
<ele>688.499939</ele>
<time>2017-10-20T07:00:48.000Z</time>
</trkpt>
<trkpt lat="31.7818450" lon="35.1050600">
<ele>688.200012</ele>
<time>2017-10-20T07:00:49.000Z</time>
</trkpt>
<trkpt lat="31.7818170" lon="35.1049660">
<ele>687.599976</ele>
<time>2017-10-20T07:00:50.000Z</time>
</trkpt>
<trkpt lat="31.7817870" lon="35.1048720">
<ele>687.299988</ele>
<time>2017-10-20T07:00:51.000Z</time>
</trkpt>
<trkpt lat="31.7817620" lon="35.1047770">
<ele>687.100037</ele>
<time>2017-10-20T07:00:52.000Z</time>
</trkpt>
<trkpt lat="31.7817310" lon="35.1046850">
<ele>686.899963</ele>
<time>2017-10-20T07:00:53.000Z</time>
</trkpt>
<trkpt lat="31.7816980" lon="35.1045950">
<ele>686.699951</ele>
<time>2017-10-20T07:00:54.000Z</time>
</trkpt>
<trkpt lat="31.7816660" lon="35.1045030">
<ele>686.500000</ele>
<time>2017-10-20T07:00:55.000Z</time>
</trkpt>
<trkpt lat="31.7816330" lon="35.1044130">
<ele>686.000000</ele>
<time>2017-10-20T07:00:56.000Z</time>
</trkpt>
<trkpt lat="31.7816020" lon="35.1043230">
<ele>685.500061</ele>
<time>2017-10-20T07:00:57.000Z</time>
</trkpt>
<trkpt lat="31.7815630" lon="35.1042340">
<ele>685.200012</ele>
<time>2017-10-20T07:00:58.000Z</time>
</trkpt>
<trkpt lat="31.7815290" lon="35.1041430">
<ele>684.900024</ele>
<time>2017-10-20T07:00:59.000Z</time>
</trkpt>
<trkpt lat="31.7815010" lon="35.1040490">
<ele>684.399963</ele>
<time>2017-10-20T07:01:00.000Z</time>
</trkpt>
<trkpt lat="31.7814690" lon="35.1039590">
<ele>684.100037</ele>
<time>2017-10-20T07:01:01.000Z</time>
</trkpt>
<trkpt lat="31.7814360" lon="35.1038720">
<ele>683.899963</ele>
<time>2017-10-20T07:01:02.000Z</time>
</trkpt>
<trkpt lat="31.7814160" lon="35.1037850">
<ele>683.700012</ele>
<time>2017-10-20T07:01:03.000Z</time>
</trkpt>
<trkpt lat="31.7814130" lon="35.1036960">
<ele>683.500000</ele>
<time>2017-10-20T07:01:04.000Z</time>
</trkpt>
<trkpt lat="31.7814240" lon="35.1036100">
<ele>683.000000</ele>
<time>2017-10-20T07:01:05.000Z</time>
</trkpt>
<trkpt lat="31.7814520" lon="35.1035290">
<ele>682.500061</ele>
<time>2017-10-20T07:01:06.000Z</time>
</trkpt>
<trkpt lat="31.7814940" lon="35.1034560">
<ele>682.200012</ele>
<time>2017-10-20T07:01:07.000Z</time>
</trkpt>
<trkpt lat="31.7815370" lon="35.1033830">
<ele>682.000000</ele>
<time>2017-10-20T07:01:08.000Z</time>
</trkpt>
<trkpt lat="31.7815780" lon="35.1033080">
<ele>681.800049</ele>
<time>2017-10-20T07:01:09.000Z</time>
</trkpt>
<trkpt lat="31.7816200" lon="35.1032280">
<ele>681.599976</ele>
<time>2017-10-20T07:01:10.000Z</time>
</trkpt>
<trkpt lat="31.7816740" lon="35.1031530">
<ele>681.200012</ele>
<time>2017-10-20T07:01:11.000Z</time>
</trkpt>
<trkpt lat="31.7817290" lon="35.1030740">
<ele>680.500000</ele>
<time>2017-10-20T07:01:12.000Z</time>
</trkpt>
<trkpt lat="31.7817840" lon="35.1029910">
<ele>679.900024</ele>
<time>2017-10-20T07:01:13.000Z</time>
</trkpt>
<trkpt lat="31.7818310" lon="35.1029000">
<ele>678.200012</ele>
<time>2017-10-20T07:01:14.000Z</time>
</trkpt>
<trkpt lat="31.7818870" lon="35.1028160">
<ele>677.100037</ele>
<time>2017-10-20T07:01:15.000Z</time>
</trkpt>
<trkpt lat="31.7819200" lon="35.1027190">
<ele>675.700012</ele>
<time>2017-10-20T07:01:16.000Z</time>
</trkpt>
<trkpt lat="31.7819720" lon="35.1026460">
<ele>675.099976</ele>
<time>2017-10-20T07:01:17.000Z</time>
</trkpt>
<trkpt lat="31.7820110" lon="35.1025770">
<ele>674.000000</ele>
<time>2017-10-20T07:01:18.000Z</time>
</trkpt>
<trkpt lat="31.7820450" lon="35.1025220">
<ele>673.200012</ele>
<time>2017-10-20T07:01:19.000Z</time>
</trkpt>
<trkpt lat="31.7820750" lon="35.1024640">
<ele>672.400024</ele>
<time>2017-10-20T07:01:20.000Z</time>
</trkpt>
<trkpt lat="31.7821010" lon="35.1024030">
<ele>671.500000</ele>
<time>2017-10-20T07:01:21.000Z</time>
</trkpt>
<trkpt lat="31.7821380" lon="35.1023360">
<ele>670.600037</ele>
<time>2017-10-20T07:01:22.000Z</time>
</trkpt>
<trkpt lat="31.7821730" lon="35.1022660">
<ele>669.700012</ele>
<time>2017-10-20T07:01:23.000Z</time>
</trkpt>
<trkpt lat="31.7822070" lon="35.1021880">
<ele>668.800049</ele>
<time>2017-10-20T07:01:24.000Z</time>
</trkpt>
<trkpt lat="31.7822370" lon="35.1021040">
<ele>668.399963</ele>
<time>2017-10-20T07:01:25.000Z</time>
</trkpt>
<trkpt lat="31.7822670" lon="35.1020240">
<ele>668.000000</ele>
<time>2017-10-20T07:01:26.000Z</time>
</trkpt>
<trkpt lat="31.7822900" lon="35.1019420">
<ele>667.500000</ele>
<time>2017-10-20T07:01:27.000Z</time>
</trkpt>
<trkpt lat="31.7822970" lon="35.1018600">
<ele>666.900024</ele>
<time>2017-10-20T07:01:28.000Z</time>
</trkpt>
<trkpt lat="31.7822990" lon="35.1017780">
<ele>666.299988</ele>
<time>2017-10-20T07:01:29.000Z</time>
</trkpt>
<trkpt lat="31.7823020" lon="35.1016960">
<ele>666.099976</ele>
<time>2017-10-20T07:01:30.000Z</time>
</trkpt>
<trkpt lat="31.7823010" lon="35.1016150">
<ele>665.800049</ele>
<time>2017-10-20T07:01:31.000Z</time>
</trkpt>
<trkpt lat="31.7822940" lon="35.1015310">
<ele>665.500000</ele>
<time>2017-10-20T07:01:32.000Z</time>
</trkpt>
<trkpt lat="31.7822870" lon="35.1014500">
<ele>665.100037</ele>
<time>2017-10-20T07:01:33.000Z</time>
</trkpt>
<trkpt lat="31.7822870" lon="35.1013750">
<ele>664.600037</ele>
<time>2017-10-20T07:01:34.000Z</time>
</trkpt>
<trkpt lat="31.7822860" lon="35.1012980">
<ele>664.000000</ele>
<time>2017-10-20T07:01:35.000Z</time>
</trkpt>
<trkpt lat="31.7822850" lon="35.1012180">
<ele>663.700012</ele>
<time>2017-10-20T07:01:36.000Z</time>
</trkpt>
<trkpt lat="31.7822840" lon="35.1011320">
<ele>663.400024</ele>
<time>2017-10-20T07:01:37.000Z</time>
</trkpt>
<trkpt lat="31.7822860" lon="35.1010450">
<ele>663.099976</ele>
<time>2017-10-20T07:01:38.000Z</time>
</trkpt>
<trkpt lat="31.7822830" lon="35.1009590">
<ele>662.599976</ele>
<time>2017-10-20T07:01:39.000Z</time>
</trkpt>
<trkpt lat="31.7822810" lon="35.1008710">
<ele>662.100037</ele>
<time>2017-10-20T07:01:40.000Z</time>
</trkpt>
<trkpt lat="31.7822740" lon="35.1007760">
<ele>661.600037</ele>
<time>2017-10-20T07:01:41.000Z</time>
</trkpt>
<trkpt lat="31.7822560" lon="35.1006730">
<ele>661.400024</ele>
<time>2017-10-20T07:01:42.000Z</time>
</trkpt>
<trkpt lat="31.7822430" lon="35.1005680">
<ele>661.199951</ele>
<time>2017-10-20T07:01:43.000Z</time>
</trkpt>
<trkpt lat="31.7822480" lon="35.1004620">
<ele>661.099976</ele>
<time>2017-10-20T07:01:44.000Z</time>
</trkpt>
<trkpt lat="31.7822580" lon="35.1003590">
<ele>660.900024</ele>
<time>2017-10-20T07:01:45.000Z</time>
</trkpt>
<trkpt lat="31.7822580" lon="35.1002590">
<ele>660.900024</ele>
<time>2017-10-20T07:01:46.000Z</time>
</trkpt>
<trkpt lat="31.7822560" lon="35.1001580">
<ele>660.799988</ele>
<time>2017-10-20T07:01:47.000Z</time>
</trkpt>
<trkpt lat="31.7822490" lon="35.1000590">
<ele>660.799988</ele>
<time>2017-10-20T07:01:48.000Z</time>
</trkpt>
<trkpt lat="31.7822390" lon="35.0999620">
<ele>660.700012</ele>
<time>2017-10-20T07:01:49.000Z</time>
</trkpt>
<trkpt lat="31.7822150" lon="35.0998660">
<ele>660.599976</ele>
<time>2017-10-20T07:01:50.000Z</time>
</trkpt>
<trkpt lat="31.7821930" lon="35.0997720">
<ele>660.599976</ele>
<time>2017-10-20T07:01:51.000Z</time>
</trkpt>
<trkpt lat="31.7821790" lon="35.0996820">
<ele>660.599976</ele>
<time>2017-10-20T07:01:52.000Z</time>
</trkpt>
<trkpt lat="31.7821670" lon="35.0995950">
<ele>660.499939</ele>
<time>2017-10-20T07:01:53.000Z</time>
</trkpt>
<trkpt lat="31.7821550" lon="35.0995090">
<ele>660.499939</ele>
<time>2017-10-20T07:01:54.000Z</time>
</trkpt>
<trkpt lat="31.7821380" lon="35.0994290">
<ele>660.499939</ele>
<time>2017-10-20T07:01:55.000Z</time>
</trkpt>
<trkpt lat="31.7821240" lon="35.0993510">
<ele>660.400024</ele>
<time>2017-10-20T07:01:56.000Z</time>
</trkpt>
<trkpt lat="31.7820950" lon="35.0992730">
<ele>660.400024</ele>
<time>2017-10-20T07:01:57.000Z</time>
</trkpt>
<trkpt lat="31.7820910" lon="35.0991940">
<ele>660.299988</ele>
<time>2017-10-20T07:01:58.000Z</time>
</trkpt>
<trkpt lat="31.7820890" lon="35.0991200">
<ele>660.299988</ele>
<time>2017-10-20T07:01:59.000Z</time>
</trkpt>
<trkpt lat="31.7820830" lon="35.0990500">
<ele>660.200012</ele>
<time>2017-10-20T07:02:00.000Z</time>
</trkpt>
<trkpt lat="31.7820760" lon="35.0989810">
<ele>660.099976</ele>
<time>2017-10-20T07:02:01.000Z</time>
</trkpt>
<trkpt lat="31.7820650" lon="35.0989160">
<ele>660.000000</ele>
<time>2017-10-20T07:02:02.000Z</time>
</trkpt>
<trkpt lat="31.7820450" lon="35.0988490">
<ele>659.700012</ele>
<time>2017-10-20T07:02:03.000Z</time>
</trkpt>
<trkpt lat="31.7820290" lon="35.0987800">
<ele>659.399963</ele>
<time>2017-10-20T07:02:04.000Z</time>
</trkpt>
<trkpt lat="31.7820170" lon="35.0987050">
<ele>659.100037</ele>
<time>2017-10-20T07:02:05.000Z</time>
</trkpt>
<trkpt lat="31.7820150" lon="35.0986380">
<ele>658.799988</ele>
<time>2017-10-20T07:02:06.000Z</time>
</trkpt>
<trkpt lat="31.7820120" lon="35.0985690">
<ele>658.700012</ele>
<time>2017-10-20T07:02:07.000Z</time>
</trkpt>
<trkpt lat="31.7820060" lon="35.0985010">
<ele>658.500000</ele>
<time>2017-10-20T07:02:08.000Z</time>
</trkpt>
<trkpt lat="31.7819990" lon="35.0984330">
<ele>658.400024</ele>
<time>2017-10-20T07:02:09.000Z</time>
</trkpt>
<trkpt lat="31.7819900" lon="35.0983670">
<ele>658.299988</ele>
<time>2017-10-20T07:02:10.000Z</time>
</trkpt>
<trkpt lat="31.7819850" lon="35.0983030">
<ele>658.199951</ele>
<time>2017-10-20T07:02:11.000Z</time>
</trkpt>
<trkpt lat="31.7819750" lon="35.0982360">
<ele>658.100037</ele>
<time>2017-10-20T07:02:12.000Z</time>
</trkpt>
<trkpt lat="31.7819660" lon="35.0981760">
<ele>658.100037</ele>
<time>2017-10-20T07:02:13.000Z</time>
</trkpt>
<trkpt lat="31.7819550" lon="35.0981010">
<ele>658.000000</ele>
<time>2017-10-20T07:02:14.000Z</time>
</trkpt>
<trkpt lat="31.7819460" lon="35.0980240">
<ele>657.900024</ele>
<time>2017-10-20T07:02:15.000Z</time>
</trkpt>
<trkpt lat="31.7819380" lon="35.0979590">
<ele>657.799988</ele>
<time>2017-10-20T07:02:16.000Z</time>
</trkpt>
<trkpt lat="31.7819330" lon="35.0978980">
<ele>657.700012</ele>
<time>2017-10-20T07:02:17.000Z</time>
</trkpt>
<trkpt lat="31.7819310" lon="35.0978260">
<ele>657.400024</ele>
<time>2017-10-20T07:02:18.000Z</time>
</trkpt>
<trkpt lat="31.7819350" lon="35.0977510">
<ele>657.000000</ele>
<time>2017-10-20T07:02:19.000Z</time>
</trkpt>
<trkpt lat="31.7819430" lon="35.0976820">
<ele>656.599976</ele>
<time>2017-10-20T07:02:20.000Z</time>
</trkpt>
<trkpt lat="31.7819520" lon="35.0976120">
<ele>656.399963</ele>
<time>2017-10-20T07:02:21.000Z</time>
</trkpt>
<trkpt lat="31.7819620" lon="35.0975350">
<ele>656.300049</ele>
<time>2017-10-20T07:02:22.000Z</time>
</trkpt>
<trkpt lat="31.7819730" lon="35.0974500">
<ele>656.100037</ele>
<time>2017-10-20T07:02:23.000Z</time>
</trkpt>
<trkpt lat="31.7819840" lon="35.0973640">
<ele>656.000000</ele>
<time>2017-10-20T07:02:24.000Z</time>
</trkpt>
<trkpt lat="31.7819930" lon="35.0972650">
<ele>655.700012</ele>
<time>2017-10-20T07:02:25.000Z</time>
</trkpt>
<trkpt lat="31.7820030" lon="35.0971770">
<ele>655.600037</ele>
<time>2017-10-20T07:02:26.000Z</time>
</trkpt>
<trkpt lat="31.7820170" lon="35.0970820">
<ele>655.400024</ele>
<time>2017-10-20T07:02:27.000Z</time>
</trkpt>
<trkpt lat="31.7820400" lon="35.0969940">
<ele>655.199951</ele>
<time>2017-10-20T07:02:28.000Z</time>
</trkpt>
<trkpt lat="31.7820660" lon="35.0969090">
<ele>654.700012</ele>
<time>2017-10-20T07:02:29.000Z</time>
</trkpt>
<trkpt lat="31.7820960" lon="35.0968170">
<ele>653.999939</ele>
<time>2017-10-20T07:02:30.000Z</time>
</trkpt>
<trkpt lat="31.7821250" lon="35.0967290">
<ele>653.500000</ele>
<time>2017-10-20T07:02:31.000Z</time>
</trkpt>
<trkpt lat="31.7821530" lon="35.0966460">
<ele>653.099976</ele>
<time>2017-10-20T07:02:32.000Z</time>
</trkpt>
<trkpt lat="31.7821730" lon="35.0965600">
<ele>652.500000</ele>
<time>2017-10-20T07:02:33.000Z</time>
</trkpt>
<trkpt lat="31.7821940" lon="35.0964770">
<ele>651.900024</ele>
<time>2017-10-20T07:02:34.000Z</time>
</trkpt>
<trkpt lat="31.7822140" lon="35.0963950">
<ele>651.599976</ele>
<time>2017-10-20T07:02:35.000Z</time>
</trkpt>
<trkpt lat="31.7822360" lon="35.0963160">
<ele>651.400024</ele>
<time>2017-10-20T07:02:36.000Z</time>
</trkpt>
<trkpt lat="31.7822610" lon="35.0962360">
<ele>651.200012</ele>
<time>2017-10-20T07:02:37.000Z</time>
</trkpt>
<trkpt lat="31.7822810" lon="35.0961540">
<ele>650.900024</ele>
<time>2017-10-20T07:02:38.000Z</time>
</trkpt>
<trkpt lat="31.7823060" lon="35.0960730">
<ele>650.700012</ele>
<time>2017-10-20T07:02:39.000Z</time>
</trkpt>
<trkpt lat="31.7823330" lon="35.0959930">
<ele>650.500000</ele>
<time>2017-10-20T07:02:40.000Z</time>
</trkpt>
<trkpt lat="31.7823650" lon="35.0959130">
<ele>649.799988</ele>
<time>2017-10-20T07:02:41.000Z</time>
</trkpt>
<trkpt lat="31.7823960" lon="35.0958300">
<ele>649.100037</ele>
<time>2017-10-20T07:02:42.000Z</time>
</trkpt>
<trkpt lat="31.7824220" lon="35.0957440">
<ele>648.799988</ele>
<time>2017-10-20T07:02:43.000Z</time>
</trkpt>
<trkpt lat="31.7824430" lon="35.0956540">
<ele>648.400024</ele>
<time>2017-10-20T07:02:44.000Z</time>
</trkpt>
<trkpt lat="31.7824620" lon="35.0955620">
<ele>648.099976</ele>
<time>2017-10-20T07:02:45.000Z</time>
</trkpt>
<trkpt lat="31.7824780" lon="35.0954710">
<ele>647.400024</ele>
<time>2017-10-20T07:02:46.000Z</time>
</trkpt>
<trkpt lat="31.7824940" lon="35.0953810">
<ele>646.700012</ele>
<time>2017-10-20T07:02:47.000Z</time>
</trkpt>
<trkpt lat="31.7825180" lon="35.0952930">
<ele>646.399963</ele>
<time>2017-10-20T07:02:48.000Z</time>
</trkpt>
<trkpt lat="31.7825480" lon="35.0952070">
<ele>646.100037</ele>
<time>2017-10-20T07:02:49.000Z</time>
</trkpt>
<trkpt lat="31.7825740" lon="35.0951150">
<ele>646.000000</ele>
<time>2017-10-20T07:02:50.000Z</time>
</trkpt>
<trkpt lat="31.7825970" lon="35.0950200">
<ele>646.100037</ele>
<time>2017-10-20T07:02:51.000Z</time>
</trkpt>
<trkpt lat="31.7826140" lon="35.0949210">
<ele>646.100037</ele>
<time>2017-10-20T07:02:52.000Z</time>
</trkpt>
<trkpt lat="31.7826300" lon="35.0948210">
<ele>646.100037</ele>
<time>2017-10-20T07:02:53.000Z</time>
</trkpt>
<trkpt lat="31.7826340" lon="35.0947180">
<ele>646.200012</ele>
<time>2017-10-20T07:02:54.000Z</time>
</trkpt>
<trkpt lat="31.7826520" lon="35.0946190">
<ele>646.399963</ele>
<time>2017-10-20T07:02:55.000Z</time>
</trkpt>
<trkpt lat="31.7826630" lon="35.0945210">
<ele>646.399963</ele>
<time>2017-10-20T07:02:56.000Z</time>
</trkpt>
<trkpt lat="31.7826790" lon="35.0944250">
<ele>646.100037</ele>
<time>2017-10-20T07:02:57.000Z</time>
</trkpt>
<trkpt lat="31.7826960" lon="35.0943250">
<ele>645.500000</ele>
<time>2017-10-20T07:02:58.000Z</time>
</trkpt>
<trkpt lat="31.7827060" lon="35.0942250">
<ele>645.299988</ele>
<time>2017-10-20T07:02:59.000Z</time>
</trkpt>
<trkpt lat="31.7827170" lon="35.0941250">
<ele>645.099976</ele>
<time>2017-10-20T07:03:00.000Z</time>
</trkpt>
<trkpt lat="31.7827360" lon="35.0940280">
<ele>645.000061</ele>
<time>2017-10-20T07:03:01.000Z</time>
</trkpt>
<trkpt lat="31.7827660" lon="35.0939390">
<ele>644.400024</ele>
<time>2017-10-20T07:03:02.000Z</time>
</trkpt>
<trkpt lat="31.7827950" lon="35.0938460">
<ele>643.500000</ele>
<time>2017-10-20T07:03:03.000Z</time>
</trkpt>
<trkpt lat="31.7828170" lon="35.0937450">
<ele>641.799988</ele>
<time>2017-10-20T07:03:04.000Z</time>
</trkpt>
<trkpt lat="31.7828450" lon="35.0936460">
<ele>641.400024</ele>
<time>2017-10-20T07:03:05.000Z</time>
</trkpt>
<trkpt lat="31.7828730" lon="35.0935410">
<ele>640.899963</ele>
<time>2017-10-20T07:03:06.000Z</time>
</trkpt>
<trkpt lat="31.7829040" lon="35.0934290">
<ele>640.100037</ele>
<time>2017-10-20T07:03:07.000Z</time>
</trkpt>
<trkpt lat="31.7829370" lon="35.0933170">
<ele>639.299988</ele>
<time>2017-10-20T07:03:08.000Z</time>
</trkpt>
<trkpt lat="31.7829700" lon="35.0932080">
<ele>638.900024</ele>
<time>2017-10-20T07:03:09.000Z</time>
</trkpt>
<trkpt lat="31.7829890" lon="35.0930960">
<ele>638.299988</ele>
<time>2017-10-20T07:03:10.000Z</time>
</trkpt>
<trkpt lat="31.7830010" lon="35.0929950">
<ele>637.500000</ele>
<time>2017-10-20T07:03:11.000Z</time>
</trkpt>
<trkpt lat="31.7830180" lon="35.0929190">
<ele>637.000000</ele>
<time>2017-10-20T07:03:12.000Z</time>
</trkpt>
<trkpt lat="31.7830380" lon="35.0928580">
<ele>636.699951</ele>
<time>2017-10-20T07:03:13.000Z</time>
</trkpt>
<trkpt lat="31.7830580" lon="35.0928090">
<ele>636.099976</ele>
<time>2017-10-20T07:03:14.000Z</time>
</trkpt>
<trkpt lat="31.7830760" lon="35.0927600">
<ele>635.599976</ele>
<time>2017-10-20T07:03:15.000Z</time>
</trkpt>
<trkpt lat="31.7830950" lon="35.0926900">
<ele>635.099976</ele>
<time>2017-10-20T07:03:16.000Z</time>
</trkpt>
<trkpt lat="31.7831140" lon="35.0926160">
<ele>634.500000</ele>
<time>2017-10-20T07:03:17.000Z</time>
</trkpt>
<trkpt lat="31.7831370" lon="35.0925310">
<ele>633.600037</ele>
<time>2017-10-20T07:03:18.000Z</time>
</trkpt>
<trkpt lat="31.7831620" lon="35.0924400">
<ele>632.700012</ele>
<time>2017-10-20T07:03:19.000Z</time>
</trkpt>
<trkpt lat="31.7831890" lon="35.0923470">
<ele>631.700012</ele>
<time>2017-10-20T07:03:20.000Z</time>
</trkpt>
<trkpt lat="31.7832200" lon="35.0922470">
<ele>631.200012</ele>
<time>2017-10-20T07:03:21.000Z</time>
</trkpt>
<trkpt lat="31.7832450" lon="35.0921480">
<ele>630.400024</ele>
<time>2017-10-20T07:03:22.000Z</time>
</trkpt>
<trkpt lat="31.7832650" lon="35.0920520">
<ele>629.599976</ele>
<time>2017-10-20T07:03:23.000Z</time>
</trkpt>
<trkpt lat="31.7832720" lon="35.0919540">
<ele>628.999939</ele>
<time>2017-10-20T07:03:24.000Z</time>
</trkpt>
<trkpt lat="31.7832770" lon="35.0918590">
<ele>628.200012</ele>
<time>2017-10-20T07:03:25.000Z</time>
</trkpt>
<trkpt lat="31.7832820" lon="35.0917640">
<ele>627.500000</ele>
<time>2017-10-20T07:03:26.000Z</time>
</trkpt>
<trkpt lat="31.7832740" lon="35.0916630">
<ele>627.199951</ele>
<time>2017-10-20T07:03:27.000Z</time>
</trkpt>
<trkpt lat="31.7832670" lon="35.0915580">
<ele>626.799988</ele>
<time>2017-10-20T07:03:28.000Z</time>
</trkpt>
<trkpt lat="31.7832650" lon="35.0914520">
<ele>626.099976</ele>
<time>2017-10-20T07:03:29.000Z</time>
</trkpt>
<trkpt lat="31.7832630" lon="35.0913460">
<ele>625.300049</ele>
<time>2017-10-20T07:03:30.000Z</time>
</trkpt>
<trkpt lat="31.7832660" lon="35.0912390">
<ele>625.000000</ele>
<time>2017-10-20T07:03:31.000Z</time>
</trkpt>
<trkpt lat="31.7832710" lon="35.0911310">
<ele>624.200012</ele>
<time>2017-10-20T07:03:32.000Z</time>
</trkpt>
<trkpt lat="31.7832760" lon="35.0910210">
<ele>623.400024</ele>
<time>2017-10-20T07:03:33.000Z</time>
</trkpt>
<trkpt lat="31.7832920" lon="35.0909110">
<ele>622.599976</ele>
<time>2017-10-20T07:03:34.000Z</time>
</trkpt>
<trkpt lat="31.7833020" lon="35.0908010">
<ele>621.700012</ele>
<time>2017-10-20T07:03:35.000Z</time>
</trkpt>
<trkpt lat="31.7833080" lon="35.0906900">
<ele>621.200012</ele>
<time>2017-10-20T07:03:36.000Z</time>
</trkpt>
<trkpt lat="31.7833120" lon="35.0905790">
<ele>620.500000</ele>
<time>2017-10-20T07:03:37.000Z</time>
</trkpt>
<trkpt lat="31.7833040" lon="35.0904700">
<ele>619.599976</ele>
<time>2017-10-20T07:03:38.000Z</time>
</trkpt>
<trkpt lat="31.7832870" lon="35.0903610">
<ele>619.000000</ele>
<time>2017-10-20T07:03:39.000Z</time>
</trkpt>
<trkpt lat="31.7832710" lon="35.0902500">
<ele>617.799988</ele>
<time>2017-10-20T07:03:40.000Z</time>
</trkpt>
<trkpt lat="31.7832540" lon="35.0901420">
<ele>617.200012</ele>
<time>2017-10-20T07:03:41.000Z</time>
</trkpt>
<trkpt lat="31.7832400" lon="35.0900370">
<ele>616.200012</ele>
<time>2017-10-20T07:03:42.000Z</time>
</trkpt>
<trkpt lat="31.7832270" lon="35.0899340">
<ele>615.500000</ele>
<time>2017-10-20T07:03:43.000Z</time>
</trkpt>
<trkpt lat="31.7832230" lon="35.0898300">
<ele>614.799988</ele>
<time>2017-10-20T07:03:44.000Z</time>
</trkpt>
<trkpt lat="31.7832170" lon="35.0897210">
<ele>613.600037</ele>
<time>2017-10-20T07:03:45.000Z</time>
</trkpt>
<trkpt lat="31.7832050" lon="35.0896060">
<ele>612.700012</ele>
<time>2017-10-20T07:03:46.000Z</time>
</trkpt>
<trkpt lat="31.7831920" lon="35.0894850">
<ele>611.599976</ele>
<time>2017-10-20T07:03:47.000Z</time>
</trkpt>
<trkpt lat="31.7831910" lon="35.0893610">
<ele>611.000000</ele>
<time>2017-10-20T07:03:48.000Z</time>
</trkpt>
<trkpt lat="31.7831860" lon="35.0892400">
<ele>610.000000</ele>
<time>2017-10-20T07:03:49.000Z</time>
</trkpt>
<trkpt lat="31.7831760" lon="35.0891200">
<ele>609.100037</ele>
<time>2017-10-20T07:03:50.000Z</time>
</trkpt>
<trkpt lat="31.7831730" lon="35.0890040">
<ele>608.799988</ele>
<time>2017-10-20T07:03:51.000Z</time>
</trkpt>
<trkpt lat="31.7831590" lon="35.0888930">
<ele>608.099976</ele>
<time>2017-10-20T07:03:52.000Z</time>
</trkpt>
<trkpt lat="31.7831280" lon="35.0887810">
<ele>607.200012</ele>
<time>2017-10-20T07:03:53.000Z</time>
</trkpt>
<trkpt lat="31.7830970" lon="35.0886680">
<ele>606.500000</ele>
<time>2017-10-20T07:03:54.000Z</time>
</trkpt>
<trkpt lat="31.7830580" lon="35.0885570">
<ele>605.599976</ele>
<time>2017-10-20T07:03:55.000Z</time>
</trkpt>
<trkpt lat="31.7830200" lon="35.0884370">
<ele>605.099976</ele>
<time>2017-10-20T07:03:56.000Z</time>
</trkpt>
<trkpt lat="31.7829790" lon="35.0883160">
<ele>604.600037</ele>
<time>2017-10-20T07:03:57.000Z</time>
</trkpt>
<trkpt lat="31.7829430" lon="35.0881960">
<ele>603.900024</ele>
<time>2017-10-20T07:03:58.000Z</time>
</trkpt>
<trkpt lat="31.7829110" lon="35.0880790">
<ele>603.200012</ele>
<time>2017-10-20T07:03:59.000Z</time>
</trkpt>
<trkpt lat="31.7828930" lon="35.0879620">
<ele>602.900024</ele>
<time>2017-10-20T07:04:00.000Z</time>
</trkpt>
<trkpt lat="31.7828560" lon="35.0878540">
<ele>602.799988</ele>
<time>2017-10-20T07:04:01.000Z</time>
</trkpt>
<trkpt lat="31.7828170" lon="35.0877470">
<ele>602.700012</ele>
<time>2017-10-20T07:04:02.000Z</time>
</trkpt>
<trkpt lat="31.7827840" lon="35.0876400">
<ele>602.600037</ele>
<time>2017-10-20T07:04:03.000Z</time>
</trkpt>
<trkpt lat="31.7827510" lon="35.0875370">
<ele>602.399963</ele>
<time>2017-10-20T07:04:04.000Z</time>
</trkpt>
<trkpt lat="31.7827240" lon="35.0874350">
<ele>602.000000</ele>
<time>2017-10-20T07:04:05.000Z</time>
</trkpt>
<trkpt lat="31.7826940" lon="35.0873380">
<ele>601.500000</ele>
<time>2017-10-20T07:04:06.000Z</time>
</trkpt>
<trkpt lat="31.7826690" lon="35.0872400">
<ele>601.299988</ele>
<time>2017-10-20T07:04:07.000Z</time>
</trkpt>
<trkpt lat="31.7826550" lon="35.0871410">
<ele>601.100037</ele>
<time>2017-10-20T07:04:08.000Z</time>
</trkpt>
<trkpt lat="31.7826440" lon="35.0870410">
<ele>601.000000</ele>
<time>2017-10-20T07:04:09.000Z</time>
</trkpt>
<trkpt lat="31.7826290" lon="35.0869420">
<ele>600.799988</ele>
<time>2017-10-20T07:04:10.000Z</time>
</trkpt>
<trkpt lat="31.7826100" lon="35.0868440">
<ele>600.400024</ele>
<time>2017-10-20T07:04:11.000Z</time>
</trkpt>
<trkpt lat="31.7825990" lon="35.0867410">
<ele>599.700012</ele>
<time>2017-10-20T07:04:12.000Z</time>
</trkpt>
<trkpt lat="31.7825870" lon="35.0866390">
<ele>599.200012</ele>
<time>2017-10-20T07:04:13.000Z</time>
</trkpt>
<trkpt lat="31.7825880" lon="35.0865380">
<ele>598.500000</ele>
<time>2017-10-20T07:04:14.000Z</time>
</trkpt>
<trkpt lat="31.7825850" lon="35.0864390">
<ele>597.400024</ele>
<time>2017-10-20T07:04:15.000Z</time>
</trkpt>
<trkpt lat="31.7825780" lon="35.0863360">
<ele>596.900024</ele>
<time>2017-10-20T07:04:16.000Z</time>
</trkpt>
<trkpt lat="31.7825690" lon="35.0862330">
<ele>596.000000</ele>
<time>2017-10-20T07:04:17.000Z</time>
</trkpt>
<trkpt lat="31.7825570" lon="35.0861300">
<ele>595.100037</ele>
<time>2017-10-20T07:04:18.000Z</time>
</trkpt>
<trkpt lat="31.7825340" lon="35.0860310">
<ele>594.099976</ele>
<time>2017-10-20T07:04:19.000Z</time>
</trkpt>
<trkpt lat="31.7825050" lon="35.0859330">
<ele>593.200012</ele>
<time>2017-10-20T07:04:20.000Z</time>
</trkpt>
<trkpt lat="31.7824890" lon="35.0858300">
<ele>592.400024</ele>
<time>2017-10-20T07:04:21.000Z</time>
</trkpt>
<trkpt lat="31.7824600" lon="35.0857330">
<ele>591.400024</ele>
<time>2017-10-20T07:04:22.000Z</time>
</trkpt>
<trkpt lat="31.7824260" lon="35.0856410">
<ele>590.900024</ele>
<time>2017-10-20T07:04:23.000Z</time>
</trkpt>
<trkpt lat="31.7823870" lon="35.0855420">
<ele>590.100037</ele>
<time>2017-10-20T07:04:24.000Z</time>
</trkpt>
<trkpt lat="31.7823530" lon="35.0854360">
<ele>589.099976</ele>
<time>2017-10-20T07:04:25.000Z</time>
</trkpt>
<trkpt lat="31.7823150" lon="35.0853280">
<ele>588.099976</ele>
<time>2017-10-20T07:04:26.000Z</time>
</trkpt>
<trkpt lat="31.7822830" lon="35.0852160">
<ele>586.799988</ele>
<time>2017-10-20T07:04:27.000Z</time>
</trkpt>
<trkpt lat="31.7822650" lon="35.0851010">
<ele>585.900024</ele>
<time>2017-10-20T07:04:28.000Z</time>
</trkpt>
<trkpt lat="31.7822430" lon="35.0849890">
<ele>585.000000</ele>
<time>2017-10-20T07:04:29.000Z</time>
</trkpt>
<trkpt lat="31.7822280" lon="35.0848740">
<ele>583.400024</ele>
<time>2017-10-20T07:04:30.000Z</time>
</trkpt>
<trkpt lat="31.7822290" lon="35.0847630">
<ele>581.700012</ele>
<time>2017-10-20T07:04:31.000Z</time>
</trkpt>
<trkpt lat="31.7822490" lon="35.0846580">
<ele>581.100037</ele>
<time>2017-10-20T07:04:32.000Z</time>
</trkpt>
<trkpt lat="31.7822860" lon="35.0845640">
<ele>580.400024</ele>
<time>2017-10-20T07:04:33.000Z</time>
</trkpt>
<trkpt lat="31.7823280" lon="35.0844760">
<ele>579.500000</ele>
<time>2017-10-20T07:04:34.000Z</time>
</trkpt>
<trkpt lat="31.7823640" lon="35.0843860">
<ele>578.200012</ele>
<time>2017-10-20T07:04:35.000Z</time>
</trkpt>
<trkpt lat="31.7824000" lon="35.0842980">
<ele>576.799988</ele>
<time>2017-10-20T07:04:36.000Z</time>
</trkpt>
<trkpt lat="31.7824340" lon="35.0842080">
<ele>575.799988</ele>
<time>2017-10-20T07:04:37.000Z</time>
</trkpt>
<trkpt lat="31.7824710" lon="35.0841180">
<ele>575.000000</ele>
<time>2017-10-20T07:04:38.000Z</time>
</trkpt>
<trkpt lat="31.7825110" lon="35.0840270">
<ele>573.799988</ele>
<time>2017-10-20T07:04:39.000Z</time>
</trkpt>
<trkpt lat="31.7825490" lon="35.0839320">
<ele>572.200012</ele>
<time>2017-10-20T07:04:40.000Z</time>
</trkpt>
<trkpt lat="31.7825840" lon="35.0838390">
<ele>571.399963</ele>
<time>2017-10-20T07:04:41.000Z</time>
</trkpt>
<trkpt lat="31.7826150" lon="35.0837450">
<ele>571.000000</ele>
<time>2017-10-20T07:04:42.000Z</time>
</trkpt>
<trkpt lat="31.7826300" lon="35.0836480">
<ele>570.700012</ele>
<time>2017-10-20T07:04:43.000Z</time>
</trkpt>
<trkpt lat="31.7826640" lon="35.0835600">
<ele>570.500000</ele>
<time>2017-10-20T07:04:44.000Z</time>
</trkpt>
<trkpt lat="31.7827000" lon="35.0834720">
<ele>570.200012</ele>
<time>2017-10-20T07:04:45.000Z</time>
</trkpt>
<trkpt lat="31.7827380" lon="35.0833830">
<ele>570.000000</ele>
<time>2017-10-20T07:04:46.000Z</time>
</trkpt>
<trkpt lat="31.7827670" lon="35.0832940">
<ele>569.799988</ele>
<time>2017-10-20T07:04:47.000Z</time>
</trkpt>
<trkpt lat="31.7827970" lon="35.0832070">
<ele>569.599976</ele>
<time>2017-10-20T07:04:48.000Z</time>
</trkpt>
<trkpt lat="31.7828100" lon="35.0831170">
<ele>569.500000</ele>
<time>2017-10-20T07:04:49.000Z</time>
</trkpt>
<trkpt lat="31.7828260" lon="35.0830300">
<ele>569.299988</ele>
<time>2017-10-20T07:04:50.000Z</time>
</trkpt>
<trkpt lat="31.7828430" lon="35.0829450">
<ele>569.099976</ele>
<time>2017-10-20T07:04:51.000Z</time>
</trkpt>
<trkpt lat="31.7828710" lon="35.0828650">
<ele>568.900024</ele>
<time>2017-10-20T07:04:52.000Z</time>
</trkpt>
<trkpt lat="31.7829020" lon="35.0827890">
<ele>568.799988</ele>
<time>2017-10-20T07:04:53.000Z</time>
</trkpt>
<trkpt lat="31.7829270" lon="35.0827150">
<ele>568.399963</ele>
<time>2017-10-20T07:04:54.000Z</time>
</trkpt>
<trkpt lat="31.7829510" lon="35.0826430">
<ele>568.099976</ele>
<time>2017-10-20T07:04:55.000Z</time>
</trkpt>
<trkpt lat="31.7829810" lon="35.0825760">
<ele>567.799988</ele>
<time>2017-10-20T07:04:56.000Z</time>
</trkpt>
<trkpt lat="31.7830090" lon="35.0825070">
<ele>567.500000</ele>
<time>2017-10-20T07:04:57.000Z</time>
</trkpt>
<trkpt lat="31.7830380" lon="35.0824310">
<ele>566.799988</ele>
<time>2017-10-20T07:04:58.000Z</time>
</trkpt>
<trkpt lat="31.7830650" lon="35.0823510">
<ele>565.900024</ele>
<time>2017-10-20T07:04:59.000Z</time>
</trkpt>
<trkpt lat="31.7830920" lon="35.0822690">
<ele>564.899963</ele>
<time>2017-10-20T07:05:00.000Z</time>
</trkpt>
<trkpt lat="31.7831130" lon="35.0821860">
<ele>564.599976</ele>
<time>2017-10-20T07:05:01.000Z</time>
</trkpt>
<trkpt lat="31.7831350" lon="35.0821100">
<ele>564.200012</ele>
<time>2017-10-20T07:05:02.000Z</time>
</trkpt>
<trkpt lat="31.7831600" lon="35.0820350">
<ele>563.900024</ele>
<time>2017-10-20T07:05:03.000Z</time>
</trkpt>
<trkpt lat="31.7831800" lon="35.0819580">
<ele>563.600037</ele>
<time>2017-10-20T07:05:04.000Z</time>
</trkpt>
<trkpt lat="31.7831960" lon="35.0818850">
<ele>563.299988</ele>
<time>2017-10-20T07:05:05.000Z</time>
</trkpt>
<trkpt lat="31.7832130" lon="35.0818150">
<ele>563.099976</ele>
<time>2017-10-20T07:05:06.000Z</time>
</trkpt>
<trkpt lat="31.7832420" lon="35.0817380">
<ele>563.000000</ele>
<time>2017-10-20T07:05:07.000Z</time>
</trkpt>
<trkpt lat="31.7832700" lon="35.0816550">
<ele>562.900024</ele>
<time>2017-10-20T07:05:08.000Z</time>
</trkpt>
<trkpt lat="31.7832960" lon="35.0815710">
<ele>562.799988</ele>
<time>2017-10-20T07:05:09.000Z</time>
</trkpt>
<trkpt lat="31.7833190" lon="35.0814910">
<ele>562.799988</ele>
<time>2017-10-20T07:05:10.000Z</time>
</trkpt>
<trkpt lat="31.7833430" lon="35.0814220">
<ele>562.700012</ele>
<time>2017-10-20T07:05:11.000Z</time>
</trkpt>
<trkpt lat="31.7833620" lon="35.0813630">
<ele>562.599976</ele>
<time>2017-10-20T07:05:12.000Z</time>
</trkpt>
<trkpt lat="31.7833790" lon="35.0813100">
<ele>562.500000</ele>
<time>2017-10-20T07:05:13.000Z</time>
</trkpt>
<trkpt lat="31.7833930" lon="35.0812600">
<ele>562.400024</ele>
<time>2017-10-20T07:05:14.000Z</time>
</trkpt>
<trkpt lat="31.7834070" lon="35.0812170">
<ele>562.299988</ele>
<time>2017-10-20T07:05:15.000Z</time>
</trkpt>
<trkpt lat="31.7834220" lon="35.0811560">
<ele>562.200012</ele>
<time>2017-10-20T07:05:17.000Z</time>
</trkpt>
<trkpt lat="31.7834280" lon="35.0811110">
<ele>562.100037</ele>
<time>2017-10-20T07:05:18.000Z</time>
</trkpt>
<trkpt lat="31.7834340" lon="35.0810700">
<ele>562.100037</ele>
<time>2017-10-20T07:05:19.000Z</time>
</trkpt>
<trkpt lat="31.7834390" lon="35.0810230">
<ele>562.000000</ele>
<time>2017-10-20T07:05:20.000Z</time>
</trkpt>
<trkpt lat="31.7834440" lon="35.0809790">
<ele>561.899963</ele>
<time>2017-10-20T07:05:21.000Z</time>
</trkpt>
<trkpt lat="31.7834490" lon="35.0809360">
<ele>561.899963</ele>
<time>2017-10-20T07:05:22.000Z</time>
</trkpt>
<trkpt lat="31.7834500" lon="35.0808960">
<ele>561.799988</ele>
<time>2017-10-20T07:05:23.000Z</time>
</trkpt>
<trkpt lat="31.7834520" lon="35.0808570">
<ele>561.700012</ele>
<time>2017-10-20T07:05:24.000Z</time>
</trkpt>
<trkpt lat="31.7834550" lon="35.0808170">
<ele>561.700012</ele>
<time>2017-10-20T07:05:25.000Z</time>
</trkpt>
<trkpt lat="31.7834610" lon="35.0807750">
<ele>561.599976</ele>
<time>2017-10-20T07:05:26.000Z</time>
</trkpt>
<trkpt lat="31.7834720" lon="35.0807330">
<ele>561.599976</ele>
<time>2017-10-20T07:05:27.000Z</time>
</trkpt>
<trkpt lat="31.7834790" lon="35.0806930">
<ele>561.500000</ele>
<time>2017-10-20T07:05:28.000Z</time>
</trkpt>
<trkpt lat="31.7834800" lon="35.0806480">
<ele>561.500000</ele>
<time>2017-10-20T07:05:29.000Z</time>
</trkpt>
<trkpt lat="31.7834780" lon="35.0806020">
<ele>561.400024</ele>
<time>2017-10-20T07:05:30.000Z</time>
</trkpt>
<trkpt lat="31.7834830" lon="35.0805560">
<ele>561.299988</ele>
<time>2017-10-20T07:05:31.000Z</time>
</trkpt>
<trkpt lat="31.7834860" lon="35.0805160">
<ele>561.299988</ele>
<time>2017-10-20T07:05:32.000Z</time>
</trkpt>
<trkpt lat="31.7834880" lon="35.0804660">
<ele>561.200012</ele>
<time>2017-10-20T07:05:33.000Z</time>
</trkpt>
<trkpt lat="31.7834890" lon="35.0804170">
<ele>561.099976</ele>
<time>2017-10-20T07:05:34.000Z</time>
</trkpt>
<trkpt lat="31.7834930" lon="35.0803670">
<ele>561.000000</ele>
<time>2017-10-20T07:05:35.000Z</time>
</trkpt>
<trkpt lat="31.7834950" lon="35.0803110">
<ele>560.900024</ele>
<time>2017-10-20T07:05:36.000Z</time>
</trkpt>
<trkpt lat="31.7834950" lon="35.0802540">
<ele>560.799988</ele>
<time>2017-10-20T07:05:37.000Z</time>
</trkpt>
<trkpt lat="31.7834890" lon="35.0801930">
<ele>560.700012</ele>
<time>2017-10-20T07:05:38.000Z</time>
</trkpt>
<trkpt lat="31.7834810" lon="35.0801350">
<ele>560.600037</ele>
<time>2017-10-20T07:05:39.000Z</time>
</trkpt>
<trkpt lat="31.7834720" lon="35.0800800">
<ele>560.600037</ele>
<time>2017-10-20T07:05:40.000Z</time>
</trkpt>
<trkpt lat="31.7834610" lon="35.0800250">
<ele>560.600037</ele>
<time>2017-10-20T07:05:41.000Z</time>
</trkpt>
<trkpt lat="31.7834440" lon="35.0799730">
<ele>560.600037</ele>
<time>2017-10-20T07:05:42.000Z</time>
</trkpt>
<trkpt lat="31.7834240" lon="35.0799210">
<ele>560.500000</ele>
<time>2017-10-20T07:05:43.000Z</time>
</trkpt>
<trkpt lat="31.7834030" lon="35.0798680">
<ele>560.500000</ele>
<time>2017-10-20T07:05:44.000Z</time>
</trkpt>
<trkpt lat="31.7833830" lon="35.0798290">
<ele>560.500000</ele>
<time>2017-10-20T07:05:45.000Z</time>
</trkpt>
<trkpt lat="31.7833640" lon="35.0797840">
<ele>560.500000</ele>
<time>2017-10-20T07:05:46.000Z</time>
</trkpt>
<trkpt lat="31.7833470" lon="35.0797400">
<ele>560.500000</ele>
<time>2017-10-20T07:05:47.000Z</time>
</trkpt>
<trkpt lat="31.7833280" lon="35.0797080">
<ele>560.500000</ele>
<time>2017-10-20T07:05:48.000Z</time>
</trkpt>
<trkpt lat="31.7833080" lon="35.0796780">
<ele>560.399963</ele>
<time>2017-10-20T07:05:49.000Z</time>
</trkpt>
<trkpt lat="31.7832900" lon="35.0796530">
<ele>560.399963</ele>
<time>2017-10-20T07:05:50.000Z</time>
</trkpt>
<trkpt lat="31.7832670" lon="35.0796320">
<ele>560.399963</ele>
<time>2017-10-20T07:05:51.000Z</time>
</trkpt>
<trkpt lat="31.7832450" lon="35.0796120">
<ele>560.399963</ele>
<time>2017-10-20T07:05:52.000Z</time>
</trkpt>
<trkpt lat="31.7832220" lon="35.0795930">
<ele>560.399963</ele>
<time>2017-10-20T07:05:53.000Z</time>
</trkpt>
<trkpt lat="31.7831990" lon="35.0795730">
<ele>560.299988</ele>
<time>2017-10-20T07:05:54.000Z</time>
</trkpt>
<trkpt lat="31.7831590" lon="35.0795460">
<ele>560.299988</ele>
<time>2017-10-20T07:05:56.000Z</time>
</trkpt>
<trkpt lat="31.7831330" lon="35.0795320">
<ele>560.299988</ele>
<time>2017-10-20T07:05:57.000Z</time>
</trkpt>
<trkpt lat="31.7831080" lon="35.0795140">
<ele>560.299988</ele>
<time>2017-10-20T07:05:58.000Z</time>
</trkpt>
<trkpt lat="31.7830660" lon="35.0794850">
<ele>560.299988</ele>
<time>2017-10-20T07:06:00.000Z</time>
</trkpt>
<trkpt lat="31.7830380" lon="35.0794640">
<ele>560.299988</ele>
<time>2017-10-20T07:06:02.000Z</time>
</trkpt>
<trkpt lat="31.7830040" lon="35.0794440">
<ele>560.299988</ele>
<time>2017-10-20T07:06:04.000Z</time>
</trkpt>
<trkpt lat="31.7829580" lon="35.0794290">
<ele>560.299988</ele>
<time>2017-10-20T07:06:06.000Z</time>
</trkpt>
<trkpt lat="31.7829190" lon="35.0794190">
<ele>560.200012</ele>
<time>2017-10-20T07:06:08.000Z</time>
</trkpt>
<trkpt lat="31.7828890" lon="35.0794090">
<ele>560.200012</ele>
<time>2017-10-20T07:06:10.000Z</time>
</trkpt>
<trkpt lat="31.7828570" lon="35.0793990">
<ele>560.200012</ele>
<time>2017-10-20T07:06:12.000Z</time>
</trkpt>
<trkpt lat="31.7828100" lon="35.0793820">
<ele>560.200012</ele>
<time>2017-10-20T07:06:14.000Z</time>
</trkpt>
<trkpt lat="31.7827630" lon="35.0793680">
<ele>560.200012</ele>
<time>2017-10-20T07:06:16.000Z</time>
</trkpt>
<trkpt lat="31.7827250" lon="35.0793450">
<ele>560.200012</ele>
<time>2017-10-20T07:06:18.000Z</time>
</trkpt>
<trkpt lat="31.7826880" lon="35.0793320">
<ele>560.200012</ele>
<time>2017-10-20T07:06:20.000Z</time>
</trkpt>
<trkpt lat="31.7826560" lon="35.0793210">
<ele>560.200012</ele>
<time>2017-10-20T07:06:22.000Z</time>
</trkpt>
<trkpt lat="31.7826250" lon="35.0793010">
<ele>560.200012</ele>
<time>2017-10-20T07:06:24.000Z</time>
</trkpt>
<trkpt lat="31.7825790" lon="35.0792830">
<ele>560.200012</ele>
<time>2017-10-20T07:06:26.000Z</time>
</trkpt>
<trkpt lat="31.7825400" lon="35.0792530">
<ele>560.200012</ele>
<time>2017-10-20T07:06:28.000Z</time>
</trkpt>
<trkpt lat="31.7825150" lon="35.0792320">
<ele>560.200012</ele>
<time>2017-10-20T07:06:30.000Z</time>
</trkpt>
<trkpt lat="31.7824850" lon="35.0792120">
<ele>560.200012</ele>
<time>2017-10-20T07:06:32.000Z</time>
</trkpt>
<trkpt lat="31.7824580" lon="35.0791860">
<ele>560.200012</ele>
<time>2017-10-20T07:06:34.000Z</time>
</trkpt>
<trkpt lat="31.7824260" lon="35.0791620">
<ele>560.200012</ele>
<time>2017-10-20T07:06:36.000Z</time>
</trkpt>
<trkpt lat="31.7824020" lon="35.0791370">
<ele>560.200012</ele>
<time>2017-10-20T07:06:38.000Z</time>
</trkpt>
<trkpt lat="31.7823730" lon="35.0791090">
<ele>560.200012</ele>
<time>2017-10-20T07:06:40.000Z</time>
</trkpt>
<trkpt lat="31.7823380" lon="35.0790730">
<ele>560.200012</ele>
<time>2017-10-20T07:06:42.000Z</time>
</trkpt>
<trkpt lat="31.7823110" lon="35.0790500">
<ele>560.099976</ele>
<time>2017-10-20T07:06:44.000Z</time>
</trkpt>
<trkpt lat="31.7822850" lon="35.0790120">
<ele>560.099976</ele>
<time>2017-10-20T07:06:46.000Z</time>
</trkpt>
<trkpt lat="31.7822620" lon="35.0789590">
<ele>560.000000</ele>
<time>2017-10-20T07:06:48.000Z</time>
</trkpt>
<trkpt lat="31.7822440" lon="35.0789340">
<ele>560.000000</ele>
<time>2017-10-20T07:06:49.000Z</time>
</trkpt>
<trkpt lat="31.7822220" lon="35.0789020">
<ele>559.900024</ele>
<time>2017-10-20T07:06:51.000Z</time>
</trkpt>
<trkpt lat="31.7822060" lon="35.0788740">
<ele>559.900024</ele>
<time>2017-10-20T07:06:52.000Z</time>
</trkpt>
<trkpt lat="31.7821830" lon="35.0788490">
<ele>559.799988</ele>
<time>2017-10-20T07:06:54.000Z</time>
</trkpt>
<trkpt lat="31.7821540" lon="35.0788070">
<ele>559.799988</ele>
<time>2017-10-20T07:06:56.000Z</time>
</trkpt>
<trkpt lat="31.7821270" lon="35.0787580">
<ele>559.700012</ele>
<time>2017-10-20T07:06:58.000Z</time>
</trkpt>
<trkpt lat="31.7821090" lon="35.0787240">
<ele>559.599976</ele>
<time>2017-10-20T07:07:00.000Z</time>
</trkpt>
<trkpt lat="31.7820910" lon="35.0786950">
<ele>559.500000</ele>
<time>2017-10-20T07:07:01.000Z</time>
</trkpt>
<trkpt lat="31.7820660" lon="35.0786520">
<ele>559.400024</ele>
<time>2017-10-20T07:07:03.000Z</time>
</trkpt>
<trkpt lat="31.7820390" lon="35.0786050">
<ele>559.299988</ele>
<time>2017-10-20T07:07:05.000Z</time>
</trkpt>
<trkpt lat="31.7820150" lon="35.0785640">
<ele>559.100037</ele>
<time>2017-10-20T07:07:07.000Z</time>
</trkpt>
<trkpt lat="31.7819920" lon="35.0785190">
<ele>558.899963</ele>
<time>2017-10-20T07:07:09.000Z</time>
</trkpt>
<trkpt lat="31.7819630" lon="35.0784610">
<ele>558.700012</ele>
<time>2017-10-20T07:07:11.000Z</time>
</trkpt>
<trkpt lat="31.7819280" lon="35.0784180">
<ele>558.599976</ele>
<time>2017-10-20T07:07:13.000Z</time>
</trkpt>
<trkpt lat="31.7819010" lon="35.0783740">
<ele>558.400024</ele>
<time>2017-10-20T07:07:15.000Z</time>
</trkpt>
<trkpt lat="31.7818880" lon="35.0783430">
<ele>558.299988</ele>
<time>2017-10-20T07:07:16.000Z</time>
</trkpt>
<trkpt lat="31.7818620" lon="35.0783080">
<ele>558.200012</ele>
<time>2017-10-20T07:07:18.000Z</time>
</trkpt>
<trkpt lat="31.7818380" lon="35.0782880">
<ele>558.099976</ele>
<time>2017-10-20T07:07:19.000Z</time>
</trkpt>
<trkpt lat="31.7818130" lon="35.0782650">
<ele>558.000000</ele>
<time>2017-10-20T07:07:20.000Z</time>
</trkpt>
<trkpt lat="31.7817930" lon="35.0782390">
<ele>557.900024</ele>
<time>2017-10-20T07:07:21.000Z</time>
</trkpt>
<trkpt lat="31.7817700" lon="35.0782150">
<ele>557.799988</ele>
<time>2017-10-20T07:07:22.000Z</time>
</trkpt>
<trkpt lat="31.7817430" lon="35.0781980">
<ele>557.600037</ele>
<time>2017-10-20T07:07:23.000Z</time>
</trkpt>
<trkpt lat="31.7817120" lon="35.0781720">
<ele>557.500000</ele>
<time>2017-10-20T07:07:24.000Z</time>
</trkpt>
<trkpt lat="31.7816780" lon="35.0781400">
<ele>557.299988</ele>
<time>2017-10-20T07:07:25.000Z</time>
</trkpt>
<trkpt lat="31.7816410" lon="35.0781090">
<ele>557.000000</ele>
<time>2017-10-20T07:07:26.000Z</time>
</trkpt>
<trkpt lat="31.7816010" lon="35.0780810">
<ele>558.000000</ele>
<time>2017-10-20T07:07:27.000Z</time>
</trkpt>
<trkpt lat="31.7815520" lon="35.0780540">
<ele>559.400024</ele>
<time>2017-10-20T07:07:28.000Z</time>
</trkpt>
<trkpt lat="31.7814900" lon="35.0780250">
<ele>561.000000</ele>
<time>2017-10-20T07:07:29.000Z</time>
</trkpt>
<trkpt lat="31.7814420" lon="35.0780070">
<ele>561.799988</ele>
<time>2017-10-20T07:07:30.000Z</time>
</trkpt>
<trkpt lat="31.7814020" lon="35.0779920">
<ele>562.400024</ele>
<time>2017-10-20T07:07:31.000Z</time>
</trkpt>
<trkpt lat="31.7813700" lon="35.0779790">
<ele>563.000000</ele>
<time>2017-10-20T07:07:32.000Z</time>
</trkpt>
<trkpt lat="31.7813300" lon="35.0779530">
<ele>563.900024</ele>
<time>2017-10-20T07:07:34.000Z</time>
</trkpt>
<trkpt lat="31.7812980" lon="35.0779310">
<ele>564.599976</ele>
<time>2017-10-20T07:07:36.000Z</time>
</trkpt>
<trkpt lat="31.7812480" lon="35.0779120">
<ele>565.600037</ele>
<time>2017-10-20T07:07:38.000Z</time>
</trkpt>
<trkpt lat="31.7812140" lon="35.0778980">
<ele>566.200012</ele>
<time>2017-10-20T07:07:40.000Z</time>
</trkpt>
<trkpt lat="31.7811750" lon="35.0778990">
<ele>566.799988</ele>
<time>2017-10-20T07:07:42.000Z</time>
</trkpt>
<trkpt lat="31.7811310" lon="35.0778950">
<ele>567.100037</ele>
<time>2017-10-20T07:07:44.000Z</time>
</trkpt>
<trkpt lat="31.7810910" lon="35.0778950">
<ele>567.299988</ele>
<time>2017-10-20T07:07:46.000Z</time>
</trkpt>
<trkpt lat="31.7810420" lon="35.0779000">
<ele>567.599976</ele>
<time>2017-10-20T07:07:48.000Z</time>
</trkpt>
<trkpt lat="31.7809950" lon="35.0778890">
<ele>567.900024</ele>
<time>2017-10-20T07:07:50.000Z</time>
</trkpt>
<trkpt lat="31.7809480" lon="35.0778950">
<ele>568.200012</ele>
<time>2017-10-20T07:07:52.000Z</time>
</trkpt>
<trkpt lat="31.7809040" lon="35.0779090">
<ele>568.399963</ele>
<time>2017-10-20T07:07:54.000Z</time>
</trkpt>
<trkpt lat="31.7808520" lon="35.0779170">
<ele>568.700012</ele>
<time>2017-10-20T07:07:56.000Z</time>
</trkpt>
<trkpt lat="31.7808000" lon="35.0779260">
<ele>569.000000</ele>
<time>2017-10-20T07:07:58.000Z</time>
</trkpt>
<trkpt lat="31.7807750" lon="35.0779400">
<ele>569.099976</ele>
<time>2017-10-20T07:07:59.000Z</time>
</trkpt>
<trkpt lat="31.7807380" lon="35.0779540">
<ele>569.299988</ele>
<time>2017-10-20T07:08:01.000Z</time>
</trkpt>
<trkpt lat="31.7806820" lon="35.0779680">
<ele>569.599976</ele>
<time>2017-10-20T07:08:03.000Z</time>
</trkpt>
<trkpt lat="31.7806470" lon="35.0779670">
<ele>569.700012</ele>
<time>2017-10-20T07:08:04.000Z</time>
</trkpt>
<trkpt lat="31.7806170" lon="35.0779720">
<ele>569.899963</ele>
<time>2017-10-20T07:08:05.000Z</time>
</trkpt>
<trkpt lat="31.7805900" lon="35.0779780">
<ele>570.100037</ele>
<time>2017-10-20T07:08:06.000Z</time>
</trkpt>
<trkpt lat="31.7805610" lon="35.0779850">
<ele>570.299988</ele>
<time>2017-10-20T07:08:07.000Z</time>
</trkpt>
<trkpt lat="31.7805360" lon="35.0779960">
<ele>570.400024</ele>
<time>2017-10-20T07:08:08.000Z</time>
</trkpt>
<trkpt lat="31.7804840" lon="35.0780120">
<ele>570.799988</ele>
<time>2017-10-20T07:08:10.000Z</time>
</trkpt>
<trkpt lat="31.7804540" lon="35.0780140">
<ele>571.000000</ele>
<time>2017-10-20T07:08:11.000Z</time>
</trkpt>
<trkpt lat="31.7804090" lon="35.0780120">
<ele>571.399963</ele>
<time>2017-10-20T07:08:13.000Z</time>
</trkpt>
<trkpt lat="31.7803650" lon="35.0780240">
<ele>571.900024</ele>
<time>2017-10-20T07:08:15.000Z</time>
</trkpt>
<trkpt lat="31.7803360" lon="35.0780380">
<ele>572.099976</ele>
<time>2017-10-20T07:08:16.000Z</time>
</trkpt>
<trkpt lat="31.7803100" lon="35.0780510">
<ele>572.200012</ele>
<time>2017-10-20T07:08:17.000Z</time>
</trkpt>
<trkpt lat="31.7802810" lon="35.0780600">
<ele>572.299988</ele>
<time>2017-10-20T07:08:18.000Z</time>
</trkpt>
<trkpt lat="31.7802510" lon="35.0780690">
<ele>572.500000</ele>
<time>2017-10-20T07:08:19.000Z</time>
</trkpt>
<trkpt lat="31.7802200" lon="35.0780850">
<ele>572.599976</ele>
<time>2017-10-20T07:08:20.000Z</time>
</trkpt>
<trkpt lat="31.7801930" lon="35.0780980">
<ele>572.700012</ele>
<time>2017-10-20T07:08:21.000Z</time>
</trkpt>
<trkpt lat="31.7801600" lon="35.0781110">
<ele>572.899963</ele>
<time>2017-10-20T07:08:22.000Z</time>
</trkpt>
<trkpt lat="31.7801320" lon="35.0781250">
<ele>573.000000</ele>
<time>2017-10-20T07:08:23.000Z</time>
</trkpt>
<trkpt lat="31.7801050" lon="35.0781410">
<ele>573.200012</ele>
<time>2017-10-20T07:08:24.000Z</time>
</trkpt>
<trkpt lat="31.7800780" lon="35.0781540">
<ele>573.400024</ele>
<time>2017-10-20T07:08:25.000Z</time>
</trkpt>
<trkpt lat="31.7800460" lon="35.0781710">
<ele>573.799988</ele>
<time>2017-10-20T07:08:26.000Z</time>
</trkpt>
<trkpt lat="31.7800090" lon="35.0782010">
<ele>574.000000</ele>
<time>2017-10-20T07:08:27.000Z</time>
</trkpt>
<trkpt lat="31.7799750" lon="35.0782220">
<ele>574.200012</ele>
<time>2017-10-20T07:08:28.000Z</time>
</trkpt>
<trkpt lat="31.7799400" lon="35.0782370">
<ele>574.399963</ele>
<time>2017-10-20T07:08:29.000Z</time>
</trkpt>
<trkpt lat="31.7799060" lon="35.0782540">
<ele>574.600037</ele>
<time>2017-10-20T07:08:30.000Z</time>
</trkpt>
<trkpt lat="31.7798690" lon="35.0782760">
<ele>574.799988</ele>
<time>2017-10-20T07:08:31.000Z</time>
</trkpt>
<trkpt lat="31.7798300" lon="35.0783000">
<ele>575.000000</ele>
<time>2017-10-20T07:08:32.000Z</time>
</trkpt>
<trkpt lat="31.7797940" lon="35.0783230">
<ele>575.200012</ele>
<time>2017-10-20T07:08:33.000Z</time>
</trkpt>
<trkpt lat="31.7797540" lon="35.0783470">
<ele>575.500000</ele>
<time>2017-10-20T07:08:34.000Z</time>
</trkpt>
<trkpt lat="31.7797230" lon="35.0783640">
<ele>575.700012</ele>
<time>2017-10-20T07:08:35.000Z</time>
</trkpt>
<trkpt lat="31.7796780" lon="35.0783960">
<ele>576.000000</ele>
<time>2017-10-20T07:08:36.000Z</time>
</trkpt>
<trkpt lat="31.7796290" lon="35.0784200">
<ele>576.299988</ele>
<time>2017-10-20T07:08:37.000Z</time>
</trkpt>
<trkpt lat="31.7795860" lon="35.0784440">
<ele>576.799988</ele>
<time>2017-10-20T07:08:38.000Z</time>
</trkpt>
<trkpt lat="31.7795430" lon="35.0784700">
<ele>577.299988</ele>
<time>2017-10-20T07:08:39.000Z</time>
</trkpt>
<trkpt lat="31.7794950" lon="35.0784970">
<ele>578.299988</ele>
<time>2017-10-20T07:08:40.000Z</time>
</trkpt>
<trkpt lat="31.7794490" lon="35.0785130">
<ele>579.700012</ele>
<time>2017-10-20T07:08:41.000Z</time>
</trkpt>
<trkpt lat="31.7794050" lon="35.0785220">
<ele>581.100037</ele>
<time>2017-10-20T07:08:42.000Z</time>
</trkpt>
<trkpt lat="31.7793530" lon="35.0785540">
<ele>582.299988</ele>
<time>2017-10-20T07:08:43.000Z</time>
</trkpt>
<trkpt lat="31.7792960" lon="35.0785790">
<ele>583.200012</ele>
<time>2017-10-20T07:08:44.000Z</time>
</trkpt>
<trkpt lat="31.7792410" lon="35.0785870">
<ele>584.000000</ele>
<time>2017-10-20T07:08:45.000Z</time>
</trkpt>
<trkpt lat="31.7791910" lon="35.0785860">
<ele>584.500000</ele>
<time>2017-10-20T07:08:46.000Z</time>
</trkpt>
<trkpt lat="31.7791430" lon="35.0785490">
<ele>585.000000</ele>
<time>2017-10-20T07:08:47.000Z</time>
</trkpt>
<trkpt lat="31.7791220" lon="35.0785030">
<ele>585.399963</ele>
<time>2017-10-20T07:08:48.000Z</time>
</trkpt>
<trkpt lat="31.7791160" lon="35.0784440">
<ele>585.799988</ele>
<time>2017-10-20T07:08:49.000Z</time>
</trkpt>
<trkpt lat="31.7791230" lon="35.0783890">
<ele>586.099976</ele>
<time>2017-10-20T07:08:50.000Z</time>
</trkpt>
<trkpt lat="31.7791350" lon="35.0783410">
<ele>586.400024</ele>
<time>2017-10-20T07:08:51.000Z</time>
</trkpt>
<trkpt lat="31.7791440" lon="35.0782980">
<ele>586.599976</ele>
<time>2017-10-20T07:08:52.000Z</time>
</trkpt>
<trkpt lat="31.7791510" lon="35.0782600">
<ele>586.700012</ele>
<time>2017-10-20T07:08:53.000Z</time>
</trkpt>
<trkpt lat="31.7791590" lon="35.0782200">
<ele>586.899963</ele>
<time>2017-10-20T07:08:54.000Z</time>
</trkpt>
<trkpt lat="31.7791650" lon="35.0781740">
<ele>587.200012</ele>
<time>2017-10-20T07:08:55.000Z</time>
</trkpt>
<trkpt lat="31.7791700" lon="35.0781380">
<ele>587.400024</ele>
<time>2017-10-20T07:08:56.000Z</time>
</trkpt>
<trkpt lat="31.7791790" lon="35.0781000">
<ele>587.599976</ele>
<time>2017-10-20T07:08:57.000Z</time>
</trkpt>
<trkpt lat="31.7791820" lon="35.0780580">
<ele>587.799988</ele>
<time>2017-10-20T07:08:58.000Z</time>
</trkpt>
<trkpt lat="31.7791800" lon="35.0780020">
<ele>588.200012</ele>
<time>2017-10-20T07:08:59.000Z</time>
</trkpt>
<trkpt lat="31.7791770" lon="35.0779580">
<ele>588.500000</ele>
<time>2017-10-20T07:09:00.000Z</time>
</trkpt>
<trkpt lat="31.7791720" lon="35.0779090">
<ele>588.700012</ele>
<time>2017-10-20T07:09:01.000Z</time>
</trkpt>
<trkpt lat="31.7791680" lon="35.0778640">
<ele>588.900024</ele>
<time>2017-10-20T07:09:02.000Z</time>
</trkpt>
<trkpt lat="31.7791670" lon="35.0778250">
<ele>589.000000</ele>
<time>2017-10-20T07:09:03.000Z</time>
</trkpt>
<trkpt lat="31.7791650" lon="35.0777750">
<ele>589.200012</ele>
<time>2017-10-20T07:09:04.000Z</time>
</trkpt>
<trkpt lat="31.7791630" lon="35.0777330">
<ele>589.400024</ele>
<time>2017-10-20T07:09:05.000Z</time>
</trkpt>
<trkpt lat="31.7791600" lon="35.0776870">
<ele>589.500000</ele>
<time>2017-10-20T07:09:06.000Z</time>
</trkpt>
<trkpt lat="31.7791580" lon="35.0776440">
<ele>589.700012</ele>
<time>2017-10-20T07:09:07.000Z</time>
</trkpt>
<trkpt lat="31.7791540" lon="35.0776050">
<ele>589.899963</ele>
<time>2017-10-20T07:09:08.000Z</time>
</trkpt>
<trkpt lat="31.7791460" lon="35.0775710">
<ele>590.000000</ele>
<time>2017-10-20T07:09:09.000Z</time>
</trkpt>
<trkpt lat="31.7791390" lon="35.0775330">
<ele>590.200012</ele>
<time>2017-10-20T07:09:10.000Z</time>
</trkpt>
<trkpt lat="31.7791310" lon="35.0774980">
<ele>590.500000</ele>
<time>2017-10-20T07:09:11.000Z</time>
</trkpt>
<trkpt lat="31.7791130" lon="35.0774370">
<ele>591.099976</ele>
<time>2017-10-20T07:09:13.000Z</time>
</trkpt>
<trkpt lat="31.7790970" lon="35.0774030">
<ele>591.700012</ele>
<time>2017-10-20T07:09:14.000Z</time>
</trkpt>
<trkpt lat="31.7790850" lon="35.0773710">
<ele>592.299988</ele>
<time>2017-10-20T07:09:15.000Z</time>
</trkpt>
<trkpt lat="31.7790720" lon="35.0773400">
<ele>592.900024</ele>
<time>2017-10-20T07:09:16.000Z</time>
</trkpt>
<trkpt lat="31.7790460" lon="35.0772740">
<ele>594.299988</ele>
<time>2017-10-20T07:09:18.000Z</time>
</trkpt>
<trkpt lat="31.7790320" lon="35.0772420">
<ele>595.000000</ele>
<time>2017-10-20T07:09:19.000Z</time>
</trkpt>
<trkpt lat="31.7790150" lon="35.0772080">
<ele>595.700012</ele>
<time>2017-10-20T07:09:20.000Z</time>
</trkpt>
<trkpt lat="31.7790010" lon="35.0771790">
<ele>596.200012</ele>
<time>2017-10-20T07:09:21.000Z</time>
</trkpt>
<trkpt lat="31.7789710" lon="35.0771230">
<ele>597.000000</ele>
<time>2017-10-20T07:09:23.000Z</time>
</trkpt>
<trkpt lat="31.7789520" lon="35.0770850">
<ele>597.200012</ele>
<time>2017-10-20T07:09:24.000Z</time>
</trkpt>
<trkpt lat="31.7789330" lon="35.0770460">
<ele>597.500000</ele>
<time>2017-10-20T07:09:25.000Z</time>
</trkpt>
<trkpt lat="31.7789160" lon="35.0770160">
<ele>597.700012</ele>
<time>2017-10-20T07:09:26.000Z</time>
</trkpt>
<trkpt lat="31.7789030" lon="35.0769800">
<ele>597.899963</ele>
<time>2017-10-20T07:09:27.000Z</time>
</trkpt>
<trkpt lat="31.7788830" lon="35.0769370">
<ele>598.200012</ele>
<time>2017-10-20T07:09:28.000Z</time>
</trkpt>
<trkpt lat="31.7788740" lon="35.0768970">
<ele>598.400024</ele>
<time>2017-10-20T07:09:29.000Z</time>
</trkpt>
<trkpt lat="31.7788650" lon="35.0768580">
<ele>598.599976</ele>
<time>2017-10-20T07:09:30.000Z</time>
</trkpt>
<trkpt lat="31.7788530" lon="35.0768220">
<ele>599.000000</ele>
<time>2017-10-20T07:09:31.000Z</time>
</trkpt>
<trkpt lat="31.7788430" lon="35.0767880">
<ele>599.500000</ele>
<time>2017-10-20T07:09:32.000Z</time>
</trkpt>
<trkpt lat="31.7788330" lon="35.0767450">
<ele>600.099976</ele>
<time>2017-10-20T07:09:33.000Z</time>
</trkpt>
<trkpt lat="31.7788350" lon="35.0766910">
<ele>600.700012</ele>
<time>2017-10-20T07:09:34.000Z</time>
</trkpt>
<trkpt lat="31.7788310" lon="35.0766270">
<ele>601.400024</ele>
<time>2017-10-20T07:09:35.000Z</time>
</trkpt>
<trkpt lat="31.7788340" lon="35.0765710">
<ele>602.200012</ele>
<time>2017-10-20T07:09:36.000Z</time>
</trkpt>
<trkpt lat="31.7788510" lon="35.0765320">
<ele>602.900024</ele>
<time>2017-10-20T07:09:37.000Z</time>
</trkpt>
<trkpt lat="31.7788770" lon="35.0765030">
<ele>603.599976</ele>
<time>2017-10-20T07:09:38.000Z</time>
</trkpt>
<trkpt lat="31.7789070" lon="35.0764660">
<ele>604.500000</ele>
<time>2017-10-20T07:09:39.000Z</time>
</trkpt>
<trkpt lat="31.7789360" lon="35.0764320">
<ele>605.400024</ele>
<time>2017-10-20T07:09:40.000Z</time>
</trkpt>
<trkpt lat="31.7789640" lon="35.0764020">
<ele>606.200012</ele>
<time>2017-10-20T07:09:41.000Z</time>
</trkpt>
<trkpt lat="31.7789900" lon="35.0763740">
<ele>607.000000</ele>
<time>2017-10-20T07:09:42.000Z</time>
</trkpt>
<trkpt lat="31.7790190" lon="35.0763430">
<ele>607.799988</ele>
<time>2017-10-20T07:09:43.000Z</time>
</trkpt>
<trkpt lat="31.7790530" lon="35.0763130">
<ele>608.700012</ele>
<time>2017-10-20T07:09:44.000Z</time>
</trkpt>
<trkpt lat="31.7790820" lon="35.0762860">
<ele>609.400024</ele>
<time>2017-10-20T07:09:45.000Z</time>
</trkpt>
<trkpt lat="31.7791150" lon="35.0762540">
<ele>610.099976</ele>
<time>2017-10-20T07:09:46.000Z</time>
</trkpt>
<trkpt lat="31.7791440" lon="35.0762270">
<ele>610.700012</ele>
<time>2017-10-20T07:09:47.000Z</time>
</trkpt>
<trkpt lat="31.7791720" lon="35.0761990">
<ele>611.099976</ele>
<time>2017-10-20T07:09:48.000Z</time>
</trkpt>
<trkpt lat="31.7791940" lon="35.0761780">
<ele>611.299988</ele>
<time>2017-10-20T07:09:49.000Z</time>
</trkpt>
<trkpt lat="31.7792170" lon="35.0761500">
<ele>611.599976</ele>
<time>2017-10-20T07:09:50.000Z</time>
</trkpt>
<trkpt lat="31.7792530" lon="35.0761210">
<ele>611.899963</ele>
<time>2017-10-20T07:09:51.000Z</time>
</trkpt>
<trkpt lat="31.7792890" lon="35.0760990">
<ele>612.200012</ele>
<time>2017-10-20T07:09:52.000Z</time>
</trkpt>
<trkpt lat="31.7793180" lon="35.0760740">
<ele>612.500000</ele>
<time>2017-10-20T07:09:53.000Z</time>
</trkpt>
<trkpt lat="31.7793390" lon="35.0760420">
<ele>612.799988</ele>
<time>2017-10-20T07:09:54.000Z</time>
</trkpt>
<trkpt lat="31.7793620" lon="35.0760010">
<ele>613.099976</ele>
<time>2017-10-20T07:09:55.000Z</time>
</trkpt>
<trkpt lat="31.7793870" lon="35.0759760">
<ele>613.399963</ele>
<time>2017-10-20T07:09:56.000Z</time>
</trkpt>
<trkpt lat="31.7794150" lon="35.0759490">
<ele>613.600037</ele>
<time>2017-10-20T07:09:57.000Z</time>
</trkpt>
<trkpt lat="31.7794420" lon="35.0759200">
<ele>613.799988</ele>
<time>2017-10-20T07:09:58.000Z</time>
</trkpt>
<trkpt lat="31.7794660" lon="35.0758830">
<ele>614.000000</ele>
<time>2017-10-20T07:09:59.000Z</time>
</trkpt>
<trkpt lat="31.7794850" lon="35.0758530">
<ele>614.200012</ele>
<time>2017-10-20T07:10:00.000Z</time>
</trkpt>
<trkpt lat="31.7795130" lon="35.0757970">
<ele>614.500000</ele>
<time>2017-10-20T07:10:02.000Z</time>
</trkpt>
<trkpt lat="31.7795250" lon="35.0757670">
<ele>614.700012</ele>
<time>2017-10-20T07:10:03.000Z</time>
</trkpt>
<trkpt lat="31.7795490" lon="35.0757130">
<ele>615.000000</ele>
<time>2017-10-20T07:10:05.000Z</time>
</trkpt>
<trkpt lat="31.7795630" lon="35.0756850">
<ele>615.200012</ele>
<time>2017-10-20T07:10:06.000Z</time>
</trkpt>
<trkpt lat="31.7795830" lon="35.0756320">
<ele>615.400024</ele>
<time>2017-10-20T07:10:08.000Z</time>
</trkpt>
<trkpt lat="31.7795940" lon="35.0755850">
<ele>615.700012</ele>
<time>2017-10-20T07:10:10.000Z</time>
</trkpt>
<trkpt lat="31.7796080" lon="35.0755370">
<ele>615.900024</ele>
<time>2017-10-20T07:10:12.000Z</time>
</trkpt>
<trkpt lat="31.7796150" lon="35.0755040">
<ele>616.099976</ele>
<time>2017-10-20T07:10:13.000Z</time>
</trkpt>
<trkpt lat="31.7796250" lon="35.0754620">
<ele>616.200012</ele>
<time>2017-10-20T07:10:14.000Z</time>
</trkpt>
<trkpt lat="31.7796340" lon="35.0754260">
<ele>616.299988</ele>
<time>2017-10-20T07:10:15.000Z</time>
</trkpt>
<trkpt lat="31.7796440" lon="35.0753890">
<ele>616.500000</ele>
<time>2017-10-20T07:10:16.000Z</time>
</trkpt>
<trkpt lat="31.7796580" lon="35.0753510">
<ele>616.599976</ele>
<time>2017-10-20T07:10:17.000Z</time>
</trkpt>
<trkpt lat="31.7796680" lon="35.0753010">
<ele>616.799988</ele>
<time>2017-10-20T07:10:18.000Z</time>
</trkpt>
<trkpt lat="31.7796770" lon="35.0752460">
<ele>616.899963</ele>
<time>2017-10-20T07:10:19.000Z</time>
</trkpt>
<trkpt lat="31.7796920" lon="35.0751920">
<ele>617.200012</ele>
<time>2017-10-20T07:10:20.000Z</time>
</trkpt>
<trkpt lat="31.7797100" lon="35.0751410">
<ele>617.400024</ele>
<time>2017-10-20T07:10:21.000Z</time>
</trkpt>
<trkpt lat="31.7797250" lon="35.0750910">
<ele>617.599976</ele>
<time>2017-10-20T07:10:22.000Z</time>
</trkpt>
<trkpt lat="31.7797350" lon="35.0750420">
<ele>617.799988</ele>
<time>2017-10-20T07:10:23.000Z</time>
</trkpt>
<trkpt lat="31.7797370" lon="35.0749970">
<ele>618.000000</ele>
<time>2017-10-20T07:10:24.000Z</time>
</trkpt>
<trkpt lat="31.7797360" lon="35.0749620">
<ele>618.200012</ele>
<time>2017-10-20T07:10:25.000Z</time>
</trkpt>
<trkpt lat="31.7797390" lon="35.0749280">
<ele>618.299988</ele>
<time>2017-10-20T07:10:26.000Z</time>
</trkpt>
<trkpt lat="31.7797370" lon="35.0748910">
<ele>618.500000</ele>
<time>2017-10-20T07:10:27.000Z</time>
</trkpt>
<trkpt lat="31.7797390" lon="35.0748470">
<ele>618.700012</ele>
<time>2017-10-20T07:10:29.000Z</time>
</trkpt>
<trkpt lat="31.7797240" lon="35.0747900">
<ele>618.900024</ele>
<time>2017-10-20T07:10:31.000Z</time>
</trkpt>
<trkpt lat="31.7797170" lon="35.0747470">
<ele>619.000000</ele>
<time>2017-10-20T07:10:33.000Z</time>
</trkpt>
<trkpt lat="31.7797140" lon="35.0747130">
<ele>619.200012</ele>
<time>2017-10-20T07:10:35.000Z</time>
</trkpt>
<trkpt lat="31.7797070" lon="35.0746670">
<ele>619.299988</ele>
<time>2017-10-20T07:10:37.000Z</time>
</trkpt>
<trkpt lat="31.7797050" lon="35.0746320">
<ele>619.400024</ele>
<time>2017-10-20T07:10:39.000Z</time>
</trkpt>
<trkpt lat="31.7796970" lon="35.0745860">
<ele>619.400024</ele>
<time>2017-10-20T07:10:42.000Z</time>
</trkpt>
<trkpt lat="31.7796920" lon="35.0745480">
<ele>619.400024</ele>
<time>2017-10-20T07:10:44.000Z</time>
</trkpt>
<trkpt lat="31.7796850" lon="35.0745050">
<ele>619.500000</ele>
<time>2017-10-20T07:10:46.000Z</time>
</trkpt>
<trkpt lat="31.7796800" lon="35.0744680">
<ele>619.500000</ele>
<time>2017-10-20T07:10:48.000Z</time>
</trkpt>
<trkpt lat="31.7796700" lon="35.0744280">
<ele>619.500000</ele>
<time>2017-10-20T07:10:50.000Z</time>
</trkpt>
<trkpt lat="31.7796670" lon="35.0743890">
<ele>619.500000</ele>
<time>2017-10-20T07:10:52.000Z</time>
</trkpt>
<trkpt lat="31.7796580" lon="35.0743360">
<ele>619.500000</ele>
<time>2017-10-20T07:10:54.000Z</time>
</trkpt>
<trkpt lat="31.7796530" lon="35.0742850">
<ele>619.500000</ele>
<time>2017-10-20T07:10:56.000Z</time>
</trkpt>
<trkpt lat="31.7796480" lon="35.0742300">
<ele>619.500000</ele>
<time>2017-10-20T07:10:58.000Z</time>
</trkpt>
<trkpt lat="31.7796300" lon="35.0741740">
<ele>619.400024</ele>
<time>2017-10-20T07:11:00.000Z</time>
</trkpt>
<trkpt lat="31.7796090" lon="35.0741330">
<ele>619.200012</ele>
<time>2017-10-20T07:11:02.000Z</time>
</trkpt>
<trkpt lat="31.7795870" lon="35.0740950">
<ele>619.000000</ele>
<time>2017-10-20T07:11:04.000Z</time>
</trkpt>
<trkpt lat="31.7795660" lon="35.0740590">
<ele>618.900024</ele>
<time>2017-10-20T07:11:06.000Z</time>
</trkpt>
<trkpt lat="31.7795420" lon="35.0740110">
<ele>618.799988</ele>
<time>2017-10-20T07:11:08.000Z</time>
</trkpt>
<trkpt lat="31.7795150" lon="35.0739670">
<ele>618.700012</ele>
<time>2017-10-20T07:11:10.000Z</time>
</trkpt>
<trkpt lat="31.7794950" lon="35.0739230">
<ele>618.600037</ele>
<time>2017-10-20T07:11:12.000Z</time>
</trkpt>
<trkpt lat="31.7794610" lon="35.0738900">
<ele>618.600037</ele>
<time>2017-10-20T07:11:14.000Z</time>
</trkpt>
<trkpt lat="31.7794300" lon="35.0738350">
<ele>618.500000</ele>
<time>2017-10-20T07:11:16.000Z</time>
</trkpt>
<trkpt lat="31.7794180" lon="35.0738030">
<ele>618.500000</ele>
<time>2017-10-20T07:11:17.000Z</time>
</trkpt>
<trkpt lat="31.7794030" lon="35.0737660">
<ele>618.399963</ele>
<time>2017-10-20T07:11:18.000Z</time>
</trkpt>
<trkpt lat="31.7793880" lon="35.0737290">
<ele>618.399963</ele>
<time>2017-10-20T07:11:19.000Z</time>
</trkpt>
<trkpt lat="31.7793710" lon="35.0736890">
<ele>618.299988</ele>
<time>2017-10-20T07:11:20.000Z</time>
</trkpt>
<trkpt lat="31.7793550" lon="35.0736540">
<ele>618.299988</ele>
<time>2017-10-20T07:11:21.000Z</time>
</trkpt>
<trkpt lat="31.7793420" lon="35.0736210">
<ele>618.299988</ele>
<time>2017-10-20T07:11:22.000Z</time>
</trkpt>
<trkpt lat="31.7793260" lon="35.0735860">
<ele>618.200012</ele>
<time>2017-10-20T07:11:23.000Z</time>
</trkpt>
<trkpt lat="31.7793120" lon="35.0735560">
<ele>618.200012</ele>
<time>2017-10-20T07:11:24.000Z</time>
</trkpt>
<trkpt lat="31.7792970" lon="35.0735210">
<ele>618.200012</ele>
<time>2017-10-20T07:11:25.000Z</time>
</trkpt>
<trkpt lat="31.7792880" lon="35.0734780">
<ele>618.099976</ele>
<time>2017-10-20T07:11:26.000Z</time>
</trkpt>
<trkpt lat="31.7792860" lon="35.0734320">
<ele>618.000000</ele>
<time>2017-10-20T07:11:27.000Z</time>
</trkpt>
<trkpt lat="31.7792830" lon="35.0733890">
<ele>617.900024</ele>
<time>2017-10-20T07:11:28.000Z</time>
</trkpt>
<trkpt lat="31.7792810" lon="35.0733440">
<ele>617.900024</ele>
<time>2017-10-20T07:11:29.000Z</time>
</trkpt>
<trkpt lat="31.7792800" lon="35.0732990">
<ele>617.799988</ele>
<time>2017-10-20T07:11:30.000Z</time>
</trkpt>
<trkpt lat="31.7792820" lon="35.0732440">
<ele>617.700012</ele>
<time>2017-10-20T07:11:31.000Z</time>
</trkpt>
<trkpt lat="31.7792880" lon="35.0731970">
<ele>617.700012</ele>
<time>2017-10-20T07:11:32.000Z</time>
</trkpt>
<trkpt lat="31.7792940" lon="35.0731560">
<ele>617.599976</ele>
<time>2017-10-20T07:11:33.000Z</time>
</trkpt>
<trkpt lat="31.7793040" lon="35.0731080">
<ele>617.500000</ele>
<time>2017-10-20T07:11:34.000Z</time>
</trkpt>
<trkpt lat="31.7793150" lon="35.0730600">
<ele>617.400024</ele>
<time>2017-10-20T07:11:35.000Z</time>
</trkpt>
<trkpt lat="31.7793240" lon="35.0729950">
<ele>617.200012</ele>
<time>2017-10-20T07:11:37.000Z</time>
</trkpt>
<trkpt lat="31.7793280" lon="35.0729560">
<ele>617.200012</ele>
<time>2017-10-20T07:11:38.000Z</time>
</trkpt>
<trkpt lat="31.7793340" lon="35.0729200">
<ele>617.000000</ele>
<time>2017-10-20T07:11:39.000Z</time>
</trkpt>
<trkpt lat="31.7793390" lon="35.0728790">
<ele>616.799988</ele>
<time>2017-10-20T07:11:40.000Z</time>
</trkpt>
<trkpt lat="31.7793470" lon="35.0728360">
<ele>616.500000</ele>
<time>2017-10-20T07:11:41.000Z</time>
</trkpt>
<trkpt lat="31.7793590" lon="35.0727880">
<ele>616.200012</ele>
<time>2017-10-20T07:11:42.000Z</time>
</trkpt>
<trkpt lat="31.7793770" lon="35.0727300">
<ele>615.900024</ele>
<time>2017-10-20T07:11:43.000Z</time>
</trkpt>
<trkpt lat="31.7793890" lon="35.0726830">
<ele>615.599976</ele>
<time>2017-10-20T07:11:44.000Z</time>
</trkpt>
<trkpt lat="31.7793970" lon="35.0726300">
<ele>615.500000</ele>
<time>2017-10-20T07:11:45.000Z</time>
</trkpt>
<trkpt lat="31.7794050" lon="35.0725700">
<ele>615.400024</ele>
<time>2017-10-20T07:11:46.000Z</time>
</trkpt>
<trkpt lat="31.7794150" lon="35.0725080">
<ele>615.299988</ele>
<time>2017-10-20T07:11:47.000Z</time>
</trkpt>
<trkpt lat="31.7794220" lon="35.0724530">
<ele>615.200012</ele>
<time>2017-10-20T07:11:48.000Z</time>
</trkpt>
<trkpt lat="31.7794300" lon="35.0723960">
<ele>615.100037</ele>
<time>2017-10-20T07:11:49.000Z</time>
</trkpt>
<trkpt lat="31.7794330" lon="35.0723420">
<ele>615.000000</ele>
<time>2017-10-20T07:11:50.000Z</time>
</trkpt>
<trkpt lat="31.7794390" lon="35.0722790">
<ele>614.899963</ele>
<time>2017-10-20T07:11:51.000Z</time>
</trkpt>
<trkpt lat="31.7794440" lon="35.0722250">
<ele>614.799988</ele>
<time>2017-10-20T07:11:52.000Z</time>
</trkpt>
<trkpt lat="31.7794460" lon="35.0721660">
<ele>614.700012</ele>
<time>2017-10-20T07:11:53.000Z</time>
</trkpt>
<trkpt lat="31.7794460" lon="35.0720950">
<ele>614.599976</ele>
<time>2017-10-20T07:11:54.000Z</time>
</trkpt>
<trkpt lat="31.7794390" lon="35.0720280">
<ele>614.500000</ele>
<time>2017-10-20T07:11:55.000Z</time>
</trkpt>
<trkpt lat="31.7794340" lon="35.0719710">
<ele>614.500000</ele>
<time>2017-10-20T07:11:56.000Z</time>
</trkpt>
<trkpt lat="31.7794280" lon="35.0719100">
<ele>614.500000</ele>
<time>2017-10-20T07:11:57.000Z</time>
</trkpt>
<trkpt lat="31.7794220" lon="35.0718480">
<ele>614.400024</ele>
<time>2017-10-20T07:11:58.000Z</time>
</trkpt>
<trkpt lat="31.7794110" lon="35.0717960">
<ele>614.400024</ele>
<time>2017-10-20T07:11:59.000Z</time>
</trkpt>
<trkpt lat="31.7794020" lon="35.0717400">
<ele>614.400024</ele>
<time>2017-10-20T07:12:00.000Z</time>
</trkpt>
<trkpt lat="31.7793940" lon="35.0716740">
<ele>614.500000</ele>
<time>2017-10-20T07:12:01.000Z</time>
</trkpt>
<trkpt lat="31.7793890" lon="35.0716060">
<ele>614.599976</ele>
<time>2017-10-20T07:12:02.000Z</time>
</trkpt>
<trkpt lat="31.7793830" lon="35.0715490">
<ele>614.799988</ele>
<time>2017-10-20T07:12:03.000Z</time>
</trkpt>
<trkpt lat="31.7793820" lon="35.0714950">
<ele>615.000000</ele>
<time>2017-10-20T07:12:04.000Z</time>
</trkpt>
<trkpt lat="31.7793870" lon="35.0714400">
<ele>615.200012</ele>
<time>2017-10-20T07:12:05.000Z</time>
</trkpt>
<trkpt lat="31.7793970" lon="35.0713780">
<ele>615.400024</ele>
<time>2017-10-20T07:12:06.000Z</time>
</trkpt>
<trkpt lat="31.7794090" lon="35.0713210">
<ele>615.700012</ele>
<time>2017-10-20T07:12:07.000Z</time>
</trkpt>
<trkpt lat="31.7794230" lon="35.0712690">
<ele>615.900024</ele>
<time>2017-10-20T07:12:08.000Z</time>
</trkpt>
<trkpt lat="31.7794420" lon="35.0712250">
<ele>616.000000</ele>
<time>2017-10-20T07:12:09.000Z</time>
</trkpt>
<trkpt lat="31.7794680" lon="35.0711880">
<ele>616.200012</ele>
<time>2017-10-20T07:12:10.000Z</time>
</trkpt>
<trkpt lat="31.7794840" lon="35.0711610">
<ele>616.299988</ele>
<time>2017-10-20T07:12:11.000Z</time>
</trkpt>
<trkpt lat="31.7795020" lon="35.0711340">
<ele>616.299988</ele>
<time>2017-10-20T07:12:12.000Z</time>
</trkpt>
<trkpt lat="31.7795150" lon="35.0711000">
<ele>616.400024</ele>
<time>2017-10-20T07:12:13.000Z</time>
</trkpt>
<trkpt lat="31.7795270" lon="35.0710700">
<ele>616.400024</ele>
<time>2017-10-20T07:12:14.000Z</time>
</trkpt>
<trkpt lat="31.7795410" lon="35.0710400">
<ele>616.400024</ele>
<time>2017-10-20T07:12:15.000Z</time>
</trkpt>
<trkpt lat="31.7795660" lon="35.0709840">
<ele>616.400024</ele>
<time>2017-10-20T07:12:17.000Z</time>
</trkpt>
<trkpt lat="31.7795930" lon="35.0709260">
<ele>616.500000</ele>
<time>2017-10-20T07:12:19.000Z</time>
</trkpt>
<trkpt lat="31.7796240" lon="35.0708700">
<ele>616.500000</ele>
<time>2017-10-20T07:12:21.000Z</time>
</trkpt>
<trkpt lat="31.7796410" lon="35.0708390">
<ele>616.500000</ele>
<time>2017-10-20T07:12:22.000Z</time>
</trkpt>
<trkpt lat="31.7796580" lon="35.0708070">
<ele>616.500000</ele>
<time>2017-10-20T07:12:23.000Z</time>
</trkpt>
<trkpt lat="31.7796770" lon="35.0707750">
<ele>616.500000</ele>
<time>2017-10-20T07:12:24.000Z</time>
</trkpt>
<trkpt lat="31.7796940" lon="35.0707450">
<ele>616.500000</ele>
<time>2017-10-20T07:12:25.000Z</time>
</trkpt>
<trkpt lat="31.7797120" lon="35.0707050">
<ele>616.500000</ele>
<time>2017-10-20T07:12:26.000Z</time>
</trkpt>
<trkpt lat="31.7797320" lon="35.0706620">
<ele>616.500000</ele>
<time>2017-10-20T07:12:27.000Z</time>
</trkpt>
<trkpt lat="31.7797530" lon="35.0706220">
<ele>616.500000</ele>
<time>2017-10-20T07:12:28.000Z</time>
</trkpt>
<trkpt lat="31.7797740" lon="35.0705880">
<ele>616.599976</ele>
<time>2017-10-20T07:12:29.000Z</time>
</trkpt>
<trkpt lat="31.7797930" lon="35.0705600">
<ele>616.599976</ele>
<time>2017-10-20T07:12:30.000Z</time>
</trkpt>
<trkpt lat="31.7798160" lon="35.0705270">
<ele>616.599976</ele>
<time>2017-10-20T07:12:31.000Z</time>
</trkpt>
<trkpt lat="31.7798390" lon="35.0704880">
<ele>616.599976</ele>
<time>2017-10-20T07:12:32.000Z</time>
</trkpt>
<trkpt lat="31.7798640" lon="35.0704470">
<ele>616.599976</ele>
<time>2017-10-20T07:12:33.000Z</time>
</trkpt>
<trkpt lat="31.7798900" lon="35.0704050">
<ele>616.599976</ele>
<time>2017-10-20T07:12:34.000Z</time>
</trkpt>
<trkpt lat="31.7799070" lon="35.0703700">
<ele>616.599976</ele>
<time>2017-10-20T07:12:35.000Z</time>
</trkpt>
<trkpt lat="31.7799310" lon="35.0703400">
<ele>616.599976</ele>
<time>2017-10-20T07:12:36.000Z</time>
</trkpt>
<trkpt lat="31.7799440" lon="35.0703080">
<ele>616.599976</ele>
<time>2017-10-20T07:12:37.000Z</time>
</trkpt>
<trkpt lat="31.7799590" lon="35.0702780">
<ele>616.599976</ele>
<time>2017-10-20T07:12:38.000Z</time>
</trkpt>
<trkpt lat="31.7799790" lon="35.0702410">
<ele>616.599976</ele>
<time>2017-10-20T07:12:39.000Z</time>
</trkpt>
<trkpt lat="31.7800040" lon="35.0701970">
<ele>616.599976</ele>
<time>2017-10-20T07:12:40.000Z</time>
</trkpt>
<trkpt lat="31.7800240" lon="35.0701680">
<ele>616.599976</ele>
<time>2017-10-20T07:12:41.000Z</time>
</trkpt>
<trkpt lat="31.7800400" lon="35.0701320">
<ele>616.700012</ele>
<time>2017-10-20T07:12:42.000Z</time>
</trkpt>
<trkpt lat="31.7800570" lon="35.0700930">
<ele>616.700012</ele>
<time>2017-10-20T07:12:43.000Z</time>
</trkpt>
<trkpt lat="31.7800720" lon="35.0700520">
<ele>616.799988</ele>
<time>2017-10-20T07:12:44.000Z</time>
</trkpt>
<trkpt lat="31.7800870" lon="35.0700080">
<ele>616.899963</ele>
<time>2017-10-20T07:12:45.000Z</time>
</trkpt>
<trkpt lat="31.7800980" lon="35.0699740">
<ele>617.000000</ele>
<time>2017-10-20T07:12:46.000Z</time>
</trkpt>
<trkpt lat="31.7801060" lon="35.0699380">
<ele>617.000000</ele>
<time>2017-10-20T07:12:47.000Z</time>
</trkpt>
<trkpt lat="31.7801140" lon="35.0698930">
<ele>617.200012</ele>
<time>2017-10-20T07:12:48.000Z</time>
</trkpt>
<trkpt lat="31.7801240" lon="35.0698500">
<ele>617.299988</ele>
<time>2017-10-20T07:12:49.000Z</time>
</trkpt>
<trkpt lat="31.7801380" lon="35.0698030">
<ele>617.400024</ele>
<time>2017-10-20T07:12:50.000Z</time>
</trkpt>
<trkpt lat="31.7801510" lon="35.0697600">
<ele>617.500000</ele>
<time>2017-10-20T07:12:51.000Z</time>
</trkpt>
<trkpt lat="31.7801650" lon="35.0697150">
<ele>617.700012</ele>
<time>2017-10-20T07:12:52.000Z</time>
</trkpt>
<trkpt lat="31.7801760" lon="35.0696690">
<ele>617.799988</ele>
<time>2017-10-20T07:12:53.000Z</time>
</trkpt>
<trkpt lat="31.7801890" lon="35.0696210">
<ele>618.000000</ele>
<time>2017-10-20T07:12:54.000Z</time>
</trkpt>
<trkpt lat="31.7802010" lon="35.0695760">
<ele>618.200012</ele>
<time>2017-10-20T07:12:55.000Z</time>
</trkpt>
<trkpt lat="31.7802110" lon="35.0695310">
<ele>618.299988</ele>
<time>2017-10-20T07:12:56.000Z</time>
</trkpt>
<trkpt lat="31.7802150" lon="35.0694870">
<ele>618.399963</ele>
<time>2017-10-20T07:12:57.000Z</time>
</trkpt>
<trkpt lat="31.7802220" lon="35.0694500">
<ele>618.600037</ele>
<time>2017-10-20T07:12:58.000Z</time>
</trkpt>
<trkpt lat="31.7802290" lon="35.0694120">
<ele>618.700012</ele>
<time>2017-10-20T07:12:59.000Z</time>
</trkpt>
<trkpt lat="31.7802350" lon="35.0693720">
<ele>618.799988</ele>
<time>2017-10-20T07:13:00.000Z</time>
</trkpt>
<trkpt lat="31.7802390" lon="35.0693280">
<ele>619.000000</ele>
<time>2017-10-20T07:13:01.000Z</time>
</trkpt>
<trkpt lat="31.7802440" lon="35.0692830">
<ele>619.099976</ele>
<time>2017-10-20T07:13:02.000Z</time>
</trkpt>
<trkpt lat="31.7802500" lon="35.0692450">
<ele>619.299988</ele>
<time>2017-10-20T07:13:03.000Z</time>
</trkpt>
<trkpt lat="31.7802590" lon="35.0692150">
<ele>619.400024</ele>
<time>2017-10-20T07:13:04.000Z</time>
</trkpt>
<trkpt lat="31.7802640" lon="35.0691830">
<ele>619.500000</ele>
<time>2017-10-20T07:13:05.000Z</time>
</trkpt>
<trkpt lat="31.7802640" lon="35.0691480">
<ele>619.599976</ele>
<time>2017-10-20T07:13:06.000Z</time>
</trkpt>
<trkpt lat="31.7802710" lon="35.0690890">
<ele>619.799988</ele>
<time>2017-10-20T07:13:08.000Z</time>
</trkpt>
<trkpt lat="31.7802780" lon="35.0690480">
<ele>619.899963</ele>
<time>2017-10-20T07:13:10.000Z</time>
</trkpt>
<trkpt lat="31.7802840" lon="35.0689920">
<ele>620.100037</ele>
<time>2017-10-20T07:13:12.000Z</time>
</trkpt>
<trkpt lat="31.7802900" lon="35.0689500">
<ele>620.299988</ele>
<time>2017-10-20T07:13:14.000Z</time>
</trkpt>
<trkpt lat="31.7802900" lon="35.0689020">
<ele>620.400024</ele>
<time>2017-10-20T07:13:16.000Z</time>
</trkpt>
<trkpt lat="31.7802960" lon="35.0688560">
<ele>620.599976</ele>
<time>2017-10-20T07:13:18.000Z</time>
</trkpt>
<trkpt lat="31.7802980" lon="35.0688000">
<ele>620.799988</ele>
<time>2017-10-20T07:13:20.000Z</time>
</trkpt>
<trkpt lat="31.7802910" lon="35.0687480">
<ele>621.000000</ele>
<time>2017-10-20T07:13:22.000Z</time>
</trkpt>
<trkpt lat="31.7802790" lon="35.0686970">
<ele>621.099976</ele>
<time>2017-10-20T07:13:24.000Z</time>
</trkpt>
<trkpt lat="31.7802690" lon="35.0686470">
<ele>621.399963</ele>
<time>2017-10-20T07:13:26.000Z</time>
</trkpt>
<trkpt lat="31.7802650" lon="35.0686070">
<ele>621.500000</ele>
<time>2017-10-20T07:13:28.000Z</time>
</trkpt>
<trkpt lat="31.7802560" lon="35.0685720">
<ele>621.700012</ele>
<time>2017-10-20T07:13:30.000Z</time>
</trkpt>
<trkpt lat="31.7802470" lon="35.0685310">
<ele>621.799988</ele>
<time>2017-10-20T07:13:32.000Z</time>
</trkpt>
<trkpt lat="31.7802310" lon="35.0684820">
<ele>622.099976</ele>
<time>2017-10-20T07:13:34.000Z</time>
</trkpt>
<trkpt lat="31.7802280" lon="35.0684430">
<ele>622.200012</ele>
<time>2017-10-20T07:13:37.000Z</time>
</trkpt>
<trkpt lat="31.7802200" lon="35.0684080">
<ele>622.400024</ele>
<time>2017-10-20T07:13:39.000Z</time>
</trkpt>
<trkpt lat="31.7802100" lon="35.0683700">
<ele>622.500000</ele>
<time>2017-10-20T07:13:41.000Z</time>
</trkpt>
<trkpt lat="31.7802050" lon="35.0683350">
<ele>622.700012</ele>
<time>2017-10-20T07:13:42.000Z</time>
</trkpt>
<trkpt lat="31.7801840" lon="35.0682880">
<ele>622.899963</ele>
<time>2017-10-20T07:13:44.000Z</time>
</trkpt>
<trkpt lat="31.7801590" lon="35.0682420">
<ele>623.100037</ele>
<time>2017-10-20T07:13:46.000Z</time>
</trkpt>
<trkpt lat="31.7801440" lon="35.0682150">
<ele>623.200012</ele>
<time>2017-10-20T07:13:47.000Z</time>
</trkpt>
<trkpt lat="31.7801120" lon="35.0681780">
<ele>623.299988</ele>
<time>2017-10-20T07:13:50.000Z</time>
</trkpt>
<trkpt lat="31.7801010" lon="35.0681490">
<ele>623.400024</ele>
<time>2017-10-20T07:13:52.000Z</time>
</trkpt>
<trkpt lat="31.7800910" lon="35.0681050">
<ele>623.599976</ele>
<time>2017-10-20T07:13:54.000Z</time>
</trkpt>
<trkpt lat="31.7800690" lon="35.0680790">
<ele>623.700012</ele>
<time>2017-10-20T07:13:56.000Z</time>
</trkpt>
<trkpt lat="31.7800510" lon="35.0680460">
<ele>623.799988</ele>
<time>2017-10-20T07:13:58.000Z</time>
</trkpt>
<trkpt lat="31.7800400" lon="35.0679970">
<ele>623.900024</ele>
<time>2017-10-20T07:14:00.000Z</time>
</trkpt>
<trkpt lat="31.7800270" lon="35.0679590">
<ele>624.000000</ele>
<time>2017-10-20T07:14:02.000Z</time>
</trkpt>
<trkpt lat="31.7800100" lon="35.0679330">
<ele>624.000000</ele>
<time>2017-10-20T07:14:05.000Z</time>
</trkpt>
<trkpt lat="31.7799990" lon="35.0678960">
<ele>624.000000</ele>
<time>2017-10-20T07:14:07.000Z</time>
</trkpt>
<trkpt lat="31.7800020" lon="35.0678600">
<ele>624.099976</ele>
<time>2017-10-20T07:14:09.000Z</time>
</trkpt>
<trkpt lat="31.7800060" lon="35.0678170">
<ele>624.099976</ele>
<time>2017-10-20T07:14:11.000Z</time>
</trkpt>
<trkpt lat="31.7800090" lon="35.0677670">
<ele>624.099976</ele>
<time>2017-10-20T07:14:13.000Z</time>
</trkpt>
<trkpt lat="31.7800210" lon="35.0677100">
<ele>624.099976</ele>
<time>2017-10-20T07:14:15.000Z</time>
</trkpt>
<trkpt lat="31.7800320" lon="35.0676520">
<ele>624.099976</ele>
<time>2017-10-20T07:14:17.000Z</time>
</trkpt>
<trkpt lat="31.7800460" lon="35.0675910">
<ele>624.299988</ele>
<time>2017-10-20T07:14:19.000Z</time>
</trkpt>
<trkpt lat="31.7800570" lon="35.0675370">
<ele>624.399963</ele>
<time>2017-10-20T07:14:21.000Z</time>
</trkpt>
<trkpt lat="31.7800830" lon="35.0674800">
<ele>624.600037</ele>
<time>2017-10-20T07:14:23.000Z</time>
</trkpt>
<trkpt lat="31.7800990" lon="35.0674460">
<ele>624.799988</ele>
<time>2017-10-20T07:14:24.000Z</time>
</trkpt>
<trkpt lat="31.7801130" lon="35.0674120">
<ele>624.899963</ele>
<time>2017-10-20T07:14:25.000Z</time>
</trkpt>
<trkpt lat="31.7801350" lon="35.0673720">
<ele>625.099976</ele>
<time>2017-10-20T07:14:26.000Z</time>
</trkpt>
<trkpt lat="31.7801540" lon="35.0673330">
<ele>625.099976</ele>
<time>2017-10-20T07:14:27.000Z</time>
</trkpt>
<trkpt lat="31.7801820" lon="35.0672940">
<ele>625.200012</ele>
<time>2017-10-20T07:14:28.000Z</time>
</trkpt>
<trkpt lat="31.7802260" lon="35.0672440">
<ele>625.300049</ele>
<time>2017-10-20T07:14:30.000Z</time>
</trkpt>
<trkpt lat="31.7802450" lon="35.0672150">
<ele>625.300049</ele>
<time>2017-10-20T07:14:31.000Z</time>
</trkpt>
<trkpt lat="31.7802650" lon="35.0671870">
<ele>625.399963</ele>
<time>2017-10-20T07:14:32.000Z</time>
</trkpt>
<trkpt lat="31.7802820" lon="35.0671580">
<ele>625.399963</ele>
<time>2017-10-20T07:14:33.000Z</time>
</trkpt>
<trkpt lat="31.7802960" lon="35.0671290">
<ele>625.399963</ele>
<time>2017-10-20T07:14:34.000Z</time>
</trkpt>
<trkpt lat="31.7803130" lon="35.0671000">
<ele>625.399963</ele>
<time>2017-10-20T07:14:35.000Z</time>
</trkpt>
<trkpt lat="31.7803420" lon="35.0670570">
<ele>625.399963</ele>
<time>2017-10-20T07:14:37.000Z</time>
</trkpt>
<trkpt lat="31.7803680" lon="35.0670340">
<ele>625.399963</ele>
<time>2017-10-20T07:14:39.000Z</time>
</trkpt>
<trkpt lat="31.7803910" lon="35.0670110">
<ele>625.500000</ele>
<time>2017-10-20T07:14:40.000Z</time>
</trkpt>
<trkpt lat="31.7804130" lon="35.0669870">
<ele>625.500000</ele>
<time>2017-10-20T07:14:41.000Z</time>
</trkpt>
<trkpt lat="31.7804350" lon="35.0669560">
<ele>625.500000</ele>
<time>2017-10-20T07:14:43.000Z</time>
</trkpt>
<trkpt lat="31.7804640" lon="35.0669010">
<ele>625.500000</ele>
<time>2017-10-20T07:14:45.000Z</time>
</trkpt>
<trkpt lat="31.7804880" lon="35.0668770">
<ele>625.500000</ele>
<time>2017-10-20T07:14:46.000Z</time>
</trkpt>
<trkpt lat="31.7805220" lon="35.0668350">
<ele>625.500000</ele>
<time>2017-10-20T07:14:48.000Z</time>
</trkpt>
<trkpt lat="31.7805380" lon="35.0668080">
<ele>625.500000</ele>
<time>2017-10-20T07:14:49.000Z</time>
</trkpt>
<trkpt lat="31.7805690" lon="35.0667660">
<ele>625.399963</ele>
<time>2017-10-20T07:14:51.000Z</time>
</trkpt>
<trkpt lat="31.7805940" lon="35.0667180">
<ele>625.399963</ele>
<time>2017-10-20T07:14:53.000Z</time>
</trkpt>
<trkpt lat="31.7806170" lon="35.0666620">
<ele>625.399963</ele>
<time>2017-10-20T07:14:55.000Z</time>
</trkpt>
<trkpt lat="31.7806360" lon="35.0666370">
<ele>625.399963</ele>
<time>2017-10-20T07:14:56.000Z</time>
</trkpt>
<trkpt lat="31.7806590" lon="35.0665780">
<ele>625.300049</ele>
<time>2017-10-20T07:14:58.000Z</time>
</trkpt>
<trkpt lat="31.7806780" lon="35.0665540">
<ele>625.300049</ele>
<time>2017-10-20T07:14:59.000Z</time>
</trkpt>
<trkpt lat="31.7806880" lon="35.0665240">
<ele>625.300049</ele>
<time>2017-10-20T07:15:00.000Z</time>
</trkpt>
<trkpt lat="31.7807110" lon="35.0664900">
<ele>625.200012</ele>
<time>2017-10-20T07:15:01.000Z</time>
</trkpt>
<trkpt lat="31.7807270" lon="35.0664640">
<ele>625.200012</ele>
<time>2017-10-20T07:15:02.000Z</time>
</trkpt>
<trkpt lat="31.7807460" lon="35.0664290">
<ele>625.200012</ele>
<time>2017-10-20T07:15:03.000Z</time>
</trkpt>
<trkpt lat="31.7807750" lon="35.0663650">
<ele>625.000000</ele>
<time>2017-10-20T07:15:05.000Z</time>
</trkpt>
<trkpt lat="31.7807960" lon="35.0663290">
<ele>624.799988</ele>
<time>2017-10-20T07:15:06.000Z</time>
</trkpt>
<trkpt lat="31.7808140" lon="35.0662910">
<ele>624.500000</ele>
<time>2017-10-20T07:15:07.000Z</time>
</trkpt>
<trkpt lat="31.7808320" lon="35.0662620">
<ele>624.200012</ele>
<time>2017-10-20T07:15:08.000Z</time>
</trkpt>
<trkpt lat="31.7808520" lon="35.0662220">
<ele>623.799988</ele>
<time>2017-10-20T07:15:09.000Z</time>
</trkpt>
<trkpt lat="31.7808690" lon="35.0661700">
<ele>623.299988</ele>
<time>2017-10-20T07:15:10.000Z</time>
</trkpt>
<trkpt lat="31.7808830" lon="35.0661350">
<ele>623.100037</ele>
<time>2017-10-20T07:15:11.000Z</time>
</trkpt>
<trkpt lat="31.7808980" lon="35.0660850">
<ele>622.799988</ele>
<time>2017-10-20T07:15:12.000Z</time>
</trkpt>
<trkpt lat="31.7809130" lon="35.0660330">
<ele>622.400024</ele>
<time>2017-10-20T07:15:13.000Z</time>
</trkpt>
<trkpt lat="31.7809300" lon="35.0659640">
<ele>621.700012</ele>
<time>2017-10-20T07:15:14.000Z</time>
</trkpt>
<trkpt lat="31.7809400" lon="35.0659030">
<ele>621.099976</ele>
<time>2017-10-20T07:15:15.000Z</time>
</trkpt>
<trkpt lat="31.7809490" lon="35.0658540">
<ele>620.700012</ele>
<time>2017-10-20T07:15:16.000Z</time>
</trkpt>
<trkpt lat="31.7809600" lon="35.0657890">
<ele>620.400024</ele>
<time>2017-10-20T07:15:17.000Z</time>
</trkpt>
<trkpt lat="31.7809640" lon="35.0657250">
<ele>619.899963</ele>
<time>2017-10-20T07:15:18.000Z</time>
</trkpt>
<trkpt lat="31.7809660" lon="35.0656660">
<ele>619.400024</ele>
<time>2017-10-20T07:15:19.000Z</time>
</trkpt>
<trkpt lat="31.7809720" lon="35.0655990">
<ele>618.799988</ele>
<time>2017-10-20T07:15:20.000Z</time>
</trkpt>
<trkpt lat="31.7809770" lon="35.0655360">
<ele>618.399963</ele>
<time>2017-10-20T07:15:21.000Z</time>
</trkpt>
<trkpt lat="31.7809900" lon="35.0654630">
<ele>618.099976</ele>
<time>2017-10-20T07:15:22.000Z</time>
</trkpt>
<trkpt lat="31.7809880" lon="35.0653850">
<ele>617.900024</ele>
<time>2017-10-20T07:15:23.000Z</time>
</trkpt>
<trkpt lat="31.7809820" lon="35.0653080">
<ele>617.599976</ele>
<time>2017-10-20T07:15:24.000Z</time>
</trkpt>
<trkpt lat="31.7809800" lon="35.0652300">
<ele>617.299988</ele>
<time>2017-10-20T07:15:25.000Z</time>
</trkpt>
<trkpt lat="31.7809830" lon="35.0651340">
<ele>616.799988</ele>
<time>2017-10-20T07:15:26.000Z</time>
</trkpt>
<trkpt lat="31.7809830" lon="35.0650450">
<ele>616.200012</ele>
<time>2017-10-20T07:15:27.000Z</time>
</trkpt>
<trkpt lat="31.7809770" lon="35.0649560">
<ele>616.000000</ele>
<time>2017-10-20T07:15:28.000Z</time>
</trkpt>
<trkpt lat="31.7809700" lon="35.0648530">
<ele>615.700012</ele>
<time>2017-10-20T07:15:29.000Z</time>
</trkpt>
<trkpt lat="31.7809720" lon="35.0647490">
<ele>615.500000</ele>
<time>2017-10-20T07:15:30.000Z</time>
</trkpt>
<trkpt lat="31.7809750" lon="35.0646520">
<ele>615.400024</ele>
<time>2017-10-20T07:15:31.000Z</time>
</trkpt>
<trkpt lat="31.7809790" lon="35.0645570">
<ele>615.299988</ele>
<time>2017-10-20T07:15:32.000Z</time>
</trkpt>
<trkpt lat="31.7809830" lon="35.0644570">
<ele>615.200012</ele>
<time>2017-10-20T07:15:33.000Z</time>
</trkpt>
<trkpt lat="31.7809850" lon="35.0643570">
<ele>615.100037</ele>
<time>2017-10-20T07:15:34.000Z</time>
</trkpt>
<trkpt lat="31.7809880" lon="35.0642620">
<ele>613.700012</ele>
<time>2017-10-20T07:15:35.000Z</time>
</trkpt>
<trkpt lat="31.7809880" lon="35.0641700">
<ele>611.000000</ele>
<time>2017-10-20T07:15:36.000Z</time>
</trkpt>
<trkpt lat="31.7809850" lon="35.0640770">
<ele>608.299988</ele>
<time>2017-10-20T07:15:37.000Z</time>
</trkpt>
<trkpt lat="31.7809810" lon="35.0639880">
<ele>605.200012</ele>
<time>2017-10-20T07:15:38.000Z</time>
</trkpt>
<trkpt lat="31.7809750" lon="35.0639070">
<ele>601.100037</ele>
<time>2017-10-20T07:15:39.000Z</time>
</trkpt>
<trkpt lat="31.7809620" lon="35.0638310">
<ele>598.400024</ele>
<time>2017-10-20T07:15:40.000Z</time>
</trkpt>
<trkpt lat="31.7809280" lon="35.0637820">
<ele>596.299988</ele>
<time>2017-10-20T07:15:41.000Z</time>
</trkpt>
<trkpt lat="31.7808950" lon="35.0637450">
<ele>594.599976</ele>
<time>2017-10-20T07:15:42.000Z</time>
</trkpt>
<trkpt lat="31.7808500" lon="35.0637280">
<ele>592.900024</ele>
<time>2017-10-20T07:15:43.000Z</time>
</trkpt>
<trkpt lat="31.7807910" lon="35.0637320">
<ele>591.099976</ele>
<time>2017-10-20T07:15:44.000Z</time>
</trkpt>
<trkpt lat="31.7807400" lon="35.0637480">
<ele>591.599976</ele>
<time>2017-10-20T07:15:45.000Z</time>
</trkpt>
<trkpt lat="31.7806960" lon="35.0637680">
<ele>592.000000</ele>
<time>2017-10-20T07:15:46.000Z</time>
</trkpt>
<trkpt lat="31.7806610" lon="35.0637760">
<ele>592.299988</ele>
<time>2017-10-20T07:15:47.000Z</time>
</trkpt>
<trkpt lat="31.7806260" lon="35.0637840">
<ele>592.700012</ele>
<time>2017-10-20T07:15:48.000Z</time>
</trkpt>
<trkpt lat="31.7805940" lon="35.0637960">
<ele>593.000000</ele>
<time>2017-10-20T07:15:49.000Z</time>
</trkpt>
<trkpt lat="31.7805540" lon="35.0638140">
<ele>593.399963</ele>
<time>2017-10-20T07:15:50.000Z</time>
</trkpt>
<trkpt lat="31.7805190" lon="35.0638270">
<ele>593.799988</ele>
<time>2017-10-20T07:15:51.000Z</time>
</trkpt>
<trkpt lat="31.7804850" lon="35.0638410">
<ele>594.099976</ele>
<time>2017-10-20T07:15:52.000Z</time>
</trkpt>
<trkpt lat="31.7804490" lon="35.0638590">
<ele>594.500000</ele>
<time>2017-10-20T07:15:53.000Z</time>
</trkpt>
<trkpt lat="31.7804190" lon="35.0638690">
<ele>594.799988</ele>
<time>2017-10-20T07:15:54.000Z</time>
</trkpt>
<trkpt lat="31.7803880" lon="35.0638810">
<ele>595.299988</ele>
<time>2017-10-20T07:15:55.000Z</time>
</trkpt>
<trkpt lat="31.7803580" lon="35.0638970">
<ele>595.900024</ele>
<time>2017-10-20T07:15:56.000Z</time>
</trkpt>
<trkpt lat="31.7803260" lon="35.0639130">
<ele>596.600037</ele>
<time>2017-10-20T07:15:57.000Z</time>
</trkpt>
<trkpt lat="31.7802920" lon="35.0639300">
<ele>597.200012</ele>
<time>2017-10-20T07:15:58.000Z</time>
</trkpt>
<trkpt lat="31.7802580" lon="35.0639490">
<ele>597.700012</ele>
<time>2017-10-20T07:15:59.000Z</time>
</trkpt>
<trkpt lat="31.7802250" lon="35.0639630">
<ele>598.200012</ele>
<time>2017-10-20T07:16:00.000Z</time>
</trkpt>
<trkpt lat="31.7801880" lon="35.0639830">
<ele>598.799988</ele>
<time>2017-10-20T07:16:01.000Z</time>
</trkpt>
<trkpt lat="31.7801470" lon="35.0639990">
<ele>599.299988</ele>
<time>2017-10-20T07:16:02.000Z</time>
</trkpt>
<trkpt lat="31.7801090" lon="35.0640190">
<ele>599.700012</ele>
<time>2017-10-20T07:16:03.000Z</time>
</trkpt>
<trkpt lat="31.7800690" lon="35.0640550">
<ele>600.299988</ele>
<time>2017-10-20T07:16:04.000Z</time>
</trkpt>
<trkpt lat="31.7800240" lon="35.0640800">
<ele>600.799988</ele>
<time>2017-10-20T07:16:05.000Z</time>
</trkpt>
<trkpt lat="31.7799740" lon="35.0641040">
<ele>601.400024</ele>
<time>2017-10-20T07:16:06.000Z</time>
</trkpt>
<trkpt lat="31.7799260" lon="35.0641310">
<ele>602.399963</ele>
<time>2017-10-20T07:16:07.000Z</time>
</trkpt>
<trkpt lat="31.7798760" lon="35.0641640">
<ele>603.500000</ele>
<time>2017-10-20T07:16:08.000Z</time>
</trkpt>
<trkpt lat="31.7798230" lon="35.0641920">
<ele>604.500000</ele>
<time>2017-10-20T07:16:09.000Z</time>
</trkpt>
<trkpt lat="31.7797710" lon="35.0642220">
<ele>605.299988</ele>
<time>2017-10-20T07:16:10.000Z</time>
</trkpt>
<trkpt lat="31.7797200" lon="35.0642520">
<ele>606.100037</ele>
<time>2017-10-20T07:16:11.000Z</time>
</trkpt>
<trkpt lat="31.7796600" lon="35.0642840">
<ele>606.900024</ele>
<time>2017-10-20T07:16:12.000Z</time>
</trkpt>
<trkpt lat="31.7796020" lon="35.0643150">
<ele>607.700012</ele>
<time>2017-10-20T07:16:13.000Z</time>
</trkpt>
<trkpt lat="31.7795420" lon="35.0643480">
<ele>608.400024</ele>
<time>2017-10-20T07:16:14.000Z</time>
</trkpt>
<trkpt lat="31.7794810" lon="35.0643880">
<ele>609.200012</ele>
<time>2017-10-20T07:16:15.000Z</time>
</trkpt>
<trkpt lat="31.7794200" lon="35.0644280">
<ele>610.000000</ele>
<time>2017-10-20T07:16:16.000Z</time>
</trkpt>
<trkpt lat="31.7793610" lon="35.0644610">
<ele>610.700012</ele>
<time>2017-10-20T07:16:17.000Z</time>
</trkpt>
<trkpt lat="31.7793050" lon="35.0644970">
<ele>611.500000</ele>
<time>2017-10-20T07:16:18.000Z</time>
</trkpt>
<trkpt lat="31.7792510" lon="35.0645240">
<ele>612.700012</ele>
<time>2017-10-20T07:16:19.000Z</time>
</trkpt>
<trkpt lat="31.7792000" lon="35.0645460">
<ele>613.700012</ele>
<time>2017-10-20T07:16:20.000Z</time>
</trkpt>
<trkpt lat="31.7791570" lon="35.0645590">
<ele>614.500000</ele>
<time>2017-10-20T07:16:21.000Z</time>
</trkpt>
<trkpt lat="31.7791220" lon="35.0645670">
<ele>615.100037</ele>
<time>2017-10-20T07:16:22.000Z</time>
</trkpt>
<trkpt lat="31.7790950" lon="35.0645630">
<ele>615.700012</ele>
<time>2017-10-20T07:16:23.000Z</time>
</trkpt>
<trkpt lat="31.7790590" lon="35.0645430">
<ele>616.700012</ele>
<time>2017-10-20T07:16:24.000Z</time>
</trkpt>
<trkpt lat="31.7790330" lon="35.0645220">
<ele>617.500000</ele>
<time>2017-10-20T07:16:25.000Z</time>
</trkpt>
<trkpt lat="31.7790080" lon="35.0644870">
<ele>618.700012</ele>
<time>2017-10-20T07:16:26.000Z</time>
</trkpt>
<trkpt lat="31.7789920" lon="35.0644480">
<ele>619.500000</ele>
<time>2017-10-20T07:16:27.000Z</time>
</trkpt>
<trkpt lat="31.7789760" lon="35.0644040">
<ele>620.400024</ele>
<time>2017-10-20T07:16:28.000Z</time>
</trkpt>
<trkpt lat="31.7789650" lon="35.0643590">
<ele>621.200012</ele>
<time>2017-10-20T07:16:29.000Z</time>
</trkpt>
<trkpt lat="31.7789660" lon="35.0643020">
<ele>622.500000</ele>
<time>2017-10-20T07:16:30.000Z</time>
</trkpt>
<trkpt lat="31.7789700" lon="35.0642330">
<ele>624.700012</ele>
<time>2017-10-20T07:16:31.000Z</time>
</trkpt>
<trkpt lat="31.7789770" lon="35.0641540">
<ele>628.500000</ele>
<time>2017-10-20T07:16:32.000Z</time>
</trkpt>
<trkpt lat="31.7789890" lon="35.0640700">
<ele>631.100037</ele>
<time>2017-10-20T07:16:33.000Z</time>
</trkpt>
<trkpt lat="31.7790060" lon="35.0639840">
<ele>634.900024</ele>
<time>2017-10-20T07:16:34.000Z</time>
</trkpt>
<trkpt lat="31.7790220" lon="35.0638990">
<ele>637.200012</ele>
<time>2017-10-20T07:16:35.000Z</time>
</trkpt>
<trkpt lat="31.7790440" lon="35.0638090">
<ele>638.599976</ele>
<time>2017-10-20T07:16:36.000Z</time>
</trkpt>
<trkpt lat="31.7790740" lon="35.0637190">
<ele>637.399963</ele>
<time>2017-10-20T07:16:37.000Z</time>
</trkpt>
<trkpt lat="31.7791060" lon="35.0636290">
<ele>635.299988</ele>
<time>2017-10-20T07:16:38.000Z</time>
</trkpt>
<trkpt lat="31.7791440" lon="35.0635450">
<ele>633.199951</ele>
<time>2017-10-20T07:16:39.000Z</time>
</trkpt>
<trkpt lat="31.7791850" lon="35.0634680">
<ele>631.200012</ele>
<time>2017-10-20T07:16:40.000Z</time>
</trkpt>
<trkpt lat="31.7792180" lon="35.0633880">
<ele>629.299988</ele>
<time>2017-10-20T07:16:41.000Z</time>
</trkpt>
<trkpt lat="31.7792460" lon="35.0633060">
<ele>627.500000</ele>
<time>2017-10-20T07:16:42.000Z</time>
</trkpt>
<trkpt lat="31.7792750" lon="35.0632260">
<ele>625.599976</ele>
<time>2017-10-20T07:16:43.000Z</time>
</trkpt>
<trkpt lat="31.7793050" lon="35.0631530">
<ele>624.000000</ele>
<time>2017-10-20T07:16:44.000Z</time>
</trkpt>
<trkpt lat="31.7793350" lon="35.0630870">
<ele>622.599976</ele>
<time>2017-10-20T07:16:45.000Z</time>
</trkpt>
<trkpt lat="31.7793650" lon="35.0630320">
<ele>621.399963</ele>
<time>2017-10-20T07:16:46.000Z</time>
</trkpt>
<trkpt lat="31.7793870" lon="35.0629830">
<ele>620.299988</ele>
<time>2017-10-20T07:16:47.000Z</time>
</trkpt>
<trkpt lat="31.7793950" lon="35.0629430">
<ele>619.500000</ele>
<time>2017-10-20T07:16:48.000Z</time>
</trkpt>
<trkpt lat="31.7794080" lon="35.0629070">
<ele>618.500000</ele>
<time>2017-10-20T07:16:49.000Z</time>
</trkpt>
<trkpt lat="31.7794220" lon="35.0628690">
<ele>617.299988</ele>
<time>2017-10-20T07:16:50.000Z</time>
</trkpt>
<trkpt lat="31.7794510" lon="35.0628390">
<ele>616.000000</ele>
<time>2017-10-20T07:16:51.000Z</time>
</trkpt>
<trkpt lat="31.7794820" lon="35.0628000">
<ele>615.000000</ele>
<time>2017-10-20T07:16:52.000Z</time>
</trkpt>
<trkpt lat="31.7795100" lon="35.0627600">
<ele>614.599976</ele>
<time>2017-10-20T07:16:53.000Z</time>
</trkpt>
<trkpt lat="31.7795290" lon="35.0627240">
<ele>614.200012</ele>
<time>2017-10-20T07:16:54.000Z</time>
</trkpt>
<trkpt lat="31.7795430" lon="35.0626840">
<ele>613.900024</ele>
<time>2017-10-20T07:16:55.000Z</time>
</trkpt>
<trkpt lat="31.7795610" lon="35.0626450">
<ele>613.500000</ele>
<time>2017-10-20T07:16:56.000Z</time>
</trkpt>
<trkpt lat="31.7795820" lon="35.0626050">
<ele>613.099976</ele>
<time>2017-10-20T07:16:57.000Z</time>
</trkpt>
<trkpt lat="31.7796030" lon="35.0625620">
<ele>612.599976</ele>
<time>2017-10-20T07:16:58.000Z</time>
</trkpt>
<trkpt lat="31.7796220" lon="35.0625190">
<ele>611.899963</ele>
<time>2017-10-20T07:16:59.000Z</time>
</trkpt>
<trkpt lat="31.7796410" lon="35.0624740">
<ele>610.900024</ele>
<time>2017-10-20T07:17:00.000Z</time>
</trkpt>
<trkpt lat="31.7796540" lon="35.0624210">
<ele>609.700012</ele>
<time>2017-10-20T07:17:01.000Z</time>
</trkpt>
<trkpt lat="31.7796720" lon="35.0623650">
<ele>608.400024</ele>
<time>2017-10-20T07:17:02.000Z</time>
</trkpt>
<trkpt lat="31.7796850" lon="35.0623230">
<ele>607.799988</ele>
<time>2017-10-20T07:17:03.000Z</time>
</trkpt>
<trkpt lat="31.7797010" lon="35.0622860">
<ele>607.299988</ele>
<time>2017-10-20T07:17:04.000Z</time>
</trkpt>
<trkpt lat="31.7797210" lon="35.0622400">
<ele>606.799988</ele>
<time>2017-10-20T07:17:05.000Z</time>
</trkpt>
<trkpt lat="31.7797460" lon="35.0621890">
<ele>605.899963</ele>
<time>2017-10-20T07:17:06.000Z</time>
</trkpt>
<trkpt lat="31.7797690" lon="35.0621380">
<ele>604.600037</ele>
<time>2017-10-20T07:17:07.000Z</time>
</trkpt>
<trkpt lat="31.7797920" lon="35.0620880">
<ele>603.299988</ele>
<time>2017-10-20T07:17:08.000Z</time>
</trkpt>
<trkpt lat="31.7798190" lon="35.0620440">
<ele>602.099976</ele>
<time>2017-10-20T07:17:09.000Z</time>
</trkpt>
<trkpt lat="31.7798420" lon="35.0620000">
<ele>601.000000</ele>
<time>2017-10-20T07:17:10.000Z</time>
</trkpt>
<trkpt lat="31.7798650" lon="35.0619550">
<ele>599.900024</ele>
<time>2017-10-20T07:17:11.000Z</time>
</trkpt>
<trkpt lat="31.7798780" lon="35.0619050">
<ele>598.900024</ele>
<time>2017-10-20T07:17:12.000Z</time>
</trkpt>
<trkpt lat="31.7798970" lon="35.0618620">
<ele>598.100037</ele>
<time>2017-10-20T07:17:13.000Z</time>
</trkpt>
<trkpt lat="31.7799170" lon="35.0618200">
<ele>597.400024</ele>
<time>2017-10-20T07:17:14.000Z</time>
</trkpt>
<trkpt lat="31.7799440" lon="35.0617750">
<ele>597.000000</ele>
<time>2017-10-20T07:17:15.000Z</time>
</trkpt>
<trkpt lat="31.7799700" lon="35.0617270">
<ele>596.500000</ele>
<time>2017-10-20T07:17:16.000Z</time>
</trkpt>
<trkpt lat="31.7799970" lon="35.0616820">
<ele>596.000000</ele>
<time>2017-10-20T07:17:17.000Z</time>
</trkpt>
<trkpt lat="31.7800250" lon="35.0616280">
<ele>595.599976</ele>
<time>2017-10-20T07:17:18.000Z</time>
</trkpt>
<trkpt lat="31.7800490" lon="35.0615820">
<ele>595.400024</ele>
<time>2017-10-20T07:17:19.000Z</time>
</trkpt>
<trkpt lat="31.7800670" lon="35.0615290">
<ele>595.200012</ele>
<time>2017-10-20T07:17:20.000Z</time>
</trkpt>
<trkpt lat="31.7800850" lon="35.0614720">
<ele>595.100037</ele>
<time>2017-10-20T07:17:21.000Z</time>
</trkpt>
<trkpt lat="31.7801090" lon="35.0614200">
<ele>594.899963</ele>
<time>2017-10-20T07:17:22.000Z</time>
</trkpt>
<trkpt lat="31.7801270" lon="35.0613650">
<ele>594.700012</ele>
<time>2017-10-20T07:17:23.000Z</time>
</trkpt>
<trkpt lat="31.7801480" lon="35.0613040">
<ele>594.400024</ele>
<time>2017-10-20T07:17:24.000Z</time>
</trkpt>
<trkpt lat="31.7801690" lon="35.0612410">
<ele>594.200012</ele>
<time>2017-10-20T07:17:25.000Z</time>
</trkpt>
<trkpt lat="31.7801890" lon="35.0611840">
<ele>594.099976</ele>
<time>2017-10-20T07:17:26.000Z</time>
</trkpt>
<trkpt lat="31.7802090" lon="35.0611310">
<ele>594.000000</ele>
<time>2017-10-20T07:17:27.000Z</time>
</trkpt>
<trkpt lat="31.7802250" lon="35.0610790">
<ele>593.799988</ele>
<time>2017-10-20T07:17:28.000Z</time>
</trkpt>
<trkpt lat="31.7802410" lon="35.0610200">
<ele>593.700012</ele>
<time>2017-10-20T07:17:29.000Z</time>
</trkpt>
<trkpt lat="31.7802560" lon="35.0609580">
<ele>593.500000</ele>
<time>2017-10-20T07:17:30.000Z</time>
</trkpt>
<trkpt lat="31.7802630" lon="35.0609050">
<ele>593.299988</ele>
<time>2017-10-20T07:17:31.000Z</time>
</trkpt>
<trkpt lat="31.7802680" lon="35.0608560">
<ele>593.200012</ele>
<time>2017-10-20T07:17:32.000Z</time>
</trkpt>
<trkpt lat="31.7802720" lon="35.0608180">
<ele>593.200012</ele>
<time>2017-10-20T07:17:33.000Z</time>
</trkpt>
<trkpt lat="31.7802810" lon="35.0607840">
<ele>593.099976</ele>
<time>2017-10-20T07:17:34.000Z</time>
</trkpt>
<trkpt lat="31.7802890" lon="35.0607200">
<ele>592.900024</ele>
<time>2017-10-20T07:17:36.000Z</time>
</trkpt>
<trkpt lat="31.7803010" lon="35.0606620">
<ele>592.799988</ele>
<time>2017-10-20T07:17:38.000Z</time>
</trkpt>
<trkpt lat="31.7803020" lon="35.0606300">
<ele>592.700012</ele>
<time>2017-10-20T07:17:39.000Z</time>
</trkpt>
<trkpt lat="31.7803000" lon="35.0605900">
<ele>592.599976</ele>
<time>2017-10-20T07:17:40.000Z</time>
</trkpt>
<trkpt lat="31.7803030" lon="35.0605530">
<ele>592.400024</ele>
<time>2017-10-20T07:17:41.000Z</time>
</trkpt>
<trkpt lat="31.7803060" lon="35.0604960">
<ele>592.100037</ele>
<time>2017-10-20T07:17:43.000Z</time>
</trkpt>
<trkpt lat="31.7803090" lon="35.0604390">
<ele>591.799988</ele>
<time>2017-10-20T07:17:45.000Z</time>
</trkpt>
<trkpt lat="31.7803170" lon="35.0603820">
<ele>591.599976</ele>
<time>2017-10-20T07:17:47.000Z</time>
</trkpt>
<trkpt lat="31.7803240" lon="35.0603220">
<ele>591.299988</ele>
<time>2017-10-20T07:17:49.000Z</time>
</trkpt>
<trkpt lat="31.7803230" lon="35.0602870">
<ele>591.099976</ele>
<time>2017-10-20T07:17:50.000Z</time>
</trkpt>
<trkpt lat="31.7803300" lon="35.0602100">
<ele>590.699951</ele>
<time>2017-10-20T07:17:52.000Z</time>
</trkpt>
<trkpt lat="31.7803410" lon="35.0601680">
<ele>590.400024</ele>
<time>2017-10-20T07:17:53.000Z</time>
</trkpt>
<trkpt lat="31.7803520" lon="35.0601280">
<ele>590.200012</ele>
<time>2017-10-20T07:17:54.000Z</time>
</trkpt>
<trkpt lat="31.7803610" lon="35.0600870">
<ele>589.799988</ele>
<time>2017-10-20T07:17:55.000Z</time>
</trkpt>
<trkpt lat="31.7803670" lon="35.0600540">
<ele>589.200012</ele>
<time>2017-10-20T07:17:56.000Z</time>
</trkpt>
<trkpt lat="31.7803730" lon="35.0600220">
<ele>588.600037</ele>
<time>2017-10-20T07:17:57.000Z</time>
</trkpt>
<trkpt lat="31.7803780" lon="35.0599570">
<ele>587.200012</ele>
<time>2017-10-20T07:17:59.000Z</time>
</trkpt>
<trkpt lat="31.7803820" lon="35.0599200">
<ele>586.799988</ele>
<time>2017-10-20T07:18:00.000Z</time>
</trkpt>
<trkpt lat="31.7803860" lon="35.0598820">
<ele>586.400024</ele>
<time>2017-10-20T07:18:01.000Z</time>
</trkpt>
<trkpt lat="31.7803890" lon="35.0598400">
<ele>586.000000</ele>
<time>2017-10-20T07:18:02.000Z</time>
</trkpt>
<trkpt lat="31.7803950" lon="35.0597950">
<ele>585.500000</ele>
<time>2017-10-20T07:18:03.000Z</time>
</trkpt>
<trkpt lat="31.7804000" lon="35.0597540">
<ele>585.000000</ele>
<time>2017-10-20T07:18:04.000Z</time>
</trkpt>
<trkpt lat="31.7804090" lon="35.0597110">
<ele>584.000000</ele>
<time>2017-10-20T07:18:05.000Z</time>
</trkpt>
<trkpt lat="31.7804190" lon="35.0596670">
<ele>582.799988</ele>
<time>2017-10-20T07:18:06.000Z</time>
</trkpt>
<trkpt lat="31.7804370" lon="35.0596260">
<ele>581.599976</ele>
<time>2017-10-20T07:18:07.000Z</time>
</trkpt>
<trkpt lat="31.7804500" lon="35.0595680">
<ele>580.400024</ele>
<time>2017-10-20T07:18:08.000Z</time>
</trkpt>
<trkpt lat="31.7804580" lon="35.0595090">
<ele>579.600037</ele>
<time>2017-10-20T07:18:09.000Z</time>
</trkpt>
<trkpt lat="31.7804580" lon="35.0594450">
<ele>578.200012</ele>
<time>2017-10-20T07:18:10.000Z</time>
</trkpt>
<trkpt lat="31.7804590" lon="35.0593800">
<ele>576.700012</ele>
<time>2017-10-20T07:18:11.000Z</time>
</trkpt>
<trkpt lat="31.7804600" lon="35.0593090">
<ele>575.599976</ele>
<time>2017-10-20T07:18:12.000Z</time>
</trkpt>
<trkpt lat="31.7804550" lon="35.0592100">
<ele>574.600037</ele>
<time>2017-10-20T07:18:13.000Z</time>
</trkpt>
<trkpt lat="31.7804530" lon="35.0591220">
<ele>573.900024</ele>
<time>2017-10-20T07:18:14.000Z</time>
</trkpt>
<trkpt lat="31.7804460" lon="35.0590270">
<ele>573.200012</ele>
<time>2017-10-20T07:18:15.000Z</time>
</trkpt>
<trkpt lat="31.7804300" lon="35.0589340">
<ele>571.799988</ele>
<time>2017-10-20T07:18:16.000Z</time>
</trkpt>
<trkpt lat="31.7804140" lon="35.0588480">
<ele>570.200012</ele>
<time>2017-10-20T07:18:17.000Z</time>
</trkpt>
<trkpt lat="31.7804070" lon="35.0587650">
<ele>569.500000</ele>
<time>2017-10-20T07:18:18.000Z</time>
</trkpt>
<trkpt lat="31.7803960" lon="35.0586910">
<ele>569.000000</ele>
<time>2017-10-20T07:18:19.000Z</time>
</trkpt>
<trkpt lat="31.7803780" lon="35.0586260">
<ele>568.700012</ele>
<time>2017-10-20T07:18:20.000Z</time>
</trkpt>
<trkpt lat="31.7803570" lon="35.0585670">
<ele>568.399963</ele>
<time>2017-10-20T07:18:21.000Z</time>
</trkpt>
<trkpt lat="31.7803310" lon="35.0585120">
<ele>568.099976</ele>
<time>2017-10-20T07:18:22.000Z</time>
</trkpt>
<trkpt lat="31.7803070" lon="35.0584620">
<ele>567.900024</ele>
<time>2017-10-20T07:18:23.000Z</time>
</trkpt>
<trkpt lat="31.7802800" lon="35.0584220">
<ele>567.700012</ele>
<time>2017-10-20T07:18:24.000Z</time>
</trkpt>
<trkpt lat="31.7802570" lon="35.0583970">
<ele>567.500000</ele>
<time>2017-10-20T07:18:25.000Z</time>
</trkpt>
<trkpt lat="31.7802310" lon="35.0583620">
<ele>567.400024</ele>
<time>2017-10-20T07:18:27.000Z</time>
</trkpt>
<trkpt lat="31.7801920" lon="35.0583320">
<ele>567.200012</ele>
<time>2017-10-20T07:18:29.000Z</time>
</trkpt>
<trkpt lat="31.7801660" lon="35.0582810">
<ele>567.200012</ele>
<time>2017-10-20T07:18:31.000Z</time>
</trkpt>
<trkpt lat="31.7801510" lon="35.0582510">
<ele>567.500000</ele>
<time>2017-10-20T07:18:32.000Z</time>
</trkpt>
<trkpt lat="31.7801280" lon="35.0582280">
<ele>567.799988</ele>
<time>2017-10-20T07:18:33.000Z</time>
</trkpt>
<trkpt lat="31.7800940" lon="35.0582110">
<ele>568.099976</ele>
<time>2017-10-20T07:18:34.000Z</time>
</trkpt>
<trkpt lat="31.7800550" lon="35.0581940">
<ele>568.399963</ele>
<time>2017-10-20T07:18:35.000Z</time>
</trkpt>
<trkpt lat="31.7800130" lon="35.0581760">
<ele>568.700012</ele>
<time>2017-10-20T07:18:36.000Z</time>
</trkpt>
<trkpt lat="31.7799750" lon="35.0581580">
<ele>568.799988</ele>
<time>2017-10-20T07:18:37.000Z</time>
</trkpt>
<trkpt lat="31.7799400" lon="35.0581470">
<ele>568.900024</ele>
<time>2017-10-20T07:18:38.000Z</time>
</trkpt>
<trkpt lat="31.7799000" lon="35.0581440">
<ele>569.000000</ele>
<time>2017-10-20T07:18:39.000Z</time>
</trkpt>
<trkpt lat="31.7798560" lon="35.0581420">
<ele>569.099976</ele>
<time>2017-10-20T07:18:40.000Z</time>
</trkpt>
<trkpt lat="31.7798100" lon="35.0581420">
<ele>569.200012</ele>
<time>2017-10-20T07:18:41.000Z</time>
</trkpt>
<trkpt lat="31.7797640" lon="35.0581400">
<ele>569.299988</ele>
<time>2017-10-20T07:18:42.000Z</time>
</trkpt>
<trkpt lat="31.7797200" lon="35.0581400">
<ele>569.400024</ele>
<time>2017-10-20T07:18:43.000Z</time>
</trkpt>
<trkpt lat="31.7796730" lon="35.0581450">
<ele>569.599976</ele>
<time>2017-10-20T07:18:44.000Z</time>
</trkpt>
<trkpt lat="31.7796280" lon="35.0581490">
<ele>569.700012</ele>
<time>2017-10-20T07:18:45.000Z</time>
</trkpt>
<trkpt lat="31.7795780" lon="35.0581540">
<ele>569.799988</ele>
<time>2017-10-20T07:18:46.000Z</time>
</trkpt>
<trkpt lat="31.7795340" lon="35.0581600">
<ele>569.899963</ele>
<time>2017-10-20T07:18:47.000Z</time>
</trkpt>
<trkpt lat="31.7794890" lon="35.0581690">
<ele>570.100037</ele>
<time>2017-10-20T07:18:48.000Z</time>
</trkpt>
<trkpt lat="31.7794430" lon="35.0581780">
<ele>570.200012</ele>
<time>2017-10-20T07:18:49.000Z</time>
</trkpt>
<trkpt lat="31.7793930" lon="35.0581910">
<ele>570.500000</ele>
<time>2017-10-20T07:18:50.000Z</time>
</trkpt>
<trkpt lat="31.7793430" lon="35.0582070">
<ele>570.700012</ele>
<time>2017-10-20T07:18:51.000Z</time>
</trkpt>
<trkpt lat="31.7792930" lon="35.0582230">
<ele>570.900024</ele>
<time>2017-10-20T07:18:52.000Z</time>
</trkpt>
<trkpt lat="31.7792430" lon="35.0582360">
<ele>571.099976</ele>
<time>2017-10-20T07:18:53.000Z</time>
</trkpt>
<trkpt lat="31.7791890" lon="35.0582400">
<ele>571.399963</ele>
<time>2017-10-20T07:18:54.000Z</time>
</trkpt>
<trkpt lat="31.7791390" lon="35.0582280">
<ele>571.700012</ele>
<time>2017-10-20T07:18:55.000Z</time>
</trkpt>
<trkpt lat="31.7791000" lon="35.0582090">
<ele>572.000000</ele>
<time>2017-10-20T07:18:56.000Z</time>
</trkpt>
<trkpt lat="31.7790660" lon="35.0581840">
<ele>572.200012</ele>
<time>2017-10-20T07:18:57.000Z</time>
</trkpt>
<trkpt lat="31.7790500" lon="35.0581460">
<ele>572.299988</ele>
<time>2017-10-20T07:18:58.000Z</time>
</trkpt>
<trkpt lat="31.7790380" lon="35.0581040">
<ele>572.500000</ele>
<time>2017-10-20T07:18:59.000Z</time>
</trkpt>
<trkpt lat="31.7790320" lon="35.0580610">
<ele>572.700012</ele>
<time>2017-10-20T07:19:00.000Z</time>
</trkpt>
<trkpt lat="31.7790320" lon="35.0580260">
<ele>572.899963</ele>
<time>2017-10-20T07:19:01.000Z</time>
</trkpt>
<trkpt lat="31.7790370" lon="35.0579930">
<ele>573.100037</ele>
<time>2017-10-20T07:19:02.000Z</time>
</trkpt>
<trkpt lat="31.7790660" lon="35.0579470">
<ele>573.400024</ele>
<time>2017-10-20T07:19:03.000Z</time>
</trkpt>
<trkpt lat="31.7790880" lon="35.0578850">
<ele>573.700012</ele>
<time>2017-10-20T07:19:04.000Z</time>
</trkpt>
<trkpt lat="31.7791060" lon="35.0578170">
<ele>574.000000</ele>
<time>2017-10-20T07:19:05.000Z</time>
</trkpt>
<trkpt lat="31.7791350" lon="35.0577420">
<ele>574.200012</ele>
<time>2017-10-20T07:19:06.000Z</time>
</trkpt>
<trkpt lat="31.7791730" lon="35.0576670">
<ele>574.399963</ele>
<time>2017-10-20T07:19:07.000Z</time>
</trkpt>
<trkpt lat="31.7792070" lon="35.0575940">
<ele>574.600037</ele>
<time>2017-10-20T07:19:08.000Z</time>
</trkpt>
<trkpt lat="31.7792420" lon="35.0575190">
<ele>574.799988</ele>
<time>2017-10-20T07:19:09.000Z</time>
</trkpt>
<trkpt lat="31.7792780" lon="35.0574420">
<ele>575.000000</ele>
<time>2017-10-20T07:19:10.000Z</time>
</trkpt>
<trkpt lat="31.7793130" lon="35.0573680">
<ele>575.299988</ele>
<time>2017-10-20T07:19:11.000Z</time>
</trkpt>
<trkpt lat="31.7793380" lon="35.0572860">
<ele>575.500000</ele>
<time>2017-10-20T07:19:12.000Z</time>
</trkpt>
<trkpt lat="31.7793620" lon="35.0572070">
<ele>575.700012</ele>
<time>2017-10-20T07:19:13.000Z</time>
</trkpt>
<trkpt lat="31.7793920" lon="35.0571320">
<ele>575.899963</ele>
<time>2017-10-20T07:19:14.000Z</time>
</trkpt>
<trkpt lat="31.7794270" lon="35.0570640">
<ele>576.200012</ele>
<time>2017-10-20T07:19:15.000Z</time>
</trkpt>
<trkpt lat="31.7794630" lon="35.0570000">
<ele>576.500000</ele>
<time>2017-10-20T07:19:16.000Z</time>
</trkpt>
<trkpt lat="31.7794930" lon="35.0569340">
<ele>576.700012</ele>
<time>2017-10-20T07:19:17.000Z</time>
</trkpt>
<trkpt lat="31.7795240" lon="35.0568710">
<ele>577.299988</ele>
<time>2017-10-20T07:19:18.000Z</time>
</trkpt>
<trkpt lat="31.7795530" lon="35.0568050">
<ele>578.200012</ele>
<time>2017-10-20T07:19:19.000Z</time>
</trkpt>
<trkpt lat="31.7795810" lon="35.0567390">
<ele>579.099976</ele>
<time>2017-10-20T07:19:20.000Z</time>
</trkpt>
<trkpt lat="31.7796110" lon="35.0566760">
<ele>579.500000</ele>
<time>2017-10-20T07:19:21.000Z</time>
</trkpt>
<trkpt lat="31.7796410" lon="35.0566160">
<ele>579.900024</ele>
<time>2017-10-20T07:19:22.000Z</time>
</trkpt>
<trkpt lat="31.7796620" lon="35.0565580">
<ele>580.200012</ele>
<time>2017-10-20T07:19:23.000Z</time>
</trkpt>
<trkpt lat="31.7796860" lon="35.0565070">
<ele>580.299988</ele>
<time>2017-10-20T07:19:24.000Z</time>
</trkpt>
<trkpt lat="31.7797120" lon="35.0564600">
<ele>580.500000</ele>
<time>2017-10-20T07:19:25.000Z</time>
</trkpt>
<trkpt lat="31.7797350" lon="35.0564080">
<ele>580.700012</ele>
<time>2017-10-20T07:19:26.000Z</time>
</trkpt>
<trkpt lat="31.7797550" lon="35.0563610">
<ele>580.799988</ele>
<time>2017-10-20T07:19:27.000Z</time>
</trkpt>
<trkpt lat="31.7797760" lon="35.0563090">
<ele>581.000000</ele>
<time>2017-10-20T07:19:28.000Z</time>
</trkpt>
<trkpt lat="31.7797990" lon="35.0562600">
<ele>581.100037</ele>
<time>2017-10-20T07:19:29.000Z</time>
</trkpt>
<trkpt lat="31.7798240" lon="35.0562090">
<ele>581.299988</ele>
<time>2017-10-20T07:19:30.000Z</time>
</trkpt>
<trkpt lat="31.7798500" lon="35.0561540">
<ele>581.500000</ele>
<time>2017-10-20T07:19:31.000Z</time>
</trkpt>
<trkpt lat="31.7798740" lon="35.0560930">
<ele>581.700012</ele>
<time>2017-10-20T07:19:32.000Z</time>
</trkpt>
<trkpt lat="31.7798960" lon="35.0560340">
<ele>581.900024</ele>
<time>2017-10-20T07:19:33.000Z</time>
</trkpt>
<trkpt lat="31.7799240" lon="35.0559770">
<ele>582.200012</ele>
<time>2017-10-20T07:19:34.000Z</time>
</trkpt>
<trkpt lat="31.7799500" lon="35.0559230">
<ele>582.399963</ele>
<time>2017-10-20T07:19:35.000Z</time>
</trkpt>
<trkpt lat="31.7799750" lon="35.0558660">
<ele>582.600037</ele>
<time>2017-10-20T07:19:36.000Z</time>
</trkpt>
<trkpt lat="31.7799970" lon="35.0558080">
<ele>582.799988</ele>
<time>2017-10-20T07:19:37.000Z</time>
</trkpt>
<trkpt lat="31.7800230" lon="35.0557520">
<ele>583.200012</ele>
<time>2017-10-20T07:19:38.000Z</time>
</trkpt>
<trkpt lat="31.7800460" lon="35.0557060">
<ele>583.599976</ele>
<time>2017-10-20T07:19:39.000Z</time>
</trkpt>
<trkpt lat="31.7800660" lon="35.0556600">
<ele>584.100037</ele>
<time>2017-10-20T07:19:40.000Z</time>
</trkpt>
<trkpt lat="31.7800850" lon="35.0556100">
<ele>584.799988</ele>
<time>2017-10-20T07:19:41.000Z</time>
</trkpt>
<trkpt lat="31.7801050" lon="35.0555610">
<ele>585.700012</ele>
<time>2017-10-20T07:19:42.000Z</time>
</trkpt>
<trkpt lat="31.7801270" lon="35.0555220">
<ele>586.400024</ele>
<time>2017-10-20T07:19:43.000Z</time>
</trkpt>
<trkpt lat="31.7801450" lon="35.0554880">
<ele>586.700012</ele>
<time>2017-10-20T07:19:44.000Z</time>
</trkpt>
<trkpt lat="31.7801590" lon="35.0554530">
<ele>587.100037</ele>
<time>2017-10-20T07:19:45.000Z</time>
</trkpt>
<trkpt lat="31.7801770" lon="35.0554200">
<ele>587.400024</ele>
<time>2017-10-20T07:19:46.000Z</time>
</trkpt>
<trkpt lat="31.7801890" lon="35.0553880">
<ele>587.700012</ele>
<time>2017-10-20T07:19:47.000Z</time>
</trkpt>
<trkpt lat="31.7802050" lon="35.0553580">
<ele>588.000000</ele>
<time>2017-10-20T07:19:48.000Z</time>
</trkpt>
<trkpt lat="31.7802220" lon="35.0553300">
<ele>588.299988</ele>
<time>2017-10-20T07:19:49.000Z</time>
</trkpt>
<trkpt lat="31.7802510" lon="35.0552980">
<ele>588.700012</ele>
<time>2017-10-20T07:19:51.000Z</time>
</trkpt>
<trkpt lat="31.7802870" lon="35.0552810">
<ele>589.000000</ele>
<time>2017-10-20T07:19:53.000Z</time>
</trkpt>
<trkpt lat="31.7803160" lon="35.0552630">
<ele>589.099976</ele>
<time>2017-10-20T07:19:55.000Z</time>
</trkpt>
<trkpt lat="31.7803420" lon="35.0552520">
<ele>589.099976</ele>
<time>2017-10-20T07:19:57.000Z</time>
</trkpt>
<trkpt lat="31.7803700" lon="35.0552480">
<ele>589.200012</ele>
<time>2017-10-20T07:20:00.000Z</time>
</trkpt>
<trkpt lat="31.7804200" lon="35.0552450">
<ele>589.299988</ele>
<time>2017-10-20T07:20:03.000Z</time>
</trkpt>
<trkpt lat="31.7804790" lon="35.0552520">
<ele>589.400024</ele>
<time>2017-10-20T07:20:05.000Z</time>
</trkpt>
<trkpt lat="31.7805210" lon="35.0552660">
<ele>589.400024</ele>
<time>2017-10-20T07:20:06.000Z</time>
</trkpt>
<trkpt lat="31.7805680" lon="35.0552760">
<ele>589.400024</ele>
<time>2017-10-20T07:20:07.000Z</time>
</trkpt>
<trkpt lat="31.7806310" lon="35.0552770">
<ele>589.400024</ele>
<time>2017-10-20T07:20:08.000Z</time>
</trkpt>
<trkpt lat="31.7807020" lon="35.0552760">
<ele>589.500000</ele>
<time>2017-10-20T07:20:09.000Z</time>
</trkpt>
<trkpt lat="31.7807830" lon="35.0552760">
<ele>589.500000</ele>
<time>2017-10-20T07:20:10.000Z</time>
</trkpt>
<trkpt lat="31.7808740" lon="35.0552710">
<ele>589.599976</ele>
<time>2017-10-20T07:20:11.000Z</time>
</trkpt>
<trkpt lat="31.7809620" lon="35.0552620">
<ele>589.700012</ele>
<time>2017-10-20T07:20:12.000Z</time>
</trkpt>
<trkpt lat="31.7810480" lon="35.0552640">
<ele>589.799988</ele>
<time>2017-10-20T07:20:13.000Z</time>
</trkpt>
<trkpt lat="31.7811310" lon="35.0552710">
<ele>589.899963</ele>
<time>2017-10-20T07:20:14.000Z</time>
</trkpt>
<trkpt lat="31.7812230" lon="35.0552890">
<ele>589.899963</ele>
<time>2017-10-20T07:20:15.000Z</time>
</trkpt>
<trkpt lat="31.7813150" lon="35.0553170">
<ele>590.100037</ele>
<time>2017-10-20T07:20:16.000Z</time>
</trkpt>
<trkpt lat="31.7814000" lon="35.0553390">
<ele>590.299988</ele>
<time>2017-10-20T07:20:17.000Z</time>
</trkpt>
<trkpt lat="31.7814890" lon="35.0553490">
<ele>590.500000</ele>
<time>2017-10-20T07:20:18.000Z</time>
</trkpt>
<trkpt lat="31.7815790" lon="35.0553590">
<ele>590.400024</ele>
<time>2017-10-20T07:20:19.000Z</time>
</trkpt>
<trkpt lat="31.7816680" lon="35.0553710">
<ele>590.200012</ele>
<time>2017-10-20T07:20:20.000Z</time>
</trkpt>
<trkpt lat="31.7817560" lon="35.0553780">
<ele>589.899963</ele>
<time>2017-10-20T07:20:21.000Z</time>
</trkpt>
<trkpt lat="31.7818420" lon="35.0553740">
<ele>589.899963</ele>
<time>2017-10-20T07:20:22.000Z</time>
</trkpt>
<trkpt lat="31.7819260" lon="35.0553600">
<ele>589.799988</ele>
<time>2017-10-20T07:20:23.000Z</time>
</trkpt>
<trkpt lat="31.7820090" lon="35.0553340">
<ele>589.799988</ele>
<time>2017-10-20T07:20:24.000Z</time>
</trkpt>
<trkpt lat="31.7820860" lon="35.0553000">
<ele>589.700012</ele>
<time>2017-10-20T07:20:25.000Z</time>
</trkpt>
<trkpt lat="31.7821530" lon="35.0552650">
<ele>589.700012</ele>
<time>2017-10-20T07:20:26.000Z</time>
</trkpt>
<trkpt lat="31.7822200" lon="35.0552250">
<ele>589.599976</ele>
<time>2017-10-20T07:20:27.000Z</time>
</trkpt>
<trkpt lat="31.7822830" lon="35.0551740">
<ele>589.400024</ele>
<time>2017-10-20T07:20:28.000Z</time>
</trkpt>
<trkpt lat="31.7823390" lon="35.0551160">
<ele>589.200012</ele>
<time>2017-10-20T07:20:29.000Z</time>
</trkpt>
<trkpt lat="31.7823920" lon="35.0550580">
<ele>588.900024</ele>
<time>2017-10-20T07:20:30.000Z</time>
</trkpt>
<trkpt lat="31.7824420" lon="35.0550010">
<ele>588.700012</ele>
<time>2017-10-20T07:20:31.000Z</time>
</trkpt>
<trkpt lat="31.7824760" lon="35.0549330">
<ele>588.500000</ele>
<time>2017-10-20T07:20:32.000Z</time>
</trkpt>
<trkpt lat="31.7824970" lon="35.0548560">
<ele>588.299988</ele>
<time>2017-10-20T07:20:33.000Z</time>
</trkpt>
<trkpt lat="31.7825230" lon="35.0547770">
<ele>588.200012</ele>
<time>2017-10-20T07:20:34.000Z</time>
</trkpt>
<trkpt lat="31.7825470" lon="35.0546910">
<ele>588.200012</ele>
<time>2017-10-20T07:20:35.000Z</time>
</trkpt>
<trkpt lat="31.7825700" lon="35.0546030">
<ele>588.200012</ele>
<time>2017-10-20T07:20:36.000Z</time>
</trkpt>
<trkpt lat="31.7825830" lon="35.0545110">
<ele>588.099976</ele>
<time>2017-10-20T07:20:37.000Z</time>
</trkpt>
<trkpt lat="31.7826010" lon="35.0544180">
<ele>588.099976</ele>
<time>2017-10-20T07:20:38.000Z</time>
</trkpt>
<trkpt lat="31.7826330" lon="35.0543270">
<ele>588.000000</ele>
<time>2017-10-20T07:20:39.000Z</time>
</trkpt>
<trkpt lat="31.7826630" lon="35.0542320">
<ele>587.700012</ele>
<time>2017-10-20T07:20:40.000Z</time>
</trkpt>
<trkpt lat="31.7826900" lon="35.0541320">
<ele>587.700012</ele>
<time>2017-10-20T07:20:41.000Z</time>
</trkpt>
<trkpt lat="31.7827180" lon="35.0540340">
<ele>587.599976</ele>
<time>2017-10-20T07:20:42.000Z</time>
</trkpt>
<trkpt lat="31.7827400" lon="35.0539330">
<ele>587.599976</ele>
<time>2017-10-20T07:20:43.000Z</time>
</trkpt>
<trkpt lat="31.7827750" lon="35.0538320">
<ele>587.500000</ele>
<time>2017-10-20T07:20:44.000Z</time>
</trkpt>
<trkpt lat="31.7828260" lon="35.0537340">
<ele>587.500000</ele>
<time>2017-10-20T07:20:45.000Z</time>
</trkpt>
<trkpt lat="31.7828650" lon="35.0536290">
<ele>587.400024</ele>
<time>2017-10-20T07:20:46.000Z</time>
</trkpt>
<trkpt lat="31.7829030" lon="35.0535260">
<ele>587.400024</ele>
<time>2017-10-20T07:20:47.000Z</time>
</trkpt>
<trkpt lat="31.7829360" lon="35.0534210">
<ele>587.200012</ele>
<time>2017-10-20T07:20:48.000Z</time>
</trkpt>
<trkpt lat="31.7829630" lon="35.0533130">
<ele>587.000000</ele>
<time>2017-10-20T07:20:49.000Z</time>
</trkpt>
<trkpt lat="31.7829880" lon="35.0532090">
<ele>587.000000</ele>
<time>2017-10-20T07:20:50.000Z</time>
</trkpt>
<trkpt lat="31.7830220" lon="35.0531130">
<ele>587.000000</ele>
<time>2017-10-20T07:20:51.000Z</time>
</trkpt>
<trkpt lat="31.7830400" lon="35.0530170">
<ele>586.899963</ele>
<time>2017-10-20T07:20:52.000Z</time>
</trkpt>
<trkpt lat="31.7830440" lon="35.0529180">
<ele>586.799988</ele>
<time>2017-10-20T07:20:53.000Z</time>
</trkpt>
<trkpt lat="31.7830540" lon="35.0528170">
<ele>586.500000</ele>
<time>2017-10-20T07:20:54.000Z</time>
</trkpt>
<trkpt lat="31.7830660" lon="35.0527150">
<ele>585.600037</ele>
<time>2017-10-20T07:20:55.000Z</time>
</trkpt>
<trkpt lat="31.7830700" lon="35.0526140">
<ele>585.000000</ele>
<time>2017-10-20T07:20:56.000Z</time>
</trkpt>
<trkpt lat="31.7830690" lon="35.0525120">
<ele>584.500000</ele>
<time>2017-10-20T07:20:57.000Z</time>
</trkpt>
<trkpt lat="31.7830590" lon="35.0524130">
<ele>583.500000</ele>
<time>2017-10-20T07:20:58.000Z</time>
</trkpt>
<trkpt lat="31.7830660" lon="35.0523210">
<ele>582.799988</ele>
<time>2017-10-20T07:20:59.000Z</time>
</trkpt>
<trkpt lat="31.7830740" lon="35.0522280">
<ele>582.000000</ele>
<time>2017-10-20T07:21:00.000Z</time>
</trkpt>
<trkpt lat="31.7830860" lon="35.0521290">
<ele>580.899963</ele>
<time>2017-10-20T07:21:01.000Z</time>
</trkpt>
<trkpt lat="31.7830890" lon="35.0520180">
<ele>580.200012</ele>
<time>2017-10-20T07:21:02.000Z</time>
</trkpt>
<trkpt lat="31.7830850" lon="35.0519030">
<ele>578.900024</ele>
<time>2017-10-20T07:21:03.000Z</time>
</trkpt>
<trkpt lat="31.7830780" lon="35.0517900">
<ele>578.299988</ele>
<time>2017-10-20T07:21:04.000Z</time>
</trkpt>
<trkpt lat="31.7830740" lon="35.0516770">
<ele>577.399963</ele>
<time>2017-10-20T07:21:05.000Z</time>
</trkpt>
<trkpt lat="31.7830830" lon="35.0515590">
<ele>576.500000</ele>
<time>2017-10-20T07:21:06.000Z</time>
</trkpt>
<trkpt lat="31.7830850" lon="35.0514420">
<ele>575.799988</ele>
<time>2017-10-20T07:21:07.000Z</time>
</trkpt>
<trkpt lat="31.7830870" lon="35.0513240">
<ele>574.600037</ele>
<time>2017-10-20T07:21:08.000Z</time>
</trkpt>
<trkpt lat="31.7830990" lon="35.0512070">
<ele>573.700012</ele>
<time>2017-10-20T07:21:09.000Z</time>
</trkpt>
<trkpt lat="31.7831100" lon="35.0510880">
<ele>572.099976</ele>
<time>2017-10-20T07:21:10.000Z</time>
</trkpt>
<trkpt lat="31.7831180" lon="35.0509680">
<ele>571.600037</ele>
<time>2017-10-20T07:21:11.000Z</time>
</trkpt>
<trkpt lat="31.7831240" lon="35.0508540">
<ele>570.400024</ele>
<time>2017-10-20T07:21:12.000Z</time>
</trkpt>
<trkpt lat="31.7831350" lon="35.0507420">
<ele>569.700012</ele>
<time>2017-10-20T07:21:13.000Z</time>
</trkpt>
<trkpt lat="31.7831330" lon="35.0506310">
<ele>568.600037</ele>
<time>2017-10-20T07:21:14.000Z</time>
</trkpt>
<trkpt lat="31.7831200" lon="35.0505220">
<ele>567.400024</ele>
<time>2017-10-20T07:21:15.000Z</time>
</trkpt>
<trkpt lat="31.7831190" lon="35.0504160">
<ele>566.599976</ele>
<time>2017-10-20T07:21:16.000Z</time>
</trkpt>
<trkpt lat="31.7831190" lon="35.0503180">
<ele>565.600037</ele>
<time>2017-10-20T07:21:17.000Z</time>
</trkpt>
<trkpt lat="31.7831190" lon="35.0502270">
<ele>565.100037</ele>
<time>2017-10-20T07:21:18.000Z</time>
</trkpt>
<trkpt lat="31.7831110" lon="35.0501370">
<ele>564.200012</ele>
<time>2017-10-20T07:21:19.000Z</time>
</trkpt>
<trkpt lat="31.7830970" lon="35.0500480">
<ele>563.200012</ele>
<time>2017-10-20T07:21:20.000Z</time>
</trkpt>
<trkpt lat="31.7830840" lon="35.0499590">
<ele>562.799988</ele>
<time>2017-10-20T07:21:21.000Z</time>
</trkpt>
<trkpt lat="31.7830670" lon="35.0498660">
<ele>562.100037</ele>
<time>2017-10-20T07:21:22.000Z</time>
</trkpt>
<trkpt lat="31.7830540" lon="35.0497630">
<ele>560.799988</ele>
<time>2017-10-20T07:21:23.000Z</time>
</trkpt>
<trkpt lat="31.7830380" lon="35.0496570">
<ele>560.200012</ele>
<time>2017-10-20T07:21:24.000Z</time>
</trkpt>
<trkpt lat="31.7830120" lon="35.0495540">
<ele>559.000000</ele>
<time>2017-10-20T07:21:25.000Z</time>
</trkpt>
<trkpt lat="31.7829810" lon="35.0494460">
<ele>558.299988</ele>
<time>2017-10-20T07:21:26.000Z</time>
</trkpt>
<trkpt lat="31.7829360" lon="35.0493380">
<ele>557.600037</ele>
<time>2017-10-20T07:21:27.000Z</time>
</trkpt>
<trkpt lat="31.7828890" lon="35.0492300">
<ele>556.599976</ele>
<time>2017-10-20T07:21:28.000Z</time>
</trkpt>
<trkpt lat="31.7828510" lon="35.0491170">
<ele>555.899963</ele>
<time>2017-10-20T07:21:29.000Z</time>
</trkpt>
<trkpt lat="31.7828230" lon="35.0489980">
<ele>554.500000</ele>
<time>2017-10-20T07:21:30.000Z</time>
</trkpt>
<trkpt lat="31.7827880" lon="35.0488830">
<ele>553.799988</ele>
<time>2017-10-20T07:21:31.000Z</time>
</trkpt>
<trkpt lat="31.7827580" lon="35.0487650">
<ele>552.899963</ele>
<time>2017-10-20T07:21:32.000Z</time>
</trkpt>
<trkpt lat="31.7827360" lon="35.0486470">
<ele>552.099976</ele>
<time>2017-10-20T07:21:33.000Z</time>
</trkpt>
<trkpt lat="31.7827180" lon="35.0485160">
<ele>551.400024</ele>
<time>2017-10-20T07:21:34.000Z</time>
</trkpt>
<trkpt lat="31.7826960" lon="35.0483860">
<ele>550.200012</ele>
<time>2017-10-20T07:21:35.000Z</time>
</trkpt>
<trkpt lat="31.7826700" lon="35.0482590">
<ele>549.600037</ele>
<time>2017-10-20T07:21:36.000Z</time>
</trkpt>
<trkpt lat="31.7826390" lon="35.0481350">
<ele>549.099976</ele>
<time>2017-10-20T07:21:37.000Z</time>
</trkpt>
<trkpt lat="31.7826090" lon="35.0480100">
<ele>547.899963</ele>
<time>2017-10-20T07:21:38.000Z</time>
</trkpt>
<trkpt lat="31.7825870" lon="35.0478790">
<ele>547.200012</ele>
<time>2017-10-20T07:21:39.000Z</time>
</trkpt>
<trkpt lat="31.7825800" lon="35.0477430">
<ele>546.099976</ele>
<time>2017-10-20T07:21:40.000Z</time>
</trkpt>
<trkpt lat="31.7826000" lon="35.0476110">
<ele>545.299988</ele>
<time>2017-10-20T07:21:41.000Z</time>
</trkpt>
<trkpt lat="31.7826070" lon="35.0474790">
<ele>543.799988</ele>
<time>2017-10-20T07:21:42.000Z</time>
</trkpt>
<trkpt lat="31.7826180" lon="35.0473520">
<ele>542.900024</ele>
<time>2017-10-20T07:21:43.000Z</time>
</trkpt>
<trkpt lat="31.7826190" lon="35.0472200">
<ele>541.799988</ele>
<time>2017-10-20T07:21:44.000Z</time>
</trkpt>
<trkpt lat="31.7826350" lon="35.0470870">
<ele>541.000000</ele>
<time>2017-10-20T07:21:45.000Z</time>
</trkpt>
<trkpt lat="31.7826480" lon="35.0469540">
<ele>540.500000</ele>
<time>2017-10-20T07:21:46.000Z</time>
</trkpt>
<trkpt lat="31.7826670" lon="35.0468250">
<ele>539.400024</ele>
<time>2017-10-20T07:21:47.000Z</time>
</trkpt>
<trkpt lat="31.7826940" lon="35.0466950">
<ele>538.900024</ele>
<time>2017-10-20T07:21:48.000Z</time>
</trkpt>
<trkpt lat="31.7827160" lon="35.0465610">
<ele>538.500000</ele>
<time>2017-10-20T07:21:49.000Z</time>
</trkpt>
<trkpt lat="31.7827320" lon="35.0464290">
<ele>537.500000</ele>
<time>2017-10-20T07:21:50.000Z</time>
</trkpt>
<trkpt lat="31.7827370" lon="35.0463000">
<ele>536.700012</ele>
<time>2017-10-20T07:21:51.000Z</time>
</trkpt>
<trkpt lat="31.7827520" lon="35.0461790">
<ele>536.200012</ele>
<time>2017-10-20T07:21:52.000Z</time>
</trkpt>
<trkpt lat="31.7827710" lon="35.0460610">
<ele>535.299988</ele>
<time>2017-10-20T07:21:53.000Z</time>
</trkpt>
<trkpt lat="31.7827970" lon="35.0459460">
<ele>534.299988</ele>
<time>2017-10-20T07:21:54.000Z</time>
</trkpt>
<trkpt lat="31.7828290" lon="35.0458440">
<ele>533.599976</ele>
<time>2017-10-20T07:21:55.000Z</time>
</trkpt>
<trkpt lat="31.7828530" lon="35.0457490">
<ele>532.299988</ele>
<time>2017-10-20T07:21:56.000Z</time>
</trkpt>
<trkpt lat="31.7828790" lon="35.0456670">
<ele>531.700012</ele>
<time>2017-10-20T07:21:57.000Z</time>
</trkpt>
<trkpt lat="31.7828990" lon="35.0455940">
<ele>531.299988</ele>
<time>2017-10-20T07:21:58.000Z</time>
</trkpt>
<trkpt lat="31.7829070" lon="35.0455210">
<ele>530.299988</ele>
<time>2017-10-20T07:21:59.000Z</time>
</trkpt>
<trkpt lat="31.7829120" lon="35.0454400">
<ele>529.600037</ele>
<time>2017-10-20T07:22:00.000Z</time>
</trkpt>
<trkpt lat="31.7829160" lon="35.0453510">
<ele>528.599976</ele>
<time>2017-10-20T07:22:01.000Z</time>
</trkpt>
<trkpt lat="31.7829100" lon="35.0452490">
<ele>527.400024</ele>
<time>2017-10-20T07:22:02.000Z</time>
</trkpt>
<trkpt lat="31.7828810" lon="35.0451370">
<ele>526.900024</ele>
<time>2017-10-20T07:22:03.000Z</time>
</trkpt>
<trkpt lat="31.7828390" lon="35.0450350">
<ele>526.500000</ele>
<time>2017-10-20T07:22:04.000Z</time>
</trkpt>
<trkpt lat="31.7828110" lon="35.0449400">
<ele>525.599976</ele>
<time>2017-10-20T07:22:05.000Z</time>
</trkpt>
<trkpt lat="31.7827770" lon="35.0448330">
<ele>525.000000</ele>
<time>2017-10-20T07:22:06.000Z</time>
</trkpt>
<trkpt lat="31.7827420" lon="35.0447270">
<ele>524.399963</ele>
<time>2017-10-20T07:22:07.000Z</time>
</trkpt>
<trkpt lat="31.7827160" lon="35.0446150">
<ele>523.100037</ele>
<time>2017-10-20T07:22:08.000Z</time>
</trkpt>
<trkpt lat="31.7826840" lon="35.0445010">
<ele>522.500000</ele>
<time>2017-10-20T07:22:09.000Z</time>
</trkpt>
<trkpt lat="31.7826490" lon="35.0443890">
<ele>521.399963</ele>
<time>2017-10-20T07:22:10.000Z</time>
</trkpt>
<trkpt lat="31.7826010" lon="35.0442850">
<ele>520.599976</ele>
<time>2017-10-20T07:22:11.000Z</time>
</trkpt>
<trkpt lat="31.7825630" lon="35.0441750">
<ele>520.100037</ele>
<time>2017-10-20T07:22:12.000Z</time>
</trkpt>
<trkpt lat="31.7825230" lon="35.0440710">
<ele>519.000000</ele>
<time>2017-10-20T07:22:13.000Z</time>
</trkpt>
<trkpt lat="31.7824880" lon="35.0439730">
<ele>518.399963</ele>
<time>2017-10-20T07:22:14.000Z</time>
</trkpt>
<trkpt lat="31.7824610" lon="35.0438790">
<ele>517.900024</ele>
<time>2017-10-20T07:22:15.000Z</time>
</trkpt>
<trkpt lat="31.7824490" lon="35.0437800">
<ele>517.000000</ele>
<time>2017-10-20T07:22:16.000Z</time>
</trkpt>
<trkpt lat="31.7824400" lon="35.0436800">
<ele>516.099976</ele>
<time>2017-10-20T07:22:17.000Z</time>
</trkpt>
<trkpt lat="31.7824370" lon="35.0435720">
<ele>515.500000</ele>
<time>2017-10-20T07:22:18.000Z</time>
</trkpt>
<trkpt lat="31.7824320" lon="35.0434620">
<ele>514.400024</ele>
<time>2017-10-20T07:22:19.000Z</time>
</trkpt>
<trkpt lat="31.7824250" lon="35.0433510">
<ele>513.799988</ele>
<time>2017-10-20T07:22:20.000Z</time>
</trkpt>
<trkpt lat="31.7824190" lon="35.0432380">
<ele>513.099976</ele>
<time>2017-10-20T07:22:21.000Z</time>
</trkpt>
<trkpt lat="31.7824110" lon="35.0431230">
<ele>512.200012</ele>
<time>2017-10-20T07:22:22.000Z</time>
</trkpt>
<trkpt lat="31.7824060" lon="35.0430050">
<ele>511.500031</ele>
<time>2017-10-20T07:22:23.000Z</time>
</trkpt>
<trkpt lat="31.7824050" lon="35.0428870">
<ele>510.799988</ele>
<time>2017-10-20T07:22:24.000Z</time>
</trkpt>
<trkpt lat="31.7824010" lon="35.0427680">
<ele>509.700012</ele>
<time>2017-10-20T07:22:25.000Z</time>
</trkpt>
<trkpt lat="31.7823900" lon="35.0426510">
<ele>509.299988</ele>
<time>2017-10-20T07:22:26.000Z</time>
</trkpt>
<trkpt lat="31.7823850" lon="35.0425400">
<ele>508.599976</ele>
<time>2017-10-20T07:22:27.000Z</time>
</trkpt>
<trkpt lat="31.7823760" lon="35.0424430">
<ele>507.699982</ele>
<time>2017-10-20T07:22:28.000Z</time>
</trkpt>
<trkpt lat="31.7823500" lon="35.0423580">
<ele>507.300018</ele>
<time>2017-10-20T07:22:29.000Z</time>
</trkpt>
<trkpt lat="31.7823180" lon="35.0422810">
<ele>506.799988</ele>
<time>2017-10-20T07:22:30.000Z</time>
</trkpt>
<trkpt lat="31.7822900" lon="35.0422120">
<ele>506.000000</ele>
<time>2017-10-20T07:22:31.000Z</time>
</trkpt>
<trkpt lat="31.7822740" lon="35.0421510">
<ele>505.599976</ele>
<time>2017-10-20T07:22:32.000Z</time>
</trkpt>
<trkpt lat="31.7822520" lon="35.0421130">
<ele>505.399994</ele>
<time>2017-10-20T07:22:33.000Z</time>
</trkpt>
<trkpt lat="31.7822050" lon="35.0420780">
<ele>505.299988</ele>
<time>2017-10-20T07:22:34.000Z</time>
</trkpt>
<trkpt lat="31.7821430" lon="35.0420450">
<ele>505.100006</ele>
<time>2017-10-20T07:22:35.000Z</time>
</trkpt>
<trkpt lat="31.7820750" lon="35.0420230">
<ele>504.999969</ele>
<time>2017-10-20T07:22:36.000Z</time>
</trkpt>
<trkpt lat="31.7820100" lon="35.0420020">
<ele>504.999969</ele>
<time>2017-10-20T07:22:37.000Z</time>
</trkpt>
<trkpt lat="31.7819450" lon="35.0419780">
<ele>504.900024</ele>
<time>2017-10-20T07:22:38.000Z</time>
</trkpt>
<trkpt lat="31.7818790" lon="35.0419480">
<ele>504.900024</ele>
<time>2017-10-20T07:22:39.000Z</time>
</trkpt>
<trkpt lat="31.7818120" lon="35.0419200">
<ele>504.799988</ele>
<time>2017-10-20T07:22:40.000Z</time>
</trkpt>
<trkpt lat="31.7817530" lon="35.0418980">
<ele>504.799988</ele>
<time>2017-10-20T07:22:41.000Z</time>
</trkpt>
<trkpt lat="31.7817040" lon="35.0418540">
<ele>504.799988</ele>
<time>2017-10-20T07:22:42.000Z</time>
</trkpt>
<trkpt lat="31.7816650" lon="35.0417930">
<ele>504.799988</ele>
<time>2017-10-20T07:22:43.000Z</time>
</trkpt>
<trkpt lat="31.7816480" lon="35.0417270">
<ele>504.799988</ele>
<time>2017-10-20T07:22:44.000Z</time>
</trkpt>
<trkpt lat="31.7816370" lon="35.0416640">
<ele>504.699982</ele>
<time>2017-10-20T07:22:45.000Z</time>
</trkpt>
<trkpt lat="31.7816060" lon="35.0416060">
<ele>504.699982</ele>
<time>2017-10-20T07:22:46.000Z</time>
</trkpt>
<trkpt lat="31.7815760" lon="35.0415410">
<ele>504.699982</ele>
<time>2017-10-20T07:22:47.000Z</time>
</trkpt>
<trkpt lat="31.7815500" lon="35.0414750">
<ele>504.699982</ele>
<time>2017-10-20T07:22:48.000Z</time>
</trkpt>
<trkpt lat="31.7815290" lon="35.0414140">
<ele>504.699982</ele>
<time>2017-10-20T07:22:49.000Z</time>
</trkpt>
<trkpt lat="31.7815090" lon="35.0413720">
<ele>504.699982</ele>
<time>2017-10-20T07:22:50.000Z</time>
</trkpt>
<trkpt lat="31.7814920" lon="35.0413400">
<ele>504.699982</ele>
<time>2017-10-20T07:22:51.000Z</time>
</trkpt>
<trkpt lat="31.7814660" lon="35.0413100">
<ele>504.699982</ele>
<time>2017-10-20T07:22:53.000Z</time>
</trkpt>
<trkpt lat="31.7813820" lon="35.0413110">
<ele>504.699982</ele>
<time>2017-10-20T07:25:11.000Z</time>
</trkpt>
<trkpt lat="31.7813400" lon="35.0412960">
<ele>504.699982</ele>
<time>2017-10-20T07:25:13.000Z</time>
</trkpt>
<trkpt lat="31.7812950" lon="35.0412750">
<ele>504.699982</ele>
<time>2017-10-20T07:25:15.000Z</time>
</trkpt>
<trkpt lat="31.7812490" lon="35.0412600">
<ele>504.600006</ele>
<time>2017-10-20T07:25:17.000Z</time>
</trkpt>
<trkpt lat="31.7812200" lon="35.0412490">
<ele>504.600006</ele>
<time>2017-10-20T07:25:18.000Z</time>
</trkpt>
<trkpt lat="31.7811940" lon="35.0412360">
<ele>504.600006</ele>
<time>2017-10-20T07:25:19.000Z</time>
</trkpt>
<trkpt lat="31.7811480" lon="35.0412210">
<ele>504.600006</ele>
<time>2017-10-20T07:25:21.000Z</time>
</trkpt>
<trkpt lat="31.7810940" lon="35.0412070">
<ele>504.600006</ele>
<time>2017-10-20T07:25:23.000Z</time>
</trkpt>
<trkpt lat="31.7810420" lon="35.0411850">
<ele>504.600006</ele>
<time>2017-10-20T07:25:25.000Z</time>
</trkpt>
<trkpt lat="31.7810130" lon="35.0411680">
<ele>504.600006</ele>
<time>2017-10-20T07:25:26.000Z</time>
</trkpt>
<trkpt lat="31.7809780" lon="35.0411460">
<ele>504.500000</ele>
<time>2017-10-20T07:25:27.000Z</time>
</trkpt>
<trkpt lat="31.7809370" lon="35.0411210">
<ele>504.500000</ele>
<time>2017-10-20T07:25:28.000Z</time>
</trkpt>
<trkpt lat="31.7809020" lon="35.0410970">
<ele>504.500000</ele>
<time>2017-10-20T07:25:29.000Z</time>
</trkpt>
<trkpt lat="31.7808660" lon="35.0410800">
<ele>504.399994</ele>
<time>2017-10-20T07:25:30.000Z</time>
</trkpt>
<trkpt lat="31.7808310" lon="35.0410640">
<ele>504.300018</ele>
<time>2017-10-20T07:25:31.000Z</time>
</trkpt>
<trkpt lat="31.7807850" lon="35.0410420">
<ele>504.199982</ele>
<time>2017-10-20T07:25:32.000Z</time>
</trkpt>
<trkpt lat="31.7807380" lon="35.0410220">
<ele>504.099976</ele>
<time>2017-10-20T07:25:33.000Z</time>
</trkpt>
<trkpt lat="31.7806990" lon="35.0410110">
<ele>503.799988</ele>
<time>2017-10-20T07:25:34.000Z</time>
</trkpt>
<trkpt lat="31.7806590" lon="35.0409940">
<ele>503.299988</ele>
<time>2017-10-20T07:25:35.000Z</time>
</trkpt>
<trkpt lat="31.7806260" lon="35.0409710">
<ele>503.000000</ele>
<time>2017-10-20T07:25:36.000Z</time>
</trkpt>
<trkpt lat="31.7805930" lon="35.0409360">
<ele>502.800018</ele>
<time>2017-10-20T07:25:37.000Z</time>
</trkpt>
<trkpt lat="31.7805530" lon="35.0408950">
<ele>502.500000</ele>
<time>2017-10-20T07:25:38.000Z</time>
</trkpt>
<trkpt lat="31.7804990" lon="35.0408540">
<ele>502.100006</ele>
<time>2017-10-20T07:25:39.000Z</time>
</trkpt>
<trkpt lat="31.7804490" lon="35.0408140">
<ele>501.199982</ele>
<time>2017-10-20T07:25:40.000Z</time>
</trkpt>
<trkpt lat="31.7803980" lon="35.0407720">
<ele>500.600006</ele>
<time>2017-10-20T07:25:41.000Z</time>
</trkpt>
<trkpt lat="31.7803390" lon="35.0407240">
<ele>500.100006</ele>
<time>2017-10-20T07:25:42.000Z</time>
</trkpt>
<trkpt lat="31.7802740" lon="35.0406800">
<ele>499.300018</ele>
<time>2017-10-20T07:25:43.000Z</time>
</trkpt>
<trkpt lat="31.7802120" lon="35.0406320">
<ele>498.100006</ele>
<time>2017-10-20T07:25:44.000Z</time>
</trkpt>
<trkpt lat="31.7801450" lon="35.0405950">
<ele>497.399994</ele>
<time>2017-10-20T07:25:45.000Z</time>
</trkpt>
<trkpt lat="31.7800700" lon="35.0405690">
<ele>496.200012</ele>
<time>2017-10-20T07:25:46.000Z</time>
</trkpt>
<trkpt lat="31.7799910" lon="35.0405590">
<ele>495.500000</ele>
<time>2017-10-20T07:25:47.000Z</time>
</trkpt>
<trkpt lat="31.7799200" lon="35.0405510">
<ele>494.599976</ele>
<time>2017-10-20T07:25:48.000Z</time>
</trkpt>
<trkpt lat="31.7798560" lon="35.0405270">
<ele>493.900024</ele>
<time>2017-10-20T07:25:49.000Z</time>
</trkpt>
<trkpt lat="31.7797950" lon="35.0404870">
<ele>493.200012</ele>
<time>2017-10-20T07:25:50.000Z</time>
</trkpt>
<trkpt lat="31.7797380" lon="35.0404220">
<ele>492.000000</ele>
<time>2017-10-20T07:25:51.000Z</time>
</trkpt>
<trkpt lat="31.7796870" lon="35.0403420">
<ele>491.399994</ele>
<time>2017-10-20T07:25:52.000Z</time>
</trkpt>
<trkpt lat="31.7796340" lon="35.0402680">
<ele>490.500000</ele>
<time>2017-10-20T07:25:53.000Z</time>
</trkpt>
<trkpt lat="31.7795750" lon="35.0401960">
<ele>489.499969</ele>
<time>2017-10-20T07:25:54.000Z</time>
</trkpt>
<trkpt lat="31.7795180" lon="35.0401280">
<ele>488.800018</ele>
<time>2017-10-20T07:25:55.000Z</time>
</trkpt>
<trkpt lat="31.7794730" lon="35.0400660">
<ele>487.899994</ele>
<time>2017-10-20T07:25:56.000Z</time>
</trkpt>
<trkpt lat="31.7794190" lon="35.0400240">
<ele>487.500000</ele>
<time>2017-10-20T07:25:57.000Z</time>
</trkpt>
<trkpt lat="31.7793580" lon="35.0399910">
<ele>487.199982</ele>
<time>2017-10-20T07:25:58.000Z</time>
</trkpt>
<trkpt lat="31.7792890" lon="35.0399590">
<ele>486.700012</ele>
<time>2017-10-20T07:25:59.000Z</time>
</trkpt>
<trkpt lat="31.7792180" lon="35.0399420">
<ele>486.200012</ele>
<time>2017-10-20T07:26:00.000Z</time>
</trkpt>
<trkpt lat="31.7791550" lon="35.0399200">
<ele>485.399994</ele>
<time>2017-10-20T07:26:01.000Z</time>
</trkpt>
<trkpt lat="31.7790960" lon="35.0398900">
<ele>484.899994</ele>
<time>2017-10-20T07:26:02.000Z</time>
</trkpt>
<trkpt lat="31.7790450" lon="35.0398440">
<ele>484.400024</ele>
<time>2017-10-20T07:26:03.000Z</time>
</trkpt>
<trkpt lat="31.7790070" lon="35.0397910">
<ele>484.299988</ele>
<time>2017-10-20T07:26:04.000Z</time>
</trkpt>
<trkpt lat="31.7789900" lon="35.0397300">
<ele>484.100006</ele>
<time>2017-10-20T07:26:05.000Z</time>
</trkpt>
<trkpt lat="31.7789720" lon="35.0396560">
<ele>483.700012</ele>
<time>2017-10-20T07:26:06.000Z</time>
</trkpt>
<trkpt lat="31.7789460" lon="35.0395760">
<ele>482.900024</ele>
<time>2017-10-20T07:26:07.000Z</time>
</trkpt>
<trkpt lat="31.7789170" lon="35.0394880">
<ele>482.399994</ele>
<time>2017-10-20T07:26:08.000Z</time>
</trkpt>
<trkpt lat="31.7788860" lon="35.0394070">
<ele>482.000000</ele>
<time>2017-10-20T07:26:09.000Z</time>
</trkpt>
<trkpt lat="31.7788580" lon="35.0393210">
<ele>481.000000</ele>
<time>2017-10-20T07:26:10.000Z</time>
</trkpt>
<trkpt lat="31.7788300" lon="35.0392230">
<ele>480.200012</ele>
<time>2017-10-20T07:26:11.000Z</time>
</trkpt>
<trkpt lat="31.7788010" lon="35.0391270">
<ele>479.399994</ele>
<time>2017-10-20T07:26:12.000Z</time>
</trkpt>
<trkpt lat="31.7787670" lon="35.0390320">
<ele>478.299988</ele>
<time>2017-10-20T07:26:13.000Z</time>
</trkpt>
<trkpt lat="31.7787340" lon="35.0389330">
<ele>477.699982</ele>
<time>2017-10-20T07:26:14.000Z</time>
</trkpt>
<trkpt lat="31.7787010" lon="35.0388310">
<ele>476.500000</ele>
<time>2017-10-20T07:26:15.000Z</time>
</trkpt>
<trkpt lat="31.7786690" lon="35.0387280">
<ele>475.700012</ele>
<time>2017-10-20T07:26:16.000Z</time>
</trkpt>
<trkpt lat="31.7786390" lon="35.0386280">
<ele>475.299988</ele>
<time>2017-10-20T07:26:17.000Z</time>
</trkpt>
<trkpt lat="31.7786080" lon="35.0385330">
<ele>474.399994</ele>
<time>2017-10-20T07:26:18.000Z</time>
</trkpt>
<trkpt lat="31.7785850" lon="35.0384420">
<ele>473.500000</ele>
<time>2017-10-20T07:26:19.000Z</time>
</trkpt>
<trkpt lat="31.7785760" lon="35.0383560">
<ele>473.100006</ele>
<time>2017-10-20T07:26:20.000Z</time>
</trkpt>
<trkpt lat="31.7785650" lon="35.0382820">
<ele>472.700012</ele>
<time>2017-10-20T07:26:21.000Z</time>
</trkpt>
<trkpt lat="31.7785440" lon="35.0382080">
<ele>471.699982</ele>
<time>2017-10-20T07:26:22.000Z</time>
</trkpt>
<trkpt lat="31.7785160" lon="35.0381380">
<ele>471.200012</ele>
<time>2017-10-20T07:26:23.000Z</time>
</trkpt>
<trkpt lat="31.7784880" lon="35.0380660">
<ele>470.299988</ele>
<time>2017-10-20T07:26:24.000Z</time>
</trkpt>
<trkpt lat="31.7784550" lon="35.0379880">
<ele>469.500000</ele>
<time>2017-10-20T07:26:25.000Z</time>
</trkpt>
<trkpt lat="31.7784170" lon="35.0379110">
<ele>469.100006</ele>
<time>2017-10-20T07:26:26.000Z</time>
</trkpt>
<trkpt lat="31.7783790" lon="35.0378460">
<ele>468.600006</ele>
<time>2017-10-20T07:26:27.000Z</time>
</trkpt>
<trkpt lat="31.7783500" lon="35.0377840">
<ele>467.899994</ele>
<time>2017-10-20T07:26:28.000Z</time>
</trkpt>
<trkpt lat="31.7783230" lon="35.0377280">
<ele>467.299988</ele>
<time>2017-10-20T07:26:29.000Z</time>
</trkpt>
<trkpt lat="31.7782970" lon="35.0376760">
<ele>467.000000</ele>
<time>2017-10-20T07:26:30.000Z</time>
</trkpt>
<trkpt lat="31.7782800" lon="35.0376400">
<ele>466.800018</ele>
<time>2017-10-20T07:26:31.000Z</time>
</trkpt>
<trkpt lat="31.7782580" lon="35.0375960">
<ele>466.399994</ele>
<time>2017-10-20T07:26:52.000Z</time>
</trkpt>
<trkpt lat="31.7782460" lon="35.0375650">
<ele>465.999969</ele>
<time>2017-10-20T07:26:53.000Z</time>
</trkpt>
<trkpt lat="31.7782340" lon="35.0375210">
<ele>465.399994</ele>
<time>2017-10-20T07:26:54.000Z</time>
</trkpt>
<trkpt lat="31.7782210" lon="35.0374670">
<ele>465.000000</ele>
<time>2017-10-20T07:26:55.000Z</time>
</trkpt>
<trkpt lat="31.7782000" lon="35.0374100">
<ele>464.600006</ele>
<time>2017-10-20T07:26:56.000Z</time>
</trkpt>
<trkpt lat="31.7781780" lon="35.0373550">
<ele>464.299988</ele>
<time>2017-10-20T07:26:57.000Z</time>
</trkpt>
<trkpt lat="31.7781510" lon="35.0372880">
<ele>463.399994</ele>
<time>2017-10-20T07:26:58.000Z</time>
</trkpt>
<trkpt lat="31.7781270" lon="35.0372140">
<ele>462.500000</ele>
<time>2017-10-20T07:26:59.000Z</time>
</trkpt>
<trkpt lat="31.7781070" lon="35.0371310">
<ele>462.100006</ele>
<time>2017-10-20T07:27:00.000Z</time>
</trkpt>
<trkpt lat="31.7780890" lon="35.0370500">
<ele>461.500031</ele>
<time>2017-10-20T07:27:01.000Z</time>
</trkpt>
<trkpt lat="31.7780710" lon="35.0369600">
<ele>460.399994</ele>
<time>2017-10-20T07:27:02.000Z</time>
</trkpt>
<trkpt lat="31.7780520" lon="35.0368710">
<ele>459.899994</ele>
<time>2017-10-20T07:27:03.000Z</time>
</trkpt>
<trkpt lat="31.7780270" lon="35.0367820">
<ele>459.100006</ele>
<time>2017-10-20T07:27:04.000Z</time>
</trkpt>
<trkpt lat="31.7779920" lon="35.0366990">
<ele>457.900024</ele>
<time>2017-10-20T07:27:05.000Z</time>
</trkpt>
<trkpt lat="31.7779510" lon="35.0366070">
<ele>457.399994</ele>
<time>2017-10-20T07:27:06.000Z</time>
</trkpt>
<trkpt lat="31.7779090" lon="35.0365190">
<ele>456.400024</ele>
<time>2017-10-20T07:27:07.000Z</time>
</trkpt>
<trkpt lat="31.7778720" lon="35.0364320">
<ele>455.500000</ele>
<time>2017-10-20T07:27:08.000Z</time>
</trkpt>
<trkpt lat="31.7778260" lon="35.0363510">
<ele>455.000000</ele>
<time>2017-10-20T07:27:09.000Z</time>
</trkpt>
<trkpt lat="31.7777810" lon="35.0362790">
<ele>454.000000</ele>
<time>2017-10-20T07:27:10.000Z</time>
</trkpt>
<trkpt lat="31.7777370" lon="35.0362120">
<ele>453.399994</ele>
<time>2017-10-20T07:27:11.000Z</time>
</trkpt>
<trkpt lat="31.7776870" lon="35.0361480">
<ele>452.899994</ele>
<time>2017-10-20T07:27:12.000Z</time>
</trkpt>
<trkpt lat="31.7776410" lon="35.0360790">
<ele>451.899994</ele>
<time>2017-10-20T07:27:13.000Z</time>
</trkpt>
<trkpt lat="31.7775860" lon="35.0360140">
<ele>451.099976</ele>
<time>2017-10-20T07:27:14.000Z</time>
</trkpt>
<trkpt lat="31.7775300" lon="35.0359450">
<ele>450.700012</ele>
<time>2017-10-20T07:27:15.000Z</time>
</trkpt>
<trkpt lat="31.7774810" lon="35.0358620">
<ele>449.800018</ele>
<time>2017-10-20T07:27:16.000Z</time>
</trkpt>
<trkpt lat="31.7774350" lon="35.0357790">
<ele>448.899994</ele>
<time>2017-10-20T07:27:17.000Z</time>
</trkpt>
<trkpt lat="31.7773960" lon="35.0356930">
<ele>448.300018</ele>
<time>2017-10-20T07:27:18.000Z</time>
</trkpt>
<trkpt lat="31.7773620" lon="35.0356010">
<ele>447.299988</ele>
<time>2017-10-20T07:27:19.000Z</time>
</trkpt>
<trkpt lat="31.7773280" lon="35.0355070">
<ele>446.600006</ele>
<time>2017-10-20T07:27:20.000Z</time>
</trkpt>
<trkpt lat="31.7772930" lon="35.0354090">
<ele>446.000000</ele>
<time>2017-10-20T07:27:21.000Z</time>
</trkpt>
<trkpt lat="31.7772690" lon="35.0353040">
<ele>444.899994</ele>
<time>2017-10-20T07:27:22.000Z</time>
</trkpt>
<trkpt lat="31.7772410" lon="35.0351970">
<ele>444.200012</ele>
<time>2017-10-20T07:27:23.000Z</time>
</trkpt>
<trkpt lat="31.7772310" lon="35.0350850">
<ele>443.399994</ele>
<time>2017-10-20T07:27:24.000Z</time>
</trkpt>
<trkpt lat="31.7772130" lon="35.0349690">
<ele>442.400024</ele>
<time>2017-10-20T07:27:25.000Z</time>
</trkpt>
<trkpt lat="31.7771870" lon="35.0348470">
<ele>441.299988</ele>
<time>2017-10-20T07:27:26.000Z</time>
</trkpt>
<trkpt lat="31.7771640" lon="35.0347250">
<ele>440.300018</ele>
<time>2017-10-20T07:27:27.000Z</time>
</trkpt>
<trkpt lat="31.7771380" lon="35.0346030">
<ele>439.600006</ele>
<time>2017-10-20T07:27:28.000Z</time>
</trkpt>
<trkpt lat="31.7771190" lon="35.0344850">
<ele>438.500000</ele>
<time>2017-10-20T07:27:29.000Z</time>
</trkpt>
<trkpt lat="31.7770950" lon="35.0343800">
<ele>437.700012</ele>
<time>2017-10-20T07:27:30.000Z</time>
</trkpt>
<trkpt lat="31.7770800" lon="35.0342830">
<ele>437.100006</ele>
<time>2017-10-20T07:27:31.000Z</time>
</trkpt>
<trkpt lat="31.7770680" lon="35.0341980">
<ele>436.700012</ele>
<time>2017-10-20T07:27:32.000Z</time>
</trkpt>
<trkpt lat="31.7770560" lon="35.0341270">
<ele>435.900024</ele>
<time>2017-10-20T07:27:33.000Z</time>
</trkpt>
<trkpt lat="31.7770480" lon="35.0340690">
<ele>435.200012</ele>
<time>2017-10-20T07:27:34.000Z</time>
</trkpt>
<trkpt lat="31.7770240" lon="35.0340220">
<ele>434.799988</ele>
<time>2017-10-20T07:27:35.000Z</time>
</trkpt>
<trkpt lat="31.7769840" lon="35.0339760">
<ele>434.299988</ele>
<time>2017-10-20T07:27:36.000Z</time>
</trkpt>
<trkpt lat="31.7769280" lon="35.0339240">
<ele>433.299988</ele>
<time>2017-10-20T07:27:37.000Z</time>
</trkpt>
<trkpt lat="31.7768570" lon="35.0338750">
<ele>432.300018</ele>
<time>2017-10-20T07:27:38.000Z</time>
</trkpt>
<trkpt lat="31.7767840" lon="35.0338240">
<ele>431.000000</ele>
<time>2017-10-20T07:27:39.000Z</time>
</trkpt>
<trkpt lat="31.7767020" lon="35.0337750">
<ele>430.299988</ele>
<time>2017-10-20T07:27:40.000Z</time>
</trkpt>
<trkpt lat="31.7766190" lon="35.0337330">
<ele>429.900024</ele>
<time>2017-10-20T07:27:41.000Z</time>
</trkpt>
<trkpt lat="31.7765270" lon="35.0337030">
<ele>428.799988</ele>
<time>2017-10-20T07:27:42.000Z</time>
</trkpt>
<trkpt lat="31.7764390" lon="35.0336700">
<ele>428.299988</ele>
<time>2017-10-20T07:27:43.000Z</time>
</trkpt>
<trkpt lat="31.7763530" lon="35.0336340">
<ele>427.599976</ele>
<time>2017-10-20T07:27:44.000Z</time>
</trkpt>
<trkpt lat="31.7762690" lon="35.0336060">
<ele>426.399994</ele>
<time>2017-10-20T07:27:45.000Z</time>
</trkpt>
<trkpt lat="31.7761910" lon="35.0335750">
<ele>425.700012</ele>
<time>2017-10-20T07:27:46.000Z</time>
</trkpt>
<trkpt lat="31.7761230" lon="35.0335380">
<ele>424.800018</ele>
<time>2017-10-20T07:27:47.000Z</time>
</trkpt>
<trkpt lat="31.7760600" lon="35.0335100">
<ele>424.000031</ele>
<time>2017-10-20T07:27:48.000Z</time>
</trkpt>
<trkpt lat="31.7760040" lon="35.0334710">
<ele>423.600006</ele>
<time>2017-10-20T07:27:49.000Z</time>
</trkpt>
<trkpt lat="31.7759500" lon="35.0334260">
<ele>423.100006</ele>
<time>2017-10-20T07:27:50.000Z</time>
</trkpt>
<trkpt lat="31.7759000" lon="35.0333720">
<ele>422.399994</ele>
<time>2017-10-20T07:27:51.000Z</time>
</trkpt>
<trkpt lat="31.7758470" lon="35.0333290">
<ele>421.900024</ele>
<time>2017-10-20T07:27:52.000Z</time>
</trkpt>
<trkpt lat="31.7757860" lon="35.0332910">
<ele>421.500000</ele>
<time>2017-10-20T07:27:53.000Z</time>
</trkpt>
<trkpt lat="31.7757230" lon="35.0332640">
<ele>420.899994</ele>
<time>2017-10-20T07:27:54.000Z</time>
</trkpt>
<trkpt lat="31.7756620" lon="35.0332470">
<ele>419.899994</ele>
<time>2017-10-20T07:27:55.000Z</time>
</trkpt>
<trkpt lat="31.7755970" lon="35.0332380">
<ele>419.200012</ele>
<time>2017-10-20T07:27:56.000Z</time>
</trkpt>
<trkpt lat="31.7755290" lon="35.0332160">
<ele>418.099976</ele>
<time>2017-10-20T07:27:57.000Z</time>
</trkpt>
<trkpt lat="31.7754760" lon="35.0331860">
<ele>417.299988</ele>
<time>2017-10-20T07:27:58.000Z</time>
</trkpt>
<trkpt lat="31.7754250" lon="35.0331580">
<ele>417.000000</ele>
<time>2017-10-20T07:27:59.000Z</time>
</trkpt>
<trkpt lat="31.7753730" lon="35.0331510">
<ele>416.700012</ele>
<time>2017-10-20T07:28:00.000Z</time>
</trkpt>
<trkpt lat="31.7753190" lon="35.0331610">
<ele>416.100006</ele>
<time>2017-10-20T07:28:01.000Z</time>
</trkpt>
<trkpt lat="31.7752650" lon="35.0331870">
<ele>415.300018</ele>
<time>2017-10-20T07:28:02.000Z</time>
</trkpt>
<trkpt lat="31.7752150" lon="35.0332230">
<ele>414.799988</ele>
<time>2017-10-20T07:28:03.000Z</time>
</trkpt>
<trkpt lat="31.7751590" lon="35.0332620">
<ele>414.499969</ele>
<time>2017-10-20T07:28:04.000Z</time>
</trkpt>
<trkpt lat="31.7751030" lon="35.0333060">
<ele>414.000000</ele>
<time>2017-10-20T07:28:05.000Z</time>
</trkpt>
<trkpt lat="31.7750480" lon="35.0333430">
<ele>413.200012</ele>
<time>2017-10-20T07:28:06.000Z</time>
</trkpt>
<trkpt lat="31.7750030" lon="35.0333920">
<ele>412.700012</ele>
<time>2017-10-20T07:28:07.000Z</time>
</trkpt>
<trkpt lat="31.7749490" lon="35.0334430">
<ele>412.199982</ele>
<time>2017-10-20T07:28:08.000Z</time>
</trkpt>
<trkpt lat="31.7749020" lon="35.0334910">
<ele>411.899994</ele>
<time>2017-10-20T07:28:09.000Z</time>
</trkpt>
<trkpt lat="31.7748650" lon="35.0335510">
<ele>411.200012</ele>
<time>2017-10-20T07:28:10.000Z</time>
</trkpt>
<trkpt lat="31.7748340" lon="35.0336160">
<ele>410.600006</ele>
<time>2017-10-20T07:28:11.000Z</time>
</trkpt>
<trkpt lat="31.7748040" lon="35.0336860">
<ele>410.200012</ele>
<time>2017-10-20T07:28:12.000Z</time>
</trkpt>
<trkpt lat="31.7747800" lon="35.0337500">
<ele>409.700012</ele>
<time>2017-10-20T07:28:13.000Z</time>
</trkpt>
<trkpt lat="31.7747560" lon="35.0338140">
<ele>408.800018</ele>
<time>2017-10-20T07:28:14.000Z</time>
</trkpt>
<trkpt lat="31.7747350" lon="35.0338560">
<ele>408.399994</ele>
<time>2017-10-20T07:28:15.000Z</time>
</trkpt>
<trkpt lat="31.7747030" lon="35.0338880">
<ele>408.100006</ele>
<time>2017-10-20T07:28:16.000Z</time>
</trkpt>
<trkpt lat="31.7746780" lon="35.0339010">
<ele>407.799988</ele>
<time>2017-10-20T07:28:17.000Z</time>
</trkpt>
<trkpt lat="31.7746440" lon="35.0338920">
<ele>407.200012</ele>
<time>2017-10-20T07:28:18.000Z</time>
</trkpt>
<trkpt lat="31.7746140" lon="35.0338530">
<ele>406.500000</ele>
<time>2017-10-20T07:28:19.000Z</time>
</trkpt>
<trkpt lat="31.7746060" lon="35.0338010">
<ele>405.299988</ele>
<time>2017-10-20T07:28:20.000Z</time>
</trkpt>
<trkpt lat="31.7745960" lon="35.0337690">
<ele>404.200012</ele>
<time>2017-10-20T07:28:21.000Z</time>
</trkpt>
<trkpt lat="31.7745970" lon="35.0337250">
<ele>403.100006</ele>
<time>2017-10-20T07:28:22.000Z</time>
</trkpt>
<trkpt lat="31.7745790" lon="35.0336750">
<ele>403.600006</ele>
<time>2017-10-20T07:28:23.000Z</time>
</trkpt>
<trkpt lat="31.7745840" lon="35.0336020">
<ele>403.100006</ele>
<time>2017-10-20T07:28:24.000Z</time>
</trkpt>
<trkpt lat="31.7746140" lon="35.0335180">
<ele>402.100006</ele>
<time>2017-10-20T07:28:25.000Z</time>
</trkpt>
<trkpt lat="31.7746320" lon="35.0334350">
<ele>401.000000</ele>
<time>2017-10-20T07:28:26.000Z</time>
</trkpt>
<trkpt lat="31.7746410" lon="35.0333440">
<ele>400.299988</ele>
<time>2017-10-20T07:28:27.000Z</time>
</trkpt>
<trkpt lat="31.7746500" lon="35.0332470">
<ele>399.200012</ele>
<time>2017-10-20T07:28:28.000Z</time>
</trkpt>
<trkpt lat="31.7746680" lon="35.0331460">
<ele>398.400024</ele>
<time>2017-10-20T07:28:29.000Z</time>
</trkpt>
<trkpt lat="31.7746940" lon="35.0330400">
<ele>397.200012</ele>
<time>2017-10-20T07:28:30.000Z</time>
</trkpt>
<trkpt lat="31.7747230" lon="35.0329430">
<ele>396.300018</ele>
<time>2017-10-20T07:28:31.000Z</time>
</trkpt>
<trkpt lat="31.7747460" lon="35.0328290">
<ele>395.299988</ele>
<time>2017-10-20T07:28:32.000Z</time>
</trkpt>
<trkpt lat="31.7747710" lon="35.0327080">
<ele>393.699982</ele>
<time>2017-10-20T07:28:33.000Z</time>
</trkpt>
<trkpt lat="31.7748000" lon="35.0325930">
<ele>392.199982</ele>
<time>2017-10-20T07:28:34.000Z</time>
</trkpt>
<trkpt lat="31.7748340" lon="35.0324950">
<ele>390.799988</ele>
<time>2017-10-20T07:28:35.000Z</time>
</trkpt>
<trkpt lat="31.7748660" lon="35.0324070">
<ele>389.899994</ele>
<time>2017-10-20T07:28:36.000Z</time>
</trkpt>
<trkpt lat="31.7748970" lon="35.0323510">
<ele>389.600006</ele>
<time>2017-10-20T07:28:37.000Z</time>
</trkpt>
<trkpt lat="31.7749370" lon="35.0323080">
<ele>389.000000</ele>
<time>2017-10-20T07:28:38.000Z</time>
</trkpt>
<trkpt lat="31.7750000" lon="35.0322850">
<ele>387.999969</ele>
<time>2017-10-20T07:28:39.000Z</time>
</trkpt>
<trkpt lat="31.7750670" lon="35.0322720">
<ele>387.300018</ele>
<time>2017-10-20T07:28:40.000Z</time>
</trkpt>
<trkpt lat="31.7751350" lon="35.0322520">
<ele>386.399994</ele>
<time>2017-10-20T07:28:41.000Z</time>
</trkpt>
<trkpt lat="31.7752030" lon="35.0322200">
<ele>385.600006</ele>
<time>2017-10-20T07:28:42.000Z</time>
</trkpt>
<trkpt lat="31.7752870" lon="35.0321940">
<ele>384.799988</ele>
<time>2017-10-20T07:28:43.000Z</time>
</trkpt>
<trkpt lat="31.7753740" lon="35.0321640">
<ele>383.500000</ele>
<time>2017-10-20T07:28:44.000Z</time>
</trkpt>
<trkpt lat="31.7754480" lon="35.0321350">
<ele>382.900024</ele>
<time>2017-10-20T07:28:45.000Z</time>
</trkpt>
<trkpt lat="31.7755200" lon="35.0321100">
<ele>381.799988</ele>
<time>2017-10-20T07:28:46.000Z</time>
</trkpt>
<trkpt lat="31.7755920" lon="35.0320800">
<ele>380.599976</ele>
<time>2017-10-20T07:28:47.000Z</time>
</trkpt>
<trkpt lat="31.7756530" lon="35.0320530">
<ele>379.399994</ele>
<time>2017-10-20T07:28:48.000Z</time>
</trkpt>
<trkpt lat="31.7756860" lon="35.0320320">
<ele>378.799988</ele>
<time>2017-10-20T07:28:49.000Z</time>
</trkpt>
<trkpt lat="31.7757310" lon="35.0320160">
<ele>378.199982</ele>
<time>2017-10-20T07:28:51.000Z</time>
</trkpt>
<trkpt lat="31.7757460" lon="35.0320610">
<ele>377.500000</ele>
<time>2017-10-20T07:28:53.000Z</time>
</trkpt>
<trkpt lat="31.7757310" lon="35.0320990">
<ele>376.999969</ele>
<time>2017-10-20T07:28:54.000Z</time>
</trkpt>
<trkpt lat="31.7757010" lon="35.0321470">
<ele>376.399994</ele>
<time>2017-10-20T07:28:55.000Z</time>
</trkpt>
<trkpt lat="31.7756600" lon="35.0321950">
<ele>376.099976</ele>
<time>2017-10-20T07:28:56.000Z</time>
</trkpt>
<trkpt lat="31.7756100" lon="35.0322360">
<ele>375.600006</ele>
<time>2017-10-20T07:28:57.000Z</time>
</trkpt>
<trkpt lat="31.7755630" lon="35.0322640">
<ele>374.899994</ele>
<time>2017-10-20T07:28:58.000Z</time>
</trkpt>
<trkpt lat="31.7755090" lon="35.0322880">
<ele>374.300018</ele>
<time>2017-10-20T07:28:59.000Z</time>
</trkpt>
<trkpt lat="31.7754560" lon="35.0323220">
<ele>374.000031</ele>
<time>2017-10-20T07:29:00.000Z</time>
</trkpt>
<trkpt lat="31.7754020" lon="35.0323530">
<ele>373.700012</ele>
<time>2017-10-20T07:29:01.000Z</time>
</trkpt>
<trkpt lat="31.7753600" lon="35.0323790">
<ele>373.600006</ele>
<time>2017-10-20T07:29:02.000Z</time>
</trkpt>
<trkpt lat="31.7753370" lon="35.0324000">
<ele>373.500000</ele>
<time>2017-10-20T07:29:03.000Z</time>
</trkpt>
<trkpt lat="31.7753210" lon="35.0324490">
<ele>373.199982</ele>
<time>2017-10-20T07:29:05.000Z</time>
</trkpt>
<trkpt lat="31.7753570" lon="35.0324560">
<ele>372.700012</ele>
<time>2017-10-20T07:29:08.000Z</time>
</trkpt>
<trkpt lat="31.7753990" lon="35.0324450">
<ele>372.000000</ele>
<time>2017-10-20T07:29:09.000Z</time>
</trkpt>
<trkpt lat="31.7754660" lon="35.0324280">
<ele>371.099976</ele>
<time>2017-10-20T07:29:10.000Z</time>
</trkpt>
<trkpt lat="31.7755330" lon="35.0324070">
<ele>370.000000</ele>
<time>2017-10-20T07:29:11.000Z</time>
</trkpt>
<trkpt lat="31.7756060" lon="35.0323860">
<ele>369.200012</ele>
<time>2017-10-20T07:29:12.000Z</time>
</trkpt>
<trkpt lat="31.7756780" lon="35.0323630">
<ele>368.399994</ele>
<time>2017-10-20T07:29:13.000Z</time>
</trkpt>
<trkpt lat="31.7757530" lon="35.0323330">
<ele>367.400024</ele>
<time>2017-10-20T07:29:14.000Z</time>
</trkpt>
<trkpt lat="31.7758360" lon="35.0322890">
<ele>366.500000</ele>
<time>2017-10-20T07:29:15.000Z</time>
</trkpt>
<trkpt lat="31.7759290" lon="35.0322480">
<ele>365.099976</ele>
<time>2017-10-20T07:29:16.000Z</time>
</trkpt>
<trkpt lat="31.7760160" lon="35.0321920">
<ele>363.699982</ele>
<time>2017-10-20T07:29:17.000Z</time>
</trkpt>
<trkpt lat="31.7760840" lon="35.0321300">
<ele>362.799988</ele>
<time>2017-10-20T07:29:18.000Z</time>
</trkpt>
<trkpt lat="31.7761510" lon="35.0320760">
<ele>362.099976</ele>
<time>2017-10-20T07:29:19.000Z</time>
</trkpt>
<trkpt lat="31.7762090" lon="35.0320260">
<ele>360.800018</ele>
<time>2017-10-20T07:29:20.000Z</time>
</trkpt>
<trkpt lat="31.7762510" lon="35.0319900">
<ele>359.899994</ele>
<time>2017-10-20T07:29:21.000Z</time>
</trkpt>
<trkpt lat="31.7762810" lon="35.0319680">
<ele>359.199982</ele>
<time>2017-10-20T07:29:22.000Z</time>
</trkpt>
<trkpt lat="31.7763080" lon="35.0319540">
<ele>358.700012</ele>
<time>2017-10-20T07:29:23.000Z</time>
</trkpt>
<trkpt lat="31.7763540" lon="35.0319950">
<ele>358.299988</ele>
<time>2017-10-20T07:29:27.000Z</time>
</trkpt>
<trkpt lat="31.7763380" lon="35.0320320">
<ele>358.000000</ele>
<time>2017-10-20T07:29:28.000Z</time>
</trkpt>
<trkpt lat="31.7763170" lon="35.0320750">
<ele>357.399994</ele>
<time>2017-10-20T07:29:29.000Z</time>
</trkpt>
<trkpt lat="31.7762970" lon="35.0321250">
<ele>356.700012</ele>
<time>2017-10-20T07:29:30.000Z</time>
</trkpt>
<trkpt lat="31.7762830" lon="35.0321640">
<ele>356.400024</ele>
<time>2017-10-20T07:29:31.000Z</time>
</trkpt>
<trkpt lat="31.7762930" lon="35.0321950">
<ele>356.299988</ele>
<time>2017-10-20T07:29:32.000Z</time>
</trkpt>
<trkpt lat="31.7763240" lon="35.0322190">
<ele>356.000000</ele>
<time>2017-10-20T07:29:33.000Z</time>
</trkpt>
<trkpt lat="31.7763640" lon="35.0322340">
<ele>355.800018</ele>
<time>2017-10-20T07:29:34.000Z</time>
</trkpt>
<trkpt lat="31.7764040" lon="35.0322300">
<ele>355.500000</ele>
<time>2017-10-20T07:29:35.000Z</time>
</trkpt>
<trkpt lat="31.7764460" lon="35.0322030">
<ele>354.799988</ele>
<time>2017-10-20T07:29:36.000Z</time>
</trkpt>
<trkpt lat="31.7764960" lon="35.0321670">
<ele>353.700012</ele>
<time>2017-10-20T07:29:37.000Z</time>
</trkpt>
<trkpt lat="31.7765440" lon="35.0321310">
<ele>352.700012</ele>
<time>2017-10-20T07:29:38.000Z</time>
</trkpt>
<trkpt lat="31.7765780" lon="35.0321000">
<ele>352.100006</ele>
<time>2017-10-20T07:29:39.000Z</time>
</trkpt>
<trkpt lat="31.7766260" lon="35.0320810">
<ele>351.799988</ele>
<time>2017-10-20T07:29:40.000Z</time>
</trkpt>
<trkpt lat="31.7766760" lon="35.0320690">
<ele>351.699982</ele>
<time>2017-10-20T07:29:41.000Z</time>
</trkpt>
<trkpt lat="31.7767300" lon="35.0320440">
<ele>351.500000</ele>
<time>2017-10-20T07:29:42.000Z</time>
</trkpt>
<trkpt lat="31.7767950" lon="35.0320020">
<ele>351.000000</ele>
<time>2017-10-20T07:29:43.000Z</time>
</trkpt>
<trkpt lat="31.7768670" lon="35.0319620">
<ele>350.199982</ele>
<time>2017-10-20T07:29:44.000Z</time>
</trkpt>
<trkpt lat="31.7769390" lon="35.0319170">
<ele>349.500000</ele>
<time>2017-10-20T07:29:45.000Z</time>
</trkpt>
<trkpt lat="31.7770110" lon="35.0318670">
<ele>349.000031</ele>
<time>2017-10-20T07:29:46.000Z</time>
</trkpt>
<trkpt lat="31.7770770" lon="35.0318080">
<ele>348.500000</ele>
<time>2017-10-20T07:29:47.000Z</time>
</trkpt>
<trkpt lat="31.7771350" lon="35.0317400">
<ele>348.000000</ele>
<time>2017-10-20T07:29:48.000Z</time>
</trkpt>
<trkpt lat="31.7771870" lon="35.0316620">
<ele>347.600006</ele>
<time>2017-10-20T07:29:49.000Z</time>
</trkpt>
<trkpt lat="31.7772370" lon="35.0315710">
<ele>347.000000</ele>
<time>2017-10-20T07:29:50.000Z</time>
</trkpt>
<trkpt lat="31.7772710" lon="35.0314640">
<ele>345.600006</ele>
<time>2017-10-20T07:29:51.000Z</time>
</trkpt>
<trkpt lat="31.7773020" lon="35.0313510">
<ele>343.799988</ele>
<time>2017-10-20T07:29:52.000Z</time>
</trkpt>
<trkpt lat="31.7773330" lon="35.0312510">
<ele>343.099976</ele>
<time>2017-10-20T07:29:53.000Z</time>
</trkpt>
<trkpt lat="31.7773860" lon="35.0311590">
<ele>342.600006</ele>
<time>2017-10-20T07:29:54.000Z</time>
</trkpt>
<trkpt lat="31.7774530" lon="35.0310620">
<ele>342.199982</ele>
<time>2017-10-20T07:29:55.000Z</time>
</trkpt>
<trkpt lat="31.7775240" lon="35.0309560">
<ele>341.599976</ele>
<time>2017-10-20T07:29:56.000Z</time>
</trkpt>
<trkpt lat="31.7776050" lon="35.0308910">
<ele>341.100006</ele>
<time>2017-10-20T07:29:57.000Z</time>
</trkpt>
<trkpt lat="31.7776780" lon="35.0308340">
<ele>341.200012</ele>
<time>2017-10-20T07:29:58.000Z</time>
</trkpt>
<trkpt lat="31.7777420" lon="35.0307710">
<ele>341.399994</ele>
<time>2017-10-20T07:29:59.000Z</time>
</trkpt>
<trkpt lat="31.7777980" lon="35.0306990">
<ele>341.599976</ele>
<time>2017-10-20T07:30:00.000Z</time>
</trkpt>
<trkpt lat="31.7778530" lon="35.0306140">
<ele>341.700012</ele>
<time>2017-10-20T07:30:01.000Z</time>
</trkpt>
<trkpt lat="31.7779080" lon="35.0305350">
<ele>341.800018</ele>
<time>2017-10-20T07:30:02.000Z</time>
</trkpt>
<trkpt lat="31.7779550" lon="35.0304530">
<ele>341.599976</ele>
<time>2017-10-20T07:30:03.000Z</time>
</trkpt>
<trkpt lat="31.7780000" lon="35.0303630">
<ele>341.500000</ele>
<time>2017-10-20T07:30:04.000Z</time>
</trkpt>
<trkpt lat="31.7780310" lon="35.0302580">
<ele>341.500000</ele>
<time>2017-10-20T07:30:05.000Z</time>
</trkpt>
<trkpt lat="31.7780580" lon="35.0301530">
<ele>341.500000</ele>
<time>2017-10-20T07:30:06.000Z</time>
</trkpt>
<trkpt lat="31.7780940" lon="35.0300430">
<ele>341.500000</ele>
<time>2017-10-20T07:30:07.000Z</time>
</trkpt>
<trkpt lat="31.7781170" lon="35.0299360">
<ele>341.599976</ele>
<time>2017-10-20T07:30:08.000Z</time>
</trkpt>
<trkpt lat="31.7781240" lon="35.0298300">
<ele>341.700012</ele>
<time>2017-10-20T07:30:09.000Z</time>
</trkpt>
<trkpt lat="31.7781260" lon="35.0297160">
<ele>341.700012</ele>
<time>2017-10-20T07:30:10.000Z</time>
</trkpt>
<trkpt lat="31.7781250" lon="35.0296090">
<ele>341.500000</ele>
<time>2017-10-20T07:30:11.000Z</time>
</trkpt>
<trkpt lat="31.7781370" lon="35.0295020">
<ele>341.399994</ele>
<time>2017-10-20T07:30:12.000Z</time>
</trkpt>
<trkpt lat="31.7781700" lon="35.0294030">
<ele>341.399994</ele>
<time>2017-10-20T07:30:13.000Z</time>
</trkpt>
<trkpt lat="31.7781870" lon="35.0293070">
<ele>341.399994</ele>
<time>2017-10-20T07:30:14.000Z</time>
</trkpt>
<trkpt lat="31.7781970" lon="35.0292100">
<ele>341.299988</ele>
<time>2017-10-20T07:30:15.000Z</time>
</trkpt>
<trkpt lat="31.7781980" lon="35.0291120">
<ele>341.299988</ele>
<time>2017-10-20T07:30:16.000Z</time>
</trkpt>
<trkpt lat="31.7781950" lon="35.0290040">
<ele>341.100006</ele>
<time>2017-10-20T07:30:17.000Z</time>
</trkpt>
<trkpt lat="31.7781910" lon="35.0288950">
<ele>341.000000</ele>
<time>2017-10-20T07:30:18.000Z</time>
</trkpt>
<trkpt lat="31.7781880" lon="35.0287940">
<ele>341.000000</ele>
<time>2017-10-20T07:30:19.000Z</time>
</trkpt>
<trkpt lat="31.7781940" lon="35.0287030">
<ele>341.100006</ele>
<time>2017-10-20T07:30:20.000Z</time>
</trkpt>
<trkpt lat="31.7781930" lon="35.0286160">
<ele>341.200012</ele>
<time>2017-10-20T07:30:21.000Z</time>
</trkpt>
<trkpt lat="31.7782020" lon="35.0285320">
<ele>341.200012</ele>
<time>2017-10-20T07:30:22.000Z</time>
</trkpt>
<trkpt lat="31.7781980" lon="35.0284420">
<ele>341.299988</ele>
<time>2017-10-20T07:30:23.000Z</time>
</trkpt>
<trkpt lat="31.7781970" lon="35.0283410">
<ele>341.399994</ele>
<time>2017-10-20T07:30:24.000Z</time>
</trkpt>
<trkpt lat="31.7782000" lon="35.0282410">
<ele>341.500000</ele>
<time>2017-10-20T07:30:25.000Z</time>
</trkpt>
<trkpt lat="31.7782040" lon="35.0281580">
<ele>341.500000</ele>
<time>2017-10-20T07:30:26.000Z</time>
</trkpt>
<trkpt lat="31.7782020" lon="35.0280760">
<ele>341.500000</ele>
<time>2017-10-20T07:30:27.000Z</time>
</trkpt>
<trkpt lat="31.7782100" lon="35.0279830">
<ele>341.500000</ele>
<time>2017-10-20T07:30:28.000Z</time>
</trkpt>
<trkpt lat="31.7782210" lon="35.0278830">
<ele>341.200012</ele>
<time>2017-10-20T07:30:29.000Z</time>
</trkpt>
<trkpt lat="31.7782350" lon="35.0277900">
<ele>341.100006</ele>
<time>2017-10-20T07:30:30.000Z</time>
</trkpt>
<trkpt lat="31.7782440" lon="35.0277000">
<ele>341.000000</ele>
<time>2017-10-20T07:30:31.000Z</time>
</trkpt>
<trkpt lat="31.7782430" lon="35.0276220">
<ele>340.799988</ele>
<time>2017-10-20T07:30:32.000Z</time>
</trkpt>
<trkpt lat="31.7782350" lon="35.0275390">
<ele>340.600006</ele>
<time>2017-10-20T07:30:33.000Z</time>
</trkpt>
<trkpt lat="31.7782030" lon="35.0274760">
<ele>340.500000</ele>
<time>2017-10-20T07:30:34.000Z</time>
</trkpt>
<trkpt lat="31.7781570" lon="35.0274320">
<ele>340.399994</ele>
<time>2017-10-20T07:30:35.000Z</time>
</trkpt>
<trkpt lat="31.7781060" lon="35.0273920">
<ele>340.300018</ele>
<time>2017-10-20T07:30:36.000Z</time>
</trkpt>
<trkpt lat="31.7780480" lon="35.0273680">
<ele>340.000000</ele>
<time>2017-10-20T07:30:37.000Z</time>
</trkpt>
<trkpt lat="31.7779780" lon="35.0273480">
<ele>339.799988</ele>
<time>2017-10-20T07:30:38.000Z</time>
</trkpt>
<trkpt lat="31.7779100" lon="35.0273160">
<ele>339.700012</ele>
<time>2017-10-20T07:30:39.000Z</time>
</trkpt>
<trkpt lat="31.7778390" lon="35.0272790">
<ele>339.600006</ele>
<time>2017-10-20T07:30:40.000Z</time>
</trkpt>
<trkpt lat="31.7777690" lon="35.0272440">
<ele>339.199982</ele>
<time>2017-10-20T07:30:41.000Z</time>
</trkpt>
<trkpt lat="31.7776990" lon="35.0272120">
<ele>339.000000</ele>
<time>2017-10-20T07:30:42.000Z</time>
</trkpt>
<trkpt lat="31.7776180" lon="35.0271890">
<ele>338.800018</ele>
<time>2017-10-20T07:30:43.000Z</time>
</trkpt>
<trkpt lat="31.7775370" lon="35.0271580">
<ele>338.299988</ele>
<time>2017-10-20T07:30:44.000Z</time>
</trkpt>
<trkpt lat="31.7774600" lon="35.0270990">
<ele>338.100006</ele>
<time>2017-10-20T07:30:45.000Z</time>
</trkpt>
<trkpt lat="31.7773970" lon="35.0270150">
<ele>337.399994</ele>
<time>2017-10-20T07:30:46.000Z</time>
</trkpt>
<trkpt lat="31.7773430" lon="35.0269380">
<ele>337.000000</ele>
<time>2017-10-20T07:30:47.000Z</time>
</trkpt>
<trkpt lat="31.7772950" lon="35.0268420">
<ele>336.700012</ele>
<time>2017-10-20T07:30:48.000Z</time>
</trkpt>
<trkpt lat="31.7772520" lon="35.0267450">
<ele>336.200012</ele>
<time>2017-10-20T07:30:49.000Z</time>
</trkpt>
<trkpt lat="31.7772220" lon="35.0266600">
<ele>335.800018</ele>
<time>2017-10-20T07:30:50.000Z</time>
</trkpt>
<trkpt lat="31.7772040" lon="35.0265780">
<ele>335.399994</ele>
<time>2017-10-20T07:30:51.000Z</time>
</trkpt>
<trkpt lat="31.7772010" lon="35.0264800">
<ele>335.300018</ele>
<time>2017-10-20T07:30:52.000Z</time>
</trkpt>
<trkpt lat="31.7771940" lon="35.0263740">
<ele>335.200012</ele>
<time>2017-10-20T07:30:53.000Z</time>
</trkpt>
<trkpt lat="31.7772100" lon="35.0262740">
<ele>335.100006</ele>
<time>2017-10-20T07:30:54.000Z</time>
</trkpt>
<trkpt lat="31.7772380" lon="35.0261900">
<ele>334.899994</ele>
<time>2017-10-20T07:30:55.000Z</time>
</trkpt>
<trkpt lat="31.7772940" lon="35.0261240">
<ele>334.700012</ele>
<time>2017-10-20T07:30:56.000Z</time>
</trkpt>
<trkpt lat="31.7773700" lon="35.0260650">
<ele>334.600006</ele>
<time>2017-10-20T07:30:57.000Z</time>
</trkpt>
<trkpt lat="31.7774450" lon="35.0260040">
<ele>334.500000</ele>
<time>2017-10-20T07:30:58.000Z</time>
</trkpt>
<trkpt lat="31.7775170" lon="35.0259540">
<ele>334.500000</ele>
<time>2017-10-20T07:30:59.000Z</time>
</trkpt>
<trkpt lat="31.7775900" lon="35.0259080">
<ele>334.300018</ele>
<time>2017-10-20T07:31:00.000Z</time>
</trkpt>
<trkpt lat="31.7776560" lon="35.0258610">
<ele>334.000000</ele>
<time>2017-10-20T07:31:01.000Z</time>
</trkpt>
<trkpt lat="31.7777080" lon="35.0257960">
<ele>333.800018</ele>
<time>2017-10-20T07:31:02.000Z</time>
</trkpt>
<trkpt lat="31.7777530" lon="35.0257210">
<ele>333.700012</ele>
<time>2017-10-20T07:31:03.000Z</time>
</trkpt>
<trkpt lat="31.7777710" lon="35.0256220">
<ele>333.500031</ele>
<time>2017-10-20T07:31:04.000Z</time>
</trkpt>
<trkpt lat="31.7777910" lon="35.0255150">
<ele>333.200012</ele>
<time>2017-10-20T07:31:05.000Z</time>
</trkpt>
<trkpt lat="31.7778040" lon="35.0254140">
<ele>333.100006</ele>
<time>2017-10-20T07:31:06.000Z</time>
</trkpt>
<trkpt lat="31.7778220" lon="35.0253180">
<ele>333.100006</ele>
<time>2017-10-20T07:31:07.000Z</time>
</trkpt>
<trkpt lat="31.7778440" lon="35.0252260">
<ele>333.100006</ele>
<time>2017-10-20T07:31:08.000Z</time>
</trkpt>
<trkpt lat="31.7778670" lon="35.0251340">
<ele>333.000000</ele>
<time>2017-10-20T07:31:09.000Z</time>
</trkpt>
<trkpt lat="31.7778890" lon="35.0250370">
<ele>332.799988</ele>
<time>2017-10-20T07:31:10.000Z</time>
</trkpt>
<trkpt lat="31.7779090" lon="35.0249370">
<ele>332.699982</ele>
<time>2017-10-20T07:31:11.000Z</time>
</trkpt>
<trkpt lat="31.7779260" lon="35.0248420">
<ele>332.699982</ele>
<time>2017-10-20T07:31:12.000Z</time>
</trkpt>
<trkpt lat="31.7779500" lon="35.0247540">
<ele>332.799988</ele>
<time>2017-10-20T07:31:13.000Z</time>
</trkpt>
<trkpt lat="31.7779760" lon="35.0246590">
<ele>332.799988</ele>
<time>2017-10-20T07:31:14.000Z</time>
</trkpt>
<trkpt lat="31.7780160" lon="35.0245650">
<ele>332.699982</ele>
<time>2017-10-20T07:31:15.000Z</time>
</trkpt>
<trkpt lat="31.7780580" lon="35.0244770">
<ele>332.500000</ele>
<time>2017-10-20T07:31:16.000Z</time>
</trkpt>
<trkpt lat="31.7781050" lon="35.0243960">
<ele>332.399994</ele>
<time>2017-10-20T07:31:17.000Z</time>
</trkpt>
<trkpt lat="31.7781600" lon="35.0243240">
<ele>332.399994</ele>
<time>2017-10-20T07:31:18.000Z</time>
</trkpt>
<trkpt lat="31.7782260" lon="35.0242660">
<ele>332.300018</ele>
<time>2017-10-20T07:31:19.000Z</time>
</trkpt>
<trkpt lat="31.7782800" lon="35.0242050">
<ele>332.300018</ele>
<time>2017-10-20T07:31:20.000Z</time>
</trkpt>
<trkpt lat="31.7783210" lon="35.0241400">
<ele>332.200012</ele>
<time>2017-10-20T07:31:21.000Z</time>
</trkpt>
<trkpt lat="31.7783590" lon="35.0240640">
<ele>332.200012</ele>
<time>2017-10-20T07:31:22.000Z</time>
</trkpt>
<trkpt lat="31.7784060" lon="35.0239910">
<ele>332.099976</ele>
<time>2017-10-20T07:31:23.000Z</time>
</trkpt>
<trkpt lat="31.7784610" lon="35.0239270">
<ele>332.000000</ele>
<time>2017-10-20T07:31:24.000Z</time>
</trkpt>
<trkpt lat="31.7785160" lon="35.0238650">
<ele>331.799988</ele>
<time>2017-10-20T07:31:25.000Z</time>
</trkpt>
<trkpt lat="31.7785630" lon="35.0238000">
<ele>331.700012</ele>
<time>2017-10-20T07:31:26.000Z</time>
</trkpt>
<trkpt lat="31.7786070" lon="35.0237250">
<ele>331.600006</ele>
<time>2017-10-20T07:31:27.000Z</time>
</trkpt>
<trkpt lat="31.7786460" lon="35.0236410">
<ele>331.600006</ele>
<time>2017-10-20T07:31:28.000Z</time>
</trkpt>
<trkpt lat="31.7786850" lon="35.0235560">
<ele>331.600006</ele>
<time>2017-10-20T07:31:29.000Z</time>
</trkpt>
<trkpt lat="31.7787220" lon="35.0234710">
<ele>331.600006</ele>
<time>2017-10-20T07:31:30.000Z</time>
</trkpt>
<trkpt lat="31.7787550" lon="35.0233860">
<ele>331.600006</ele>
<time>2017-10-20T07:31:31.000Z</time>
</trkpt>
<trkpt lat="31.7787860" lon="35.0232990">
<ele>331.600006</ele>
<time>2017-10-20T07:31:32.000Z</time>
</trkpt>
<trkpt lat="31.7788170" lon="35.0232140">
<ele>331.600006</ele>
<time>2017-10-20T07:31:33.000Z</time>
</trkpt>
<trkpt lat="31.7788530" lon="35.0231350">
<ele>331.600006</ele>
<time>2017-10-20T07:31:34.000Z</time>
</trkpt>
<trkpt lat="31.7788820" lon="35.0230550">
<ele>331.600006</ele>
<time>2017-10-20T07:31:35.000Z</time>
</trkpt>
<trkpt lat="31.7789100" lon="35.0229760">
<ele>331.600006</ele>
<time>2017-10-20T07:31:36.000Z</time>
</trkpt>
<trkpt lat="31.7789450" lon="35.0229010">
<ele>331.600006</ele>
<time>2017-10-20T07:31:37.000Z</time>
</trkpt>
<trkpt lat="31.7789760" lon="35.0228260">
<ele>331.500000</ele>
<time>2017-10-20T07:31:38.000Z</time>
</trkpt>
<trkpt lat="31.7789970" lon="35.0227550">
<ele>331.299988</ele>
<time>2017-10-20T07:31:39.000Z</time>
</trkpt>
<trkpt lat="31.7790210" lon="35.0226890">
<ele>331.199982</ele>
<time>2017-10-20T07:31:40.000Z</time>
</trkpt>
<trkpt lat="31.7790510" lon="35.0226260">
<ele>331.199982</ele>
<time>2017-10-20T07:31:41.000Z</time>
</trkpt>
<trkpt lat="31.7790740" lon="35.0225650">
<ele>331.199982</ele>
<time>2017-10-20T07:31:42.000Z</time>
</trkpt>
<trkpt lat="31.7791020" lon="35.0225020">
<ele>331.100006</ele>
<time>2017-10-20T07:31:43.000Z</time>
</trkpt>
<trkpt lat="31.7791350" lon="35.0224310">
<ele>331.100006</ele>
<time>2017-10-20T07:31:44.000Z</time>
</trkpt>
<trkpt lat="31.7791690" lon="35.0223680">
<ele>331.100006</ele>
<time>2017-10-20T07:31:45.000Z</time>
</trkpt>
<trkpt lat="31.7792040" lon="35.0223120">
<ele>331.100006</ele>
<time>2017-10-20T07:31:46.000Z</time>
</trkpt>
<trkpt lat="31.7792370" lon="35.0222560">
<ele>331.100006</ele>
<time>2017-10-20T07:31:47.000Z</time>
</trkpt>
<trkpt lat="31.7792620" lon="35.0221900">
<ele>331.100006</ele>
<time>2017-10-20T07:31:48.000Z</time>
</trkpt>
<trkpt lat="31.7792910" lon="35.0221200">
<ele>331.100006</ele>
<time>2017-10-20T07:31:49.000Z</time>
</trkpt>
<trkpt lat="31.7793290" lon="35.0220560">
<ele>331.100006</ele>
<time>2017-10-20T07:31:50.000Z</time>
</trkpt>
<trkpt lat="31.7793660" lon="35.0219920">
<ele>331.100006</ele>
<time>2017-10-20T07:31:51.000Z</time>
</trkpt>
<trkpt lat="31.7793960" lon="35.0219350">
<ele>331.100006</ele>
<time>2017-10-20T07:31:52.000Z</time>
</trkpt>
<trkpt lat="31.7794300" lon="35.0218750">
<ele>330.899994</ele>
<time>2017-10-20T07:31:53.000Z</time>
</trkpt>
<trkpt lat="31.7794660" lon="35.0218100">
<ele>330.700012</ele>
<time>2017-10-20T07:31:54.000Z</time>
</trkpt>
<trkpt lat="31.7795050" lon="35.0217450">
<ele>330.700012</ele>
<time>2017-10-20T07:31:55.000Z</time>
</trkpt>
<trkpt lat="31.7795480" lon="35.0216830">
<ele>330.599976</ele>
<time>2017-10-20T07:31:56.000Z</time>
</trkpt>
<trkpt lat="31.7795870" lon="35.0216200">
<ele>330.599976</ele>
<time>2017-10-20T07:31:57.000Z</time>
</trkpt>
<trkpt lat="31.7796250" lon="35.0215600">
<ele>330.599976</ele>
<time>2017-10-20T07:31:58.000Z</time>
</trkpt>
<trkpt lat="31.7796620" lon="35.0214920">
<ele>330.700012</ele>
<time>2017-10-20T07:31:59.000Z</time>
</trkpt>
<trkpt lat="31.7797010" lon="35.0214280">
<ele>330.800018</ele>
<time>2017-10-20T07:32:00.000Z</time>
</trkpt>
<trkpt lat="31.7797380" lon="35.0213640">
<ele>330.899994</ele>
<time>2017-10-20T07:32:01.000Z</time>
</trkpt>
<trkpt lat="31.7797690" lon="35.0212930">
<ele>330.700012</ele>
<time>2017-10-20T07:32:02.000Z</time>
</trkpt>
<trkpt lat="31.7797960" lon="35.0212190">
<ele>329.799988</ele>
<time>2017-10-20T07:32:03.000Z</time>
</trkpt>
<trkpt lat="31.7798240" lon="35.0211480">
<ele>329.000000</ele>
<time>2017-10-20T07:32:04.000Z</time>
</trkpt>
<trkpt lat="31.7798530" lon="35.0210840">
<ele>328.199982</ele>
<time>2017-10-20T07:32:05.000Z</time>
</trkpt>
<trkpt lat="31.7798880" lon="35.0210250">
<ele>327.399994</ele>
<time>2017-10-20T07:32:06.000Z</time>
</trkpt>
<trkpt lat="31.7799210" lon="35.0209760">
<ele>326.600006</ele>
<time>2017-10-20T07:32:07.000Z</time>
</trkpt>
<trkpt lat="31.7799610" lon="35.0209260">
<ele>325.199982</ele>
<time>2017-10-20T07:32:08.000Z</time>
</trkpt>
<trkpt lat="31.7799900" lon="35.0208770">
<ele>323.500000</ele>
<time>2017-10-20T07:32:09.000Z</time>
</trkpt>
<trkpt lat="31.7800250" lon="35.0208180">
<ele>322.399994</ele>
<time>2017-10-20T07:32:10.000Z</time>
</trkpt>
<trkpt lat="31.7800640" lon="35.0207560">
<ele>321.300018</ele>
<time>2017-10-20T07:32:11.000Z</time>
</trkpt>
<trkpt lat="31.7801040" lon="35.0206880">
<ele>320.100006</ele>
<time>2017-10-20T07:32:12.000Z</time>
</trkpt>
<trkpt lat="31.7801460" lon="35.0206250">
<ele>318.900024</ele>
<time>2017-10-20T07:32:13.000Z</time>
</trkpt>
<trkpt lat="31.7801770" lon="35.0205710">
<ele>318.000000</ele>
<time>2017-10-20T07:32:14.000Z</time>
</trkpt>
<trkpt lat="31.7802200" lon="35.0205170">
<ele>316.500000</ele>
<time>2017-10-20T07:32:15.000Z</time>
</trkpt>
<trkpt lat="31.7802600" lon="35.0204580">
<ele>313.800018</ele>
<time>2017-10-20T07:32:16.000Z</time>
</trkpt>
<trkpt lat="31.7802820" lon="35.0203960">
<ele>311.399994</ele>
<time>2017-10-20T07:32:17.000Z</time>
</trkpt>
<trkpt lat="31.7803060" lon="35.0203330">
<ele>310.100006</ele>
<time>2017-10-20T07:32:18.000Z</time>
</trkpt>
<trkpt lat="31.7803320" lon="35.0202730">
<ele>309.399994</ele>
<time>2017-10-20T07:32:19.000Z</time>
</trkpt>
<trkpt lat="31.7803650" lon="35.0202150">
<ele>308.600006</ele>
<time>2017-10-20T07:32:20.000Z</time>
</trkpt>
<trkpt lat="31.7804000" lon="35.0201610">
<ele>307.799988</ele>
<time>2017-10-20T07:32:21.000Z</time>
</trkpt>
<trkpt lat="31.7804390" lon="35.0201110">
<ele>307.100006</ele>
<time>2017-10-20T07:32:22.000Z</time>
</trkpt>
<trkpt lat="31.7804680" lon="35.0200590">
<ele>306.500000</ele>
<time>2017-10-20T07:32:23.000Z</time>
</trkpt>
<trkpt lat="31.7804930" lon="35.0200070">
<ele>305.899994</ele>
<time>2017-10-20T07:32:24.000Z</time>
</trkpt>
<trkpt lat="31.7805160" lon="35.0199530">
<ele>305.199982</ele>
<time>2017-10-20T07:32:25.000Z</time>
</trkpt>
<trkpt lat="31.7805260" lon="35.0198920">
<ele>304.600006</ele>
<time>2017-10-20T07:32:26.000Z</time>
</trkpt>
<trkpt lat="31.7805390" lon="35.0198320">
<ele>304.100006</ele>
<time>2017-10-20T07:32:27.000Z</time>
</trkpt>
<trkpt lat="31.7805480" lon="35.0197750">
<ele>303.600006</ele>
<time>2017-10-20T07:32:28.000Z</time>
</trkpt>
<trkpt lat="31.7805520" lon="35.0197190">
<ele>303.100006</ele>
<time>2017-10-20T07:32:29.000Z</time>
</trkpt>
<trkpt lat="31.7805550" lon="35.0196700">
<ele>302.700012</ele>
<time>2017-10-20T07:32:30.000Z</time>
</trkpt>
<trkpt lat="31.7805580" lon="35.0196190">
<ele>302.300018</ele>
<time>2017-10-20T07:32:31.000Z</time>
</trkpt>
<trkpt lat="31.7805560" lon="35.0195620">
<ele>301.799988</ele>
<time>2017-10-20T07:32:32.000Z</time>
</trkpt>
<trkpt lat="31.7805520" lon="35.0194960">
<ele>301.100006</ele>
<time>2017-10-20T07:32:33.000Z</time>
</trkpt>
<trkpt lat="31.7805430" lon="35.0194240">
<ele>300.299988</ele>
<time>2017-10-20T07:32:34.000Z</time>
</trkpt>
<trkpt lat="31.7805450" lon="35.0193650">
<ele>299.699982</ele>
<time>2017-10-20T07:32:35.000Z</time>
</trkpt>
<trkpt lat="31.7805400" lon="35.0193110">
<ele>299.100006</ele>
<time>2017-10-20T07:32:36.000Z</time>
</trkpt>
<trkpt lat="31.7805240" lon="35.0192510">
<ele>298.000000</ele>
<time>2017-10-20T07:32:37.000Z</time>
</trkpt>
<trkpt lat="31.7805050" lon="35.0191890">
<ele>296.800018</ele>
<time>2017-10-20T07:32:38.000Z</time>
</trkpt>
<trkpt lat="31.7804910" lon="35.0191230">
<ele>294.300018</ele>
<time>2017-10-20T07:32:39.000Z</time>
</trkpt>
<trkpt lat="31.7804810" lon="35.0190570">
<ele>292.100006</ele>
<time>2017-10-20T07:32:40.000Z</time>
</trkpt>
<trkpt lat="31.7804630" lon="35.0189930">
<ele>291.000000</ele>
<time>2017-10-20T07:32:41.000Z</time>
</trkpt>
<trkpt lat="31.7804280" lon="35.0189220">
<ele>289.699982</ele>
<time>2017-10-20T07:32:42.000Z</time>
</trkpt>
<trkpt lat="31.7803930" lon="35.0188470">
<ele>288.500000</ele>
<time>2017-10-20T07:32:43.000Z</time>
</trkpt>
<trkpt lat="31.7803600" lon="35.0187680">
<ele>287.399994</ele>
<time>2017-10-20T07:32:44.000Z</time>
</trkpt>
<trkpt lat="31.7803350" lon="35.0186810">
<ele>286.299988</ele>
<time>2017-10-20T07:32:45.000Z</time>
</trkpt>
<trkpt lat="31.7803070" lon="35.0186050">
<ele>285.299988</ele>
<time>2017-10-20T07:32:46.000Z</time>
</trkpt>
<trkpt lat="31.7802670" lon="35.0185280">
<ele>284.100006</ele>
<time>2017-10-20T07:32:47.000Z</time>
</trkpt>
<trkpt lat="31.7802300" lon="35.0184560">
<ele>283.700012</ele>
<time>2017-10-20T07:32:48.000Z</time>
</trkpt>
<trkpt lat="31.7801890" lon="35.0183950">
<ele>283.500000</ele>
<time>2017-10-20T07:32:49.000Z</time>
</trkpt>
<trkpt lat="31.7801360" lon="35.0183480">
<ele>283.299988</ele>
<time>2017-10-20T07:32:50.000Z</time>
</trkpt>
<trkpt lat="31.7800750" lon="35.0183080">
<ele>283.100006</ele>
<time>2017-10-20T07:32:51.000Z</time>
</trkpt>
<trkpt lat="31.7800130" lon="35.0182710">
<ele>282.899994</ele>
<time>2017-10-20T07:32:52.000Z</time>
</trkpt>
<trkpt lat="31.7799490" lon="35.0182380">
<ele>282.800018</ele>
<time>2017-10-20T07:32:53.000Z</time>
</trkpt>
<trkpt lat="31.7798900" lon="35.0182150">
<ele>282.800018</ele>
<time>2017-10-20T07:32:54.000Z</time>
</trkpt>
<trkpt lat="31.7798310" lon="35.0181850">
<ele>282.699982</ele>
<time>2017-10-20T07:32:55.000Z</time>
</trkpt>
<trkpt lat="31.7797830" lon="35.0181600">
<ele>282.699982</ele>
<time>2017-10-20T07:32:56.000Z</time>
</trkpt>
<trkpt lat="31.7797350" lon="35.0181480">
<ele>282.600006</ele>
<time>2017-10-20T07:32:57.000Z</time>
</trkpt>
<trkpt lat="31.7796920" lon="35.0181400">
<ele>282.500000</ele>
<time>2017-10-20T07:32:58.000Z</time>
</trkpt>
<trkpt lat="31.7796510" lon="35.0181290">
<ele>282.399994</ele>
<time>2017-10-20T07:32:59.000Z</time>
</trkpt>
<trkpt lat="31.7796090" lon="35.0181180">
<ele>282.399994</ele>
<time>2017-10-20T07:33:00.000Z</time>
</trkpt>
<trkpt lat="31.7795710" lon="35.0181020">
<ele>282.299988</ele>
<time>2017-10-20T07:33:01.000Z</time>
</trkpt>
<trkpt lat="31.7795320" lon="35.0180830">
<ele>282.200012</ele>
<time>2017-10-20T07:33:02.000Z</time>
</trkpt>
<trkpt lat="31.7794900" lon="35.0180660">
<ele>282.200012</ele>
<time>2017-10-20T07:33:03.000Z</time>
</trkpt>
<trkpt lat="31.7794500" lon="35.0180410">
<ele>282.200012</ele>
<time>2017-10-20T07:33:04.000Z</time>
</trkpt>
<trkpt lat="31.7794070" lon="35.0180210">
<ele>282.200012</ele>
<time>2017-10-20T07:33:05.000Z</time>
</trkpt>
<trkpt lat="31.7793610" lon="35.0180060">
<ele>282.299988</ele>
<time>2017-10-20T07:33:06.000Z</time>
</trkpt>
<trkpt lat="31.7793110" lon="35.0180010">
<ele>282.299988</ele>
<time>2017-10-20T07:33:07.000Z</time>
</trkpt>
<trkpt lat="31.7792750" lon="35.0179930">
<ele>282.299988</ele>
<time>2017-10-20T07:33:08.000Z</time>
</trkpt>
<trkpt lat="31.7792420" lon="35.0179940">
<ele>282.399994</ele>
<time>2017-10-20T07:33:09.000Z</time>
</trkpt>
<trkpt lat="31.7792140" lon="35.0179920">
<ele>282.399994</ele>
<time>2017-10-20T07:33:10.000Z</time>
</trkpt>
<trkpt lat="31.7791880" lon="35.0179830">
<ele>282.500000</ele>
<time>2017-10-20T07:33:11.000Z</time>
</trkpt>
<trkpt lat="31.7791610" lon="35.0179750">
<ele>282.500000</ele>
<time>2017-10-20T07:33:12.000Z</time>
</trkpt>
<trkpt lat="31.7791350" lon="35.0179650">
<ele>282.500000</ele>
<time>2017-10-20T07:33:13.000Z</time>
</trkpt>
<trkpt lat="31.7791060" lon="35.0179570">
<ele>282.600006</ele>
<time>2017-10-20T07:33:14.000Z</time>
</trkpt>
<trkpt lat="31.7790760" lon="35.0179470">
<ele>282.600006</ele>
<time>2017-10-20T07:33:15.000Z</time>
</trkpt>
<trkpt lat="31.7790460" lon="35.0179370">
<ele>282.699982</ele>
<time>2017-10-20T07:33:16.000Z</time>
</trkpt>
<trkpt lat="31.7790220" lon="35.0179180">
<ele>282.699982</ele>
<time>2017-10-20T07:33:17.000Z</time>
</trkpt>
<trkpt lat="31.7789720" lon="35.0178970">
<ele>282.800018</ele>
<time>2017-10-20T07:33:19.000Z</time>
</trkpt>
<trkpt lat="31.7789440" lon="35.0178840">
<ele>282.800018</ele>
<time>2017-10-20T07:33:20.000Z</time>
</trkpt>
<trkpt lat="31.7789170" lon="35.0178730">
<ele>282.800018</ele>
<time>2017-10-20T07:33:21.000Z</time>
</trkpt>
<trkpt lat="31.7788700" lon="35.0178540">
<ele>282.800018</ele>
<time>2017-10-20T07:33:23.000Z</time>
</trkpt>
<trkpt lat="31.7788430" lon="35.0178380">
<ele>282.699982</ele>
<time>2017-10-20T07:33:24.000Z</time>
</trkpt>
<trkpt lat="31.7788120" lon="35.0178190">
<ele>282.699982</ele>
<time>2017-10-20T07:33:25.000Z</time>
</trkpt>
<trkpt lat="31.7787800" lon="35.0177970">
<ele>282.600006</ele>
<time>2017-10-20T07:33:26.000Z</time>
</trkpt>
<trkpt lat="31.7787530" lon="35.0177710">
<ele>282.500000</ele>
<time>2017-10-20T07:33:27.000Z</time>
</trkpt>
<trkpt lat="31.7787340" lon="35.0177420">
<ele>282.399994</ele>
<time>2017-10-20T07:33:28.000Z</time>
</trkpt>
<trkpt lat="31.7787220" lon="35.0177140">
<ele>282.299988</ele>
<time>2017-10-20T07:33:29.000Z</time>
</trkpt>
<trkpt lat="31.7787100" lon="35.0176770">
<ele>282.299988</ele>
<time>2017-10-20T07:33:30.000Z</time>
</trkpt>
<trkpt lat="31.7786850" lon="35.0176430">
<ele>282.200012</ele>
<time>2017-10-20T07:33:31.000Z</time>
</trkpt>
<trkpt lat="31.7786660" lon="35.0176080">
<ele>282.100006</ele>
<time>2017-10-20T07:33:32.000Z</time>
</trkpt>
<trkpt lat="31.7786450" lon="35.0175790">
<ele>282.000000</ele>
<time>2017-10-20T07:33:33.000Z</time>
</trkpt>
<trkpt lat="31.7786180" lon="35.0175420">
<ele>281.800018</ele>
<time>2017-10-20T07:33:34.000Z</time>
</trkpt>
<trkpt lat="31.7785920" lon="35.0175030">
<ele>281.600006</ele>
<time>2017-10-20T07:33:35.000Z</time>
</trkpt>
<trkpt lat="31.7785670" lon="35.0174560">
<ele>281.399994</ele>
<time>2017-10-20T07:33:36.000Z</time>
</trkpt>
<trkpt lat="31.7785400" lon="35.0174220">
<ele>281.200012</ele>
<time>2017-10-20T07:33:37.000Z</time>
</trkpt>
<trkpt lat="31.7785190" lon="35.0173970">
<ele>281.000000</ele>
<time>2017-10-20T07:33:38.000Z</time>
</trkpt>
<trkpt lat="31.7785010" lon="35.0173710">
<ele>280.899994</ele>
<time>2017-10-20T07:33:39.000Z</time>
</trkpt>
<trkpt lat="31.7784850" lon="35.0173430">
<ele>280.700012</ele>
<time>2017-10-20T07:33:40.000Z</time>
</trkpt>
</trkseg>
</trk>
</gpx>
